<?xml version="1.0" encoding="UTF-8"?>
<gpx version="1.1" creator="https://www.youtrack.es" xsi:schemaLocation="http://www.topografix.com/GPX/1/1 http://www.topografix.com/GPX/1/1/gpx.xsd http://www.garmin.com/xmlschemas/GpxExtensions/v3 http://www.garmin.com/xmlschemas/GpxExtensionsv3.xsd http://www.garmin.com/xmlschemas/TrackPointExtension/v1 http://www.garmin.com/xmlschemas/TrackPointExtensionv1.xsd" xmlns:gpxtpx="http://www.garmin.com/xmlschemas/TrackPointExtension/v1" xmlns:gpxx="http://www.garmin.com/xmlschemas/GpxExtensions/v3" xmlns:xsi="http://www.w3.org/2001/XMLSchema-instance">
  <metadata>
    <link href="https://www.youtrack.es">
      <text>YouTrack.es</text>
    </link>
    <time>2026-05-08T06:36:03Z</time>
  </metadata>
  <wpt lat="42.3928" lon="1.59896">
    <ele>1456</ele>
    <name>Coll de la Mata</name>
  </wpt>
  <wpt lat="42.3872" lon="1.58254">
    <ele>1096</ele>
    <name>Castellnou de Carcolze</name>
  </wpt>
  <wpt lat="42.4117" lon="1.59406">
    <ele>1892</ele>
    <name>Pista Aransa Bescaran</name>
  </wpt>
  <wpt lat="42.3927" lon="1.59923">
    <ele>1472</ele>
    <name>Coll de la Mata</name>
  </wpt>
  <wpt lat="42.3891" lon="1.6207">
    <ele>1165</ele>
    <name>Inici drecera</name>
  </wpt>
  <wpt lat="42.3898" lon="1.63251">
    <ele>1229</ele>
    <name>Cortal de Casanet</name>
  </wpt>
  <wpt lat="42.3928" lon="1.59896">
    <ele>1456</ele>
    <name>Coll de la Mata</name>
  </wpt>
  <wpt lat="42.3872" lon="1.58254">
    <ele>1096</ele>
    <name>Castellnou de Carcolze</name>
  </wpt>
  <wpt lat="42.4117" lon="1.59406">
    <ele>1892</ele>
    <name>Pista Aransa Bescaran</name>
  </wpt>
  <wpt lat="42.4246" lon="1.60099">
    <ele>2231</ele>
    <name>Cim Turo Punço</name>
  </wpt>
  <wpt lat="42.3966" lon="1.63587">
    <ele>1497</ele>
    <name>Esqueixa</name>
  </wpt>
  <wpt lat="42.3928" lon="1.59896">
    <ele>1456</ele>
    <name>Coll de la Mata</name>
  </wpt>
  <wpt lat="42.3872" lon="1.58254">
    <ele>1096</ele>
    <name>Castellnou de Carcolze</name>
  </wpt>
  <wpt lat="42.4117" lon="1.59406">
    <ele>1892</ele>
    <name>Pista Aransa Bescaran</name>
  </wpt>
  <wpt lat="42.3927" lon="1.59923">
    <ele>1472</ele>
    <name>Coll de la Mata</name>
  </wpt>
  <wpt lat="42.3891" lon="1.6207">
    <ele>1165</ele>
    <name>Inici drecera</name>
  </wpt>
  <wpt lat="42.3898" lon="1.63251">
    <ele>1229</ele>
    <name>Cortal de Casanet</name>
  </wpt>
  <wpt lat="42.3928" lon="1.59896">
    <ele>1456</ele>
    <name>Coll de la Mata</name>
  </wpt>
  <wpt lat="42.3872" lon="1.58254">
    <ele>1096</ele>
    <name>Castellnou de Carcolze</name>
  </wpt>
  <wpt lat="42.4117" lon="1.59406">
    <ele>1892</ele>
    <name>Pista Aransa Bescaran</name>
  </wpt>
  <wpt lat="42.4246" lon="1.60099">
    <ele>2231</ele>
    <name>Cim Turo Punço</name>
  </wpt>
  <wpt lat="42.3966" lon="1.63587">
    <ele>1497</ele>
    <name>Esqueixa</name>
  </wpt>
  <trk>
    <src>https://www.youtrack.es</src>
    <link href="https://www.youtrack.es/ruta/35348-trobada-aristot-pro">
      <text>YouTrack.es</text>
    </link>
    <trkseg>
      <trkpt lat="42.37918" lon="1.623881">
        <ele>1031.878</ele>
        <time>2022-08-18T18:29:24Z</time>
      </trkpt>
      <trkpt lat="42.379126" lon="1.623878">
        <ele>1031.833</ele>
        <time>2022-08-18T18:29:33Z</time>
      </trkpt>
      <trkpt lat="42.379175" lon="1.6238899999999998">
        <ele>1031.826</ele>
        <time>2022-08-18T18:29:35Z</time>
      </trkpt>
      <trkpt lat="42.379234" lon="1.6238899999999998">
        <ele>1031.809</ele>
        <time>2022-08-18T18:29:38Z</time>
      </trkpt>
      <trkpt lat="42.379301" lon="1.62387">
        <ele>1031.838</ele>
        <time>2022-08-18T18:29:40Z</time>
      </trkpt>
      <trkpt lat="42.379363999999995" lon="1.623835">
        <ele>1031.878</ele>
        <time>2022-08-18T18:29:42Z</time>
      </trkpt>
      <trkpt lat="42.379405" lon="1.6238009999999998">
        <ele>1031.868</ele>
        <time>2022-08-18T18:29:44Z</time>
      </trkpt>
      <trkpt lat="42.379464999999996" lon="1.6237869999999999">
        <ele>1031.827</ele>
        <time>2022-08-18T18:29:46Z</time>
      </trkpt>
      <trkpt lat="42.379529999999995" lon="1.6237799999999998">
        <ele>1031.834</ele>
        <time>2022-08-18T18:29:48Z</time>
      </trkpt>
      <trkpt lat="42.379591999999995" lon="1.6237749999999997">
        <ele>1031.861</ele>
        <time>2022-08-18T18:29:50Z</time>
      </trkpt>
      <trkpt lat="42.379639" lon="1.6237789999999996">
        <ele>1031.817</ele>
        <time>2022-08-18T18:29:53Z</time>
      </trkpt>
      <trkpt lat="42.379681" lon="1.6238179999999995">
        <ele>1031.879</ele>
        <time>2022-08-18T18:29:56Z</time>
      </trkpt>
      <trkpt lat="42.379715" lon="1.6238619999999995">
        <ele>1031.831</ele>
        <time>2022-08-18T18:29:59Z</time>
      </trkpt>
      <trkpt lat="42.379762" lon="1.6238869999999994">
        <ele>1031.843</ele>
        <time>2022-08-18T18:30:02Z</time>
      </trkpt>
      <trkpt lat="42.379805" lon="1.6239089999999994">
        <ele>1031.864</ele>
        <time>2022-08-18T18:30:05Z</time>
      </trkpt>
      <trkpt lat="42.379870999999994" lon="1.6238959999999993">
        <ele>1031.810</ele>
        <time>2022-08-18T18:30:32Z</time>
      </trkpt>
      <trkpt lat="42.37992499999999" lon="1.6238109999999994">
        <ele>1031.809</ele>
        <time>2022-08-18T18:30:33Z</time>
      </trkpt>
      <trkpt lat="42.380050999999995" lon="1.6237459999999995">
        <ele>1031.825</ele>
        <time>2022-08-18T18:30:35Z</time>
      </trkpt>
      <trkpt lat="42.38012499999999" lon="1.6237429999999995">
        <ele>1031.865</ele>
        <time>2022-08-18T18:30:36Z</time>
      </trkpt>
      <trkpt lat="42.38021299999999" lon="1.6237179999999996">
        <ele>1031.885</ele>
        <time>2022-08-18T18:30:37Z</time>
      </trkpt>
      <trkpt lat="42.38037099999999" lon="1.6236789999999997">
        <ele>1031.554</ele>
        <time>2022-08-18T18:30:39Z</time>
      </trkpt>
      <trkpt lat="42.38042599999999" lon="1.6236879999999996">
        <ele>1031.431</ele>
        <time>2022-08-18T18:30:40Z</time>
      </trkpt>
      <trkpt lat="42.380520999999995" lon="1.6237609999999996">
        <ele>1031.378</ele>
        <time>2022-08-18T18:30:42Z</time>
      </trkpt>
      <trkpt lat="42.380587999999996" lon="1.6237919999999995">
        <ele>1031.334</ele>
        <time>2022-08-18T18:30:43Z</time>
      </trkpt>
      <trkpt lat="42.38063999999999" lon="1.6238389999999994">
        <ele>1031.256</ele>
        <time>2022-08-18T18:30:44Z</time>
      </trkpt>
      <trkpt lat="42.38074799999999" lon="1.6238889999999995">
        <ele>1031.148</ele>
        <time>2022-08-18T18:30:46Z</time>
      </trkpt>
      <trkpt lat="42.38087499999999" lon="1.6239719999999995">
        <ele>1031.027</ele>
        <time>2022-08-18T18:30:48Z</time>
      </trkpt>
      <trkpt lat="42.38098999999999" lon="1.6240489999999996">
        <ele>1030.968</ele>
        <time>2022-08-18T18:30:50Z</time>
      </trkpt>
      <trkpt lat="42.38103199999999" lon="1.6241039999999995">
        <ele>1030.714</ele>
        <time>2022-08-18T18:30:51Z</time>
      </trkpt>
      <trkpt lat="42.38107799999999" lon="1.6241809999999997">
        <ele>1030.609</ele>
        <time>2022-08-18T18:30:52Z</time>
      </trkpt>
      <trkpt lat="42.381120999999986" lon="1.6242539999999996">
        <ele>1030.453</ele>
        <time>2022-08-18T18:30:53Z</time>
      </trkpt>
      <trkpt lat="42.381213999999986" lon="1.6243929999999995">
        <ele>1030.073</ele>
        <time>2022-08-18T18:30:55Z</time>
      </trkpt>
      <trkpt lat="42.38130299999999" lon="1.6244839999999996">
        <ele>1029.893</ele>
        <time>2022-08-18T18:30:57Z</time>
      </trkpt>
      <trkpt lat="42.38134299999999" lon="1.6245339999999997">
        <ele>1029.782</ele>
        <time>2022-08-18T18:30:58Z</time>
      </trkpt>
      <trkpt lat="42.381368999999985" lon="1.6246279999999997">
        <ele>1029.779</ele>
        <time>2022-08-18T18:30:59Z</time>
      </trkpt>
      <trkpt lat="42.381452999999986" lon="1.6247279999999997">
        <ele>1029.776</ele>
        <time>2022-08-18T18:31:01Z</time>
      </trkpt>
      <trkpt lat="42.381483999999986" lon="1.6247749999999996">
        <ele>1029.742</ele>
        <time>2022-08-18T18:31:02Z</time>
      </trkpt>
      <trkpt lat="42.38155599999999" lon="1.6248519999999997">
        <ele>1029.884</ele>
        <time>2022-08-18T18:31:04Z</time>
      </trkpt>
      <trkpt lat="42.38159899999999" lon="1.6248949999999998">
        <ele>1029.856</ele>
        <time>2022-08-18T18:31:05Z</time>
      </trkpt>
      <trkpt lat="42.38169399999999" lon="1.6248789999999997">
        <ele>1029.941</ele>
        <time>2022-08-18T18:31:07Z</time>
      </trkpt>
      <trkpt lat="42.38179599999999" lon="1.6248659999999997">
        <ele>1030.081</ele>
        <time>2022-08-18T18:31:09Z</time>
      </trkpt>
      <trkpt lat="42.381967999999986" lon="1.6247789999999998">
        <ele>1030.209</ele>
        <time>2022-08-18T18:31:11Z</time>
      </trkpt>
      <trkpt lat="42.38199199999999" lon="1.6248329999999997">
        <ele>1030.309</ele>
        <time>2022-08-18T18:31:12Z</time>
      </trkpt>
      <trkpt lat="42.38204299999999" lon="1.6248099999999996">
        <ele>1030.435</ele>
        <time>2022-08-18T18:31:13Z</time>
      </trkpt>
      <trkpt lat="42.38210299999999" lon="1.6248689999999997">
        <ele>1030.565</ele>
        <time>2022-08-18T18:31:15Z</time>
      </trkpt>
      <trkpt lat="42.382164999999986" lon="1.6249169999999997">
        <ele>1030.585</ele>
        <time>2022-08-18T18:31:16Z</time>
      </trkpt>
      <trkpt lat="42.382229999999986" lon="1.6249039999999997">
        <ele>1030.584</ele>
        <time>2022-08-18T18:31:17Z</time>
      </trkpt>
      <trkpt lat="42.38236599999998" lon="1.6249059999999997">
        <ele>1030.381</ele>
        <time>2022-08-18T18:31:19Z</time>
      </trkpt>
      <trkpt lat="42.382474999999985" lon="1.6250189999999998">
        <ele>1029.868</ele>
        <time>2022-08-18T18:31:21Z</time>
      </trkpt>
      <trkpt lat="42.38250799999999" lon="1.6250749999999998">
        <ele>1029.664</ele>
        <time>2022-08-18T18:31:22Z</time>
      </trkpt>
      <trkpt lat="42.382612999999985" lon="1.6251319999999998">
        <ele>1029.376</ele>
        <time>2022-08-18T18:31:24Z</time>
      </trkpt>
      <trkpt lat="42.38266199999998" lon="1.6251619999999998">
        <ele>1029.198</ele>
        <time>2022-08-18T18:31:25Z</time>
      </trkpt>
      <trkpt lat="42.38275899999998" lon="1.6251959999999999">
        <ele>1028.866</ele>
        <time>2022-08-18T18:31:27Z</time>
      </trkpt>
      <trkpt lat="42.382821999999976" lon="1.6252129999999998">
        <ele>1028.729</ele>
        <time>2022-08-18T18:31:28Z</time>
      </trkpt>
      <trkpt lat="42.382881999999974" lon="1.6252439999999997">
        <ele>1028.521</ele>
        <time>2022-08-18T18:31:29Z</time>
      </trkpt>
      <trkpt lat="42.38294999999997" lon="1.6252809999999998">
        <ele>1028.409</ele>
        <time>2022-08-18T18:31:31Z</time>
      </trkpt>
      <trkpt lat="42.38298399999997" lon="1.6253229999999999">
        <ele>1028.357</ele>
        <time>2022-08-18T18:31:32Z</time>
      </trkpt>
      <trkpt lat="42.38302899999997" lon="1.6253349999999998">
        <ele>1028.247</ele>
        <time>2022-08-18T18:31:33Z</time>
      </trkpt>
      <trkpt lat="42.38312299999997" lon="1.6253609999999998">
        <ele>1027.957</ele>
        <time>2022-08-18T18:31:35Z</time>
      </trkpt>
      <trkpt lat="42.38322399999997" lon="1.6253749999999998">
        <ele>1027.666</ele>
        <time>2022-08-18T18:31:37Z</time>
      </trkpt>
      <trkpt lat="42.38333699999997" lon="1.6253689999999998">
        <ele>1027.273</ele>
        <time>2022-08-18T18:31:39Z</time>
      </trkpt>
      <trkpt lat="42.38344299999997" lon="1.6253849999999999">
        <ele>1026.520</ele>
        <time>2022-08-18T18:31:41Z</time>
      </trkpt>
      <trkpt lat="42.383511999999975" lon="1.6253659999999999">
        <ele>1026.376</ele>
        <time>2022-08-18T18:31:42Z</time>
      </trkpt>
      <trkpt lat="42.38366499999997" lon="1.625362">
        <ele>1025.518</ele>
        <time>2022-08-18T18:31:44Z</time>
      </trkpt>
      <trkpt lat="42.383632999999975" lon="1.625411">
        <ele>1024.910</ele>
        <time>2022-08-18T18:31:46Z</time>
      </trkpt>
      <trkpt lat="42.38373199999997" lon="1.625395">
        <ele>1024.696</ele>
        <time>2022-08-18T18:31:47Z</time>
      </trkpt>
      <trkpt lat="42.383857999999975" lon="1.6253419999999998">
        <ele>1024.131</ele>
        <time>2022-08-18T18:31:49Z</time>
      </trkpt>
      <trkpt lat="42.384054999999975" lon="1.625341">
        <ele>1023.424</ele>
        <time>2022-08-18T18:31:51Z</time>
      </trkpt>
      <trkpt lat="42.384192999999975" lon="1.625395">
        <ele>1022.609</ele>
        <time>2022-08-18T18:31:53Z</time>
      </trkpt>
      <trkpt lat="42.38424199999997" lon="1.625437">
        <ele>1022.480</ele>
        <time>2022-08-18T18:31:54Z</time>
      </trkpt>
      <trkpt lat="42.384355999999975" lon="1.625448">
        <ele>1021.930</ele>
        <time>2022-08-18T18:31:56Z</time>
      </trkpt>
      <trkpt lat="42.384423999999974" lon="1.625451">
        <ele>1021.520</ele>
        <time>2022-08-18T18:31:57Z</time>
      </trkpt>
      <trkpt lat="42.384530999999974" lon="1.625516">
        <ele>1020.899</ele>
        <time>2022-08-18T18:31:59Z</time>
      </trkpt>
      <trkpt lat="42.38463399999998" lon="1.625534">
        <ele>1020.346</ele>
        <time>2022-08-18T18:32:01Z</time>
      </trkpt>
      <trkpt lat="42.38473999999998" lon="1.6255">
        <ele>1019.883</ele>
        <time>2022-08-18T18:32:03Z</time>
      </trkpt>
      <trkpt lat="42.38478599999998" lon="1.625524">
        <ele>1019.579</ele>
        <time>2022-08-18T18:32:04Z</time>
      </trkpt>
      <trkpt lat="42.384837999999974" lon="1.625516">
        <ele>1019.371</ele>
        <time>2022-08-18T18:32:05Z</time>
      </trkpt>
      <trkpt lat="42.384887999999975" lon="1.625539">
        <ele>1018.853</ele>
        <time>2022-08-18T18:32:06Z</time>
      </trkpt>
      <trkpt lat="42.38496199999997" lon="1.6255220000000001">
        <ele>1018.373</ele>
        <time>2022-08-18T18:32:08Z</time>
      </trkpt>
      <trkpt lat="42.38501299999997" lon="1.6255160000000002">
        <ele>1018.185</ele>
        <time>2022-08-18T18:32:09Z</time>
      </trkpt>
      <trkpt lat="42.385079999999974" lon="1.6255210000000002">
        <ele>1017.513</ele>
        <time>2022-08-18T18:32:10Z</time>
      </trkpt>
      <trkpt lat="42.38513399999997" lon="1.6254640000000002">
        <ele>1016.509</ele>
        <time>2022-08-18T18:32:13Z</time>
      </trkpt>
      <trkpt lat="42.38520999999997" lon="1.6254510000000002">
        <ele>1016.148</ele>
        <time>2022-08-18T18:32:14Z</time>
      </trkpt>
      <trkpt lat="42.38531399999997" lon="1.6254390000000003">
        <ele>1015.338</ele>
        <time>2022-08-18T18:32:16Z</time>
      </trkpt>
      <trkpt lat="42.385385999999976" lon="1.6254460000000004">
        <ele>1014.878</ele>
        <time>2022-08-18T18:32:17Z</time>
      </trkpt>
      <trkpt lat="42.38546999999998" lon="1.6254150000000005">
        <ele>1014.337</ele>
        <time>2022-08-18T18:32:18Z</time>
      </trkpt>
      <trkpt lat="42.385543999999975" lon="1.6253880000000005">
        <ele>1013.674</ele>
        <time>2022-08-18T18:32:20Z</time>
      </trkpt>
      <trkpt lat="42.38564299999997" lon="1.6253650000000004">
        <ele>1013.051</ele>
        <time>2022-08-18T18:32:22Z</time>
      </trkpt>
      <trkpt lat="42.38571199999998" lon="1.6253520000000004">
        <ele>1012.577</ele>
        <time>2022-08-18T18:32:23Z</time>
      </trkpt>
      <trkpt lat="42.38582699999998" lon="1.6253740000000003">
        <ele>1011.439</ele>
        <time>2022-08-18T18:32:25Z</time>
      </trkpt>
      <trkpt lat="42.38587999999998" lon="1.6253580000000003">
        <ele>1010.921</ele>
        <time>2022-08-18T18:32:26Z</time>
      </trkpt>
      <trkpt lat="42.38593999999998" lon="1.6253360000000003">
        <ele>1010.422</ele>
        <time>2022-08-18T18:32:27Z</time>
      </trkpt>
      <trkpt lat="42.38604899999998" lon="1.6253330000000004">
        <ele>1009.562</ele>
        <time>2022-08-18T18:32:29Z</time>
      </trkpt>
      <trkpt lat="42.38613499999998" lon="1.6252670000000005">
        <ele>1009.108</ele>
        <time>2022-08-18T18:32:30Z</time>
      </trkpt>
      <trkpt lat="42.38618799999998" lon="1.6252350000000004">
        <ele>1008.409</ele>
        <time>2022-08-18T18:32:32Z</time>
      </trkpt>
      <trkpt lat="42.38623999999998" lon="1.6252980000000004">
        <ele>1008.043</ele>
        <time>2022-08-18T18:32:34Z</time>
      </trkpt>
      <trkpt lat="42.38633599999998" lon="1.6253150000000003">
        <ele>1007.553</ele>
        <time>2022-08-18T18:32:36Z</time>
      </trkpt>
      <trkpt lat="42.38640499999998" lon="1.6253370000000003">
        <ele>1007.163</ele>
        <time>2022-08-18T18:32:38Z</time>
      </trkpt>
      <trkpt lat="42.38648999999998" lon="1.6253570000000002">
        <ele>1006.542</ele>
        <time>2022-08-18T18:32:40Z</time>
      </trkpt>
      <trkpt lat="42.386575999999984" lon="1.6253800000000003">
        <ele>1006.119</ele>
        <time>2022-08-18T18:32:42Z</time>
      </trkpt>
      <trkpt lat="42.386662999999984" lon="1.6253820000000003">
        <ele>1005.936</ele>
        <time>2022-08-18T18:32:44Z</time>
      </trkpt>
      <trkpt lat="42.386710999999984" lon="1.6253950000000004">
        <ele>1005.982</ele>
        <time>2022-08-18T18:32:45Z</time>
      </trkpt>
      <trkpt lat="42.38676299999998" lon="1.6254130000000004">
        <ele>1005.954</ele>
        <time>2022-08-18T18:32:46Z</time>
      </trkpt>
      <trkpt lat="42.38681099999998" lon="1.6254360000000005">
        <ele>1005.926</ele>
        <time>2022-08-18T18:32:47Z</time>
      </trkpt>
      <trkpt lat="42.38689199999998" lon="1.6254850000000005">
        <ele>1006.124</ele>
        <time>2022-08-18T18:32:49Z</time>
      </trkpt>
      <trkpt lat="42.38697899999998" lon="1.6255140000000006">
        <ele>1006.504</ele>
        <time>2022-08-18T18:32:51Z</time>
      </trkpt>
      <trkpt lat="42.38706399999998" lon="1.6256080000000006">
        <ele>1007.014</ele>
        <time>2022-08-18T18:32:53Z</time>
      </trkpt>
      <trkpt lat="42.38711299999998" lon="1.6256900000000005">
        <ele>1007.509</ele>
        <time>2022-08-18T18:32:55Z</time>
      </trkpt>
      <trkpt lat="42.387178999999975" lon="1.6257070000000005">
        <ele>1007.953</ele>
        <time>2022-08-18T18:32:57Z</time>
      </trkpt>
      <trkpt lat="42.38724299999998" lon="1.6256970000000004">
        <ele>1008.043</ele>
        <time>2022-08-18T18:32:59Z</time>
      </trkpt>
      <trkpt lat="42.38731599999998" lon="1.6256270000000004">
        <ele>1008.083</ele>
        <time>2022-08-18T18:33:01Z</time>
      </trkpt>
      <trkpt lat="42.387361999999975" lon="1.6256160000000004">
        <ele>1008.062</ele>
        <time>2022-08-18T18:33:02Z</time>
      </trkpt>
      <trkpt lat="42.387431999999976" lon="1.6256140000000003">
        <ele>1008.049</ele>
        <time>2022-08-18T18:33:04Z</time>
      </trkpt>
      <trkpt lat="42.38751199999997" lon="1.6255940000000004">
        <ele>1008.046</ele>
        <time>2022-08-18T18:33:06Z</time>
      </trkpt>
      <trkpt lat="42.387555999999975" lon="1.6255780000000004">
        <ele>1008.082</ele>
        <time>2022-08-18T18:33:07Z</time>
      </trkpt>
      <trkpt lat="42.38759899999997" lon="1.6255570000000004">
        <ele>1008.094</ele>
        <time>2022-08-18T18:33:08Z</time>
      </trkpt>
      <trkpt lat="42.38775999999997" lon="1.6255180000000005">
        <ele>1007.166</ele>
        <time>2022-08-18T18:33:10Z</time>
      </trkpt>
      <trkpt lat="42.38785699999997" lon="1.6255060000000006">
        <ele>1006.167</ele>
        <time>2022-08-18T18:33:12Z</time>
      </trkpt>
      <trkpt lat="42.38792499999997" lon="1.6255510000000006">
        <ele>1005.581</ele>
        <time>2022-08-18T18:33:13Z</time>
      </trkpt>
      <trkpt lat="42.38798899999997" lon="1.6256260000000007">
        <ele>1004.519</ele>
        <time>2022-08-18T18:33:15Z</time>
      </trkpt>
      <trkpt lat="42.38804599999997" lon="1.6256610000000007">
        <ele>1004.309</ele>
        <time>2022-08-18T18:33:16Z</time>
      </trkpt>
      <trkpt lat="42.38812399999997" lon="1.6257030000000008">
        <ele>1003.617</ele>
        <time>2022-08-18T18:33:18Z</time>
      </trkpt>
      <trkpt lat="42.38816799999997" lon="1.6256870000000008">
        <ele>1003.177</ele>
        <time>2022-08-18T18:33:20Z</time>
      </trkpt>
      <trkpt lat="42.388214999999974" lon="1.6257000000000008">
        <ele>1002.757</ele>
        <time>2022-08-18T18:33:22Z</time>
      </trkpt>
      <trkpt lat="42.38823299999997" lon="1.6257630000000007">
        <ele>1002.416</ele>
        <time>2022-08-18T18:33:26Z</time>
      </trkpt>
      <trkpt lat="42.38820599999997" lon="1.6258360000000007">
        <ele>1002.013</ele>
        <time>2022-08-18T18:33:32Z</time>
      </trkpt>
      <trkpt lat="42.38818499999997" lon="1.6258970000000008">
        <ele>1001.450</ele>
        <time>2022-08-18T18:33:48Z</time>
      </trkpt>
      <trkpt lat="42.38821599999997" lon="1.6259480000000008">
        <ele>1001.486</ele>
        <time>2022-08-18T18:33:53Z</time>
      </trkpt>
      <trkpt lat="42.38825499999997" lon="1.6259140000000007">
        <ele>1001.458</ele>
        <time>2022-08-18T18:33:56Z</time>
      </trkpt>
      <trkpt lat="42.38821599999997" lon="1.6259610000000007">
        <ele>1001.450</ele>
        <time>2022-08-18T18:34:02Z</time>
      </trkpt>
      <trkpt lat="42.38818999999997" lon="1.6260160000000006">
        <ele>1001.463</ele>
        <time>2022-08-18T18:34:04Z</time>
      </trkpt>
      <trkpt lat="42.38816899999998" lon="1.6260990000000006">
        <ele>1001.544</ele>
        <time>2022-08-18T18:34:07Z</time>
      </trkpt>
      <trkpt lat="42.388132999999975" lon="1.6261630000000007">
        <ele>1001.518</ele>
        <time>2022-08-18T18:34:09Z</time>
      </trkpt>
      <trkpt lat="42.38808399999998" lon="1.6261940000000006">
        <ele>1001.509</ele>
        <time>2022-08-18T18:34:11Z</time>
      </trkpt>
      <trkpt lat="42.38802699999998" lon="1.6262160000000005">
        <ele>1001.467</ele>
        <time>2022-08-18T18:34:14Z</time>
      </trkpt>
      <trkpt lat="42.387971999999976" lon="1.6262660000000007">
        <ele>1001.387</ele>
        <time>2022-08-18T18:34:17Z</time>
      </trkpt>
      <trkpt lat="42.38792599999998" lon="1.6263170000000007">
        <ele>1001.237</ele>
        <time>2022-08-18T18:34:19Z</time>
      </trkpt>
      <trkpt lat="42.38788099999998" lon="1.6263620000000008">
        <ele>1001.286</ele>
        <time>2022-08-18T18:34:21Z</time>
      </trkpt>
      <trkpt lat="42.38783199999998" lon="1.6263990000000008">
        <ele>1001.253</ele>
        <time>2022-08-18T18:34:23Z</time>
      </trkpt>
      <trkpt lat="42.38778699999998" lon="1.6264380000000007">
        <ele>1001.520</ele>
        <time>2022-08-18T18:34:26Z</time>
      </trkpt>
      <trkpt lat="42.38775299999998" lon="1.6264920000000007">
        <ele>1001.726</ele>
        <time>2022-08-18T18:34:29Z</time>
      </trkpt>
      <trkpt lat="42.387712999999984" lon="1.6265490000000007">
        <ele>1001.778</ele>
        <time>2022-08-18T18:34:32Z</time>
      </trkpt>
      <trkpt lat="42.387666999999986" lon="1.6266050000000007">
        <ele>1001.710</ele>
        <time>2022-08-18T18:34:35Z</time>
      </trkpt>
      <trkpt lat="42.387633999999984" lon="1.6266570000000007">
        <ele>1001.836</ele>
        <time>2022-08-18T18:34:38Z</time>
      </trkpt>
      <trkpt lat="42.38758699999998" lon="1.6267340000000008">
        <ele>1001.817</ele>
        <time>2022-08-18T18:34:41Z</time>
      </trkpt>
      <trkpt lat="42.387554999999985" lon="1.6267940000000007">
        <ele>1001.818</ele>
        <time>2022-08-18T18:34:43Z</time>
      </trkpt>
      <trkpt lat="42.387537999999985" lon="1.6268650000000007">
        <ele>1001.909</ele>
        <time>2022-08-18T18:34:46Z</time>
      </trkpt>
      <trkpt lat="42.38749699999998" lon="1.6269340000000008">
        <ele>1001.964</ele>
        <time>2022-08-18T18:34:49Z</time>
      </trkpt>
      <trkpt lat="42.38746699999998" lon="1.6269860000000007">
        <ele>1002.044</ele>
        <time>2022-08-18T18:34:52Z</time>
      </trkpt>
      <trkpt lat="42.38745499999998" lon="1.6270450000000007">
        <ele>1002.344</ele>
        <time>2022-08-18T18:34:55Z</time>
      </trkpt>
      <trkpt lat="42.38741799999998" lon="1.6271040000000008">
        <ele>1002.763</ele>
        <time>2022-08-18T18:34:59Z</time>
      </trkpt>
      <trkpt lat="42.38736699999998" lon="1.6271370000000007">
        <ele>1003.250</ele>
        <time>2022-08-18T18:35:03Z</time>
      </trkpt>
      <trkpt lat="42.387312999999985" lon="1.6271250000000008">
        <ele>1003.787</ele>
        <time>2022-08-18T18:35:06Z</time>
      </trkpt>
      <trkpt lat="42.38725999999998" lon="1.6271450000000007">
        <ele>1004.433</ele>
        <time>2022-08-18T18:35:09Z</time>
      </trkpt>
      <trkpt lat="42.38721499999998" lon="1.6271540000000007">
        <ele>1005.035</ele>
        <time>2022-08-18T18:35:12Z</time>
      </trkpt>
      <trkpt lat="42.387168999999986" lon="1.6271740000000006">
        <ele>1005.957</ele>
        <time>2022-08-18T18:35:16Z</time>
      </trkpt>
      <trkpt lat="42.38715099999999" lon="1.6272330000000006">
        <ele>1006.652</ele>
        <time>2022-08-18T18:35:20Z</time>
      </trkpt>
      <trkpt lat="42.38715699999999" lon="1.6272990000000005">
        <ele>1007.453</ele>
        <time>2022-08-18T18:35:24Z</time>
      </trkpt>
      <trkpt lat="42.387154999999986" lon="1.6273670000000005">
        <ele>1008.108</ele>
        <time>2022-08-18T18:35:28Z</time>
      </trkpt>
      <trkpt lat="42.387151999999986" lon="1.6274530000000005">
        <ele>1008.709</ele>
        <time>2022-08-18T18:35:32Z</time>
      </trkpt>
      <trkpt lat="42.387196999999986" lon="1.6274840000000004">
        <ele>1009.396</ele>
        <time>2022-08-18T18:35:35Z</time>
      </trkpt>
      <trkpt lat="42.387174999999985" lon="1.6275380000000004">
        <ele>1010.956</ele>
        <time>2022-08-18T18:35:42Z</time>
      </trkpt>
      <trkpt lat="42.38713199999999" lon="1.6275690000000003">
        <ele>1011.456</ele>
        <time>2022-08-18T18:35:46Z</time>
      </trkpt>
      <trkpt lat="42.38714599999999" lon="1.6276340000000002">
        <ele>1011.925</ele>
        <time>2022-08-18T18:35:49Z</time>
      </trkpt>
      <trkpt lat="42.387137999999986" lon="1.6277040000000003">
        <ele>1012.692</ele>
        <time>2022-08-18T18:35:54Z</time>
      </trkpt>
      <trkpt lat="42.38714199999998" lon="1.6277670000000002">
        <ele>1013.439</ele>
        <time>2022-08-18T18:36:00Z</time>
      </trkpt>
      <trkpt lat="42.387115999999985" lon="1.6278290000000002">
        <ele>1014.285</ele>
        <time>2022-08-18T18:36:05Z</time>
      </trkpt>
      <trkpt lat="42.387092999999986" lon="1.6278990000000002">
        <ele>1015.047</ele>
        <time>2022-08-18T18:36:10Z</time>
      </trkpt>
      <trkpt lat="42.387135999999984" lon="1.6279580000000002">
        <ele>1015.689</ele>
        <time>2022-08-18T18:36:14Z</time>
      </trkpt>
      <trkpt lat="42.38713999999998" lon="1.6280230000000002">
        <ele>1016.841</ele>
        <time>2022-08-18T18:36:18Z</time>
      </trkpt>
      <trkpt lat="42.38711199999998" lon="1.6280840000000003">
        <ele>1018.081</ele>
        <time>2022-08-18T18:36:23Z</time>
      </trkpt>
      <trkpt lat="42.38707599999998" lon="1.6281350000000003">
        <ele>1018.909</ele>
        <time>2022-08-18T18:36:28Z</time>
      </trkpt>
      <trkpt lat="42.38709499999998" lon="1.6282100000000004">
        <ele>1019.709</ele>
        <time>2022-08-18T18:36:31Z</time>
      </trkpt>
      <trkpt lat="42.38708599999998" lon="1.6282780000000003">
        <ele>1020.385</ele>
        <time>2022-08-18T18:36:36Z</time>
      </trkpt>
      <trkpt lat="42.38706099999998" lon="1.6283550000000004">
        <ele>1021.775</ele>
        <time>2022-08-18T18:36:41Z</time>
      </trkpt>
      <trkpt lat="42.38702399999998" lon="1.6283930000000004">
        <ele>1022.075</ele>
        <time>2022-08-18T18:36:44Z</time>
      </trkpt>
      <trkpt lat="42.387022999999985" lon="1.6284570000000005">
        <ele>1022.634</ele>
        <time>2022-08-18T18:36:49Z</time>
      </trkpt>
      <trkpt lat="42.38702399999998" lon="1.6285300000000005">
        <ele>1022.951</ele>
        <time>2022-08-18T18:36:54Z</time>
      </trkpt>
      <trkpt lat="42.38702099999998" lon="1.6286020000000005">
        <ele>1023.438</ele>
        <time>2022-08-18T18:36:59Z</time>
      </trkpt>
      <trkpt lat="42.38700699999998" lon="1.6286710000000006">
        <ele>1024.174</ele>
        <time>2022-08-18T18:37:04Z</time>
      </trkpt>
      <trkpt lat="42.38698199999998" lon="1.6287350000000007">
        <ele>1025.086</ele>
        <time>2022-08-18T18:37:09Z</time>
      </trkpt>
      <trkpt lat="42.38697099999998" lon="1.6288080000000007">
        <ele>1026.178</ele>
        <time>2022-08-18T18:37:14Z</time>
      </trkpt>
      <trkpt lat="42.38700299999998" lon="1.6287540000000007">
        <ele>1027.285</ele>
        <time>2022-08-18T18:37:21Z</time>
      </trkpt>
      <trkpt lat="42.386840999999976" lon="1.6290010000000008">
        <ele>1027.989</ele>
        <time>2022-08-18T18:37:26Z</time>
      </trkpt>
      <trkpt lat="42.38686999999997" lon="1.6290560000000007">
        <ele>1029.417</ele>
        <time>2022-08-18T18:37:31Z</time>
      </trkpt>
      <trkpt lat="42.386865999999976" lon="1.6291210000000007">
        <ele>1029.809</ele>
        <time>2022-08-18T18:37:34Z</time>
      </trkpt>
      <trkpt lat="42.38682799999997" lon="1.6291690000000008">
        <ele>1030.159</ele>
        <time>2022-08-18T18:37:37Z</time>
      </trkpt>
      <trkpt lat="42.38681399999997" lon="1.6292280000000008">
        <ele>1030.369</ele>
        <time>2022-08-18T18:37:41Z</time>
      </trkpt>
      <trkpt lat="42.38679699999997" lon="1.6292890000000009">
        <ele>1030.459</ele>
        <time>2022-08-18T18:37:45Z</time>
      </trkpt>
      <trkpt lat="42.38675299999997" lon="1.6293380000000008">
        <ele>1030.638</ele>
        <time>2022-08-18T18:37:48Z</time>
      </trkpt>
      <trkpt lat="42.38670699999997" lon="1.6293580000000008">
        <ele>1031.265</ele>
        <time>2022-08-18T18:37:51Z</time>
      </trkpt>
      <trkpt lat="42.38667099999997" lon="1.6293960000000007">
        <ele>1032.022</ele>
        <time>2022-08-18T18:37:55Z</time>
      </trkpt>
      <trkpt lat="42.38664299999997" lon="1.6294650000000008">
        <ele>1032.888</ele>
        <time>2022-08-18T18:37:59Z</time>
      </trkpt>
      <trkpt lat="42.38661399999997" lon="1.6295130000000009">
        <ele>1033.750</ele>
        <time>2022-08-18T18:38:03Z</time>
      </trkpt>
      <trkpt lat="42.38660299999997" lon="1.6295730000000008">
        <ele>1034.492</ele>
        <time>2022-08-18T18:38:08Z</time>
      </trkpt>
      <trkpt lat="42.38657799999997" lon="1.6296400000000009">
        <ele>1035.238</ele>
        <time>2022-08-18T18:38:13Z</time>
      </trkpt>
      <trkpt lat="42.38655899999997" lon="1.629699000000001">
        <ele>1035.970</ele>
        <time>2022-08-18T18:38:17Z</time>
      </trkpt>
      <trkpt lat="42.38654699999997" lon="1.629769000000001">
        <ele>1036.817</ele>
        <time>2022-08-18T18:38:23Z</time>
      </trkpt>
      <trkpt lat="42.38652799999997" lon="1.6298320000000008">
        <ele>1037.709</ele>
        <time>2022-08-18T18:38:28Z</time>
      </trkpt>
      <trkpt lat="42.38653299999997" lon="1.6298970000000008">
        <ele>1039.494</ele>
        <time>2022-08-18T18:38:36Z</time>
      </trkpt>
      <trkpt lat="42.38649599999997" lon="1.6299510000000008">
        <ele>1040.674</ele>
        <time>2022-08-18T18:38:40Z</time>
      </trkpt>
      <trkpt lat="42.386460999999976" lon="1.6299910000000009">
        <ele>1041.684</ele>
        <time>2022-08-18T18:38:44Z</time>
      </trkpt>
      <trkpt lat="42.38642899999998" lon="1.630039000000001">
        <ele>1042.673</ele>
        <time>2022-08-18T18:38:52Z</time>
      </trkpt>
      <trkpt lat="42.386390999999975" lon="1.630092000000001">
        <ele>1043.840</ele>
        <time>2022-08-18T18:39:00Z</time>
      </trkpt>
      <trkpt lat="42.386362999999974" lon="1.630148000000001">
        <ele>1045.357</ele>
        <time>2022-08-18T18:39:05Z</time>
      </trkpt>
      <trkpt lat="42.386365999999974" lon="1.630210000000001">
        <ele>1046.373</ele>
        <time>2022-08-18T18:39:09Z</time>
      </trkpt>
      <trkpt lat="42.38633599999997" lon="1.630269000000001">
        <ele>1047.835</ele>
        <time>2022-08-18T18:39:15Z</time>
      </trkpt>
      <trkpt lat="42.38630599999997" lon="1.630326000000001">
        <ele>1049.427</ele>
        <time>2022-08-18T18:39:21Z</time>
      </trkpt>
      <trkpt lat="42.38628699999997" lon="1.630389000000001">
        <ele>1050.885</ele>
        <time>2022-08-18T18:39:26Z</time>
      </trkpt>
      <trkpt lat="42.38626699999997" lon="1.630448000000001">
        <ele>1052.189</ele>
        <time>2022-08-18T18:39:32Z</time>
      </trkpt>
      <trkpt lat="42.38624099999997" lon="1.630509000000001">
        <ele>1053.417</ele>
        <time>2022-08-18T18:39:38Z</time>
      </trkpt>
      <trkpt lat="42.38622999999997" lon="1.630580000000001">
        <ele>1054.509</ele>
        <time>2022-08-18T18:39:43Z</time>
      </trkpt>
      <trkpt lat="42.386247999999966" lon="1.6306410000000011">
        <ele>1055.539</ele>
        <time>2022-08-18T18:39:49Z</time>
      </trkpt>
      <trkpt lat="42.38629299999997" lon="1.6306490000000011">
        <ele>1057.969</ele>
        <time>2022-08-18T18:39:57Z</time>
      </trkpt>
      <trkpt lat="42.38634199999996" lon="1.6306380000000011">
        <ele>1060.739</ele>
        <time>2022-08-18T18:40:08Z</time>
      </trkpt>
      <trkpt lat="42.386386999999964" lon="1.630620000000001">
        <ele>1062.858</ele>
        <time>2022-08-18T18:40:20Z</time>
      </trkpt>
      <trkpt lat="42.38639899999996" lon="1.630682000000001">
        <ele>1063.865</ele>
        <time>2022-08-18T18:40:28Z</time>
      </trkpt>
      <trkpt lat="42.386397999999964" lon="1.630752000000001">
        <ele>1064.772</ele>
        <time>2022-08-18T18:40:34Z</time>
      </trkpt>
      <trkpt lat="42.386439999999965" lon="1.6307750000000012">
        <ele>1067.718</ele>
        <time>2022-08-18T18:40:49Z</time>
      </trkpt>
      <trkpt lat="42.386487999999964" lon="1.6308050000000012">
        <ele>1069.620</ele>
        <time>2022-08-18T18:40:56Z</time>
      </trkpt>
      <trkpt lat="42.38653699999996" lon="1.6307770000000013">
        <ele>1071.352</ele>
        <time>2022-08-18T18:41:03Z</time>
      </trkpt>
      <trkpt lat="42.38658799999996" lon="1.6307520000000013">
        <ele>1072.243</ele>
        <time>2022-08-18T18:41:09Z</time>
      </trkpt>
      <trkpt lat="42.38654199999996" lon="1.6307430000000014">
        <ele>1075.564</ele>
        <time>2022-08-18T18:41:34Z</time>
      </trkpt>
      <trkpt lat="42.386490999999964" lon="1.6307320000000014">
        <ele>1075.610</ele>
        <time>2022-08-18T18:41:39Z</time>
      </trkpt>
      <trkpt lat="42.38644099999996" lon="1.6307420000000015">
        <ele>1075.709</ele>
        <time>2022-08-18T18:41:45Z</time>
      </trkpt>
      <trkpt lat="42.38640199999996" lon="1.6307830000000014">
        <ele>1076.065</ele>
        <time>2022-08-18T18:41:50Z</time>
      </trkpt>
      <trkpt lat="42.38638999999996" lon="1.6308530000000014">
        <ele>1076.975</ele>
        <time>2022-08-18T18:41:54Z</time>
      </trkpt>
      <trkpt lat="42.38636199999996" lon="1.6309180000000014">
        <ele>1078.965</ele>
        <time>2022-08-18T18:41:59Z</time>
      </trkpt>
      <trkpt lat="42.386380999999965" lon="1.6309770000000015">
        <ele>1079.224</ele>
        <time>2022-08-18T18:42:02Z</time>
      </trkpt>
      <trkpt lat="42.386383999999964" lon="1.6310480000000014">
        <ele>1080.011</ele>
        <time>2022-08-18T18:42:07Z</time>
      </trkpt>
      <trkpt lat="42.386340999999966" lon="1.6310990000000014">
        <ele>1080.678</ele>
        <time>2022-08-18T18:42:11Z</time>
      </trkpt>
      <trkpt lat="42.386310999999964" lon="1.6311500000000014">
        <ele>1081.174</ele>
        <time>2022-08-18T18:42:15Z</time>
      </trkpt>
      <trkpt lat="42.38628699999996" lon="1.6312070000000014">
        <ele>1081.746</ele>
        <time>2022-08-18T18:42:20Z</time>
      </trkpt>
      <trkpt lat="42.38626399999996" lon="1.6312730000000013">
        <ele>1082.388</ele>
        <time>2022-08-18T18:42:26Z</time>
      </trkpt>
      <trkpt lat="42.38623099999996" lon="1.6313280000000012">
        <ele>1083.044</ele>
        <time>2022-08-18T18:42:32Z</time>
      </trkpt>
      <trkpt lat="42.38627299999996" lon="1.6313520000000012">
        <ele>1084.005</ele>
        <time>2022-08-18T18:42:39Z</time>
      </trkpt>
      <trkpt lat="42.38631499999996" lon="1.6314000000000013">
        <ele>1084.415</ele>
        <time>2022-08-18T18:42:42Z</time>
      </trkpt>
      <trkpt lat="42.38634699999996" lon="1.6314450000000014">
        <ele>1085.109</ele>
        <time>2022-08-18T18:42:44Z</time>
      </trkpt>
      <trkpt lat="42.38633999999996" lon="1.6315130000000013">
        <ele>1086.355</ele>
        <time>2022-08-18T18:42:47Z</time>
      </trkpt>
      <trkpt lat="42.38637099999996" lon="1.6314630000000012">
        <ele>1089.835</ele>
        <time>2022-08-18T18:43:01Z</time>
      </trkpt>
      <trkpt lat="42.38641299999996" lon="1.6314250000000012">
        <ele>1090.735</ele>
        <time>2022-08-18T18:43:07Z</time>
      </trkpt>
      <trkpt lat="42.38644899999996" lon="1.6313810000000013">
        <ele>1091.054</ele>
        <time>2022-08-18T18:43:12Z</time>
      </trkpt>
      <trkpt lat="42.386492999999966" lon="1.6313620000000013">
        <ele>1091.481</ele>
        <time>2022-08-18T18:43:20Z</time>
      </trkpt>
      <trkpt lat="42.38652799999996" lon="1.6313070000000014">
        <ele>1092.588</ele>
        <time>2022-08-18T18:43:24Z</time>
      </trkpt>
      <trkpt lat="42.386574999999965" lon="1.6312710000000015">
        <ele>1093.974</ele>
        <time>2022-08-18T18:43:28Z</time>
      </trkpt>
      <trkpt lat="42.386619999999965" lon="1.6312550000000015">
        <ele>1095.266</ele>
        <time>2022-08-18T18:43:32Z</time>
      </trkpt>
      <trkpt lat="42.386641999999966" lon="1.6311870000000015">
        <ele>1096.448</ele>
        <time>2022-08-18T18:43:36Z</time>
      </trkpt>
      <trkpt lat="42.386625999999964" lon="1.6312560000000016">
        <ele>1098.268</ele>
        <time>2022-08-18T18:43:44Z</time>
      </trkpt>
      <trkpt lat="42.38657399999997" lon="1.6312710000000017">
        <ele>1099.142</ele>
        <time>2022-08-18T18:43:49Z</time>
      </trkpt>
      <trkpt lat="42.38652599999997" lon="1.6312710000000017">
        <ele>1099.926</ele>
        <time>2022-08-18T18:43:52Z</time>
      </trkpt>
      <trkpt lat="42.38655399999997" lon="1.6313310000000016">
        <ele>1101.209</ele>
        <time>2022-08-18T18:43:58Z</time>
      </trkpt>
      <trkpt lat="42.38654699999997" lon="1.6313920000000017">
        <ele>1102.647</ele>
        <time>2022-08-18T18:44:02Z</time>
      </trkpt>
      <trkpt lat="42.38657899999997" lon="1.6314360000000017">
        <ele>1103.217</ele>
        <time>2022-08-18T18:44:07Z</time>
      </trkpt>
      <trkpt lat="42.38658999999997" lon="1.6314970000000018">
        <ele>1103.737</ele>
        <time>2022-08-18T18:44:11Z</time>
      </trkpt>
      <trkpt lat="42.38660999999997" lon="1.6315690000000018">
        <ele>1104.176</ele>
        <time>2022-08-18T18:44:18Z</time>
      </trkpt>
      <trkpt lat="42.38661499999997" lon="1.631646000000002">
        <ele>1104.713</ele>
        <time>2022-08-18T18:44:22Z</time>
      </trkpt>
      <trkpt lat="42.38662899999997" lon="1.6317060000000019">
        <ele>1105.460</ele>
        <time>2022-08-18T18:44:26Z</time>
      </trkpt>
      <trkpt lat="42.38663099999997" lon="1.631778000000002">
        <ele>1106.376</ele>
        <time>2022-08-18T18:44:31Z</time>
      </trkpt>
      <trkpt lat="42.386649999999975" lon="1.631843000000002">
        <ele>1106.868</ele>
        <time>2022-08-18T18:44:37Z</time>
      </trkpt>
      <trkpt lat="42.386688999999976" lon="1.631883000000002">
        <ele>1107.280</ele>
        <time>2022-08-18T18:44:42Z</time>
      </trkpt>
      <trkpt lat="42.386722999999975" lon="1.631929000000002">
        <ele>1107.899</ele>
        <time>2022-08-18T18:44:48Z</time>
      </trkpt>
      <trkpt lat="42.386742999999974" lon="1.6319840000000019">
        <ele>1108.307</ele>
        <time>2022-08-18T18:44:53Z</time>
      </trkpt>
      <trkpt lat="42.38676999999998" lon="1.632043000000002">
        <ele>1109.027</ele>
        <time>2022-08-18T18:44:59Z</time>
      </trkpt>
      <trkpt lat="42.38680099999998" lon="1.6320900000000018">
        <ele>1109.809</ele>
        <time>2022-08-18T18:45:04Z</time>
      </trkpt>
      <trkpt lat="42.386832999999974" lon="1.6321480000000017">
        <ele>1110.550</ele>
        <time>2022-08-18T18:45:10Z</time>
      </trkpt>
      <trkpt lat="42.38687399999998" lon="1.6321860000000017">
        <ele>1111.380</ele>
        <time>2022-08-18T18:45:15Z</time>
      </trkpt>
      <trkpt lat="42.38691099999998" lon="1.6322680000000016">
        <ele>1112.410</ele>
        <time>2022-08-18T18:45:20Z</time>
      </trkpt>
      <trkpt lat="42.386942999999974" lon="1.6323400000000017">
        <ele>1113.349</ele>
        <time>2022-08-18T18:45:22Z</time>
      </trkpt>
      <trkpt lat="42.386947999999975" lon="1.6324100000000017">
        <ele>1114.066</ele>
        <time>2022-08-18T18:45:24Z</time>
      </trkpt>
      <trkpt lat="42.38696399999998" lon="1.6324700000000016">
        <ele>1114.523</ele>
        <time>2022-08-18T18:45:29Z</time>
      </trkpt>
      <trkpt lat="42.38698899999998" lon="1.6325260000000017">
        <ele>1114.829</ele>
        <time>2022-08-18T18:45:34Z</time>
      </trkpt>
      <trkpt lat="42.38702299999998" lon="1.6325830000000017">
        <ele>1115.121</ele>
        <time>2022-08-18T18:45:40Z</time>
      </trkpt>
      <trkpt lat="42.387037999999976" lon="1.6326510000000016">
        <ele>1115.373</ele>
        <time>2022-08-18T18:45:46Z</time>
      </trkpt>
      <trkpt lat="42.38703199999998" lon="1.6327130000000016">
        <ele>1115.455</ele>
        <time>2022-08-18T18:45:51Z</time>
      </trkpt>
      <trkpt lat="42.387029999999974" lon="1.6327800000000017">
        <ele>1115.607</ele>
        <time>2022-08-18T18:45:56Z</time>
      </trkpt>
      <trkpt lat="42.387020999999976" lon="1.6328490000000018">
        <ele>1116.017</ele>
        <time>2022-08-18T18:46:01Z</time>
      </trkpt>
      <trkpt lat="42.38701099999997" lon="1.6329180000000019">
        <ele>1116.609</ele>
        <time>2022-08-18T18:46:06Z</time>
      </trkpt>
      <trkpt lat="42.38702899999997" lon="1.632974000000002">
        <ele>1116.836</ele>
        <time>2022-08-18T18:46:10Z</time>
      </trkpt>
      <trkpt lat="42.38705499999997" lon="1.6330400000000018">
        <ele>1117.126</ele>
        <time>2022-08-18T18:46:15Z</time>
      </trkpt>
      <trkpt lat="42.38708199999997" lon="1.6330960000000019">
        <ele>1117.526</ele>
        <time>2022-08-18T18:46:20Z</time>
      </trkpt>
      <trkpt lat="42.38712199999997" lon="1.6331290000000018">
        <ele>1117.775</ele>
        <time>2022-08-18T18:46:24Z</time>
      </trkpt>
      <trkpt lat="42.38717299999997" lon="1.6331850000000019">
        <ele>1118.042</ele>
        <time>2022-08-18T18:46:29Z</time>
      </trkpt>
      <trkpt lat="42.387235999999966" lon="1.6332070000000019">
        <ele>1118.549</ele>
        <time>2022-08-18T18:46:32Z</time>
      </trkpt>
      <trkpt lat="42.387278999999964" lon="1.6332430000000018">
        <ele>1119.255</ele>
        <time>2022-08-18T18:46:35Z</time>
      </trkpt>
      <trkpt lat="42.387286999999965" lon="1.6333090000000017">
        <ele>1119.947</ele>
        <time>2022-08-18T18:46:39Z</time>
      </trkpt>
      <trkpt lat="42.387300999999965" lon="1.6333790000000017">
        <ele>1120.749</ele>
        <time>2022-08-18T18:46:44Z</time>
      </trkpt>
      <trkpt lat="42.387294999999966" lon="1.6334450000000016">
        <ele>1121.379</ele>
        <time>2022-08-18T18:46:48Z</time>
      </trkpt>
      <trkpt lat="42.38729099999997" lon="1.6335080000000015">
        <ele>1121.705</ele>
        <time>2022-08-18T18:46:52Z</time>
      </trkpt>
      <trkpt lat="42.38731899999997" lon="1.6335610000000016">
        <ele>1122.025</ele>
        <time>2022-08-18T18:46:56Z</time>
      </trkpt>
      <trkpt lat="42.38736599999997" lon="1.6336180000000016">
        <ele>1122.609</ele>
        <time>2022-08-18T18:47:00Z</time>
      </trkpt>
      <trkpt lat="42.38740299999997" lon="1.6336600000000017">
        <ele>1123.468</ele>
        <time>2022-08-18T18:47:03Z</time>
      </trkpt>
      <trkpt lat="42.38743999999997" lon="1.6337080000000017">
        <ele>1123.488</ele>
        <time>2022-08-18T18:47:07Z</time>
      </trkpt>
      <trkpt lat="42.38748799999997" lon="1.6337550000000016">
        <ele>1123.778</ele>
        <time>2022-08-18T18:47:11Z</time>
      </trkpt>
      <trkpt lat="42.38752599999997" lon="1.6337980000000016">
        <ele>1124.187</ele>
        <time>2022-08-18T18:47:15Z</time>
      </trkpt>
      <trkpt lat="42.38757399999997" lon="1.6338210000000017">
        <ele>1124.614</ele>
        <time>2022-08-18T18:47:19Z</time>
      </trkpt>
      <trkpt lat="42.38760799999997" lon="1.6338740000000018">
        <ele>1125.281</ele>
        <time>2022-08-18T18:47:24Z</time>
      </trkpt>
      <trkpt lat="42.38762999999997" lon="1.6339300000000019">
        <ele>1125.657</ele>
        <time>2022-08-18T18:47:28Z</time>
      </trkpt>
      <trkpt lat="42.38767799999997" lon="1.6339440000000018">
        <ele>1126.179</ele>
        <time>2022-08-18T18:47:33Z</time>
      </trkpt>
      <trkpt lat="42.387724999999975" lon="1.633932000000002">
        <ele>1126.321</ele>
        <time>2022-08-18T18:47:37Z</time>
      </trkpt>
      <trkpt lat="42.387772999999974" lon="1.633927000000002">
        <ele>1127.044</ele>
        <time>2022-08-18T18:47:42Z</time>
      </trkpt>
      <trkpt lat="42.38781699999998" lon="1.633953000000002">
        <ele>1127.805</ele>
        <time>2022-08-18T18:47:45Z</time>
      </trkpt>
      <trkpt lat="42.387851999999974" lon="1.633997000000002">
        <ele>1128.615</ele>
        <time>2022-08-18T18:47:48Z</time>
      </trkpt>
      <trkpt lat="42.387881999999976" lon="1.634058000000002">
        <ele>1129.609</ele>
        <time>2022-08-18T18:47:52Z</time>
      </trkpt>
      <trkpt lat="42.38789599999998" lon="1.634152000000002">
        <ele>1130.795</ele>
        <time>2022-08-18T18:47:56Z</time>
      </trkpt>
      <trkpt lat="42.387893999999974" lon="1.6342160000000021">
        <ele>1132.075</ele>
        <time>2022-08-18T18:47:58Z</time>
      </trkpt>
      <trkpt lat="42.38791699999997" lon="1.634273000000002">
        <ele>1134.225</ele>
        <time>2022-08-18T18:48:02Z</time>
      </trkpt>
      <trkpt lat="42.38789999999997" lon="1.6343340000000022">
        <ele>1134.584</ele>
        <time>2022-08-18T18:48:07Z</time>
      </trkpt>
      <trkpt lat="42.38792599999997" lon="1.6343880000000022">
        <ele>1135.381</ele>
        <time>2022-08-18T18:48:12Z</time>
      </trkpt>
      <trkpt lat="42.38797999999997" lon="1.6344090000000022">
        <ele>1135.948</ele>
        <time>2022-08-18T18:48:16Z</time>
      </trkpt>
      <trkpt lat="42.38802499999997" lon="1.6344130000000021">
        <ele>1136.354</ele>
        <time>2022-08-18T18:48:19Z</time>
      </trkpt>
      <trkpt lat="42.38807399999997" lon="1.634435000000002">
        <ele>1137.486</ele>
        <time>2022-08-18T18:48:24Z</time>
      </trkpt>
      <trkpt lat="42.38812099999997" lon="1.634474000000002">
        <ele>1138.788</ele>
        <time>2022-08-18T18:48:29Z</time>
      </trkpt>
      <trkpt lat="42.38816299999997" lon="1.634502000000002">
        <ele>1139.959</ele>
        <time>2022-08-18T18:48:33Z</time>
      </trkpt>
      <trkpt lat="42.38820899999997" lon="1.634509000000002">
        <ele>1141.003</ele>
        <time>2022-08-18T18:48:37Z</time>
      </trkpt>
      <trkpt lat="42.38825599999997" lon="1.634529000000002">
        <ele>1141.923</ele>
        <time>2022-08-18T18:48:42Z</time>
      </trkpt>
      <trkpt lat="42.38830499999997" lon="1.634501000000002">
        <ele>1142.609</ele>
        <time>2022-08-18T18:48:45Z</time>
      </trkpt>
      <trkpt lat="42.388341999999966" lon="1.634456000000002">
        <ele>1143.426</ele>
        <time>2022-08-18T18:48:47Z</time>
      </trkpt>
      <trkpt lat="42.38836599999997" lon="1.6344030000000018">
        <ele>1144.336</ele>
        <time>2022-08-18T18:48:51Z</time>
      </trkpt>
      <trkpt lat="42.38838099999997" lon="1.6343390000000018">
        <ele>1145.366</ele>
        <time>2022-08-18T18:48:58Z</time>
      </trkpt>
      <trkpt lat="42.38839799999997" lon="1.6342780000000017">
        <ele>1148.225</ele>
        <time>2022-08-18T18:49:10Z</time>
      </trkpt>
      <trkpt lat="42.388432999999964" lon="1.6342350000000017">
        <ele>1148.592</ele>
        <time>2022-08-18T18:49:16Z</time>
      </trkpt>
      <trkpt lat="42.38848799999997" lon="1.6342200000000016">
        <ele>1148.919</ele>
        <time>2022-08-18T18:49:22Z</time>
      </trkpt>
      <trkpt lat="42.38853999999996" lon="1.6342100000000015">
        <ele>1149.885</ele>
        <time>2022-08-18T18:49:29Z</time>
      </trkpt>
      <trkpt lat="42.38859099999996" lon="1.6342000000000014">
        <ele>1151.267</ele>
        <time>2022-08-18T18:49:35Z</time>
      </trkpt>
      <trkpt lat="42.388637999999965" lon="1.6341800000000015">
        <ele>1153.459</ele>
        <time>2022-08-18T18:49:44Z</time>
      </trkpt>
      <trkpt lat="42.388682999999965" lon="1.6341610000000015">
        <ele>1154.623</ele>
        <time>2022-08-18T18:49:49Z</time>
      </trkpt>
      <trkpt lat="42.38874699999997" lon="1.6341760000000016">
        <ele>1155.583</ele>
        <time>2022-08-18T18:49:53Z</time>
      </trkpt>
      <trkpt lat="42.38869199999996" lon="1.6341970000000017">
        <ele>1160.611</ele>
        <time>2022-08-18T18:50:35Z</time>
      </trkpt>
      <trkpt lat="42.38864699999996" lon="1.6341880000000018">
        <ele>1160.809</ele>
        <time>2022-08-18T18:50:54Z</time>
      </trkpt>
      <trkpt lat="42.388752999999966" lon="1.6343800000000017">
        <ele>1160.863</ele>
        <time>2022-08-18T18:50:59Z</time>
      </trkpt>
      <trkpt lat="42.38878899999997" lon="1.6344370000000017">
        <ele>1168.773</ele>
        <time>2022-08-18T18:51:13Z</time>
      </trkpt>
      <trkpt lat="42.38879099999997" lon="1.6345030000000016">
        <ele>1168.813</ele>
        <time>2022-08-18T18:51:17Z</time>
      </trkpt>
      <trkpt lat="42.38879599999997" lon="1.6345740000000015">
        <ele>1168.932</ele>
        <time>2022-08-18T18:51:23Z</time>
      </trkpt>
      <trkpt lat="42.38882999999997" lon="1.6346190000000016">
        <ele>1169.369</ele>
        <time>2022-08-18T18:51:28Z</time>
      </trkpt>
      <trkpt lat="42.38887499999997" lon="1.6346520000000015">
        <ele>1170.426</ele>
        <time>2022-08-18T18:51:33Z</time>
      </trkpt>
      <trkpt lat="42.38891799999997" lon="1.6346750000000017">
        <ele>1171.442</ele>
        <time>2022-08-18T18:51:37Z</time>
      </trkpt>
      <trkpt lat="42.38897499999997" lon="1.6346890000000016">
        <ele>1172.324</ele>
        <time>2022-08-18T18:51:42Z</time>
      </trkpt>
      <trkpt lat="42.38903099999997" lon="1.6346840000000016">
        <ele>1173.576</ele>
        <time>2022-08-18T18:51:46Z</time>
      </trkpt>
      <trkpt lat="42.38907899999997" lon="1.6346740000000015">
        <ele>1174.482</ele>
        <time>2022-08-18T18:51:50Z</time>
      </trkpt>
      <trkpt lat="42.389124999999964" lon="1.6346480000000014">
        <ele>1175.543</ele>
        <time>2022-08-18T18:51:54Z</time>
      </trkpt>
      <trkpt lat="42.38917099999996" lon="1.6345570000000014">
        <ele>1176.217</ele>
        <time>2022-08-18T18:51:57Z</time>
      </trkpt>
      <trkpt lat="42.38918799999996" lon="1.6344890000000014">
        <ele>1176.909</ele>
        <time>2022-08-18T18:51:58Z</time>
      </trkpt>
      <trkpt lat="42.38921699999996" lon="1.6343900000000013">
        <ele>1177.839</ele>
        <time>2022-08-18T18:52:00Z</time>
      </trkpt>
      <trkpt lat="42.38924499999996" lon="1.6343350000000014">
        <ele>1179.189</ele>
        <time>2022-08-18T18:52:03Z</time>
      </trkpt>
      <trkpt lat="42.38927299999996" lon="1.6342830000000015">
        <ele>1182.049</ele>
        <time>2022-08-18T18:52:21Z</time>
      </trkpt>
      <trkpt lat="42.38931999999996" lon="1.6342500000000015">
        <ele>1182.738</ele>
        <time>2022-08-18T18:52:28Z</time>
      </trkpt>
      <trkpt lat="42.38936799999996" lon="1.6342260000000015">
        <ele>1183.435</ele>
        <time>2022-08-18T18:52:34Z</time>
      </trkpt>
      <trkpt lat="42.38940299999996" lon="1.6341840000000014">
        <ele>1184.262</ele>
        <time>2022-08-18T18:52:39Z</time>
      </trkpt>
      <trkpt lat="42.389448999999956" lon="1.6341490000000014">
        <ele>1185.538</ele>
        <time>2022-08-18T18:52:45Z</time>
      </trkpt>
      <trkpt lat="42.38947299999996" lon="1.6340950000000014">
        <ele>1186.730</ele>
        <time>2022-08-18T18:52:49Z</time>
      </trkpt>
      <trkpt lat="42.38949099999996" lon="1.6340360000000014">
        <ele>1187.732</ele>
        <time>2022-08-18T18:52:53Z</time>
      </trkpt>
      <trkpt lat="42.389480999999954" lon="1.6339590000000013">
        <ele>1188.874</ele>
        <time>2022-08-18T18:53:08Z</time>
      </trkpt>
      <trkpt lat="42.389440999999955" lon="1.6339090000000012">
        <ele>1189.256</ele>
        <time>2022-08-18T18:53:11Z</time>
      </trkpt>
      <trkpt lat="42.389398999999955" lon="1.6338790000000012">
        <ele>1189.621</ele>
        <time>2022-08-18T18:53:14Z</time>
      </trkpt>
      <trkpt lat="42.389353999999955" lon="1.6338400000000013">
        <ele>1190.109</ele>
        <time>2022-08-18T18:53:19Z</time>
      </trkpt>
      <trkpt lat="42.38934999999996" lon="1.6337720000000013">
        <ele>1190.688</ele>
        <time>2022-08-18T18:53:24Z</time>
      </trkpt>
      <trkpt lat="42.38937499999996" lon="1.6337110000000012">
        <ele>1192.488</ele>
        <time>2022-08-18T18:53:28Z</time>
      </trkpt>
      <trkpt lat="42.389364999999955" lon="1.6336490000000012">
        <ele>1193.178</ele>
        <time>2022-08-18T18:53:32Z</time>
      </trkpt>
      <trkpt lat="42.38935199999995" lon="1.6335790000000012">
        <ele>1193.837</ele>
        <time>2022-08-18T18:53:37Z</time>
      </trkpt>
      <trkpt lat="42.38933899999995" lon="1.6335170000000012">
        <ele>1194.784</ele>
        <time>2022-08-18T18:53:46Z</time>
      </trkpt>
      <trkpt lat="42.38934599999995" lon="1.6334520000000012">
        <ele>1195.321</ele>
        <time>2022-08-18T18:53:51Z</time>
      </trkpt>
      <trkpt lat="42.389346999999944" lon="1.6333850000000012">
        <ele>1195.977</ele>
        <time>2022-08-18T18:53:57Z</time>
      </trkpt>
      <trkpt lat="42.389318999999944" lon="1.6333370000000011">
        <ele>1198.229</ele>
        <time>2022-08-18T18:54:16Z</time>
      </trkpt>
      <trkpt lat="42.389292999999945" lon="1.6332770000000012">
        <ele>1199.321</ele>
        <time>2022-08-18T18:54:22Z</time>
      </trkpt>
      <trkpt lat="42.389275999999946" lon="1.6332170000000013">
        <ele>1199.873</ele>
        <time>2022-08-18T18:54:28Z</time>
      </trkpt>
      <trkpt lat="42.389289999999946" lon="1.6331490000000013">
        <ele>1203.985</ele>
        <time>2022-08-18T18:55:15Z</time>
      </trkpt>
      <trkpt lat="42.38924899999994" lon="1.6331090000000013">
        <ele>1204.013</ele>
        <time>2022-08-18T18:55:19Z</time>
      </trkpt>
      <trkpt lat="42.38922699999994" lon="1.6330340000000012">
        <ele>1204.409</ele>
        <time>2022-08-18T18:55:23Z</time>
      </trkpt>
      <trkpt lat="42.38927799999994" lon="1.6330200000000012">
        <ele>1205.098</ele>
        <time>2022-08-18T18:55:26Z</time>
      </trkpt>
      <trkpt lat="42.389318999999944" lon="1.6329620000000014">
        <ele>1205.458</ele>
        <time>2022-08-18T18:55:32Z</time>
      </trkpt>
      <trkpt lat="42.38935699999995" lon="1.6329260000000014">
        <ele>1207.538</ele>
        <time>2022-08-18T18:55:36Z</time>
      </trkpt>
      <trkpt lat="42.389408999999944" lon="1.6329330000000015">
        <ele>1208.477</ele>
        <time>2022-08-18T18:55:42Z</time>
      </trkpt>
      <trkpt lat="42.38938799999995" lon="1.6328380000000016">
        <ele>1208.644</ele>
        <time>2022-08-18T18:55:47Z</time>
      </trkpt>
      <trkpt lat="42.38935299999995" lon="1.6327790000000015">
        <ele>1209.051</ele>
        <time>2022-08-18T18:55:50Z</time>
      </trkpt>
      <trkpt lat="42.38931999999995" lon="1.6327240000000016">
        <ele>1209.727</ele>
        <time>2022-08-18T18:55:54Z</time>
      </trkpt>
      <trkpt lat="42.38932299999995" lon="1.6326590000000016">
        <ele>1212.319</ele>
        <time>2022-08-18T18:56:04Z</time>
      </trkpt>
      <trkpt lat="42.38932199999995" lon="1.6325940000000017">
        <ele>1213.411</ele>
        <time>2022-08-18T18:56:13Z</time>
      </trkpt>
      <trkpt lat="42.38929999999995" lon="1.6325380000000016">
        <ele>1214.027</ele>
        <time>2022-08-18T18:56:15Z</time>
      </trkpt>
      <trkpt lat="42.389320999999946" lon="1.6324800000000017">
        <ele>1214.868</ele>
        <time>2022-08-18T18:56:19Z</time>
      </trkpt>
      <trkpt lat="42.389320999999946" lon="1.6325430000000016">
        <ele>1215.714</ele>
        <time>2022-08-18T18:56:29Z</time>
      </trkpt>
      <trkpt lat="42.38930599999995" lon="1.6326010000000015">
        <ele>1216.309</ele>
        <time>2022-08-18T18:56:35Z</time>
      </trkpt>
      <trkpt lat="42.389433999999945" lon="1.6325220000000016">
        <ele>1219.713</ele>
        <time>2022-08-18T18:56:54Z</time>
      </trkpt>
      <trkpt lat="42.389452999999946" lon="1.6324390000000015">
        <ele>1220.233</ele>
        <time>2022-08-18T18:56:56Z</time>
      </trkpt>
      <trkpt lat="42.38945999999994" lon="1.6323710000000016">
        <ele>1221.213</ele>
        <time>2022-08-18T18:56:58Z</time>
      </trkpt>
      <trkpt lat="42.389500999999946" lon="1.6323390000000015">
        <ele>1222.942</ele>
        <time>2022-08-18T18:57:03Z</time>
      </trkpt>
      <trkpt lat="42.38955099999995" lon="1.6323150000000015">
        <ele>1223.579</ele>
        <time>2022-08-18T18:57:09Z</time>
      </trkpt>
      <trkpt lat="42.38959799999995" lon="1.6323390000000015">
        <ele>1224.216</ele>
        <time>2022-08-18T18:57:15Z</time>
      </trkpt>
      <trkpt lat="42.38963999999995" lon="1.6323800000000015">
        <ele>1226.122</ele>
        <time>2022-08-18T18:57:21Z</time>
      </trkpt>
      <trkpt lat="42.38968699999995" lon="1.6324050000000014">
        <ele>1226.534</ele>
        <time>2022-08-18T18:57:27Z</time>
      </trkpt>
      <trkpt lat="42.38972399999995" lon="1.6324460000000014">
        <ele>1226.956</ele>
        <time>2022-08-18T18:57:30Z</time>
      </trkpt>
      <trkpt lat="42.38976599999995" lon="1.6324830000000015">
        <ele>1227.397</ele>
        <time>2022-08-18T18:57:34Z</time>
      </trkpt>
      <trkpt lat="42.38980899999995" lon="1.6325100000000015">
        <ele>1228.523</ele>
        <time>2022-08-18T18:57:41Z</time>
      </trkpt>
      <trkpt lat="42.38978499999995" lon="1.6324460000000014">
        <ele>1233.325</ele>
        <time>2022-08-18T18:59:01Z</time>
      </trkpt>
      <trkpt lat="42.389759999999946" lon="1.6323940000000015">
        <ele>1233.309</ele>
        <time>2022-08-18T18:59:05Z</time>
      </trkpt>
      <trkpt lat="42.38972799999995" lon="1.6323350000000014">
        <ele>1233.440</ele>
        <time>2022-08-18T18:59:10Z</time>
      </trkpt>
      <trkpt lat="42.38969999999995" lon="1.6322870000000014">
        <ele>1233.460</ele>
        <time>2022-08-18T18:59:15Z</time>
      </trkpt>
      <trkpt lat="42.389672999999945" lon="1.6322380000000014">
        <ele>1233.480</ele>
        <time>2022-08-18T18:59:22Z</time>
      </trkpt>
      <trkpt lat="42.38971899999994" lon="1.6321820000000014">
        <ele>1233.689</ele>
        <time>2022-08-18T18:59:35Z</time>
      </trkpt>
      <trkpt lat="42.38975899999994" lon="1.6321370000000013">
        <ele>1233.676</ele>
        <time>2022-08-18T18:59:38Z</time>
      </trkpt>
      <trkpt lat="42.38980399999994" lon="1.6320760000000012">
        <ele>1233.623</ele>
        <time>2022-08-18T18:59:40Z</time>
      </trkpt>
      <trkpt lat="42.38991199999994" lon="1.6318770000000011">
        <ele>1235.259</ele>
        <time>2022-08-18T18:59:42Z</time>
      </trkpt>
      <trkpt lat="42.38997299999994" lon="1.6317440000000012">
        <ele>1237.321</ele>
        <time>2022-08-18T18:59:52Z</time>
      </trkpt>
      <trkpt lat="42.39005299999994" lon="1.631532000000001">
        <ele>1237.923</ele>
        <time>2022-08-18T18:59:54Z</time>
      </trkpt>
      <trkpt lat="42.39009799999994" lon="1.6314340000000012">
        <ele>1239.947</ele>
        <time>2022-08-18T18:59:55Z</time>
      </trkpt>
      <trkpt lat="42.390191999999935" lon="1.631354000000001">
        <ele>1240.429</ele>
        <time>2022-08-18T18:59:57Z</time>
      </trkpt>
      <trkpt lat="42.39021299999993" lon="1.631290000000001">
        <ele>1240.721</ele>
        <time>2022-08-18T18:59:58Z</time>
      </trkpt>
      <trkpt lat="42.39023599999993" lon="1.631207000000001">
        <ele>1240.909</ele>
        <time>2022-08-18T18:59:59Z</time>
      </trkpt>
      <trkpt lat="42.39029799999993" lon="1.631151000000001">
        <ele>1241.395</ele>
        <time>2022-08-18T19:00:00Z</time>
      </trkpt>
      <trkpt lat="42.39046799999993" lon="1.6311550000000008">
        <ele>1242.355</ele>
        <time>2022-08-18T19:00:02Z</time>
      </trkpt>
      <trkpt lat="42.390538999999926" lon="1.6311170000000008">
        <ele>1242.725</ele>
        <time>2022-08-18T19:00:03Z</time>
      </trkpt>
      <trkpt lat="42.39058799999992" lon="1.6309590000000007">
        <ele>1243.514</ele>
        <time>2022-08-18T19:00:05Z</time>
      </trkpt>
      <trkpt lat="42.39074099999992" lon="1.6308950000000006">
        <ele>1244.231</ele>
        <time>2022-08-18T19:00:07Z</time>
      </trkpt>
      <trkpt lat="42.39078099999992" lon="1.6308490000000007">
        <ele>1244.558</ele>
        <time>2022-08-18T19:00:08Z</time>
      </trkpt>
      <trkpt lat="42.39085999999992" lon="1.6308170000000006">
        <ele>1244.894</ele>
        <time>2022-08-18T19:00:09Z</time>
      </trkpt>
      <trkpt lat="42.39093499999992" lon="1.6307100000000005">
        <ele>1245.266</ele>
        <time>2022-08-18T19:00:11Z</time>
      </trkpt>
      <trkpt lat="42.39102899999992" lon="1.6306280000000006">
        <ele>1246.368</ele>
        <time>2022-08-18T19:00:13Z</time>
      </trkpt>
      <trkpt lat="42.391094999999915" lon="1.6306150000000006">
        <ele>1246.312</ele>
        <time>2022-08-18T19:00:14Z</time>
      </trkpt>
      <trkpt lat="42.391156999999914" lon="1.6305050000000005">
        <ele>1246.632</ele>
        <time>2022-08-18T19:00:16Z</time>
      </trkpt>
      <trkpt lat="42.39129899999991" lon="1.6304970000000005">
        <ele>1246.905</ele>
        <time>2022-08-18T19:00:18Z</time>
      </trkpt>
      <trkpt lat="42.39134799999991" lon="1.6304930000000006">
        <ele>1247.109</ele>
        <time>2022-08-18T19:00:19Z</time>
      </trkpt>
      <trkpt lat="42.39140299999991" lon="1.6304660000000006">
        <ele>1247.522</ele>
        <time>2022-08-18T19:00:21Z</time>
      </trkpt>
      <trkpt lat="42.39148999999991" lon="1.6305210000000006">
        <ele>1247.942</ele>
        <time>2022-08-18T19:00:24Z</time>
      </trkpt>
      <trkpt lat="42.391536999999914" lon="1.6305160000000005">
        <ele>1248.282</ele>
        <time>2022-08-18T19:00:26Z</time>
      </trkpt>
      <trkpt lat="42.39160599999992" lon="1.6305900000000004">
        <ele>1248.591</ele>
        <time>2022-08-18T19:00:28Z</time>
      </trkpt>
      <trkpt lat="42.39168199999992" lon="1.6306180000000003">
        <ele>1248.758</ele>
        <time>2022-08-18T19:00:29Z</time>
      </trkpt>
      <trkpt lat="42.39176799999992" lon="1.6306430000000003">
        <ele>1248.985</ele>
        <time>2022-08-18T19:00:30Z</time>
      </trkpt>
      <trkpt lat="42.39185899999992" lon="1.6306580000000004">
        <ele>1249.341</ele>
        <time>2022-08-18T19:00:32Z</time>
      </trkpt>
      <trkpt lat="42.39199299999992" lon="1.6306060000000004">
        <ele>1249.583</ele>
        <time>2022-08-18T19:00:33Z</time>
      </trkpt>
      <trkpt lat="42.39217599999992" lon="1.6305530000000004">
        <ele>1249.855</ele>
        <time>2022-08-18T19:00:35Z</time>
      </trkpt>
      <trkpt lat="42.39227099999992" lon="1.6305080000000003">
        <ele>1249.883</ele>
        <time>2022-08-18T19:00:36Z</time>
      </trkpt>
      <trkpt lat="42.392339999999926" lon="1.6305010000000002">
        <ele>1249.825</ele>
        <time>2022-08-18T19:00:37Z</time>
      </trkpt>
      <trkpt lat="42.39243699999992" lon="1.6304540000000003">
        <ele>1249.617</ele>
        <time>2022-08-18T19:00:39Z</time>
      </trkpt>
      <trkpt lat="42.39250499999992" lon="1.6303840000000003">
        <ele>1249.409</ele>
        <time>2022-08-18T19:00:40Z</time>
      </trkpt>
      <trkpt lat="42.39263399999992" lon="1.6302960000000002">
        <ele>1249.029</ele>
        <time>2022-08-18T19:00:42Z</time>
      </trkpt>
      <trkpt lat="42.39276699999992" lon="1.6303570000000003">
        <ele>1248.039</ele>
        <time>2022-08-18T19:00:44Z</time>
      </trkpt>
      <trkpt lat="42.392807999999924" lon="1.6302840000000003">
        <ele>1247.569</ele>
        <time>2022-08-18T19:00:45Z</time>
      </trkpt>
      <trkpt lat="42.392885999999926" lon="1.6300540000000003">
        <ele>1246.428</ele>
        <time>2022-08-18T19:00:47Z</time>
      </trkpt>
      <trkpt lat="42.39305899999992" lon="1.6299910000000004">
        <ele>1244.795</ele>
        <time>2022-08-18T19:00:49Z</time>
      </trkpt>
      <trkpt lat="42.393181999999925" lon="1.6299210000000004">
        <ele>1243.642</ele>
        <time>2022-08-18T19:00:51Z</time>
      </trkpt>
      <trkpt lat="42.39323999999993" lon="1.6298890000000004">
        <ele>1242.958</ele>
        <time>2022-08-18T19:00:52Z</time>
      </trkpt>
      <trkpt lat="42.393341999999926" lon="1.6299100000000004">
        <ele>1241.680</ele>
        <time>2022-08-18T19:00:55Z</time>
      </trkpt>
      <trkpt lat="42.39351799999993" lon="1.6299540000000003">
        <ele>1240.162</ele>
        <time>2022-08-18T19:00:57Z</time>
      </trkpt>
      <trkpt lat="42.39360199999993" lon="1.6299790000000003">
        <ele>1238.863</ele>
        <time>2022-08-18T19:00:59Z</time>
      </trkpt>
      <trkpt lat="42.39375399999993" lon="1.6300050000000004">
        <ele>1238.044</ele>
        <time>2022-08-18T19:01:01Z</time>
      </trkpt>
      <trkpt lat="42.39385599999993" lon="1.6300990000000004">
        <ele>1237.518</ele>
        <time>2022-08-18T19:01:02Z</time>
      </trkpt>
      <trkpt lat="42.39405199999993" lon="1.6301440000000005">
        <ele>1236.009</ele>
        <time>2022-08-18T19:01:04Z</time>
      </trkpt>
      <trkpt lat="42.39413399999993" lon="1.6301550000000005">
        <ele>1235.177</ele>
        <time>2022-08-18T19:01:06Z</time>
      </trkpt>
      <trkpt lat="42.39425999999993" lon="1.6302130000000004">
        <ele>1234.127</ele>
        <time>2022-08-18T19:01:08Z</time>
      </trkpt>
      <trkpt lat="42.394351999999934" lon="1.6301750000000004">
        <ele>1233.137</ele>
        <time>2022-08-18T19:01:10Z</time>
      </trkpt>
      <trkpt lat="42.39439999999993" lon="1.6301990000000004">
        <ele>1232.226</ele>
        <time>2022-08-18T19:01:11Z</time>
      </trkpt>
      <trkpt lat="42.39450699999993" lon="1.6302450000000004">
        <ele>1231.223</ele>
        <time>2022-08-18T19:01:13Z</time>
      </trkpt>
      <trkpt lat="42.39455899999993" lon="1.6302740000000004">
        <ele>1231.040</ele>
        <time>2022-08-18T19:01:14Z</time>
      </trkpt>
      <trkpt lat="42.39461999999993" lon="1.6302410000000005">
        <ele>1230.556</ele>
        <time>2022-08-18T19:01:15Z</time>
      </trkpt>
      <trkpt lat="42.394629999999935" lon="1.6303740000000004">
        <ele>1228.748</ele>
        <time>2022-08-18T19:01:17Z</time>
      </trkpt>
      <trkpt lat="42.394714999999934" lon="1.6303630000000005">
        <ele>1228.220</ele>
        <time>2022-08-18T19:01:18Z</time>
      </trkpt>
      <trkpt lat="42.39485899999993" lon="1.6303680000000005">
        <ele>1228.125</ele>
        <time>2022-08-18T19:01:20Z</time>
      </trkpt>
      <trkpt lat="42.39490699999993" lon="1.6303590000000006">
        <ele>1227.926</ele>
        <time>2022-08-18T19:01:21Z</time>
      </trkpt>
      <trkpt lat="42.394953999999935" lon="1.6302900000000005">
        <ele>1227.708</ele>
        <time>2022-08-18T19:01:23Z</time>
      </trkpt>
      <trkpt lat="42.39508799999994" lon="1.6303800000000004">
        <ele>1227.509</ele>
        <time>2022-08-18T19:01:25Z</time>
      </trkpt>
      <trkpt lat="42.395133999999935" lon="1.6303850000000004">
        <ele>1227.453</ele>
        <time>2022-08-18T19:01:26Z</time>
      </trkpt>
      <trkpt lat="42.39522799999993" lon="1.6303990000000004">
        <ele>1227.233</ele>
        <time>2022-08-18T19:01:28Z</time>
      </trkpt>
      <trkpt lat="42.39527599999993" lon="1.6304110000000003">
        <ele>1227.153</ele>
        <time>2022-08-18T19:01:29Z</time>
      </trkpt>
      <trkpt lat="42.395333999999934" lon="1.6303290000000004">
        <ele>1226.932</ele>
        <time>2022-08-18T19:01:31Z</time>
      </trkpt>
      <trkpt lat="42.39531499999993" lon="1.6300630000000003">
        <ele>1226.799</ele>
        <time>2022-08-18T19:01:32Z</time>
      </trkpt>
      <trkpt lat="42.39537499999993" lon="1.6301560000000002">
        <ele>1226.146</ele>
        <time>2022-08-18T19:01:34Z</time>
      </trkpt>
      <trkpt lat="42.39537499999993" lon="1.6300130000000002">
        <ele>1225.782</ele>
        <time>2022-08-18T19:01:36Z</time>
      </trkpt>
      <trkpt lat="42.39535299999993" lon="1.6299190000000001">
        <ele>1225.624</ele>
        <time>2022-08-18T19:01:37Z</time>
      </trkpt>
      <trkpt lat="42.39534599999993" lon="1.629704">
        <ele>1224.966</ele>
        <time>2022-08-18T19:01:39Z</time>
      </trkpt>
      <trkpt lat="42.39533199999993" lon="1.629582">
        <ele>1224.342</ele>
        <time>2022-08-18T19:01:40Z</time>
      </trkpt>
      <trkpt lat="42.39527099999993" lon="1.629472">
        <ele>1223.922</ele>
        <time>2022-08-18T19:01:41Z</time>
      </trkpt>
      <trkpt lat="42.39527199999993" lon="1.62941">
        <ele>1223.414</ele>
        <time>2022-08-18T19:01:42Z</time>
      </trkpt>
      <trkpt lat="42.39530999999993" lon="1.629335">
        <ele>1223.209</ele>
        <time>2022-08-18T19:01:43Z</time>
      </trkpt>
      <trkpt lat="42.395336999999934" lon="1.629283">
        <ele>1222.815</ele>
        <time>2022-08-18T19:01:44Z</time>
      </trkpt>
      <trkpt lat="42.39532899999993" lon="1.6291550000000001">
        <ele>1222.665</ele>
        <time>2022-08-18T19:01:45Z</time>
      </trkpt>
      <trkpt lat="42.39533799999993" lon="1.6290250000000002">
        <ele>1221.765</ele>
        <time>2022-08-18T19:01:47Z</time>
      </trkpt>
      <trkpt lat="42.395347999999935" lon="1.6288980000000002">
        <ele>1220.984</ele>
        <time>2022-08-18T19:01:49Z</time>
      </trkpt>
      <trkpt lat="42.39529799999993" lon="1.6288010000000002">
        <ele>1220.671</ele>
        <time>2022-08-18T19:01:50Z</time>
      </trkpt>
      <trkpt lat="42.39531199999993" lon="1.628713">
        <ele>1220.128</ele>
        <time>2022-08-18T19:01:52Z</time>
      </trkpt>
      <trkpt lat="42.39535799999993" lon="1.628644">
        <ele>1219.434</ele>
        <time>2022-08-18T19:01:54Z</time>
      </trkpt>
      <trkpt lat="42.39538399999993" lon="1.62857">
        <ele>1219.136</ele>
        <time>2022-08-18T19:01:55Z</time>
      </trkpt>
      <trkpt lat="42.39542799999993" lon="1.628508">
        <ele>1218.828</ele>
        <time>2022-08-18T19:01:56Z</time>
      </trkpt>
      <trkpt lat="42.395319999999934" lon="1.6283640000000001">
        <ele>1218.653</ele>
        <time>2022-08-18T19:01:57Z</time>
      </trkpt>
      <trkpt lat="42.39526699999993" lon="1.628127">
        <ele>1217.904</ele>
        <time>2022-08-18T19:01:59Z</time>
      </trkpt>
      <trkpt lat="42.395372999999935" lon="1.627966">
        <ele>1217.514</ele>
        <time>2022-08-18T19:02:01Z</time>
      </trkpt>
      <trkpt lat="42.39540199999993" lon="1.627831">
        <ele>1216.709</ele>
        <time>2022-08-18T19:02:03Z</time>
      </trkpt>
      <trkpt lat="42.39541999999993" lon="1.627675">
        <ele>1216.076</ele>
        <time>2022-08-18T19:02:05Z</time>
      </trkpt>
      <trkpt lat="42.39539799999993" lon="1.6275709999999999">
        <ele>1215.626</ele>
        <time>2022-08-18T19:02:06Z</time>
      </trkpt>
      <trkpt lat="42.39537999999993" lon="1.627511">
        <ele>1215.266</ele>
        <time>2022-08-18T19:02:07Z</time>
      </trkpt>
      <trkpt lat="42.39548099999993" lon="1.6274089999999999">
        <ele>1214.315</ele>
        <time>2022-08-18T19:02:09Z</time>
      </trkpt>
      <trkpt lat="42.395535999999936" lon="1.6273049999999998">
        <ele>1213.552</ele>
        <time>2022-08-18T19:02:11Z</time>
      </trkpt>
      <trkpt lat="42.395563999999936" lon="1.6272389999999999">
        <ele>1213.149</ele>
        <time>2022-08-18T19:02:12Z</time>
      </trkpt>
      <trkpt lat="42.39564699999993" lon="1.627173">
        <ele>1212.485</ele>
        <time>2022-08-18T19:02:14Z</time>
      </trkpt>
      <trkpt lat="42.39571299999993" lon="1.627115">
        <ele>1211.847</ele>
        <time>2022-08-18T19:02:16Z</time>
      </trkpt>
      <trkpt lat="42.39575899999993" lon="1.627038">
        <ele>1211.239</ele>
        <time>2022-08-18T19:02:18Z</time>
      </trkpt>
      <trkpt lat="42.395778999999926" lon="1.626901">
        <ele>1210.576</ele>
        <time>2022-08-18T19:02:20Z</time>
      </trkpt>
      <trkpt lat="42.39575799999993" lon="1.626798">
        <ele>1209.590</ele>
        <time>2022-08-18T19:02:21Z</time>
      </trkpt>
      <trkpt lat="42.39571399999993" lon="1.626659">
        <ele>1208.919</ele>
        <time>2022-08-18T19:02:23Z</time>
      </trkpt>
      <trkpt lat="42.39566799999993" lon="1.6265200000000002">
        <ele>1208.509</ele>
        <time>2022-08-18T19:02:25Z</time>
      </trkpt>
      <trkpt lat="42.39559199999993" lon="1.6264110000000003">
        <ele>1208.078</ele>
        <time>2022-08-18T19:02:27Z</time>
      </trkpt>
      <trkpt lat="42.39555199999993" lon="1.6263080000000003">
        <ele>1207.868</ele>
        <time>2022-08-18T19:02:28Z</time>
      </trkpt>
      <trkpt lat="42.39549799999993" lon="1.6261500000000002">
        <ele>1207.228</ele>
        <time>2022-08-18T19:02:30Z</time>
      </trkpt>
      <trkpt lat="42.395479999999935" lon="1.6260110000000003">
        <ele>1206.857</ele>
        <time>2022-08-18T19:02:32Z</time>
      </trkpt>
      <trkpt lat="42.39543999999994" lon="1.6258030000000003">
        <ele>1206.344</ele>
        <time>2022-08-18T19:02:34Z</time>
      </trkpt>
      <trkpt lat="42.39546799999994" lon="1.6257350000000004">
        <ele>1206.031</ele>
        <time>2022-08-18T19:02:35Z</time>
      </trkpt>
      <trkpt lat="42.39546399999994" lon="1.6256670000000004">
        <ele>1205.597</ele>
        <time>2022-08-18T19:02:36Z</time>
      </trkpt>
      <trkpt lat="42.39544099999994" lon="1.6255260000000005">
        <ele>1204.949</ele>
        <time>2022-08-18T19:02:38Z</time>
      </trkpt>
      <trkpt lat="42.39548899999994" lon="1.6253160000000004">
        <ele>1204.171</ele>
        <time>2022-08-18T19:02:40Z</time>
      </trkpt>
      <trkpt lat="42.39550999999994" lon="1.6251980000000004">
        <ele>1203.436</ele>
        <time>2022-08-18T19:02:42Z</time>
      </trkpt>
      <trkpt lat="42.39559999999994" lon="1.6250370000000003">
        <ele>1202.517</ele>
        <time>2022-08-18T19:02:44Z</time>
      </trkpt>
      <trkpt lat="42.39561599999994" lon="1.6249670000000003">
        <ele>1202.318</ele>
        <time>2022-08-18T19:02:45Z</time>
      </trkpt>
      <trkpt lat="42.39563099999994" lon="1.6248900000000002">
        <ele>1201.709</ele>
        <time>2022-08-18T19:02:46Z</time>
      </trkpt>
      <trkpt lat="42.39562999999994" lon="1.6247410000000002">
        <ele>1201.154</ele>
        <time>2022-08-18T19:02:48Z</time>
      </trkpt>
      <trkpt lat="42.39566899999994" lon="1.6246460000000003">
        <ele>1200.484</ele>
        <time>2022-08-18T19:02:50Z</time>
      </trkpt>
      <trkpt lat="42.39568599999994" lon="1.6245170000000002">
        <ele>1199.684</ele>
        <time>2022-08-18T19:02:52Z</time>
      </trkpt>
      <trkpt lat="42.39565299999994" lon="1.6243880000000002">
        <ele>1198.863</ele>
        <time>2022-08-18T19:02:54Z</time>
      </trkpt>
      <trkpt lat="42.39563699999994" lon="1.6243180000000002">
        <ele>1198.440</ele>
        <time>2022-08-18T19:02:55Z</time>
      </trkpt>
      <trkpt lat="42.395625999999936" lon="1.6241400000000001">
        <ele>1197.567</ele>
        <time>2022-08-18T19:02:57Z</time>
      </trkpt>
      <trkpt lat="42.39567599999994" lon="1.6240150000000002">
        <ele>1196.833</ele>
        <time>2022-08-18T19:02:59Z</time>
      </trkpt>
      <trkpt lat="42.395721999999935" lon="1.6239460000000001">
        <ele>1196.515</ele>
        <time>2022-08-18T19:03:00Z</time>
      </trkpt>
      <trkpt lat="42.39576599999994" lon="1.623801">
        <ele>1196.097</ele>
        <time>2022-08-18T19:03:02Z</time>
      </trkpt>
      <trkpt lat="42.395822999999936" lon="1.623642">
        <ele>1195.466</ele>
        <time>2022-08-18T19:03:04Z</time>
      </trkpt>
      <trkpt lat="42.395851999999934" lon="1.623438">
        <ele>1194.829</ele>
        <time>2022-08-18T19:03:06Z</time>
      </trkpt>
      <trkpt lat="42.39588599999993" lon="1.623219">
        <ele>1194.021</ele>
        <time>2022-08-18T19:03:08Z</time>
      </trkpt>
      <trkpt lat="42.395938999999935" lon="1.623057">
        <ele>1193.409</ele>
        <time>2022-08-18T19:03:10Z</time>
      </trkpt>
      <trkpt lat="42.39594899999994" lon="1.622989">
        <ele>1193.047</ele>
        <time>2022-08-18T19:03:11Z</time>
      </trkpt>
      <trkpt lat="42.39596799999994" lon="1.622924">
        <ele>1192.487</ele>
        <time>2022-08-18T19:03:13Z</time>
      </trkpt>
      <trkpt lat="42.39590599999994" lon="1.622902">
        <ele>1191.727</ele>
        <time>2022-08-18T19:03:15Z</time>
      </trkpt>
      <trkpt lat="42.39583199999994" lon="1.622802">
        <ele>1191.066</ele>
        <time>2022-08-18T19:03:17Z</time>
      </trkpt>
      <trkpt lat="42.395799999999944" lon="1.6227580000000001">
        <ele>1190.593</ele>
        <time>2022-08-18T19:03:18Z</time>
      </trkpt>
      <trkpt lat="42.395723999999944" lon="1.6227800000000001">
        <ele>1189.430</ele>
        <time>2022-08-18T19:03:20Z</time>
      </trkpt>
      <trkpt lat="42.39565499999994" lon="1.622772">
        <ele>1187.646</ele>
        <time>2022-08-18T19:03:22Z</time>
      </trkpt>
      <trkpt lat="42.395681999999944" lon="1.622703">
        <ele>1187.058</ele>
        <time>2022-08-18T19:03:24Z</time>
      </trkpt>
      <trkpt lat="42.395723999999944" lon="1.622628">
        <ele>1186.530</ele>
        <time>2022-08-18T19:03:27Z</time>
      </trkpt>
      <trkpt lat="42.39578499999995" lon="1.622588">
        <ele>1186.227</ele>
        <time>2022-08-18T19:03:30Z</time>
      </trkpt>
      <trkpt lat="42.39583199999995" lon="1.6225049999999999">
        <ele>1185.968</ele>
        <time>2022-08-18T19:03:32Z</time>
      </trkpt>
      <trkpt lat="42.39586499999995" lon="1.6224249999999998">
        <ele>1185.414</ele>
        <time>2022-08-18T19:03:35Z</time>
      </trkpt>
      <trkpt lat="42.39587799999995" lon="1.6223499999999997">
        <ele>1185.009</ele>
        <time>2022-08-18T19:03:37Z</time>
      </trkpt>
      <trkpt lat="42.39585899999995" lon="1.6222609999999997">
        <ele>1184.513</ele>
        <time>2022-08-18T19:03:39Z</time>
      </trkpt>
      <trkpt lat="42.39581899999995" lon="1.6222189999999996">
        <ele>1184.243</ele>
        <time>2022-08-18T19:03:41Z</time>
      </trkpt>
      <trkpt lat="42.395753999999954" lon="1.6221949999999996">
        <ele>1183.883</ele>
        <time>2022-08-18T19:03:43Z</time>
      </trkpt>
      <trkpt lat="42.39566499999995" lon="1.6222009999999996">
        <ele>1183.572</ele>
        <time>2022-08-18T19:03:45Z</time>
      </trkpt>
      <trkpt lat="42.39561499999995" lon="1.6222089999999996">
        <ele>1183.349</ele>
        <time>2022-08-18T19:03:46Z</time>
      </trkpt>
      <trkpt lat="42.39551199999995" lon="1.6222049999999997">
        <ele>1182.926</ele>
        <time>2022-08-18T19:03:48Z</time>
      </trkpt>
      <trkpt lat="42.39542899999995" lon="1.6221619999999997">
        <ele>1182.672</ele>
        <time>2022-08-18T19:03:49Z</time>
      </trkpt>
      <trkpt lat="42.39533399999995" lon="1.6221229999999998">
        <ele>1181.964</ele>
        <time>2022-08-18T19:03:51Z</time>
      </trkpt>
      <trkpt lat="42.39527999999995" lon="1.6221239999999997">
        <ele>1181.676</ele>
        <time>2022-08-18T19:03:52Z</time>
      </trkpt>
      <trkpt lat="42.39524099999995" lon="1.6220879999999998">
        <ele>1181.356</ele>
        <time>2022-08-18T19:03:53Z</time>
      </trkpt>
      <trkpt lat="42.395137999999946" lon="1.6221589999999997">
        <ele>1180.859</ele>
        <time>2022-08-18T19:03:55Z</time>
      </trkpt>
      <trkpt lat="42.395087999999944" lon="1.6221779999999997">
        <ele>1180.414</ele>
        <time>2022-08-18T19:03:56Z</time>
      </trkpt>
      <trkpt lat="42.394952999999944" lon="1.6223459999999996">
        <ele>1179.509</ele>
        <time>2022-08-18T19:03:58Z</time>
      </trkpt>
      <trkpt lat="42.394873999999945" lon="1.6224209999999997">
        <ele>1178.896</ele>
        <time>2022-08-18T19:04:00Z</time>
      </trkpt>
      <trkpt lat="42.394828999999945" lon="1.6224889999999996">
        <ele>1178.556</ele>
        <time>2022-08-18T19:04:01Z</time>
      </trkpt>
      <trkpt lat="42.394757999999946" lon="1.6225409999999996">
        <ele>1178.466</ele>
        <time>2022-08-18T19:04:02Z</time>
      </trkpt>
      <trkpt lat="42.394727999999944" lon="1.6225999999999996">
        <ele>1178.235</ele>
        <time>2022-08-18T19:04:03Z</time>
      </trkpt>
      <trkpt lat="42.394656999999945" lon="1.6226999999999996">
        <ele>1177.722</ele>
        <time>2022-08-18T19:04:05Z</time>
      </trkpt>
      <trkpt lat="42.394611999999945" lon="1.6227169999999995">
        <ele>1177.439</ele>
        <time>2022-08-18T19:04:06Z</time>
      </trkpt>
      <trkpt lat="42.39456499999994" lon="1.6227319999999996">
        <ele>1177.055</ele>
        <time>2022-08-18T19:04:07Z</time>
      </trkpt>
      <trkpt lat="42.39438299999994" lon="1.6227679999999995">
        <ele>1176.237</ele>
        <time>2022-08-18T19:04:09Z</time>
      </trkpt>
      <trkpt lat="42.39429299999994" lon="1.6228349999999996">
        <ele>1175.179</ele>
        <time>2022-08-18T19:04:11Z</time>
      </trkpt>
      <trkpt lat="42.39425099999994" lon="1.6229719999999996">
        <ele>1174.425</ele>
        <time>2022-08-18T19:04:13Z</time>
      </trkpt>
      <trkpt lat="42.39417999999994" lon="1.6230559999999996">
        <ele>1174.126</ele>
        <time>2022-08-18T19:04:15Z</time>
      </trkpt>
      <trkpt lat="42.39410099999994" lon="1.6231249999999997">
        <ele>1173.408</ele>
        <time>2022-08-18T19:04:17Z</time>
      </trkpt>
      <trkpt lat="42.39403299999994" lon="1.6231529999999996">
        <ele>1173.109</ele>
        <time>2022-08-18T19:04:18Z</time>
      </trkpt>
      <trkpt lat="42.39400299999994" lon="1.6232419999999996">
        <ele>1172.633</ele>
        <time>2022-08-18T19:04:20Z</time>
      </trkpt>
      <trkpt lat="42.39399499999994" lon="1.6233219999999997">
        <ele>1172.373</ele>
        <time>2022-08-18T19:04:21Z</time>
      </trkpt>
      <trkpt lat="42.39394099999994" lon="1.6233749999999998">
        <ele>1171.743</ele>
        <time>2022-08-18T19:04:22Z</time>
      </trkpt>
      <trkpt lat="42.39393099999994" lon="1.6234359999999999">
        <ele>1171.072</ele>
        <time>2022-08-18T19:04:23Z</time>
      </trkpt>
      <trkpt lat="42.393880999999936" lon="1.6234739999999999">
        <ele>1170.569</ele>
        <time>2022-08-18T19:04:25Z</time>
      </trkpt>
      <trkpt lat="42.39380099999994" lon="1.6234899999999999">
        <ele>1170.386</ele>
        <time>2022-08-18T19:04:27Z</time>
      </trkpt>
      <trkpt lat="42.39368499999994" lon="1.6235469999999999">
        <ele>1170.142</ele>
        <time>2022-08-18T19:04:29Z</time>
      </trkpt>
      <trkpt lat="42.39363399999994" lon="1.623573">
        <ele>1169.984</ele>
        <time>2022-08-18T19:04:30Z</time>
      </trkpt>
      <trkpt lat="42.393511999999944" lon="1.62358">
        <ele>1169.526</ele>
        <time>2022-08-18T19:04:32Z</time>
      </trkpt>
      <trkpt lat="42.393440999999946" lon="1.623606">
        <ele>1169.299</ele>
        <time>2022-08-18T19:04:34Z</time>
      </trkpt>
      <trkpt lat="42.39335299999995" lon="1.6236030000000001">
        <ele>1168.807</ele>
        <time>2022-08-18T19:04:36Z</time>
      </trkpt>
      <trkpt lat="42.393291999999946" lon="1.6235950000000001">
        <ele>1168.627</ele>
        <time>2022-08-18T19:04:37Z</time>
      </trkpt>
      <trkpt lat="42.39321999999994" lon="1.6236020000000002">
        <ele>1168.309</ele>
        <time>2022-08-18T19:04:39Z</time>
      </trkpt>
      <trkpt lat="42.39317799999994" lon="1.6236250000000003">
        <ele>1168.120</ele>
        <time>2022-08-18T19:04:40Z</time>
      </trkpt>
      <trkpt lat="42.393086999999944" lon="1.6236970000000004">
        <ele>1167.720</ele>
        <time>2022-08-18T19:04:42Z</time>
      </trkpt>
      <trkpt lat="42.392976999999945" lon="1.6236980000000003">
        <ele>1167.290</ele>
        <time>2022-08-18T19:04:44Z</time>
      </trkpt>
      <trkpt lat="42.39285399999994" lon="1.6237120000000003">
        <ele>1166.449</ele>
        <time>2022-08-18T19:04:46Z</time>
      </trkpt>
      <trkpt lat="42.39271399999994" lon="1.6236680000000003">
        <ele>1165.526</ele>
        <time>2022-08-18T19:04:48Z</time>
      </trkpt>
      <trkpt lat="42.39260999999994" lon="1.6236230000000003">
        <ele>1164.653</ele>
        <time>2022-08-18T19:04:50Z</time>
      </trkpt>
      <trkpt lat="42.392484999999944" lon="1.6235830000000002">
        <ele>1164.179</ele>
        <time>2022-08-18T19:04:52Z</time>
      </trkpt>
      <trkpt lat="42.392439999999944" lon="1.6235580000000003">
        <ele>1163.851</ele>
        <time>2022-08-18T19:04:53Z</time>
      </trkpt>
      <trkpt lat="42.392371999999945" lon="1.6235610000000003">
        <ele>1163.473</ele>
        <time>2022-08-18T19:04:54Z</time>
      </trkpt>
      <trkpt lat="42.39226099999995" lon="1.6235370000000002">
        <ele>1162.823</ele>
        <time>2022-08-18T19:04:56Z</time>
      </trkpt>
      <trkpt lat="42.39220399999995" lon="1.6235180000000002">
        <ele>1162.583</ele>
        <time>2022-08-18T19:04:57Z</time>
      </trkpt>
      <trkpt lat="42.39216199999995" lon="1.6234860000000002">
        <ele>1162.211</ele>
        <time>2022-08-18T19:04:58Z</time>
      </trkpt>
      <trkpt lat="42.39210499999995" lon="1.6234580000000003">
        <ele>1161.809</ele>
        <time>2022-08-18T19:04:59Z</time>
      </trkpt>
      <trkpt lat="42.39200099999995" lon="1.6233610000000003">
        <ele>1161.173</ele>
        <time>2022-08-18T19:05:01Z</time>
      </trkpt>
      <trkpt lat="42.391951999999954" lon="1.6233460000000002">
        <ele>1160.743</ele>
        <time>2022-08-18T19:05:02Z</time>
      </trkpt>
      <trkpt lat="42.391894999999955" lon="1.6233430000000002">
        <ele>1160.393</ele>
        <time>2022-08-18T19:05:03Z</time>
      </trkpt>
      <trkpt lat="42.39181499999996" lon="1.6232940000000002">
        <ele>1159.572</ele>
        <time>2022-08-18T19:05:05Z</time>
      </trkpt>
      <trkpt lat="42.391742999999956" lon="1.6231500000000003">
        <ele>1158.829</ele>
        <time>2022-08-18T19:05:07Z</time>
      </trkpt>
      <trkpt lat="42.39168599999996" lon="1.6230620000000002">
        <ele>1157.996</ele>
        <time>2022-08-18T19:05:09Z</time>
      </trkpt>
      <trkpt lat="42.39156799999996" lon="1.6229730000000002">
        <ele>1156.992</ele>
        <time>2022-08-18T19:05:11Z</time>
      </trkpt>
      <trkpt lat="42.39146399999996" lon="1.6228440000000002">
        <ele>1156.044</ele>
        <time>2022-08-18T19:05:13Z</time>
      </trkpt>
      <trkpt lat="42.391416999999954" lon="1.6227980000000002">
        <ele>1155.696</ele>
        <time>2022-08-18T19:05:14Z</time>
      </trkpt>
      <trkpt lat="42.39137099999996" lon="1.6227250000000002">
        <ele>1155.224</ele>
        <time>2022-08-18T19:05:15Z</time>
      </trkpt>
      <trkpt lat="42.39130499999996" lon="1.6225910000000001">
        <ele>1154.404</ele>
        <time>2022-08-18T19:05:17Z</time>
      </trkpt>
      <trkpt lat="42.39126699999996" lon="1.622476">
        <ele>1153.814</ele>
        <time>2022-08-18T19:05:19Z</time>
      </trkpt>
      <trkpt lat="42.391219999999954" lon="1.622392">
        <ele>1153.209</ele>
        <time>2022-08-18T19:05:21Z</time>
      </trkpt>
      <trkpt lat="42.39122599999995" lon="1.622261">
        <ele>1151.793</ele>
        <time>2022-08-18T19:05:23Z</time>
      </trkpt>
      <trkpt lat="42.39119099999996" lon="1.622062">
        <ele>1150.183</ele>
        <time>2022-08-18T19:05:25Z</time>
      </trkpt>
      <trkpt lat="42.391182999999955" lon="1.6219949999999999">
        <ele>1149.573</ele>
        <time>2022-08-18T19:05:26Z</time>
      </trkpt>
      <trkpt lat="42.391140999999955" lon="1.6219359999999998">
        <ele>1149.252</ele>
        <time>2022-08-18T19:05:28Z</time>
      </trkpt>
      <trkpt lat="42.391120999999956" lon="1.6218739999999998">
        <ele>1149.099</ele>
        <time>2022-08-18T19:05:29Z</time>
      </trkpt>
      <trkpt lat="42.391078999999955" lon="1.6218099999999998">
        <ele>1148.886</ele>
        <time>2022-08-18T19:05:30Z</time>
      </trkpt>
      <trkpt lat="42.390988999999955" lon="1.6216259999999998">
        <ele>1148.332</ele>
        <time>2022-08-18T19:05:32Z</time>
      </trkpt>
      <trkpt lat="42.390946999999954" lon="1.6215339999999998">
        <ele>1148.224</ele>
        <time>2022-08-18T19:05:33Z</time>
      </trkpt>
      <trkpt lat="42.39086599999995" lon="1.6214819999999999">
        <ele>1148.316</ele>
        <time>2022-08-18T19:05:35Z</time>
      </trkpt>
      <trkpt lat="42.39082999999995" lon="1.6214449999999998">
        <ele>1148.447</ele>
        <time>2022-08-18T19:05:36Z</time>
      </trkpt>
      <trkpt lat="42.39069199999995" lon="1.6214469999999999">
        <ele>1148.829</ele>
        <time>2022-08-18T19:05:38Z</time>
      </trkpt>
      <trkpt lat="42.39067799999995" lon="1.6213769999999998">
        <ele>1149.121</ele>
        <time>2022-08-18T19:05:39Z</time>
      </trkpt>
      <trkpt lat="42.39063399999995" lon="1.6213579999999999">
        <ele>1149.409</ele>
        <time>2022-08-18T19:05:40Z</time>
      </trkpt>
      <trkpt lat="42.39055499999995" lon="1.6213309999999999">
        <ele>1149.875</ele>
        <time>2022-08-18T19:05:41Z</time>
      </trkpt>
      <trkpt lat="42.39048999999995" lon="1.621271">
        <ele>1150.695</ele>
        <time>2022-08-18T19:05:43Z</time>
      </trkpt>
      <trkpt lat="42.39044099999995" lon="1.621227">
        <ele>1150.845</ele>
        <time>2022-08-18T19:05:44Z</time>
      </trkpt>
      <trkpt lat="42.39039099999995" lon="1.621086">
        <ele>1151.734</ele>
        <time>2022-08-18T19:05:46Z</time>
      </trkpt>
      <trkpt lat="42.39028399999995" lon="1.620992">
        <ele>1152.471</ele>
        <time>2022-08-18T19:05:48Z</time>
      </trkpt>
      <trkpt lat="42.39017099999995" lon="1.620951">
        <ele>1153.188</ele>
        <time>2022-08-18T19:05:50Z</time>
      </trkpt>
      <trkpt lat="42.39005399999995" lon="1.620814">
        <ele>1153.764</ele>
        <time>2022-08-18T19:05:52Z</time>
      </trkpt>
      <trkpt lat="42.38999199999995" lon="1.6207799999999999">
        <ele>1154.146</ele>
        <time>2022-08-18T19:05:53Z</time>
      </trkpt>
      <trkpt lat="42.38982799999995" lon="1.6206889999999998">
        <ele>1154.648</ele>
        <time>2022-08-18T19:05:55Z</time>
      </trkpt>
      <trkpt lat="42.38976399999995" lon="1.6207019999999999">
        <ele>1154.862</ele>
        <time>2022-08-18T19:05:56Z</time>
      </trkpt>
      <trkpt lat="42.38967299999995" lon="1.6206859999999998">
        <ele>1155.383</ele>
        <time>2022-08-18T19:05:58Z</time>
      </trkpt>
      <trkpt lat="42.38955999999995" lon="1.6206749999999999">
        <ele>1155.711</ele>
        <time>2022-08-18T19:06:00Z</time>
      </trkpt>
      <trkpt lat="42.38950399999995" lon="1.6206809999999998">
        <ele>1156.009</ele>
        <time>2022-08-18T19:06:01Z</time>
      </trkpt>
      <trkpt lat="42.389381999999955" lon="1.620642">
        <ele>1156.797</ele>
        <time>2022-08-18T19:06:03Z</time>
      </trkpt>
      <trkpt lat="42.389285999999956" lon="1.62062">
        <ele>1157.627</ele>
        <time>2022-08-18T19:06:05Z</time>
      </trkpt>
      <trkpt lat="42.38923499999996" lon="1.620638">
        <ele>1158.087</ele>
        <time>2022-08-18T19:06:06Z</time>
      </trkpt>
      <trkpt lat="42.38912999999996" lon="1.62061">
        <ele>1158.766</ele>
        <time>2022-08-18T19:06:08Z</time>
      </trkpt>
      <trkpt lat="42.38908299999996" lon="1.620597">
        <ele>1159.673</ele>
        <time>2022-08-18T19:06:10Z</time>
      </trkpt>
      <trkpt lat="42.38903699999996" lon="1.62063">
        <ele>1161.090</ele>
        <time>2022-08-18T19:06:14Z</time>
      </trkpt>
      <trkpt lat="42.38908399999996" lon="1.620654">
        <ele>1163.216</ele>
        <time>2022-08-18T19:06:31Z</time>
      </trkpt>
      <trkpt lat="42.389138999999965" lon="1.620702">
        <ele>1163.248</ele>
        <time>2022-08-18T19:06:34Z</time>
      </trkpt>
      <trkpt lat="42.38918799999996" lon="1.620679">
        <ele>1162.240</ele>
        <time>2022-08-18T19:07:41Z</time>
      </trkpt>
      <trkpt lat="42.38923399999996" lon="1.620647">
        <ele>1162.243</ele>
        <time>2022-08-18T19:07:45Z</time>
      </trkpt>
      <trkpt lat="42.38927499999996" lon="1.6206019999999999">
        <ele>1162.264</ele>
        <time>2022-08-18T19:07:48Z</time>
      </trkpt>
      <trkpt lat="42.38931399999996" lon="1.6205699999999998">
        <ele>1162.210</ele>
        <time>2022-08-18T19:07:53Z</time>
      </trkpt>
      <trkpt lat="42.38931799999996" lon="1.6205029999999998">
        <ele>1163.609</ele>
        <time>2022-08-18T19:07:57Z</time>
      </trkpt>
      <trkpt lat="42.38934299999996" lon="1.6204519999999998">
        <ele>1164.315</ele>
        <time>2022-08-18T19:08:01Z</time>
      </trkpt>
      <trkpt lat="42.38938899999996" lon="1.6204319999999999">
        <ele>1164.965</ele>
        <time>2022-08-18T19:08:05Z</time>
      </trkpt>
      <trkpt lat="42.38944199999996" lon="1.6204379999999998">
        <ele>1165.865</ele>
        <time>2022-08-18T19:08:11Z</time>
      </trkpt>
      <trkpt lat="42.38948099999996" lon="1.6203929999999998">
        <ele>1166.724</ele>
        <time>2022-08-18T19:08:15Z</time>
      </trkpt>
      <trkpt lat="42.38951299999996" lon="1.6203489999999998">
        <ele>1167.361</ele>
        <time>2022-08-18T19:08:18Z</time>
      </trkpt>
      <trkpt lat="42.38957499999996" lon="1.6203649999999998">
        <ele>1168.028</ele>
        <time>2022-08-18T19:08:22Z</time>
      </trkpt>
      <trkpt lat="42.38961199999996" lon="1.620326">
        <ele>1168.644</ele>
        <time>2022-08-18T19:08:26Z</time>
      </trkpt>
      <trkpt lat="42.38962599999996" lon="1.620261">
        <ele>1170.246</ele>
        <time>2022-08-18T19:08:33Z</time>
      </trkpt>
      <trkpt lat="42.38966699999996" lon="1.620225">
        <ele>1171.128</ele>
        <time>2022-08-18T19:08:38Z</time>
      </trkpt>
      <trkpt lat="42.38971299999996" lon="1.620222">
        <ele>1171.587</ele>
        <time>2022-08-18T19:08:42Z</time>
      </trkpt>
      <trkpt lat="42.38976099999996" lon="1.620192">
        <ele>1172.142</ele>
        <time>2022-08-18T19:08:45Z</time>
      </trkpt>
      <trkpt lat="42.389792999999955" lon="1.620144">
        <ele>1173.326</ele>
        <time>2022-08-18T19:08:53Z</time>
      </trkpt>
      <trkpt lat="42.38981999999996" lon="1.620095">
        <ele>1173.609</ele>
        <time>2022-08-18T19:08:56Z</time>
      </trkpt>
      <trkpt lat="42.38986799999996" lon="1.620069">
        <ele>1174.159</ele>
        <time>2022-08-18T19:09:00Z</time>
      </trkpt>
      <trkpt lat="42.38990199999996" lon="1.620024">
        <ele>1174.659</ele>
        <time>2022-08-18T19:09:04Z</time>
      </trkpt>
      <trkpt lat="42.38994699999996" lon="1.6199819999999998">
        <ele>1175.369</ele>
        <time>2022-08-18T19:09:09Z</time>
      </trkpt>
      <trkpt lat="42.38999999999996" lon="1.6199709999999998">
        <ele>1176.188</ele>
        <time>2022-08-18T19:09:13Z</time>
      </trkpt>
      <trkpt lat="42.39004999999996" lon="1.6199279999999998">
        <ele>1177.035</ele>
        <time>2022-08-18T19:09:19Z</time>
      </trkpt>
      <trkpt lat="42.39009399999996" lon="1.6198919999999999">
        <ele>1177.412</ele>
        <time>2022-08-18T19:09:23Z</time>
      </trkpt>
      <trkpt lat="42.39014799999996" lon="1.619886">
        <ele>1178.358</ele>
        <time>2022-08-18T19:09:31Z</time>
      </trkpt>
      <trkpt lat="42.39018799999996" lon="1.6198359999999998">
        <ele>1179.520</ele>
        <time>2022-08-18T19:09:39Z</time>
      </trkpt>
      <trkpt lat="42.39014099999996" lon="1.619827">
        <ele>1180.252</ele>
        <time>2022-08-18T19:09:47Z</time>
      </trkpt>
      <trkpt lat="42.39018199999996" lon="1.6197769999999998">
        <ele>1180.778</ele>
        <time>2022-08-18T19:09:50Z</time>
      </trkpt>
      <trkpt lat="42.39023199999996" lon="1.6197579999999998">
        <ele>1181.633</ele>
        <time>2022-08-18T19:09:54Z</time>
      </trkpt>
      <trkpt lat="42.39028099999996" lon="1.6197439999999999">
        <ele>1184.826</ele>
        <time>2022-08-18T19:10:29Z</time>
      </trkpt>
      <trkpt lat="42.39033199999996" lon="1.619759">
        <ele>1184.809</ele>
        <time>2022-08-18T19:10:35Z</time>
      </trkpt>
      <trkpt lat="42.39037899999996" lon="1.619719">
        <ele>1184.828</ele>
        <time>2022-08-18T19:10:39Z</time>
      </trkpt>
      <trkpt lat="42.390416999999964" lon="1.619676">
        <ele>1184.828</ele>
        <time>2022-08-18T19:10:43Z</time>
      </trkpt>
      <trkpt lat="42.390461999999964" lon="1.6196519999999999">
        <ele>1185.038</ele>
        <time>2022-08-18T19:10:47Z</time>
      </trkpt>
      <trkpt lat="42.390514999999965" lon="1.619619">
        <ele>1187.337</ele>
        <time>2022-08-18T19:10:53Z</time>
      </trkpt>
      <trkpt lat="42.390553999999966" lon="1.6195789999999999">
        <ele>1188.044</ele>
        <time>2022-08-18T19:10:56Z</time>
      </trkpt>
      <trkpt lat="42.39058399999997" lon="1.6195179999999998">
        <ele>1188.881</ele>
        <time>2022-08-18T19:10:59Z</time>
      </trkpt>
      <trkpt lat="42.390570999999966" lon="1.6194569999999997">
        <ele>1189.757</ele>
        <time>2022-08-18T19:11:03Z</time>
      </trkpt>
      <trkpt lat="42.39057799999996" lon="1.6193919999999997">
        <ele>1190.989</ele>
        <time>2022-08-18T19:11:11Z</time>
      </trkpt>
      <trkpt lat="42.39059799999996" lon="1.6193209999999998">
        <ele>1192.441</ele>
        <time>2022-08-18T19:11:20Z</time>
      </trkpt>
      <trkpt lat="42.39061499999996" lon="1.6192569999999997">
        <ele>1193.515</ele>
        <time>2022-08-18T19:11:27Z</time>
      </trkpt>
      <trkpt lat="42.39067399999996" lon="1.6192429999999998">
        <ele>1194.765</ele>
        <time>2022-08-18T19:11:32Z</time>
      </trkpt>
      <trkpt lat="42.39073599999996" lon="1.6192479999999998">
        <ele>1197.411</ele>
        <time>2022-08-18T19:11:40Z</time>
      </trkpt>
      <trkpt lat="42.39078899999996" lon="1.6192229999999999">
        <ele>1198.409</ele>
        <time>2022-08-18T19:11:45Z</time>
      </trkpt>
      <trkpt lat="42.39083399999996" lon="1.6192239999999998">
        <ele>1199.452</ele>
        <time>2022-08-18T19:11:50Z</time>
      </trkpt>
      <trkpt lat="42.39089099999996" lon="1.6192219999999997">
        <ele>1200.572</ele>
        <time>2022-08-18T19:11:55Z</time>
      </trkpt>
      <trkpt lat="42.39094199999996" lon="1.6191929999999997">
        <ele>1201.622</ele>
        <time>2022-08-18T19:12:01Z</time>
      </trkpt>
      <trkpt lat="42.39099999999996" lon="1.6191879999999996">
        <ele>1202.931</ele>
        <time>2022-08-18T19:12:06Z</time>
      </trkpt>
      <trkpt lat="42.391046999999965" lon="1.6191969999999996">
        <ele>1204.128</ele>
        <time>2022-08-18T19:12:13Z</time>
      </trkpt>
      <trkpt lat="42.391099999999966" lon="1.6191759999999995">
        <ele>1205.065</ele>
        <time>2022-08-18T19:12:18Z</time>
      </trkpt>
      <trkpt lat="42.391130999999966" lon="1.6191199999999994">
        <ele>1205.881</ele>
        <time>2022-08-18T19:12:22Z</time>
      </trkpt>
      <trkpt lat="42.39116599999996" lon="1.6190719999999994">
        <ele>1207.463</ele>
        <time>2022-08-18T19:12:32Z</time>
      </trkpt>
      <trkpt lat="42.39116899999996" lon="1.6190099999999994">
        <ele>1208.155</ele>
        <time>2022-08-18T19:12:35Z</time>
      </trkpt>
      <trkpt lat="42.391195999999965" lon="1.6189589999999994">
        <ele>1209.027</ele>
        <time>2022-08-18T19:12:40Z</time>
      </trkpt>
      <trkpt lat="42.391246999999964" lon="1.6189629999999993">
        <ele>1209.368</ele>
        <time>2022-08-18T19:12:45Z</time>
      </trkpt>
      <trkpt lat="42.391274999999965" lon="1.6189099999999992">
        <ele>1211.714</ele>
        <time>2022-08-18T19:13:04Z</time>
      </trkpt>
      <trkpt lat="42.391322999999964" lon="1.6188699999999991">
        <ele>1212.309</ele>
        <time>2022-08-18T19:13:08Z</time>
      </trkpt>
      <trkpt lat="42.39135999999996" lon="1.618821999999999">
        <ele>1212.443</ele>
        <time>2022-08-18T19:13:12Z</time>
      </trkpt>
      <trkpt lat="42.391386999999966" lon="1.6187619999999991">
        <ele>1212.753</ele>
        <time>2022-08-18T19:13:16Z</time>
      </trkpt>
      <trkpt lat="42.39142299999997" lon="1.6187079999999991">
        <ele>1214.253</ele>
        <time>2022-08-18T19:13:20Z</time>
      </trkpt>
      <trkpt lat="42.39146199999997" lon="1.618651999999999">
        <ele>1215.522</ele>
        <time>2022-08-18T19:13:27Z</time>
      </trkpt>
      <trkpt lat="42.39150699999997" lon="1.618636999999999">
        <ele>1216.339</ele>
        <time>2022-08-18T19:13:31Z</time>
      </trkpt>
      <trkpt lat="42.39155699999997" lon="1.618609999999999">
        <ele>1217.266</ele>
        <time>2022-08-18T19:13:36Z</time>
      </trkpt>
      <trkpt lat="42.39160699999997" lon="1.618621999999999">
        <ele>1217.872</ele>
        <time>2022-08-18T19:13:39Z</time>
      </trkpt>
      <trkpt lat="42.39159699999997" lon="1.6185599999999989">
        <ele>1219.334</ele>
        <time>2022-08-18T19:13:43Z</time>
      </trkpt>
      <trkpt lat="42.39163499999997" lon="1.618504999999999">
        <ele>1219.986</ele>
        <time>2022-08-18T19:13:48Z</time>
      </trkpt>
      <trkpt lat="42.391661999999975" lon="1.618442999999999">
        <ele>1220.595</ele>
        <time>2022-08-18T19:13:52Z</time>
      </trkpt>
      <trkpt lat="42.39170899999998" lon="1.618436999999999">
        <ele>1221.249</ele>
        <time>2022-08-18T19:13:56Z</time>
      </trkpt>
      <trkpt lat="42.39176399999998" lon="1.618452999999999">
        <ele>1222.323</ele>
        <time>2022-08-18T19:14:00Z</time>
      </trkpt>
      <trkpt lat="42.39180299999998" lon="1.6184059999999991">
        <ele>1223.209</ele>
        <time>2022-08-18T19:14:03Z</time>
      </trkpt>
      <trkpt lat="42.391843999999985" lon="1.6183679999999991">
        <ele>1224.090</ele>
        <time>2022-08-18T19:14:08Z</time>
      </trkpt>
      <trkpt lat="42.391891999999984" lon="1.6183429999999992">
        <ele>1225.290</ele>
        <time>2022-08-18T19:14:17Z</time>
      </trkpt>
      <trkpt lat="42.39191299999998" lon="1.6182709999999991">
        <ele>1225.990</ele>
        <time>2022-08-18T19:14:21Z</time>
      </trkpt>
      <trkpt lat="42.39194599999998" lon="1.6182089999999991">
        <ele>1226.759</ele>
        <time>2022-08-18T19:14:26Z</time>
      </trkpt>
      <trkpt lat="42.391987999999984" lon="1.618166999999999">
        <ele>1228.326</ele>
        <time>2022-08-18T19:14:35Z</time>
      </trkpt>
      <trkpt lat="42.392020999999986" lon="1.618099999999999">
        <ele>1229.153</ele>
        <time>2022-08-18T19:14:39Z</time>
      </trkpt>
      <trkpt lat="42.39205399999999" lon="1.6180579999999989">
        <ele>1229.629</ele>
        <time>2022-08-18T19:14:42Z</time>
      </trkpt>
      <trkpt lat="42.392116999999985" lon="1.618029999999999">
        <ele>1230.721</ele>
        <time>2022-08-18T19:14:47Z</time>
      </trkpt>
      <trkpt lat="42.39215499999999" lon="1.617991999999999">
        <ele>1231.353</ele>
        <time>2022-08-18T19:14:50Z</time>
      </trkpt>
      <trkpt lat="42.39219699999999" lon="1.617948999999999">
        <ele>1232.358</ele>
        <time>2022-08-18T19:14:55Z</time>
      </trkpt>
      <trkpt lat="42.39222299999999" lon="1.617896999999999">
        <ele>1232.752</ele>
        <time>2022-08-18T19:14:57Z</time>
      </trkpt>
      <trkpt lat="42.39226799999999" lon="1.617887999999999">
        <ele>1233.117</ele>
        <time>2022-08-18T19:15:00Z</time>
      </trkpt>
      <trkpt lat="42.39231499999999" lon="1.617863999999999">
        <ele>1234.309</ele>
        <time>2022-08-18T19:15:08Z</time>
      </trkpt>
      <trkpt lat="42.39232699999999" lon="1.6177849999999991">
        <ele>1234.966</ele>
        <time>2022-08-18T19:15:13Z</time>
      </trkpt>
      <trkpt lat="42.39236299999999" lon="1.617739999999999">
        <ele>1235.736</ele>
        <time>2022-08-18T19:15:16Z</time>
      </trkpt>
      <trkpt lat="42.39235399999999" lon="1.617674999999999">
        <ele>1236.226</ele>
        <time>2022-08-18T19:15:20Z</time>
      </trkpt>
      <trkpt lat="42.39235699999999" lon="1.6176089999999992">
        <ele>1237.245</ele>
        <time>2022-08-18T19:15:25Z</time>
      </trkpt>
      <trkpt lat="42.39238699999999" lon="1.6175509999999993">
        <ele>1238.672</ele>
        <time>2022-08-18T19:15:29Z</time>
      </trkpt>
      <trkpt lat="42.39243299999999" lon="1.6175069999999994">
        <ele>1239.489</ele>
        <time>2022-08-18T19:15:32Z</time>
      </trkpt>
      <trkpt lat="42.392484999999986" lon="1.6174689999999994">
        <ele>1240.075</ele>
        <time>2022-08-18T19:15:36Z</time>
      </trkpt>
      <trkpt lat="42.39253199999999" lon="1.6174379999999995">
        <ele>1240.857</ele>
        <time>2022-08-18T19:15:41Z</time>
      </trkpt>
      <trkpt lat="42.39256899999999" lon="1.6174029999999995">
        <ele>1242.049</ele>
        <time>2022-08-18T19:15:45Z</time>
      </trkpt>
      <trkpt lat="42.39257499999999" lon="1.6173389999999994">
        <ele>1242.672</ele>
        <time>2022-08-18T19:15:49Z</time>
      </trkpt>
      <trkpt lat="42.39257699999999" lon="1.6172769999999994">
        <ele>1243.013</ele>
        <time>2022-08-18T19:15:53Z</time>
      </trkpt>
      <trkpt lat="42.39260499999999" lon="1.6172189999999995">
        <ele>1243.514</ele>
        <time>2022-08-18T19:15:57Z</time>
      </trkpt>
      <trkpt lat="42.39264799999999" lon="1.6171909999999996">
        <ele>1244.509</ele>
        <time>2022-08-18T19:16:03Z</time>
      </trkpt>
      <trkpt lat="42.39268999999999" lon="1.6171549999999997">
        <ele>1245.678</ele>
        <time>2022-08-18T19:16:08Z</time>
      </trkpt>
      <trkpt lat="42.39273799999999" lon="1.6171289999999996">
        <ele>1246.438</ele>
        <time>2022-08-18T19:16:12Z</time>
      </trkpt>
      <trkpt lat="42.39278499999999" lon="1.6170839999999995">
        <ele>1247.278</ele>
        <time>2022-08-18T19:16:17Z</time>
      </trkpt>
      <trkpt lat="42.39282599999999" lon="1.6170379999999995">
        <ele>1247.567</ele>
        <time>2022-08-18T19:16:25Z</time>
      </trkpt>
      <trkpt lat="42.39287399999999" lon="1.6169929999999995">
        <ele>1248.494</ele>
        <time>2022-08-18T19:16:30Z</time>
      </trkpt>
      <trkpt lat="42.39289999999999" lon="1.6169299999999995">
        <ele>1249.751</ele>
        <time>2022-08-18T19:16:34Z</time>
      </trkpt>
      <trkpt lat="42.39291399999999" lon="1.6168659999999995">
        <ele>1251.077</ele>
        <time>2022-08-18T19:16:39Z</time>
      </trkpt>
      <trkpt lat="42.39295299999999" lon="1.6168199999999995">
        <ele>1252.129</ele>
        <time>2022-08-18T19:16:43Z</time>
      </trkpt>
      <trkpt lat="42.392996999999994" lon="1.6167819999999995">
        <ele>1253.821</ele>
        <time>2022-08-18T19:16:48Z</time>
      </trkpt>
      <trkpt lat="42.393018999999995" lon="1.6167149999999995">
        <ele>1254.482</ele>
        <time>2022-08-18T19:16:53Z</time>
      </trkpt>
      <trkpt lat="42.39301" lon="1.6166529999999995">
        <ele>1255.043</ele>
        <time>2022-08-18T19:16:56Z</time>
      </trkpt>
      <trkpt lat="42.39301" lon="1.6165889999999994">
        <ele>1255.817</ele>
        <time>2022-08-18T19:17:00Z</time>
      </trkpt>
      <trkpt lat="42.393018" lon="1.6165269999999994">
        <ele>1256.509</ele>
        <time>2022-08-18T19:17:04Z</time>
      </trkpt>
      <trkpt lat="42.393048" lon="1.6164759999999994">
        <ele>1257.429</ele>
        <time>2022-08-18T19:17:10Z</time>
      </trkpt>
      <trkpt lat="42.393093" lon="1.6164499999999993">
        <ele>1258.339</ele>
        <time>2022-08-18T19:17:15Z</time>
      </trkpt>
      <trkpt lat="42.393151" lon="1.6164749999999992">
        <ele>1258.879</ele>
        <time>2022-08-18T19:17:18Z</time>
      </trkpt>
      <trkpt lat="42.393202" lon="1.6164679999999991">
        <ele>1259.828</ele>
        <time>2022-08-18T19:17:21Z</time>
      </trkpt>
      <trkpt lat="42.393211" lon="1.6163999999999992">
        <ele>1260.785</ele>
        <time>2022-08-18T19:17:26Z</time>
      </trkpt>
      <trkpt lat="42.393242" lon="1.6163419999999993">
        <ele>1261.742</ele>
        <time>2022-08-18T19:17:32Z</time>
      </trkpt>
      <trkpt lat="42.393261" lon="1.6162779999999992">
        <ele>1262.898</ele>
        <time>2022-08-18T19:17:37Z</time>
      </trkpt>
      <trkpt lat="42.393311000000004" lon="1.6163119999999993">
        <ele>1263.570</ele>
        <time>2022-08-18T19:17:40Z</time>
      </trkpt>
      <trkpt lat="42.393353000000005" lon="1.6163349999999994">
        <ele>1264.082</ele>
        <time>2022-08-18T19:17:43Z</time>
      </trkpt>
      <trkpt lat="42.39340000000001" lon="1.6163119999999993">
        <ele>1265.046</ele>
        <time>2022-08-18T19:17:46Z</time>
      </trkpt>
      <trkpt lat="42.393406000000006" lon="1.6162339999999993">
        <ele>1265.488</ele>
        <time>2022-08-18T19:17:52Z</time>
      </trkpt>
      <trkpt lat="42.39343000000001" lon="1.6161739999999993">
        <ele>1265.516</ele>
        <time>2022-08-18T19:17:55Z</time>
      </trkpt>
      <trkpt lat="42.39345300000001" lon="1.6161119999999993">
        <ele>1265.709</ele>
        <time>2022-08-18T19:17:59Z</time>
      </trkpt>
      <trkpt lat="42.39348300000001" lon="1.6160559999999993">
        <ele>1266.045</ele>
        <time>2022-08-18T19:18:02Z</time>
      </trkpt>
      <trkpt lat="42.393538000000014" lon="1.6160429999999992">
        <ele>1266.655</ele>
        <time>2022-08-18T19:18:09Z</time>
      </trkpt>
      <trkpt lat="42.393583000000014" lon="1.6160149999999993">
        <ele>1267.135</ele>
        <time>2022-08-18T19:18:13Z</time>
      </trkpt>
      <trkpt lat="42.39362100000002" lon="1.6159709999999994">
        <ele>1267.734</ele>
        <time>2022-08-18T19:18:17Z</time>
      </trkpt>
      <trkpt lat="42.39365100000002" lon="1.6159149999999993">
        <ele>1268.581</ele>
        <time>2022-08-18T19:18:21Z</time>
      </trkpt>
      <trkpt lat="42.39369100000002" lon="1.6158739999999994">
        <ele>1269.488</ele>
        <time>2022-08-18T19:18:26Z</time>
      </trkpt>
      <trkpt lat="42.39370400000002" lon="1.6158099999999993">
        <ele>1270.074</ele>
        <time>2022-08-18T19:18:29Z</time>
      </trkpt>
      <trkpt lat="42.39370100000002" lon="1.6157449999999993">
        <ele>1271.036</ele>
        <time>2022-08-18T19:18:32Z</time>
      </trkpt>
      <trkpt lat="42.39374000000002" lon="1.6157019999999993">
        <ele>1271.648</ele>
        <time>2022-08-18T19:18:35Z</time>
      </trkpt>
      <trkpt lat="42.393795000000026" lon="1.6156799999999993">
        <ele>1272.442</ele>
        <time>2022-08-18T19:18:38Z</time>
      </trkpt>
      <trkpt lat="42.39382000000003" lon="1.6156199999999994">
        <ele>1273.222</ele>
        <time>2022-08-18T19:18:42Z</time>
      </trkpt>
      <trkpt lat="42.39384400000003" lon="1.6155639999999993">
        <ele>1274.014</ele>
        <time>2022-08-18T19:18:47Z</time>
      </trkpt>
      <trkpt lat="42.393896000000026" lon="1.6155289999999993">
        <ele>1274.709</ele>
        <time>2022-08-18T19:18:55Z</time>
      </trkpt>
      <trkpt lat="42.393961000000026" lon="1.6155019999999993">
        <ele>1275.135</ele>
        <time>2022-08-18T19:18:58Z</time>
      </trkpt>
      <trkpt lat="42.39401000000002" lon="1.6154939999999993">
        <ele>1275.455</ele>
        <time>2022-08-18T19:19:01Z</time>
      </trkpt>
      <trkpt lat="42.39405200000002" lon="1.6155189999999993">
        <ele>1276.285</ele>
        <time>2022-08-18T19:19:06Z</time>
      </trkpt>
      <trkpt lat="42.394099000000026" lon="1.6154959999999992">
        <ele>1277.234</ele>
        <time>2022-08-18T19:19:10Z</time>
      </trkpt>
      <trkpt lat="42.39414500000002" lon="1.6154979999999992">
        <ele>1278.321</ele>
        <time>2022-08-18T19:19:13Z</time>
      </trkpt>
      <trkpt lat="42.39419100000002" lon="1.6155209999999993">
        <ele>1279.248</ele>
        <time>2022-08-18T19:19:19Z</time>
      </trkpt>
      <trkpt lat="42.39422700000002" lon="1.6154549999999994">
        <ele>1279.894</ele>
        <time>2022-08-18T19:19:24Z</time>
      </trkpt>
      <trkpt lat="42.394271000000025" lon="1.6154319999999993">
        <ele>1280.556</ele>
        <time>2022-08-18T19:19:30Z</time>
      </trkpt>
      <trkpt lat="42.39432000000002" lon="1.6154279999999994">
        <ele>1280.968</ele>
        <time>2022-08-18T19:19:33Z</time>
      </trkpt>
      <trkpt lat="42.39436300000002" lon="1.6154439999999994">
        <ele>1281.637</ele>
        <time>2022-08-18T19:19:36Z</time>
      </trkpt>
      <trkpt lat="42.39440700000002" lon="1.6154749999999993">
        <ele>1282.449</ele>
        <time>2022-08-18T19:19:39Z</time>
      </trkpt>
      <trkpt lat="42.394454000000025" lon="1.6155009999999994">
        <ele>1283.513</ele>
        <time>2022-08-18T19:19:43Z</time>
      </trkpt>
      <trkpt lat="42.39449200000003" lon="1.6154509999999993">
        <ele>1284.809</ele>
        <time>2022-08-18T19:19:47Z</time>
      </trkpt>
      <trkpt lat="42.39454000000003" lon="1.6154539999999993">
        <ele>1285.554</ele>
        <time>2022-08-18T19:19:51Z</time>
      </trkpt>
      <trkpt lat="42.394583000000026" lon="1.6154249999999992">
        <ele>1286.134</ele>
        <time>2022-08-18T19:19:56Z</time>
      </trkpt>
      <trkpt lat="42.39463500000002" lon="1.6153869999999992">
        <ele>1286.964</ele>
        <time>2022-08-18T19:20:02Z</time>
      </trkpt>
      <trkpt lat="42.394662000000025" lon="1.6153359999999992">
        <ele>1287.933</ele>
        <time>2022-08-18T19:20:07Z</time>
      </trkpt>
      <trkpt lat="42.39470900000003" lon="1.6153449999999991">
        <ele>1288.960</ele>
        <time>2022-08-18T19:20:12Z</time>
      </trkpt>
      <trkpt lat="42.39475100000003" lon="1.6153719999999991">
        <ele>1289.547</ele>
        <time>2022-08-18T19:20:16Z</time>
      </trkpt>
      <trkpt lat="42.39479500000003" lon="1.615388999999999">
        <ele>1290.623</ele>
        <time>2022-08-18T19:20:20Z</time>
      </trkpt>
      <trkpt lat="42.39483600000003" lon="1.615432999999999">
        <ele>1292.355</ele>
        <time>2022-08-18T19:20:28Z</time>
      </trkpt>
      <trkpt lat="42.394881000000034" lon="1.615461999999999">
        <ele>1293.437</ele>
        <time>2022-08-18T19:20:32Z</time>
      </trkpt>
      <trkpt lat="42.39492700000003" lon="1.6154309999999992">
        <ele>1294.759</ele>
        <time>2022-08-18T19:20:39Z</time>
      </trkpt>
      <trkpt lat="42.39497000000003" lon="1.6154109999999993">
        <ele>1296.003</ele>
        <time>2022-08-18T19:20:45Z</time>
      </trkpt>
      <trkpt lat="42.39501800000003" lon="1.6153869999999992">
        <ele>1297.523</ele>
        <time>2022-08-18T19:20:51Z</time>
      </trkpt>
      <trkpt lat="42.39500700000003" lon="1.6152939999999993">
        <ele>1299.809</ele>
        <time>2022-08-18T19:20:55Z</time>
      </trkpt>
      <trkpt lat="42.39502700000003" lon="1.6152219999999993">
        <ele>1300.776</ele>
        <time>2022-08-18T19:20:58Z</time>
      </trkpt>
      <trkpt lat="42.395031000000024" lon="1.6151389999999992">
        <ele>1302.046</ele>
        <time>2022-08-18T19:21:03Z</time>
      </trkpt>
      <trkpt lat="42.395051000000024" lon="1.6150839999999993">
        <ele>1303.516</ele>
        <time>2022-08-18T19:21:09Z</time>
      </trkpt>
      <trkpt lat="42.39504300000002" lon="1.6150229999999992">
        <ele>1304.235</ele>
        <time>2022-08-18T19:21:13Z</time>
      </trkpt>
      <trkpt lat="42.39508900000002" lon="1.6150559999999992">
        <ele>1304.932</ele>
        <time>2022-08-18T19:21:17Z</time>
      </trkpt>
      <trkpt lat="42.39513100000002" lon="1.6150799999999992">
        <ele>1305.339</ele>
        <time>2022-08-18T19:21:19Z</time>
      </trkpt>
      <trkpt lat="42.39517700000002" lon="1.6150909999999992">
        <ele>1305.825</ele>
        <time>2022-08-18T19:21:21Z</time>
      </trkpt>
      <trkpt lat="42.39522100000002" lon="1.6150779999999991">
        <ele>1306.257</ele>
        <time>2022-08-18T19:21:24Z</time>
      </trkpt>
      <trkpt lat="42.39525800000002" lon="1.615118999999999">
        <ele>1306.739</ele>
        <time>2022-08-18T19:21:27Z</time>
      </trkpt>
      <trkpt lat="42.39531500000002" lon="1.6151149999999992">
        <ele>1307.747</ele>
        <time>2022-08-18T19:21:32Z</time>
      </trkpt>
      <trkpt lat="42.395347000000015" lon="1.6150629999999992">
        <ele>1308.229</ele>
        <time>2022-08-18T19:21:35Z</time>
      </trkpt>
      <trkpt lat="42.39537100000002" lon="1.6149999999999993">
        <ele>1308.821</ele>
        <time>2022-08-18T19:21:39Z</time>
      </trkpt>
      <trkpt lat="42.39536500000002" lon="1.6149339999999994">
        <ele>1309.609</ele>
        <time>2022-08-18T19:21:44Z</time>
      </trkpt>
      <trkpt lat="42.39539200000002" lon="1.6148819999999995">
        <ele>1311.845</ele>
        <time>2022-08-18T19:22:00Z</time>
      </trkpt>
      <trkpt lat="42.39544300000002" lon="1.6148569999999995">
        <ele>1312.275</ele>
        <time>2022-08-18T19:22:02Z</time>
      </trkpt>
      <trkpt lat="42.39548600000002" lon="1.6148369999999996">
        <ele>1312.775</ele>
        <time>2022-08-18T19:22:05Z</time>
      </trkpt>
      <trkpt lat="42.39553300000002" lon="1.6148409999999995">
        <ele>1312.934</ele>
        <time>2022-08-18T19:22:08Z</time>
      </trkpt>
      <trkpt lat="42.39558400000002" lon="1.6148349999999996">
        <ele>1313.231</ele>
        <time>2022-08-18T19:22:14Z</time>
      </trkpt>
      <trkpt lat="42.39563500000002" lon="1.6148399999999996">
        <ele>1314.138</ele>
        <time>2022-08-18T19:22:20Z</time>
      </trkpt>
      <trkpt lat="42.39566800000002" lon="1.6147589999999996">
        <ele>1315.994</ele>
        <time>2022-08-18T19:22:25Z</time>
      </trkpt>
      <trkpt lat="42.39567200000002" lon="1.6146889999999996">
        <ele>1316.546</ele>
        <time>2022-08-18T19:22:27Z</time>
      </trkpt>
      <trkpt lat="42.39570100000002" lon="1.6146389999999995">
        <ele>1317.428</ele>
        <time>2022-08-18T19:22:32Z</time>
      </trkpt>
      <trkpt lat="42.39574500000002" lon="1.6146229999999995">
        <ele>1318.344</ele>
        <time>2022-08-18T19:22:39Z</time>
      </trkpt>
      <trkpt lat="42.39579800000002" lon="1.6146119999999995">
        <ele>1319.305</ele>
        <time>2022-08-18T19:22:43Z</time>
      </trkpt>
      <trkpt lat="42.39583400000002" lon="1.6145699999999994">
        <ele>1320.215</ele>
        <time>2022-08-18T19:22:49Z</time>
      </trkpt>
      <trkpt lat="42.395864000000024" lon="1.6145179999999995">
        <ele>1320.909</ele>
        <time>2022-08-18T19:22:53Z</time>
      </trkpt>
      <trkpt lat="42.395914000000026" lon="1.6145109999999994">
        <ele>1322.125</ele>
        <time>2022-08-18T19:22:59Z</time>
      </trkpt>
      <trkpt lat="42.39596100000003" lon="1.6145159999999994">
        <ele>1323.135</ele>
        <time>2022-08-18T19:23:03Z</time>
      </trkpt>
      <trkpt lat="42.39599800000003" lon="1.6144769999999995">
        <ele>1323.815</ele>
        <time>2022-08-18T19:23:07Z</time>
      </trkpt>
      <trkpt lat="42.395999000000025" lon="1.6144129999999994">
        <ele>1324.334</ele>
        <time>2022-08-18T19:23:10Z</time>
      </trkpt>
      <trkpt lat="42.39599100000002" lon="1.6143429999999994">
        <ele>1325.381</ele>
        <time>2022-08-18T19:23:15Z</time>
      </trkpt>
      <trkpt lat="42.396035000000026" lon="1.6143219999999994">
        <ele>1326.778</ele>
        <time>2022-08-18T19:23:20Z</time>
      </trkpt>
      <trkpt lat="42.39608800000003" lon="1.6143029999999994">
        <ele>1327.624</ele>
        <time>2022-08-18T19:23:26Z</time>
      </trkpt>
      <trkpt lat="42.396120000000025" lon="1.6142439999999993">
        <ele>1328.436</ele>
        <time>2022-08-18T19:23:31Z</time>
      </trkpt>
      <trkpt lat="42.396168000000024" lon="1.6142209999999992">
        <ele>1329.338</ele>
        <time>2022-08-18T19:23:37Z</time>
      </trkpt>
      <trkpt lat="42.396193000000025" lon="1.6141509999999992">
        <ele>1330.542</ele>
        <time>2022-08-18T19:23:43Z</time>
      </trkpt>
      <trkpt lat="42.396246000000026" lon="1.6142469999999993">
        <ele>1332.122</ele>
        <time>2022-08-18T19:23:47Z</time>
      </trkpt>
      <trkpt lat="42.396291000000026" lon="1.6142239999999992">
        <ele>1334.714</ele>
        <time>2022-08-18T19:23:53Z</time>
      </trkpt>
      <trkpt lat="42.39633000000003" lon="1.6141759999999992">
        <ele>1335.109</ele>
        <time>2022-08-18T19:23:56Z</time>
      </trkpt>
      <trkpt lat="42.396353000000026" lon="1.6141109999999992">
        <ele>1335.775</ele>
        <time>2022-08-18T19:24:01Z</time>
      </trkpt>
      <trkpt lat="42.39637100000002" lon="1.6140439999999991">
        <ele>1336.455</ele>
        <time>2022-08-18T19:24:07Z</time>
      </trkpt>
      <trkpt lat="42.39638600000002" lon="1.6139809999999992">
        <ele>1337.235</ele>
        <time>2022-08-18T19:24:13Z</time>
      </trkpt>
      <trkpt lat="42.396430000000024" lon="1.6139579999999991">
        <ele>1337.734</ele>
        <time>2022-08-18T19:24:15Z</time>
      </trkpt>
      <trkpt lat="42.39644500000002" lon="1.613898999999999">
        <ele>1338.211</ele>
        <time>2022-08-18T19:24:17Z</time>
      </trkpt>
      <trkpt lat="42.39646500000002" lon="1.6138139999999992">
        <ele>1338.828</ele>
        <time>2022-08-18T19:24:20Z</time>
      </trkpt>
      <trkpt lat="42.39651000000002" lon="1.6138059999999992">
        <ele>1339.654</ele>
        <time>2022-08-18T19:24:26Z</time>
      </trkpt>
      <trkpt lat="42.396548000000024" lon="1.6137619999999993">
        <ele>1340.756</ele>
        <time>2022-08-18T19:24:32Z</time>
      </trkpt>
      <trkpt lat="42.396593000000024" lon="1.6137519999999992">
        <ele>1341.188</ele>
        <time>2022-08-18T19:24:37Z</time>
      </trkpt>
      <trkpt lat="42.39662000000003" lon="1.6136859999999993">
        <ele>1341.726</ele>
        <time>2022-08-18T19:24:41Z</time>
      </trkpt>
      <trkpt lat="42.396663000000025" lon="1.6136569999999992">
        <ele>1342.247</ele>
        <time>2022-08-18T19:24:45Z</time>
      </trkpt>
      <trkpt lat="42.39670400000003" lon="1.6136289999999993">
        <ele>1343.111</ele>
        <time>2022-08-18T19:24:49Z</time>
      </trkpt>
      <trkpt lat="42.396677000000025" lon="1.6135779999999993">
        <ele>1343.609</ele>
        <time>2022-08-18T19:24:52Z</time>
      </trkpt>
      <trkpt lat="42.396677000000025" lon="1.6135169999999992">
        <ele>1344.753</ele>
        <time>2022-08-18T19:24:57Z</time>
      </trkpt>
      <trkpt lat="42.396694000000025" lon="1.6134549999999992">
        <ele>1345.313</ele>
        <time>2022-08-18T19:25:03Z</time>
      </trkpt>
      <trkpt lat="42.39671200000002" lon="1.6133929999999992">
        <ele>1346.453</ele>
        <time>2022-08-18T19:25:09Z</time>
      </trkpt>
      <trkpt lat="42.396787000000025" lon="1.6133839999999993">
        <ele>1347.162</ele>
        <time>2022-08-18T19:25:12Z</time>
      </trkpt>
      <trkpt lat="42.396840000000026" lon="1.6133879999999992">
        <ele>1348.159</ele>
        <time>2022-08-18T19:25:14Z</time>
      </trkpt>
      <trkpt lat="42.39689600000003" lon="1.613380999999999">
        <ele>1349.266</ele>
        <time>2022-08-18T19:25:17Z</time>
      </trkpt>
      <trkpt lat="42.39694300000003" lon="1.613373999999999">
        <ele>1350.552</ele>
        <time>2022-08-18T19:25:22Z</time>
      </trkpt>
      <trkpt lat="42.39699300000003" lon="1.613384999999999">
        <ele>1351.684</ele>
        <time>2022-08-18T19:25:28Z</time>
      </trkpt>
      <trkpt lat="42.39704100000003" lon="1.6133939999999989">
        <ele>1352.356</ele>
        <time>2022-08-18T19:25:34Z</time>
      </trkpt>
      <trkpt lat="42.39708400000003" lon="1.613416999999999">
        <ele>1353.122</ele>
        <time>2022-08-18T19:25:41Z</time>
      </trkpt>
      <trkpt lat="42.397102000000025" lon="1.613133999999999">
        <ele>1353.962</ele>
        <time>2022-08-18T19:25:46Z</time>
      </trkpt>
      <trkpt lat="42.39715200000003" lon="1.613116999999999">
        <ele>1357.308</ele>
        <time>2022-08-18T19:25:55Z</time>
      </trkpt>
      <trkpt lat="42.397201000000024" lon="1.613103999999999">
        <ele>1357.909</ele>
        <time>2022-08-18T19:26:01Z</time>
      </trkpt>
      <trkpt lat="42.39724900000002" lon="1.6130889999999989">
        <ele>1358.483</ele>
        <time>2022-08-18T19:26:07Z</time>
      </trkpt>
      <trkpt lat="42.397282000000025" lon="1.6130009999999988">
        <ele>1358.923</ele>
        <time>2022-08-18T19:26:13Z</time>
      </trkpt>
      <trkpt lat="42.39726100000003" lon="1.6129459999999989">
        <ele>1359.233</ele>
        <time>2022-08-18T19:26:16Z</time>
      </trkpt>
      <trkpt lat="42.39721800000003" lon="1.612898999999999">
        <ele>1360.232</ele>
        <time>2022-08-18T19:26:20Z</time>
      </trkpt>
      <trkpt lat="42.39717500000003" lon="1.612871999999999">
        <ele>1360.989</ele>
        <time>2022-08-18T19:26:23Z</time>
      </trkpt>
      <trkpt lat="42.397135000000034" lon="1.612836999999999">
        <ele>1361.516</ele>
        <time>2022-08-18T19:26:26Z</time>
      </trkpt>
      <trkpt lat="42.39716700000003" lon="1.612791999999999">
        <ele>1361.642</ele>
        <time>2022-08-18T19:26:38Z</time>
      </trkpt>
      <trkpt lat="42.39716700000003" lon="1.612726999999999">
        <ele>1361.774</ele>
        <time>2022-08-18T19:26:44Z</time>
      </trkpt>
      <trkpt lat="42.397149000000034" lon="1.6126629999999988">
        <ele>1361.886</ele>
        <time>2022-08-18T19:26:51Z</time>
      </trkpt>
      <trkpt lat="42.397129000000035" lon="1.6125939999999988">
        <ele>1361.864</ele>
        <time>2022-08-18T19:26:57Z</time>
      </trkpt>
      <trkpt lat="42.397078000000036" lon="1.6125609999999988">
        <ele>1362.206</ele>
        <time>2022-08-18T19:27:02Z</time>
      </trkpt>
      <trkpt lat="42.397028000000034" lon="1.6125829999999988">
        <ele>1362.916</ele>
        <time>2022-08-18T19:27:04Z</time>
      </trkpt>
      <trkpt lat="42.39697000000003" lon="1.6125979999999989">
        <ele>1364.009</ele>
        <time>2022-08-18T19:27:08Z</time>
      </trkpt>
      <trkpt lat="42.39692300000003" lon="1.612615999999999">
        <ele>1365.267</ele>
        <time>2022-08-18T19:27:12Z</time>
      </trkpt>
      <trkpt lat="42.39687900000003" lon="1.612628999999999">
        <ele>1365.867</ele>
        <time>2022-08-18T19:27:17Z</time>
      </trkpt>
      <trkpt lat="42.39683400000003" lon="1.612635999999999">
        <ele>1366.547</ele>
        <time>2022-08-18T19:27:21Z</time>
      </trkpt>
      <trkpt lat="42.39678600000003" lon="1.612597999999999">
        <ele>1366.996</ele>
        <time>2022-08-18T19:27:24Z</time>
      </trkpt>
      <trkpt lat="42.39675400000003" lon="1.6125539999999992">
        <ele>1367.313</ele>
        <time>2022-08-18T19:27:26Z</time>
      </trkpt>
      <trkpt lat="42.39672900000003" lon="1.6124889999999992">
        <ele>1369.710</ele>
        <time>2022-08-18T19:28:03Z</time>
      </trkpt>
      <trkpt lat="42.39653800000003" lon="1.6122669999999992">
        <ele>1369.886</ele>
        <time>2022-08-18T19:28:24Z</time>
      </trkpt>
      <trkpt lat="42.396480000000025" lon="1.6123059999999991">
        <ele>1374.368</ele>
        <time>2022-08-18T19:28:26Z</time>
      </trkpt>
      <trkpt lat="42.39646100000002" lon="1.612241999999999">
        <ele>1374.880</ele>
        <time>2022-08-18T19:28:31Z</time>
      </trkpt>
      <trkpt lat="42.39644200000002" lon="1.612173999999999">
        <ele>1375.377</ele>
        <time>2022-08-18T19:28:36Z</time>
      </trkpt>
      <trkpt lat="42.396435000000025" lon="1.612103999999999">
        <ele>1375.661</ele>
        <time>2022-08-18T19:28:42Z</time>
      </trkpt>
      <trkpt lat="42.39639700000002" lon="1.612061999999999">
        <ele>1375.827</ele>
        <time>2022-08-18T19:28:48Z</time>
      </trkpt>
      <trkpt lat="42.39637000000002" lon="1.612000999999999">
        <ele>1376.309</ele>
        <time>2022-08-18T19:28:54Z</time>
      </trkpt>
      <trkpt lat="42.396360000000016" lon="1.611940999999999">
        <ele>1377.088</ele>
        <time>2022-08-18T19:28:59Z</time>
      </trkpt>
      <trkpt lat="42.39634200000002" lon="1.611883999999999">
        <ele>1378.138</ele>
        <time>2022-08-18T19:29:04Z</time>
      </trkpt>
      <trkpt lat="42.396318000000015" lon="1.611826999999999">
        <ele>1378.458</ele>
        <time>2022-08-18T19:29:09Z</time>
      </trkpt>
      <trkpt lat="42.39636500000002" lon="1.611818999999999">
        <ele>1380.217</ele>
        <time>2022-08-18T19:29:16Z</time>
      </trkpt>
      <trkpt lat="42.39630600000002" lon="1.611843999999999">
        <ele>1381.564</ele>
        <time>2022-08-18T19:29:19Z</time>
      </trkpt>
      <trkpt lat="42.396265000000014" lon="1.611800999999999">
        <ele>1382.611</ele>
        <time>2022-08-18T19:29:21Z</time>
      </trkpt>
      <trkpt lat="42.396217000000014" lon="1.6117589999999988">
        <ele>1383.847</ele>
        <time>2022-08-18T19:29:24Z</time>
      </trkpt>
      <trkpt lat="42.39617600000001" lon="1.6117209999999988">
        <ele>1384.429</ele>
        <time>2022-08-18T19:29:28Z</time>
      </trkpt>
      <trkpt lat="42.39614600000001" lon="1.6116699999999988">
        <ele>1384.721</ele>
        <time>2022-08-18T19:29:33Z</time>
      </trkpt>
      <trkpt lat="42.39613000000001" lon="1.6115809999999988">
        <ele>1385.277</ele>
        <time>2022-08-18T19:29:38Z</time>
      </trkpt>
      <trkpt lat="42.39609800000001" lon="1.6115209999999989">
        <ele>1385.661</ele>
        <time>2022-08-18T19:29:41Z</time>
      </trkpt>
      <trkpt lat="42.39605800000001" lon="1.6114809999999988">
        <ele>1385.927</ele>
        <time>2022-08-18T19:29:44Z</time>
      </trkpt>
      <trkpt lat="42.39602500000001" lon="1.6114279999999988">
        <ele>1386.309</ele>
        <time>2022-08-18T19:29:50Z</time>
      </trkpt>
      <trkpt lat="42.39600500000001" lon="1.6113639999999987">
        <ele>1386.838</ele>
        <time>2022-08-18T19:29:56Z</time>
      </trkpt>
      <trkpt lat="42.39600000000001" lon="1.6112969999999986">
        <ele>1388.168</ele>
        <time>2022-08-18T19:30:02Z</time>
      </trkpt>
      <trkpt lat="42.39600000000001" lon="1.6112309999999987">
        <ele>1388.628</ele>
        <time>2022-08-18T19:30:08Z</time>
      </trkpt>
      <trkpt lat="42.39595700000001" lon="1.6112059999999988">
        <ele>1389.467</ele>
        <time>2022-08-18T19:30:16Z</time>
      </trkpt>
      <trkpt lat="42.39593200000001" lon="1.6111419999999987">
        <ele>1390.234</ele>
        <time>2022-08-18T19:30:19Z</time>
      </trkpt>
      <trkpt lat="42.39588400000001" lon="1.6111059999999988">
        <ele>1391.021</ele>
        <time>2022-08-18T19:30:23Z</time>
      </trkpt>
      <trkpt lat="42.395843000000006" lon="1.6110659999999988">
        <ele>1391.877</ele>
        <time>2022-08-18T19:30:28Z</time>
      </trkpt>
      <trkpt lat="42.395804000000005" lon="1.6110229999999988">
        <ele>1392.489</ele>
        <time>2022-08-18T19:30:34Z</time>
      </trkpt>
      <trkpt lat="42.39576400000001" lon="1.6109819999999988">
        <ele>1392.971</ele>
        <time>2022-08-18T19:30:40Z</time>
      </trkpt>
      <trkpt lat="42.395742000000006" lon="1.610915999999999">
        <ele>1393.475</ele>
        <time>2022-08-18T19:30:46Z</time>
      </trkpt>
      <trkpt lat="42.39575000000001" lon="1.610853999999999">
        <ele>1393.628</ele>
        <time>2022-08-18T19:30:51Z</time>
      </trkpt>
      <trkpt lat="42.39573800000001" lon="1.610793999999999">
        <ele>1393.820</ele>
        <time>2022-08-18T19:30:56Z</time>
      </trkpt>
      <trkpt lat="42.395722000000006" lon="1.610730999999999">
        <ele>1394.009</ele>
        <time>2022-08-18T19:31:01Z</time>
      </trkpt>
      <trkpt lat="42.39570700000001" lon="1.610670999999999">
        <ele>1394.548</ele>
        <time>2022-08-18T19:31:06Z</time>
      </trkpt>
      <trkpt lat="42.39571300000001" lon="1.610594999999999">
        <ele>1395.288</ele>
        <time>2022-08-18T19:31:12Z</time>
      </trkpt>
      <trkpt lat="42.39573800000001" lon="1.6105239999999992">
        <ele>1395.838</ele>
        <time>2022-08-18T19:31:17Z</time>
      </trkpt>
      <trkpt lat="42.395770000000006" lon="1.6104659999999993">
        <ele>1396.727</ele>
        <time>2022-08-18T19:31:21Z</time>
      </trkpt>
      <trkpt lat="42.395801000000006" lon="1.6104039999999993">
        <ele>1397.944</ele>
        <time>2022-08-18T19:31:26Z</time>
      </trkpt>
      <trkpt lat="42.395813000000004" lon="1.6103399999999992">
        <ele>1399.121</ele>
        <time>2022-08-18T19:31:31Z</time>
      </trkpt>
      <trkpt lat="42.395767000000006" lon="1.6102919999999992">
        <ele>1400.067</ele>
        <time>2022-08-18T19:31:36Z</time>
      </trkpt>
      <trkpt lat="42.39575500000001" lon="1.6102239999999992">
        <ele>1401.169</ele>
        <time>2022-08-18T19:31:41Z</time>
      </trkpt>
      <trkpt lat="42.39569900000001" lon="1.6101799999999993">
        <ele>1401.441</ele>
        <time>2022-08-18T19:31:45Z</time>
      </trkpt>
      <trkpt lat="42.39564700000001" lon="1.6101529999999993">
        <ele>1401.632</ele>
        <time>2022-08-18T19:31:48Z</time>
      </trkpt>
      <trkpt lat="42.39561100000001" lon="1.6101009999999993">
        <ele>1401.792</ele>
        <time>2022-08-18T19:31:53Z</time>
      </trkpt>
      <trkpt lat="42.39563800000001" lon="1.6100479999999993">
        <ele>1402.111</ele>
        <time>2022-08-18T19:31:57Z</time>
      </trkpt>
      <trkpt lat="42.39565600000001" lon="1.6099899999999994">
        <ele>1403.309</ele>
        <time>2022-08-18T19:32:03Z</time>
      </trkpt>
      <trkpt lat="42.39560600000001" lon="1.6099679999999994">
        <ele>1403.944</ele>
        <time>2022-08-18T19:32:08Z</time>
      </trkpt>
      <trkpt lat="42.39558400000001" lon="1.6099069999999993">
        <ele>1404.814</ele>
        <time>2022-08-18T19:32:15Z</time>
      </trkpt>
      <trkpt lat="42.39556400000001" lon="1.6098529999999993">
        <ele>1405.754</ele>
        <time>2022-08-18T19:32:20Z</time>
      </trkpt>
      <trkpt lat="42.39553500000001" lon="1.6098059999999994">
        <ele>1406.663</ele>
        <time>2022-08-18T19:32:25Z</time>
      </trkpt>
      <trkpt lat="42.39553900000001" lon="1.6097399999999995">
        <ele>1407.370</ele>
        <time>2022-08-18T19:32:30Z</time>
      </trkpt>
      <trkpt lat="42.395574" lon="1.6096769999999996">
        <ele>1408.427</ele>
        <time>2022-08-18T19:32:34Z</time>
      </trkpt>
      <trkpt lat="42.395616000000004" lon="1.6096399999999995">
        <ele>1409.273</ele>
        <time>2022-08-18T19:32:37Z</time>
      </trkpt>
      <trkpt lat="42.395659" lon="1.6096039999999996">
        <ele>1410.445</ele>
        <time>2022-08-18T19:32:40Z</time>
      </trkpt>
      <trkpt lat="42.395687" lon="1.6095539999999995">
        <ele>1411.597</ele>
        <time>2022-08-18T19:32:44Z</time>
      </trkpt>
      <trkpt lat="42.395721" lon="1.6094969999999995">
        <ele>1413.043</ele>
        <time>2022-08-18T19:32:51Z</time>
      </trkpt>
      <trkpt lat="42.39575" lon="1.6094429999999995">
        <ele>1414.064</ele>
        <time>2022-08-18T19:32:56Z</time>
      </trkpt>
      <trkpt lat="42.395779" lon="1.6093859999999995">
        <ele>1418.010</ele>
        <time>2022-08-18T19:33:20Z</time>
      </trkpt>
      <trkpt lat="42.395807999999995" lon="1.6093389999999996">
        <ele>1418.509</ele>
        <time>2022-08-18T19:33:24Z</time>
      </trkpt>
      <trkpt lat="42.395757999999994" lon="1.6093599999999997">
        <ele>1419.125</ele>
        <time>2022-08-18T19:33:28Z</time>
      </trkpt>
      <trkpt lat="42.395703999999995" lon="1.6094079999999997">
        <ele>1419.345</ele>
        <time>2022-08-18T19:33:30Z</time>
      </trkpt>
      <trkpt lat="42.39563499999999" lon="1.6094519999999997">
        <ele>1418.685</ele>
        <time>2022-08-18T19:34:04Z</time>
      </trkpt>
      <trkpt lat="42.39559699999999" lon="1.6094189999999997">
        <ele>1418.674</ele>
        <time>2022-08-18T19:34:08Z</time>
      </trkpt>
      <trkpt lat="42.39555499999999" lon="1.6093769999999996">
        <ele>1418.691</ele>
        <time>2022-08-18T19:34:13Z</time>
      </trkpt>
      <trkpt lat="42.395507999999985" lon="1.6093859999999995">
        <ele>1418.628</ele>
        <time>2022-08-18T19:34:16Z</time>
      </trkpt>
      <trkpt lat="42.39545599999999" lon="1.6093809999999995">
        <ele>1418.634</ele>
        <time>2022-08-18T19:34:21Z</time>
      </trkpt>
      <trkpt lat="42.39540199999999" lon="1.6093509999999995">
        <ele>1418.626</ele>
        <time>2022-08-18T19:34:27Z</time>
      </trkpt>
      <trkpt lat="42.39533899999999" lon="1.6093989999999996">
        <ele>1418.998</ele>
        <time>2022-08-18T19:34:30Z</time>
      </trkpt>
      <trkpt lat="42.39526999999999" lon="1.6094309999999996">
        <ele>1419.167</ele>
        <time>2022-08-18T19:34:34Z</time>
      </trkpt>
      <trkpt lat="42.39522499999999" lon="1.6094459999999997">
        <ele>1419.281</ele>
        <time>2022-08-18T19:34:37Z</time>
      </trkpt>
      <trkpt lat="42.39517499999999" lon="1.6094269999999997">
        <ele>1419.419</ele>
        <time>2022-08-18T19:34:43Z</time>
      </trkpt>
      <trkpt lat="42.39519399999999" lon="1.6093619999999997">
        <ele>1419.709</ele>
        <time>2022-08-18T19:34:50Z</time>
      </trkpt>
      <trkpt lat="42.39520699999999" lon="1.6093029999999997">
        <ele>1420.147</ele>
        <time>2022-08-18T19:34:55Z</time>
      </trkpt>
      <trkpt lat="42.395205999999995" lon="1.6092369999999998">
        <ele>1421.037</ele>
        <time>2022-08-18T19:35:01Z</time>
      </trkpt>
      <trkpt lat="42.395205999999995" lon="1.6091679999999997">
        <ele>1422.027</ele>
        <time>2022-08-18T19:35:07Z</time>
      </trkpt>
      <trkpt lat="42.395239" lon="1.6091179999999996">
        <ele>1422.856</ele>
        <time>2022-08-18T19:35:10Z</time>
      </trkpt>
      <trkpt lat="42.395213" lon="1.6090579999999997">
        <ele>1425.863</ele>
        <time>2022-08-18T19:37:39Z</time>
      </trkpt>
      <trkpt lat="42.395212" lon="1.6089889999999996">
        <ele>1425.880</ele>
        <time>2022-08-18T19:37:45Z</time>
      </trkpt>
      <trkpt lat="42.395257" lon="1.6089719999999996">
        <ele>1425.826</ele>
        <time>2022-08-18T19:37:50Z</time>
      </trkpt>
      <trkpt lat="42.395308" lon="1.6089669999999996">
        <ele>1425.868</ele>
        <time>2022-08-18T19:37:53Z</time>
      </trkpt>
      <trkpt lat="42.395355" lon="1.6089649999999995">
        <ele>1425.870</ele>
        <time>2022-08-18T19:37:56Z</time>
      </trkpt>
      <trkpt lat="42.395411" lon="1.6089589999999996">
        <ele>1428.261</ele>
        <time>2022-08-18T19:38:01Z</time>
      </trkpt>
      <trkpt lat="42.395463" lon="1.6089739999999997">
        <ele>1428.921</ele>
        <time>2022-08-18T19:38:05Z</time>
      </trkpt>
      <trkpt lat="42.395514" lon="1.6089879999999996">
        <ele>1430.613</ele>
        <time>2022-08-18T19:38:16Z</time>
      </trkpt>
      <trkpt lat="42.395485" lon="1.6089349999999996">
        <ele>1430.909</ele>
        <time>2022-08-18T19:38:23Z</time>
      </trkpt>
      <trkpt lat="42.395494" lon="1.6088639999999996">
        <ele>1431.427</ele>
        <time>2022-08-18T19:38:52Z</time>
      </trkpt>
      <trkpt lat="42.39546" lon="1.6088239999999996">
        <ele>1431.657</ele>
        <time>2022-08-18T19:39:17Z</time>
      </trkpt>
      <trkpt lat="42.395406" lon="1.6088139999999995">
        <ele>1431.967</ele>
        <time>2022-08-18T19:39:21Z</time>
      </trkpt>
      <trkpt lat="42.395360000000004" lon="1.6087859999999996">
        <ele>1432.646</ele>
        <time>2022-08-18T19:39:25Z</time>
      </trkpt>
      <trkpt lat="42.395309000000005" lon="1.6087719999999996">
        <ele>1432.643</ele>
        <time>2022-08-18T19:39:29Z</time>
      </trkpt>
      <trkpt lat="42.395255000000006" lon="1.6087769999999997">
        <ele>1432.690</ele>
        <time>2022-08-18T19:39:32Z</time>
      </trkpt>
      <trkpt lat="42.395222000000004" lon="1.6087169999999997">
        <ele>1432.996</ele>
        <time>2022-08-18T19:39:36Z</time>
      </trkpt>
      <trkpt lat="42.395175" lon="1.6086869999999998">
        <ele>1432.978</ele>
        <time>2022-08-18T19:39:40Z</time>
      </trkpt>
      <trkpt lat="42.395118000000004" lon="1.6086789999999997">
        <ele>1432.720</ele>
        <time>2022-08-18T19:39:47Z</time>
      </trkpt>
      <trkpt lat="42.395084000000004" lon="1.6086219999999998">
        <ele>1432.732</ele>
        <time>2022-08-18T19:39:52Z</time>
      </trkpt>
      <trkpt lat="42.395065" lon="1.6085599999999998">
        <ele>1432.892</ele>
        <time>2022-08-18T19:39:58Z</time>
      </trkpt>
      <trkpt lat="42.395024" lon="1.6085179999999997">
        <ele>1434.111</ele>
        <time>2022-08-18T19:40:10Z</time>
      </trkpt>
      <trkpt lat="42.395001" lon="1.6084549999999997">
        <ele>1434.709</ele>
        <time>2022-08-18T19:40:18Z</time>
      </trkpt>
      <trkpt lat="42.394948" lon="1.6084629999999998">
        <ele>1435.234</ele>
        <time>2022-08-18T19:40:26Z</time>
      </trkpt>
      <trkpt lat="42.394899" lon="1.6084439999999998">
        <ele>1435.684</ele>
        <time>2022-08-18T19:40:30Z</time>
      </trkpt>
      <trkpt lat="42.394859000000004" lon="1.6084099999999997">
        <ele>1436.634</ele>
        <time>2022-08-18T19:40:39Z</time>
      </trkpt>
      <trkpt lat="42.394811000000004" lon="1.6083849999999997">
        <ele>1437.313</ele>
        <time>2022-08-18T19:40:44Z</time>
      </trkpt>
      <trkpt lat="42.394781" lon="1.6083289999999997">
        <ele>1438.260</ele>
        <time>2022-08-18T19:40:49Z</time>
      </trkpt>
      <trkpt lat="42.394737" lon="1.6082809999999996">
        <ele>1438.557</ele>
        <time>2022-08-18T19:40:54Z</time>
      </trkpt>
      <trkpt lat="42.394712999999996" lon="1.6082219999999996">
        <ele>1439.023</ele>
        <time>2022-08-18T19:40:59Z</time>
      </trkpt>
      <trkpt lat="42.39474799999999" lon="1.6081769999999995">
        <ele>1440.075</ele>
        <time>2022-08-18T19:41:09Z</time>
      </trkpt>
      <trkpt lat="42.39477099999999" lon="1.6081179999999995">
        <ele>1441.227</ele>
        <time>2022-08-18T19:41:17Z</time>
      </trkpt>
      <trkpt lat="42.39479099999999" lon="1.6080599999999996">
        <ele>1442.488</ele>
        <time>2022-08-18T19:41:22Z</time>
      </trkpt>
      <trkpt lat="42.39479899999999" lon="1.6079949999999996">
        <ele>1443.024</ele>
        <time>2022-08-18T19:41:28Z</time>
      </trkpt>
      <trkpt lat="42.39480699999999" lon="1.6079309999999996">
        <ele>1443.526</ele>
        <time>2022-08-18T19:41:34Z</time>
      </trkpt>
      <trkpt lat="42.395044999999996" lon="1.6080249999999996">
        <ele>1444.509</ele>
        <time>2022-08-18T19:41:39Z</time>
      </trkpt>
      <trkpt lat="42.395092" lon="1.6080359999999996">
        <ele>1450.389</ele>
        <time>2022-08-18T19:41:55Z</time>
      </trkpt>
      <trkpt lat="42.395122" lon="1.6079869999999996">
        <ele>1450.989</ele>
        <time>2022-08-18T19:42:00Z</time>
      </trkpt>
      <trkpt lat="42.395174" lon="1.6079779999999997">
        <ele>1451.749</ele>
        <time>2022-08-18T19:42:06Z</time>
      </trkpt>
      <trkpt lat="42.395204" lon="1.6079239999999997">
        <ele>1452.618</ele>
        <time>2022-08-18T19:42:12Z</time>
      </trkpt>
      <trkpt lat="42.395234" lon="1.6078759999999996">
        <ele>1454.175</ele>
        <time>2022-08-18T19:42:19Z</time>
      </trkpt>
      <trkpt lat="42.395261000000005" lon="1.6078159999999997">
        <ele>1456.312</ele>
        <time>2022-08-18T19:42:26Z</time>
      </trkpt>
      <trkpt lat="42.395295000000004" lon="1.6077709999999996">
        <ele>1457.368</ele>
        <time>2022-08-18T19:42:33Z</time>
      </trkpt>
      <trkpt lat="42.395327" lon="1.6077199999999996">
        <ele>1458.150</ele>
        <time>2022-08-18T19:42:38Z</time>
      </trkpt>
      <trkpt lat="42.395363" lon="1.6076789999999996">
        <ele>1459.372</ele>
        <time>2022-08-18T19:42:43Z</time>
      </trkpt>
      <trkpt lat="42.3954" lon="1.6076299999999997">
        <ele>1460.778</ele>
        <time>2022-08-18T19:42:48Z</time>
      </trkpt>
      <trkpt lat="42.395443" lon="1.6076019999999998">
        <ele>1462.033</ele>
        <time>2022-08-18T19:42:53Z</time>
      </trkpt>
      <trkpt lat="42.395495" lon="1.6075949999999997">
        <ele>1463.026</ele>
        <time>2022-08-18T19:42:58Z</time>
      </trkpt>
      <trkpt lat="42.395542" lon="1.6075569999999997">
        <ele>1464.009</ele>
        <time>2022-08-18T19:43:02Z</time>
      </trkpt>
      <trkpt lat="42.395586" lon="1.6075259999999998">
        <ele>1464.538</ele>
        <time>2022-08-18T19:43:07Z</time>
      </trkpt>
      <trkpt lat="42.395632" lon="1.6074929999999998">
        <ele>1464.598</ele>
        <time>2022-08-18T19:43:11Z</time>
      </trkpt>
      <trkpt lat="42.395680999999996" lon="1.6074639999999998">
        <ele>1464.528</ele>
        <time>2022-08-18T19:43:15Z</time>
      </trkpt>
      <trkpt lat="42.39571599999999" lon="1.6074229999999998">
        <ele>1464.737</ele>
        <time>2022-08-18T19:43:19Z</time>
      </trkpt>
      <trkpt lat="42.395756999999996" lon="1.6073929999999998">
        <ele>1465.184</ele>
        <time>2022-08-18T19:43:23Z</time>
      </trkpt>
      <trkpt lat="42.395802999999994" lon="1.607365">
        <ele>1465.541</ele>
        <time>2022-08-18T19:43:27Z</time>
      </trkpt>
      <trkpt lat="42.395847999999994" lon="1.607332">
        <ele>1466.027</ele>
        <time>2022-08-18T19:43:31Z</time>
      </trkpt>
      <trkpt lat="42.395889999999994" lon="1.607294">
        <ele>1466.679</ele>
        <time>2022-08-18T19:43:35Z</time>
      </trkpt>
      <trkpt lat="42.395925999999996" lon="1.607243">
        <ele>1467.241</ele>
        <time>2022-08-18T19:43:39Z</time>
      </trkpt>
      <trkpt lat="42.395965" lon="1.607208">
        <ele>1467.765</ele>
        <time>2022-08-18T19:43:43Z</time>
      </trkpt>
      <trkpt lat="42.396001999999996" lon="1.607168">
        <ele>1468.368</ele>
        <time>2022-08-18T19:43:49Z</time>
      </trkpt>
      <trkpt lat="42.396055" lon="1.6071469999999999">
        <ele>1468.714</ele>
        <time>2022-08-18T19:43:53Z</time>
      </trkpt>
      <trkpt lat="42.396097999999995" lon="1.6071239999999998">
        <ele>1469.209</ele>
        <time>2022-08-18T19:43:57Z</time>
      </trkpt>
      <trkpt lat="42.396131999999994" lon="1.6070749999999998">
        <ele>1469.787</ele>
        <time>2022-08-18T19:44:01Z</time>
      </trkpt>
      <trkpt lat="42.396086" lon="1.6070479999999998">
        <ele>1470.457</ele>
        <time>2022-08-18T19:44:10Z</time>
      </trkpt>
      <trkpt lat="42.396037" lon="1.6070409999999997">
        <ele>1471.187</ele>
        <time>2022-08-18T19:44:16Z</time>
      </trkpt>
      <trkpt lat="42.395991" lon="1.6070489999999997">
        <ele>1471.976</ele>
        <time>2022-08-18T19:44:21Z</time>
      </trkpt>
      <trkpt lat="42.395939000000006" lon="1.6070229999999996">
        <ele>1472.563</ele>
        <time>2022-08-18T19:44:26Z</time>
      </trkpt>
      <trkpt lat="42.395891000000006" lon="1.6070019999999996">
        <ele>1472.760</ele>
        <time>2022-08-18T19:44:30Z</time>
      </trkpt>
      <trkpt lat="42.395838000000005" lon="1.6070189999999995">
        <ele>1472.956</ele>
        <time>2022-08-18T19:44:35Z</time>
      </trkpt>
      <trkpt lat="42.395784000000006" lon="1.6070169999999995">
        <ele>1473.148</ele>
        <time>2022-08-18T19:44:40Z</time>
      </trkpt>
      <trkpt lat="42.395739000000006" lon="1.6070089999999995">
        <ele>1473.570</ele>
        <time>2022-08-18T19:44:44Z</time>
      </trkpt>
      <trkpt lat="42.39568800000001" lon="1.6070079999999995">
        <ele>1474.578</ele>
        <time>2022-08-18T19:44:48Z</time>
      </trkpt>
      <trkpt lat="42.39564300000001" lon="1.6070109999999995">
        <ele>1475.033</ele>
        <time>2022-08-18T19:44:51Z</time>
      </trkpt>
      <trkpt lat="42.39560000000001" lon="1.6070299999999995">
        <ele>1475.626</ele>
        <time>2022-08-18T19:44:54Z</time>
      </trkpt>
      <trkpt lat="42.39554400000001" lon="1.6070119999999994">
        <ele>1476.509</ele>
        <time>2022-08-18T19:44:59Z</time>
      </trkpt>
      <trkpt lat="42.39549000000001" lon="1.6070079999999995">
        <ele>1477.148</ele>
        <time>2022-08-18T19:45:03Z</time>
      </trkpt>
      <trkpt lat="42.39544000000001" lon="1.6070279999999995">
        <ele>1477.748</ele>
        <time>2022-08-18T19:45:07Z</time>
      </trkpt>
      <trkpt lat="42.39539400000001" lon="1.6070329999999995">
        <ele>1478.338</ele>
        <time>2022-08-18T19:45:11Z</time>
      </trkpt>
      <trkpt lat="42.39534700000001" lon="1.6070219999999995">
        <ele>1479.087</ele>
        <time>2022-08-18T19:45:16Z</time>
      </trkpt>
      <trkpt lat="42.39530100000001" lon="1.6070329999999995">
        <ele>1479.784</ele>
        <time>2022-08-18T19:45:21Z</time>
      </trkpt>
      <trkpt lat="42.395249000000014" lon="1.6070409999999995">
        <ele>1480.461</ele>
        <time>2022-08-18T19:45:25Z</time>
      </trkpt>
      <trkpt lat="42.395195000000015" lon="1.6070359999999995">
        <ele>1480.737</ele>
        <time>2022-08-18T19:45:29Z</time>
      </trkpt>
      <trkpt lat="42.395159000000014" lon="1.6069829999999994">
        <ele>1481.069</ele>
        <time>2022-08-18T19:45:34Z</time>
      </trkpt>
      <trkpt lat="42.395125000000014" lon="1.6070249999999995">
        <ele>1481.481</ele>
        <time>2022-08-18T19:45:41Z</time>
      </trkpt>
      <trkpt lat="42.395144000000016" lon="1.6070829999999994">
        <ele>1481.833</ele>
        <time>2022-08-18T19:45:50Z</time>
      </trkpt>
      <trkpt lat="42.39518000000002" lon="1.6071269999999993">
        <ele>1482.523</ele>
        <time>2022-08-18T19:45:58Z</time>
      </trkpt>
      <trkpt lat="42.394945000000014" lon="1.6067619999999994">
        <ele>1484.115</ele>
        <time>2022-08-18T19:46:13Z</time>
      </trkpt>
      <trkpt lat="42.39492100000001" lon="1.6066899999999993">
        <ele>1489.609</ele>
        <time>2022-08-18T19:46:17Z</time>
      </trkpt>
      <trkpt lat="42.39487500000001" lon="1.6066919999999993">
        <ele>1489.944</ele>
        <time>2022-08-18T19:46:20Z</time>
      </trkpt>
      <trkpt lat="42.394914000000014" lon="1.6066599999999993">
        <ele>1490.544</ele>
        <time>2022-08-18T19:46:28Z</time>
      </trkpt>
      <trkpt lat="42.39494900000001" lon="1.6066179999999992">
        <ele>1491.284</ele>
        <time>2022-08-18T19:46:34Z</time>
      </trkpt>
      <trkpt lat="42.394959000000014" lon="1.6065579999999993">
        <ele>1491.773</ele>
        <time>2022-08-18T19:46:38Z</time>
      </trkpt>
      <trkpt lat="42.39478800000001" lon="1.6063219999999994">
        <ele>1492.270</ele>
        <time>2022-08-18T19:46:41Z</time>
      </trkpt>
      <trkpt lat="42.39475800000001" lon="1.6063869999999993">
        <ele>1494.697</ele>
        <time>2022-08-18T19:46:42Z</time>
      </trkpt>
      <trkpt lat="42.39471500000001" lon="1.6064649999999994">
        <ele>1494.883</ele>
        <time>2022-08-18T19:46:44Z</time>
      </trkpt>
      <trkpt lat="42.39467700000001" lon="1.6064969999999994">
        <ele>1494.955</ele>
        <time>2022-08-18T19:46:46Z</time>
      </trkpt>
      <trkpt lat="42.39462600000001" lon="1.6065139999999993">
        <ele>1495.127</ele>
        <time>2022-08-18T19:46:49Z</time>
      </trkpt>
      <trkpt lat="42.39457300000001" lon="1.6065249999999993">
        <ele>1495.383</ele>
        <time>2022-08-18T19:46:52Z</time>
      </trkpt>
      <trkpt lat="42.39451400000001" lon="1.6065229999999993">
        <ele>1496.225</ele>
        <time>2022-08-18T19:46:59Z</time>
      </trkpt>
      <trkpt lat="42.394473000000005" lon="1.6064889999999992">
        <ele>1496.517</ele>
        <time>2022-08-18T19:47:02Z</time>
      </trkpt>
      <trkpt lat="42.394417000000004" lon="1.6065039999999993">
        <ele>1496.509</ele>
        <time>2022-08-18T19:47:05Z</time>
      </trkpt>
      <trkpt lat="42.39439900000001" lon="1.6064329999999993">
        <ele>1496.329</ele>
        <time>2022-08-18T19:47:13Z</time>
      </trkpt>
      <trkpt lat="42.394419000000006" lon="1.6063769999999993">
        <ele>1495.469</ele>
        <time>2022-08-18T19:47:17Z</time>
      </trkpt>
      <trkpt lat="42.39438500000001" lon="1.6063229999999993">
        <ele>1494.579</ele>
        <time>2022-08-18T19:47:30Z</time>
      </trkpt>
      <trkpt lat="42.39436700000001" lon="1.6062629999999993">
        <ele>1494.088</ele>
        <time>2022-08-18T19:47:58Z</time>
      </trkpt>
      <trkpt lat="42.39437100000001" lon="1.6061899999999993">
        <ele>1493.855</ele>
        <time>2022-08-18T19:48:03Z</time>
      </trkpt>
      <trkpt lat="42.394414000000005" lon="1.6061389999999993">
        <ele>1494.032</ele>
        <time>2022-08-18T19:48:18Z</time>
      </trkpt>
      <trkpt lat="42.39444100000001" lon="1.6060879999999993">
        <ele>1494.748</ele>
        <time>2022-08-18T19:48:46Z</time>
      </trkpt>
      <trkpt lat="42.39448600000001" lon="1.6060719999999993">
        <ele>1495.440</ele>
        <time>2022-08-18T19:48:51Z</time>
      </trkpt>
      <trkpt lat="42.39452800000001" lon="1.6060449999999993">
        <ele>1495.522</ele>
        <time>2022-08-18T19:48:56Z</time>
      </trkpt>
      <trkpt lat="42.394549000000005" lon="1.6059809999999992">
        <ele>1495.562</ele>
        <time>2022-08-18T19:48:59Z</time>
      </trkpt>
      <trkpt lat="42.39456500000001" lon="1.605903999999999">
        <ele>1495.683</ele>
        <time>2022-08-18T19:49:03Z</time>
      </trkpt>
      <trkpt lat="42.39457000000001" lon="1.605825999999999">
        <ele>1496.711</ele>
        <time>2022-08-18T19:49:06Z</time>
      </trkpt>
      <trkpt lat="42.39461200000001" lon="1.6057629999999992">
        <ele>1497.009</ele>
        <time>2022-08-18T19:49:10Z</time>
      </trkpt>
      <trkpt lat="42.39464600000001" lon="1.6057139999999992">
        <ele>1497.347</ele>
        <time>2022-08-18T19:49:14Z</time>
      </trkpt>
      <trkpt lat="42.39470200000001" lon="1.605706999999999">
        <ele>1497.897</ele>
        <time>2022-08-18T19:49:21Z</time>
      </trkpt>
      <trkpt lat="42.39475000000001" lon="1.6056819999999992">
        <ele>1498.367</ele>
        <time>2022-08-18T19:49:25Z</time>
      </trkpt>
      <trkpt lat="42.39474400000001" lon="1.6055959999999991">
        <ele>1499.526</ele>
        <time>2022-08-18T19:49:30Z</time>
      </trkpt>
      <trkpt lat="42.39473400000001" lon="1.6055179999999991">
        <ele>1500.073</ele>
        <time>2022-08-18T19:49:33Z</time>
      </trkpt>
      <trkpt lat="42.39473600000001" lon="1.6054499999999992">
        <ele>1501.060</ele>
        <time>2022-08-18T19:49:38Z</time>
      </trkpt>
      <trkpt lat="42.39474500000001" lon="1.605380999999999">
        <ele>1502.196</ele>
        <time>2022-08-18T19:49:43Z</time>
      </trkpt>
      <trkpt lat="42.39475800000001" lon="1.605312999999999">
        <ele>1503.268</ele>
        <time>2022-08-18T19:49:48Z</time>
      </trkpt>
      <trkpt lat="42.39473200000001" lon="1.6052499999999992">
        <ele>1504.140</ele>
        <time>2022-08-18T19:49:53Z</time>
      </trkpt>
      <trkpt lat="42.394725000000015" lon="1.6051899999999992">
        <ele>1504.761</ele>
        <time>2022-08-18T19:49:56Z</time>
      </trkpt>
      <trkpt lat="42.39474900000002" lon="1.6051359999999992">
        <ele>1505.521</ele>
        <time>2022-08-18T19:50:00Z</time>
      </trkpt>
      <trkpt lat="42.39479300000002" lon="1.6051139999999993">
        <ele>1506.413</ele>
        <time>2022-08-18T19:50:04Z</time>
      </trkpt>
      <trkpt lat="42.39481200000002" lon="1.6050459999999993">
        <ele>1507.409</ele>
        <time>2022-08-18T19:50:08Z</time>
      </trkpt>
      <trkpt lat="42.394803000000024" lon="1.6049809999999993">
        <ele>1508.917</ele>
        <time>2022-08-18T19:50:15Z</time>
      </trkpt>
      <trkpt lat="42.394817000000025" lon="1.6049179999999994">
        <ele>1510.147</ele>
        <time>2022-08-18T19:50:21Z</time>
      </trkpt>
      <trkpt lat="42.394865000000024" lon="1.6048949999999993">
        <ele>1511.187</ele>
        <time>2022-08-18T19:50:26Z</time>
      </trkpt>
      <trkpt lat="42.39488000000002" lon="1.6048339999999992">
        <ele>1512.566</ele>
        <time>2022-08-18T19:50:30Z</time>
      </trkpt>
      <trkpt lat="42.39489400000002" lon="1.6047669999999992">
        <ele>1514.083</ele>
        <time>2022-08-18T19:50:34Z</time>
      </trkpt>
      <trkpt lat="42.39488100000002" lon="1.6047069999999992">
        <ele>1515.130</ele>
        <time>2022-08-18T19:50:42Z</time>
      </trkpt>
      <trkpt lat="42.39488900000002" lon="1.6046409999999993">
        <ele>1517.146</ele>
        <time>2022-08-18T19:50:51Z</time>
      </trkpt>
      <trkpt lat="42.39489400000002" lon="1.6045709999999993">
        <ele>1518.278</ele>
        <time>2022-08-18T19:50:55Z</time>
      </trkpt>
      <trkpt lat="42.39486900000002" lon="1.6045049999999994">
        <ele>1518.960</ele>
        <time>2022-08-18T19:50:58Z</time>
      </trkpt>
      <trkpt lat="42.39488700000002" lon="1.6044489999999993">
        <ele>1519.739</ele>
        <time>2022-08-18T19:51:02Z</time>
      </trkpt>
      <trkpt lat="42.39492600000002" lon="1.6044169999999993">
        <ele>1520.501</ele>
        <time>2022-08-18T19:51:07Z</time>
      </trkpt>
      <trkpt lat="42.39490100000002" lon="1.6043399999999992">
        <ele>1523.921</ele>
        <time>2022-08-18T19:51:59Z</time>
      </trkpt>
      <trkpt lat="42.39492700000002" lon="1.6042789999999991">
        <ele>1523.909</ele>
        <time>2022-08-18T19:52:02Z</time>
      </trkpt>
      <trkpt lat="42.394914000000014" lon="1.6042129999999992">
        <ele>1523.964</ele>
        <time>2022-08-18T19:52:04Z</time>
      </trkpt>
      <trkpt lat="42.39489300000002" lon="1.6041499999999993">
        <ele>1523.934</ele>
        <time>2022-08-18T19:52:08Z</time>
      </trkpt>
      <trkpt lat="42.394888000000016" lon="1.6040749999999993">
        <ele>1522.584</ele>
        <time>2022-08-18T19:52:12Z</time>
      </trkpt>
      <trkpt lat="42.39483700000002" lon="1.6040399999999992">
        <ele>1521.583</ele>
        <time>2022-08-18T19:52:17Z</time>
      </trkpt>
      <trkpt lat="42.39479400000002" lon="1.6040179999999993">
        <ele>1521.130</ele>
        <time>2022-08-18T19:52:20Z</time>
      </trkpt>
      <trkpt lat="42.39477500000002" lon="1.6039389999999993">
        <ele>1520.427</ele>
        <time>2022-08-18T19:52:24Z</time>
      </trkpt>
      <trkpt lat="42.394764000000016" lon="1.6038719999999993">
        <ele>1519.793</ele>
        <time>2022-08-18T19:52:27Z</time>
      </trkpt>
      <trkpt lat="42.394733000000016" lon="1.6038109999999992">
        <ele>1518.425</ele>
        <time>2022-08-18T19:52:31Z</time>
      </trkpt>
      <trkpt lat="42.394689000000014" lon="1.6037809999999992">
        <ele>1517.967</ele>
        <time>2022-08-18T19:52:34Z</time>
      </trkpt>
      <trkpt lat="42.39464500000001" lon="1.6037409999999992">
        <ele>1517.165</ele>
        <time>2022-08-18T19:52:37Z</time>
      </trkpt>
      <trkpt lat="42.394599000000014" lon="1.6036829999999993">
        <ele>1516.068</ele>
        <time>2022-08-18T19:52:41Z</time>
      </trkpt>
      <trkpt lat="42.39455800000001" lon="1.6036559999999993">
        <ele>1515.414</ele>
        <time>2022-08-18T19:52:44Z</time>
      </trkpt>
      <trkpt lat="42.39451000000001" lon="1.6036249999999994">
        <ele>1514.709</ele>
        <time>2022-08-18T19:52:48Z</time>
      </trkpt>
      <trkpt lat="42.39448800000001" lon="1.6035549999999994">
        <ele>1514.157</ele>
        <time>2022-08-18T19:52:52Z</time>
      </trkpt>
      <trkpt lat="42.39446600000001" lon="1.6034839999999995">
        <ele>1513.867</ele>
        <time>2022-08-18T19:52:56Z</time>
      </trkpt>
      <trkpt lat="42.39445200000001" lon="1.6034219999999995">
        <ele>1513.827</ele>
        <time>2022-08-18T19:52:58Z</time>
      </trkpt>
      <trkpt lat="42.39442000000001" lon="1.6033749999999996">
        <ele>1513.876</ele>
        <time>2022-08-18T19:53:02Z</time>
      </trkpt>
      <trkpt lat="42.39437300000001" lon="1.6033429999999995">
        <ele>1513.823</ele>
        <time>2022-08-18T19:53:06Z</time>
      </trkpt>
      <trkpt lat="42.39432300000001" lon="1.6033409999999995">
        <ele>1513.940</ele>
        <time>2022-08-18T19:53:09Z</time>
      </trkpt>
      <trkpt lat="42.39427500000001" lon="1.6033229999999994">
        <ele>1513.976</ele>
        <time>2022-08-18T19:53:12Z</time>
      </trkpt>
      <trkpt lat="42.39422900000001" lon="1.6032849999999994">
        <ele>1514.288</ele>
        <time>2022-08-18T19:53:16Z</time>
      </trkpt>
      <trkpt lat="42.39421100000001" lon="1.6032209999999993">
        <ele>1514.970</ele>
        <time>2022-08-18T19:53:21Z</time>
      </trkpt>
      <trkpt lat="42.39416600000001" lon="1.6031859999999993">
        <ele>1515.938</ele>
        <time>2022-08-18T19:53:25Z</time>
      </trkpt>
      <trkpt lat="42.39413800000001" lon="1.6031299999999993">
        <ele>1517.270</ele>
        <time>2022-08-18T19:53:30Z</time>
      </trkpt>
      <trkpt lat="42.39413600000001" lon="1.6030599999999993">
        <ele>1518.617</ele>
        <time>2022-08-18T19:53:33Z</time>
      </trkpt>
      <trkpt lat="42.39411400000001" lon="1.6029939999999994">
        <ele>1519.309</ele>
        <time>2022-08-18T19:53:37Z</time>
      </trkpt>
      <trkpt lat="42.39406400000001" lon="1.6029739999999995">
        <ele>1520.054</ele>
        <time>2022-08-18T19:53:40Z</time>
      </trkpt>
      <trkpt lat="42.394011000000006" lon="1.6030129999999994">
        <ele>1521.044</ele>
        <time>2022-08-18T19:53:44Z</time>
      </trkpt>
      <trkpt lat="42.39396800000001" lon="1.6030459999999993">
        <ele>1521.534</ele>
        <time>2022-08-18T19:53:47Z</time>
      </trkpt>
      <trkpt lat="42.393935000000006" lon="1.6030959999999994">
        <ele>1521.553</ele>
        <time>2022-08-18T19:53:50Z</time>
      </trkpt>
      <trkpt lat="42.393894" lon="1.6031549999999994">
        <ele>1521.520</ele>
        <time>2022-08-18T19:53:54Z</time>
      </trkpt>
      <trkpt lat="42.393856" lon="1.6031999999999995">
        <ele>1521.447</ele>
        <time>2022-08-18T19:53:57Z</time>
      </trkpt>
      <trkpt lat="42.393817999999996" lon="1.6032549999999994">
        <ele>1521.063</ele>
        <time>2022-08-18T19:54:02Z</time>
      </trkpt>
      <trkpt lat="42.393784" lon="1.6032969999999995">
        <ele>1520.755</ele>
        <time>2022-08-18T19:54:05Z</time>
      </trkpt>
      <trkpt lat="42.393732" lon="1.6033089999999994">
        <ele>1520.267</ele>
        <time>2022-08-18T19:54:08Z</time>
      </trkpt>
      <trkpt lat="42.393674" lon="1.6032779999999995">
        <ele>1519.545</ele>
        <time>2022-08-18T19:54:12Z</time>
      </trkpt>
      <trkpt lat="42.393634999999996" lon="1.6032439999999994">
        <ele>1519.047</ele>
        <time>2022-08-18T19:54:15Z</time>
      </trkpt>
      <trkpt lat="42.393603" lon="1.6031999999999995">
        <ele>1518.011</ele>
        <time>2022-08-18T19:54:19Z</time>
      </trkpt>
      <trkpt lat="42.393572" lon="1.6031319999999996">
        <ele>1517.009</ele>
        <time>2022-08-18T19:54:23Z</time>
      </trkpt>
      <trkpt lat="42.393522" lon="1.6030869999999995">
        <ele>1516.565</ele>
        <time>2022-08-18T19:54:26Z</time>
      </trkpt>
      <trkpt lat="42.393485999999996" lon="1.6030429999999996">
        <ele>1515.985</ele>
        <time>2022-08-18T19:54:29Z</time>
      </trkpt>
      <trkpt lat="42.39345899999999" lon="1.6029819999999995">
        <ele>1514.655</ele>
        <time>2022-08-18T19:54:33Z</time>
      </trkpt>
      <trkpt lat="42.39341999999999" lon="1.6029489999999995">
        <ele>1513.764</ele>
        <time>2022-08-18T19:54:38Z</time>
      </trkpt>
      <trkpt lat="42.39338699999999" lon="1.6028829999999996">
        <ele>1513.541</ele>
        <time>2022-08-18T19:54:42Z</time>
      </trkpt>
      <trkpt lat="42.39336099999999" lon="1.6028209999999996">
        <ele>1513.368</ele>
        <time>2022-08-18T19:54:45Z</time>
      </trkpt>
      <trkpt lat="42.393339999999995" lon="1.6027619999999996">
        <ele>1512.464</ele>
        <time>2022-08-18T19:54:50Z</time>
      </trkpt>
      <trkpt lat="42.393345" lon="1.6026999999999996">
        <ele>1511.516</ele>
        <time>2022-08-18T19:54:54Z</time>
      </trkpt>
      <trkpt lat="42.393356" lon="1.6026369999999996">
        <ele>1510.718</ele>
        <time>2022-08-18T19:54:58Z</time>
      </trkpt>
      <trkpt lat="42.393335" lon="1.6025789999999998">
        <ele>1510.543</ele>
        <time>2022-08-18T19:55:01Z</time>
      </trkpt>
      <trkpt lat="42.393355" lon="1.6025139999999998">
        <ele>1510.464</ele>
        <time>2022-08-18T19:55:05Z</time>
      </trkpt>
      <trkpt lat="42.393374" lon="1.6024559999999999">
        <ele>1509.910</ele>
        <time>2022-08-18T19:55:09Z</time>
      </trkpt>
      <trkpt lat="42.393371" lon="1.602383">
        <ele>1508.809</ele>
        <time>2022-08-18T19:55:13Z</time>
      </trkpt>
      <trkpt lat="42.393367000000005" lon="1.6023109999999998">
        <ele>1507.825</ele>
        <time>2022-08-18T19:55:16Z</time>
      </trkpt>
      <trkpt lat="42.393357" lon="1.602248">
        <ele>1506.775</ele>
        <time>2022-08-18T19:55:19Z</time>
      </trkpt>
      <trkpt lat="42.393339000000005" lon="1.6021649999999998">
        <ele>1505.445</ele>
        <time>2022-08-18T19:55:23Z</time>
      </trkpt>
      <trkpt lat="42.393317" lon="1.6021029999999998">
        <ele>1503.774</ele>
        <time>2022-08-18T19:55:27Z</time>
      </trkpt>
      <trkpt lat="42.393319000000005" lon="1.6020349999999999">
        <ele>1502.261</ele>
        <time>2022-08-18T19:55:31Z</time>
      </trkpt>
      <trkpt lat="42.39332900000001" lon="1.601967">
        <ele>1499.938</ele>
        <time>2022-08-18T19:55:35Z</time>
      </trkpt>
      <trkpt lat="42.39329600000001" lon="1.601912">
        <ele>1499.324</ele>
        <time>2022-08-18T19:55:40Z</time>
      </trkpt>
      <trkpt lat="42.393255" lon="1.601874">
        <ele>1498.746</ele>
        <time>2022-08-18T19:55:44Z</time>
      </trkpt>
      <trkpt lat="42.393222" lon="1.601818">
        <ele>1498.378</ele>
        <time>2022-08-18T19:55:48Z</time>
      </trkpt>
      <trkpt lat="42.393228" lon="1.601728">
        <ele>1497.495</ele>
        <time>2022-08-18T19:55:51Z</time>
      </trkpt>
      <trkpt lat="42.393194" lon="1.601682">
        <ele>1494.449</ele>
        <time>2022-08-18T19:56:01Z</time>
      </trkpt>
      <trkpt lat="42.393163" lon="1.601621">
        <ele>1493.323</ele>
        <time>2022-08-18T19:56:06Z</time>
      </trkpt>
      <trkpt lat="42.393142000000005" lon="1.601542">
        <ele>1493.209</ele>
        <time>2022-08-18T19:56:10Z</time>
      </trkpt>
      <trkpt lat="42.39311300000001" lon="1.601482">
        <ele>1493.050</ele>
        <time>2022-08-18T19:56:13Z</time>
      </trkpt>
      <trkpt lat="42.393091000000005" lon="1.601425">
        <ele>1492.550</ele>
        <time>2022-08-18T19:56:16Z</time>
      </trkpt>
      <trkpt lat="42.39310400000001" lon="1.6013620000000002">
        <ele>1490.660</ele>
        <time>2022-08-18T19:56:22Z</time>
      </trkpt>
      <trkpt lat="42.39309000000001" lon="1.6013030000000001">
        <ele>1489.739</ele>
        <time>2022-08-18T19:56:25Z</time>
      </trkpt>
      <trkpt lat="42.39307800000001" lon="1.6012350000000002">
        <ele>1489.016</ele>
        <time>2022-08-18T19:56:27Z</time>
      </trkpt>
      <trkpt lat="42.39307400000001" lon="1.6011720000000003">
        <ele>1487.893</ele>
        <time>2022-08-18T19:56:30Z</time>
      </trkpt>
      <trkpt lat="42.39308600000001" lon="1.6010960000000003">
        <ele>1485.999</ele>
        <time>2022-08-18T19:56:38Z</time>
      </trkpt>
      <trkpt lat="42.39306700000001" lon="1.6010380000000004">
        <ele>1485.221</ele>
        <time>2022-08-18T19:56:40Z</time>
      </trkpt>
      <trkpt lat="42.39304700000001" lon="1.6009600000000004">
        <ele>1484.953</ele>
        <time>2022-08-18T19:56:43Z</time>
      </trkpt>
      <trkpt lat="42.393009000000006" lon="1.6009150000000003">
        <ele>1484.759</ele>
        <time>2022-08-18T19:56:46Z</time>
      </trkpt>
      <trkpt lat="42.39298600000001" lon="1.6008560000000003">
        <ele>1484.403</ele>
        <time>2022-08-18T19:56:49Z</time>
      </trkpt>
      <trkpt lat="42.39295700000001" lon="1.6008080000000002">
        <ele>1483.723</ele>
        <time>2022-08-18T19:56:52Z</time>
      </trkpt>
      <trkpt lat="42.39296100000001" lon="1.6007460000000002">
        <ele>1483.409</ele>
        <time>2022-08-18T19:56:56Z</time>
      </trkpt>
      <trkpt lat="42.393004000000005" lon="1.6006980000000002">
        <ele>1483.726</ele>
        <time>2022-08-18T19:57:32Z</time>
      </trkpt>
      <trkpt lat="42.39303" lon="1.6006460000000002">
        <ele>1483.776</ele>
        <time>2022-08-18T19:57:36Z</time>
      </trkpt>
      <trkpt lat="42.39303" lon="1.6005780000000003">
        <ele>1483.736</ele>
        <time>2022-08-18T19:57:41Z</time>
      </trkpt>
      <trkpt lat="42.392990000000005" lon="1.6005350000000003">
        <ele>1483.815</ele>
        <time>2022-08-18T19:57:54Z</time>
      </trkpt>
      <trkpt lat="42.392965000000004" lon="1.6004770000000004">
        <ele>1483.952</ele>
        <time>2022-08-18T19:58:03Z</time>
      </trkpt>
      <trkpt lat="42.392953000000006" lon="1.6003950000000005">
        <ele>1484.559</ele>
        <time>2022-08-18T19:58:06Z</time>
      </trkpt>
      <trkpt lat="42.392967000000006" lon="1.6003280000000004">
        <ele>1484.635</ele>
        <time>2022-08-18T19:58:09Z</time>
      </trkpt>
      <trkpt lat="42.39296000000001" lon="1.6002640000000004">
        <ele>1484.887</ele>
        <time>2022-08-18T19:58:12Z</time>
      </trkpt>
      <trkpt lat="42.39293400000001" lon="1.6002060000000005">
        <ele>1485.239</ele>
        <time>2022-08-18T19:58:15Z</time>
      </trkpt>
      <trkpt lat="42.39291700000001" lon="1.6001380000000005">
        <ele>1486.057</ele>
        <time>2022-08-18T19:58:20Z</time>
      </trkpt>
      <trkpt lat="42.39292100000001" lon="1.6000640000000006">
        <ele>1486.000</ele>
        <time>2022-08-18T19:58:25Z</time>
      </trkpt>
      <trkpt lat="42.39292300000001" lon="1.5999850000000007">
        <ele>1486.020</ele>
        <time>2022-08-18T19:58:29Z</time>
      </trkpt>
      <trkpt lat="42.39291300000001" lon="1.5999250000000007">
        <ele>1486.109</ele>
        <time>2022-08-18T19:58:34Z</time>
      </trkpt>
      <trkpt lat="42.39289300000001" lon="1.5998640000000006">
        <ele>1486.166</ele>
        <time>2022-08-18T19:58:39Z</time>
      </trkpt>
      <trkpt lat="42.39285900000001" lon="1.5998170000000007">
        <ele>1486.136</ele>
        <time>2022-08-18T19:58:45Z</time>
      </trkpt>
      <trkpt lat="42.39283400000001" lon="1.5997550000000007">
        <ele>1485.866</ele>
        <time>2022-08-18T19:58:51Z</time>
      </trkpt>
      <trkpt lat="42.39278600000001" lon="1.5997620000000008">
        <ele>1485.135</ele>
        <time>2022-08-18T19:58:55Z</time>
      </trkpt>
      <trkpt lat="42.39283900000001" lon="1.5997450000000009">
        <ele>1483.422</ele>
        <time>2022-08-18T19:59:01Z</time>
      </trkpt>
      <trkpt lat="42.39279100000001" lon="1.5997370000000009">
        <ele>1478.499</ele>
        <time>2022-08-18T19:59:28Z</time>
      </trkpt>
      <trkpt lat="42.39274400000001" lon="1.599747000000001">
        <ele>1478.315</ele>
        <time>2022-08-18T19:59:32Z</time>
      </trkpt>
      <trkpt lat="42.39274000000001" lon="1.599684000000001">
        <ele>1478.297</ele>
        <time>2022-08-18T19:59:36Z</time>
      </trkpt>
      <trkpt lat="42.39273800000001" lon="1.599615000000001">
        <ele>1478.239</ele>
        <time>2022-08-18T19:59:39Z</time>
      </trkpt>
      <trkpt lat="42.39270300000001" lon="1.599557000000001">
        <ele>1476.987</ele>
        <time>2022-08-18T19:59:46Z</time>
      </trkpt>
      <trkpt lat="42.39269800000001" lon="1.599496000000001">
        <ele>1474.542</ele>
        <time>2022-08-18T19:59:48Z</time>
      </trkpt>
      <trkpt lat="42.39271100000001" lon="1.5994160000000008">
        <ele>1473.826</ele>
        <time>2022-08-18T19:59:51Z</time>
      </trkpt>
      <trkpt lat="42.39273400000001" lon="1.5993520000000008">
        <ele>1473.209</ele>
        <time>2022-08-18T19:59:54Z</time>
      </trkpt>
      <trkpt lat="42.39270400000001" lon="1.5993010000000007">
        <ele>1471.829</ele>
        <time>2022-08-18T20:00:02Z</time>
      </trkpt>
      <trkpt lat="42.39270600000001" lon="1.5992360000000008">
        <ele>1471.169</ele>
        <time>2022-08-18T20:00:05Z</time>
      </trkpt>
      <trkpt lat="42.39270300000001" lon="1.5991680000000008">
        <ele>1469.899</ele>
        <time>2022-08-18T20:01:19Z</time>
      </trkpt>
      <trkpt lat="42.39266100000001" lon="1.5991170000000008">
        <ele>1469.848</ele>
        <time>2022-08-18T20:01:23Z</time>
      </trkpt>
      <trkpt lat="42.39261700000001" lon="1.5990880000000007">
        <ele>1469.845</ele>
        <time>2022-08-18T20:01:27Z</time>
      </trkpt>
      <trkpt lat="42.39256100000001" lon="1.5990820000000008">
        <ele>1469.832</ele>
        <time>2022-08-18T20:01:31Z</time>
      </trkpt>
      <trkpt lat="42.39252400000001" lon="1.5990360000000008">
        <ele>1469.828</ele>
        <time>2022-08-18T20:01:37Z</time>
      </trkpt>
      <trkpt lat="42.39247800000001" lon="1.5990220000000008">
        <ele>1469.620</ele>
        <time>2022-08-18T20:01:44Z</time>
      </trkpt>
      <trkpt lat="42.39243600000001" lon="1.5989800000000007">
        <ele>1470.562</ele>
        <time>2022-08-18T20:01:49Z</time>
      </trkpt>
      <trkpt lat="42.39240900000001" lon="1.5989290000000007">
        <ele>1470.987</ele>
        <time>2022-08-18T20:01:54Z</time>
      </trkpt>
      <trkpt lat="42.39236400000001" lon="1.5989010000000008">
        <ele>1471.742</ele>
        <time>2022-08-18T20:01:59Z</time>
      </trkpt>
      <trkpt lat="42.39231600000001" lon="1.5988920000000009">
        <ele>1472.226</ele>
        <time>2022-08-18T20:02:05Z</time>
      </trkpt>
      <trkpt lat="42.39226400000001" lon="1.598856000000001">
        <ele>1472.409</ele>
        <time>2022-08-18T20:02:11Z</time>
      </trkpt>
      <trkpt lat="42.392277000000014" lon="1.598785000000001">
        <ele>1471.959</ele>
        <time>2022-08-18T20:02:17Z</time>
      </trkpt>
      <trkpt lat="42.39225300000001" lon="1.598730000000001">
        <ele>1471.669</ele>
        <time>2022-08-18T20:02:21Z</time>
      </trkpt>
      <trkpt lat="42.39222000000001" lon="1.598677000000001">
        <ele>1470.969</ele>
        <time>2022-08-18T20:02:25Z</time>
      </trkpt>
      <trkpt lat="42.392165000000006" lon="1.598656000000001">
        <ele>1470.058</ele>
        <time>2022-08-18T20:02:29Z</time>
      </trkpt>
      <trkpt lat="42.39211400000001" lon="1.598619000000001">
        <ele>1469.465</ele>
        <time>2022-08-18T20:02:33Z</time>
      </trkpt>
      <trkpt lat="42.392067000000004" lon="1.598619000000001">
        <ele>1468.252</ele>
        <time>2022-08-18T20:02:37Z</time>
      </trkpt>
      <trkpt lat="42.392034" lon="1.598570000000001">
        <ele>1467.388</ele>
        <time>2022-08-18T20:02:41Z</time>
      </trkpt>
      <trkpt lat="42.392014" lon="1.598512000000001">
        <ele>1465.540</ele>
        <time>2022-08-18T20:02:46Z</time>
      </trkpt>
      <trkpt lat="42.391975" lon="1.598463000000001">
        <ele>1464.932</ele>
        <time>2022-08-18T20:02:51Z</time>
      </trkpt>
      <trkpt lat="42.391898000000005" lon="1.598418000000001">
        <ele>1464.638</ele>
        <time>2022-08-18T20:02:55Z</time>
      </trkpt>
      <trkpt lat="42.39184" lon="1.598368000000001">
        <ele>1464.670</ele>
        <time>2022-08-18T20:02:57Z</time>
      </trkpt>
      <trkpt lat="42.391805000000005" lon="1.5983200000000009">
        <ele>1464.617</ele>
        <time>2022-08-18T20:03:00Z</time>
      </trkpt>
      <trkpt lat="42.391794000000004" lon="1.598257000000001">
        <ele>1464.809</ele>
        <time>2022-08-18T20:03:04Z</time>
      </trkpt>
      <trkpt lat="42.391741" lon="1.5982500000000008">
        <ele>1465.494</ele>
        <time>2022-08-18T20:03:08Z</time>
      </trkpt>
      <trkpt lat="42.391697" lon="1.598265000000001">
        <ele>1466.044</ele>
        <time>2022-08-18T20:03:14Z</time>
      </trkpt>
      <trkpt lat="42.391697" lon="1.598327000000001">
        <ele>1466.234</ele>
        <time>2022-08-18T20:03:19Z</time>
      </trkpt>
      <trkpt lat="42.391652" lon="1.598351000000001">
        <ele>1466.143</ele>
        <time>2022-08-18T20:03:26Z</time>
      </trkpt>
      <trkpt lat="42.39161" lon="1.598394000000001">
        <ele>1466.160</ele>
        <time>2022-08-18T20:03:30Z</time>
      </trkpt>
      <trkpt lat="42.391558" lon="1.598412000000001">
        <ele>1465.967</ele>
        <time>2022-08-18T20:03:34Z</time>
      </trkpt>
      <trkpt lat="42.391516" lon="1.598445000000001">
        <ele>1465.853</ele>
        <time>2022-08-18T20:03:37Z</time>
      </trkpt>
      <trkpt lat="42.391483" lon="1.598489000000001">
        <ele>1465.475</ele>
        <time>2022-08-18T20:03:40Z</time>
      </trkpt>
      <trkpt lat="42.391451" lon="1.5985410000000009">
        <ele>1464.767</ele>
        <time>2022-08-18T20:03:43Z</time>
      </trkpt>
      <trkpt lat="42.391421" lon="1.598589000000001">
        <ele>1463.356</ele>
        <time>2022-08-18T20:03:46Z</time>
      </trkpt>
      <trkpt lat="42.391383" lon="1.5986300000000009">
        <ele>1462.559</ele>
        <time>2022-08-18T20:03:51Z</time>
      </trkpt>
      <trkpt lat="42.391334" lon="1.5986250000000009">
        <ele>1461.714</ele>
        <time>2022-08-18T20:03:56Z</time>
      </trkpt>
      <trkpt lat="42.391288" lon="1.5986570000000009">
        <ele>1461.009</ele>
        <time>2022-08-18T20:03:59Z</time>
      </trkpt>
      <trkpt lat="42.391244" lon="1.598692000000001">
        <ele>1460.446</ele>
        <time>2022-08-18T20:04:01Z</time>
      </trkpt>
      <trkpt lat="42.391198" lon="1.5987310000000008">
        <ele>1459.446</ele>
        <time>2022-08-18T20:04:04Z</time>
      </trkpt>
      <trkpt lat="42.39115" lon="1.5987760000000009">
        <ele>1458.266</ele>
        <time>2022-08-18T20:04:08Z</time>
      </trkpt>
      <trkpt lat="42.391123" lon="1.5988360000000008">
        <ele>1456.995</ele>
        <time>2022-08-18T20:04:16Z</time>
      </trkpt>
      <trkpt lat="42.391092" lon="1.5988820000000008">
        <ele>1456.762</ele>
        <time>2022-08-18T20:04:19Z</time>
      </trkpt>
      <trkpt lat="42.391056" lon="1.5988420000000008">
        <ele>1456.359</ele>
        <time>2022-08-18T20:04:24Z</time>
      </trkpt>
      <trkpt lat="42.391045999999996" lon="1.5989070000000007">
        <ele>1455.835</ele>
        <time>2022-08-18T20:04:27Z</time>
      </trkpt>
      <trkpt lat="42.391076" lon="1.5989690000000008">
        <ele>1454.047</ele>
        <time>2022-08-18T20:04:32Z</time>
      </trkpt>
      <trkpt lat="42.391055" lon="1.5990380000000008">
        <ele>1450.239</ele>
        <time>2022-08-18T20:04:39Z</time>
      </trkpt>
      <trkpt lat="42.391031" lon="1.5990920000000008">
        <ele>1448.027</ele>
        <time>2022-08-18T20:04:45Z</time>
      </trkpt>
      <trkpt lat="42.391022" lon="1.599172000000001">
        <ele>1446.568</ele>
        <time>2022-08-18T20:04:48Z</time>
      </trkpt>
      <trkpt lat="42.391027" lon="1.5992510000000009">
        <ele>1443.514</ele>
        <time>2022-08-18T20:04:51Z</time>
      </trkpt>
      <trkpt lat="42.390987" lon="1.5992890000000008">
        <ele>1441.709</ele>
        <time>2022-08-18T20:04:55Z</time>
      </trkpt>
      <trkpt lat="42.390967" lon="1.599361000000001">
        <ele>1439.443</ele>
        <time>2022-08-18T20:05:00Z</time>
      </trkpt>
      <trkpt lat="42.390948" lon="1.5994290000000009">
        <ele>1436.133</ele>
        <time>2022-08-18T20:05:06Z</time>
      </trkpt>
      <trkpt lat="42.390897" lon="1.599455000000001">
        <ele>1433.843</ele>
        <time>2022-08-18T20:05:13Z</time>
      </trkpt>
      <trkpt lat="42.390845000000006" lon="1.5994670000000009">
        <ele>1432.422</ele>
        <time>2022-08-18T20:05:16Z</time>
      </trkpt>
      <trkpt lat="42.39078800000001" lon="1.599469000000001">
        <ele>1429.789</ele>
        <time>2022-08-18T20:05:20Z</time>
      </trkpt>
      <trkpt lat="42.39073600000001" lon="1.599469000000001">
        <ele>1427.666</ele>
        <time>2022-08-18T20:05:24Z</time>
      </trkpt>
      <trkpt lat="42.39078400000001" lon="1.599457000000001">
        <ele>1426.462</ele>
        <time>2022-08-18T20:05:31Z</time>
      </trkpt>
      <trkpt lat="42.39082400000001" lon="1.5994260000000011">
        <ele>1426.244</ele>
        <time>2022-08-18T20:05:42Z</time>
      </trkpt>
      <trkpt lat="42.39078400000001" lon="1.599397000000001">
        <ele>1426.176</ele>
        <time>2022-08-18T20:05:50Z</time>
      </trkpt>
      <trkpt lat="42.390735000000014" lon="1.599429000000001">
        <ele>1426.127</ele>
        <time>2022-08-18T20:05:53Z</time>
      </trkpt>
      <trkpt lat="42.39069900000001" lon="1.599476000000001">
        <ele>1426.068</ele>
        <time>2022-08-18T20:05:57Z</time>
      </trkpt>
      <trkpt lat="42.39068000000001" lon="1.599535000000001">
        <ele>1425.614</ele>
        <time>2022-08-18T20:06:01Z</time>
      </trkpt>
      <trkpt lat="42.39066500000001" lon="1.599594000000001">
        <ele>1422.309</ele>
        <time>2022-08-18T20:06:07Z</time>
      </trkpt>
      <trkpt lat="42.39068800000001" lon="1.599657000000001">
        <ele>1420.313</ele>
        <time>2022-08-18T20:06:11Z</time>
      </trkpt>
      <trkpt lat="42.39067100000001" lon="1.599596000000001">
        <ele>1415.623</ele>
        <time>2022-08-18T20:06:26Z</time>
      </trkpt>
      <trkpt lat="42.390712000000015" lon="1.599631000000001">
        <ele>1415.243</ele>
        <time>2022-08-18T20:06:28Z</time>
      </trkpt>
      <trkpt lat="42.39076600000001" lon="1.5996720000000009">
        <ele>1414.652</ele>
        <time>2022-08-18T20:06:30Z</time>
      </trkpt>
      <trkpt lat="42.39080900000001" lon="1.5997240000000008">
        <ele>1414.529</ele>
        <time>2022-08-18T20:06:33Z</time>
      </trkpt>
      <trkpt lat="42.39084800000001" lon="1.5997710000000007">
        <ele>1414.046</ele>
        <time>2022-08-18T20:06:36Z</time>
      </trkpt>
      <trkpt lat="42.390886000000016" lon="1.5998070000000006">
        <ele>1413.152</ele>
        <time>2022-08-18T20:06:39Z</time>
      </trkpt>
      <trkpt lat="42.39096300000001" lon="1.5998260000000006">
        <ele>1412.444</ele>
        <time>2022-08-18T20:06:43Z</time>
      </trkpt>
      <trkpt lat="42.391022000000014" lon="1.5998280000000007">
        <ele>1411.786</ele>
        <time>2022-08-18T20:06:46Z</time>
      </trkpt>
      <trkpt lat="42.391050000000014" lon="1.5998780000000008">
        <ele>1410.668</ele>
        <time>2022-08-18T20:06:50Z</time>
      </trkpt>
      <trkpt lat="42.391103000000015" lon="1.5998860000000008">
        <ele>1409.742</ele>
        <time>2022-08-18T20:06:54Z</time>
      </trkpt>
      <trkpt lat="42.39115000000002" lon="1.5998960000000009">
        <ele>1409.626</ele>
        <time>2022-08-18T20:06:56Z</time>
      </trkpt>
      <trkpt lat="42.391199000000015" lon="1.599912000000001">
        <ele>1409.509</ele>
        <time>2022-08-18T20:06:58Z</time>
      </trkpt>
      <trkpt lat="42.39124600000002" lon="1.5999370000000008">
        <ele>1409.287</ele>
        <time>2022-08-18T20:07:01Z</time>
      </trkpt>
      <trkpt lat="42.391250000000014" lon="1.5999990000000008">
        <ele>1408.587</ele>
        <time>2022-08-18T20:07:05Z</time>
      </trkpt>
      <trkpt lat="42.39129600000001" lon="1.6000290000000008">
        <ele>1407.917</ele>
        <time>2022-08-18T20:07:08Z</time>
      </trkpt>
      <trkpt lat="42.39133900000001" lon="1.6000640000000008">
        <ele>1407.366</ele>
        <time>2022-08-18T20:07:11Z</time>
      </trkpt>
      <trkpt lat="42.39135400000001" lon="1.6001220000000007">
        <ele>1406.733</ele>
        <time>2022-08-18T20:07:15Z</time>
      </trkpt>
      <trkpt lat="42.391377000000006" lon="1.6001960000000006">
        <ele>1406.150</ele>
        <time>2022-08-18T20:07:19Z</time>
      </trkpt>
      <trkpt lat="42.391391000000006" lon="1.6002710000000007">
        <ele>1405.686</ele>
        <time>2022-08-18T20:07:22Z</time>
      </trkpt>
      <trkpt lat="42.391363000000005" lon="1.6003350000000007">
        <ele>1404.868</ele>
        <time>2022-08-18T20:07:25Z</time>
      </trkpt>
      <trkpt lat="42.391363000000005" lon="1.6004120000000008">
        <ele>1399.920</ele>
        <time>2022-08-18T20:07:45Z</time>
      </trkpt>
      <trkpt lat="42.39134200000001" lon="1.6004720000000008">
        <ele>1398.887</ele>
        <time>2022-08-18T20:07:48Z</time>
      </trkpt>
      <trkpt lat="42.39134200000001" lon="1.6005420000000008">
        <ele>1397.942</ele>
        <time>2022-08-18T20:07:51Z</time>
      </trkpt>
      <trkpt lat="42.39134200000001" lon="1.6006120000000008">
        <ele>1395.826</ele>
        <time>2022-08-18T20:07:54Z</time>
      </trkpt>
      <trkpt lat="42.39136100000001" lon="1.6006760000000009">
        <ele>1389.709</ele>
        <time>2022-08-18T20:08:07Z</time>
      </trkpt>
      <trkpt lat="42.391354000000014" lon="1.6007390000000008">
        <ele>1389.119</ele>
        <time>2022-08-18T20:08:13Z</time>
      </trkpt>
      <trkpt lat="42.39138900000001" lon="1.6007860000000007">
        <ele>1388.289</ele>
        <time>2022-08-18T20:08:19Z</time>
      </trkpt>
      <trkpt lat="42.39143100000001" lon="1.6008190000000007">
        <ele>1387.679</ele>
        <time>2022-08-18T20:08:25Z</time>
      </trkpt>
      <trkpt lat="42.39145100000001" lon="1.6008770000000005">
        <ele>1386.648</ele>
        <time>2022-08-18T20:08:36Z</time>
      </trkpt>
      <trkpt lat="42.39165200000001" lon="1.6010200000000006">
        <ele>1386.575</ele>
        <time>2022-08-18T20:08:39Z</time>
      </trkpt>
      <trkpt lat="42.39160900000001" lon="1.6010470000000006">
        <ele>1385.692</ele>
        <time>2022-08-18T20:08:41Z</time>
      </trkpt>
      <trkpt lat="42.39156600000001" lon="1.6010830000000005">
        <ele>1384.518</ele>
        <time>2022-08-18T20:08:44Z</time>
      </trkpt>
      <trkpt lat="42.391537000000014" lon="1.6011560000000005">
        <ele>1383.470</ele>
        <time>2022-08-18T20:08:50Z</time>
      </trkpt>
      <trkpt lat="42.391506000000014" lon="1.6012190000000004">
        <ele>1382.522</ele>
        <time>2022-08-18T20:08:54Z</time>
      </trkpt>
      <trkpt lat="42.39146500000001" lon="1.6012620000000004">
        <ele>1382.267</ele>
        <time>2022-08-18T20:08:57Z</time>
      </trkpt>
      <trkpt lat="42.39143200000001" lon="1.6013130000000004">
        <ele>1381.381</ele>
        <time>2022-08-18T20:09:07Z</time>
      </trkpt>
      <trkpt lat="42.39139200000001" lon="1.6013530000000005">
        <ele>1379.619</ele>
        <time>2022-08-18T20:09:13Z</time>
      </trkpt>
      <trkpt lat="42.39138300000001" lon="1.6014220000000006">
        <ele>1378.809</ele>
        <time>2022-08-18T20:09:15Z</time>
      </trkpt>
      <trkpt lat="42.391376000000015" lon="1.6014900000000005">
        <ele>1377.447</ele>
        <time>2022-08-18T20:09:18Z</time>
      </trkpt>
      <trkpt lat="42.39138300000001" lon="1.6015590000000006">
        <ele>1376.397</ele>
        <time>2022-08-18T20:09:21Z</time>
      </trkpt>
      <trkpt lat="42.391416000000014" lon="1.6016070000000007">
        <ele>1371.467</ele>
        <time>2022-08-18T20:09:33Z</time>
      </trkpt>
      <trkpt lat="42.391402000000014" lon="1.6016910000000006">
        <ele>1369.736</ele>
        <time>2022-08-18T20:09:36Z</time>
      </trkpt>
      <trkpt lat="42.391385000000014" lon="1.6017480000000006">
        <ele>1368.623</ele>
        <time>2022-08-18T20:09:39Z</time>
      </trkpt>
      <trkpt lat="42.39134700000001" lon="1.6018230000000007">
        <ele>1361.690</ele>
        <time>2022-08-18T20:10:21Z</time>
      </trkpt>
      <trkpt lat="42.39138900000001" lon="1.6018530000000006">
        <ele>1361.646</ele>
        <time>2022-08-18T20:10:29Z</time>
      </trkpt>
      <trkpt lat="42.39138300000001" lon="1.6019240000000006">
        <ele>1361.638</ele>
        <time>2022-08-18T20:10:32Z</time>
      </trkpt>
      <trkpt lat="42.39135600000001" lon="1.6019840000000005">
        <ele>1361.630</ele>
        <time>2022-08-18T20:10:36Z</time>
      </trkpt>
      <trkpt lat="42.39131700000001" lon="1.6020290000000006">
        <ele>1359.196</ele>
        <time>2022-08-18T20:10:40Z</time>
      </trkpt>
      <trkpt lat="42.39127100000001" lon="1.6020230000000006">
        <ele>1356.131</ele>
        <time>2022-08-18T20:10:50Z</time>
      </trkpt>
      <trkpt lat="42.39123700000001" lon="1.6020680000000007">
        <ele>1355.124</ele>
        <time>2022-08-18T20:10:53Z</time>
      </trkpt>
      <trkpt lat="42.39121300000001" lon="1.6021310000000006">
        <ele>1354.309</ele>
        <time>2022-08-18T20:10:55Z</time>
      </trkpt>
      <trkpt lat="42.39118500000001" lon="1.6021850000000006">
        <ele>1352.330</ele>
        <time>2022-08-18T20:10:58Z</time>
      </trkpt>
      <trkpt lat="42.39113700000001" lon="1.6022350000000007">
        <ele>1350.740</ele>
        <time>2022-08-18T20:11:01Z</time>
      </trkpt>
      <trkpt lat="42.39110300000001" lon="1.6022790000000007">
        <ele>1349.230</ele>
        <time>2022-08-18T20:11:04Z</time>
      </trkpt>
      <trkpt lat="42.39112900000001" lon="1.6023460000000007">
        <ele>1347.599</ele>
        <time>2022-08-18T20:11:08Z</time>
      </trkpt>
      <trkpt lat="42.391130000000004" lon="1.6024180000000008">
        <ele>1346.446</ele>
        <time>2022-08-18T20:11:11Z</time>
      </trkpt>
      <trkpt lat="42.391069" lon="1.6024100000000008">
        <ele>1344.653</ele>
        <time>2022-08-18T20:11:16Z</time>
      </trkpt>
      <trkpt lat="42.391037000000004" lon="1.6024560000000008">
        <ele>1343.169</ele>
        <time>2022-08-18T20:11:21Z</time>
      </trkpt>
      <trkpt lat="42.391027" lon="1.6025190000000007">
        <ele>1341.531</ele>
        <time>2022-08-18T20:11:25Z</time>
      </trkpt>
      <trkpt lat="42.391044" lon="1.6025770000000006">
        <ele>1340.553</ele>
        <time>2022-08-18T20:11:28Z</time>
      </trkpt>
      <trkpt lat="42.391043" lon="1.6026400000000005">
        <ele>1339.437</ele>
        <time>2022-08-18T20:11:31Z</time>
      </trkpt>
      <trkpt lat="42.390999" lon="1.6026570000000004">
        <ele>1337.549</ele>
        <time>2022-08-18T20:11:37Z</time>
      </trkpt>
      <trkpt lat="42.390956" lon="1.6027050000000005">
        <ele>1336.213</ele>
        <time>2022-08-18T20:11:40Z</time>
      </trkpt>
      <trkpt lat="42.390903" lon="1.6027140000000004">
        <ele>1334.809</ele>
        <time>2022-08-18T20:11:44Z</time>
      </trkpt>
      <trkpt lat="42.39089" lon="1.6026540000000005">
        <ele>1332.514</ele>
        <time>2022-08-18T20:11:51Z</time>
      </trkpt>
      <trkpt lat="42.390845999999996" lon="1.6027130000000005">
        <ele>1330.454</ele>
        <time>2022-08-18T20:11:59Z</time>
      </trkpt>
      <trkpt lat="42.390798999999994" lon="1.6027170000000004">
        <ele>1327.544</ele>
        <time>2022-08-18T20:12:04Z</time>
      </trkpt>
      <trkpt lat="42.39077499999999" lon="1.6027710000000004">
        <ele>1326.793</ele>
        <time>2022-08-18T20:12:08Z</time>
      </trkpt>
      <trkpt lat="42.39082099999999" lon="1.6027980000000004">
        <ele>1325.460</ele>
        <time>2022-08-18T20:12:12Z</time>
      </trkpt>
      <trkpt lat="42.39086899999999" lon="1.6028040000000003">
        <ele>1322.057</ele>
        <time>2022-08-18T20:12:21Z</time>
      </trkpt>
      <trkpt lat="42.39080899999999" lon="1.6028190000000004">
        <ele>1320.933</ele>
        <time>2022-08-18T20:12:24Z</time>
      </trkpt>
      <trkpt lat="42.39077799999999" lon="1.6028660000000003">
        <ele>1319.425</ele>
        <time>2022-08-18T20:12:28Z</time>
      </trkpt>
      <trkpt lat="42.39078399999999" lon="1.6029320000000002">
        <ele>1318.447</ele>
        <time>2022-08-18T20:12:31Z</time>
      </trkpt>
      <trkpt lat="42.39075299999999" lon="1.6029850000000003">
        <ele>1316.732</ele>
        <time>2022-08-18T20:12:36Z</time>
      </trkpt>
      <trkpt lat="42.39071099999999" lon="1.6030170000000004">
        <ele>1313.292</ele>
        <time>2022-08-18T20:12:54Z</time>
      </trkpt>
      <trkpt lat="42.39070299999999" lon="1.6030880000000003">
        <ele>1312.911</ele>
        <time>2022-08-18T20:12:59Z</time>
      </trkpt>
      <trkpt lat="42.390714999999986" lon="1.6031500000000003">
        <ele>1312.909</ele>
        <time>2022-08-18T20:13:04Z</time>
      </trkpt>
      <trkpt lat="42.39070799999999" lon="1.6032180000000003">
        <ele>1312.864</ele>
        <time>2022-08-18T20:13:11Z</time>
      </trkpt>
      <trkpt lat="42.39072399999999" lon="1.6032910000000002">
        <ele>1311.754</ele>
        <time>2022-08-18T20:13:15Z</time>
      </trkpt>
      <trkpt lat="42.39072699999999" lon="1.6033740000000003">
        <ele>1309.854</ele>
        <time>2022-08-18T20:13:19Z</time>
      </trkpt>
      <trkpt lat="42.39070799999999" lon="1.6034330000000003">
        <ele>1308.253</ele>
        <time>2022-08-18T20:13:23Z</time>
      </trkpt>
      <trkpt lat="42.39069099999999" lon="1.6035030000000003">
        <ele>1306.530</ele>
        <time>2022-08-18T20:13:28Z</time>
      </trkpt>
      <trkpt lat="42.39067399999999" lon="1.6035740000000003">
        <ele>1305.067</ele>
        <time>2022-08-18T20:13:34Z</time>
      </trkpt>
      <trkpt lat="42.39065799999999" lon="1.6036380000000003">
        <ele>1302.923</ele>
        <time>2022-08-18T20:13:42Z</time>
      </trkpt>
      <trkpt lat="42.39060999999999" lon="1.6036450000000004">
        <ele>1300.465</ele>
        <time>2022-08-18T20:13:52Z</time>
      </trkpt>
      <trkpt lat="42.39056399999999" lon="1.6036390000000005">
        <ele>1299.237</ele>
        <time>2022-08-18T20:13:57Z</time>
      </trkpt>
      <trkpt lat="42.39053699999999" lon="1.6035820000000005">
        <ele>1298.276</ele>
        <time>2022-08-18T20:14:03Z</time>
      </trkpt>
      <trkpt lat="42.39048799999999" lon="1.6035460000000006">
        <ele>1296.690</ele>
        <time>2022-08-18T20:14:07Z</time>
      </trkpt>
      <trkpt lat="42.39042399999999" lon="1.6035260000000007">
        <ele>1294.619</ele>
        <time>2022-08-18T20:14:10Z</time>
      </trkpt>
      <trkpt lat="42.39038799999999" lon="1.6035740000000007">
        <ele>1291.609</ele>
        <time>2022-08-18T20:14:14Z</time>
      </trkpt>
      <trkpt lat="42.39039599999999" lon="1.6036370000000006">
        <ele>1290.688</ele>
        <time>2022-08-18T20:14:18Z</time>
      </trkpt>
      <trkpt lat="42.39039299999999" lon="1.6037030000000005">
        <ele>1288.618</ele>
        <time>2022-08-18T20:14:23Z</time>
      </trkpt>
      <trkpt lat="42.390424999999986" lon="1.6037470000000005">
        <ele>1287.538</ele>
        <time>2022-08-18T20:14:26Z</time>
      </trkpt>
      <trkpt lat="42.390439999999984" lon="1.6038050000000004">
        <ele>1286.647</ele>
        <time>2022-08-18T20:14:29Z</time>
      </trkpt>
      <trkpt lat="42.39043499999998" lon="1.6038670000000004">
        <ele>1285.474</ele>
        <time>2022-08-18T20:14:33Z</time>
      </trkpt>
      <trkpt lat="42.39040099999998" lon="1.6038110000000003">
        <ele>1283.771</ele>
        <time>2022-08-18T20:14:41Z</time>
      </trkpt>
      <trkpt lat="42.390357999999985" lon="1.6037700000000004">
        <ele>1282.487</ele>
        <time>2022-08-18T20:14:44Z</time>
      </trkpt>
      <trkpt lat="42.390306999999986" lon="1.6037430000000004">
        <ele>1280.959</ele>
        <time>2022-08-18T20:14:47Z</time>
      </trkpt>
      <trkpt lat="42.39025799999999" lon="1.6037230000000005">
        <ele>1279.151</ele>
        <time>2022-08-18T20:14:51Z</time>
      </trkpt>
      <trkpt lat="42.390216999999986" lon="1.6036880000000004">
        <ele>1277.373</ele>
        <time>2022-08-18T20:14:56Z</time>
      </trkpt>
      <trkpt lat="42.39020999999999" lon="1.6037500000000005">
        <ele>1275.985</ele>
        <time>2022-08-18T20:15:02Z</time>
      </trkpt>
      <trkpt lat="42.39018499999999" lon="1.6038140000000005">
        <ele>1274.713</ele>
        <time>2022-08-18T20:15:07Z</time>
      </trkpt>
      <trkpt lat="42.390171999999986" lon="1.6038810000000006">
        <ele>1274.209</ele>
        <time>2022-08-18T20:15:10Z</time>
      </trkpt>
      <trkpt lat="42.390152999999984" lon="1.6039410000000005">
        <ele>1272.858</ele>
        <time>2022-08-18T20:15:13Z</time>
      </trkpt>
      <trkpt lat="42.39018699999998" lon="1.6039920000000005">
        <ele>1271.978</ele>
        <time>2022-08-18T20:15:17Z</time>
      </trkpt>
      <trkpt lat="42.39021499999998" lon="1.6040590000000006">
        <ele>1270.228</ele>
        <time>2022-08-18T20:15:21Z</time>
      </trkpt>
      <trkpt lat="42.390199999999986" lon="1.6041280000000007">
        <ele>1268.237</ele>
        <time>2022-08-18T20:15:26Z</time>
      </trkpt>
      <trkpt lat="42.390205999999985" lon="1.6041900000000007">
        <ele>1267.284</ele>
        <time>2022-08-18T20:15:31Z</time>
      </trkpt>
      <trkpt lat="42.390225999999984" lon="1.6042520000000007">
        <ele>1266.371</ele>
        <time>2022-08-18T20:15:35Z</time>
      </trkpt>
      <trkpt lat="42.390242999999984" lon="1.6043230000000006">
        <ele>1265.347</ele>
        <time>2022-08-18T20:15:39Z</time>
      </trkpt>
      <trkpt lat="42.39027499999998" lon="1.6043790000000007">
        <ele>1264.329</ele>
        <time>2022-08-18T20:15:42Z</time>
      </trkpt>
      <trkpt lat="42.390315999999984" lon="1.6044370000000006">
        <ele>1262.921</ele>
        <time>2022-08-18T20:15:46Z</time>
      </trkpt>
      <trkpt lat="42.39029499999999" lon="1.6045080000000005">
        <ele>1261.426</ele>
        <time>2022-08-18T20:15:51Z</time>
      </trkpt>
      <trkpt lat="42.39026899999999" lon="1.6045730000000005">
        <ele>1260.647</ele>
        <time>2022-08-18T20:15:54Z</time>
      </trkpt>
      <trkpt lat="42.39027199999999" lon="1.6046380000000005">
        <ele>1259.911</ele>
        <time>2022-08-18T20:15:58Z</time>
      </trkpt>
      <trkpt lat="42.390258999999986" lon="1.6047070000000005">
        <ele>1258.909</ele>
        <time>2022-08-18T20:16:01Z</time>
      </trkpt>
      <trkpt lat="42.39024899999998" lon="1.6047900000000006">
        <ele>1257.093</ele>
        <time>2022-08-18T20:16:06Z</time>
      </trkpt>
      <trkpt lat="42.390241999999986" lon="1.6048560000000005">
        <ele>1255.173</ele>
        <time>2022-08-18T20:16:10Z</time>
      </trkpt>
      <trkpt lat="42.39021599999999" lon="1.6049090000000006">
        <ele>1252.333</ele>
        <time>2022-08-18T20:16:14Z</time>
      </trkpt>
      <trkpt lat="42.39021599999999" lon="1.6049730000000006">
        <ele>1251.362</ele>
        <time>2022-08-18T20:16:18Z</time>
      </trkpt>
      <trkpt lat="42.390191999999985" lon="1.6050380000000006">
        <ele>1250.219</ele>
        <time>2022-08-18T20:16:23Z</time>
      </trkpt>
      <trkpt lat="42.39017999999999" lon="1.6051030000000006">
        <ele>1247.826</ele>
        <time>2022-08-18T20:16:31Z</time>
      </trkpt>
      <trkpt lat="42.39018799999999" lon="1.6051890000000006">
        <ele>1245.642</ele>
        <time>2022-08-18T20:16:37Z</time>
      </trkpt>
      <trkpt lat="42.39020399999999" lon="1.6052500000000007">
        <ele>1243.764</ele>
        <time>2022-08-18T20:16:40Z</time>
      </trkpt>
      <trkpt lat="42.39021499999999" lon="1.6053220000000008">
        <ele>1242.066</ele>
        <time>2022-08-18T20:16:44Z</time>
      </trkpt>
      <trkpt lat="42.39023099999999" lon="1.6053900000000008">
        <ele>1240.653</ele>
        <time>2022-08-18T20:16:48Z</time>
      </trkpt>
      <trkpt lat="42.39025399999999" lon="1.6054500000000007">
        <ele>1238.804</ele>
        <time>2022-08-18T20:16:53Z</time>
      </trkpt>
      <trkpt lat="42.39028299999999" lon="1.6055000000000008">
        <ele>1237.914</ele>
        <time>2022-08-18T20:16:57Z</time>
      </trkpt>
      <trkpt lat="42.39028699999999" lon="1.6055700000000008">
        <ele>1237.209</ele>
        <time>2022-08-18T20:17:00Z</time>
      </trkpt>
      <trkpt lat="42.39028599999999" lon="1.6056550000000007">
        <ele>1236.466</ele>
        <time>2022-08-18T20:17:04Z</time>
      </trkpt>
      <trkpt lat="42.39031099999999" lon="1.6057280000000007">
        <ele>1235.836</ele>
        <time>2022-08-18T20:17:07Z</time>
      </trkpt>
      <trkpt lat="42.39029599999999" lon="1.6057940000000006">
        <ele>1235.156</ele>
        <time>2022-08-18T20:17:10Z</time>
      </trkpt>
      <trkpt lat="42.39027699999999" lon="1.6058620000000006">
        <ele>1233.525</ele>
        <time>2022-08-18T20:17:13Z</time>
      </trkpt>
      <trkpt lat="42.39026299999999" lon="1.6059240000000006">
        <ele>1233.082</ele>
        <time>2022-08-18T20:17:16Z</time>
      </trkpt>
      <trkpt lat="42.39025099999999" lon="1.6059860000000006">
        <ele>1232.459</ele>
        <time>2022-08-18T20:17:19Z</time>
      </trkpt>
      <trkpt lat="42.39025399999999" lon="1.6060580000000007">
        <ele>1231.855</ele>
        <time>2022-08-18T20:17:22Z</time>
      </trkpt>
      <trkpt lat="42.39025499999999" lon="1.6061380000000007">
        <ele>1231.177</ele>
        <time>2022-08-18T20:17:26Z</time>
      </trkpt>
      <trkpt lat="42.39026499999999" lon="1.6062040000000006">
        <ele>1230.269</ele>
        <time>2022-08-18T20:17:30Z</time>
      </trkpt>
      <trkpt lat="42.390266999999994" lon="1.6062700000000005">
        <ele>1229.094</ele>
        <time>2022-08-18T20:17:34Z</time>
      </trkpt>
      <trkpt lat="42.390300999999994" lon="1.6063300000000005">
        <ele>1227.857</ele>
        <time>2022-08-18T20:17:38Z</time>
      </trkpt>
      <trkpt lat="42.39031899999999" lon="1.6063960000000004">
        <ele>1226.622</ele>
        <time>2022-08-18T20:17:42Z</time>
      </trkpt>
      <trkpt lat="42.39033899999999" lon="1.6064550000000004">
        <ele>1225.109</ele>
        <time>2022-08-18T20:17:47Z</time>
      </trkpt>
      <trkpt lat="42.39033299999999" lon="1.6065260000000003">
        <ele>1223.630</ele>
        <time>2022-08-18T20:17:54Z</time>
      </trkpt>
      <trkpt lat="42.39032299999999" lon="1.6066060000000004">
        <ele>1222.780</ele>
        <time>2022-08-18T20:17:58Z</time>
      </trkpt>
      <trkpt lat="42.390309999999985" lon="1.6066840000000004">
        <ele>1221.330</ele>
        <time>2022-08-18T20:18:03Z</time>
      </trkpt>
      <trkpt lat="42.39029199999999" lon="1.6067540000000005">
        <ele>1220.189</ele>
        <time>2022-08-18T20:18:07Z</time>
      </trkpt>
      <trkpt lat="42.39025799999999" lon="1.6068020000000005">
        <ele>1219.656</ele>
        <time>2022-08-18T20:18:12Z</time>
      </trkpt>
      <trkpt lat="42.39021599999999" lon="1.6068240000000005">
        <ele>1219.573</ele>
        <time>2022-08-18T20:18:17Z</time>
      </trkpt>
      <trkpt lat="42.39016499999999" lon="1.6068440000000004">
        <ele>1219.489</ele>
        <time>2022-08-18T20:18:20Z</time>
      </trkpt>
      <trkpt lat="42.39011299999999" lon="1.6068600000000004">
        <ele>1219.371</ele>
        <time>2022-08-18T20:18:24Z</time>
      </trkpt>
      <trkpt lat="42.390063999999995" lon="1.6068880000000003">
        <ele>1218.843</ele>
        <time>2022-08-18T20:18:29Z</time>
      </trkpt>
      <trkpt lat="42.390015999999996" lon="1.6069180000000003">
        <ele>1217.278</ele>
        <time>2022-08-18T20:18:35Z</time>
      </trkpt>
      <trkpt lat="42.389973" lon="1.6069670000000003">
        <ele>1216.633</ele>
        <time>2022-08-18T20:18:40Z</time>
      </trkpt>
      <trkpt lat="42.389939" lon="1.6070420000000003">
        <ele>1216.526</ele>
        <time>2022-08-18T20:18:43Z</time>
      </trkpt>
      <trkpt lat="42.389907" lon="1.6071100000000003">
        <ele>1216.409</ele>
        <time>2022-08-18T20:18:45Z</time>
      </trkpt>
      <trkpt lat="42.389871" lon="1.6071780000000002">
        <ele>1216.378</ele>
        <time>2022-08-18T20:18:47Z</time>
      </trkpt>
      <trkpt lat="42.389722" lon="1.6082410000000003">
        <ele>1216.428</ele>
        <time>2022-08-18T20:19:54Z</time>
      </trkpt>
      <trkpt lat="42.389758" lon="1.6082820000000002">
        <ele>1217.948</ele>
        <time>2022-08-18T20:20:04Z</time>
      </trkpt>
      <trkpt lat="42.389758" lon="1.6083460000000003">
        <ele>1217.947</ele>
        <time>2022-08-18T20:20:08Z</time>
      </trkpt>
      <trkpt lat="42.38974" lon="1.6084040000000002">
        <ele>1217.824</ele>
        <time>2022-08-18T20:20:11Z</time>
      </trkpt>
      <trkpt lat="42.389666000000005" lon="1.608602">
        <ele>1217.841</ele>
        <time>2022-08-18T20:20:18Z</time>
      </trkpt>
      <trkpt lat="42.38964800000001" lon="1.608703">
        <ele>1217.577</ele>
        <time>2022-08-18T20:20:37Z</time>
      </trkpt>
      <trkpt lat="42.389649000000006" lon="1.608772">
        <ele>1217.599</ele>
        <time>2022-08-18T20:20:42Z</time>
      </trkpt>
      <trkpt lat="42.389638000000005" lon="1.6088360000000002">
        <ele>1217.581</ele>
        <time>2022-08-18T20:20:45Z</time>
      </trkpt>
      <trkpt lat="42.38962300000001" lon="1.6090110000000002">
        <ele>1217.585</ele>
        <time>2022-08-18T20:20:52Z</time>
      </trkpt>
      <trkpt lat="42.38954400000001" lon="1.6093270000000002">
        <ele>1217.889</ele>
        <time>2022-08-18T20:20:54Z</time>
      </trkpt>
      <trkpt lat="42.38949300000001" lon="1.6093490000000001">
        <ele>1218.217</ele>
        <time>2022-08-18T20:21:00Z</time>
      </trkpt>
      <trkpt lat="42.389466000000006" lon="1.6094050000000002">
        <ele>1218.209</ele>
        <time>2022-08-18T20:21:06Z</time>
      </trkpt>
      <trkpt lat="42.38942600000001" lon="1.6094540000000002">
        <ele>1218.149</ele>
        <time>2022-08-18T20:21:12Z</time>
      </trkpt>
      <trkpt lat="42.389390000000006" lon="1.609493">
        <ele>1217.869</ele>
        <time>2022-08-18T20:21:17Z</time>
      </trkpt>
      <trkpt lat="42.389373000000006" lon="1.609555">
        <ele>1217.659</ele>
        <time>2022-08-18T20:21:22Z</time>
      </trkpt>
      <trkpt lat="42.38936100000001" lon="1.609621">
        <ele>1217.388</ele>
        <time>2022-08-18T20:21:27Z</time>
      </trkpt>
      <trkpt lat="42.38937000000001" lon="1.609691">
        <ele>1217.025</ele>
        <time>2022-08-18T20:21:31Z</time>
      </trkpt>
      <trkpt lat="42.38936400000001" lon="1.609816">
        <ele>1216.662</ele>
        <time>2022-08-18T20:21:48Z</time>
      </trkpt>
      <trkpt lat="42.389317000000005" lon="1.609934">
        <ele>1216.578</ele>
        <time>2022-08-18T20:21:50Z</time>
      </trkpt>
      <trkpt lat="42.38929400000001" lon="1.610025">
        <ele>1216.580</ele>
        <time>2022-08-18T20:21:52Z</time>
      </trkpt>
      <trkpt lat="42.38929300000001" lon="1.610096">
        <ele>1214.942</ele>
        <time>2022-08-18T20:21:54Z</time>
      </trkpt>
      <trkpt lat="42.38928600000001" lon="1.610169">
        <ele>1214.687</ele>
        <time>2022-08-18T20:21:58Z</time>
      </trkpt>
      <trkpt lat="42.389249000000014" lon="1.61023">
        <ele>1214.342</ele>
        <time>2022-08-18T20:22:02Z</time>
      </trkpt>
      <trkpt lat="42.38922800000002" lon="1.6103">
        <ele>1213.826</ele>
        <time>2022-08-18T20:22:06Z</time>
      </trkpt>
      <trkpt lat="42.38919900000002" lon="1.61036">
        <ele>1212.809</ele>
        <time>2022-08-18T20:22:14Z</time>
      </trkpt>
      <trkpt lat="42.389172000000016" lon="1.610433">
        <ele>1212.249</ele>
        <time>2022-08-18T20:22:18Z</time>
      </trkpt>
      <trkpt lat="42.389161000000016" lon="1.610498">
        <ele>1211.599</ele>
        <time>2022-08-18T20:22:21Z</time>
      </trkpt>
      <trkpt lat="42.38911700000001" lon="1.610533">
        <ele>1211.529</ele>
        <time>2022-08-18T20:22:24Z</time>
      </trkpt>
      <trkpt lat="42.389074000000015" lon="1.610566">
        <ele>1211.378</ele>
        <time>2022-08-18T20:22:30Z</time>
      </trkpt>
      <trkpt lat="42.38905300000002" lon="1.610636">
        <ele>1210.655</ele>
        <time>2022-08-18T20:22:34Z</time>
      </trkpt>
      <trkpt lat="42.38901000000002" lon="1.610689">
        <ele>1209.192</ele>
        <time>2022-08-18T20:22:37Z</time>
      </trkpt>
      <trkpt lat="42.38899100000002" lon="1.610762">
        <ele>1207.688</ele>
        <time>2022-08-18T20:22:40Z</time>
      </trkpt>
      <trkpt lat="42.38893900000002" lon="1.610811">
        <ele>1205.880</ele>
        <time>2022-08-18T20:22:44Z</time>
      </trkpt>
      <trkpt lat="42.388904000000025" lon="1.610875">
        <ele>1204.072</ele>
        <time>2022-08-18T20:22:47Z</time>
      </trkpt>
      <trkpt lat="42.38889700000003" lon="1.610945">
        <ele>1202.347</ele>
        <time>2022-08-18T20:22:50Z</time>
      </trkpt>
      <trkpt lat="42.388901000000025" lon="1.611015">
        <ele>1200.929</ele>
        <time>2022-08-18T20:22:54Z</time>
      </trkpt>
      <trkpt lat="42.388915000000026" lon="1.6110870000000002">
        <ele>1199.221</ele>
        <time>2022-08-18T20:22:58Z</time>
      </trkpt>
      <trkpt lat="42.38888600000003" lon="1.6111430000000002">
        <ele>1197.509</ele>
        <time>2022-08-18T20:23:02Z</time>
      </trkpt>
      <trkpt lat="42.38885400000003" lon="1.6112060000000001">
        <ele>1195.665</ele>
        <time>2022-08-18T20:23:07Z</time>
      </trkpt>
      <trkpt lat="42.388878000000034" lon="1.6112620000000002">
        <ele>1194.515</ele>
        <time>2022-08-18T20:23:10Z</time>
      </trkpt>
      <trkpt lat="42.38889100000004" lon="1.6113230000000003">
        <ele>1192.925</ele>
        <time>2022-08-18T20:23:14Z</time>
      </trkpt>
      <trkpt lat="42.388900000000035" lon="1.6113940000000002">
        <ele>1191.324</ele>
        <time>2022-08-18T20:23:19Z</time>
      </trkpt>
      <trkpt lat="42.38889900000004" lon="1.6114560000000002">
        <ele>1189.761</ele>
        <time>2022-08-18T20:23:23Z</time>
      </trkpt>
      <trkpt lat="42.38890400000004" lon="1.6115200000000003">
        <ele>1189.078</ele>
        <time>2022-08-18T20:23:27Z</time>
      </trkpt>
      <trkpt lat="42.38892700000004" lon="1.6115930000000003">
        <ele>1188.264</ele>
        <time>2022-08-18T20:23:31Z</time>
      </trkpt>
      <trkpt lat="42.38893800000004" lon="1.6116660000000003">
        <ele>1187.436</ele>
        <time>2022-08-18T20:23:34Z</time>
      </trkpt>
      <trkpt lat="42.38895800000004" lon="1.6117210000000002">
        <ele>1186.648</ele>
        <time>2022-08-18T20:23:37Z</time>
      </trkpt>
      <trkpt lat="42.388973000000036" lon="1.611784">
        <ele>1185.645</ele>
        <time>2022-08-18T20:23:40Z</time>
      </trkpt>
      <trkpt lat="42.388984000000036" lon="1.611849">
        <ele>1184.047</ele>
        <time>2022-08-18T20:23:45Z</time>
      </trkpt>
      <trkpt lat="42.389035000000035" lon="1.6118730000000001">
        <ele>1182.511</ele>
        <time>2022-08-18T20:23:49Z</time>
      </trkpt>
      <trkpt lat="42.389086000000034" lon="1.611884">
        <ele>1181.309</ele>
        <time>2022-08-18T20:23:52Z</time>
      </trkpt>
      <trkpt lat="42.38914400000004" lon="1.611911">
        <ele>1180.155</ele>
        <time>2022-08-18T20:23:56Z</time>
      </trkpt>
      <trkpt lat="42.38918000000004" lon="1.6119780000000001">
        <ele>1179.235</ele>
        <time>2022-08-18T20:23:59Z</time>
      </trkpt>
      <trkpt lat="42.38919600000004" lon="1.6120500000000002">
        <ele>1178.945</ele>
        <time>2022-08-18T20:24:02Z</time>
      </trkpt>
      <trkpt lat="42.38921400000004" lon="1.6121090000000002">
        <ele>1178.854</ele>
        <time>2022-08-18T20:24:05Z</time>
      </trkpt>
      <trkpt lat="42.38923400000004" lon="1.6121840000000003">
        <ele>1178.721</ele>
        <time>2022-08-18T20:24:09Z</time>
      </trkpt>
      <trkpt lat="42.38927000000004" lon="1.6122230000000002">
        <ele>1178.318</ele>
        <time>2022-08-18T20:24:13Z</time>
      </trkpt>
      <trkpt lat="42.38930100000004" lon="1.612281">
        <ele>1176.534</ele>
        <time>2022-08-18T20:24:24Z</time>
      </trkpt>
      <trkpt lat="42.38933900000004" lon="1.6123260000000001">
        <ele>1176.326</ele>
        <time>2022-08-18T20:24:29Z</time>
      </trkpt>
      <trkpt lat="42.38939300000004" lon="1.612346">
        <ele>1176.268</ele>
        <time>2022-08-18T20:24:43Z</time>
      </trkpt>
      <trkpt lat="42.38944500000004" lon="1.612362">
        <ele>1176.053</ele>
        <time>2022-08-18T20:24:54Z</time>
      </trkpt>
      <trkpt lat="42.38949300000004" lon="1.612378">
        <ele>1176.004</ele>
        <time>2022-08-18T20:24:57Z</time>
      </trkpt>
      <trkpt lat="42.389542000000034" lon="1.6123930000000002">
        <ele>1175.814</ele>
        <time>2022-08-18T20:25:00Z</time>
      </trkpt>
      <trkpt lat="42.389589000000036" lon="1.6124000000000003">
        <ele>1175.609</ele>
        <time>2022-08-18T20:25:03Z</time>
      </trkpt>
      <trkpt lat="42.38963300000004" lon="1.6124200000000002">
        <ele>1175.346</ele>
        <time>2022-08-18T20:25:06Z</time>
      </trkpt>
      <trkpt lat="42.38968300000004" lon="1.612459">
        <ele>1174.816</ele>
        <time>2022-08-18T20:25:10Z</time>
      </trkpt>
      <trkpt lat="42.38972900000004" lon="1.612483">
        <ele>1173.986</ele>
        <time>2022-08-18T20:25:18Z</time>
      </trkpt>
      <trkpt lat="42.389781000000035" lon="1.61251">
        <ele>1173.435</ele>
        <time>2022-08-18T20:25:23Z</time>
      </trkpt>
      <trkpt lat="42.38982100000003" lon="1.612565">
        <ele>1173.292</ele>
        <time>2022-08-18T20:25:28Z</time>
      </trkpt>
      <trkpt lat="42.38987200000003" lon="1.6126">
        <ele>1172.969</ele>
        <time>2022-08-18T20:25:32Z</time>
      </trkpt>
      <trkpt lat="42.389896000000036" lon="1.612665">
        <ele>1172.495</ele>
        <time>2022-08-18T20:25:35Z</time>
      </trkpt>
      <trkpt lat="42.389936000000034" lon="1.61271">
        <ele>1171.027</ele>
        <time>2022-08-18T20:25:38Z</time>
      </trkpt>
      <trkpt lat="42.389969000000036" lon="1.612759">
        <ele>1170.189</ele>
        <time>2022-08-18T20:25:41Z</time>
      </trkpt>
      <trkpt lat="42.390001000000034" lon="1.6128090000000002">
        <ele>1168.915</ele>
        <time>2022-08-18T20:25:44Z</time>
      </trkpt>
      <trkpt lat="42.390037000000035" lon="1.612848">
        <ele>1167.765</ele>
        <time>2022-08-18T20:25:47Z</time>
      </trkpt>
      <trkpt lat="42.39007700000003" lon="1.612897">
        <ele>1166.611</ele>
        <time>2022-08-18T20:25:51Z</time>
      </trkpt>
      <trkpt lat="42.390110000000035" lon="1.61295">
        <ele>1162.809</ele>
        <time>2022-08-18T20:26:05Z</time>
      </trkpt>
      <trkpt lat="42.39013100000003" lon="1.6130090000000001">
        <ele>1161.942</ele>
        <time>2022-08-18T20:26:09Z</time>
      </trkpt>
      <trkpt lat="42.39016600000003" lon="1.613058">
        <ele>1161.572</ele>
        <time>2022-08-18T20:26:13Z</time>
      </trkpt>
      <trkpt lat="42.390218000000026" lon="1.6130920000000002">
        <ele>1161.232</ele>
        <time>2022-08-18T20:26:17Z</time>
      </trkpt>
      <trkpt lat="42.39026700000002" lon="1.6130940000000002">
        <ele>1160.321</ele>
        <time>2022-08-18T20:26:23Z</time>
      </trkpt>
      <trkpt lat="42.39030700000002" lon="1.6131230000000003">
        <ele>1157.738</ele>
        <time>2022-08-18T20:26:34Z</time>
      </trkpt>
      <trkpt lat="42.39034900000002" lon="1.6131630000000003">
        <ele>1157.345</ele>
        <time>2022-08-18T20:26:37Z</time>
      </trkpt>
      <trkpt lat="42.39038800000002" lon="1.6131950000000004">
        <ele>1157.061</ele>
        <time>2022-08-18T20:26:41Z</time>
      </trkpt>
      <trkpt lat="42.39042300000002" lon="1.6132440000000003">
        <ele>1156.723</ele>
        <time>2022-08-18T20:26:46Z</time>
      </trkpt>
      <trkpt lat="42.39045400000002" lon="1.6132980000000003">
        <ele>1155.035</ele>
        <time>2022-08-18T20:26:57Z</time>
      </trkpt>
      <trkpt lat="42.39049400000002" lon="1.6133530000000003">
        <ele>1153.313</ele>
        <time>2022-08-18T20:27:01Z</time>
      </trkpt>
      <trkpt lat="42.39050300000002" lon="1.6134170000000003">
        <ele>1153.043</ele>
        <time>2022-08-18T20:27:04Z</time>
      </trkpt>
      <trkpt lat="42.390537000000016" lon="1.6134600000000003">
        <ele>1152.807</ele>
        <time>2022-08-18T20:27:07Z</time>
      </trkpt>
      <trkpt lat="42.39056900000001" lon="1.6135230000000003">
        <ele>1152.009</ele>
        <time>2022-08-18T20:27:11Z</time>
      </trkpt>
      <trkpt lat="42.39061200000001" lon="1.6135760000000003">
        <ele>1150.122</ele>
        <time>2022-08-18T20:27:14Z</time>
      </trkpt>
      <trkpt lat="42.39066200000001" lon="1.6136150000000002">
        <ele>1148.642</ele>
        <time>2022-08-18T20:27:19Z</time>
      </trkpt>
      <trkpt lat="42.390726000000015" lon="1.6136390000000003">
        <ele>1147.632</ele>
        <time>2022-08-18T20:27:22Z</time>
      </trkpt>
      <trkpt lat="42.39077500000001" lon="1.6136760000000003">
        <ele>1146.251</ele>
        <time>2022-08-18T20:27:25Z</time>
      </trkpt>
      <trkpt lat="42.39082100000001" lon="1.6137170000000003">
        <ele>1145.988</ele>
        <time>2022-08-18T20:27:28Z</time>
      </trkpt>
      <trkpt lat="42.39086000000001" lon="1.6137490000000003">
        <ele>1145.375</ele>
        <time>2022-08-18T20:27:31Z</time>
      </trkpt>
      <trkpt lat="42.39089700000001" lon="1.6138010000000003">
        <ele>1144.461</ele>
        <time>2022-08-18T20:27:36Z</time>
      </trkpt>
      <trkpt lat="42.39092900000001" lon="1.6138640000000002">
        <ele>1143.643</ele>
        <time>2022-08-18T20:27:39Z</time>
      </trkpt>
      <trkpt lat="42.39095300000001" lon="1.6139210000000002">
        <ele>1142.185</ele>
        <time>2022-08-18T20:27:48Z</time>
      </trkpt>
      <trkpt lat="42.39096700000001" lon="1.613987">
        <ele>1141.348</ele>
        <time>2022-08-18T20:27:51Z</time>
      </trkpt>
      <trkpt lat="42.39100200000001" lon="1.614044">
        <ele>1140.261</ele>
        <time>2022-08-18T20:27:55Z</time>
      </trkpt>
      <trkpt lat="42.39103500000001" lon="1.614092">
        <ele>1139.517</ele>
        <time>2022-08-18T20:28:00Z</time>
      </trkpt>
      <trkpt lat="42.39108100000001" lon="1.614112">
        <ele>1138.909</ele>
        <time>2022-08-18T20:28:04Z</time>
      </trkpt>
      <trkpt lat="42.391130000000004" lon="1.614128">
        <ele>1137.445</ele>
        <time>2022-08-18T20:28:08Z</time>
      </trkpt>
      <trkpt lat="42.39116800000001" lon="1.614163">
        <ele>1135.725</ele>
        <time>2022-08-18T20:28:13Z</time>
      </trkpt>
      <trkpt lat="42.391225000000006" lon="1.614214">
        <ele>1134.345</ele>
        <time>2022-08-18T20:28:17Z</time>
      </trkpt>
      <trkpt lat="42.391257" lon="1.614278">
        <ele>1132.894</ele>
        <time>2022-08-18T20:28:20Z</time>
      </trkpt>
      <trkpt lat="42.391308" lon="1.614322">
        <ele>1130.871</ele>
        <time>2022-08-18T20:28:24Z</time>
      </trkpt>
      <trkpt lat="42.391298" lon="1.614384">
        <ele>1127.768</ele>
        <time>2022-08-18T20:28:28Z</time>
      </trkpt>
      <trkpt lat="42.391259" lon="1.61445">
        <ele>1126.754</ele>
        <time>2022-08-18T20:28:31Z</time>
      </trkpt>
      <trkpt lat="42.391286" lon="1.614512">
        <ele>1125.556</ele>
        <time>2022-08-18T20:28:35Z</time>
      </trkpt>
      <trkpt lat="42.391337" lon="1.6145049999999999">
        <ele>1124.498</ele>
        <time>2022-08-18T20:28:39Z</time>
      </trkpt>
      <trkpt lat="42.3913" lon="1.6145629999999997">
        <ele>1119.249</ele>
        <time>2022-08-18T20:29:14Z</time>
      </trkpt>
      <trkpt lat="42.391381" lon="1.6144859999999996">
        <ele>1119.202</ele>
        <time>2022-08-18T20:29:20Z</time>
      </trkpt>
      <trkpt lat="42.391415" lon="1.6144399999999997">
        <ele>1119.322</ele>
        <time>2022-08-18T20:29:53Z</time>
      </trkpt>
      <trkpt lat="42.391397000000005" lon="1.6145009999999997">
        <ele>1119.209</ele>
        <time>2022-08-18T20:30:35Z</time>
      </trkpt>
      <trkpt lat="42.391357000000006" lon="1.6145589999999996">
        <ele>1119.265</ele>
        <time>2022-08-18T20:30:37Z</time>
      </trkpt>
      <trkpt lat="42.391301000000006" lon="1.6146709999999995">
        <ele>1119.025</ele>
        <time>2022-08-18T20:30:43Z</time>
      </trkpt>
      <trkpt lat="42.39124900000001" lon="1.6147579999999995">
        <ele>1117.955</ele>
        <time>2022-08-18T20:31:01Z</time>
      </trkpt>
      <trkpt lat="42.39120300000001" lon="1.6147649999999996">
        <ele>1115.324</ele>
        <time>2022-08-18T20:31:05Z</time>
      </trkpt>
      <trkpt lat="42.39116000000001" lon="1.6147869999999995">
        <ele>1114.721</ele>
        <time>2022-08-18T20:31:10Z</time>
      </trkpt>
      <trkpt lat="42.39111300000001" lon="1.6147869999999995">
        <ele>1113.888</ele>
        <time>2022-08-18T20:31:15Z</time>
      </trkpt>
      <trkpt lat="42.39106600000001" lon="1.6147949999999995">
        <ele>1112.884</ele>
        <time>2022-08-18T20:31:19Z</time>
      </trkpt>
      <trkpt lat="42.39024600000001" lon="1.6158349999999995">
        <ele>1112.616</ele>
        <time>2022-08-18T20:31:22Z</time>
      </trkpt>
      <trkpt lat="42.39017300000001" lon="1.6158559999999995">
        <ele>1106.258</ele>
        <time>2022-08-18T20:31:25Z</time>
      </trkpt>
      <trkpt lat="42.390127000000014" lon="1.6158909999999995">
        <ele>1106.013</ele>
        <time>2022-08-18T20:31:27Z</time>
      </trkpt>
      <trkpt lat="42.390076000000015" lon="1.6159209999999995">
        <ele>1105.843</ele>
        <time>2022-08-18T20:31:29Z</time>
      </trkpt>
      <trkpt lat="42.390028000000015" lon="1.6159659999999996">
        <ele>1105.407</ele>
        <time>2022-08-18T20:31:32Z</time>
      </trkpt>
      <trkpt lat="42.389983000000015" lon="1.6159739999999996">
        <ele>1105.309</ele>
        <time>2022-08-18T20:31:33Z</time>
      </trkpt>
      <trkpt lat="42.38991900000001" lon="1.6159879999999995">
        <ele>1104.332</ele>
        <time>2022-08-18T20:31:36Z</time>
      </trkpt>
      <trkpt lat="42.38986700000002" lon="1.6160149999999995">
        <ele>1103.582</ele>
        <time>2022-08-18T20:31:39Z</time>
      </trkpt>
      <trkpt lat="42.38981300000002" lon="1.6160309999999996">
        <ele>1102.792</ele>
        <time>2022-08-18T20:31:42Z</time>
      </trkpt>
      <trkpt lat="42.38975000000002" lon="1.6160359999999996">
        <ele>1101.811</ele>
        <time>2022-08-18T20:31:45Z</time>
      </trkpt>
      <trkpt lat="42.38969100000002" lon="1.6160329999999996">
        <ele>1101.058</ele>
        <time>2022-08-18T20:31:48Z</time>
      </trkpt>
      <trkpt lat="42.38963500000002" lon="1.6160269999999997">
        <ele>1100.185</ele>
        <time>2022-08-18T20:31:51Z</time>
      </trkpt>
      <trkpt lat="42.38958100000002" lon="1.6160269999999997">
        <ele>1098.951</ele>
        <time>2022-08-18T20:31:56Z</time>
      </trkpt>
      <trkpt lat="42.38953000000002" lon="1.6160389999999996">
        <ele>1098.343</ele>
        <time>2022-08-18T20:31:58Z</time>
      </trkpt>
      <trkpt lat="42.38947600000002" lon="1.6160439999999996">
        <ele>1097.685</ele>
        <time>2022-08-18T20:32:00Z</time>
      </trkpt>
      <trkpt lat="42.389413000000026" lon="1.6160419999999995">
        <ele>1096.889</ele>
        <time>2022-08-18T20:32:03Z</time>
      </trkpt>
      <trkpt lat="42.38935800000002" lon="1.6160359999999996">
        <ele>1095.906</ele>
        <time>2022-08-18T20:32:06Z</time>
      </trkpt>
      <trkpt lat="42.38931000000002" lon="1.6160469999999996">
        <ele>1094.826</ele>
        <time>2022-08-18T20:32:09Z</time>
      </trkpt>
      <trkpt lat="42.389261000000026" lon="1.6160549999999996">
        <ele>1094.109</ele>
        <time>2022-08-18T20:32:11Z</time>
      </trkpt>
      <trkpt lat="42.38921300000003" lon="1.6160619999999997">
        <ele>1093.439</ele>
        <time>2022-08-18T20:32:14Z</time>
      </trkpt>
      <trkpt lat="42.38916700000003" lon="1.6160589999999997">
        <ele>1093.039</ele>
        <time>2022-08-18T20:32:16Z</time>
      </trkpt>
      <trkpt lat="42.38910800000003" lon="1.6160579999999998">
        <ele>1092.469</ele>
        <time>2022-08-18T20:32:18Z</time>
      </trkpt>
      <trkpt lat="42.38905400000003" lon="1.6160559999999997">
        <ele>1091.748</ele>
        <time>2022-08-18T20:32:20Z</time>
      </trkpt>
      <trkpt lat="42.38900800000003" lon="1.6160559999999997">
        <ele>1090.945</ele>
        <time>2022-08-18T20:32:22Z</time>
      </trkpt>
      <trkpt lat="42.388948000000035" lon="1.6160669999999997">
        <ele>1089.362</ele>
        <time>2022-08-18T20:32:26Z</time>
      </trkpt>
      <trkpt lat="42.38889300000003" lon="1.6160729999999996">
        <ele>1087.788</ele>
        <time>2022-08-18T20:32:28Z</time>
      </trkpt>
      <trkpt lat="42.38883100000003" lon="1.6160629999999996">
        <ele>1087.090</ele>
        <time>2022-08-18T20:32:31Z</time>
      </trkpt>
      <trkpt lat="42.38876300000003" lon="1.6160569999999996">
        <ele>1086.422</ele>
        <time>2022-08-18T20:32:34Z</time>
      </trkpt>
      <trkpt lat="42.38869600000003" lon="1.6160649999999996">
        <ele>1085.226</ele>
        <time>2022-08-18T20:32:37Z</time>
      </trkpt>
      <trkpt lat="42.38864800000003" lon="1.6160709999999996">
        <ele>1084.647</ele>
        <time>2022-08-18T20:32:39Z</time>
      </trkpt>
      <trkpt lat="42.388591000000034" lon="1.6160779999999997">
        <ele>1083.811</ele>
        <time>2022-08-18T20:32:42Z</time>
      </trkpt>
      <trkpt lat="42.388523000000035" lon="1.6160819999999996">
        <ele>1082.809</ele>
        <time>2022-08-18T20:32:45Z</time>
      </trkpt>
      <trkpt lat="42.388475000000035" lon="1.6160849999999995">
        <ele>1082.133</ele>
        <time>2022-08-18T20:32:47Z</time>
      </trkpt>
      <trkpt lat="42.38842900000004" lon="1.6160859999999995">
        <ele>1081.433</ele>
        <time>2022-08-18T20:32:49Z</time>
      </trkpt>
      <trkpt lat="42.388360000000034" lon="1.6160869999999994">
        <ele>1080.353</ele>
        <time>2022-08-18T20:32:52Z</time>
      </trkpt>
      <trkpt lat="42.388312000000035" lon="1.6160959999999993">
        <ele>1079.422</ele>
        <time>2022-08-18T20:32:54Z</time>
      </trkpt>
      <trkpt lat="42.38826900000004" lon="1.6161199999999993">
        <ele>1078.739</ele>
        <time>2022-08-18T20:32:56Z</time>
      </trkpt>
      <trkpt lat="42.38823100000003" lon="1.6161539999999994">
        <ele>1078.186</ele>
        <time>2022-08-18T20:32:58Z</time>
      </trkpt>
      <trkpt lat="42.38821400000003" lon="1.6162309999999995">
        <ele>1077.362</ele>
        <time>2022-08-18T20:33:01Z</time>
      </trkpt>
      <trkpt lat="42.38821800000003" lon="1.6162969999999994">
        <ele>1076.584</ele>
        <time>2022-08-18T20:33:03Z</time>
      </trkpt>
      <trkpt lat="42.38824600000003" lon="1.6163579999999995">
        <ele>1075.656</ele>
        <time>2022-08-18T20:33:06Z</time>
      </trkpt>
      <trkpt lat="42.388273000000034" lon="1.6164129999999994">
        <ele>1074.888</ele>
        <time>2022-08-18T20:33:09Z</time>
      </trkpt>
      <trkpt lat="42.388292000000035" lon="1.6164729999999994">
        <ele>1074.324</ele>
        <time>2022-08-18T20:33:11Z</time>
      </trkpt>
      <trkpt lat="42.388312000000035" lon="1.6165359999999993">
        <ele>1073.726</ele>
        <time>2022-08-18T20:33:13Z</time>
      </trkpt>
      <trkpt lat="42.388331000000036" lon="1.6165959999999993">
        <ele>1073.309</ele>
        <time>2022-08-18T20:33:15Z</time>
      </trkpt>
      <trkpt lat="42.38835300000004" lon="1.6166499999999993">
        <ele>1072.929</ele>
        <time>2022-08-18T20:33:17Z</time>
      </trkpt>
      <trkpt lat="42.38837700000004" lon="1.6167039999999993">
        <ele>1072.519</ele>
        <time>2022-08-18T20:33:19Z</time>
      </trkpt>
      <trkpt lat="42.38839500000004" lon="1.6167689999999992">
        <ele>1072.069</ele>
        <time>2022-08-18T20:33:21Z</time>
      </trkpt>
      <trkpt lat="42.38840500000004" lon="1.6168309999999992">
        <ele>1071.688</ele>
        <time>2022-08-18T20:33:23Z</time>
      </trkpt>
      <trkpt lat="42.38839400000004" lon="1.6169059999999993">
        <ele>1070.945</ele>
        <time>2022-08-18T20:33:27Z</time>
      </trkpt>
      <trkpt lat="42.38838900000004" lon="1.6169929999999992">
        <ele>1070.052</ele>
        <time>2022-08-18T20:33:29Z</time>
      </trkpt>
      <trkpt lat="42.38838000000004" lon="1.6170819999999992">
        <ele>1069.538</ele>
        <time>2022-08-18T20:33:31Z</time>
      </trkpt>
      <trkpt lat="42.38837200000004" lon="1.6171419999999992">
        <ele>1069.440</ele>
        <time>2022-08-18T20:33:33Z</time>
      </trkpt>
      <trkpt lat="42.38836300000004" lon="1.6172059999999993">
        <ele>1069.392</ele>
        <time>2022-08-18T20:33:35Z</time>
      </trkpt>
      <trkpt lat="42.388345000000044" lon="1.6172949999999993">
        <ele>1069.027</ele>
        <time>2022-08-18T20:33:37Z</time>
      </trkpt>
      <trkpt lat="42.388325000000044" lon="1.6173679999999993">
        <ele>1068.868</ele>
        <time>2022-08-18T20:33:39Z</time>
      </trkpt>
      <trkpt lat="42.38828400000004" lon="1.6174519999999992">
        <ele>1068.514</ele>
        <time>2022-08-18T20:33:42Z</time>
      </trkpt>
      <trkpt lat="42.38825000000004" lon="1.6175119999999992">
        <ele>1068.209</ele>
        <time>2022-08-18T20:33:44Z</time>
      </trkpt>
      <trkpt lat="42.38821700000004" lon="1.6175719999999991">
        <ele>1067.923</ele>
        <time>2022-08-18T20:33:46Z</time>
      </trkpt>
      <trkpt lat="42.38818700000004" lon="1.617629999999999">
        <ele>1067.623</ele>
        <time>2022-08-18T20:33:48Z</time>
      </trkpt>
      <trkpt lat="42.38814700000004" lon="1.617688999999999">
        <ele>1067.123</ele>
        <time>2022-08-18T20:33:51Z</time>
      </trkpt>
      <trkpt lat="42.38810400000004" lon="1.6177419999999991">
        <ele>1066.782</ele>
        <time>2022-08-18T20:33:54Z</time>
      </trkpt>
      <trkpt lat="42.38805800000004" lon="1.617777999999999">
        <ele>1066.239</ele>
        <time>2022-08-18T20:33:56Z</time>
      </trkpt>
      <trkpt lat="42.388010000000044" lon="1.617815999999999">
        <ele>1065.636</ele>
        <time>2022-08-18T20:33:58Z</time>
      </trkpt>
      <trkpt lat="42.38796100000005" lon="1.617861999999999">
        <ele>1065.072</ele>
        <time>2022-08-18T20:34:00Z</time>
      </trkpt>
      <trkpt lat="42.38792300000004" lon="1.617906999999999">
        <ele>1064.454</ele>
        <time>2022-08-18T20:34:02Z</time>
      </trkpt>
      <trkpt lat="42.387869000000045" lon="1.617968999999999">
        <ele>1063.716</ele>
        <time>2022-08-18T20:34:05Z</time>
      </trkpt>
      <trkpt lat="42.387829000000046" lon="1.618007999999999">
        <ele>1063.321</ele>
        <time>2022-08-18T20:34:07Z</time>
      </trkpt>
      <trkpt lat="42.38778100000005" lon="1.618043999999999">
        <ele>1062.941</ele>
        <time>2022-08-18T20:34:09Z</time>
      </trkpt>
      <trkpt lat="42.38773200000005" lon="1.6180719999999988">
        <ele>1062.405</ele>
        <time>2022-08-18T20:34:11Z</time>
      </trkpt>
      <trkpt lat="42.387691000000046" lon="1.6180999999999988">
        <ele>1061.809</ele>
        <time>2022-08-18T20:34:13Z</time>
      </trkpt>
      <trkpt lat="42.387641000000045" lon="1.6181479999999988">
        <ele>1061.213</ele>
        <time>2022-08-18T20:34:15Z</time>
      </trkpt>
      <trkpt lat="42.38759200000005" lon="1.6182109999999987">
        <ele>1060.543</ele>
        <time>2022-08-18T20:34:17Z</time>
      </trkpt>
      <trkpt lat="42.38755300000005" lon="1.6182559999999988">
        <ele>1060.033</ele>
        <time>2022-08-18T20:34:19Z</time>
      </trkpt>
      <trkpt lat="42.387500000000045" lon="1.6183179999999988">
        <ele>1059.512</ele>
        <time>2022-08-18T20:34:21Z</time>
      </trkpt>
      <trkpt lat="42.38746300000005" lon="1.6183639999999988">
        <ele>1059.049</ele>
        <time>2022-08-18T20:34:23Z</time>
      </trkpt>
      <trkpt lat="42.387393000000046" lon="1.6184469999999989">
        <ele>1058.886</ele>
        <time>2022-08-18T20:34:25Z</time>
      </trkpt>
      <trkpt lat="42.38732200000005" lon="1.618491999999999">
        <ele>1058.422</ele>
        <time>2022-08-18T20:34:27Z</time>
      </trkpt>
      <trkpt lat="42.38724500000005" lon="1.6185309999999988">
        <ele>1058.114</ele>
        <time>2022-08-18T20:34:29Z</time>
      </trkpt>
      <trkpt lat="42.38717300000005" lon="1.6185579999999988">
        <ele>1058.186</ele>
        <time>2022-08-18T20:34:31Z</time>
      </trkpt>
      <trkpt lat="42.38710200000005" lon="1.618580999999999">
        <ele>1058.181</ele>
        <time>2022-08-18T20:34:33Z</time>
      </trkpt>
      <trkpt lat="42.38701800000005" lon="1.618606999999999">
        <ele>1058.161</ele>
        <time>2022-08-18T20:34:35Z</time>
      </trkpt>
      <trkpt lat="42.386943000000045" lon="1.618639999999999">
        <ele>1058.117</ele>
        <time>2022-08-18T20:34:37Z</time>
      </trkpt>
      <trkpt lat="42.38686300000005" lon="1.618671999999999">
        <ele>1057.909</ele>
        <time>2022-08-18T20:34:39Z</time>
      </trkpt>
      <trkpt lat="42.386777000000045" lon="1.618699999999999">
        <ele>1057.799</ele>
        <time>2022-08-18T20:34:41Z</time>
      </trkpt>
      <trkpt lat="42.386684000000045" lon="1.6187169999999989">
        <ele>1057.689</ele>
        <time>2022-08-18T20:34:43Z</time>
      </trkpt>
      <trkpt lat="42.38660400000005" lon="1.618729999999999">
        <ele>1057.539</ele>
        <time>2022-08-18T20:34:45Z</time>
      </trkpt>
      <trkpt lat="42.38652500000005" lon="1.618736999999999">
        <ele>1057.378</ele>
        <time>2022-08-18T20:34:47Z</time>
      </trkpt>
      <trkpt lat="42.38645900000005" lon="1.618739999999999">
        <ele>1057.085</ele>
        <time>2022-08-18T20:34:49Z</time>
      </trkpt>
      <trkpt lat="42.386410000000055" lon="1.618746999999999">
        <ele>1056.882</ele>
        <time>2022-08-18T20:34:50Z</time>
      </trkpt>
      <trkpt lat="42.38631200000005" lon="1.618760999999999">
        <ele>1056.458</ele>
        <time>2022-08-18T20:34:52Z</time>
      </trkpt>
      <trkpt lat="42.38623400000005" lon="1.618761999999999">
        <ele>1055.820</ele>
        <time>2022-08-18T20:34:54Z</time>
      </trkpt>
      <trkpt lat="42.38615300000005" lon="1.618756999999999">
        <ele>1055.032</ele>
        <time>2022-08-18T20:34:56Z</time>
      </trkpt>
      <trkpt lat="42.38610000000005" lon="1.618764999999999">
        <ele>1054.847</ele>
        <time>2022-08-18T20:34:57Z</time>
      </trkpt>
      <trkpt lat="42.38601800000005" lon="1.618769999999999">
        <ele>1054.029</ele>
        <time>2022-08-18T20:34:59Z</time>
      </trkpt>
      <trkpt lat="42.38594000000005" lon="1.618772999999999">
        <ele>1053.221</ele>
        <time>2022-08-18T20:35:01Z</time>
      </trkpt>
      <trkpt lat="42.385879000000045" lon="1.618772999999999">
        <ele>1052.409</ele>
        <time>2022-08-18T20:35:03Z</time>
      </trkpt>
      <trkpt lat="42.38581600000005" lon="1.618768999999999">
        <ele>1051.645</ele>
        <time>2022-08-18T20:35:06Z</time>
      </trkpt>
      <trkpt lat="42.38573100000005" lon="1.618765999999999">
        <ele>1050.825</ele>
        <time>2022-08-18T20:35:08Z</time>
      </trkpt>
      <trkpt lat="42.38565100000005" lon="1.618755999999999">
        <ele>1049.945</ele>
        <time>2022-08-18T20:35:10Z</time>
      </trkpt>
      <trkpt lat="42.38553100000005" lon="1.618731999999999">
        <ele>1048.484</ele>
        <time>2022-08-18T20:35:12Z</time>
      </trkpt>
      <trkpt lat="42.38544600000005" lon="1.618737999999999">
        <ele>1047.671</ele>
        <time>2022-08-18T20:35:14Z</time>
      </trkpt>
      <trkpt lat="42.38539900000005" lon="1.618750999999999">
        <ele>1047.258</ele>
        <time>2022-08-18T20:35:15Z</time>
      </trkpt>
      <trkpt lat="42.38535400000005" lon="1.618774999999999">
        <ele>1046.864</ele>
        <time>2022-08-18T20:35:16Z</time>
      </trkpt>
      <trkpt lat="42.38530300000005" lon="1.618807999999999">
        <ele>1046.476</ele>
        <time>2022-08-18T20:35:17Z</time>
      </trkpt>
      <trkpt lat="42.38520900000005" lon="1.618871999999999">
        <ele>1045.758</ele>
        <time>2022-08-18T20:35:19Z</time>
      </trkpt>
      <trkpt lat="42.38511400000005" lon="1.618948999999999">
        <ele>1045.029</ele>
        <time>2022-08-18T20:35:21Z</time>
      </trkpt>
      <trkpt lat="42.38506700000005" lon="1.6189829999999992">
        <ele>1044.600</ele>
        <time>2022-08-18T20:35:22Z</time>
      </trkpt>
      <trkpt lat="42.38501600000005" lon="1.619010999999999">
        <ele>1044.520</ele>
        <time>2022-08-18T20:35:23Z</time>
      </trkpt>
      <trkpt lat="42.38492300000005" lon="1.6190799999999992">
        <ele>1044.009</ele>
        <time>2022-08-18T20:35:25Z</time>
      </trkpt>
      <trkpt lat="42.38483000000005" lon="1.6191499999999992">
        <ele>1043.653</ele>
        <time>2022-08-18T20:35:27Z</time>
      </trkpt>
      <trkpt lat="42.38478700000005" lon="1.6191869999999993">
        <ele>1043.353</ele>
        <time>2022-08-18T20:35:28Z</time>
      </trkpt>
      <trkpt lat="42.384710000000055" lon="1.6192579999999992">
        <ele>1043.133</ele>
        <time>2022-08-18T20:35:30Z</time>
      </trkpt>
      <trkpt lat="42.384665000000055" lon="1.6192869999999993">
        <ele>1043.072</ele>
        <time>2022-08-18T20:35:31Z</time>
      </trkpt>
      <trkpt lat="42.38461500000005" lon="1.6193339999999992">
        <ele>1042.939</ele>
        <time>2022-08-18T20:35:32Z</time>
      </trkpt>
      <trkpt lat="42.38452000000005" lon="1.6194069999999992">
        <ele>1042.826</ele>
        <time>2022-08-18T20:35:34Z</time>
      </trkpt>
      <trkpt lat="42.38447300000005" lon="1.6194449999999991">
        <ele>1042.832</ele>
        <time>2022-08-18T20:35:35Z</time>
      </trkpt>
      <trkpt lat="42.38441500000005" lon="1.6194979999999992">
        <ele>1042.734</ele>
        <time>2022-08-18T20:35:36Z</time>
      </trkpt>
      <trkpt lat="42.384340000000044" lon="1.6195929999999992">
        <ele>1042.776</ele>
        <time>2022-08-18T20:35:38Z</time>
      </trkpt>
      <trkpt lat="42.38427900000004" lon="1.6196529999999991">
        <ele>1042.672</ele>
        <time>2022-08-18T20:35:40Z</time>
      </trkpt>
      <trkpt lat="42.38421100000004" lon="1.619710999999999">
        <ele>1042.313</ele>
        <time>2022-08-18T20:35:42Z</time>
      </trkpt>
      <trkpt lat="42.384137000000045" lon="1.619775999999999">
        <ele>1042.114</ele>
        <time>2022-08-18T20:35:44Z</time>
      </trkpt>
      <trkpt lat="42.38409100000005" lon="1.619811999999999">
        <ele>1042.009</ele>
        <time>2022-08-18T20:35:45Z</time>
      </trkpt>
      <trkpt lat="42.38398900000005" lon="1.6199049999999988">
        <ele>1041.948</ele>
        <time>2022-08-18T20:35:47Z</time>
      </trkpt>
      <trkpt lat="42.38385300000005" lon="1.620027999999999">
        <ele>1041.938</ele>
        <time>2022-08-18T20:35:50Z</time>
      </trkpt>
      <trkpt lat="42.38376100000005" lon="1.620094999999999">
        <ele>1041.758</ele>
        <time>2022-08-18T20:35:52Z</time>
      </trkpt>
      <trkpt lat="42.38367800000005" lon="1.6201579999999989">
        <ele>1041.537</ele>
        <time>2022-08-18T20:35:54Z</time>
      </trkpt>
      <trkpt lat="42.383601000000056" lon="1.620210999999999">
        <ele>1041.354</ele>
        <time>2022-08-18T20:35:56Z</time>
      </trkpt>
      <trkpt lat="42.383517000000055" lon="1.620279999999999">
        <ele>1040.951</ele>
        <time>2022-08-18T20:35:58Z</time>
      </trkpt>
      <trkpt lat="42.383435000000055" lon="1.6203299999999992">
        <ele>1040.577</ele>
        <time>2022-08-18T20:36:00Z</time>
      </trkpt>
      <trkpt lat="42.383340000000054" lon="1.620392999999999">
        <ele>1040.119</ele>
        <time>2022-08-18T20:36:02Z</time>
      </trkpt>
      <trkpt lat="42.383255000000055" lon="1.620447999999999">
        <ele>1039.711</ele>
        <time>2022-08-18T20:36:04Z</time>
      </trkpt>
      <trkpt lat="42.38322000000006" lon="1.620491999999999">
        <ele>1039.522</ele>
        <time>2022-08-18T20:36:05Z</time>
      </trkpt>
      <trkpt lat="42.38318000000006" lon="1.620545999999999">
        <ele>1039.362</ele>
        <time>2022-08-18T20:36:06Z</time>
      </trkpt>
      <trkpt lat="42.38313600000006" lon="1.6205979999999989">
        <ele>1039.108</ele>
        <time>2022-08-18T20:36:07Z</time>
      </trkpt>
      <trkpt lat="42.38304900000006" lon="1.620704999999999">
        <ele>1038.609</ele>
        <time>2022-08-18T20:36:09Z</time>
      </trkpt>
      <trkpt lat="42.38300800000005" lon="1.6207629999999988">
        <ele>1038.453</ele>
        <time>2022-08-18T20:36:10Z</time>
      </trkpt>
      <trkpt lat="42.382979000000056" lon="1.6208199999999988">
        <ele>1038.263</ele>
        <time>2022-08-18T20:36:11Z</time>
      </trkpt>
      <trkpt lat="42.38290700000005" lon="1.6209189999999989">
        <ele>1037.833</ele>
        <time>2022-08-18T20:36:13Z</time>
      </trkpt>
      <trkpt lat="42.38283100000005" lon="1.621015999999999">
        <ele>1037.572</ele>
        <time>2022-08-18T20:36:15Z</time>
      </trkpt>
      <trkpt lat="42.38278900000005" lon="1.6210629999999988">
        <ele>1037.359</ele>
        <time>2022-08-18T20:36:16Z</time>
      </trkpt>
      <trkpt lat="42.38270800000005" lon="1.6211739999999988">
        <ele>1036.956</ele>
        <time>2022-08-18T20:36:18Z</time>
      </trkpt>
      <trkpt lat="42.38262200000005" lon="1.6212999999999989">
        <ele>1036.562</ele>
        <time>2022-08-18T20:36:20Z</time>
      </trkpt>
      <trkpt lat="42.38257700000005" lon="1.6213649999999988">
        <ele>1036.474</ele>
        <time>2022-08-18T20:36:21Z</time>
      </trkpt>
      <trkpt lat="42.38250400000005" lon="1.6215039999999987">
        <ele>1036.226</ele>
        <time>2022-08-18T20:36:23Z</time>
      </trkpt>
      <trkpt lat="42.38246600000004" lon="1.6215749999999987">
        <ele>1036.132</ele>
        <time>2022-08-18T20:36:24Z</time>
      </trkpt>
      <trkpt lat="42.38242800000004" lon="1.6216379999999986">
        <ele>1036.092</ele>
        <time>2022-08-18T20:36:25Z</time>
      </trkpt>
      <trkpt lat="42.38235000000004" lon="1.6217679999999985">
        <ele>1035.811</ele>
        <time>2022-08-18T20:36:27Z</time>
      </trkpt>
      <trkpt lat="42.38231000000004" lon="1.6218319999999986">
        <ele>1035.709</ele>
        <time>2022-08-18T20:36:28Z</time>
      </trkpt>
      <trkpt lat="42.38222800000004" lon="1.6219559999999986">
        <ele>1035.534</ele>
        <time>2022-08-18T20:36:30Z</time>
      </trkpt>
      <trkpt lat="42.38218200000004" lon="1.6220219999999985">
        <ele>1035.414</ele>
        <time>2022-08-18T20:36:31Z</time>
      </trkpt>
      <trkpt lat="42.382139000000045" lon="1.6220849999999984">
        <ele>1035.394</ele>
        <time>2022-08-18T20:36:32Z</time>
      </trkpt>
      <trkpt lat="42.38203600000004" lon="1.6222109999999985">
        <ele>1035.073</ele>
        <time>2022-08-18T20:36:34Z</time>
      </trkpt>
      <trkpt lat="42.38198800000004" lon="1.6222649999999985">
        <ele>1034.830</ele>
        <time>2022-08-18T20:36:35Z</time>
      </trkpt>
      <trkpt lat="42.38189000000004" lon="1.6223779999999985">
        <ele>1034.477</ele>
        <time>2022-08-18T20:36:37Z</time>
      </trkpt>
      <trkpt lat="42.381844000000044" lon="1.6224389999999986">
        <ele>1034.323</ele>
        <time>2022-08-18T20:36:38Z</time>
      </trkpt>
      <trkpt lat="42.381734000000044" lon="1.6225369999999986">
        <ele>1034.115</ele>
        <time>2022-08-18T20:36:40Z</time>
      </trkpt>
      <trkpt lat="42.38162600000005" lon="1.6226259999999986">
        <ele>1033.947</ele>
        <time>2022-08-18T20:36:42Z</time>
      </trkpt>
      <trkpt lat="42.38152600000004" lon="1.6226949999999987">
        <ele>1033.784</ele>
        <time>2022-08-18T20:36:44Z</time>
      </trkpt>
      <trkpt lat="42.38143700000004" lon="1.6227839999999987">
        <ele>1033.607</ele>
        <time>2022-08-18T20:36:46Z</time>
      </trkpt>
      <trkpt lat="42.38139900000004" lon="1.6228279999999986">
        <ele>1033.617</ele>
        <time>2022-08-18T20:36:47Z</time>
      </trkpt>
      <trkpt lat="42.381355000000035" lon="1.6228699999999987">
        <ele>1033.609</ele>
        <time>2022-08-18T20:36:48Z</time>
      </trkpt>
      <trkpt lat="42.38126300000003" lon="1.6229359999999986">
        <ele>1033.629</ele>
        <time>2022-08-18T20:36:50Z</time>
      </trkpt>
      <trkpt lat="42.38117300000003" lon="1.6229669999999985">
        <ele>1033.689</ele>
        <time>2022-08-18T20:36:52Z</time>
      </trkpt>
      <trkpt lat="42.381090000000036" lon="1.6229839999999984">
        <ele>1033.729</ele>
        <time>2022-08-18T20:36:54Z</time>
      </trkpt>
      <trkpt lat="42.38100100000003" lon="1.6230249999999984">
        <ele>1033.778</ele>
        <time>2022-08-18T20:36:56Z</time>
      </trkpt>
      <trkpt lat="42.380891000000034" lon="1.6230619999999985">
        <ele>1033.745</ele>
        <time>2022-08-18T20:36:58Z</time>
      </trkpt>
      <trkpt lat="42.38083600000003" lon="1.6230859999999985">
        <ele>1033.722</ele>
        <time>2022-08-18T20:36:59Z</time>
      </trkpt>
      <trkpt lat="42.38077800000003" lon="1.6231119999999986">
        <ele>1033.658</ele>
        <time>2022-08-18T20:37:00Z</time>
      </trkpt>
      <trkpt lat="42.38067600000003" lon="1.6231369999999985">
        <ele>1033.380</ele>
        <time>2022-08-18T20:37:02Z</time>
      </trkpt>
      <trkpt lat="42.38058200000003" lon="1.6231469999999986">
        <ele>1032.882</ele>
        <time>2022-08-18T20:37:04Z</time>
      </trkpt>
      <trkpt lat="42.38049600000003" lon="1.6231559999999985">
        <ele>1032.231</ele>
        <time>2022-08-18T20:37:06Z</time>
      </trkpt>
      <trkpt lat="42.38042200000003" lon="1.6231789999999986">
        <ele>1031.161</ele>
        <time>2022-08-18T20:37:08Z</time>
      </trkpt>
      <trkpt lat="42.380339000000035" lon="1.6231919999999986">
        <ele>1030.307</ele>
        <time>2022-08-18T20:37:10Z</time>
      </trkpt>
      <trkpt lat="42.38026800000004" lon="1.6231749999999987">
        <ele>1029.209</ele>
        <time>2022-08-18T20:37:12Z</time>
      </trkpt>
      <trkpt lat="42.38019200000004" lon="1.6231609999999987">
        <ele>1028.244</ele>
        <time>2022-08-18T20:37:14Z</time>
      </trkpt>
      <trkpt lat="42.38014400000004" lon="1.6231579999999988">
        <ele>1027.554</ele>
        <time>2022-08-18T20:37:16Z</time>
      </trkpt>
      <trkpt lat="42.38009800000004" lon="1.6231399999999987">
        <ele>1025.994</ele>
        <time>2022-08-18T20:37:24Z</time>
      </trkpt>
      <trkpt lat="42.38005400000004" lon="1.6231589999999987">
        <ele>1025.353</ele>
        <time>2022-08-18T20:37:28Z</time>
      </trkpt>
      <trkpt lat="42.38000800000004" lon="1.6231619999999987">
        <ele>1025.220</ele>
        <time>2022-08-18T20:37:32Z</time>
      </trkpt>
      <trkpt lat="42.37994800000004" lon="1.6231619999999987">
        <ele>1025.357</ele>
        <time>2022-08-18T20:37:36Z</time>
      </trkpt>
      <trkpt lat="42.379902000000044" lon="1.6231619999999987">
        <ele>1025.323</ele>
        <time>2022-08-18T20:37:39Z</time>
      </trkpt>
      <trkpt lat="42.379857000000044" lon="1.6231519999999986">
        <ele>1025.335</ele>
        <time>2022-08-18T20:37:43Z</time>
      </trkpt>
      <trkpt lat="42.37980500000005" lon="1.6231499999999985">
        <ele>1025.747</ele>
        <time>2022-08-18T20:37:46Z</time>
      </trkpt>
      <trkpt lat="42.37977600000005" lon="1.6232089999999986">
        <ele>1025.816</ele>
        <time>2022-08-18T20:37:49Z</time>
      </trkpt>
      <trkpt lat="42.37975500000005" lon="1.6232869999999986">
        <ele>1025.876</ele>
        <time>2022-08-18T20:37:52Z</time>
      </trkpt>
      <trkpt lat="42.37973300000005" lon="1.6233519999999986">
        <ele>1025.813</ele>
        <time>2022-08-18T20:37:55Z</time>
      </trkpt>
      <trkpt lat="42.37970900000005" lon="1.6234139999999986">
        <ele>1025.209</ele>
        <time>2022-08-18T20:37:58Z</time>
      </trkpt>
      <trkpt lat="42.379682000000045" lon="1.6234829999999987">
        <ele>1024.422</ele>
        <time>2022-08-18T20:38:02Z</time>
      </trkpt>
      <trkpt lat="42.37966100000005" lon="1.6235419999999987">
        <ele>1023.342</ele>
        <time>2022-08-18T20:38:05Z</time>
      </trkpt>
      <trkpt lat="42.37963500000005" lon="1.6236149999999987">
        <ele>1021.832</ele>
        <time>2022-08-18T20:38:09Z</time>
      </trkpt>
      <trkpt lat="42.37960600000005" lon="1.6236689999999987">
        <ele>1020.861</ele>
        <time>2022-08-18T20:38:12Z</time>
      </trkpt>
      <trkpt lat="42.37956100000005" lon="1.6236939999999986">
        <ele>1019.778</ele>
        <time>2022-08-18T20:38:15Z</time>
      </trkpt>
      <trkpt lat="42.37951000000005" lon="1.6237159999999986">
        <ele>1018.065</ele>
        <time>2022-08-18T20:38:19Z</time>
      </trkpt>
      <trkpt lat="42.37947400000005" lon="1.6237549999999985">
        <ele>1016.481</ele>
        <time>2022-08-18T20:38:22Z</time>
      </trkpt>
      <trkpt lat="42.37941700000005" lon="1.6237679999999985">
        <ele>1014.943</ele>
        <time>2022-08-18T20:38:25Z</time>
      </trkpt>
      <trkpt lat="42.379366000000054" lon="1.6237819999999985">
        <ele>1013.735</ele>
        <time>2022-08-18T20:38:28Z</time>
      </trkpt>
      <trkpt lat="42.379326000000056" lon="1.6238259999999984">
        <ele>1012.883</ele>
        <time>2022-08-18T20:38:31Z</time>
      </trkpt>
      <trkpt lat="42.37928000000006" lon="1.6238369999999984">
        <ele>1011.825</ele>
        <time>2022-08-18T20:38:34Z</time>
      </trkpt>
      <trkpt lat="42.37923400000006" lon="1.6238319999999984">
        <ele>1010.617</ele>
        <time>2022-08-18T20:38:37Z</time>
      </trkpt>
      <trkpt lat="42.37918700000006" lon="1.6238329999999983">
        <ele>1009.709</ele>
        <time>2022-08-18T20:38:40Z</time>
      </trkpt>
      <trkpt lat="42.379132000000055" lon="1.6238519999999983">
        <ele>1009.059</ele>
        <time>2022-08-18T20:38:44Z</time>
      </trkpt>
      <trkpt lat="42.379079000000054" lon="1.6238659999999983">
        <ele>1007.519</ele>
        <time>2022-08-18T20:38:48Z</time>
      </trkpt>
      <trkpt lat="42.37902900000005" lon="1.6238629999999983">
        <ele>1007.159</ele>
        <time>2022-08-18T20:38:51Z</time>
      </trkpt>
      <trkpt lat="42.379052" lon="1.623953">
        <ele>1031.889</ele>
        <time>2022-08-19T15:26:58Z</time>
      </trkpt>
      <trkpt lat="42.379102" lon="1.623919">
        <ele>1031.806</ele>
        <time>2022-08-19T15:27:01Z</time>
      </trkpt>
      <trkpt lat="42.379151" lon="1.6239029999999999">
        <ele>1031.826</ele>
        <time>2022-08-19T15:27:09Z</time>
      </trkpt>
      <trkpt lat="42.379204" lon="1.6238979999999998">
        <ele>1031.809</ele>
        <time>2022-08-19T15:27:11Z</time>
      </trkpt>
      <trkpt lat="42.379263" lon="1.6238819999999998">
        <ele>1031.989</ele>
        <time>2022-08-19T15:27:13Z</time>
      </trkpt>
      <trkpt lat="42.37933" lon="1.6238439999999998">
        <ele>1032.049</ele>
        <time>2022-08-19T15:27:15Z</time>
      </trkpt>
      <trkpt lat="42.379386000000004" lon="1.6238119999999998">
        <ele>1032.219</ele>
        <time>2022-08-19T15:27:17Z</time>
      </trkpt>
      <trkpt lat="42.379431000000004" lon="1.6237979999999999">
        <ele>1032.469</ele>
        <time>2022-08-19T15:27:19Z</time>
      </trkpt>
      <trkpt lat="42.379481000000006" lon="1.623754">
        <ele>1034.276</ele>
        <time>2022-08-19T15:27:22Z</time>
      </trkpt>
      <trkpt lat="42.379527" lon="1.623715">
        <ele>1035.582</ele>
        <time>2022-08-19T15:27:25Z</time>
      </trkpt>
      <trkpt lat="42.379574000000005" lon="1.623693">
        <ele>1035.972</ele>
        <time>2022-08-19T15:27:27Z</time>
      </trkpt>
      <trkpt lat="42.379657" lon="1.6236810000000002">
        <ele>1036.613</ele>
        <time>2022-08-19T15:27:29Z</time>
      </trkpt>
      <trkpt lat="42.379733" lon="1.6236830000000002">
        <ele>1037.678</ele>
        <time>2022-08-19T15:27:31Z</time>
      </trkpt>
      <trkpt lat="42.379822000000004" lon="1.6236610000000002">
        <ele>1038.975</ele>
        <time>2022-08-19T15:27:33Z</time>
      </trkpt>
      <trkpt lat="42.379871" lon="1.6236520000000003">
        <ele>1039.328</ele>
        <time>2022-08-19T15:27:34Z</time>
      </trkpt>
      <trkpt lat="42.379918" lon="1.6236540000000004">
        <ele>1039.520</ele>
        <time>2022-08-19T15:27:35Z</time>
      </trkpt>
      <trkpt lat="42.380002000000005" lon="1.6236840000000003">
        <ele>1039.709</ele>
        <time>2022-08-19T15:27:37Z</time>
      </trkpt>
      <trkpt lat="42.380048" lon="1.6237140000000003">
        <ele>1039.758</ele>
        <time>2022-08-19T15:27:39Z</time>
      </trkpt>
      <trkpt lat="42.380212" lon="1.6237130000000004">
        <ele>1039.138</ele>
        <time>2022-08-19T15:27:43Z</time>
      </trkpt>
      <trkpt lat="42.380299" lon="1.6237210000000004">
        <ele>1038.928</ele>
        <time>2022-08-19T15:27:45Z</time>
      </trkpt>
      <trkpt lat="42.380386" lon="1.6237110000000003">
        <ele>1038.528</ele>
        <time>2022-08-19T15:27:47Z</time>
      </trkpt>
      <trkpt lat="42.380463" lon="1.6237030000000003">
        <ele>1038.325</ele>
        <time>2022-08-19T15:27:49Z</time>
      </trkpt>
      <trkpt lat="42.380511" lon="1.6237060000000003">
        <ele>1038.251</ele>
        <time>2022-08-19T15:27:50Z</time>
      </trkpt>
      <trkpt lat="42.380596" lon="1.6237090000000003">
        <ele>1038.041</ele>
        <time>2022-08-19T15:27:52Z</time>
      </trkpt>
      <trkpt lat="42.380672999999994" lon="1.6237590000000004">
        <ele>1037.892</ele>
        <time>2022-08-19T15:27:54Z</time>
      </trkpt>
      <trkpt lat="42.38072199999999" lon="1.6238100000000004">
        <ele>1037.757</ele>
        <time>2022-08-19T15:27:56Z</time>
      </trkpt>
      <trkpt lat="42.38078099999999" lon="1.6238420000000005">
        <ele>1037.628</ele>
        <time>2022-08-19T15:27:58Z</time>
      </trkpt>
      <trkpt lat="42.38083799999999" lon="1.6238890000000004">
        <ele>1037.589</ele>
        <time>2022-08-19T15:28:00Z</time>
      </trkpt>
      <trkpt lat="42.38090899999999" lon="1.6239350000000004">
        <ele>1037.117</ele>
        <time>2022-08-19T15:28:02Z</time>
      </trkpt>
      <trkpt lat="42.380982999999986" lon="1.6240100000000004">
        <ele>1036.809</ele>
        <time>2022-08-19T15:28:04Z</time>
      </trkpt>
      <trkpt lat="42.381050999999985" lon="1.6241060000000005">
        <ele>1036.733</ele>
        <time>2022-08-19T15:28:06Z</time>
      </trkpt>
      <trkpt lat="42.381112999999985" lon="1.6241940000000006">
        <ele>1036.573</ele>
        <time>2022-08-19T15:28:08Z</time>
      </trkpt>
      <trkpt lat="42.38117399999999" lon="1.6242720000000006">
        <ele>1036.373</ele>
        <time>2022-08-19T15:28:10Z</time>
      </trkpt>
      <trkpt lat="42.38123899999999" lon="1.6243460000000005">
        <ele>1036.243</ele>
        <time>2022-08-19T15:28:12Z</time>
      </trkpt>
      <trkpt lat="42.381301999999984" lon="1.6244280000000004">
        <ele>1036.040</ele>
        <time>2022-08-19T15:28:14Z</time>
      </trkpt>
      <trkpt lat="42.38135999999999" lon="1.6245210000000003">
        <ele>1035.976</ele>
        <time>2022-08-19T15:28:16Z</time>
      </trkpt>
      <trkpt lat="42.381405999999984" lon="1.6246180000000003">
        <ele>1035.976</ele>
        <time>2022-08-19T15:28:18Z</time>
      </trkpt>
      <trkpt lat="42.38144699999999" lon="1.6247070000000003">
        <ele>1035.947</ele>
        <time>2022-08-19T15:28:20Z</time>
      </trkpt>
      <trkpt lat="42.38149699999999" lon="1.6247850000000004">
        <ele>1036.012</ele>
        <time>2022-08-19T15:28:22Z</time>
      </trkpt>
      <trkpt lat="42.38154799999999" lon="1.6248380000000004">
        <ele>1036.129</ele>
        <time>2022-08-19T15:28:24Z</time>
      </trkpt>
      <trkpt lat="42.38158999999999" lon="1.6248710000000004">
        <ele>1036.200</ele>
        <time>2022-08-19T15:28:26Z</time>
      </trkpt>
      <trkpt lat="42.38163699999999" lon="1.6248820000000004">
        <ele>1036.320</ele>
        <time>2022-08-19T15:28:28Z</time>
      </trkpt>
      <trkpt lat="42.381691999999994" lon="1.6248720000000003">
        <ele>1036.309</ele>
        <time>2022-08-19T15:28:30Z</time>
      </trkpt>
      <trkpt lat="42.38175499999999" lon="1.6248590000000003">
        <ele>1036.433</ele>
        <time>2022-08-19T15:28:32Z</time>
      </trkpt>
      <trkpt lat="42.38182299999999" lon="1.6248510000000003">
        <ele>1036.543</ele>
        <time>2022-08-19T15:28:34Z</time>
      </trkpt>
      <trkpt lat="42.38189299999999" lon="1.6248430000000003">
        <ele>1036.733</ele>
        <time>2022-08-19T15:28:36Z</time>
      </trkpt>
      <trkpt lat="42.38197499999999" lon="1.6248340000000003">
        <ele>1036.723</ele>
        <time>2022-08-19T15:28:38Z</time>
      </trkpt>
      <trkpt lat="42.38205799999999" lon="1.6248290000000003">
        <ele>1036.750</ele>
        <time>2022-08-19T15:28:40Z</time>
      </trkpt>
      <trkpt lat="42.38214699999999" lon="1.6248350000000003">
        <ele>1036.796</ele>
        <time>2022-08-19T15:28:42Z</time>
      </trkpt>
      <trkpt lat="42.38224199999999" lon="1.6248600000000002">
        <ele>1036.766</ele>
        <time>2022-08-19T15:28:44Z</time>
      </trkpt>
      <trkpt lat="42.38233399999999" lon="1.6248960000000001">
        <ele>1036.657</ele>
        <time>2022-08-19T15:28:46Z</time>
      </trkpt>
      <trkpt lat="42.382411999999995" lon="1.624951">
        <ele>1036.432</ele>
        <time>2022-08-19T15:28:48Z</time>
      </trkpt>
      <trkpt lat="42.38248299999999" lon="1.625003">
        <ele>1036.177</ele>
        <time>2022-08-19T15:28:50Z</time>
      </trkpt>
      <trkpt lat="42.382524" lon="1.625031">
        <ele>1036.061</ele>
        <time>2022-08-19T15:28:51Z</time>
      </trkpt>
      <trkpt lat="42.38260399999999" lon="1.6250639999999998">
        <ele>1035.627</ele>
        <time>2022-08-19T15:28:53Z</time>
      </trkpt>
      <trkpt lat="42.38267499999999" lon="1.6251069999999999">
        <ele>1035.309</ele>
        <time>2022-08-19T15:28:55Z</time>
      </trkpt>
      <trkpt lat="42.38271699999999" lon="1.625128">
        <ele>1035.278</ele>
        <time>2022-08-19T15:28:56Z</time>
      </trkpt>
      <trkpt lat="42.38279399999999" lon="1.625174">
        <ele>1035.018</ele>
        <time>2022-08-19T15:28:58Z</time>
      </trkpt>
      <trkpt lat="42.38284099999999" lon="1.625197">
        <ele>1034.958</ele>
        <time>2022-08-19T15:28:59Z</time>
      </trkpt>
      <trkpt lat="42.382918999999994" lon="1.625245">
        <ele>1034.768</ele>
        <time>2022-08-19T15:29:01Z</time>
      </trkpt>
      <trkpt lat="42.382999999999996" lon="1.625281">
        <ele>1034.415</ele>
        <time>2022-08-19T15:29:03Z</time>
      </trkpt>
      <trkpt lat="42.383047" lon="1.625313">
        <ele>1034.181</ele>
        <time>2022-08-19T15:29:05Z</time>
      </trkpt>
      <trkpt lat="42.383106" lon="1.625335">
        <ele>1033.961</ele>
        <time>2022-08-19T15:29:07Z</time>
      </trkpt>
      <trkpt lat="42.383161" lon="1.625356">
        <ele>1033.682</ele>
        <time>2022-08-19T15:29:09Z</time>
      </trkpt>
      <trkpt lat="42.383230000000005" lon="1.625386">
        <ele>1033.497</ele>
        <time>2022-08-19T15:29:11Z</time>
      </trkpt>
      <trkpt lat="42.38331" lon="1.625403">
        <ele>1033.224</ele>
        <time>2022-08-19T15:29:13Z</time>
      </trkpt>
      <trkpt lat="42.383378" lon="1.6254009999999999">
        <ele>1032.904</ele>
        <time>2022-08-19T15:29:15Z</time>
      </trkpt>
      <trkpt lat="42.383445" lon="1.6253939999999998">
        <ele>1032.514</ele>
        <time>2022-08-19T15:29:18Z</time>
      </trkpt>
      <trkpt lat="42.383501" lon="1.6253739999999999">
        <ele>1032.209</ele>
        <time>2022-08-19T15:29:20Z</time>
      </trkpt>
      <trkpt lat="42.383561" lon="1.6253719999999998">
        <ele>1031.973</ele>
        <time>2022-08-19T15:29:22Z</time>
      </trkpt>
      <trkpt lat="42.383633" lon="1.6253459999999997">
        <ele>1031.553</ele>
        <time>2022-08-19T15:29:24Z</time>
      </trkpt>
      <trkpt lat="42.38371" lon="1.6253269999999997">
        <ele>1031.033</ele>
        <time>2022-08-19T15:29:26Z</time>
      </trkpt>
      <trkpt lat="42.383789" lon="1.6253129999999998">
        <ele>1030.613</ele>
        <time>2022-08-19T15:29:28Z</time>
      </trkpt>
      <trkpt lat="42.383859" lon="1.6253119999999999">
        <ele>1030.280</ele>
        <time>2022-08-19T15:29:30Z</time>
      </trkpt>
      <trkpt lat="42.383929" lon="1.6253239999999998">
        <ele>1029.966</ele>
        <time>2022-08-19T15:29:32Z</time>
      </trkpt>
      <trkpt lat="42.384006" lon="1.6253409999999997">
        <ele>1029.596</ele>
        <time>2022-08-19T15:29:34Z</time>
      </trkpt>
      <trkpt lat="42.384078" lon="1.6253629999999997">
        <ele>1029.047</ele>
        <time>2022-08-19T15:29:36Z</time>
      </trkpt>
      <trkpt lat="42.384148" lon="1.6253869999999997">
        <ele>1028.632</ele>
        <time>2022-08-19T15:29:38Z</time>
      </trkpt>
      <trkpt lat="42.384231" lon="1.6253979999999997">
        <ele>1028.145</ele>
        <time>2022-08-19T15:29:40Z</time>
      </trkpt>
      <trkpt lat="42.384309" lon="1.6253929999999996">
        <ele>1027.747</ele>
        <time>2022-08-19T15:29:42Z</time>
      </trkpt>
      <trkpt lat="42.384355" lon="1.6253959999999996">
        <ele>1027.411</ele>
        <time>2022-08-19T15:29:43Z</time>
      </trkpt>
      <trkpt lat="42.38441" lon="1.6254229999999996">
        <ele>1027.209</ele>
        <time>2022-08-19T15:29:44Z</time>
      </trkpt>
      <trkpt lat="42.384494000000004" lon="1.6254479999999996">
        <ele>1026.745</ele>
        <time>2022-08-19T15:29:46Z</time>
      </trkpt>
      <trkpt lat="42.384542" lon="1.6254559999999996">
        <ele>1026.665</ele>
        <time>2022-08-19T15:29:47Z</time>
      </trkpt>
      <trkpt lat="42.384643000000004" lon="1.6254469999999996">
        <ele>1026.125</ele>
        <time>2022-08-19T15:29:49Z</time>
      </trkpt>
      <trkpt lat="42.384730000000005" lon="1.6254499999999996">
        <ele>1025.735</ele>
        <time>2022-08-19T15:29:51Z</time>
      </trkpt>
      <trkpt lat="42.384803000000005" lon="1.6254679999999997">
        <ele>1025.372</ele>
        <time>2022-08-19T15:29:53Z</time>
      </trkpt>
      <trkpt lat="42.384851000000005" lon="1.6254909999999998">
        <ele>1025.088</ele>
        <time>2022-08-19T15:29:55Z</time>
      </trkpt>
      <trkpt lat="42.384910000000005" lon="1.6255039999999998">
        <ele>1024.628</ele>
        <time>2022-08-19T15:29:57Z</time>
      </trkpt>
      <trkpt lat="42.38497100000001" lon="1.6254809999999997">
        <ele>1024.079</ele>
        <time>2022-08-19T15:30:01Z</time>
      </trkpt>
      <trkpt lat="42.385031000000005" lon="1.6254529999999998">
        <ele>1023.524</ele>
        <time>2022-08-19T15:30:03Z</time>
      </trkpt>
      <trkpt lat="42.385104000000005" lon="1.6254149999999998">
        <ele>1022.926</ele>
        <time>2022-08-19T15:30:05Z</time>
      </trkpt>
      <trkpt lat="42.38517900000001" lon="1.6253689999999998">
        <ele>1022.247</ele>
        <time>2022-08-19T15:30:07Z</time>
      </trkpt>
      <trkpt lat="42.385253000000006" lon="1.625344">
        <ele>1021.511</ele>
        <time>2022-08-19T15:30:09Z</time>
      </trkpt>
      <trkpt lat="42.385299" lon="1.625336">
        <ele>1021.209</ele>
        <time>2022-08-19T15:30:10Z</time>
      </trkpt>
      <trkpt lat="42.385355000000004" lon="1.6253369999999998">
        <ele>1020.823</ele>
        <time>2022-08-19T15:30:12Z</time>
      </trkpt>
      <trkpt lat="42.385407" lon="1.625317">
        <ele>1020.583</ele>
        <time>2022-08-19T15:30:14Z</time>
      </trkpt>
      <trkpt lat="42.385477" lon="1.6252799999999998">
        <ele>1020.183</ele>
        <time>2022-08-19T15:30:16Z</time>
      </trkpt>
      <trkpt lat="42.385539" lon="1.6252499999999999">
        <ele>1019.653</ele>
        <time>2022-08-19T15:30:18Z</time>
      </trkpt>
      <trkpt lat="42.385600000000004" lon="1.625219">
        <ele>1019.190</ele>
        <time>2022-08-19T15:30:20Z</time>
      </trkpt>
      <trkpt lat="42.385696" lon="1.625179">
        <ele>1018.446</ele>
        <time>2022-08-19T15:30:22Z</time>
      </trkpt>
      <trkpt lat="42.385756" lon="1.625168">
        <ele>1017.996</ele>
        <time>2022-08-19T15:30:24Z</time>
      </trkpt>
      <trkpt lat="42.38582" lon="1.625175">
        <ele>1017.447</ele>
        <time>2022-08-19T15:30:26Z</time>
      </trkpt>
      <trkpt lat="42.385882" lon="1.625188">
        <ele>1016.872</ele>
        <time>2022-08-19T15:30:28Z</time>
      </trkpt>
      <trkpt lat="42.385940000000005" lon="1.6252010000000001">
        <ele>1016.389</ele>
        <time>2022-08-19T15:30:30Z</time>
      </trkpt>
      <trkpt lat="42.38599500000001" lon="1.6252170000000001">
        <ele>1016.006</ele>
        <time>2022-08-19T15:30:32Z</time>
      </trkpt>
      <trkpt lat="42.38606400000001" lon="1.625221">
        <ele>1015.626</ele>
        <time>2022-08-19T15:30:34Z</time>
      </trkpt>
      <trkpt lat="42.38612700000001" lon="1.625208">
        <ele>1015.209</ele>
        <time>2022-08-19T15:30:36Z</time>
      </trkpt>
      <trkpt lat="42.386176000000006" lon="1.6252119999999999">
        <ele>1014.889</ele>
        <time>2022-08-19T15:30:38Z</time>
      </trkpt>
      <trkpt lat="42.386235000000006" lon="1.6252469999999999">
        <ele>1014.539</ele>
        <time>2022-08-19T15:30:40Z</time>
      </trkpt>
      <trkpt lat="42.38630700000001" lon="1.6252939999999998">
        <ele>1014.079</ele>
        <time>2022-08-19T15:30:42Z</time>
      </trkpt>
      <trkpt lat="42.386387000000006" lon="1.6253389999999999">
        <ele>1013.469</ele>
        <time>2022-08-19T15:30:44Z</time>
      </trkpt>
      <trkpt lat="42.386466000000006" lon="1.6253749999999998">
        <ele>1012.946</ele>
        <time>2022-08-19T15:30:46Z</time>
      </trkpt>
      <trkpt lat="42.386543" lon="1.6253949999999997">
        <ele>1012.762</ele>
        <time>2022-08-19T15:30:48Z</time>
      </trkpt>
      <trkpt lat="42.386684" lon="1.6253709999999997">
        <ele>1012.732</ele>
        <time>2022-08-19T15:30:50Z</time>
      </trkpt>
      <trkpt lat="42.386747" lon="1.6253609999999996">
        <ele>1012.783</ele>
        <time>2022-08-19T15:30:51Z</time>
      </trkpt>
      <trkpt lat="42.38682" lon="1.6253679999999997">
        <ele>1012.868</ele>
        <time>2022-08-19T15:30:52Z</time>
      </trkpt>
      <trkpt lat="42.38689" lon="1.6253899999999997">
        <ele>1013.123</ele>
        <time>2022-08-19T15:30:54Z</time>
      </trkpt>
      <trkpt lat="42.386967" lon="1.6253929999999996">
        <ele>1013.483</ele>
        <time>2022-08-19T15:30:56Z</time>
      </trkpt>
      <trkpt lat="42.387017" lon="1.6254099999999996">
        <ele>1013.711</ele>
        <time>2022-08-19T15:30:58Z</time>
      </trkpt>
      <trkpt lat="42.387083" lon="1.6254549999999997">
        <ele>1014.109</ele>
        <time>2022-08-19T15:31:00Z</time>
      </trkpt>
      <trkpt lat="42.387142999999995" lon="1.6255009999999996">
        <ele>1014.623</ele>
        <time>2022-08-19T15:31:02Z</time>
      </trkpt>
      <trkpt lat="42.38719999999999" lon="1.6255549999999996">
        <ele>1015.123</ele>
        <time>2022-08-19T15:31:04Z</time>
      </trkpt>
      <trkpt lat="42.387260999999995" lon="1.6255769999999996">
        <ele>1015.483</ele>
        <time>2022-08-19T15:31:07Z</time>
      </trkpt>
      <trkpt lat="42.387331999999994" lon="1.6255449999999996">
        <ele>1015.533</ele>
        <time>2022-08-19T15:31:09Z</time>
      </trkpt>
      <trkpt lat="42.387384999999995" lon="1.6255359999999996">
        <ele>1015.560</ele>
        <time>2022-08-19T15:31:11Z</time>
      </trkpt>
      <trkpt lat="42.38744199999999" lon="1.6255369999999996">
        <ele>1015.526</ele>
        <time>2022-08-19T15:31:13Z</time>
      </trkpt>
      <trkpt lat="42.38751499999999" lon="1.6255419999999996">
        <ele>1015.576</ele>
        <time>2022-08-19T15:31:16Z</time>
      </trkpt>
      <trkpt lat="42.387589999999996" lon="1.6255509999999995">
        <ele>1015.477</ele>
        <time>2022-08-19T15:31:18Z</time>
      </trkpt>
      <trkpt lat="42.387679" lon="1.6255489999999995">
        <ele>1015.022</ele>
        <time>2022-08-19T15:31:20Z</time>
      </trkpt>
      <trkpt lat="42.387751" lon="1.6255499999999994">
        <ele>1014.396</ele>
        <time>2022-08-19T15:31:22Z</time>
      </trkpt>
      <trkpt lat="42.387822" lon="1.6255529999999994">
        <ele>1013.231</ele>
        <time>2022-08-19T15:31:24Z</time>
      </trkpt>
      <trkpt lat="42.387897" lon="1.6255679999999995">
        <ele>1012.324</ele>
        <time>2022-08-19T15:31:26Z</time>
      </trkpt>
      <trkpt lat="42.387949" lon="1.6255949999999995">
        <ele>1011.709</ele>
        <time>2022-08-19T15:31:28Z</time>
      </trkpt>
      <trkpt lat="42.38801" lon="1.6256319999999995">
        <ele>1011.260</ele>
        <time>2022-08-19T15:31:30Z</time>
      </trkpt>
      <trkpt lat="42.388078" lon="1.6256609999999996">
        <ele>1010.540</ele>
        <time>2022-08-19T15:31:32Z</time>
      </trkpt>
      <trkpt lat="42.388152" lon="1.6256819999999996">
        <ele>1010.320</ele>
        <time>2022-08-19T15:31:34Z</time>
      </trkpt>
      <trkpt lat="42.388214999999995" lon="1.6257029999999997">
        <ele>1010.340</ele>
        <time>2022-08-19T15:31:36Z</time>
      </trkpt>
      <trkpt lat="42.38824999999999" lon="1.6257589999999997">
        <ele>1010.377</ele>
        <time>2022-08-19T15:31:39Z</time>
      </trkpt>
      <trkpt lat="42.388223999999994" lon="1.6258119999999998">
        <ele>1010.013</ele>
        <time>2022-08-19T15:31:45Z</time>
      </trkpt>
      <trkpt lat="42.38822699999999" lon="1.6258769999999998">
        <ele>1009.553</ele>
        <time>2022-08-19T15:31:57Z</time>
      </trkpt>
      <trkpt lat="42.388211999999996" lon="1.6259559999999997">
        <ele>1009.484</ele>
        <time>2022-08-19T15:32:26Z</time>
      </trkpt>
      <trkpt lat="42.388194" lon="1.6260379999999997">
        <ele>1009.489</ele>
        <time>2022-08-19T15:32:30Z</time>
      </trkpt>
      <trkpt lat="42.38816" lon="1.6260859999999997">
        <ele>1009.426</ele>
        <time>2022-08-19T15:32:33Z</time>
      </trkpt>
      <trkpt lat="42.388139" lon="1.6261569999999996">
        <ele>1009.547</ele>
        <time>2022-08-19T15:32:36Z</time>
      </trkpt>
      <trkpt lat="42.388093000000005" lon="1.6261989999999997">
        <ele>1009.311</ele>
        <time>2022-08-19T15:32:42Z</time>
      </trkpt>
      <trkpt lat="42.38806400000001" lon="1.6262569999999996">
        <ele>1009.309</ele>
        <time>2022-08-19T15:32:48Z</time>
      </trkpt>
      <trkpt lat="42.38801800000001" lon="1.6262749999999997">
        <ele>1009.383</ele>
        <time>2022-08-19T15:32:50Z</time>
      </trkpt>
      <trkpt lat="42.38797000000001" lon="1.6263009999999998">
        <ele>1009.223</ele>
        <time>2022-08-19T15:32:53Z</time>
      </trkpt>
      <trkpt lat="42.38790100000001" lon="1.6263289999999997">
        <ele>1009.163</ele>
        <time>2022-08-19T15:32:57Z</time>
      </trkpt>
      <trkpt lat="42.38785500000001" lon="1.6263699999999996">
        <ele>1009.193</ele>
        <time>2022-08-19T15:33:00Z</time>
      </trkpt>
      <trkpt lat="42.38782200000001" lon="1.6264289999999997">
        <ele>1009.120</ele>
        <time>2022-08-19T15:33:04Z</time>
      </trkpt>
      <trkpt lat="42.387772000000005" lon="1.6264489999999996">
        <ele>1009.626</ele>
        <time>2022-08-19T15:33:12Z</time>
      </trkpt>
      <trkpt lat="42.387742" lon="1.6264959999999995">
        <ele>1009.746</ele>
        <time>2022-08-19T15:33:17Z</time>
      </trkpt>
      <trkpt lat="42.387695" lon="1.6264949999999996">
        <ele>1009.747</ele>
        <time>2022-08-19T15:33:22Z</time>
      </trkpt>
      <trkpt lat="42.387643000000004" lon="1.6265149999999995">
        <ele>1009.782</ele>
        <time>2022-08-19T15:33:25Z</time>
      </trkpt>
      <trkpt lat="42.387601000000004" lon="1.6265649999999996">
        <ele>1009.727</ele>
        <time>2022-08-19T15:33:30Z</time>
      </trkpt>
      <trkpt lat="42.387588" lon="1.6266349999999996">
        <ele>1009.768</ele>
        <time>2022-08-19T15:33:33Z</time>
      </trkpt>
      <trkpt lat="42.387554" lon="1.6266929999999995">
        <ele>1009.614</ele>
        <time>2022-08-19T15:33:37Z</time>
      </trkpt>
      <trkpt lat="42.387526" lon="1.6267489999999996">
        <ele>1009.609</ele>
        <time>2022-08-19T15:33:41Z</time>
      </trkpt>
      <trkpt lat="42.387507" lon="1.6268049999999996">
        <ele>1009.653</ele>
        <time>2022-08-19T15:33:45Z</time>
      </trkpt>
      <trkpt lat="42.38747" lon="1.6268509999999996">
        <ele>1009.783</ele>
        <time>2022-08-19T15:33:49Z</time>
      </trkpt>
      <trkpt lat="42.387414" lon="1.6268719999999997">
        <ele>1009.973</ele>
        <time>2022-08-19T15:33:53Z</time>
      </trkpt>
      <trkpt lat="42.38737" lon="1.6268879999999997">
        <ele>1010.073</ele>
        <time>2022-08-19T15:33:56Z</time>
      </trkpt>
      <trkpt lat="42.387319999999995" lon="1.6268979999999997">
        <ele>1010.540</ele>
        <time>2022-08-19T15:34:00Z</time>
      </trkpt>
      <trkpt lat="42.387280999999994" lon="1.6268629999999997">
        <ele>1011.046</ele>
        <time>2022-08-19T15:34:04Z</time>
      </trkpt>
      <trkpt lat="42.38723699999999" lon="1.6268359999999997">
        <ele>1011.926</ele>
        <time>2022-08-19T15:34:09Z</time>
      </trkpt>
      <trkpt lat="42.38718699999999" lon="1.6268269999999998">
        <ele>1013.287</ele>
        <time>2022-08-19T15:34:14Z</time>
      </trkpt>
      <trkpt lat="42.38713699999999" lon="1.626861">
        <ele>1013.742</ele>
        <time>2022-08-19T15:34:19Z</time>
      </trkpt>
      <trkpt lat="42.38709799999999" lon="1.626906">
        <ele>1014.243</ele>
        <time>2022-08-19T15:34:24Z</time>
      </trkpt>
      <trkpt lat="42.38707699999999" lon="1.6269609999999999">
        <ele>1014.864</ele>
        <time>2022-08-19T15:34:28Z</time>
      </trkpt>
      <trkpt lat="42.38712699999999" lon="1.627395">
        <ele>1015.610</ele>
        <time>2022-08-19T15:34:30Z</time>
      </trkpt>
      <trkpt lat="42.38708899999999" lon="1.6274279999999999">
        <ele>1018.709</ele>
        <time>2022-08-19T15:34:40Z</time>
      </trkpt>
      <trkpt lat="42.38705999999999" lon="1.6274829999999998">
        <ele>1019.255</ele>
        <time>2022-08-19T15:34:45Z</time>
      </trkpt>
      <trkpt lat="42.38703499999999" lon="1.6275479999999998">
        <ele>1019.625</ele>
        <time>2022-08-19T15:34:50Z</time>
      </trkpt>
      <trkpt lat="42.38702399999999" lon="1.6276099999999998">
        <ele>1020.055</ele>
        <time>2022-08-19T15:34:54Z</time>
      </trkpt>
      <trkpt lat="42.38704299999999" lon="1.6276919999999997">
        <ele>1020.565</ele>
        <time>2022-08-19T15:34:57Z</time>
      </trkpt>
      <trkpt lat="42.38706399999999" lon="1.6277739999999996">
        <ele>1021.592</ele>
        <time>2022-08-19T15:35:00Z</time>
      </trkpt>
      <trkpt lat="42.387095999999985" lon="1.6278519999999996">
        <ele>1022.428</ele>
        <time>2022-08-19T15:35:03Z</time>
      </trkpt>
      <trkpt lat="42.38712599999999" lon="1.6279019999999997">
        <ele>1023.018</ele>
        <time>2022-08-19T15:35:05Z</time>
      </trkpt>
      <trkpt lat="42.38715999999999" lon="1.6279569999999997">
        <ele>1024.129</ele>
        <time>2022-08-19T15:35:08Z</time>
      </trkpt>
      <trkpt lat="42.38717999999999" lon="1.6280229999999996">
        <ele>1025.044</ele>
        <time>2022-08-19T15:35:13Z</time>
      </trkpt>
      <trkpt lat="42.387185999999986" lon="1.6280859999999995">
        <ele>1025.462</ele>
        <time>2022-08-19T15:35:18Z</time>
      </trkpt>
      <trkpt lat="42.38717599999998" lon="1.6281489999999994">
        <ele>1026.083</ele>
        <time>2022-08-19T15:35:23Z</time>
      </trkpt>
      <trkpt lat="42.38719699999998" lon="1.6282139999999994">
        <ele>1026.611</ele>
        <time>2022-08-19T15:35:28Z</time>
      </trkpt>
      <trkpt lat="42.38720899999998" lon="1.6282779999999994">
        <ele>1027.209</ele>
        <time>2022-08-19T15:35:33Z</time>
      </trkpt>
      <trkpt lat="42.387189999999975" lon="1.6283389999999995">
        <ele>1027.827</ele>
        <time>2022-08-19T15:35:38Z</time>
      </trkpt>
      <trkpt lat="42.38718599999998" lon="1.6284339999999995">
        <ele>1028.977</ele>
        <time>2022-08-19T15:35:43Z</time>
      </trkpt>
      <trkpt lat="42.387147999999975" lon="1.6284729999999994">
        <ele>1029.847</ele>
        <time>2022-08-19T15:35:47Z</time>
      </trkpt>
      <trkpt lat="42.38711899999998" lon="1.6285309999999993">
        <ele>1030.657</ele>
        <time>2022-08-19T15:35:55Z</time>
      </trkpt>
      <trkpt lat="42.38711499999998" lon="1.6285919999999994">
        <ele>1031.094</ele>
        <time>2022-08-19T15:36:00Z</time>
      </trkpt>
      <trkpt lat="42.38709499999998" lon="1.6286499999999993">
        <ele>1031.580</ele>
        <time>2022-08-19T15:36:05Z</time>
      </trkpt>
      <trkpt lat="42.38706399999998" lon="1.6286979999999993">
        <ele>1032.020</ele>
        <time>2022-08-19T15:36:10Z</time>
      </trkpt>
      <trkpt lat="42.38702799999998" lon="1.6287399999999994">
        <ele>1032.751</ele>
        <time>2022-08-19T15:36:15Z</time>
      </trkpt>
      <trkpt lat="42.38698199999998" lon="1.6287459999999994">
        <ele>1033.426</ele>
        <time>2022-08-19T15:36:17Z</time>
      </trkpt>
      <trkpt lat="42.386924999999984" lon="1.6287589999999994">
        <ele>1033.934</ele>
        <time>2022-08-19T15:36:19Z</time>
      </trkpt>
      <trkpt lat="42.386881999999986" lon="1.6287859999999994">
        <ele>1034.455</ele>
        <time>2022-08-19T15:36:21Z</time>
      </trkpt>
      <trkpt lat="42.38684099999998" lon="1.6288199999999995">
        <ele>1035.210</ele>
        <time>2022-08-19T15:36:24Z</time>
      </trkpt>
      <trkpt lat="42.38681099999998" lon="1.6288669999999994">
        <ele>1035.509</ele>
        <time>2022-08-19T15:36:28Z</time>
      </trkpt>
      <trkpt lat="42.38678299999998" lon="1.6289229999999995">
        <ele>1035.744</ele>
        <time>2022-08-19T15:36:33Z</time>
      </trkpt>
      <trkpt lat="42.38677399999998" lon="1.6289959999999994">
        <ele>1036.194</ele>
        <time>2022-08-19T15:36:38Z</time>
      </trkpt>
      <trkpt lat="42.38676099999998" lon="1.6290619999999993">
        <ele>1036.784</ele>
        <time>2022-08-19T15:36:43Z</time>
      </trkpt>
      <trkpt lat="42.38673799999998" lon="1.6291219999999993">
        <ele>1037.024</ele>
        <time>2022-08-19T15:36:48Z</time>
      </trkpt>
      <trkpt lat="42.38674699999998" lon="1.6291919999999993">
        <ele>1037.231</ele>
        <time>2022-08-19T15:36:52Z</time>
      </trkpt>
      <trkpt lat="42.38673899999998" lon="1.6292639999999994">
        <ele>1037.867</ele>
        <time>2022-08-19T15:36:57Z</time>
      </trkpt>
      <trkpt lat="42.38671799999998" lon="1.6293229999999994">
        <ele>1038.727</ele>
        <time>2022-08-19T15:37:02Z</time>
      </trkpt>
      <trkpt lat="42.38668999999998" lon="1.6293929999999994">
        <ele>1039.578</ele>
        <time>2022-08-19T15:37:06Z</time>
      </trkpt>
      <trkpt lat="42.38666399999998" lon="1.6294709999999994">
        <ele>1040.223</ele>
        <time>2022-08-19T15:37:09Z</time>
      </trkpt>
      <trkpt lat="42.38663599999998" lon="1.6295209999999996">
        <ele>1040.638</ele>
        <time>2022-08-19T15:37:11Z</time>
      </trkpt>
      <trkpt lat="42.38660199999998" lon="1.6295999999999995">
        <ele>1042.170</ele>
        <time>2022-08-19T15:37:14Z</time>
      </trkpt>
      <trkpt lat="42.38658499999998" lon="1.6296629999999994">
        <ele>1042.717</ele>
        <time>2022-08-19T15:37:16Z</time>
      </trkpt>
      <trkpt lat="42.386572999999984" lon="1.6297319999999995">
        <ele>1043.309</ele>
        <time>2022-08-19T15:37:19Z</time>
      </trkpt>
      <trkpt lat="42.38653999999998" lon="1.6297759999999994">
        <ele>1044.044</ele>
        <time>2022-08-19T15:37:23Z</time>
      </trkpt>
      <trkpt lat="42.386538999999985" lon="1.6298409999999994">
        <ele>1044.644</ele>
        <time>2022-08-19T15:37:29Z</time>
      </trkpt>
      <trkpt lat="42.386504999999985" lon="1.6298849999999994">
        <ele>1045.174</ele>
        <time>2022-08-19T15:37:33Z</time>
      </trkpt>
      <trkpt lat="42.386465999999984" lon="1.6299369999999993">
        <ele>1045.914</ele>
        <time>2022-08-19T15:37:38Z</time>
      </trkpt>
      <trkpt lat="42.386420999999984" lon="1.6299699999999993">
        <ele>1046.881</ele>
        <time>2022-08-19T15:37:43Z</time>
      </trkpt>
      <trkpt lat="42.38639099999998" lon="1.6300219999999992">
        <ele>1047.887</ele>
        <time>2022-08-19T15:37:48Z</time>
      </trkpt>
      <trkpt lat="42.38641099999998" lon="1.6300809999999992">
        <ele>1049.027</ele>
        <time>2022-08-19T15:37:53Z</time>
      </trkpt>
      <trkpt lat="42.38640299999998" lon="1.6301499999999993">
        <ele>1050.048</ele>
        <time>2022-08-19T15:37:58Z</time>
      </trkpt>
      <trkpt lat="42.38637099999998" lon="1.6301989999999993">
        <ele>1051.173</ele>
        <time>2022-08-19T15:38:03Z</time>
      </trkpt>
      <trkpt lat="42.386347999999984" lon="1.6302559999999993">
        <ele>1052.335</ele>
        <time>2022-08-19T15:38:08Z</time>
      </trkpt>
      <trkpt lat="42.38634699999999" lon="1.6303169999999994">
        <ele>1054.086</ele>
        <time>2022-08-19T15:38:14Z</time>
      </trkpt>
      <trkpt lat="42.38632399999999" lon="1.6303799999999993">
        <ele>1055.614</ele>
        <time>2022-08-19T15:38:21Z</time>
      </trkpt>
      <trkpt lat="42.38630299999999" lon="1.6304379999999992">
        <ele>1056.809</ele>
        <time>2022-08-19T15:38:27Z</time>
      </trkpt>
      <trkpt lat="42.38627599999999" lon="1.6304979999999991">
        <ele>1058.744</ele>
        <time>2022-08-19T15:38:38Z</time>
      </trkpt>
      <trkpt lat="42.38626499999999" lon="1.6305599999999991">
        <ele>1059.944</ele>
        <time>2022-08-19T15:38:43Z</time>
      </trkpt>
      <trkpt lat="42.38626999999999" lon="1.6306299999999991">
        <ele>1061.024</ele>
        <time>2022-08-19T15:38:49Z</time>
      </trkpt>
      <trkpt lat="42.386273999999986" lon="1.6306939999999992">
        <ele>1062.274</ele>
        <time>2022-08-19T15:38:54Z</time>
      </trkpt>
      <trkpt lat="42.38632599999998" lon="1.630678999999999">
        <ele>1063.491</ele>
        <time>2022-08-19T15:39:01Z</time>
      </trkpt>
      <trkpt lat="42.38634599999998" lon="1.630622999999999">
        <ele>1065.037</ele>
        <time>2022-08-19T15:39:06Z</time>
      </trkpt>
      <trkpt lat="42.386372999999985" lon="1.630685999999999">
        <ele>1067.017</ele>
        <time>2022-08-19T15:39:14Z</time>
      </trkpt>
      <trkpt lat="42.386408999999986" lon="1.630731999999999">
        <ele>1068.168</ele>
        <time>2022-08-19T15:39:19Z</time>
      </trkpt>
      <trkpt lat="42.386454999999984" lon="1.630715999999999">
        <ele>1069.233</ele>
        <time>2022-08-19T15:39:24Z</time>
      </trkpt>
      <trkpt lat="42.38641299999998" lon="1.630677999999999">
        <ele>1070.976</ele>
        <time>2022-08-19T15:39:33Z</time>
      </trkpt>
      <trkpt lat="42.386406999999984" lon="1.630606999999999">
        <ele>1072.390</ele>
        <time>2022-08-19T15:39:39Z</time>
      </trkpt>
      <trkpt lat="42.386392999999984" lon="1.630670999999999">
        <ele>1073.319</ele>
        <time>2022-08-19T15:39:44Z</time>
      </trkpt>
      <trkpt lat="42.38643099999999" lon="1.630633999999999">
        <ele>1077.509</ele>
        <time>2022-08-19T15:40:04Z</time>
      </trkpt>
      <trkpt lat="42.38649999999999" lon="1.630708999999999">
        <ele>1081.128</ele>
        <time>2022-08-19T15:40:23Z</time>
      </trkpt>
      <trkpt lat="42.38645999999999" lon="1.6307459999999991">
        <ele>1082.728</ele>
        <time>2022-08-19T15:40:28Z</time>
      </trkpt>
      <trkpt lat="42.386410999999995" lon="1.6307559999999992">
        <ele>1083.588</ele>
        <time>2022-08-19T15:40:33Z</time>
      </trkpt>
      <trkpt lat="42.386413999999995" lon="1.6308169999999993">
        <ele>1083.578</ele>
        <time>2022-08-19T15:40:38Z</time>
      </trkpt>
      <trkpt lat="42.386416" lon="1.6308819999999993">
        <ele>1084.075</ele>
        <time>2022-08-19T15:40:43Z</time>
      </trkpt>
      <trkpt lat="42.386387" lon="1.6309329999999993">
        <ele>1084.921</ele>
        <time>2022-08-19T15:40:48Z</time>
      </trkpt>
      <trkpt lat="42.38637" lon="1.6309979999999993">
        <ele>1086.431</ele>
        <time>2022-08-19T15:40:53Z</time>
      </trkpt>
      <trkpt lat="42.386358" lon="1.6310609999999992">
        <ele>1087.272</ele>
        <time>2022-08-19T15:40:58Z</time>
      </trkpt>
      <trkpt lat="42.386345" lon="1.6311229999999992">
        <ele>1087.767</ele>
        <time>2022-08-19T15:41:03Z</time>
      </trkpt>
      <trkpt lat="42.38634" lon="1.6311929999999992">
        <ele>1088.371</ele>
        <time>2022-08-19T15:41:08Z</time>
      </trkpt>
      <trkpt lat="42.386326999999994" lon="1.6312549999999992">
        <ele>1088.941</ele>
        <time>2022-08-19T15:41:13Z</time>
      </trkpt>
      <trkpt lat="42.38631399999999" lon="1.6313199999999992">
        <ele>1089.915</ele>
        <time>2022-08-19T15:41:18Z</time>
      </trkpt>
      <trkpt lat="42.38630299999999" lon="1.6313819999999992">
        <ele>1090.409</ele>
        <time>2022-08-19T15:41:23Z</time>
      </trkpt>
      <trkpt lat="42.38635999999999" lon="1.6313849999999992">
        <ele>1091.958</ele>
        <time>2022-08-19T15:41:30Z</time>
      </trkpt>
      <trkpt lat="42.38631699999999" lon="1.6317239999999993">
        <ele>1097.148</ele>
        <time>2022-08-19T15:41:58Z</time>
      </trkpt>
      <trkpt lat="42.38633499999999" lon="1.6316529999999994">
        <ele>1098.248</ele>
        <time>2022-08-19T15:42:04Z</time>
      </trkpt>
      <trkpt lat="42.386332999999986" lon="1.6315869999999995">
        <ele>1098.398</ele>
        <time>2022-08-19T15:42:07Z</time>
      </trkpt>
      <trkpt lat="42.38633199999999" lon="1.6315259999999994">
        <ele>1098.555</ele>
        <time>2022-08-19T15:42:11Z</time>
      </trkpt>
      <trkpt lat="42.38635399999999" lon="1.6314679999999995">
        <ele>1098.751</ele>
        <time>2022-08-19T15:42:16Z</time>
      </trkpt>
      <trkpt lat="42.38638399999999" lon="1.6314159999999995">
        <ele>1098.961</ele>
        <time>2022-08-19T15:42:21Z</time>
      </trkpt>
      <trkpt lat="42.386430999999995" lon="1.6313849999999996">
        <ele>1099.642</ele>
        <time>2022-08-19T15:42:24Z</time>
      </trkpt>
      <trkpt lat="42.386478" lon="1.6313879999999996">
        <ele>1100.477</ele>
        <time>2022-08-19T15:42:27Z</time>
      </trkpt>
      <trkpt lat="42.386514999999996" lon="1.6313359999999997">
        <ele>1101.023</ele>
        <time>2022-08-19T15:42:31Z</time>
      </trkpt>
      <trkpt lat="42.386506999999995" lon="1.6312699999999998">
        <ele>1102.083</ele>
        <time>2022-08-19T15:42:36Z</time>
      </trkpt>
      <trkpt lat="42.38650499999999" lon="1.6312069999999999">
        <ele>1103.311</ele>
        <time>2022-08-19T15:42:41Z</time>
      </trkpt>
      <trkpt lat="42.38653699999999" lon="1.631147">
        <ele>1104.509</ele>
        <time>2022-08-19T15:42:46Z</time>
      </trkpt>
      <trkpt lat="42.38659799999999" lon="1.631163">
        <ele>1104.973</ele>
        <time>2022-08-19T15:42:48Z</time>
      </trkpt>
      <trkpt lat="42.386638999999995" lon="1.631195">
        <ele>1105.573</ele>
        <time>2022-08-19T15:42:50Z</time>
      </trkpt>
      <trkpt lat="42.386588999999994" lon="1.631209">
        <ele>1106.343</ele>
        <time>2022-08-19T15:42:55Z</time>
      </trkpt>
      <trkpt lat="42.386562999999995" lon="1.631268">
        <ele>1107.663</ele>
        <time>2022-08-19T15:43:00Z</time>
      </trkpt>
      <trkpt lat="42.38654999999999" lon="1.631337">
        <ele>1108.860</ele>
        <time>2022-08-19T15:43:05Z</time>
      </trkpt>
      <trkpt lat="42.38653399999999" lon="1.631397">
        <ele>1109.586</ele>
        <time>2022-08-19T15:43:09Z</time>
      </trkpt>
      <trkpt lat="42.38653899999999" lon="1.631462">
        <ele>1110.126</ele>
        <time>2022-08-19T15:43:14Z</time>
      </trkpt>
      <trkpt lat="42.38654599999999" lon="1.6315279999999999">
        <ele>1111.057</ele>
        <time>2022-08-19T15:43:19Z</time>
      </trkpt>
      <trkpt lat="42.38656499999999" lon="1.6315959999999998">
        <ele>1111.462</ele>
        <time>2022-08-19T15:43:26Z</time>
      </trkpt>
      <trkpt lat="42.38657399999999" lon="1.6316609999999998">
        <ele>1111.629</ele>
        <time>2022-08-19T15:43:33Z</time>
      </trkpt>
      <trkpt lat="42.38658399999999" lon="1.6317319999999997">
        <ele>1112.200</ele>
        <time>2022-08-19T15:43:39Z</time>
      </trkpt>
      <trkpt lat="42.386593999999995" lon="1.6317919999999997">
        <ele>1113.120</ele>
        <time>2022-08-19T15:43:44Z</time>
      </trkpt>
      <trkpt lat="42.386607999999995" lon="1.6318509999999997">
        <ele>1113.909</ele>
        <time>2022-08-19T15:43:49Z</time>
      </trkpt>
      <trkpt lat="42.386644999999994" lon="1.6319029999999997">
        <ele>1114.233</ele>
        <time>2022-08-19T15:43:55Z</time>
      </trkpt>
      <trkpt lat="42.386663999999996" lon="1.6319689999999996">
        <ele>1115.023</ele>
        <time>2022-08-19T15:44:02Z</time>
      </trkpt>
      <trkpt lat="42.386700999999995" lon="1.6320129999999995">
        <ele>1115.953</ele>
        <time>2022-08-19T15:44:07Z</time>
      </trkpt>
      <trkpt lat="42.386748" lon="1.6320379999999994">
        <ele>1116.663</ele>
        <time>2022-08-19T15:44:11Z</time>
      </trkpt>
      <trkpt lat="42.386790999999995" lon="1.6320639999999995">
        <ele>1117.340</ele>
        <time>2022-08-19T15:44:15Z</time>
      </trkpt>
      <trkpt lat="42.386830999999994" lon="1.6321059999999996">
        <ele>1117.956</ele>
        <time>2022-08-19T15:44:20Z</time>
      </trkpt>
      <trkpt lat="42.386869999999995" lon="1.6321509999999997">
        <ele>1118.946</ele>
        <time>2022-08-19T15:44:26Z</time>
      </trkpt>
      <trkpt lat="42.38691599999999" lon="1.6321759999999996">
        <ele>1120.197</ele>
        <time>2022-08-19T15:44:31Z</time>
      </trkpt>
      <trkpt lat="42.38694499999999" lon="1.6322249999999996">
        <ele>1120.422</ele>
        <time>2022-08-19T15:44:36Z</time>
      </trkpt>
      <trkpt lat="42.38698899999999" lon="1.6322589999999997">
        <ele>1121.052</ele>
        <time>2022-08-19T15:44:41Z</time>
      </trkpt>
      <trkpt lat="42.38701399999999" lon="1.6323109999999996">
        <ele>1121.753</ele>
        <time>2022-08-19T15:44:46Z</time>
      </trkpt>
      <trkpt lat="42.38699499999999" lon="1.6326289999999997">
        <ele>1122.108</ele>
        <time>2022-08-19T15:44:50Z</time>
      </trkpt>
      <trkpt lat="42.38702699999999" lon="1.6326749999999997">
        <ele>1123.309</ele>
        <time>2022-08-19T15:44:53Z</time>
      </trkpt>
      <trkpt lat="42.38705299999999" lon="1.6327549999999997">
        <ele>1123.576</ele>
        <time>2022-08-19T15:44:56Z</time>
      </trkpt>
      <trkpt lat="42.38707999999999" lon="1.6328149999999997">
        <ele>1123.636</ele>
        <time>2022-08-19T15:44:59Z</time>
      </trkpt>
      <trkpt lat="42.38709299999999" lon="1.6328859999999996">
        <ele>1123.756</ele>
        <time>2022-08-19T15:45:04Z</time>
      </trkpt>
      <trkpt lat="42.387103999999994" lon="1.6329589999999996">
        <ele>1123.856</ele>
        <time>2022-08-19T15:45:08Z</time>
      </trkpt>
      <trkpt lat="42.387097999999995" lon="1.6330229999999997">
        <ele>1124.083</ele>
        <time>2022-08-19T15:45:13Z</time>
      </trkpt>
      <trkpt lat="42.387125999999995" lon="1.6330749999999996">
        <ele>1124.159</ele>
        <time>2022-08-19T15:45:18Z</time>
      </trkpt>
      <trkpt lat="42.387142" lon="1.6331479999999996">
        <ele>1124.379</ele>
        <time>2022-08-19T15:45:23Z</time>
      </trkpt>
      <trkpt lat="42.387159999999994" lon="1.6332049999999996">
        <ele>1124.510</ele>
        <time>2022-08-19T15:45:27Z</time>
      </trkpt>
      <trkpt lat="42.38718099999999" lon="1.6332639999999996">
        <ele>1124.965</ele>
        <time>2022-08-19T15:45:32Z</time>
      </trkpt>
      <trkpt lat="42.387193999999994" lon="1.6333239999999996">
        <ele>1125.175</ele>
        <time>2022-08-19T15:45:37Z</time>
      </trkpt>
      <trkpt lat="42.38721699999999" lon="1.6333839999999995">
        <ele>1125.328</ele>
        <time>2022-08-19T15:45:42Z</time>
      </trkpt>
      <trkpt lat="42.38725699999999" lon="1.6334329999999995">
        <ele>1125.720</ele>
        <time>2022-08-19T15:45:47Z</time>
      </trkpt>
      <trkpt lat="42.38729299999999" lon="1.6334769999999994">
        <ele>1125.909</ele>
        <time>2022-08-19T15:45:51Z</time>
      </trkpt>
      <trkpt lat="42.387336999999995" lon="1.6335209999999993">
        <ele>1126.168</ele>
        <time>2022-08-19T15:45:56Z</time>
      </trkpt>
      <trkpt lat="42.387381" lon="1.6335419999999994">
        <ele>1126.858</ele>
        <time>2022-08-19T15:46:04Z</time>
      </trkpt>
      <trkpt lat="42.387426999999995" lon="1.6335689999999994">
        <ele>1127.598</ele>
        <time>2022-08-19T15:46:09Z</time>
      </trkpt>
      <trkpt lat="42.387482" lon="1.6335599999999995">
        <ele>1128.068</ele>
        <time>2022-08-19T15:46:14Z</time>
      </trkpt>
      <trkpt lat="42.387529" lon="1.6335779999999995">
        <ele>1128.625</ele>
        <time>2022-08-19T15:46:19Z</time>
      </trkpt>
      <trkpt lat="42.387574" lon="1.6335979999999994">
        <ele>1129.271</ele>
        <time>2022-08-19T15:46:24Z</time>
      </trkpt>
      <trkpt lat="42.387501" lon="1.6339039999999994">
        <ele>1129.341</ele>
        <time>2022-08-19T15:46:25Z</time>
      </trkpt>
      <trkpt lat="42.38755" lon="1.6339149999999993">
        <ele>1130.962</ele>
        <time>2022-08-19T15:46:30Z</time>
      </trkpt>
      <trkpt lat="42.387588" lon="1.6339589999999993">
        <ele>1131.157</ele>
        <time>2022-08-19T15:46:34Z</time>
      </trkpt>
      <trkpt lat="42.387601000000004" lon="1.6340359999999994">
        <ele>1131.248</ele>
        <time>2022-08-19T15:46:39Z</time>
      </trkpt>
      <trkpt lat="42.387626000000004" lon="1.6340899999999994">
        <ele>1131.261</ele>
        <time>2022-08-19T15:46:42Z</time>
      </trkpt>
      <trkpt lat="42.387643000000004" lon="1.6341479999999993">
        <ele>1131.217</ele>
        <time>2022-08-19T15:46:45Z</time>
      </trkpt>
      <trkpt lat="42.387671000000005" lon="1.6342009999999993">
        <ele>1131.409</ele>
        <time>2022-08-19T15:46:50Z</time>
      </trkpt>
      <trkpt lat="42.38770400000001" lon="1.6342439999999994">
        <ele>1131.785</ele>
        <time>2022-08-19T15:46:55Z</time>
      </trkpt>
      <trkpt lat="42.387744000000005" lon="1.6342809999999994">
        <ele>1132.185</ele>
        <time>2022-08-19T15:46:59Z</time>
      </trkpt>
      <trkpt lat="42.38777100000001" lon="1.6343379999999994">
        <ele>1132.565</ele>
        <time>2022-08-19T15:47:04Z</time>
      </trkpt>
      <trkpt lat="42.38781800000001" lon="1.6343339999999995">
        <ele>1133.185</ele>
        <time>2022-08-19T15:47:11Z</time>
      </trkpt>
      <trkpt lat="42.38785700000001" lon="1.6342909999999995">
        <ele>1133.862</ele>
        <time>2022-08-19T15:47:22Z</time>
      </trkpt>
      <trkpt lat="42.38790900000001" lon="1.6342719999999995">
        <ele>1134.638</ele>
        <time>2022-08-19T15:47:27Z</time>
      </trkpt>
      <trkpt lat="42.387949000000006" lon="1.6343229999999995">
        <ele>1135.218</ele>
        <time>2022-08-19T15:47:32Z</time>
      </trkpt>
      <trkpt lat="42.38798800000001" lon="1.6343629999999996">
        <ele>1136.349</ele>
        <time>2022-08-19T15:47:37Z</time>
      </trkpt>
      <trkpt lat="42.38802200000001" lon="1.6344109999999996">
        <ele>1137.444</ele>
        <time>2022-08-19T15:47:43Z</time>
      </trkpt>
      <trkpt lat="42.388020000000004" lon="1.6343469999999996">
        <ele>1139.888</ele>
        <time>2022-08-19T15:47:52Z</time>
      </trkpt>
      <trkpt lat="42.387967" lon="1.6343359999999996">
        <ele>1141.024</ele>
        <time>2022-08-19T15:47:59Z</time>
      </trkpt>
      <trkpt lat="42.387983000000006" lon="1.6342749999999995">
        <ele>1143.426</ele>
        <time>2022-08-19T15:48:09Z</time>
      </trkpt>
      <trkpt lat="42.38803000000001" lon="1.6342599999999994">
        <ele>1144.909</ele>
        <time>2022-08-19T15:48:14Z</time>
      </trkpt>
      <trkpt lat="42.388079000000005" lon="1.6342499999999993">
        <ele>1146.349</ele>
        <time>2022-08-19T15:48:19Z</time>
      </trkpt>
      <trkpt lat="42.388125" lon="1.6342649999999994">
        <ele>1147.679</ele>
        <time>2022-08-19T15:48:23Z</time>
      </trkpt>
      <trkpt lat="42.388176" lon="1.6342679999999994">
        <ele>1148.759</ele>
        <time>2022-08-19T15:48:28Z</time>
      </trkpt>
      <trkpt lat="42.388224" lon="1.6342469999999993">
        <ele>1150.629</ele>
        <time>2022-08-19T15:48:35Z</time>
      </trkpt>
      <trkpt lat="42.388275" lon="1.6342479999999993">
        <ele>1151.596</ele>
        <time>2022-08-19T15:48:40Z</time>
      </trkpt>
      <trkpt lat="42.388324" lon="1.6342419999999993">
        <ele>1152.332</ele>
        <time>2022-08-19T15:48:45Z</time>
      </trkpt>
      <trkpt lat="42.388365" lon="1.6342119999999993">
        <ele>1153.462</ele>
        <time>2022-08-19T15:48:50Z</time>
      </trkpt>
      <trkpt lat="42.388407" lon="1.6341689999999993">
        <ele>1154.763</ele>
        <time>2022-08-19T15:48:56Z</time>
      </trkpt>
      <trkpt lat="42.388451" lon="1.6341549999999994">
        <ele>1155.768</ele>
        <time>2022-08-19T15:49:01Z</time>
      </trkpt>
      <trkpt lat="42.388503" lon="1.6341609999999993">
        <ele>1157.168</ele>
        <time>2022-08-19T15:49:06Z</time>
      </trkpt>
      <trkpt lat="42.388536" lon="1.6342169999999994">
        <ele>1158.642</ele>
        <time>2022-08-19T15:49:14Z</time>
      </trkpt>
      <trkpt lat="42.388552000000004" lon="1.6342759999999994">
        <ele>1159.726</ele>
        <time>2022-08-19T15:49:18Z</time>
      </trkpt>
      <trkpt lat="42.388585000000006" lon="1.6342299999999994">
        <ele>1161.809</ele>
        <time>2022-08-19T15:49:28Z</time>
      </trkpt>
      <trkpt lat="42.38862600000001" lon="1.6341949999999994">
        <ele>1162.837</ele>
        <time>2022-08-19T15:49:33Z</time>
      </trkpt>
      <trkpt lat="42.38866900000001" lon="1.6342149999999993">
        <ele>1164.167</ele>
        <time>2022-08-19T15:49:37Z</time>
      </trkpt>
      <trkpt lat="42.38867700000001" lon="1.6342769999999993">
        <ele>1164.747</ele>
        <time>2022-08-19T15:49:40Z</time>
      </trkpt>
      <trkpt lat="42.388675000000006" lon="1.6343439999999994">
        <ele>1165.677</ele>
        <time>2022-08-19T15:49:45Z</time>
      </trkpt>
      <trkpt lat="42.388513" lon="1.6341939999999993">
        <ele>1166.884</ele>
        <time>2022-08-19T15:49:50Z</time>
      </trkpt>
      <trkpt lat="42.388555000000004" lon="1.6342669999999992">
        <ele>1169.480</ele>
        <time>2022-08-19T15:49:52Z</time>
      </trkpt>
      <trkpt lat="42.388603" lon="1.6342939999999992">
        <ele>1169.780</ele>
        <time>2022-08-19T15:49:54Z</time>
      </trkpt>
      <trkpt lat="42.388647000000006" lon="1.6343129999999992">
        <ele>1170.021</ele>
        <time>2022-08-19T15:49:57Z</time>
      </trkpt>
      <trkpt lat="42.388696" lon="1.6343409999999992">
        <ele>1170.536</ele>
        <time>2022-08-19T15:50:02Z</time>
      </trkpt>
      <trkpt lat="42.388732000000005" lon="1.6343779999999992">
        <ele>1171.236</ele>
        <time>2022-08-19T15:50:07Z</time>
      </trkpt>
      <trkpt lat="42.38875900000001" lon="1.6344319999999992">
        <ele>1172.017</ele>
        <time>2022-08-19T15:50:11Z</time>
      </trkpt>
      <trkpt lat="42.38878400000001" lon="1.6344919999999992">
        <ele>1172.818</ele>
        <time>2022-08-19T15:50:16Z</time>
      </trkpt>
      <trkpt lat="42.38880800000001" lon="1.6345459999999992">
        <ele>1173.809</ele>
        <time>2022-08-19T15:50:21Z</time>
      </trkpt>
      <trkpt lat="42.388855000000014" lon="1.6345639999999992">
        <ele>1175.184</ele>
        <time>2022-08-19T15:50:26Z</time>
      </trkpt>
      <trkpt lat="42.388902000000016" lon="1.6345389999999993">
        <ele>1177.934</ele>
        <time>2022-08-19T15:50:38Z</time>
      </trkpt>
      <trkpt lat="42.38893500000002" lon="1.6344949999999994">
        <ele>1178.654</ele>
        <time>2022-08-19T15:50:43Z</time>
      </trkpt>
      <trkpt lat="42.388975000000016" lon="1.6344639999999995">
        <ele>1179.624</ele>
        <time>2022-08-19T15:50:48Z</time>
      </trkpt>
      <trkpt lat="42.38901700000002" lon="1.6344359999999996">
        <ele>1180.761</ele>
        <time>2022-08-19T15:50:53Z</time>
      </trkpt>
      <trkpt lat="42.389066000000014" lon="1.6344419999999995">
        <ele>1181.487</ele>
        <time>2022-08-19T15:50:57Z</time>
      </trkpt>
      <trkpt lat="42.38909800000001" lon="1.6343979999999996">
        <ele>1182.537</ele>
        <time>2022-08-19T15:51:02Z</time>
      </trkpt>
      <trkpt lat="42.38914700000001" lon="1.6343589999999997">
        <ele>1183.618</ele>
        <time>2022-08-19T15:51:07Z</time>
      </trkpt>
      <trkpt lat="42.389193000000006" lon="1.6343759999999996">
        <ele>1184.963</ele>
        <time>2022-08-19T15:51:10Z</time>
      </trkpt>
      <trkpt lat="42.38921200000001" lon="1.6343189999999996">
        <ele>1186.425</ele>
        <time>2022-08-19T15:51:15Z</time>
      </trkpt>
      <trkpt lat="42.389224000000006" lon="1.6342519999999996">
        <ele>1187.526</ele>
        <time>2022-08-19T15:51:20Z</time>
      </trkpt>
      <trkpt lat="42.38924300000001" lon="1.6341939999999997">
        <ele>1188.708</ele>
        <time>2022-08-19T15:51:25Z</time>
      </trkpt>
      <trkpt lat="42.38927300000001" lon="1.6341479999999997">
        <ele>1189.809</ele>
        <time>2022-08-19T15:51:30Z</time>
      </trkpt>
      <trkpt lat="42.38930500000001" lon="1.6340909999999997">
        <ele>1190.733</ele>
        <time>2022-08-19T15:51:36Z</time>
      </trkpt>
      <trkpt lat="42.389354000000004" lon="1.6340669999999997">
        <ele>1192.433</ele>
        <time>2022-08-19T15:51:41Z</time>
      </trkpt>
      <trkpt lat="42.389391" lon="1.6340279999999998">
        <ele>1192.983</ele>
        <time>2022-08-19T15:51:46Z</time>
      </trkpt>
      <trkpt lat="42.389430000000004" lon="1.6339779999999997">
        <ele>1193.923</ele>
        <time>2022-08-19T15:51:52Z</time>
      </trkpt>
      <trkpt lat="42.389451" lon="1.6339189999999997">
        <ele>1194.980</ele>
        <time>2022-08-19T15:51:59Z</time>
      </trkpt>
      <trkpt lat="42.389432" lon="1.6338499999999996">
        <ele>1195.566</ele>
        <time>2022-08-19T15:52:07Z</time>
      </trkpt>
      <trkpt lat="42.389413" lon="1.6337839999999997">
        <ele>1196.216</ele>
        <time>2022-08-19T15:52:12Z</time>
      </trkpt>
      <trkpt lat="42.389447999999994" lon="1.6337319999999997">
        <ele>1197.187</ele>
        <time>2022-08-19T15:52:17Z</time>
      </trkpt>
      <trkpt lat="42.38945199999999" lon="1.6336679999999997">
        <ele>1198.312</ele>
        <time>2022-08-19T15:52:23Z</time>
      </trkpt>
      <trkpt lat="42.38944699999999" lon="1.6335979999999997">
        <ele>1199.467</ele>
        <time>2022-08-19T15:52:29Z</time>
      </trkpt>
      <trkpt lat="42.38946099999999" lon="1.6335369999999996">
        <ele>1200.281</ele>
        <time>2022-08-19T15:52:34Z</time>
      </trkpt>
      <trkpt lat="42.38945299999999" lon="1.6334659999999996">
        <ele>1201.619</ele>
        <time>2022-08-19T15:52:40Z</time>
      </trkpt>
      <trkpt lat="42.38944899999999" lon="1.6334039999999996">
        <ele>1201.909</ele>
        <time>2022-08-19T15:52:45Z</time>
      </trkpt>
      <trkpt lat="42.38946599999999" lon="1.6333429999999995">
        <ele>1202.547</ele>
        <time>2022-08-19T15:52:50Z</time>
      </trkpt>
      <trkpt lat="42.389458999999995" lon="1.6332809999999995">
        <ele>1203.437</ele>
        <time>2022-08-19T15:52:55Z</time>
      </trkpt>
      <trkpt lat="42.38948799999999" lon="1.6332229999999996">
        <ele>1204.427</ele>
        <time>2022-08-19T15:53:00Z</time>
      </trkpt>
      <trkpt lat="42.389495999999994" lon="1.6331619999999996">
        <ele>1205.447</ele>
        <time>2022-08-19T15:53:05Z</time>
      </trkpt>
      <trkpt lat="42.38950799999999" lon="1.6330949999999995">
        <ele>1209.734</ele>
        <time>2022-08-19T15:53:52Z</time>
      </trkpt>
      <trkpt lat="42.389534999999995" lon="1.6330399999999996">
        <ele>1210.350</ele>
        <time>2022-08-19T15:54:00Z</time>
      </trkpt>
      <trkpt lat="42.389526999999994" lon="1.6329799999999997">
        <ele>1211.220</ele>
        <time>2022-08-19T15:54:12Z</time>
      </trkpt>
      <trkpt lat="42.389526" lon="1.6329119999999997">
        <ele>1211.241</ele>
        <time>2022-08-19T15:54:17Z</time>
      </trkpt>
      <trkpt lat="42.389526999999994" lon="1.6328409999999998">
        <ele>1214.316</ele>
        <time>2022-08-19T15:54:23Z</time>
      </trkpt>
      <trkpt lat="42.389483999999996" lon="1.6327859999999998">
        <ele>1214.772</ele>
        <time>2022-08-19T15:54:28Z</time>
      </trkpt>
      <trkpt lat="42.38945999999999" lon="1.6327239999999998">
        <ele>1215.913</ele>
        <time>2022-08-19T15:54:33Z</time>
      </trkpt>
      <trkpt lat="42.38945499999999" lon="1.6326589999999999">
        <ele>1216.914</ele>
        <time>2022-08-19T15:54:38Z</time>
      </trkpt>
      <trkpt lat="42.389467999999994" lon="1.632599">
        <ele>1218.509</ele>
        <time>2022-08-19T15:54:43Z</time>
      </trkpt>
      <trkpt lat="42.389486999999995" lon="1.6325399999999999">
        <ele>1218.948</ele>
        <time>2022-08-19T15:54:48Z</time>
      </trkpt>
      <trkpt lat="42.389483" lon="1.632472">
        <ele>1219.618</ele>
        <time>2022-08-19T15:54:53Z</time>
      </trkpt>
      <trkpt lat="42.38948" lon="1.6323919999999998">
        <ele>1222.158</ele>
        <time>2022-08-19T15:55:18Z</time>
      </trkpt>
      <trkpt lat="42.389455" lon="1.6323359999999998">
        <ele>1222.698</ele>
        <time>2022-08-19T15:55:24Z</time>
      </trkpt>
      <trkpt lat="42.389497999999996" lon="1.6322939999999997">
        <ele>1222.755</ele>
        <time>2022-08-19T15:55:37Z</time>
      </trkpt>
      <trkpt lat="42.389542999999996" lon="1.6322739999999998">
        <ele>1226.091</ele>
        <time>2022-08-19T15:56:08Z</time>
      </trkpt>
      <trkpt lat="42.389588999999994" lon="1.6322279999999998">
        <ele>1227.191</ele>
        <time>2022-08-19T15:56:13Z</time>
      </trkpt>
      <trkpt lat="42.38963699999999" lon="1.632216">
        <ele>1227.252</ele>
        <time>2022-08-19T15:56:17Z</time>
      </trkpt>
      <trkpt lat="42.389683999999995" lon="1.6322199999999998">
        <ele>1227.267</ele>
        <time>2022-08-19T15:56:21Z</time>
      </trkpt>
      <trkpt lat="42.38972999999999" lon="1.6322379999999999">
        <ele>1227.234</ele>
        <time>2022-08-19T15:56:25Z</time>
      </trkpt>
      <trkpt lat="42.38971899999999" lon="1.6323219999999998">
        <ele>1227.355</ele>
        <time>2022-08-19T15:56:28Z</time>
      </trkpt>
      <trkpt lat="42.38968099999999" lon="1.6324269999999999">
        <ele>1230.610</ele>
        <time>2022-08-19T15:56:30Z</time>
      </trkpt>
      <trkpt lat="42.38967699999999" lon="1.6324929999999997">
        <ele>1231.709</ele>
        <time>2022-08-19T15:56:38Z</time>
      </trkpt>
      <trkpt lat="42.38971899999999" lon="1.6325309999999997">
        <ele>1232.574</ele>
        <time>2022-08-19T15:56:44Z</time>
      </trkpt>
      <trkpt lat="42.38976399999999" lon="1.6325489999999998">
        <ele>1232.854</ele>
        <time>2022-08-19T15:56:49Z</time>
      </trkpt>
      <trkpt lat="42.38980899999999" lon="1.6325679999999998">
        <ele>1233.464</ele>
        <time>2022-08-19T15:56:54Z</time>
      </trkpt>
      <trkpt lat="42.38986599999999" lon="1.6324809999999998">
        <ele>1233.724</ele>
        <time>2022-08-19T15:56:58Z</time>
      </trkpt>
      <trkpt lat="42.389889999999994" lon="1.6324119999999998">
        <ele>1234.531</ele>
        <time>2022-08-19T15:57:00Z</time>
      </trkpt>
      <trkpt lat="42.389889" lon="1.6323379999999998">
        <ele>1235.977</ele>
        <time>2022-08-19T15:57:05Z</time>
      </trkpt>
      <trkpt lat="42.389882" lon="1.6322729999999999">
        <ele>1238.257</ele>
        <time>2022-08-19T15:57:27Z</time>
      </trkpt>
      <trkpt lat="42.389856" lon="1.632218">
        <ele>1238.248</ele>
        <time>2022-08-19T15:57:33Z</time>
      </trkpt>
      <trkpt lat="42.389979000000004" lon="1.632166">
        <ele>1238.383</ele>
        <time>2022-08-19T15:57:41Z</time>
      </trkpt>
      <trkpt lat="42.390024000000004" lon="1.632151">
        <ele>1241.549</ele>
        <time>2022-08-19T15:57:46Z</time>
      </trkpt>
      <trkpt lat="42.390049000000005" lon="1.632091">
        <ele>1242.102</ele>
        <time>2022-08-19T15:57:52Z</time>
      </trkpt>
      <trkpt lat="42.390101" lon="1.632087">
        <ele>1242.922</ele>
        <time>2022-08-19T15:57:57Z</time>
      </trkpt>
      <trkpt lat="42.390142000000004" lon="1.632049">
        <ele>1243.709</ele>
        <time>2022-08-19T15:58:03Z</time>
      </trkpt>
      <trkpt lat="42.390167000000005" lon="1.63199">
        <ele>1244.765</ele>
        <time>2022-08-19T15:58:10Z</time>
      </trkpt>
      <trkpt lat="42.390238000000004" lon="1.63232">
        <ele>1246.925</ele>
        <time>2022-08-19T15:58:21Z</time>
      </trkpt>
      <trkpt lat="42.390040000000006" lon="1.63225">
        <ele>1248.915</ele>
        <time>2022-08-19T15:58:29Z</time>
      </trkpt>
      <trkpt lat="42.390083000000004" lon="1.632221">
        <ele>1249.095</ele>
        <time>2022-08-19T15:58:37Z</time>
      </trkpt>
      <trkpt lat="42.390128000000004" lon="1.632256">
        <ele>1249.132</ele>
        <time>2022-08-19T15:58:42Z</time>
      </trkpt>
      <trkpt lat="42.390174" lon="1.632272">
        <ele>1250.378</ele>
        <time>2022-08-19T15:58:51Z</time>
      </trkpt>
      <trkpt lat="42.390228" lon="1.632271">
        <ele>1251.928</ele>
        <time>2022-08-19T15:59:12Z</time>
      </trkpt>
      <trkpt lat="42.390275" lon="1.632276">
        <ele>1253.539</ele>
        <time>2022-08-19T15:59:17Z</time>
      </trkpt>
      <trkpt lat="42.390321" lon="1.632307">
        <ele>1254.244</ele>
        <time>2022-08-19T15:59:23Z</time>
      </trkpt>
      <trkpt lat="42.390363" lon="1.632271">
        <ele>1254.392</ele>
        <time>2022-08-19T15:59:26Z</time>
      </trkpt>
      <trkpt lat="42.390392" lon="1.632208">
        <ele>1254.473</ele>
        <time>2022-08-19T15:59:31Z</time>
      </trkpt>
      <trkpt lat="42.390437" lon="1.6321890000000001">
        <ele>1255.420</ele>
        <time>2022-08-19T15:59:37Z</time>
      </trkpt>
      <trkpt lat="42.390481" lon="1.6322230000000002">
        <ele>1257.709</ele>
        <time>2022-08-19T15:59:43Z</time>
      </trkpt>
      <trkpt lat="42.390529" lon="1.632235">
        <ele>1260.550</ele>
        <time>2022-08-19T15:59:57Z</time>
      </trkpt>
      <trkpt lat="42.390574" lon="1.632222">
        <ele>1261.320</ele>
        <time>2022-08-19T16:00:02Z</time>
      </trkpt>
      <trkpt lat="42.390623" lon="1.632231">
        <ele>1262.460</ele>
        <time>2022-08-19T16:00:08Z</time>
      </trkpt>
      <trkpt lat="42.390667" lon="1.632172">
        <ele>1263.240</ele>
        <time>2022-08-19T16:00:13Z</time>
      </trkpt>
      <trkpt lat="42.39068" lon="1.632106">
        <ele>1263.817</ele>
        <time>2022-08-19T16:00:15Z</time>
      </trkpt>
      <trkpt lat="42.390685000000005" lon="1.632028">
        <ele>1264.843</ele>
        <time>2022-08-19T16:00:18Z</time>
      </trkpt>
      <trkpt lat="42.390714" lon="1.631977">
        <ele>1265.773</ele>
        <time>2022-08-19T16:00:21Z</time>
      </trkpt>
      <trkpt lat="42.390755000000006" lon="1.631937">
        <ele>1267.044</ele>
        <time>2022-08-19T16:00:28Z</time>
      </trkpt>
      <trkpt lat="42.39077400000001" lon="1.631871">
        <ele>1267.559</ele>
        <time>2022-08-19T16:00:31Z</time>
      </trkpt>
      <trkpt lat="42.39077900000001" lon="1.63181">
        <ele>1268.044</ele>
        <time>2022-08-19T16:00:34Z</time>
      </trkpt>
      <trkpt lat="42.39077200000001" lon="1.631748">
        <ele>1269.505</ele>
        <time>2022-08-19T16:00:46Z</time>
      </trkpt>
      <trkpt lat="42.390822000000014" lon="1.6317329999999999">
        <ele>1270.715</ele>
        <time>2022-08-19T16:00:53Z</time>
      </trkpt>
      <trkpt lat="42.39087600000001" lon="1.6317279999999998">
        <ele>1271.109</ele>
        <time>2022-08-19T16:00:59Z</time>
      </trkpt>
      <trkpt lat="42.39092100000001" lon="1.6317099999999998">
        <ele>1271.475</ele>
        <time>2022-08-19T16:01:04Z</time>
      </trkpt>
      <trkpt lat="42.39097300000001" lon="1.6317129999999997">
        <ele>1272.575</ele>
        <time>2022-08-19T16:01:13Z</time>
      </trkpt>
      <trkpt lat="42.39101800000001" lon="1.6317429999999997">
        <ele>1278.155</ele>
        <time>2022-08-19T16:02:26Z</time>
      </trkpt>
      <trkpt lat="42.39103500000001" lon="1.6318129999999997">
        <ele>1278.145</ele>
        <time>2022-08-19T16:02:34Z</time>
      </trkpt>
      <trkpt lat="42.391056000000006" lon="1.6318739999999998">
        <ele>1278.142</ele>
        <time>2022-08-19T16:02:39Z</time>
      </trkpt>
      <trkpt lat="42.391087000000006" lon="1.631919">
        <ele>1278.168</ele>
        <time>2022-08-19T16:02:44Z</time>
      </trkpt>
      <trkpt lat="42.39110900000001" lon="1.6319739999999998">
        <ele>1278.158</ele>
        <time>2022-08-19T16:02:51Z</time>
      </trkpt>
      <trkpt lat="42.391144000000004" lon="1.6320209999999997">
        <ele>1282.529</ele>
        <time>2022-08-19T16:03:01Z</time>
      </trkpt>
      <trkpt lat="42.39118500000001" lon="1.6320699999999997">
        <ele>1284.274</ele>
        <time>2022-08-19T16:03:09Z</time>
      </trkpt>
      <trkpt lat="42.39121000000001" lon="1.6321229999999998">
        <ele>1285.537</ele>
        <time>2022-08-19T16:03:15Z</time>
      </trkpt>
      <trkpt lat="42.39124700000001" lon="1.6321579999999998">
        <ele>1286.949</ele>
        <time>2022-08-19T16:03:23Z</time>
      </trkpt>
      <trkpt lat="42.39128500000001" lon="1.6321989999999997">
        <ele>1288.813</ele>
        <time>2022-08-19T16:03:31Z</time>
      </trkpt>
      <trkpt lat="42.39132900000001" lon="1.6322209999999997">
        <ele>1290.809</ele>
        <time>2022-08-19T16:03:40Z</time>
      </trkpt>
      <trkpt lat="42.391376000000015" lon="1.6322299999999996">
        <ele>1292.764</ele>
        <time>2022-08-19T16:03:48Z</time>
      </trkpt>
      <trkpt lat="42.391424000000015" lon="1.6322639999999997">
        <ele>1299.744</ele>
        <time>2022-08-19T16:04:36Z</time>
      </trkpt>
      <trkpt lat="42.39146800000002" lon="1.6322349999999997">
        <ele>1301.274</ele>
        <time>2022-08-19T16:04:40Z</time>
      </trkpt>
      <trkpt lat="42.391511000000015" lon="1.6322639999999997">
        <ele>1302.044</ele>
        <time>2022-08-19T16:04:46Z</time>
      </trkpt>
      <trkpt lat="42.391556000000016" lon="1.6322429999999997">
        <ele>1302.131</ele>
        <time>2022-08-19T16:04:55Z</time>
      </trkpt>
      <trkpt lat="42.39160300000002" lon="1.6322549999999996">
        <ele>1302.977</ele>
        <time>2022-08-19T16:05:02Z</time>
      </trkpt>
      <trkpt lat="42.391646000000016" lon="1.6322809999999996">
        <ele>1306.067</ele>
        <time>2022-08-19T16:05:10Z</time>
      </trkpt>
      <trkpt lat="42.39169000000002" lon="1.6323059999999996">
        <ele>1307.758</ele>
        <time>2022-08-19T16:05:20Z</time>
      </trkpt>
      <trkpt lat="42.39173500000002" lon="1.6323069999999995">
        <ele>1309.673</ele>
        <time>2022-08-19T16:05:29Z</time>
      </trkpt>
      <trkpt lat="42.39177600000002" lon="1.6322809999999994">
        <ele>1311.219</ele>
        <time>2022-08-19T16:05:36Z</time>
      </trkpt>
      <trkpt lat="42.39182400000002" lon="1.6322829999999995">
        <ele>1313.009</ele>
        <time>2022-08-19T16:05:44Z</time>
      </trkpt>
      <trkpt lat="42.39187000000002" lon="1.6322609999999995">
        <ele>1315.019</ele>
        <time>2022-08-19T16:05:52Z</time>
      </trkpt>
      <trkpt lat="42.39191700000002" lon="1.6322429999999994">
        <ele>1316.809</ele>
        <time>2022-08-19T16:06:00Z</time>
      </trkpt>
      <trkpt lat="42.39196200000002" lon="1.6322239999999995">
        <ele>1319.062</ele>
        <time>2022-08-19T16:06:07Z</time>
      </trkpt>
      <trkpt lat="42.392000000000024" lon="1.6322649999999994">
        <ele>1320.562</ele>
        <time>2022-08-19T16:06:13Z</time>
      </trkpt>
      <trkpt lat="42.39205100000002" lon="1.6322539999999994">
        <ele>1322.122</ele>
        <time>2022-08-19T16:06:19Z</time>
      </trkpt>
      <trkpt lat="42.392098000000026" lon="1.6322339999999995">
        <ele>1323.832</ele>
        <time>2022-08-19T16:06:25Z</time>
      </trkpt>
      <trkpt lat="42.39214700000002" lon="1.6322559999999995">
        <ele>1327.079</ele>
        <time>2022-08-19T16:06:38Z</time>
      </trkpt>
      <trkpt lat="42.39215900000002" lon="1.6323199999999995">
        <ele>1328.065</ele>
        <time>2022-08-19T16:06:42Z</time>
      </trkpt>
      <trkpt lat="42.39219000000002" lon="1.6323659999999995">
        <ele>1329.355</ele>
        <time>2022-08-19T16:06:48Z</time>
      </trkpt>
      <trkpt lat="42.39222500000002" lon="1.6324079999999996">
        <ele>1330.866</ele>
        <time>2022-08-19T16:06:54Z</time>
      </trkpt>
      <trkpt lat="42.39225600000002" lon="1.6324559999999997">
        <ele>1332.731</ele>
        <time>2022-08-19T16:07:00Z</time>
      </trkpt>
      <trkpt lat="42.39232800000002" lon="1.6324059999999996">
        <ele>1337.189</ele>
        <time>2022-08-19T16:07:24Z</time>
      </trkpt>
      <trkpt lat="42.39229400000002" lon="1.6323649999999996">
        <ele>1338.406</ele>
        <time>2022-08-19T16:07:36Z</time>
      </trkpt>
      <trkpt lat="42.392321000000024" lon="1.6323079999999996">
        <ele>1338.726</ele>
        <time>2022-08-19T16:07:53Z</time>
      </trkpt>
      <trkpt lat="42.392380000000024" lon="1.6323089999999996">
        <ele>1338.809</ele>
        <time>2022-08-19T16:07:57Z</time>
      </trkpt>
      <trkpt lat="42.39242600000002" lon="1.6323049999999997">
        <ele>1338.959</ele>
        <time>2022-08-19T16:08:01Z</time>
      </trkpt>
      <trkpt lat="42.39247600000002" lon="1.6323169999999996">
        <ele>1339.699</ele>
        <time>2022-08-19T16:08:05Z</time>
      </trkpt>
      <trkpt lat="42.392523000000025" lon="1.6323199999999995">
        <ele>1344.639</ele>
        <time>2022-08-19T16:08:21Z</time>
      </trkpt>
      <trkpt lat="42.39257000000003" lon="1.6322999999999996">
        <ele>1345.689</ele>
        <time>2022-08-19T16:08:27Z</time>
      </trkpt>
      <trkpt lat="42.39261500000003" lon="1.6322789999999996">
        <ele>1347.486</ele>
        <time>2022-08-19T16:08:35Z</time>
      </trkpt>
      <trkpt lat="42.392661000000025" lon="1.6322719999999995">
        <ele>1348.522</ele>
        <time>2022-08-19T16:08:40Z</time>
      </trkpt>
      <trkpt lat="42.39271000000002" lon="1.6322769999999995">
        <ele>1349.712</ele>
        <time>2022-08-19T16:08:45Z</time>
      </trkpt>
      <trkpt lat="42.392760000000024" lon="1.6322769999999995">
        <ele>1351.333</ele>
        <time>2022-08-19T16:08:51Z</time>
      </trkpt>
      <trkpt lat="42.39280600000002" lon="1.6322969999999994">
        <ele>1352.468</ele>
        <time>2022-08-19T16:08:56Z</time>
      </trkpt>
      <trkpt lat="42.39284900000002" lon="1.6323449999999995">
        <ele>1353.732</ele>
        <time>2022-08-19T16:09:00Z</time>
      </trkpt>
      <trkpt lat="42.39288800000002" lon="1.6323779999999994">
        <ele>1356.092</ele>
        <time>2022-08-19T16:09:04Z</time>
      </trkpt>
      <trkpt lat="42.39293100000002" lon="1.6324069999999995">
        <ele>1356.611</ele>
        <time>2022-08-19T16:09:09Z</time>
      </trkpt>
      <trkpt lat="42.39297400000002" lon="1.6324409999999996">
        <ele>1357.509</ele>
        <time>2022-08-19T16:09:14Z</time>
      </trkpt>
      <trkpt lat="42.39301000000002" lon="1.6324979999999996">
        <ele>1358.984</ele>
        <time>2022-08-19T16:09:18Z</time>
      </trkpt>
      <trkpt lat="42.393045000000015" lon="1.6325659999999995">
        <ele>1360.054</ele>
        <time>2022-08-19T16:09:22Z</time>
      </trkpt>
      <trkpt lat="42.39306400000002" lon="1.6326229999999995">
        <ele>1360.924</ele>
        <time>2022-08-19T16:09:25Z</time>
      </trkpt>
      <trkpt lat="42.393084000000016" lon="1.6326799999999995">
        <ele>1362.014</ele>
        <time>2022-08-19T16:09:29Z</time>
      </trkpt>
      <trkpt lat="42.39310900000002" lon="1.6327319999999994">
        <ele>1363.421</ele>
        <time>2022-08-19T16:09:35Z</time>
      </trkpt>
      <trkpt lat="42.39315100000002" lon="1.6327779999999994">
        <ele>1364.767</ele>
        <time>2022-08-19T16:09:42Z</time>
      </trkpt>
      <trkpt lat="42.393183000000015" lon="1.6328289999999994">
        <ele>1365.977</ele>
        <time>2022-08-19T16:09:48Z</time>
      </trkpt>
      <trkpt lat="42.39319000000001" lon="1.6329049999999994">
        <ele>1366.858</ele>
        <time>2022-08-19T16:09:53Z</time>
      </trkpt>
      <trkpt lat="42.39318200000001" lon="1.6329679999999993">
        <ele>1368.133</ele>
        <time>2022-08-19T16:09:59Z</time>
      </trkpt>
      <trkpt lat="42.39313200000001" lon="1.6329799999999992">
        <ele>1369.436</ele>
        <time>2022-08-19T16:10:04Z</time>
      </trkpt>
      <trkpt lat="42.39311000000001" lon="1.6330419999999992">
        <ele>1372.017</ele>
        <time>2022-08-19T16:10:22Z</time>
      </trkpt>
      <trkpt lat="42.393083000000004" lon="1.6330919999999993">
        <ele>1373.018</ele>
        <time>2022-08-19T16:10:28Z</time>
      </trkpt>
      <trkpt lat="42.39304800000001" lon="1.6331389999999992">
        <ele>1373.309</ele>
        <time>2022-08-19T16:10:35Z</time>
      </trkpt>
      <trkpt lat="42.39301100000001" lon="1.6331869999999993">
        <ele>1373.884</ele>
        <time>2022-08-19T16:10:44Z</time>
      </trkpt>
      <trkpt lat="42.39299100000001" lon="1.6332469999999992">
        <ele>1374.924</ele>
        <time>2022-08-19T16:10:51Z</time>
      </trkpt>
      <trkpt lat="42.39300300000001" lon="1.6333109999999993">
        <ele>1377.034</ele>
        <time>2022-08-19T16:10:58Z</time>
      </trkpt>
      <trkpt lat="42.39304700000001" lon="1.6333309999999992">
        <ele>1378.344</ele>
        <time>2022-08-19T16:11:06Z</time>
      </trkpt>
      <trkpt lat="42.39309500000001" lon="1.6333309999999992">
        <ele>1380.351</ele>
        <time>2022-08-19T16:11:11Z</time>
      </trkpt>
      <trkpt lat="42.39314400000001" lon="1.6333259999999992">
        <ele>1381.487</ele>
        <time>2022-08-19T16:11:16Z</time>
      </trkpt>
      <trkpt lat="42.39319700000001" lon="1.6333329999999993">
        <ele>1382.737</ele>
        <time>2022-08-19T16:11:22Z</time>
      </trkpt>
      <trkpt lat="42.39323100000001" lon="1.6333779999999993">
        <ele>1384.458</ele>
        <time>2022-08-19T16:11:30Z</time>
      </trkpt>
      <trkpt lat="42.39327600000001" lon="1.6333919999999993">
        <ele>1385.763</ele>
        <time>2022-08-19T16:11:37Z</time>
      </trkpt>
      <trkpt lat="42.393328000000004" lon="1.6333989999999994">
        <ele>1386.795</ele>
        <time>2022-08-19T16:11:43Z</time>
      </trkpt>
      <trkpt lat="42.393370000000004" lon="1.6334309999999994">
        <ele>1388.149</ele>
        <time>2022-08-19T16:11:50Z</time>
      </trkpt>
      <trkpt lat="42.39338000000001" lon="1.6335009999999994">
        <ele>1389.123</ele>
        <time>2022-08-19T16:11:55Z</time>
      </trkpt>
      <trkpt lat="42.393387000000004" lon="1.6335619999999995">
        <ele>1390.309</ele>
        <time>2022-08-19T16:12:01Z</time>
      </trkpt>
      <trkpt lat="42.393375000000006" lon="1.6336289999999996">
        <ele>1392.120</ele>
        <time>2022-08-19T16:12:08Z</time>
      </trkpt>
      <trkpt lat="42.393370000000004" lon="1.6336979999999997">
        <ele>1394.060</ele>
        <time>2022-08-19T16:12:13Z</time>
      </trkpt>
      <trkpt lat="42.39336300000001" lon="1.6337619999999997">
        <ele>1394.620</ele>
        <time>2022-08-19T16:12:18Z</time>
      </trkpt>
      <trkpt lat="42.39334300000001" lon="1.6338259999999998">
        <ele>1395.920</ele>
        <time>2022-08-19T16:12:25Z</time>
      </trkpt>
      <trkpt lat="42.393327000000006" lon="1.6338869999999999">
        <ele>1397.037</ele>
        <time>2022-08-19T16:12:31Z</time>
      </trkpt>
      <trkpt lat="42.393342000000004" lon="1.6339449999999998">
        <ele>1398.883</ele>
        <time>2022-08-19T16:12:41Z</time>
      </trkpt>
      <trkpt lat="42.393312" lon="1.6339919999999997">
        <ele>1400.143</ele>
        <time>2022-08-19T16:12:45Z</time>
      </trkpt>
      <trkpt lat="42.393236" lon="1.6337349999999997">
        <ele>1400.634</ele>
        <time>2022-08-19T16:12:47Z</time>
      </trkpt>
      <trkpt lat="42.393262" lon="1.6336839999999997">
        <ele>1404.479</ele>
        <time>2022-08-19T16:12:51Z</time>
      </trkpt>
      <trkpt lat="42.393268" lon="1.6337459999999997">
        <ele>1407.274</ele>
        <time>2022-08-19T16:13:07Z</time>
      </trkpt>
      <trkpt lat="42.393313" lon="1.6337699999999997">
        <ele>1407.556</ele>
        <time>2022-08-19T16:13:13Z</time>
      </trkpt>
      <trkpt lat="42.393354" lon="1.6338009999999996">
        <ele>1407.921</ele>
        <time>2022-08-19T16:13:19Z</time>
      </trkpt>
      <trkpt lat="42.393374" lon="1.6338559999999995">
        <ele>1408.809</ele>
        <time>2022-08-19T16:13:24Z</time>
      </trkpt>
      <trkpt lat="42.393411" lon="1.6338979999999996">
        <ele>1410.168</ele>
        <time>2022-08-19T16:13:30Z</time>
      </trkpt>
      <trkpt lat="42.393452" lon="1.6339299999999997">
        <ele>1411.378</ele>
        <time>2022-08-19T16:13:36Z</time>
      </trkpt>
      <trkpt lat="42.39349000000001" lon="1.6339639999999997">
        <ele>1412.438</ele>
        <time>2022-08-19T16:13:42Z</time>
      </trkpt>
      <trkpt lat="42.39354300000001" lon="1.6339689999999998">
        <ele>1413.448</ele>
        <time>2022-08-19T16:13:48Z</time>
      </trkpt>
      <trkpt lat="42.393558000000006" lon="1.6340309999999998">
        <ele>1414.575</ele>
        <time>2022-08-19T16:13:53Z</time>
      </trkpt>
      <trkpt lat="42.393562" lon="1.6340939999999997">
        <ele>1415.541</ele>
        <time>2022-08-19T16:13:57Z</time>
      </trkpt>
      <trkpt lat="42.393600000000006" lon="1.6341379999999996">
        <ele>1416.791</ele>
        <time>2022-08-19T16:14:04Z</time>
      </trkpt>
      <trkpt lat="42.39361400000001" lon="1.6342049999999997">
        <ele>1417.982</ele>
        <time>2022-08-19T16:14:10Z</time>
      </trkpt>
      <trkpt lat="42.39361100000001" lon="1.6342659999999998">
        <ele>1419.837</ele>
        <time>2022-08-19T16:14:14Z</time>
      </trkpt>
      <trkpt lat="42.39363300000001" lon="1.6343229999999997">
        <ele>1420.774</ele>
        <time>2022-08-19T16:14:20Z</time>
      </trkpt>
      <trkpt lat="42.39367200000001" lon="1.6343569999999998">
        <ele>1421.556</ele>
        <time>2022-08-19T16:14:26Z</time>
      </trkpt>
      <trkpt lat="42.39371600000001" lon="1.634372">
        <ele>1422.521</ele>
        <time>2022-08-19T16:14:31Z</time>
      </trkpt>
      <trkpt lat="42.393743000000015" lon="1.6344239999999999">
        <ele>1423.909</ele>
        <time>2022-08-19T16:14:37Z</time>
      </trkpt>
      <trkpt lat="42.393763000000014" lon="1.6344819999999998">
        <ele>1425.278</ele>
        <time>2022-08-19T16:14:43Z</time>
      </trkpt>
      <trkpt lat="42.39379800000001" lon="1.6345209999999997">
        <ele>1426.488</ele>
        <time>2022-08-19T16:14:49Z</time>
      </trkpt>
      <trkpt lat="42.39381600000001" lon="1.6345799999999997">
        <ele>1427.648</ele>
        <time>2022-08-19T16:14:55Z</time>
      </trkpt>
      <trkpt lat="42.393817000000006" lon="1.6346459999999996">
        <ele>1428.728</ele>
        <time>2022-08-19T16:15:00Z</time>
      </trkpt>
      <trkpt lat="42.393846" lon="1.6346949999999996">
        <ele>1429.775</ele>
        <time>2022-08-19T16:15:06Z</time>
      </trkpt>
      <trkpt lat="42.393848000000006" lon="1.6347649999999996">
        <ele>1432.031</ele>
        <time>2022-08-19T16:15:12Z</time>
      </trkpt>
      <trkpt lat="42.393863" lon="1.6348239999999996">
        <ele>1433.131</ele>
        <time>2022-08-19T16:15:18Z</time>
      </trkpt>
      <trkpt lat="42.393891" lon="1.6348829999999996">
        <ele>1434.092</ele>
        <time>2022-08-19T16:15:25Z</time>
      </trkpt>
      <trkpt lat="42.393924000000005" lon="1.6349299999999996">
        <ele>1435.127</ele>
        <time>2022-08-19T16:15:31Z</time>
      </trkpt>
      <trkpt lat="42.393955000000005" lon="1.6349759999999995">
        <ele>1436.354</ele>
        <time>2022-08-19T16:15:37Z</time>
      </trkpt>
      <trkpt lat="42.393969000000006" lon="1.6350399999999996">
        <ele>1437.456</ele>
        <time>2022-08-19T16:15:44Z</time>
      </trkpt>
      <trkpt lat="42.393959" lon="1.6351099999999996">
        <ele>1438.411</ele>
        <time>2022-08-19T16:15:50Z</time>
      </trkpt>
      <trkpt lat="42.393966" lon="1.6351769999999997">
        <ele>1439.909</ele>
        <time>2022-08-19T16:15:57Z</time>
      </trkpt>
      <trkpt lat="42.393993" lon="1.6352309999999997">
        <ele>1440.776</ele>
        <time>2022-08-19T16:16:03Z</time>
      </trkpt>
      <trkpt lat="42.393992000000004" lon="1.6352969999999996">
        <ele>1441.866</ele>
        <time>2022-08-19T16:16:09Z</time>
      </trkpt>
      <trkpt lat="42.39419" lon="1.6351459999999995">
        <ele>1443.376</ele>
        <time>2022-08-19T16:16:15Z</time>
      </trkpt>
      <trkpt lat="42.394224" lon="1.6351879999999996">
        <ele>1446.286</ele>
        <time>2022-08-19T16:16:32Z</time>
      </trkpt>
      <trkpt lat="42.394277" lon="1.6351839999999997">
        <ele>1446.643</ele>
        <time>2022-08-19T16:16:37Z</time>
      </trkpt>
      <trkpt lat="42.394328" lon="1.6352019999999998">
        <ele>1447.229</ele>
        <time>2022-08-19T16:16:43Z</time>
      </trkpt>
      <trkpt lat="42.394378" lon="1.6351779999999998">
        <ele>1448.119</ele>
        <time>2022-08-19T16:16:48Z</time>
      </trkpt>
      <trkpt lat="42.394428000000005" lon="1.6351499999999999">
        <ele>1449.730</ele>
        <time>2022-08-19T16:16:55Z</time>
      </trkpt>
      <trkpt lat="42.394479000000004" lon="1.6351669999999998">
        <ele>1450.725</ele>
        <time>2022-08-19T16:17:01Z</time>
      </trkpt>
      <trkpt lat="42.394524000000004" lon="1.6351699999999998">
        <ele>1451.781</ele>
        <time>2022-08-19T16:17:08Z</time>
      </trkpt>
      <trkpt lat="42.394574000000006" lon="1.6351849999999999">
        <ele>1453.661</ele>
        <time>2022-08-19T16:17:17Z</time>
      </trkpt>
      <trkpt lat="42.39456800000001" lon="1.6352529999999998">
        <ele>1455.617</ele>
        <time>2022-08-19T16:17:30Z</time>
      </trkpt>
      <trkpt lat="42.39462700000001" lon="1.6352509999999998">
        <ele>1457.209</ele>
        <time>2022-08-19T16:17:37Z</time>
      </trkpt>
      <trkpt lat="42.394679000000004" lon="1.6352519999999997">
        <ele>1458.999</ele>
        <time>2022-08-19T16:17:42Z</time>
      </trkpt>
      <trkpt lat="42.394726000000006" lon="1.6352579999999997">
        <ele>1460.559</ele>
        <time>2022-08-19T16:17:48Z</time>
      </trkpt>
      <trkpt lat="42.39476700000001" lon="1.6352849999999997">
        <ele>1461.989</ele>
        <time>2022-08-19T16:17:54Z</time>
      </trkpt>
      <trkpt lat="42.39480500000001" lon="1.6353249999999997">
        <ele>1463.379</ele>
        <time>2022-08-19T16:18:00Z</time>
      </trkpt>
      <trkpt lat="42.394832000000015" lon="1.6353779999999998">
        <ele>1464.796</ele>
        <time>2022-08-19T16:18:05Z</time>
      </trkpt>
      <trkpt lat="42.39487500000001" lon="1.6353979999999997">
        <ele>1465.692</ele>
        <time>2022-08-19T16:18:11Z</time>
      </trkpt>
      <trkpt lat="42.394894000000015" lon="1.6354579999999996">
        <ele>1466.432</ele>
        <time>2022-08-19T16:18:15Z</time>
      </trkpt>
      <trkpt lat="42.39493800000002" lon="1.6354779999999995">
        <ele>1467.383</ele>
        <time>2022-08-19T16:18:21Z</time>
      </trkpt>
      <trkpt lat="42.39497700000002" lon="1.6355119999999996">
        <ele>1467.988</ele>
        <time>2022-08-19T16:18:27Z</time>
      </trkpt>
      <trkpt lat="42.39502400000002" lon="1.6355189999999997">
        <ele>1469.122</ele>
        <time>2022-08-19T16:18:33Z</time>
      </trkpt>
      <trkpt lat="42.39507600000002" lon="1.6355099999999998">
        <ele>1470.362</ele>
        <time>2022-08-19T16:18:39Z</time>
      </trkpt>
      <trkpt lat="42.39512100000002" lon="1.6354729999999997">
        <ele>1471.108</ele>
        <time>2022-08-19T16:18:43Z</time>
      </trkpt>
      <trkpt lat="42.39515900000002" lon="1.6354329999999997">
        <ele>1471.609</ele>
        <time>2022-08-19T16:18:46Z</time>
      </trkpt>
      <trkpt lat="42.39519100000002" lon="1.6354889999999997">
        <ele>1472.233</ele>
        <time>2022-08-19T16:18:50Z</time>
      </trkpt>
      <trkpt lat="42.39523800000002" lon="1.6354859999999998">
        <ele>1473.453</ele>
        <time>2022-08-19T16:18:58Z</time>
      </trkpt>
      <trkpt lat="42.39528300000002" lon="1.6354709999999997">
        <ele>1474.283</ele>
        <time>2022-08-19T16:19:02Z</time>
      </trkpt>
      <trkpt lat="42.39532900000002" lon="1.6354639999999996">
        <ele>1474.763</ele>
        <time>2022-08-19T16:19:06Z</time>
      </trkpt>
      <trkpt lat="42.39538000000002" lon="1.6354449999999996">
        <ele>1475.430</ele>
        <time>2022-08-19T16:19:11Z</time>
      </trkpt>
      <trkpt lat="42.395426000000015" lon="1.6354679999999997">
        <ele>1475.976</ele>
        <time>2022-08-19T16:19:17Z</time>
      </trkpt>
      <trkpt lat="42.395468000000015" lon="1.6354999999999997">
        <ele>1476.976</ele>
        <time>2022-08-19T16:19:25Z</time>
      </trkpt>
      <trkpt lat="42.395513000000015" lon="1.6355269999999997">
        <ele>1477.377</ele>
        <time>2022-08-19T16:19:30Z</time>
      </trkpt>
      <trkpt lat="42.395564000000014" lon="1.6355229999999998">
        <ele>1478.042</ele>
        <time>2022-08-19T16:19:35Z</time>
      </trkpt>
      <trkpt lat="42.39561100000002" lon="1.6355349999999997">
        <ele>1478.548</ele>
        <time>2022-08-19T16:19:40Z</time>
      </trkpt>
      <trkpt lat="42.39565300000002" lon="1.6355609999999998">
        <ele>1479.261</ele>
        <time>2022-08-19T16:19:45Z</time>
      </trkpt>
      <trkpt lat="42.395702000000014" lon="1.6355919999999997">
        <ele>1480.117</ele>
        <time>2022-08-19T16:19:51Z</time>
      </trkpt>
      <trkpt lat="42.39574500000001" lon="1.6356089999999996">
        <ele>1480.909</ele>
        <time>2022-08-19T16:19:57Z</time>
      </trkpt>
      <trkpt lat="42.39578500000001" lon="1.6355799999999996">
        <ele>1481.885</ele>
        <time>2022-08-19T16:20:03Z</time>
      </trkpt>
      <trkpt lat="42.39582900000001" lon="1.6355999999999995">
        <ele>1482.555</ele>
        <time>2022-08-19T16:20:09Z</time>
      </trkpt>
      <trkpt lat="42.395882000000015" lon="1.6356179999999996">
        <ele>1483.345</ele>
        <time>2022-08-19T16:20:15Z</time>
      </trkpt>
      <trkpt lat="42.395932000000016" lon="1.6356189999999995">
        <ele>1484.145</ele>
        <time>2022-08-19T16:20:20Z</time>
      </trkpt>
      <trkpt lat="42.395983000000015" lon="1.6356099999999996">
        <ele>1484.792</ele>
        <time>2022-08-19T16:20:25Z</time>
      </trkpt>
      <trkpt lat="42.39602900000001" lon="1.6356119999999996">
        <ele>1485.558</ele>
        <time>2022-08-19T16:20:30Z</time>
      </trkpt>
      <trkpt lat="42.39607500000001" lon="1.6356299999999997">
        <ele>1485.728</ele>
        <time>2022-08-19T16:20:35Z</time>
      </trkpt>
      <trkpt lat="42.39612500000001" lon="1.6356279999999996">
        <ele>1486.189</ele>
        <time>2022-08-19T16:20:40Z</time>
      </trkpt>
      <trkpt lat="42.39617900000001" lon="1.6356449999999996">
        <ele>1486.744</ele>
        <time>2022-08-19T16:20:45Z</time>
      </trkpt>
      <trkpt lat="42.39622500000001" lon="1.6356449999999996">
        <ele>1487.586</ele>
        <time>2022-08-19T16:20:50Z</time>
      </trkpt>
      <trkpt lat="42.39627000000001" lon="1.6356429999999995">
        <ele>1488.460</ele>
        <time>2022-08-19T16:20:55Z</time>
      </trkpt>
      <trkpt lat="42.396319000000005" lon="1.6356109999999995">
        <ele>1489.326</ele>
        <time>2022-08-19T16:21:01Z</time>
      </trkpt>
      <trkpt lat="42.396365" lon="1.6356109999999995">
        <ele>1490.209</ele>
        <time>2022-08-19T16:21:06Z</time>
      </trkpt>
      <trkpt lat="42.396411" lon="1.6355849999999994">
        <ele>1490.969</ele>
        <time>2022-08-19T16:21:11Z</time>
      </trkpt>
      <trkpt lat="42.396462" lon="1.6355729999999995">
        <ele>1491.679</ele>
        <time>2022-08-19T16:21:16Z</time>
      </trkpt>
      <trkpt lat="42.396513" lon="1.6355849999999994">
        <ele>1492.459</ele>
        <time>2022-08-19T16:21:21Z</time>
      </trkpt>
      <trkpt lat="42.396546" lon="1.6356279999999994">
        <ele>1493.879</ele>
        <time>2022-08-19T16:21:27Z</time>
      </trkpt>
      <trkpt lat="42.396576" lon="1.6356839999999995">
        <ele>1494.596</ele>
        <time>2022-08-19T16:21:32Z</time>
      </trkpt>
      <trkpt lat="42.396585" lon="1.6357459999999995">
        <ele>1495.592</ele>
        <time>2022-08-19T16:21:38Z</time>
      </trkpt>
      <trkpt lat="42.39658" lon="1.6358159999999995">
        <ele>1496.642</ele>
        <time>2022-08-19T16:21:43Z</time>
      </trkpt>
      <trkpt lat="42.396585" lon="1.6358799999999996">
        <ele>1497.733</ele>
        <time>2022-08-19T16:21:50Z</time>
      </trkpt>
      <trkpt lat="42.396627" lon="1.6359069999999996">
        <ele>1501.128</ele>
        <time>2022-08-19T16:23:47Z</time>
      </trkpt>
      <trkpt lat="42.39667" lon="1.6359429999999995">
        <ele>1501.123</ele>
        <time>2022-08-19T16:23:56Z</time>
      </trkpt>
      <trkpt lat="42.396687" lon="1.6360009999999994">
        <ele>1501.183</ele>
        <time>2022-08-19T16:24:01Z</time>
      </trkpt>
      <trkpt lat="42.396711" lon="1.6360579999999993">
        <ele>1501.111</ele>
        <time>2022-08-19T16:24:06Z</time>
      </trkpt>
      <trkpt lat="42.396758000000005" lon="1.6360559999999993">
        <ele>1505.109</ele>
        <time>2022-08-19T16:24:51Z</time>
      </trkpt>
      <trkpt lat="42.396739000000004" lon="1.6361199999999994">
        <ele>1505.243</ele>
        <time>2022-08-19T16:24:55Z</time>
      </trkpt>
      <trkpt lat="42.39671800000001" lon="1.6361909999999993">
        <ele>1505.333</ele>
        <time>2022-08-19T16:25:00Z</time>
      </trkpt>
      <trkpt lat="42.39671700000001" lon="1.6362629999999994">
        <ele>1505.443</ele>
        <time>2022-08-19T16:25:06Z</time>
      </trkpt>
      <trkpt lat="42.39670100000001" lon="1.6363199999999993">
        <ele>1505.683</ele>
        <time>2022-08-19T16:25:10Z</time>
      </trkpt>
      <trkpt lat="42.396696000000006" lon="1.6363869999999994">
        <ele>1507.740</ele>
        <time>2022-08-19T16:25:14Z</time>
      </trkpt>
      <trkpt lat="42.396719000000004" lon="1.6364499999999993">
        <ele>1508.396</ele>
        <time>2022-08-19T16:25:18Z</time>
      </trkpt>
      <trkpt lat="42.396744000000005" lon="1.6365119999999993">
        <ele>1509.276</ele>
        <time>2022-08-19T16:25:24Z</time>
      </trkpt>
      <trkpt lat="42.39674300000001" lon="1.6365739999999993">
        <ele>1511.027</ele>
        <time>2022-08-19T16:25:30Z</time>
      </trkpt>
      <trkpt lat="42.39675400000001" lon="1.6366339999999993">
        <ele>1512.262</ele>
        <time>2022-08-19T16:25:36Z</time>
      </trkpt>
      <trkpt lat="42.396738000000006" lon="1.6366909999999992">
        <ele>1512.965</ele>
        <time>2022-08-19T16:25:41Z</time>
      </trkpt>
      <trkpt lat="42.396711" lon="1.6367529999999992">
        <ele>1513.968</ele>
        <time>2022-08-19T16:25:47Z</time>
      </trkpt>
      <trkpt lat="42.39664500000001" lon="1.6367809999999992">
        <ele>1514.714</ele>
        <time>2022-08-19T16:25:50Z</time>
      </trkpt>
      <trkpt lat="42.396601000000004" lon="1.6368039999999993">
        <ele>1515.509</ele>
        <time>2022-08-19T16:25:52Z</time>
      </trkpt>
      <trkpt lat="42.396550000000005" lon="1.6368279999999993">
        <ele>1516.247</ele>
        <time>2022-08-19T16:25:55Z</time>
      </trkpt>
      <trkpt lat="42.396509" lon="1.6368699999999994">
        <ele>1517.087</ele>
        <time>2022-08-19T16:26:00Z</time>
      </trkpt>
      <trkpt lat="42.396473" lon="1.6369109999999993">
        <ele>1517.957</ele>
        <time>2022-08-19T16:26:07Z</time>
      </trkpt>
      <trkpt lat="42.396437" lon="1.6369539999999994">
        <ele>1518.577</ele>
        <time>2022-08-19T16:26:13Z</time>
      </trkpt>
      <trkpt lat="42.396415" lon="1.6370079999999994">
        <ele>1518.924</ele>
        <time>2022-08-19T16:26:18Z</time>
      </trkpt>
      <trkpt lat="42.396406999999996" lon="1.6370759999999993">
        <ele>1519.660</ele>
        <time>2022-08-19T16:26:26Z</time>
      </trkpt>
      <trkpt lat="42.396373" lon="1.6371279999999993">
        <ele>1521.970</ele>
        <time>2022-08-19T16:26:37Z</time>
      </trkpt>
      <trkpt lat="42.396397" lon="1.6371819999999992">
        <ele>1522.641</ele>
        <time>2022-08-19T16:26:41Z</time>
      </trkpt>
      <trkpt lat="42.396422" lon="1.6372389999999992">
        <ele>1523.496</ele>
        <time>2022-08-19T16:26:47Z</time>
      </trkpt>
      <trkpt lat="42.396439" lon="1.6372959999999992">
        <ele>1524.222</ele>
        <time>2022-08-19T16:26:53Z</time>
      </trkpt>
      <trkpt lat="42.396382" lon="1.637342999999999">
        <ele>1525.162</ele>
        <time>2022-08-19T16:26:57Z</time>
      </trkpt>
      <trkpt lat="42.396331" lon="1.637367999999999">
        <ele>1526.308</ele>
        <time>2022-08-19T16:27:00Z</time>
      </trkpt>
      <trkpt lat="42.396286" lon="1.637405999999999">
        <ele>1527.009</ele>
        <time>2022-08-19T16:27:04Z</time>
      </trkpt>
      <trkpt lat="42.396240000000006" lon="1.637425999999999">
        <ele>1528.083</ele>
        <time>2022-08-19T16:27:08Z</time>
      </trkpt>
      <trkpt lat="42.39619400000001" lon="1.637411999999999">
        <ele>1529.083</ele>
        <time>2022-08-19T16:27:12Z</time>
      </trkpt>
      <trkpt lat="42.39614900000001" lon="1.637441999999999">
        <ele>1529.833</ele>
        <time>2022-08-19T16:27:17Z</time>
      </trkpt>
      <trkpt lat="42.39609800000001" lon="1.6374349999999989">
        <ele>1530.743</ele>
        <time>2022-08-19T16:27:23Z</time>
      </trkpt>
      <trkpt lat="42.39604600000001" lon="1.637436999999999">
        <ele>1531.920</ele>
        <time>2022-08-19T16:27:30Z</time>
      </trkpt>
      <trkpt lat="42.39600100000001" lon="1.6374459999999988">
        <ele>1533.296</ele>
        <time>2022-08-19T16:27:36Z</time>
      </trkpt>
      <trkpt lat="42.39595600000001" lon="1.6374579999999987">
        <ele>1533.686</ele>
        <time>2022-08-19T16:27:42Z</time>
      </trkpt>
      <trkpt lat="42.39591900000001" lon="1.6374999999999988">
        <ele>1534.427</ele>
        <time>2022-08-19T16:27:47Z</time>
      </trkpt>
      <trkpt lat="42.395882000000015" lon="1.6375399999999989">
        <ele>1535.422</ele>
        <time>2022-08-19T16:27:52Z</time>
      </trkpt>
      <trkpt lat="42.395840000000014" lon="1.637579999999999">
        <ele>1536.345</ele>
        <time>2022-08-19T16:27:58Z</time>
      </trkpt>
      <trkpt lat="42.395795000000014" lon="1.637609999999999">
        <ele>1537.447</ele>
        <time>2022-08-19T16:28:05Z</time>
      </trkpt>
      <trkpt lat="42.39576200000001" lon="1.6376619999999988">
        <ele>1538.311</ele>
        <time>2022-08-19T16:28:11Z</time>
      </trkpt>
      <trkpt lat="42.39574600000001" lon="1.6377219999999988">
        <ele>1538.909</ele>
        <time>2022-08-19T16:28:15Z</time>
      </trkpt>
      <trkpt lat="42.39572400000001" lon="1.6377779999999988">
        <ele>1539.835</ele>
        <time>2022-08-19T16:28:20Z</time>
      </trkpt>
      <trkpt lat="42.395787000000006" lon="1.6381459999999988">
        <ele>1540.575</ele>
        <time>2022-08-19T16:28:23Z</time>
      </trkpt>
      <trkpt lat="42.395794" lon="1.6380809999999988">
        <ele>1544.065</ele>
        <time>2022-08-19T16:28:38Z</time>
      </trkpt>
      <trkpt lat="42.395762000000005" lon="1.6381359999999987">
        <ele>1544.485</ele>
        <time>2022-08-19T16:28:52Z</time>
      </trkpt>
      <trkpt lat="42.39574100000001" lon="1.6381899999999987">
        <ele>1544.532</ele>
        <time>2022-08-19T16:28:54Z</time>
      </trkpt>
      <trkpt lat="42.39578800000001" lon="1.6381929999999987">
        <ele>1546.538</ele>
        <time>2022-08-19T16:29:06Z</time>
      </trkpt>
      <trkpt lat="42.39583700000001" lon="1.6382059999999987">
        <ele>1549.038</ele>
        <time>2022-08-19T16:29:13Z</time>
      </trkpt>
      <trkpt lat="42.395886000000004" lon="1.6382259999999986">
        <ele>1550.529</ele>
        <time>2022-08-19T16:29:20Z</time>
      </trkpt>
      <trkpt lat="42.39592700000001" lon="1.6382599999999987">
        <ele>1551.274</ele>
        <time>2022-08-19T16:29:26Z</time>
      </trkpt>
      <trkpt lat="42.395967000000006" lon="1.6383069999999986">
        <ele>1552.062</ele>
        <time>2022-08-19T16:29:32Z</time>
      </trkpt>
      <trkpt lat="42.39598900000001" lon="1.6383639999999986">
        <ele>1552.883</ele>
        <time>2022-08-19T16:29:36Z</time>
      </trkpt>
      <trkpt lat="42.39600500000001" lon="1.6384389999999986">
        <ele>1554.011</ele>
        <time>2022-08-19T16:29:40Z</time>
      </trkpt>
      <trkpt lat="42.39601400000001" lon="1.6385169999999987">
        <ele>1555.009</ele>
        <time>2022-08-19T16:29:44Z</time>
      </trkpt>
      <trkpt lat="42.39602000000001" lon="1.6385779999999988">
        <ele>1556.267</ele>
        <time>2022-08-19T16:29:48Z</time>
      </trkpt>
      <trkpt lat="42.396018000000005" lon="1.6386499999999988">
        <ele>1557.077</ele>
        <time>2022-08-19T16:29:52Z</time>
      </trkpt>
      <trkpt lat="42.396018000000005" lon="1.6387119999999988">
        <ele>1558.067</ele>
        <time>2022-08-19T16:29:57Z</time>
      </trkpt>
      <trkpt lat="42.39602800000001" lon="1.6387769999999988">
        <ele>1559.397</ele>
        <time>2022-08-19T16:30:04Z</time>
      </trkpt>
      <trkpt lat="42.39604800000001" lon="1.6388409999999989">
        <ele>1560.574</ele>
        <time>2022-08-19T16:30:11Z</time>
      </trkpt>
      <trkpt lat="42.39603600000001" lon="1.638901999999999">
        <ele>1561.320</ele>
        <time>2022-08-19T16:30:15Z</time>
      </trkpt>
      <trkpt lat="42.396026000000006" lon="1.638966999999999">
        <ele>1562.220</ele>
        <time>2022-08-19T16:30:20Z</time>
      </trkpt>
      <trkpt lat="42.39600500000001" lon="1.639020999999999">
        <ele>1562.911</ele>
        <time>2022-08-19T16:30:24Z</time>
      </trkpt>
      <trkpt lat="42.39597300000001" lon="1.639072999999999">
        <ele>1563.986</ele>
        <time>2022-08-19T16:30:29Z</time>
      </trkpt>
      <trkpt lat="42.39591800000001" lon="1.6390089999999988">
        <ele>1565.477</ele>
        <time>2022-08-19T16:30:33Z</time>
      </trkpt>
      <trkpt lat="42.39587100000001" lon="1.638961999999999">
        <ele>1567.161</ele>
        <time>2022-08-19T16:30:36Z</time>
      </trkpt>
      <trkpt lat="42.39582600000001" lon="1.638947999999999">
        <ele>1567.727</ele>
        <time>2022-08-19T16:30:39Z</time>
      </trkpt>
      <trkpt lat="42.39579200000001" lon="1.638997999999999">
        <ele>1570.409</ele>
        <time>2022-08-19T16:30:55Z</time>
      </trkpt>
      <trkpt lat="42.39574400000001" lon="1.639010999999999">
        <ele>1571.438</ele>
        <time>2022-08-19T16:31:02Z</time>
      </trkpt>
      <trkpt lat="42.39570400000001" lon="1.6390399999999992">
        <ele>1572.838</ele>
        <time>2022-08-19T16:31:12Z</time>
      </trkpt>
      <trkpt lat="42.39573500000001" lon="1.6390909999999992">
        <ele>1573.978</ele>
        <time>2022-08-19T16:31:19Z</time>
      </trkpt>
      <trkpt lat="42.39578200000001" lon="1.6391129999999992">
        <ele>1575.638</ele>
        <time>2022-08-19T16:31:24Z</time>
      </trkpt>
      <trkpt lat="42.39582700000001" lon="1.6391229999999992">
        <ele>1576.955</ele>
        <time>2022-08-19T16:31:30Z</time>
      </trkpt>
      <trkpt lat="42.39587700000001" lon="1.6391379999999993">
        <ele>1578.471</ele>
        <time>2022-08-19T16:31:37Z</time>
      </trkpt>
      <trkpt lat="42.395916000000014" lon="1.6391759999999993">
        <ele>1579.951</ele>
        <time>2022-08-19T16:31:43Z</time>
      </trkpt>
      <trkpt lat="42.395857000000014" lon="1.6394709999999992">
        <ele>1582.452</ele>
        <time>2022-08-19T16:31:45Z</time>
      </trkpt>
      <trkpt lat="42.39588900000001" lon="1.6394159999999993">
        <ele>1583.547</ele>
        <time>2022-08-19T16:31:51Z</time>
      </trkpt>
      <trkpt lat="42.39588600000001" lon="1.6394809999999993">
        <ele>1584.435</ele>
        <time>2022-08-19T16:32:00Z</time>
      </trkpt>
      <trkpt lat="42.39589500000001" lon="1.6395419999999994">
        <ele>1585.286</ele>
        <time>2022-08-19T16:32:08Z</time>
      </trkpt>
      <trkpt lat="42.39587200000001" lon="1.6396049999999993">
        <ele>1585.814</ele>
        <time>2022-08-19T16:32:14Z</time>
      </trkpt>
      <trkpt lat="42.39585200000001" lon="1.6396619999999993">
        <ele>1586.609</ele>
        <time>2022-08-19T16:32:20Z</time>
      </trkpt>
      <trkpt lat="42.39582900000001" lon="1.6397229999999994">
        <ele>1587.964</ele>
        <time>2022-08-19T16:32:27Z</time>
      </trkpt>
      <trkpt lat="42.39580100000001" lon="1.6397729999999995">
        <ele>1589.324</ele>
        <time>2022-08-19T16:32:33Z</time>
      </trkpt>
      <trkpt lat="42.39584100000001" lon="1.6398029999999995">
        <ele>1590.384</ele>
        <time>2022-08-19T16:32:37Z</time>
      </trkpt>
      <trkpt lat="42.395885000000014" lon="1.6398369999999995">
        <ele>1592.124</ele>
        <time>2022-08-19T16:32:43Z</time>
      </trkpt>
      <trkpt lat="42.39592000000001" lon="1.6398879999999996">
        <ele>1593.221</ele>
        <time>2022-08-19T16:32:50Z</time>
      </trkpt>
      <trkpt lat="42.39593900000001" lon="1.6399569999999997">
        <ele>1594.877</ele>
        <time>2022-08-19T16:32:57Z</time>
      </trkpt>
      <trkpt lat="42.39592200000001" lon="1.6400239999999997">
        <ele>1596.077</ele>
        <time>2022-08-19T16:33:03Z</time>
      </trkpt>
      <trkpt lat="42.39593700000001" lon="1.6400899999999996">
        <ele>1597.388</ele>
        <time>2022-08-19T16:33:10Z</time>
      </trkpt>
      <trkpt lat="42.39594300000001" lon="1.6401599999999996">
        <ele>1598.383</ele>
        <time>2022-08-19T16:33:17Z</time>
      </trkpt>
      <trkpt lat="42.39592600000001" lon="1.6402229999999995">
        <ele>1599.427</ele>
        <time>2022-08-19T16:33:23Z</time>
      </trkpt>
      <trkpt lat="42.39590400000001" lon="1.6402819999999996">
        <ele>1600.468</ele>
        <time>2022-08-19T16:33:29Z</time>
      </trkpt>
      <trkpt lat="42.39588700000001" lon="1.6403489999999996">
        <ele>1601.214</ele>
        <time>2022-08-19T16:33:36Z</time>
      </trkpt>
      <trkpt lat="42.39590000000001" lon="1.6404149999999995">
        <ele>1602.909</ele>
        <time>2022-08-19T16:33:43Z</time>
      </trkpt>
      <trkpt lat="42.395938000000015" lon="1.6404599999999996">
        <ele>1604.143</ele>
        <time>2022-08-19T16:33:50Z</time>
      </trkpt>
      <trkpt lat="42.39596400000001" lon="1.6405129999999997">
        <ele>1604.973</ele>
        <time>2022-08-19T16:33:57Z</time>
      </trkpt>
      <trkpt lat="42.395986000000015" lon="1.6405759999999996">
        <ele>1606.053</ele>
        <time>2022-08-19T16:34:04Z</time>
      </trkpt>
      <trkpt lat="42.39600400000001" lon="1.6406379999999996">
        <ele>1607.223</ele>
        <time>2022-08-19T16:34:11Z</time>
      </trkpt>
      <trkpt lat="42.39603900000001" lon="1.6406929999999995">
        <ele>1608.350</ele>
        <time>2022-08-19T16:34:18Z</time>
      </trkpt>
      <trkpt lat="42.39606300000001" lon="1.6407529999999995">
        <ele>1609.726</ele>
        <time>2022-08-19T16:34:25Z</time>
      </trkpt>
      <trkpt lat="42.39610200000001" lon="1.6407929999999995">
        <ele>1610.826</ele>
        <time>2022-08-19T16:34:31Z</time>
      </trkpt>
      <trkpt lat="42.39613900000001" lon="1.6408349999999996">
        <ele>1611.927</ele>
        <time>2022-08-19T16:34:37Z</time>
      </trkpt>
      <trkpt lat="42.39615100000001" lon="1.6408969999999996">
        <ele>1613.372</ele>
        <time>2022-08-19T16:34:43Z</time>
      </trkpt>
      <trkpt lat="42.39618300000001" lon="1.6409429999999996">
        <ele>1614.482</ele>
        <time>2022-08-19T16:34:49Z</time>
      </trkpt>
      <trkpt lat="42.39622700000001" lon="1.6409819999999995">
        <ele>1615.643</ele>
        <time>2022-08-19T16:34:58Z</time>
      </trkpt>
      <trkpt lat="42.39625600000001" lon="1.6410389999999995">
        <ele>1616.717</ele>
        <time>2022-08-19T16:35:04Z</time>
      </trkpt>
      <trkpt lat="42.39628200000001" lon="1.6410889999999996">
        <ele>1617.709</ele>
        <time>2022-08-19T16:35:10Z</time>
      </trkpt>
      <trkpt lat="42.39630100000001" lon="1.6411449999999996">
        <ele>1618.719</ele>
        <time>2022-08-19T16:35:16Z</time>
      </trkpt>
      <trkpt lat="42.39632100000001" lon="1.6412099999999996">
        <ele>1620.099</ele>
        <time>2022-08-19T16:35:23Z</time>
      </trkpt>
      <trkpt lat="42.39634100000001" lon="1.6412759999999995">
        <ele>1621.269</ele>
        <time>2022-08-19T16:35:30Z</time>
      </trkpt>
      <trkpt lat="42.396362" lon="1.6413379999999995">
        <ele>1622.779</ele>
        <time>2022-08-19T16:35:37Z</time>
      </trkpt>
      <trkpt lat="42.396382" lon="1.6413999999999995">
        <ele>1624.546</ele>
        <time>2022-08-19T16:35:44Z</time>
      </trkpt>
      <trkpt lat="42.396415000000005" lon="1.6414669999999996">
        <ele>1626.772</ele>
        <time>2022-08-19T16:35:51Z</time>
      </trkpt>
      <trkpt lat="42.396432000000004" lon="1.6415239999999995">
        <ele>1628.642</ele>
        <time>2022-08-19T16:35:59Z</time>
      </trkpt>
      <trkpt lat="42.396454000000006" lon="1.6415819999999994">
        <ele>1629.873</ele>
        <time>2022-08-19T16:36:05Z</time>
      </trkpt>
      <trkpt lat="42.39648700000001" lon="1.6416279999999994">
        <ele>1632.218</ele>
        <time>2022-08-19T16:36:20Z</time>
      </trkpt>
      <trkpt lat="42.396536000000005" lon="1.6416349999999995">
        <ele>1633.441</ele>
        <time>2022-08-19T16:36:27Z</time>
      </trkpt>
      <trkpt lat="42.39658300000001" lon="1.6416549999999994">
        <ele>1634.681</ele>
        <time>2022-08-19T16:36:34Z</time>
      </trkpt>
      <trkpt lat="42.39663300000001" lon="1.6416649999999995">
        <ele>1635.409</ele>
        <time>2022-08-19T16:36:41Z</time>
      </trkpt>
      <trkpt lat="42.396682000000006" lon="1.6416749999999996">
        <ele>1636.909</ele>
        <time>2022-08-19T16:36:48Z</time>
      </trkpt>
      <trkpt lat="42.396733000000005" lon="1.6416709999999997">
        <ele>1637.845</ele>
        <time>2022-08-19T16:36:55Z</time>
      </trkpt>
      <trkpt lat="42.39676000000001" lon="1.6417299999999997">
        <ele>1638.855</ele>
        <time>2022-08-19T16:37:00Z</time>
      </trkpt>
      <trkpt lat="42.396775000000005" lon="1.6418059999999997">
        <ele>1640.085</ele>
        <time>2022-08-19T16:37:04Z</time>
      </trkpt>
      <trkpt lat="42.39679" lon="1.6418799999999996">
        <ele>1641.015</ele>
        <time>2022-08-19T16:37:08Z</time>
      </trkpt>
      <trkpt lat="42.396814000000006" lon="1.6419379999999995">
        <ele>1642.082</ele>
        <time>2022-08-19T16:37:13Z</time>
      </trkpt>
      <trkpt lat="42.39684700000001" lon="1.6419819999999994">
        <ele>1643.148</ele>
        <time>2022-08-19T16:37:19Z</time>
      </trkpt>
      <trkpt lat="42.39688100000001" lon="1.6420259999999993">
        <ele>1644.138</ele>
        <time>2022-08-19T16:37:25Z</time>
      </trkpt>
      <trkpt lat="42.39693400000001" lon="1.6420179999999993">
        <ele>1645.149</ele>
        <time>2022-08-19T16:37:32Z</time>
      </trkpt>
      <trkpt lat="42.39698500000001" lon="1.6420189999999992">
        <ele>1646.224</ele>
        <time>2022-08-19T16:37:39Z</time>
      </trkpt>
      <trkpt lat="42.39702900000001" lon="1.6419929999999991">
        <ele>1647.273</ele>
        <time>2022-08-19T16:37:45Z</time>
      </trkpt>
      <trkpt lat="42.39707900000001" lon="1.642012999999999">
        <ele>1648.585</ele>
        <time>2022-08-19T16:37:53Z</time>
      </trkpt>
      <trkpt lat="42.397109000000015" lon="1.642060999999999">
        <ele>1650.513</ele>
        <time>2022-08-19T16:37:58Z</time>
      </trkpt>
      <trkpt lat="42.39714600000001" lon="1.642096999999999">
        <ele>1651.409</ele>
        <time>2022-08-19T16:38:04Z</time>
      </trkpt>
      <trkpt lat="42.397190000000016" lon="1.642135999999999">
        <ele>1652.958</ele>
        <time>2022-08-19T16:38:11Z</time>
      </trkpt>
      <trkpt lat="42.397216000000014" lon="1.6421989999999989">
        <ele>1654.198</ele>
        <time>2022-08-19T16:38:16Z</time>
      </trkpt>
      <trkpt lat="42.39724500000001" lon="1.6422539999999988">
        <ele>1655.688</ele>
        <time>2022-08-19T16:38:21Z</time>
      </trkpt>
      <trkpt lat="42.39727600000001" lon="1.6423139999999987">
        <ele>1657.238</ele>
        <time>2022-08-19T16:38:27Z</time>
      </trkpt>
      <trkpt lat="42.397314000000016" lon="1.6423499999999986">
        <ele>1658.695</ele>
        <time>2022-08-19T16:38:34Z</time>
      </trkpt>
      <trkpt lat="42.397342000000016" lon="1.6424039999999986">
        <ele>1659.831</ele>
        <time>2022-08-19T16:38:40Z</time>
      </trkpt>
      <trkpt lat="42.39738100000002" lon="1.6424359999999987">
        <ele>1660.851</ele>
        <time>2022-08-19T16:38:47Z</time>
      </trkpt>
      <trkpt lat="42.397410000000015" lon="1.6424829999999986">
        <ele>1661.962</ele>
        <time>2022-08-19T16:38:53Z</time>
      </trkpt>
      <trkpt lat="42.39745300000001" lon="1.6425159999999985">
        <ele>1663.567</ele>
        <time>2022-08-19T16:39:00Z</time>
      </trkpt>
      <trkpt lat="42.397503000000015" lon="1.6425139999999985">
        <ele>1666.111</ele>
        <time>2022-08-19T16:39:07Z</time>
      </trkpt>
      <trkpt lat="42.39754400000002" lon="1.6424779999999986">
        <ele>1667.321</ele>
        <time>2022-08-19T16:39:13Z</time>
      </trkpt>
      <trkpt lat="42.397593000000015" lon="1.6424619999999985">
        <ele>1668.903</ele>
        <time>2022-08-19T16:39:21Z</time>
      </trkpt>
      <trkpt lat="42.39763900000001" lon="1.6424379999999985">
        <ele>1670.409</ele>
        <time>2022-08-19T16:39:28Z</time>
      </trkpt>
      <trkpt lat="42.39766800000001" lon="1.6424869999999985">
        <ele>1671.922</ele>
        <time>2022-08-19T16:39:34Z</time>
      </trkpt>
      <trkpt lat="42.39732900000001" lon="1.6422599999999985">
        <ele>1673.192</ele>
        <time>2022-08-19T16:39:41Z</time>
      </trkpt>
      <trkpt lat="42.397286000000015" lon="1.6422239999999986">
        <ele>1676.822</ele>
        <time>2022-08-19T16:39:48Z</time>
      </trkpt>
      <trkpt lat="42.397278000000014" lon="1.6421599999999985">
        <ele>1677.942</ele>
        <time>2022-08-19T16:39:58Z</time>
      </trkpt>
      <trkpt lat="42.397303000000015" lon="1.6421019999999986">
        <ele>1678.519</ele>
        <time>2022-08-19T16:40:04Z</time>
      </trkpt>
      <trkpt lat="42.39732100000001" lon="1.6420429999999986">
        <ele>1679.055</ele>
        <time>2022-08-19T16:40:10Z</time>
      </trkpt>
      <trkpt lat="42.39735000000001" lon="1.6419889999999986">
        <ele>1679.585</ele>
        <time>2022-08-19T16:40:16Z</time>
      </trkpt>
      <trkpt lat="42.39738700000001" lon="1.6419499999999987">
        <ele>1680.586</ele>
        <time>2022-08-19T16:40:22Z</time>
      </trkpt>
      <trkpt lat="42.39743200000001" lon="1.6419369999999986">
        <ele>1681.361</ele>
        <time>2022-08-19T16:40:27Z</time>
      </trkpt>
      <trkpt lat="42.39748500000001" lon="1.6419509999999986">
        <ele>1682.152</ele>
        <time>2022-08-19T16:40:31Z</time>
      </trkpt>
      <trkpt lat="42.39753700000001" lon="1.6419799999999987">
        <ele>1683.053</ele>
        <time>2022-08-19T16:40:34Z</time>
      </trkpt>
      <trkpt lat="42.39759000000001" lon="1.6420019999999986">
        <ele>1684.208</ele>
        <time>2022-08-19T16:40:38Z</time>
      </trkpt>
      <trkpt lat="42.39763800000001" lon="1.6420119999999987">
        <ele>1685.509</ele>
        <time>2022-08-19T16:40:43Z</time>
      </trkpt>
      <trkpt lat="42.39768800000001" lon="1.6420269999999988">
        <ele>1686.856</ele>
        <time>2022-08-19T16:40:48Z</time>
      </trkpt>
      <trkpt lat="42.39773500000001" lon="1.6420519999999987">
        <ele>1687.616</ele>
        <time>2022-08-19T16:40:52Z</time>
      </trkpt>
      <trkpt lat="42.39778100000001" lon="1.6420329999999987">
        <ele>1688.366</ele>
        <time>2022-08-19T16:40:58Z</time>
      </trkpt>
      <trkpt lat="42.39782100000001" lon="1.6420029999999988">
        <ele>1689.546</ele>
        <time>2022-08-19T16:41:04Z</time>
      </trkpt>
      <trkpt lat="42.397867000000005" lon="1.6419719999999989">
        <ele>1690.173</ele>
        <time>2022-08-19T16:41:11Z</time>
      </trkpt>
      <trkpt lat="42.39791700000001" lon="1.641968999999999">
        <ele>1690.749</ele>
        <time>2022-08-19T16:41:17Z</time>
      </trkpt>
      <trkpt lat="42.39796200000001" lon="1.6420019999999989">
        <ele>1691.439</ele>
        <time>2022-08-19T16:41:22Z</time>
      </trkpt>
      <trkpt lat="42.39800300000001" lon="1.642038999999999">
        <ele>1692.320</ele>
        <time>2022-08-19T16:41:28Z</time>
      </trkpt>
      <trkpt lat="42.39803700000001" lon="1.642078999999999">
        <ele>1693.145</ele>
        <time>2022-08-19T16:41:33Z</time>
      </trkpt>
      <trkpt lat="42.39807500000001" lon="1.642111999999999">
        <ele>1694.265</ele>
        <time>2022-08-19T16:41:39Z</time>
      </trkpt>
      <trkpt lat="42.39811800000001" lon="1.6421429999999988">
        <ele>1695.268</ele>
        <time>2022-08-19T16:41:44Z</time>
      </trkpt>
      <trkpt lat="42.39817200000001" lon="1.6421589999999988">
        <ele>1695.414</ele>
        <time>2022-08-19T16:41:45Z</time>
      </trkpt>
      <trkpt lat="42.398224000000006" lon="1.6421879999999989">
        <ele>1696.209</ele>
        <time>2022-08-19T16:41:46Z</time>
      </trkpt>
      <trkpt lat="42.398275000000005" lon="1.6421969999999988">
        <ele>1697.587</ele>
        <time>2022-08-19T16:41:48Z</time>
      </trkpt>
      <trkpt lat="42.39831900000001" lon="1.6421819999999987">
        <ele>1698.717</ele>
        <time>2022-08-19T16:41:51Z</time>
      </trkpt>
      <trkpt lat="42.39836000000001" lon="1.6421539999999988">
        <ele>1699.957</ele>
        <time>2022-08-19T16:41:57Z</time>
      </trkpt>
      <trkpt lat="42.39840900000001" lon="1.6421219999999987">
        <ele>1701.527</ele>
        <time>2022-08-19T16:42:02Z</time>
      </trkpt>
      <trkpt lat="42.39845300000001" lon="1.6421399999999988">
        <ele>1701.814</ele>
        <time>2022-08-19T16:42:08Z</time>
      </trkpt>
      <trkpt lat="42.39847600000001" lon="1.6421999999999988">
        <ele>1702.320</ele>
        <time>2022-08-19T16:42:15Z</time>
      </trkpt>
      <trkpt lat="42.39851400000001" lon="1.6422469999999987">
        <ele>1703.120</ele>
        <time>2022-08-19T16:42:23Z</time>
      </trkpt>
      <trkpt lat="42.398553000000014" lon="1.6422799999999986">
        <ele>1704.361</ele>
        <time>2022-08-19T16:42:30Z</time>
      </trkpt>
      <trkpt lat="42.398595000000014" lon="1.6423069999999986">
        <ele>1705.656</ele>
        <time>2022-08-19T16:42:37Z</time>
      </trkpt>
      <trkpt lat="42.39863900000002" lon="1.6423419999999986">
        <ele>1706.783</ele>
        <time>2022-08-19T16:42:44Z</time>
      </trkpt>
      <trkpt lat="42.39868300000002" lon="1.6423709999999987">
        <ele>1708.225</ele>
        <time>2022-08-19T16:42:52Z</time>
      </trkpt>
      <trkpt lat="42.39872000000002" lon="1.6424119999999987">
        <ele>1710.017</ele>
        <time>2022-08-19T16:43:01Z</time>
      </trkpt>
      <trkpt lat="42.39875700000002" lon="1.6424569999999987">
        <ele>1711.309</ele>
        <time>2022-08-19T16:43:08Z</time>
      </trkpt>
      <trkpt lat="42.398772000000015" lon="1.6425149999999986">
        <ele>1712.789</ele>
        <time>2022-08-19T16:43:13Z</time>
      </trkpt>
      <trkpt lat="42.39880500000002" lon="1.6425619999999985">
        <ele>1713.639</ele>
        <time>2022-08-19T16:43:20Z</time>
      </trkpt>
      <trkpt lat="42.39883200000002" lon="1.6426129999999985">
        <ele>1715.039</ele>
        <time>2022-08-19T16:43:26Z</time>
      </trkpt>
      <trkpt lat="42.39886700000002" lon="1.6426589999999985">
        <ele>1717.529</ele>
        <time>2022-08-19T16:43:41Z</time>
      </trkpt>
      <trkpt lat="42.398899000000014" lon="1.6427089999999986">
        <ele>1718.856</ele>
        <time>2022-08-19T16:43:49Z</time>
      </trkpt>
      <trkpt lat="42.39894800000001" lon="1.6427179999999986">
        <ele>1719.622</ele>
        <time>2022-08-19T16:43:55Z</time>
      </trkpt>
      <trkpt lat="42.39899600000001" lon="1.6427089999999986">
        <ele>1719.942</ele>
        <time>2022-08-19T16:44:01Z</time>
      </trkpt>
      <trkpt lat="42.39904300000001" lon="1.6427009999999986">
        <ele>1720.713</ele>
        <time>2022-08-19T16:44:08Z</time>
      </trkpt>
      <trkpt lat="42.39909200000001" lon="1.6427149999999986">
        <ele>1722.948</ele>
        <time>2022-08-19T16:44:14Z</time>
      </trkpt>
      <trkpt lat="42.39913300000001" lon="1.6427449999999986">
        <ele>1723.674</ele>
        <time>2022-08-19T16:44:20Z</time>
      </trkpt>
      <trkpt lat="42.399175000000014" lon="1.6427669999999985">
        <ele>1724.556</ele>
        <time>2022-08-19T16:44:26Z</time>
      </trkpt>
      <trkpt lat="42.39921800000001" lon="1.6427889999999985">
        <ele>1725.721</ele>
        <time>2022-08-19T16:44:33Z</time>
      </trkpt>
      <trkpt lat="42.39926000000001" lon="1.6427639999999986">
        <ele>1726.809</ele>
        <time>2022-08-19T16:44:39Z</time>
      </trkpt>
      <trkpt lat="42.39929500000001" lon="1.6427099999999986">
        <ele>1728.178</ele>
        <time>2022-08-19T16:44:46Z</time>
      </trkpt>
      <trkpt lat="42.39934000000001" lon="1.6426779999999985">
        <ele>1729.188</ele>
        <time>2022-08-19T16:44:51Z</time>
      </trkpt>
      <trkpt lat="42.39938800000001" lon="1.6426649999999985">
        <ele>1730.068</ele>
        <time>2022-08-19T16:44:56Z</time>
      </trkpt>
      <trkpt lat="42.399440000000006" lon="1.6426359999999984">
        <ele>1730.498</ele>
        <time>2022-08-19T16:45:01Z</time>
      </trkpt>
      <trkpt lat="42.39948700000001" lon="1.6426049999999985">
        <ele>1730.525</ele>
        <time>2022-08-19T16:45:06Z</time>
      </trkpt>
      <trkpt lat="42.399533000000005" lon="1.6425679999999985">
        <ele>1730.751</ele>
        <time>2022-08-19T16:45:11Z</time>
      </trkpt>
      <trkpt lat="42.39957700000001" lon="1.6425419999999984">
        <ele>1731.211</ele>
        <time>2022-08-19T16:45:15Z</time>
      </trkpt>
      <trkpt lat="42.39962400000001" lon="1.6425249999999985">
        <ele>1731.322</ele>
        <time>2022-08-19T16:45:19Z</time>
      </trkpt>
      <trkpt lat="42.39967800000001" lon="1.6425149999999984">
        <ele>1731.447</ele>
        <time>2022-08-19T16:45:24Z</time>
      </trkpt>
      <trkpt lat="42.399730000000005" lon="1.6425079999999983">
        <ele>1731.596</ele>
        <time>2022-08-19T16:45:29Z</time>
      </trkpt>
      <trkpt lat="42.399784000000004" lon="1.6425089999999982">
        <ele>1732.131</ele>
        <time>2022-08-19T16:45:34Z</time>
      </trkpt>
      <trkpt lat="42.399838" lon="1.6424979999999982">
        <ele>1732.624</ele>
        <time>2022-08-19T16:45:39Z</time>
      </trkpt>
      <trkpt lat="42.399881" lon="1.6424789999999982">
        <ele>1733.009</ele>
        <time>2022-08-19T16:45:43Z</time>
      </trkpt>
      <trkpt lat="42.399933" lon="1.6424619999999983">
        <ele>1733.670</ele>
        <time>2022-08-19T16:45:48Z</time>
      </trkpt>
      <trkpt lat="42.399978999999995" lon="1.6424269999999983">
        <ele>1734.020</ele>
        <time>2022-08-19T16:45:54Z</time>
      </trkpt>
      <trkpt lat="42.400017" lon="1.6423909999999984">
        <ele>1734.210</ele>
        <time>2022-08-19T16:45:58Z</time>
      </trkpt>
      <trkpt lat="42.400064" lon="1.6423469999999984">
        <ele>1734.590</ele>
        <time>2022-08-19T16:46:03Z</time>
      </trkpt>
      <trkpt lat="42.400107" lon="1.6423169999999985">
        <ele>1734.537</ele>
        <time>2022-08-19T16:46:07Z</time>
      </trkpt>
      <trkpt lat="42.400152999999996" lon="1.6422829999999984">
        <ele>1734.533</ele>
        <time>2022-08-19T16:46:11Z</time>
      </trkpt>
      <trkpt lat="42.4002" lon="1.6422829999999984">
        <ele>1733.693</ele>
        <time>2022-08-19T16:46:17Z</time>
      </trkpt>
      <trkpt lat="42.400242999999996" lon="1.6422569999999983">
        <ele>1733.374</ele>
        <time>2022-08-19T16:46:21Z</time>
      </trkpt>
      <trkpt lat="42.400282999999995" lon="1.6422139999999983">
        <ele>1732.769</ele>
        <time>2022-08-19T16:46:27Z</time>
      </trkpt>
      <trkpt lat="42.40033499999999" lon="1.6421909999999982">
        <ele>1732.471</ele>
        <time>2022-08-19T16:46:31Z</time>
      </trkpt>
      <trkpt lat="42.40038699999999" lon="1.6421659999999982">
        <ele>1732.141</ele>
        <time>2022-08-19T16:46:34Z</time>
      </trkpt>
      <trkpt lat="42.400432999999985" lon="1.6421469999999982">
        <ele>1731.915</ele>
        <time>2022-08-19T16:46:38Z</time>
      </trkpt>
      <trkpt lat="42.400452999999985" lon="1.6420829999999982">
        <ele>1731.709</ele>
        <time>2022-08-19T16:46:42Z</time>
      </trkpt>
      <trkpt lat="42.400497999999985" lon="1.6420419999999982">
        <ele>1731.688</ele>
        <time>2022-08-19T16:46:45Z</time>
      </trkpt>
      <trkpt lat="42.40053099999999" lon="1.6419979999999983">
        <ele>1731.578</ele>
        <time>2022-08-19T16:46:49Z</time>
      </trkpt>
      <trkpt lat="42.400578999999986" lon="1.6419689999999982">
        <ele>1731.478</ele>
        <time>2022-08-19T16:46:55Z</time>
      </trkpt>
      <trkpt lat="42.40063099999998" lon="1.6419409999999983">
        <ele>1730.618</ele>
        <time>2022-08-19T16:47:01Z</time>
      </trkpt>
      <trkpt lat="42.40067399999998" lon="1.6418669999999984">
        <ele>1730.075</ele>
        <time>2022-08-19T16:47:05Z</time>
      </trkpt>
      <trkpt lat="42.40070999999998" lon="1.6418189999999984">
        <ele>1729.651</ele>
        <time>2022-08-19T16:47:12Z</time>
      </trkpt>
      <trkpt lat="42.40075799999998" lon="1.6418039999999983">
        <ele>1728.951</ele>
        <time>2022-08-19T16:47:22Z</time>
      </trkpt>
      <trkpt lat="42.400801999999985" lon="1.6417869999999983">
        <ele>1728.862</ele>
        <time>2022-08-19T16:47:28Z</time>
      </trkpt>
      <trkpt lat="42.40085599999998" lon="1.6417549999999983">
        <ele>1728.817</ele>
        <time>2022-08-19T16:47:33Z</time>
      </trkpt>
      <trkpt lat="42.40090099999998" lon="1.6416829999999982">
        <ele>1728.828</ele>
        <time>2022-08-19T16:47:36Z</time>
      </trkpt>
      <trkpt lat="42.40093799999998" lon="1.6416369999999982">
        <ele>1728.889</ele>
        <time>2022-08-19T16:47:38Z</time>
      </trkpt>
      <trkpt lat="42.40097199999998" lon="1.6415959999999983">
        <ele>1729.417</ele>
        <time>2022-08-19T16:47:41Z</time>
      </trkpt>
      <trkpt lat="42.401015999999984" lon="1.6415549999999983">
        <ele>1730.109</ele>
        <time>2022-08-19T16:47:47Z</time>
      </trkpt>
      <trkpt lat="42.40105399999999" lon="1.6415079999999984">
        <ele>1730.783</ele>
        <time>2022-08-19T16:47:54Z</time>
      </trkpt>
      <trkpt lat="42.40109799999999" lon="1.6414689999999985">
        <ele>1731.383</ele>
        <time>2022-08-19T16:48:01Z</time>
      </trkpt>
      <trkpt lat="42.40114099999999" lon="1.6414349999999984">
        <ele>1731.833</ele>
        <time>2022-08-19T16:48:07Z</time>
      </trkpt>
      <trkpt lat="42.40116699999999" lon="1.6413739999999983">
        <ele>1732.243</ele>
        <time>2022-08-19T16:48:11Z</time>
      </trkpt>
      <trkpt lat="42.40120799999999" lon="1.6413309999999983">
        <ele>1732.770</ele>
        <time>2022-08-19T16:48:15Z</time>
      </trkpt>
      <trkpt lat="42.40124499999999" lon="1.6412919999999984">
        <ele>1733.886</ele>
        <time>2022-08-19T16:48:19Z</time>
      </trkpt>
      <trkpt lat="42.40128799999999" lon="1.6412699999999985">
        <ele>1734.576</ele>
        <time>2022-08-19T16:48:24Z</time>
      </trkpt>
      <trkpt lat="42.401336999999984" lon="1.6412389999999986">
        <ele>1735.027</ele>
        <time>2022-08-19T16:48:28Z</time>
      </trkpt>
      <trkpt lat="42.40137399999998" lon="1.6411749999999985">
        <ele>1735.852</ele>
        <time>2022-08-19T16:48:34Z</time>
      </trkpt>
      <trkpt lat="42.40142499999998" lon="1.6411549999999986">
        <ele>1736.369</ele>
        <time>2022-08-19T16:48:38Z</time>
      </trkpt>
      <trkpt lat="42.401468999999985" lon="1.6411119999999986">
        <ele>1737.304</ele>
        <time>2022-08-19T16:48:43Z</time>
      </trkpt>
      <trkpt lat="42.401502999999984" lon="1.6410699999999985">
        <ele>1738.224</ele>
        <time>2022-08-19T16:48:46Z</time>
      </trkpt>
      <trkpt lat="42.40153799999998" lon="1.6410169999999984">
        <ele>1739.109</ele>
        <time>2022-08-19T16:48:48Z</time>
      </trkpt>
      <trkpt lat="42.40158299999998" lon="1.6409039999999984">
        <ele>1740.517</ele>
        <time>2022-08-19T16:48:59Z</time>
      </trkpt>
      <trkpt lat="42.40160299999998" lon="1.6408429999999983">
        <ele>1740.217</ele>
        <time>2022-08-19T16:49:54Z</time>
      </trkpt>
      <trkpt lat="42.40163999999998" lon="1.6407959999999984">
        <ele>1738.517</ele>
        <time>2022-08-19T16:51:00Z</time>
      </trkpt>
      <trkpt lat="42.40167899999998" lon="1.6407579999999984">
        <ele>1738.567</ele>
        <time>2022-08-19T16:51:06Z</time>
      </trkpt>
      <trkpt lat="42.40171799999998" lon="1.6407089999999984">
        <ele>1738.534</ele>
        <time>2022-08-19T16:51:54Z</time>
      </trkpt>
      <trkpt lat="42.40176599999998" lon="1.6406859999999983">
        <ele>1740.150</ele>
        <time>2022-08-19T16:52:01Z</time>
      </trkpt>
      <trkpt lat="42.40179999999998" lon="1.6406459999999983">
        <ele>1740.890</ele>
        <time>2022-08-19T16:52:06Z</time>
      </trkpt>
      <trkpt lat="42.40183199999998" lon="1.6405979999999982">
        <ele>1741.651</ele>
        <time>2022-08-19T16:52:49Z</time>
      </trkpt>
      <trkpt lat="42.40187399999998" lon="1.6405729999999983">
        <ele>1743.326</ele>
        <time>2022-08-19T16:52:54Z</time>
      </trkpt>
      <trkpt lat="42.401905999999975" lon="1.6405229999999982">
        <ele>1743.462</ele>
        <time>2022-08-19T16:53:20Z</time>
      </trkpt>
      <trkpt lat="42.40195299999998" lon="1.6404909999999981">
        <ele>1743.483</ele>
        <time>2022-08-19T16:53:27Z</time>
      </trkpt>
      <trkpt lat="42.40200399999998" lon="1.6404709999999982">
        <ele>1743.711</ele>
        <time>2022-08-19T16:53:33Z</time>
      </trkpt>
      <trkpt lat="42.40204599999998" lon="1.6404479999999981">
        <ele>1745.209</ele>
        <time>2022-08-19T16:53:39Z</time>
      </trkpt>
      <trkpt lat="42.40209399999998" lon="1.640432999999998">
        <ele>1745.547</ele>
        <time>2022-08-19T16:53:46Z</time>
      </trkpt>
      <trkpt lat="42.40213199999998" lon="1.640388999999998">
        <ele>1748.437</ele>
        <time>2022-08-19T16:53:52Z</time>
      </trkpt>
      <trkpt lat="42.40216499999998" lon="1.640345999999998">
        <ele>1749.827</ele>
        <time>2022-08-19T16:53:59Z</time>
      </trkpt>
      <trkpt lat="42.40219899999998" lon="1.6402989999999982">
        <ele>1751.357</ele>
        <time>2022-08-19T16:54:08Z</time>
      </trkpt>
      <trkpt lat="42.40223299999998" lon="1.6402469999999982">
        <ele>1752.454</ele>
        <time>2022-08-19T16:54:14Z</time>
      </trkpt>
      <trkpt lat="42.40228399999998" lon="1.6402529999999982">
        <ele>1753.640</ele>
        <time>2022-08-19T16:54:22Z</time>
      </trkpt>
      <trkpt lat="42.40230999999998" lon="1.6401979999999983">
        <ele>1754.230</ele>
        <time>2022-08-19T16:54:25Z</time>
      </trkpt>
      <trkpt lat="42.40232999999998" lon="1.6401379999999983">
        <ele>1755.171</ele>
        <time>2022-08-19T16:54:29Z</time>
      </trkpt>
      <trkpt lat="42.40235699999998" lon="1.6400889999999984">
        <ele>1756.826</ele>
        <time>2022-08-19T16:54:34Z</time>
      </trkpt>
      <trkpt lat="42.40238999999998" lon="1.6400379999999983">
        <ele>1757.786</ele>
        <time>2022-08-19T16:54:41Z</time>
      </trkpt>
      <trkpt lat="42.402419999999985" lon="1.6399849999999982">
        <ele>1758.460</ele>
        <time>2022-08-19T16:54:45Z</time>
      </trkpt>
      <trkpt lat="42.40245499999998" lon="1.6399439999999983">
        <ele>1759.626</ele>
        <time>2022-08-19T16:54:51Z</time>
      </trkpt>
      <trkpt lat="42.40247599999998" lon="1.6398819999999983">
        <ele>1763.609</ele>
        <time>2022-08-19T16:55:48Z</time>
      </trkpt>
      <trkpt lat="42.40250399999998" lon="1.6398219999999983">
        <ele>1763.729</ele>
        <time>2022-08-19T16:55:54Z</time>
      </trkpt>
      <trkpt lat="42.40253799999998" lon="1.6397759999999983">
        <ele>1763.749</ele>
        <time>2022-08-19T16:56:01Z</time>
      </trkpt>
      <trkpt lat="42.402566999999976" lon="1.6397289999999984">
        <ele>1763.739</ele>
        <time>2022-08-19T16:56:06Z</time>
      </trkpt>
      <trkpt lat="42.402597999999976" lon="1.6396799999999985">
        <ele>1763.729</ele>
        <time>2022-08-19T16:56:12Z</time>
      </trkpt>
      <trkpt lat="42.40262199999998" lon="1.6396219999999986">
        <ele>1764.856</ele>
        <time>2022-08-19T16:56:18Z</time>
      </trkpt>
      <trkpt lat="42.40264599999998" lon="1.6395639999999987">
        <ele>1767.722</ele>
        <time>2022-08-19T16:56:37Z</time>
      </trkpt>
      <trkpt lat="42.402669999999986" lon="1.6395039999999987">
        <ele>1769.282</ele>
        <time>2022-08-19T16:56:43Z</time>
      </trkpt>
      <trkpt lat="42.40270499999998" lon="1.6394599999999988">
        <ele>1770.073</ele>
        <time>2022-08-19T16:57:08Z</time>
      </trkpt>
      <trkpt lat="42.402729999999984" lon="1.6393999999999989">
        <ele>1770.918</ele>
        <time>2022-08-19T16:57:14Z</time>
      </trkpt>
      <trkpt lat="42.40276699999998" lon="1.6393619999999989">
        <ele>1772.242</ele>
        <time>2022-08-19T16:57:26Z</time>
      </trkpt>
      <trkpt lat="42.40279299999998" lon="1.6392979999999988">
        <ele>1772.522</ele>
        <time>2022-08-19T16:57:32Z</time>
      </trkpt>
      <trkpt lat="42.402830999999985" lon="1.639250999999999">
        <ele>1772.514</ele>
        <time>2022-08-19T16:57:37Z</time>
      </trkpt>
      <trkpt lat="42.402872999999985" lon="1.639209999999999">
        <ele>1774.109</ele>
        <time>2022-08-19T16:57:43Z</time>
      </trkpt>
      <trkpt lat="42.40290899999999" lon="1.639169999999999">
        <ele>1775.055</ele>
        <time>2022-08-19T16:57:49Z</time>
      </trkpt>
      <trkpt lat="42.40294699999999" lon="1.639114999999999">
        <ele>1777.655</ele>
        <time>2022-08-19T16:57:58Z</time>
      </trkpt>
      <trkpt lat="42.40294999999999" lon="1.639041999999999">
        <ele>1779.145</ele>
        <time>2022-08-19T16:58:05Z</time>
      </trkpt>
      <trkpt lat="42.40298299999999" lon="1.638977999999999">
        <ele>1780.455</ele>
        <time>2022-08-19T16:58:11Z</time>
      </trkpt>
      <trkpt lat="42.40300799999999" lon="1.638922999999999">
        <ele>1781.622</ele>
        <time>2022-08-19T16:58:16Z</time>
      </trkpt>
      <trkpt lat="42.40304999999999" lon="1.638884999999999">
        <ele>1782.358</ele>
        <time>2022-08-19T16:58:21Z</time>
      </trkpt>
      <trkpt lat="42.403068999999995" lon="1.638823999999999">
        <ele>1785.178</ele>
        <time>2022-08-19T16:58:37Z</time>
      </trkpt>
      <trkpt lat="42.403096" lon="1.638768999999999">
        <ele>1786.559</ele>
        <time>2022-08-19T16:58:43Z</time>
      </trkpt>
      <trkpt lat="42.40312" lon="1.638705999999999">
        <ele>1786.724</ele>
        <time>2022-08-19T16:58:50Z</time>
      </trkpt>
      <trkpt lat="42.403144000000005" lon="1.638649999999999">
        <ele>1786.842</ele>
        <time>2022-08-19T16:58:56Z</time>
      </trkpt>
      <trkpt lat="42.403161000000004" lon="1.638584999999999">
        <ele>1787.622</ele>
        <time>2022-08-19T16:59:04Z</time>
      </trkpt>
      <trkpt lat="42.403181000000004" lon="1.6385269999999992">
        <ele>1789.414</ele>
        <time>2022-08-19T16:59:11Z</time>
      </trkpt>
      <trkpt lat="42.403216" lon="1.6384799999999993">
        <ele>1790.409</ele>
        <time>2022-08-19T16:59:16Z</time>
      </trkpt>
      <trkpt lat="42.403241" lon="1.6384279999999993">
        <ele>1791.625</ele>
        <time>2022-08-19T16:59:21Z</time>
      </trkpt>
      <trkpt lat="42.403244" lon="1.6383649999999994">
        <ele>1793.145</ele>
        <time>2022-08-19T16:59:28Z</time>
      </trkpt>
      <trkpt lat="42.403216" lon="1.6383119999999993">
        <ele>1797.995</ele>
        <time>2022-08-19T16:59:54Z</time>
      </trkpt>
      <trkpt lat="42.403267" lon="1.6382709999999994">
        <ele>1799.345</ele>
        <time>2022-08-19T16:59:59Z</time>
      </trkpt>
      <trkpt lat="42.403311" lon="1.6382159999999995">
        <ele>1800.832</ele>
        <time>2022-08-19T17:00:02Z</time>
      </trkpt>
      <trkpt lat="42.403348" lon="1.6381739999999994">
        <ele>1802.278</ele>
        <time>2022-08-19T17:00:06Z</time>
      </trkpt>
      <trkpt lat="42.40337" lon="1.6381149999999993">
        <ele>1803.238</ele>
        <time>2022-08-19T17:00:12Z</time>
      </trkpt>
      <trkpt lat="42.403399" lon="1.6380669999999993">
        <ele>1804.549</ele>
        <time>2022-08-19T17:00:18Z</time>
      </trkpt>
      <trkpt lat="42.403437000000004" lon="1.6380259999999993">
        <ele>1805.684</ele>
        <time>2022-08-19T17:00:24Z</time>
      </trkpt>
      <trkpt lat="42.403484000000006" lon="1.6380209999999993">
        <ele>1806.128</ele>
        <time>2022-08-19T17:00:27Z</time>
      </trkpt>
      <trkpt lat="42.40354000000001" lon="1.6380149999999993">
        <ele>1807.289</ele>
        <time>2022-08-19T17:00:33Z</time>
      </trkpt>
      <trkpt lat="42.403580000000005" lon="1.6379779999999993">
        <ele>1809.217</ele>
        <time>2022-08-19T17:00:39Z</time>
      </trkpt>
      <trkpt lat="42.40360700000001" lon="1.6379179999999993">
        <ele>1811.209</ele>
        <time>2022-08-19T17:00:49Z</time>
      </trkpt>
      <trkpt lat="42.403642000000005" lon="1.6378709999999994">
        <ele>1812.873</ele>
        <time>2022-08-19T17:00:56Z</time>
      </trkpt>
      <trkpt lat="42.403670000000005" lon="1.6378129999999995">
        <ele>1813.813</ele>
        <time>2022-08-19T17:01:03Z</time>
      </trkpt>
      <trkpt lat="42.403701000000005" lon="1.6377679999999994">
        <ele>1814.823</ele>
        <time>2022-08-19T17:01:09Z</time>
      </trkpt>
      <trkpt lat="42.40373" lon="1.6377119999999994">
        <ele>1815.883</ele>
        <time>2022-08-19T17:01:16Z</time>
      </trkpt>
      <trkpt lat="42.403745" lon="1.6376539999999995">
        <ele>1817.240</ele>
        <time>2022-08-19T17:01:22Z</time>
      </trkpt>
      <trkpt lat="42.403767" lon="1.6375989999999996">
        <ele>1818.046</ele>
        <time>2022-08-19T17:01:28Z</time>
      </trkpt>
      <trkpt lat="42.403789" lon="1.6375439999999997">
        <ele>1819.286</ele>
        <time>2022-08-19T17:01:34Z</time>
      </trkpt>
      <trkpt lat="42.403815" lon="1.6374939999999996">
        <ele>1820.297</ele>
        <time>2022-08-19T17:01:40Z</time>
      </trkpt>
      <trkpt lat="42.403839000000005" lon="1.6374409999999995">
        <ele>1821.632</ele>
        <time>2022-08-19T17:01:46Z</time>
      </trkpt>
      <trkpt lat="42.403881000000005" lon="1.6373999999999995">
        <ele>1822.766</ele>
        <time>2022-08-19T17:01:52Z</time>
      </trkpt>
      <trkpt lat="42.40392000000001" lon="1.6373559999999996">
        <ele>1823.729</ele>
        <time>2022-08-19T17:01:57Z</time>
      </trkpt>
      <trkpt lat="42.403935000000004" lon="1.6372919999999995">
        <ele>1825.121</ele>
        <time>2022-08-19T17:02:03Z</time>
      </trkpt>
      <trkpt lat="42.40394500000001" lon="1.6372259999999996">
        <ele>1826.309</ele>
        <time>2022-08-19T17:02:09Z</time>
      </trkpt>
      <trkpt lat="42.40395500000001" lon="1.6371609999999996">
        <ele>1827.527</ele>
        <time>2022-08-19T17:02:15Z</time>
      </trkpt>
      <trkpt lat="42.40398700000001" lon="1.6371119999999997">
        <ele>1828.387</ele>
        <time>2022-08-19T17:02:21Z</time>
      </trkpt>
      <trkpt lat="42.404002000000006" lon="1.6370529999999996">
        <ele>1829.077</ele>
        <time>2022-08-19T17:02:27Z</time>
      </trkpt>
      <trkpt lat="42.40402400000001" lon="1.6369979999999997">
        <ele>1829.957</ele>
        <time>2022-08-19T17:02:33Z</time>
      </trkpt>
      <trkpt lat="42.40403200000001" lon="1.6369339999999997">
        <ele>1830.684</ele>
        <time>2022-08-19T17:02:39Z</time>
      </trkpt>
      <trkpt lat="42.404022000000005" lon="1.6368709999999997">
        <ele>1831.850</ele>
        <time>2022-08-19T17:02:44Z</time>
      </trkpt>
      <trkpt lat="42.40403800000001" lon="1.6368099999999997">
        <ele>1832.560</ele>
        <time>2022-08-19T17:02:50Z</time>
      </trkpt>
      <trkpt lat="42.40409400000001" lon="1.6368029999999996">
        <ele>1832.981</ele>
        <time>2022-08-19T17:02:54Z</time>
      </trkpt>
      <trkpt lat="42.404137000000006" lon="1.6367739999999995">
        <ele>1833.616</ele>
        <time>2022-08-19T17:02:56Z</time>
      </trkpt>
      <trkpt lat="42.404166000000004" lon="1.6367119999999995">
        <ele>1834.377</ele>
        <time>2022-08-19T17:02:59Z</time>
      </trkpt>
      <trkpt lat="42.404175" lon="1.6366469999999995">
        <ele>1834.861</ele>
        <time>2022-08-19T17:03:02Z</time>
      </trkpt>
      <trkpt lat="42.404202000000005" lon="1.6365859999999994">
        <ele>1835.627</ele>
        <time>2022-08-19T17:03:07Z</time>
      </trkpt>
      <trkpt lat="42.404224000000006" lon="1.6365259999999995">
        <ele>1836.409</ele>
        <time>2022-08-19T17:03:13Z</time>
      </trkpt>
      <trkpt lat="42.40423400000001" lon="1.6364579999999995">
        <ele>1837.128</ele>
        <time>2022-08-19T17:03:19Z</time>
      </trkpt>
      <trkpt lat="42.40424500000001" lon="1.6363929999999995">
        <ele>1837.998</ele>
        <time>2022-08-19T17:03:25Z</time>
      </trkpt>
      <trkpt lat="42.40426600000001" lon="1.6363369999999995">
        <ele>1838.738</ele>
        <time>2022-08-19T17:03:31Z</time>
      </trkpt>
      <trkpt lat="42.40429400000001" lon="1.6362639999999995">
        <ele>1839.568</ele>
        <time>2022-08-19T17:03:36Z</time>
      </trkpt>
      <trkpt lat="42.40432200000001" lon="1.6361929999999996">
        <ele>1840.365</ele>
        <time>2022-08-19T17:03:39Z</time>
      </trkpt>
      <trkpt lat="42.40435000000001" lon="1.6361199999999996">
        <ele>1841.571</ele>
        <time>2022-08-19T17:03:42Z</time>
      </trkpt>
      <trkpt lat="42.40436600000001" lon="1.6360469999999996">
        <ele>1842.441</ele>
        <time>2022-08-19T17:03:47Z</time>
      </trkpt>
      <trkpt lat="42.40436500000001" lon="1.6359859999999995">
        <ele>1843.452</ele>
        <time>2022-08-19T17:03:51Z</time>
      </trkpt>
      <trkpt lat="42.404381000000015" lon="1.6359189999999995">
        <ele>1844.347</ele>
        <time>2022-08-19T17:03:56Z</time>
      </trkpt>
      <trkpt lat="42.404403000000016" lon="1.6358579999999994">
        <ele>1844.968</ele>
        <time>2022-08-19T17:04:00Z</time>
      </trkpt>
      <trkpt lat="42.404412000000015" lon="1.6357859999999993">
        <ele>1845.642</ele>
        <time>2022-08-19T17:04:05Z</time>
      </trkpt>
      <trkpt lat="42.404403000000016" lon="1.6357219999999992">
        <ele>1846.526</ele>
        <time>2022-08-19T17:04:10Z</time>
      </trkpt>
      <trkpt lat="42.404412000000015" lon="1.6356609999999991">
        <ele>1847.409</ele>
        <time>2022-08-19T17:04:16Z</time>
      </trkpt>
      <trkpt lat="42.40445600000002" lon="1.6356469999999992">
        <ele>1848.087</ele>
        <time>2022-08-19T17:04:18Z</time>
      </trkpt>
      <trkpt lat="42.404491000000014" lon="1.6355919999999993">
        <ele>1849.357</ele>
        <time>2022-08-19T17:04:23Z</time>
      </trkpt>
      <trkpt lat="42.404502000000015" lon="1.6355329999999992">
        <ele>1850.757</ele>
        <time>2022-08-19T17:04:31Z</time>
      </trkpt>
      <trkpt lat="42.404511000000014" lon="1.6354639999999991">
        <ele>1851.647</ele>
        <time>2022-08-19T17:04:37Z</time>
      </trkpt>
      <trkpt lat="42.404494000000014" lon="1.635396999999999">
        <ele>1852.384</ele>
        <time>2022-08-19T17:04:42Z</time>
      </trkpt>
      <trkpt lat="42.404516000000015" lon="1.635340999999999">
        <ele>1853.180</ele>
        <time>2022-08-19T17:04:46Z</time>
      </trkpt>
      <trkpt lat="42.404544000000016" lon="1.635292999999999">
        <ele>1853.650</ele>
        <time>2022-08-19T17:04:50Z</time>
      </trkpt>
      <trkpt lat="42.404569000000016" lon="1.635240999999999">
        <ele>1854.271</ele>
        <time>2022-08-19T17:04:54Z</time>
      </trkpt>
      <trkpt lat="42.404598000000014" lon="1.635184999999999">
        <ele>1855.396</ele>
        <time>2022-08-19T17:04:59Z</time>
      </trkpt>
      <trkpt lat="42.40463000000001" lon="1.635137999999999">
        <ele>1856.034</ele>
        <time>2022-08-19T17:05:05Z</time>
      </trkpt>
      <trkpt lat="42.40466200000001" lon="1.635092999999999">
        <ele>1857.055</ele>
        <time>2022-08-19T17:05:11Z</time>
      </trkpt>
      <trkpt lat="42.40468800000001" lon="1.635040999999999">
        <ele>1857.910</ele>
        <time>2022-08-19T17:05:17Z</time>
      </trkpt>
      <trkpt lat="42.40471800000001" lon="1.634992999999999">
        <ele>1859.009</ele>
        <time>2022-08-19T17:05:23Z</time>
      </trkpt>
      <trkpt lat="42.40474800000001" lon="1.634944999999999">
        <ele>1859.944</ele>
        <time>2022-08-19T17:05:29Z</time>
      </trkpt>
      <trkpt lat="42.40477700000001" lon="1.6348949999999989">
        <ele>1860.524</ele>
        <time>2022-08-19T17:05:35Z</time>
      </trkpt>
      <trkpt lat="42.40479900000001" lon="1.6348389999999988">
        <ele>1861.364</ele>
        <time>2022-08-19T17:05:41Z</time>
      </trkpt>
      <trkpt lat="42.40481000000001" lon="1.6347769999999988">
        <ele>1862.514</ele>
        <time>2022-08-19T17:05:47Z</time>
      </trkpt>
      <trkpt lat="42.404803000000015" lon="1.6347049999999987">
        <ele>1863.251</ele>
        <time>2022-08-19T17:05:52Z</time>
      </trkpt>
      <trkpt lat="42.404792000000015" lon="1.6346449999999988">
        <ele>1864.077</ele>
        <time>2022-08-19T17:05:56Z</time>
      </trkpt>
      <trkpt lat="42.404772000000015" lon="1.6345839999999987">
        <ele>1865.177</ele>
        <time>2022-08-19T17:06:03Z</time>
      </trkpt>
      <trkpt lat="42.404753000000014" lon="1.6345169999999987">
        <ele>1865.948</ele>
        <time>2022-08-19T17:06:08Z</time>
      </trkpt>
      <trkpt lat="42.40472900000001" lon="1.6344579999999986">
        <ele>1866.843</ele>
        <time>2022-08-19T17:06:12Z</time>
      </trkpt>
      <trkpt lat="42.40471300000001" lon="1.6343929999999987">
        <ele>1867.512</ele>
        <time>2022-08-19T17:06:17Z</time>
      </trkpt>
      <trkpt lat="42.40469800000001" lon="1.6343249999999987">
        <ele>1868.232</ele>
        <time>2022-08-19T17:06:23Z</time>
      </trkpt>
      <trkpt lat="42.40469700000001" lon="1.6342549999999987">
        <ele>1869.605</ele>
        <time>2022-08-19T17:06:29Z</time>
      </trkpt>
      <trkpt lat="42.40470100000001" lon="1.6341889999999988">
        <ele>1870.809</ele>
        <time>2022-08-19T17:06:35Z</time>
      </trkpt>
      <trkpt lat="42.40474500000001" lon="1.6341679999999987">
        <ele>1871.632</ele>
        <time>2022-08-19T17:06:38Z</time>
      </trkpt>
      <trkpt lat="42.40472300000001" lon="1.6341099999999988">
        <ele>1873.592</ele>
        <time>2022-08-19T17:06:44Z</time>
      </trkpt>
      <trkpt lat="42.40467500000001" lon="1.6340829999999988">
        <ele>1874.442</ele>
        <time>2022-08-19T17:06:50Z</time>
      </trkpt>
      <trkpt lat="42.404623000000015" lon="1.634078999999999">
        <ele>1875.442</ele>
        <time>2022-08-19T17:06:56Z</time>
      </trkpt>
      <trkpt lat="42.40458200000001" lon="1.634047999999999">
        <ele>1877.259</ele>
        <time>2022-08-19T17:07:01Z</time>
      </trkpt>
      <trkpt lat="42.40455700000001" lon="1.633987999999999">
        <ele>1878.175</ele>
        <time>2022-08-19T17:07:08Z</time>
      </trkpt>
      <trkpt lat="42.40453000000001" lon="1.633936999999999">
        <ele>1879.275</ele>
        <time>2022-08-19T17:07:14Z</time>
      </trkpt>
      <trkpt lat="42.40451800000001" lon="1.633867999999999">
        <ele>1880.736</ele>
        <time>2022-08-19T17:07:21Z</time>
      </trkpt>
      <trkpt lat="42.40452000000001" lon="1.633801999999999">
        <ele>1882.331</ele>
        <time>2022-08-19T17:07:27Z</time>
      </trkpt>
      <trkpt lat="42.404550000000015" lon="1.6337469999999992">
        <ele>1883.523</ele>
        <time>2022-08-19T17:07:32Z</time>
      </trkpt>
      <trkpt lat="42.404581000000015" lon="1.6336979999999992">
        <ele>1884.883</ele>
        <time>2022-08-19T17:07:37Z</time>
      </trkpt>
      <trkpt lat="42.404589000000016" lon="1.6336339999999991">
        <ele>1885.911</ele>
        <time>2022-08-19T17:07:42Z</time>
      </trkpt>
      <trkpt lat="42.40458800000002" lon="1.6335639999999991">
        <ele>1887.509</ele>
        <time>2022-08-19T17:07:48Z</time>
      </trkpt>
      <trkpt lat="42.40458500000002" lon="1.6335009999999992">
        <ele>1888.693</ele>
        <time>2022-08-19T17:07:53Z</time>
      </trkpt>
      <trkpt lat="42.40457600000002" lon="1.633431999999999">
        <ele>1889.473</ele>
        <time>2022-08-19T17:07:58Z</time>
      </trkpt>
      <trkpt lat="42.40456700000002" lon="1.6333659999999992">
        <ele>1890.443</ele>
        <time>2022-08-19T17:08:03Z</time>
      </trkpt>
      <trkpt lat="42.40460400000002" lon="1.6333139999999993">
        <ele>1891.583</ele>
        <time>2022-08-19T17:08:08Z</time>
      </trkpt>
      <trkpt lat="42.40462300000002" lon="1.6332479999999994">
        <ele>1892.760</ele>
        <time>2022-08-19T17:08:13Z</time>
      </trkpt>
      <trkpt lat="42.404639000000024" lon="1.6331849999999994">
        <ele>1893.976</ele>
        <time>2022-08-19T17:08:18Z</time>
      </trkpt>
      <trkpt lat="42.40462300000002" lon="1.6331249999999995">
        <ele>1894.976</ele>
        <time>2022-08-19T17:08:24Z</time>
      </trkpt>
      <trkpt lat="42.40457200000002" lon="1.6331339999999994">
        <ele>1896.867</ele>
        <time>2022-08-19T17:08:39Z</time>
      </trkpt>
      <trkpt lat="42.404608000000025" lon="1.6330889999999993">
        <ele>1898.592</ele>
        <time>2022-08-19T17:09:53Z</time>
      </trkpt>
      <trkpt lat="42.40460100000003" lon="1.6330229999999994">
        <ele>1898.543</ele>
        <time>2022-08-19T17:09:59Z</time>
      </trkpt>
      <trkpt lat="42.404571000000026" lon="1.6329729999999993">
        <ele>1898.564</ele>
        <time>2022-08-19T17:10:04Z</time>
      </trkpt>
      <trkpt lat="42.404571000000026" lon="1.6329079999999994">
        <ele>1898.510</ele>
        <time>2022-08-19T17:10:29Z</time>
      </trkpt>
      <trkpt lat="42.40459500000003" lon="1.6328499999999995">
        <ele>1900.509</ele>
        <time>2022-08-19T17:10:35Z</time>
      </trkpt>
      <trkpt lat="42.40460800000003" lon="1.6327759999999996">
        <ele>1900.555</ele>
        <time>2022-08-19T17:10:40Z</time>
      </trkpt>
      <trkpt lat="42.40460000000003" lon="1.6327059999999995">
        <ele>1900.535</ele>
        <time>2022-08-19T17:10:44Z</time>
      </trkpt>
      <trkpt lat="42.40461200000003" lon="1.6326219999999996">
        <ele>1900.565</ele>
        <time>2022-08-19T17:10:52Z</time>
      </trkpt>
      <trkpt lat="42.40460700000003" lon="1.6325459999999996">
        <ele>1900.025</ele>
        <time>2022-08-19T17:10:56Z</time>
      </trkpt>
      <trkpt lat="42.40459500000003" lon="1.6324729999999996">
        <ele>1899.632</ele>
        <time>2022-08-19T17:10:59Z</time>
      </trkpt>
      <trkpt lat="42.40458900000003" lon="1.6323989999999997">
        <ele>1899.448</ele>
        <time>2022-08-19T17:11:01Z</time>
      </trkpt>
      <trkpt lat="42.40459300000003" lon="1.6323199999999998">
        <ele>1898.988</ele>
        <time>2022-08-19T17:11:03Z</time>
      </trkpt>
      <trkpt lat="42.404596000000026" lon="1.6322509999999997">
        <ele>1897.839</ele>
        <time>2022-08-19T17:11:06Z</time>
      </trkpt>
      <trkpt lat="42.404616000000026" lon="1.6321889999999997">
        <ele>1897.264</ele>
        <time>2022-08-19T17:11:09Z</time>
      </trkpt>
      <trkpt lat="42.404658000000026" lon="1.6321389999999996">
        <ele>1896.482</ele>
        <time>2022-08-19T17:11:14Z</time>
      </trkpt>
      <trkpt lat="42.40465200000003" lon="1.6320499999999996">
        <ele>1895.943</ele>
        <time>2022-08-19T17:11:17Z</time>
      </trkpt>
      <trkpt lat="42.404647000000026" lon="1.6319879999999996">
        <ele>1895.517</ele>
        <time>2022-08-19T17:11:19Z</time>
      </trkpt>
      <trkpt lat="42.404670000000024" lon="1.6319049999999995">
        <ele>1894.709</ele>
        <time>2022-08-19T17:11:22Z</time>
      </trkpt>
      <trkpt lat="42.404692000000026" lon="1.6318119999999996">
        <ele>1893.799</ele>
        <time>2022-08-19T17:11:25Z</time>
      </trkpt>
      <trkpt lat="42.40471100000003" lon="1.6317459999999997">
        <ele>1892.529</ele>
        <time>2022-08-19T17:11:27Z</time>
      </trkpt>
      <trkpt lat="42.40471300000003" lon="1.6316689999999996">
        <ele>1891.869</ele>
        <time>2022-08-19T17:11:30Z</time>
      </trkpt>
      <trkpt lat="42.40472400000003" lon="1.6316089999999996">
        <ele>1891.439</ele>
        <time>2022-08-19T17:11:32Z</time>
      </trkpt>
      <trkpt lat="42.40472800000003" lon="1.6315069999999996">
        <ele>1891.036</ele>
        <time>2022-08-19T17:11:35Z</time>
      </trkpt>
      <trkpt lat="42.40473300000003" lon="1.6314449999999996">
        <ele>1890.852</ele>
        <time>2022-08-19T17:11:37Z</time>
      </trkpt>
      <trkpt lat="42.40473900000003" lon="1.6313669999999996">
        <ele>1890.532</ele>
        <time>2022-08-19T17:11:39Z</time>
      </trkpt>
      <trkpt lat="42.404737000000026" lon="1.6312889999999995">
        <ele>1889.973</ele>
        <time>2022-08-19T17:11:41Z</time>
      </trkpt>
      <trkpt lat="42.40474200000003" lon="1.6312199999999994">
        <ele>1888.678</ele>
        <time>2022-08-19T17:11:43Z</time>
      </trkpt>
      <trkpt lat="42.404760000000024" lon="1.6311409999999995">
        <ele>1888.087</ele>
        <time>2022-08-19T17:11:46Z</time>
      </trkpt>
      <trkpt lat="42.404765000000026" lon="1.6310709999999995">
        <ele>1887.642</ele>
        <time>2022-08-19T17:11:49Z</time>
      </trkpt>
      <trkpt lat="42.40478400000003" lon="1.6310059999999995">
        <ele>1887.226</ele>
        <time>2022-08-19T17:11:51Z</time>
      </trkpt>
      <trkpt lat="42.40477300000003" lon="1.6309459999999996">
        <ele>1886.809</ele>
        <time>2022-08-19T17:11:53Z</time>
      </trkpt>
      <trkpt lat="42.404771000000025" lon="1.6308799999999997">
        <ele>1886.439</ele>
        <time>2022-08-19T17:11:55Z</time>
      </trkpt>
      <trkpt lat="42.40478400000003" lon="1.6308179999999997">
        <ele>1886.179</ele>
        <time>2022-08-19T17:11:57Z</time>
      </trkpt>
      <trkpt lat="42.40480700000003" lon="1.6307439999999997">
        <ele>1885.759</ele>
        <time>2022-08-19T17:11:59Z</time>
      </trkpt>
      <trkpt lat="42.404810000000026" lon="1.6306789999999998">
        <ele>1885.229</ele>
        <time>2022-08-19T17:12:01Z</time>
      </trkpt>
      <trkpt lat="42.40480700000003" lon="1.6305959999999997">
        <ele>1884.636</ele>
        <time>2022-08-19T17:12:04Z</time>
      </trkpt>
      <trkpt lat="42.404825000000024" lon="1.6305229999999997">
        <ele>1884.292</ele>
        <time>2022-08-19T17:12:07Z</time>
      </trkpt>
      <trkpt lat="42.404839000000024" lon="1.6304519999999998">
        <ele>1883.292</ele>
        <time>2022-08-19T17:12:11Z</time>
      </trkpt>
      <trkpt lat="42.404864000000025" lon="1.6303909999999997">
        <ele>1882.643</ele>
        <time>2022-08-19T17:12:14Z</time>
      </trkpt>
      <trkpt lat="42.404878000000025" lon="1.6303259999999997">
        <ele>1881.948</ele>
        <time>2022-08-19T17:12:17Z</time>
      </trkpt>
      <trkpt lat="42.40489700000003" lon="1.6302569999999996">
        <ele>1880.924</ele>
        <time>2022-08-19T17:12:20Z</time>
      </trkpt>
      <trkpt lat="42.404900000000026" lon="1.6301849999999996">
        <ele>1880.004</ele>
        <time>2022-08-19T17:12:23Z</time>
      </trkpt>
      <trkpt lat="42.40492200000003" lon="1.6301259999999995">
        <ele>1878.914</ele>
        <time>2022-08-19T17:12:25Z</time>
      </trkpt>
      <trkpt lat="42.40495800000003" lon="1.6300809999999994">
        <ele>1877.909</ele>
        <time>2022-08-19T17:12:27Z</time>
      </trkpt>
      <trkpt lat="42.404993000000026" lon="1.6300309999999993">
        <ele>1877.183</ele>
        <time>2022-08-19T17:12:29Z</time>
      </trkpt>
      <trkpt lat="42.40502300000003" lon="1.6299549999999994">
        <ele>1876.093</ele>
        <time>2022-08-19T17:12:33Z</time>
      </trkpt>
      <trkpt lat="42.40504800000003" lon="1.6298839999999994">
        <ele>1875.143</ele>
        <time>2022-08-19T17:12:36Z</time>
      </trkpt>
      <trkpt lat="42.40505800000003" lon="1.6298239999999995">
        <ele>1874.323</ele>
        <time>2022-08-19T17:12:38Z</time>
      </trkpt>
      <trkpt lat="42.40507000000003" lon="1.6297469999999994">
        <ele>1873.720</ele>
        <time>2022-08-19T17:12:41Z</time>
      </trkpt>
      <trkpt lat="42.40510200000003" lon="1.6296769999999994">
        <ele>1873.276</ele>
        <time>2022-08-19T17:12:43Z</time>
      </trkpt>
      <trkpt lat="42.40512400000003" lon="1.6295999999999993">
        <ele>1870.876</ele>
        <time>2022-08-19T17:12:46Z</time>
      </trkpt>
      <trkpt lat="42.40514600000003" lon="1.6295449999999994">
        <ele>1870.787</ele>
        <time>2022-08-19T17:12:48Z</time>
      </trkpt>
      <trkpt lat="42.40518800000003" lon="1.6295039999999994">
        <ele>1870.672</ele>
        <time>2022-08-19T17:12:50Z</time>
      </trkpt>
      <trkpt lat="42.40521400000003" lon="1.6294219999999995">
        <ele>1870.358</ele>
        <time>2022-08-19T17:12:52Z</time>
      </trkpt>
      <trkpt lat="42.40520300000003" lon="1.6293609999999994">
        <ele>1870.152</ele>
        <time>2022-08-19T17:12:54Z</time>
      </trkpt>
      <trkpt lat="42.40519700000003" lon="1.6292909999999994">
        <ele>1869.617</ele>
        <time>2022-08-19T17:12:57Z</time>
      </trkpt>
      <trkpt lat="42.40519100000003" lon="1.6292279999999995">
        <ele>1869.009</ele>
        <time>2022-08-19T17:13:00Z</time>
      </trkpt>
      <trkpt lat="42.40516400000003" lon="1.6291599999999995">
        <ele>1868.216</ele>
        <time>2022-08-19T17:13:04Z</time>
      </trkpt>
      <trkpt lat="42.40511800000003" lon="1.6291419999999994">
        <ele>1866.926</ele>
        <time>2022-08-19T17:13:14Z</time>
      </trkpt>
      <trkpt lat="42.40511200000003" lon="1.6290769999999994">
        <ele>1867.016</ele>
        <time>2022-08-19T17:13:21Z</time>
      </trkpt>
      <trkpt lat="42.405080000000034" lon="1.6290139999999995">
        <ele>1867.076</ele>
        <time>2022-08-19T17:13:26Z</time>
      </trkpt>
      <trkpt lat="42.40505000000003" lon="1.6289599999999995">
        <ele>1868.673</ele>
        <time>2022-08-19T17:13:33Z</time>
      </trkpt>
      <trkpt lat="42.40505400000003" lon="1.6288939999999996">
        <ele>1870.929</ele>
        <time>2022-08-19T17:13:43Z</time>
      </trkpt>
      <trkpt lat="42.40508700000003" lon="1.6288379999999996">
        <ele>1872.169</ele>
        <time>2022-08-19T17:13:48Z</time>
      </trkpt>
      <trkpt lat="42.40513600000003" lon="1.6288039999999995">
        <ele>1872.650</ele>
        <time>2022-08-19T17:13:52Z</time>
      </trkpt>
      <trkpt lat="42.40517500000003" lon="1.6287549999999995">
        <ele>1872.685</ele>
        <time>2022-08-19T17:14:05Z</time>
      </trkpt>
      <trkpt lat="42.40522200000003" lon="1.6287099999999994">
        <ele>1872.624</ele>
        <time>2022-08-19T17:14:08Z</time>
      </trkpt>
      <trkpt lat="42.40526800000003" lon="1.6287029999999993">
        <ele>1872.604</ele>
        <time>2022-08-19T17:14:12Z</time>
      </trkpt>
      <trkpt lat="42.40531600000003" lon="1.6287069999999992">
        <ele>1872.514</ele>
        <time>2022-08-19T17:14:18Z</time>
      </trkpt>
      <trkpt lat="42.40536600000003" lon="1.6287079999999992">
        <ele>1872.309</ele>
        <time>2022-08-19T17:14:24Z</time>
      </trkpt>
      <trkpt lat="42.40540900000003" lon="1.6286619999999992">
        <ele>1871.473</ele>
        <time>2022-08-19T17:14:29Z</time>
      </trkpt>
      <trkpt lat="42.405435000000026" lon="1.6286109999999991">
        <ele>1870.383</ele>
        <time>2022-08-19T17:14:32Z</time>
      </trkpt>
      <trkpt lat="42.40545400000003" lon="1.6285529999999993">
        <ele>1869.383</ele>
        <time>2022-08-19T17:14:35Z</time>
      </trkpt>
      <trkpt lat="42.405458000000024" lon="1.6284889999999992">
        <ele>1868.053</ele>
        <time>2022-08-19T17:14:37Z</time>
      </trkpt>
      <trkpt lat="42.405475000000024" lon="1.6284069999999993">
        <ele>1866.640</ele>
        <time>2022-08-19T17:14:40Z</time>
      </trkpt>
      <trkpt lat="42.405489000000024" lon="1.6283369999999993">
        <ele>1866.056</ele>
        <time>2022-08-19T17:14:43Z</time>
      </trkpt>
      <trkpt lat="42.405492000000024" lon="1.6282689999999993">
        <ele>1865.746</ele>
        <time>2022-08-19T17:14:45Z</time>
      </trkpt>
      <trkpt lat="42.405489000000024" lon="1.6281929999999993">
        <ele>1863.967</ele>
        <time>2022-08-19T17:14:47Z</time>
      </trkpt>
      <trkpt lat="42.40550700000002" lon="1.6281039999999993">
        <ele>1863.252</ele>
        <time>2022-08-19T17:14:49Z</time>
      </trkpt>
      <trkpt lat="42.40553200000002" lon="1.6280509999999992">
        <ele>1863.226</ele>
        <time>2022-08-19T17:14:50Z</time>
      </trkpt>
      <trkpt lat="42.40557400000002" lon="1.6279949999999992">
        <ele>1862.447</ele>
        <time>2022-08-19T17:14:52Z</time>
      </trkpt>
      <trkpt lat="42.40561400000002" lon="1.6279129999999993">
        <ele>1861.511</ele>
        <time>2022-08-19T17:14:55Z</time>
      </trkpt>
      <trkpt lat="42.40565100000002" lon="1.6278399999999993">
        <ele>1860.509</ele>
        <time>2022-08-19T17:14:58Z</time>
      </trkpt>
      <trkpt lat="42.40567300000002" lon="1.6277689999999994">
        <ele>1859.813</ele>
        <time>2022-08-19T17:15:02Z</time>
      </trkpt>
      <trkpt lat="42.405711000000025" lon="1.6277269999999993">
        <ele>1859.243</ele>
        <time>2022-08-19T17:15:06Z</time>
      </trkpt>
      <trkpt lat="42.40574000000002" lon="1.6276719999999993">
        <ele>1858.753</ele>
        <time>2022-08-19T17:15:11Z</time>
      </trkpt>
      <trkpt lat="42.40578500000002" lon="1.6276459999999993">
        <ele>1858.023</ele>
        <time>2022-08-19T17:15:17Z</time>
      </trkpt>
      <trkpt lat="42.405790000000025" lon="1.6275669999999993">
        <ele>1857.940</ele>
        <time>2022-08-19T17:15:18Z</time>
      </trkpt>
      <trkpt lat="42.40580000000003" lon="1.6274389999999994">
        <ele>1857.126</ele>
        <time>2022-08-19T17:15:20Z</time>
      </trkpt>
      <trkpt lat="42.40582700000003" lon="1.6273849999999994">
        <ele>1856.226</ele>
        <time>2022-08-19T17:15:22Z</time>
      </trkpt>
      <trkpt lat="42.40587800000003" lon="1.6273319999999993">
        <ele>1855.477</ele>
        <time>2022-08-19T17:15:25Z</time>
      </trkpt>
      <trkpt lat="42.40592000000003" lon="1.6272909999999994">
        <ele>1854.652</ele>
        <time>2022-08-19T17:15:27Z</time>
      </trkpt>
      <trkpt lat="42.40595100000003" lon="1.6272369999999994">
        <ele>1854.327</ele>
        <time>2022-08-19T17:15:29Z</time>
      </trkpt>
      <trkpt lat="42.40598300000003" lon="1.6271759999999993">
        <ele>1853.568</ele>
        <time>2022-08-19T17:15:33Z</time>
      </trkpt>
      <trkpt lat="42.40601600000003" lon="1.6271329999999993">
        <ele>1852.914</ele>
        <time>2022-08-19T17:15:38Z</time>
      </trkpt>
      <trkpt lat="42.40596700000003" lon="1.6270309999999992">
        <ele>1852.209</ele>
        <time>2022-08-19T17:15:41Z</time>
      </trkpt>
      <trkpt lat="42.40594500000003" lon="1.6269679999999993">
        <ele>1851.833</ele>
        <time>2022-08-19T17:15:43Z</time>
      </trkpt>
      <trkpt lat="42.40593500000003" lon="1.6268979999999993">
        <ele>1851.483</ele>
        <time>2022-08-19T17:15:45Z</time>
      </trkpt>
      <trkpt lat="42.40592700000003" lon="1.6268329999999993">
        <ele>1850.263</ele>
        <time>2022-08-19T17:15:48Z</time>
      </trkpt>
      <trkpt lat="42.40597400000003" lon="1.6268139999999993">
        <ele>1848.353</ele>
        <time>2022-08-19T17:15:52Z</time>
      </trkpt>
      <trkpt lat="42.40600800000003" lon="1.6267549999999993">
        <ele>1847.950</ele>
        <time>2022-08-19T17:15:55Z</time>
      </trkpt>
      <trkpt lat="42.40602100000003" lon="1.6266819999999993">
        <ele>1847.636</ele>
        <time>2022-08-19T17:15:59Z</time>
      </trkpt>
      <trkpt lat="42.40606100000003" lon="1.6266399999999992">
        <ele>1847.246</ele>
        <time>2022-08-19T17:16:02Z</time>
      </trkpt>
      <trkpt lat="42.40610400000003" lon="1.626605999999999">
        <ele>1845.957</ele>
        <time>2022-08-19T17:16:07Z</time>
      </trkpt>
      <trkpt lat="42.40613100000003" lon="1.626541999999999">
        <ele>1845.372</ele>
        <time>2022-08-19T17:16:09Z</time>
      </trkpt>
      <trkpt lat="42.40616500000003" lon="1.626462999999999">
        <ele>1844.494</ele>
        <time>2022-08-19T17:16:11Z</time>
      </trkpt>
      <trkpt lat="42.40618400000003" lon="1.6263969999999992">
        <ele>1843.857</ele>
        <time>2022-08-19T17:16:13Z</time>
      </trkpt>
      <trkpt lat="42.40618700000003" lon="1.6263359999999991">
        <ele>1843.322</ele>
        <time>2022-08-19T17:16:17Z</time>
      </trkpt>
      <trkpt lat="42.40617700000003" lon="1.626257999999999">
        <ele>1842.009</ele>
        <time>2022-08-19T17:16:21Z</time>
      </trkpt>
      <trkpt lat="42.40617100000003" lon="1.6261839999999992">
        <ele>1841.020</ele>
        <time>2022-08-19T17:16:24Z</time>
      </trkpt>
      <trkpt lat="42.40616700000003" lon="1.6261169999999991">
        <ele>1840.490</ele>
        <time>2022-08-19T17:16:27Z</time>
      </trkpt>
      <trkpt lat="42.40618100000003" lon="1.6260219999999992">
        <ele>1839.630</ele>
        <time>2022-08-19T17:16:31Z</time>
      </trkpt>
      <trkpt lat="42.40619200000003" lon="1.625960999999999">
        <ele>1838.980</ele>
        <time>2022-08-19T17:16:33Z</time>
      </trkpt>
      <trkpt lat="42.406202000000036" lon="1.625893999999999">
        <ele>1838.657</ele>
        <time>2022-08-19T17:16:35Z</time>
      </trkpt>
      <trkpt lat="42.40621300000004" lon="1.6258229999999991">
        <ele>1838.663</ele>
        <time>2022-08-19T17:16:37Z</time>
      </trkpt>
      <trkpt lat="42.406219000000036" lon="1.6257419999999991">
        <ele>1838.693</ele>
        <time>2022-08-19T17:16:40Z</time>
      </trkpt>
      <trkpt lat="42.406247000000036" lon="1.625663999999999">
        <ele>1838.684</ele>
        <time>2022-08-19T17:16:43Z</time>
      </trkpt>
      <trkpt lat="42.406287000000034" lon="1.6255829999999991">
        <ele>1838.639</ele>
        <time>2022-08-19T17:16:45Z</time>
      </trkpt>
      <trkpt lat="42.40631900000003" lon="1.625513999999999">
        <ele>1838.644</ele>
        <time>2022-08-19T17:16:47Z</time>
      </trkpt>
      <trkpt lat="42.40635000000003" lon="1.625460999999999">
        <ele>1838.505</ele>
        <time>2022-08-19T17:16:49Z</time>
      </trkpt>
      <trkpt lat="42.406391000000035" lon="1.625422999999999">
        <ele>1837.815</ele>
        <time>2022-08-19T17:16:51Z</time>
      </trkpt>
      <trkpt lat="42.40643500000004" lon="1.625383999999999">
        <ele>1837.609</ele>
        <time>2022-08-19T17:16:53Z</time>
      </trkpt>
      <trkpt lat="42.406481000000035" lon="1.6253369999999991">
        <ele>1837.465</ele>
        <time>2022-08-19T17:16:55Z</time>
      </trkpt>
      <trkpt lat="42.40652500000004" lon="1.6253119999999992">
        <ele>1837.065</ele>
        <time>2022-08-19T17:16:59Z</time>
      </trkpt>
      <trkpt lat="42.40671900000004" lon="1.6251279999999992">
        <ele>1836.285</ele>
        <time>2022-08-19T17:17:05Z</time>
      </trkpt>
      <trkpt lat="42.40674600000004" lon="1.6250739999999992">
        <ele>1832.735</ele>
        <time>2022-08-19T17:17:14Z</time>
      </trkpt>
      <trkpt lat="42.40682600000004" lon="1.6250089999999993">
        <ele>1832.012</ele>
        <time>2022-08-19T17:17:19Z</time>
      </trkpt>
      <trkpt lat="42.40689600000004" lon="1.6249479999999992">
        <ele>1831.788</ele>
        <time>2022-08-19T17:17:21Z</time>
      </trkpt>
      <trkpt lat="42.40692300000004" lon="1.624875999999999">
        <ele>1830.628</ele>
        <time>2022-08-19T17:17:24Z</time>
      </trkpt>
      <trkpt lat="42.40692800000004" lon="1.624797999999999">
        <ele>1830.039</ele>
        <time>2022-08-19T17:17:28Z</time>
      </trkpt>
      <trkpt lat="42.40700500000004" lon="1.624760999999999">
        <ele>1828.624</ele>
        <time>2022-08-19T17:17:34Z</time>
      </trkpt>
      <trkpt lat="42.40707000000004" lon="1.624719999999999">
        <ele>1828.023</ele>
        <time>2022-08-19T17:17:36Z</time>
      </trkpt>
      <trkpt lat="42.40711200000004" lon="1.6246919999999991">
        <ele>1827.283</ele>
        <time>2022-08-19T17:17:38Z</time>
      </trkpt>
      <trkpt lat="42.40717300000004" lon="1.624657999999999">
        <ele>1825.911</ele>
        <time>2022-08-19T17:17:41Z</time>
      </trkpt>
      <trkpt lat="42.40721900000004" lon="1.624636999999999">
        <ele>1824.009</ele>
        <time>2022-08-19T17:17:44Z</time>
      </trkpt>
      <trkpt lat="42.40727500000004" lon="1.624613999999999">
        <ele>1823.093</ele>
        <time>2022-08-19T17:17:47Z</time>
      </trkpt>
      <trkpt lat="42.40733100000004" lon="1.624582999999999">
        <ele>1822.333</ele>
        <time>2022-08-19T17:17:50Z</time>
      </trkpt>
      <trkpt lat="42.40737300000004" lon="1.624528999999999">
        <ele>1821.483</ele>
        <time>2022-08-19T17:17:52Z</time>
      </trkpt>
      <trkpt lat="42.40741000000004" lon="1.624465999999999">
        <ele>1820.453</ele>
        <time>2022-08-19T17:17:55Z</time>
      </trkpt>
      <trkpt lat="42.40745800000004" lon="1.624423999999999">
        <ele>1819.360</ele>
        <time>2022-08-19T17:17:58Z</time>
      </trkpt>
      <trkpt lat="42.407496000000044" lon="1.624388999999999">
        <ele>1817.866</ele>
        <time>2022-08-19T17:18:00Z</time>
      </trkpt>
      <trkpt lat="42.407558000000044" lon="1.624376999999999">
        <ele>1816.726</ele>
        <time>2022-08-19T17:18:03Z</time>
      </trkpt>
      <trkpt lat="42.407606000000044" lon="1.624358999999999">
        <ele>1816.457</ele>
        <time>2022-08-19T17:18:05Z</time>
      </trkpt>
      <trkpt lat="42.40765400000004" lon="1.624308999999999">
        <ele>1815.892</ele>
        <time>2022-08-19T17:18:08Z</time>
      </trkpt>
      <trkpt lat="42.40769400000004" lon="1.624277999999999">
        <ele>1815.133</ele>
        <time>2022-08-19T17:18:11Z</time>
      </trkpt>
      <trkpt lat="42.40772900000004" lon="1.624238999999999">
        <ele>1814.223</ele>
        <time>2022-08-19T17:18:14Z</time>
      </trkpt>
      <trkpt lat="42.40776900000004" lon="1.6242009999999991">
        <ele>1813.315</ele>
        <time>2022-08-19T17:18:17Z</time>
      </trkpt>
      <trkpt lat="42.40782800000004" lon="1.624165999999999">
        <ele>1812.609</ele>
        <time>2022-08-19T17:18:20Z</time>
      </trkpt>
      <trkpt lat="42.407877000000035" lon="1.6241469999999991">
        <ele>1811.584</ele>
        <time>2022-08-19T17:18:24Z</time>
      </trkpt>
      <trkpt lat="42.40791200000003" lon="1.624101999999999">
        <ele>1810.554</ele>
        <time>2022-08-19T17:18:27Z</time>
      </trkpt>
      <trkpt lat="42.40794800000003" lon="1.624029999999999">
        <ele>1809.864</ele>
        <time>2022-08-19T17:18:30Z</time>
      </trkpt>
      <trkpt lat="42.40798500000003" lon="1.623962999999999">
        <ele>1809.254</ele>
        <time>2022-08-19T17:18:33Z</time>
      </trkpt>
      <trkpt lat="42.408023000000036" lon="1.6239129999999988">
        <ele>1808.561</ele>
        <time>2022-08-19T17:18:36Z</time>
      </trkpt>
      <trkpt lat="42.40805900000004" lon="1.623868999999999">
        <ele>1808.087</ele>
        <time>2022-08-19T17:18:38Z</time>
      </trkpt>
      <trkpt lat="42.408091000000034" lon="1.6238179999999989">
        <ele>1807.577</ele>
        <time>2022-08-19T17:18:40Z</time>
      </trkpt>
      <trkpt lat="42.40812900000004" lon="1.6237399999999989">
        <ele>1807.358</ele>
        <time>2022-08-19T17:18:42Z</time>
      </trkpt>
      <trkpt lat="42.40818300000004" lon="1.6236539999999988">
        <ele>1807.173</ele>
        <time>2022-08-19T17:18:44Z</time>
      </trkpt>
      <trkpt lat="42.40823600000004" lon="1.6235859999999989">
        <ele>1807.026</ele>
        <time>2022-08-19T17:18:46Z</time>
      </trkpt>
      <trkpt lat="42.408279000000036" lon="1.6235329999999988">
        <ele>1807.047</ele>
        <time>2022-08-19T17:18:48Z</time>
      </trkpt>
      <trkpt lat="42.40832600000004" lon="1.6234889999999988">
        <ele>1807.111</ele>
        <time>2022-08-19T17:18:50Z</time>
      </trkpt>
      <trkpt lat="42.40838200000004" lon="1.623474999999999">
        <ele>1807.209</ele>
        <time>2022-08-19T17:18:52Z</time>
      </trkpt>
      <trkpt lat="42.40843500000004" lon="1.6234409999999988">
        <ele>1807.283</ele>
        <time>2022-08-19T17:18:54Z</time>
      </trkpt>
      <trkpt lat="42.40849300000004" lon="1.6234349999999989">
        <ele>1807.163</ele>
        <time>2022-08-19T17:18:57Z</time>
      </trkpt>
      <trkpt lat="42.408537000000045" lon="1.623449999999999">
        <ele>1806.973</ele>
        <time>2022-08-19T17:18:59Z</time>
      </trkpt>
      <trkpt lat="42.40858400000005" lon="1.623452999999999">
        <ele>1805.973</ele>
        <time>2022-08-19T17:19:01Z</time>
      </trkpt>
      <trkpt lat="42.40862800000005" lon="1.623433999999999">
        <ele>1805.760</ele>
        <time>2022-08-19T17:19:03Z</time>
      </trkpt>
      <trkpt lat="42.40867500000005" lon="1.6234349999999989">
        <ele>1805.516</ele>
        <time>2022-08-19T17:19:06Z</time>
      </trkpt>
      <trkpt lat="42.408719000000055" lon="1.6234589999999989">
        <ele>1804.646</ele>
        <time>2022-08-19T17:19:09Z</time>
      </trkpt>
      <trkpt lat="42.40876600000006" lon="1.6234489999999988">
        <ele>1803.247</ele>
        <time>2022-08-19T17:19:14Z</time>
      </trkpt>
      <trkpt lat="42.408823000000055" lon="1.6234189999999988">
        <ele>1802.042</ele>
        <time>2022-08-19T17:19:18Z</time>
      </trkpt>
      <trkpt lat="42.40888300000005" lon="1.6233919999999988">
        <ele>1801.142</ele>
        <time>2022-08-19T17:19:21Z</time>
      </trkpt>
      <trkpt lat="42.408936000000054" lon="1.623374999999999">
        <ele>1800.222</ele>
        <time>2022-08-19T17:19:23Z</time>
      </trkpt>
      <trkpt lat="42.40898200000005" lon="1.623371999999999">
        <ele>1799.214</ele>
        <time>2022-08-19T17:19:25Z</time>
      </trkpt>
      <trkpt lat="42.409040000000054" lon="1.6233569999999988">
        <ele>1798.109</ele>
        <time>2022-08-19T17:19:28Z</time>
      </trkpt>
      <trkpt lat="42.409093000000055" lon="1.6233629999999988">
        <ele>1797.335</ele>
        <time>2022-08-19T17:19:31Z</time>
      </trkpt>
      <trkpt lat="42.40914600000006" lon="1.6233369999999987">
        <ele>1796.595</ele>
        <time>2022-08-19T17:19:34Z</time>
      </trkpt>
      <trkpt lat="42.409200000000055" lon="1.6233109999999986">
        <ele>1796.125</ele>
        <time>2022-08-19T17:19:37Z</time>
      </trkpt>
      <trkpt lat="42.40925800000006" lon="1.6232769999999985">
        <ele>1796.195</ele>
        <time>2022-08-19T17:19:40Z</time>
      </trkpt>
      <trkpt lat="42.40930900000006" lon="1.6232319999999985">
        <ele>1796.192</ele>
        <time>2022-08-19T17:19:43Z</time>
      </trkpt>
      <trkpt lat="42.409355000000055" lon="1.6231819999999983">
        <ele>1796.578</ele>
        <time>2022-08-19T17:19:47Z</time>
      </trkpt>
      <trkpt lat="42.409397000000055" lon="1.6231349999999984">
        <ele>1797.218</ele>
        <time>2022-08-19T17:21:12Z</time>
      </trkpt>
      <trkpt lat="42.40944700000006" lon="1.6231309999999985">
        <ele>1797.289</ele>
        <time>2022-08-19T17:21:15Z</time>
      </trkpt>
      <trkpt lat="42.409498000000056" lon="1.6231169999999986">
        <ele>1797.274</ele>
        <time>2022-08-19T17:21:19Z</time>
      </trkpt>
      <trkpt lat="42.40954800000006" lon="1.6230939999999985">
        <ele>1797.283</ele>
        <time>2022-08-19T17:21:22Z</time>
      </trkpt>
      <trkpt lat="42.40959500000006" lon="1.6230689999999985">
        <ele>1797.225</ele>
        <time>2022-08-19T17:21:53Z</time>
      </trkpt>
      <trkpt lat="42.40964700000006" lon="1.6230339999999985">
        <ele>1797.217</ele>
        <time>2022-08-19T17:21:58Z</time>
      </trkpt>
      <trkpt lat="42.40968600000006" lon="1.6229799999999985">
        <ele>1797.409</ele>
        <time>2022-08-19T17:22:02Z</time>
      </trkpt>
      <trkpt lat="42.40973000000006" lon="1.6229459999999984">
        <ele>1797.449</ele>
        <time>2022-08-19T17:22:06Z</time>
      </trkpt>
      <trkpt lat="42.40976900000006" lon="1.6229049999999985">
        <ele>1797.489</ele>
        <time>2022-08-19T17:22:10Z</time>
      </trkpt>
      <trkpt lat="42.40980800000006" lon="1.6228589999999985">
        <ele>1797.419</ele>
        <time>2022-08-19T17:22:14Z</time>
      </trkpt>
      <trkpt lat="42.40985600000006" lon="1.6228349999999985">
        <ele>1797.879</ele>
        <time>2022-08-19T17:22:18Z</time>
      </trkpt>
      <trkpt lat="42.409894000000065" lon="1.6227919999999985">
        <ele>1798.156</ele>
        <time>2022-08-19T17:22:22Z</time>
      </trkpt>
      <trkpt lat="42.40993500000007" lon="1.6227609999999986">
        <ele>1798.342</ele>
        <time>2022-08-19T17:22:26Z</time>
      </trkpt>
      <trkpt lat="42.40999000000007" lon="1.6227329999999986">
        <ele>1798.782</ele>
        <time>2022-08-19T17:22:29Z</time>
      </trkpt>
      <trkpt lat="42.41004100000007" lon="1.6226939999999987">
        <ele>1799.293</ele>
        <time>2022-08-19T17:22:33Z</time>
      </trkpt>
      <trkpt lat="42.410082000000074" lon="1.6226639999999988">
        <ele>1799.768</ele>
        <time>2022-08-19T17:22:36Z</time>
      </trkpt>
      <trkpt lat="42.41012800000007" lon="1.6226389999999988">
        <ele>1800.347</ele>
        <time>2022-08-19T17:22:40Z</time>
      </trkpt>
      <trkpt lat="42.41017900000007" lon="1.6226059999999989">
        <ele>1801.329</ele>
        <time>2022-08-19T17:22:47Z</time>
      </trkpt>
      <trkpt lat="42.41022100000007" lon="1.6225689999999988">
        <ele>1801.821</ele>
        <time>2022-08-19T17:22:51Z</time>
      </trkpt>
      <trkpt lat="42.41026000000007" lon="1.6225309999999988">
        <ele>1802.309</ele>
        <time>2022-08-19T17:22:56Z</time>
      </trkpt>
      <trkpt lat="42.41030000000007" lon="1.6225019999999988">
        <ele>1802.885</ele>
        <time>2022-08-19T17:23:01Z</time>
      </trkpt>
      <trkpt lat="42.41034300000007" lon="1.6224579999999988">
        <ele>1803.655</ele>
        <time>2022-08-19T17:23:07Z</time>
      </trkpt>
      <trkpt lat="42.41038400000007" lon="1.622410999999999">
        <ele>1805.165</ele>
        <time>2022-08-19T17:23:13Z</time>
      </trkpt>
      <trkpt lat="42.410428000000074" lon="1.622364999999999">
        <ele>1805.765</ele>
        <time>2022-08-19T17:23:18Z</time>
      </trkpt>
      <trkpt lat="42.41046500000007" lon="1.622309999999999">
        <ele>1806.282</ele>
        <time>2022-08-19T17:23:21Z</time>
      </trkpt>
      <trkpt lat="42.41051300000007" lon="1.622275999999999">
        <ele>1807.128</ele>
        <time>2022-08-19T17:23:25Z</time>
      </trkpt>
      <trkpt lat="42.410560000000075" lon="1.622255999999999">
        <ele>1807.888</ele>
        <time>2022-08-19T17:23:28Z</time>
      </trkpt>
      <trkpt lat="42.41060900000007" lon="1.622225999999999">
        <ele>1808.549</ele>
        <time>2022-08-19T17:23:33Z</time>
      </trkpt>
      <trkpt lat="42.41066300000007" lon="1.622203999999999">
        <ele>1809.414</ele>
        <time>2022-08-19T17:23:38Z</time>
      </trkpt>
      <trkpt lat="42.41070700000007" lon="1.6221709999999991">
        <ele>1810.196</ele>
        <time>2022-08-19T17:23:42Z</time>
      </trkpt>
      <trkpt lat="42.41074400000007" lon="1.6221349999999992">
        <ele>1810.731</ele>
        <time>2022-08-19T17:23:46Z</time>
      </trkpt>
      <trkpt lat="42.41079300000007" lon="1.6221069999999993">
        <ele>1811.224</ele>
        <time>2022-08-19T17:23:51Z</time>
      </trkpt>
      <trkpt lat="42.41083200000007" lon="1.6220749999999993">
        <ele>1811.509</ele>
        <time>2022-08-19T17:23:54Z</time>
      </trkpt>
      <trkpt lat="42.41088600000007" lon="1.6220409999999992">
        <ele>1811.740</ele>
        <time>2022-08-19T17:23:57Z</time>
      </trkpt>
      <trkpt lat="42.41092800000007" lon="1.6220139999999992">
        <ele>1812.080</ele>
        <time>2022-08-19T17:24:00Z</time>
      </trkpt>
      <trkpt lat="42.41097300000007" lon="1.6219969999999992">
        <ele>1812.320</ele>
        <time>2022-08-19T17:24:03Z</time>
      </trkpt>
      <trkpt lat="42.41102400000007" lon="1.6219759999999992">
        <ele>1812.570</ele>
        <time>2022-08-19T17:24:07Z</time>
      </trkpt>
      <trkpt lat="42.41107200000007" lon="1.6219519999999992">
        <ele>1813.297</ele>
        <time>2022-08-19T17:24:11Z</time>
      </trkpt>
      <trkpt lat="42.41112500000007" lon="1.6219269999999992">
        <ele>1813.463</ele>
        <time>2022-08-19T17:24:15Z</time>
      </trkpt>
      <trkpt lat="42.41117500000007" lon="1.6219069999999993">
        <ele>1813.673</ele>
        <time>2022-08-19T17:24:19Z</time>
      </trkpt>
      <trkpt lat="42.41122200000007" lon="1.6218919999999992">
        <ele>1814.114</ele>
        <time>2022-08-19T17:24:24Z</time>
      </trkpt>
      <trkpt lat="42.41127000000007" lon="1.6218409999999992">
        <ele>1814.589</ele>
        <time>2022-08-19T17:24:29Z</time>
      </trkpt>
      <trkpt lat="42.411308000000076" lon="1.6217959999999991">
        <ele>1815.068</ele>
        <time>2022-08-19T17:24:32Z</time>
      </trkpt>
      <trkpt lat="42.411354000000074" lon="1.621763999999999">
        <ele>1815.642</ele>
        <time>2022-08-19T17:24:36Z</time>
      </trkpt>
      <trkpt lat="42.411410000000075" lon="1.621740999999999">
        <ele>1816.126</ele>
        <time>2022-08-19T17:24:40Z</time>
      </trkpt>
      <trkpt lat="42.411460000000076" lon="1.621698999999999">
        <ele>1816.509</ele>
        <time>2022-08-19T17:24:43Z</time>
      </trkpt>
      <trkpt lat="42.41150200000008" lon="1.6216539999999988">
        <ele>1816.897</ele>
        <time>2022-08-19T17:24:47Z</time>
      </trkpt>
      <trkpt lat="42.41154000000008" lon="1.6216089999999987">
        <ele>1817.117</ele>
        <time>2022-08-19T17:24:51Z</time>
      </trkpt>
      <trkpt lat="42.41158200000008" lon="1.6215659999999987">
        <ele>1817.557</ele>
        <time>2022-08-19T17:24:55Z</time>
      </trkpt>
      <trkpt lat="42.41163000000008" lon="1.6215339999999987">
        <ele>1817.987</ele>
        <time>2022-08-19T17:25:00Z</time>
      </trkpt>
      <trkpt lat="42.41167600000008" lon="1.6215089999999988">
        <ele>1818.214</ele>
        <time>2022-08-19T17:25:04Z</time>
      </trkpt>
      <trkpt lat="42.411722000000076" lon="1.6214759999999988">
        <ele>1818.660</ele>
        <time>2022-08-19T17:25:08Z</time>
      </trkpt>
      <trkpt lat="42.41177100000007" lon="1.6214359999999988">
        <ele>1819.790</ele>
        <time>2022-08-19T17:25:13Z</time>
      </trkpt>
      <trkpt lat="42.41181900000007" lon="1.6214009999999988">
        <ele>1820.271</ele>
        <time>2022-08-19T17:25:17Z</time>
      </trkpt>
      <trkpt lat="42.411863000000075" lon="1.6213589999999987">
        <ele>1820.346</ele>
        <time>2022-08-19T17:25:22Z</time>
      </trkpt>
      <trkpt lat="42.41190700000008" lon="1.6213199999999988">
        <ele>1821.226</ele>
        <time>2022-08-19T17:25:29Z</time>
      </trkpt>
      <trkpt lat="42.41194600000008" lon="1.6212779999999987">
        <ele>1822.047</ele>
        <time>2022-08-19T17:25:34Z</time>
      </trkpt>
      <trkpt lat="42.411995000000076" lon="1.6212499999999987">
        <ele>1822.811</ele>
        <time>2022-08-19T17:25:39Z</time>
      </trkpt>
      <trkpt lat="42.41203900000008" lon="1.6212089999999988">
        <ele>1823.609</ele>
        <time>2022-08-19T17:25:44Z</time>
      </trkpt>
      <trkpt lat="42.41208700000008" lon="1.6211859999999987">
        <ele>1824.523</ele>
        <time>2022-08-19T17:25:49Z</time>
      </trkpt>
      <trkpt lat="42.412133000000075" lon="1.6211889999999987">
        <ele>1825.593</ele>
        <time>2022-08-19T17:25:54Z</time>
      </trkpt>
      <trkpt lat="42.41218500000007" lon="1.6211799999999987">
        <ele>1827.573</ele>
        <time>2022-08-19T17:26:01Z</time>
      </trkpt>
      <trkpt lat="42.41222500000007" lon="1.6211459999999986">
        <ele>1828.573</ele>
        <time>2022-08-19T17:26:06Z</time>
      </trkpt>
      <trkpt lat="42.41227200000007" lon="1.6211089999999986">
        <ele>1829.770</ele>
        <time>2022-08-19T17:26:12Z</time>
      </trkpt>
      <trkpt lat="42.41230600000007" lon="1.6210589999999985">
        <ele>1830.886</ele>
        <time>2022-08-19T17:26:17Z</time>
      </trkpt>
      <trkpt lat="42.412344000000076" lon="1.6210249999999984">
        <ele>1831.556</ele>
        <time>2022-08-19T17:26:22Z</time>
      </trkpt>
      <trkpt lat="42.41237700000008" lon="1.6209789999999984">
        <ele>1832.527</ele>
        <time>2022-08-19T17:26:27Z</time>
      </trkpt>
      <trkpt lat="42.412420000000076" lon="1.6209539999999985">
        <ele>1833.692</ele>
        <time>2022-08-19T17:26:32Z</time>
      </trkpt>
      <trkpt lat="42.41245300000008" lon="1.6209079999999985">
        <ele>1834.487</ele>
        <time>2022-08-19T17:26:37Z</time>
      </trkpt>
      <trkpt lat="42.412488000000074" lon="1.6208669999999985">
        <ele>1835.442</ele>
        <time>2022-08-19T17:26:42Z</time>
      </trkpt>
      <trkpt lat="42.41253400000007" lon="1.6208499999999986">
        <ele>1836.226</ele>
        <time>2022-08-19T17:26:47Z</time>
      </trkpt>
      <trkpt lat="42.41257100000007" lon="1.6208129999999985">
        <ele>1837.009</ele>
        <time>2022-08-19T17:26:52Z</time>
      </trkpt>
      <trkpt lat="42.41260800000007" lon="1.6207749999999985">
        <ele>1837.689</ele>
        <time>2022-08-19T17:26:57Z</time>
      </trkpt>
      <trkpt lat="42.41265400000007" lon="1.6207819999999986">
        <ele>1838.179</ele>
        <time>2022-08-19T17:27:01Z</time>
      </trkpt>
      <trkpt lat="42.41270700000007" lon="1.6208319999999987">
        <ele>1838.359</ele>
        <time>2022-08-19T17:27:03Z</time>
      </trkpt>
      <trkpt lat="42.41275200000007" lon="1.6208659999999988">
        <ele>1839.129</ele>
        <time>2022-08-19T17:27:06Z</time>
      </trkpt>
      <trkpt lat="42.41276600000007" lon="1.6207989999999988">
        <ele>1841.066</ele>
        <time>2022-08-19T17:27:13Z</time>
      </trkpt>
      <trkpt lat="42.41281000000007" lon="1.6207599999999989">
        <ele>1841.722</ele>
        <time>2022-08-19T17:27:19Z</time>
      </trkpt>
      <trkpt lat="42.41284200000007" lon="1.6207009999999988">
        <ele>1842.712</ele>
        <time>2022-08-19T17:27:25Z</time>
      </trkpt>
      <trkpt lat="42.41287300000007" lon="1.620642999999999">
        <ele>1843.633</ele>
        <time>2022-08-19T17:27:31Z</time>
      </trkpt>
      <trkpt lat="42.41292600000007" lon="1.620676999999999">
        <ele>1844.358</ele>
        <time>2022-08-19T17:27:35Z</time>
      </trkpt>
      <trkpt lat="42.41296100000007" lon="1.620630999999999">
        <ele>1845.483</ele>
        <time>2022-08-19T17:27:41Z</time>
      </trkpt>
      <trkpt lat="42.412948000000064" lon="1.620568999999999">
        <ele>1846.525</ele>
        <time>2022-08-19T17:27:46Z</time>
      </trkpt>
      <trkpt lat="42.412956000000065" lon="1.620497999999999">
        <ele>1847.717</ele>
        <time>2022-08-19T17:27:52Z</time>
      </trkpt>
      <trkpt lat="42.41295400000006" lon="1.620436999999999">
        <ele>1848.709</ele>
        <time>2022-08-19T17:27:57Z</time>
      </trkpt>
      <trkpt lat="42.413010000000064" lon="1.620449999999999">
        <ele>1849.589</ele>
        <time>2022-08-19T17:28:02Z</time>
      </trkpt>
      <trkpt lat="42.413052000000064" lon="1.6204839999999991">
        <ele>1850.569</ele>
        <time>2022-08-19T17:28:04Z</time>
      </trkpt>
      <trkpt lat="42.41310300000006" lon="1.620484999999999">
        <ele>1851.289</ele>
        <time>2022-08-19T17:28:08Z</time>
      </trkpt>
      <trkpt lat="42.413148000000064" lon="1.620487999999999">
        <ele>1852.889</ele>
        <time>2022-08-19T17:28:13Z</time>
      </trkpt>
      <trkpt lat="42.41320200000006" lon="1.620495999999999">
        <ele>1853.626</ele>
        <time>2022-08-19T17:28:19Z</time>
      </trkpt>
      <trkpt lat="42.41320300000006" lon="1.6204219999999991">
        <ele>1854.422</ele>
        <time>2022-08-19T17:28:25Z</time>
      </trkpt>
      <trkpt lat="42.41321200000006" lon="1.6203439999999991">
        <ele>1854.842</ele>
        <time>2022-08-19T17:28:29Z</time>
      </trkpt>
      <trkpt lat="42.41320700000006" lon="1.620279999999999">
        <ele>1855.233</ele>
        <time>2022-08-19T17:28:33Z</time>
      </trkpt>
      <trkpt lat="42.413191000000054" lon="1.620220999999999">
        <ele>1855.968</ele>
        <time>2022-08-19T17:28:37Z</time>
      </trkpt>
      <trkpt lat="42.413219000000055" lon="1.620163999999999">
        <ele>1857.037</ele>
        <time>2022-08-19T17:28:43Z</time>
      </trkpt>
      <trkpt lat="42.41326200000005" lon="1.620123999999999">
        <ele>1857.649</ele>
        <time>2022-08-19T17:28:49Z</time>
      </trkpt>
      <trkpt lat="42.41327900000005" lon="1.620057999999999">
        <ele>1857.813</ele>
        <time>2022-08-19T17:28:54Z</time>
      </trkpt>
      <trkpt lat="42.41326600000005" lon="1.6199949999999992">
        <ele>1857.809</ele>
        <time>2022-08-19T17:28:56Z</time>
      </trkpt>
      <trkpt lat="42.41331000000005" lon="1.6199659999999991">
        <ele>1858.294</ele>
        <time>2022-08-19T17:29:04Z</time>
      </trkpt>
      <trkpt lat="42.413348000000056" lon="1.619920999999999">
        <ele>1858.534</ele>
        <time>2022-08-19T17:29:10Z</time>
      </trkpt>
      <trkpt lat="42.41336600000005" lon="1.619863999999999">
        <ele>1858.994</ele>
        <time>2022-08-19T17:29:15Z</time>
      </trkpt>
      <trkpt lat="42.413382000000055" lon="1.619804999999999">
        <ele>1860.094</ele>
        <time>2022-08-19T17:29:20Z</time>
      </trkpt>
      <trkpt lat="42.41341200000006" lon="1.619754999999999">
        <ele>1860.541</ele>
        <time>2022-08-19T17:29:25Z</time>
      </trkpt>
      <trkpt lat="42.41345000000006" lon="1.619711999999999">
        <ele>1861.277</ele>
        <time>2022-08-19T17:29:30Z</time>
      </trkpt>
      <trkpt lat="42.41349600000006" lon="1.619681999999999">
        <ele>1862.287</ele>
        <time>2022-08-19T17:29:35Z</time>
      </trkpt>
      <trkpt lat="42.41353300000006" lon="1.619634999999999">
        <ele>1863.328</ele>
        <time>2022-08-19T17:29:41Z</time>
      </trkpt>
      <trkpt lat="42.413534000000055" lon="1.619572999999999">
        <ele>1864.163</ele>
        <time>2022-08-19T17:29:45Z</time>
      </trkpt>
      <trkpt lat="42.413548000000056" lon="1.6195069999999991">
        <ele>1864.433</ele>
        <time>2022-08-19T17:29:50Z</time>
      </trkpt>
      <trkpt lat="42.41355300000006" lon="1.6194169999999992">
        <ele>1864.523</ele>
        <time>2022-08-19T17:29:53Z</time>
      </trkpt>
      <trkpt lat="42.41357700000006" lon="1.6193549999999992">
        <ele>1864.615</ele>
        <time>2022-08-19T17:29:55Z</time>
      </trkpt>
      <trkpt lat="42.41356200000006" lon="1.6192639999999991">
        <ele>1864.209</ele>
        <time>2022-08-19T17:29:57Z</time>
      </trkpt>
      <trkpt lat="42.413581000000065" lon="1.619186999999999">
        <ele>1863.274</ele>
        <time>2022-08-19T17:30:00Z</time>
      </trkpt>
      <trkpt lat="42.413623000000065" lon="1.6191319999999991">
        <ele>1862.564</ele>
        <time>2022-08-19T17:30:03Z</time>
      </trkpt>
      <trkpt lat="42.41366700000007" lon="1.6190879999999992">
        <ele>1862.184</ele>
        <time>2022-08-19T17:30:06Z</time>
      </trkpt>
      <trkpt lat="42.41369700000007" lon="1.6190229999999992">
        <ele>1861.464</ele>
        <time>2022-08-19T17:30:09Z</time>
      </trkpt>
      <trkpt lat="42.41370100000007" lon="1.6189579999999992">
        <ele>1860.361</ele>
        <time>2022-08-19T17:30:12Z</time>
      </trkpt>
      <trkpt lat="42.413730000000065" lon="1.6188839999999993">
        <ele>1859.997</ele>
        <time>2022-08-19T17:30:15Z</time>
      </trkpt>
      <trkpt lat="42.41376500000006" lon="1.6188279999999993">
        <ele>1859.777</ele>
        <time>2022-08-19T17:30:18Z</time>
      </trkpt>
      <trkpt lat="42.41379600000006" lon="1.6187769999999992">
        <ele>1859.528</ele>
        <time>2022-08-19T17:30:22Z</time>
      </trkpt>
      <trkpt lat="42.41382700000006" lon="1.6187099999999992">
        <ele>1859.513</ele>
        <time>2022-08-19T17:30:27Z</time>
      </trkpt>
      <trkpt lat="42.41387000000006" lon="1.6186569999999991">
        <ele>1859.563</ele>
        <time>2022-08-19T17:30:30Z</time>
      </trkpt>
      <trkpt lat="42.41390200000006" lon="1.618608999999999">
        <ele>1859.644</ele>
        <time>2022-08-19T17:30:33Z</time>
      </trkpt>
      <trkpt lat="42.41392400000006" lon="1.618549999999999">
        <ele>1860.018</ele>
        <time>2022-08-19T17:30:38Z</time>
      </trkpt>
      <trkpt lat="42.413942000000056" lon="1.618488999999999">
        <ele>1860.409</ele>
        <time>2022-08-19T17:30:43Z</time>
      </trkpt>
      <trkpt lat="42.413959000000055" lon="1.618426999999999">
        <ele>1861.177</ele>
        <time>2022-08-19T17:30:48Z</time>
      </trkpt>
      <trkpt lat="42.41398000000005" lon="1.618364999999999">
        <ele>1861.417</ele>
        <time>2022-08-19T17:30:53Z</time>
      </trkpt>
      <trkpt lat="42.414007000000055" lon="1.618309999999999">
        <ele>1861.687</ele>
        <time>2022-08-19T17:30:58Z</time>
      </trkpt>
      <trkpt lat="42.41404500000006" lon="1.618273999999999">
        <ele>1861.977</ele>
        <time>2022-08-19T17:31:02Z</time>
      </trkpt>
      <trkpt lat="42.41408700000006" lon="1.618238999999999">
        <ele>1862.114</ele>
        <time>2022-08-19T17:31:06Z</time>
      </trkpt>
      <trkpt lat="42.414119000000056" lon="1.6181819999999991">
        <ele>1862.620</ele>
        <time>2022-08-19T17:31:11Z</time>
      </trkpt>
      <trkpt lat="42.414151000000054" lon="1.618120999999999">
        <ele>1863.260</ele>
        <time>2022-08-19T17:31:16Z</time>
      </trkpt>
      <trkpt lat="42.41418800000005" lon="1.618068999999999">
        <ele>1863.951</ele>
        <time>2022-08-19T17:31:21Z</time>
      </trkpt>
      <trkpt lat="42.41421400000005" lon="1.6180059999999992">
        <ele>1864.646</ele>
        <time>2022-08-19T17:31:26Z</time>
      </trkpt>
      <trkpt lat="42.41425400000005" lon="1.6179589999999993">
        <ele>1865.377</ele>
        <time>2022-08-19T17:31:31Z</time>
      </trkpt>
      <trkpt lat="42.41430100000005" lon="1.6179369999999993">
        <ele>1865.961</ele>
        <time>2022-08-19T17:31:35Z</time>
      </trkpt>
      <trkpt lat="42.41434400000005" lon="1.6179199999999994">
        <ele>1866.327</ele>
        <time>2022-08-19T17:31:38Z</time>
      </trkpt>
      <trkpt lat="42.41438000000005" lon="1.6178799999999993">
        <ele>1867.009</ele>
        <time>2022-08-19T17:31:42Z</time>
      </trkpt>
      <trkpt lat="42.414418000000055" lon="1.6178359999999994">
        <ele>1867.648</ele>
        <time>2022-08-19T17:31:46Z</time>
      </trkpt>
      <trkpt lat="42.41444200000006" lon="1.6177829999999993">
        <ele>1868.438</ele>
        <time>2022-08-19T17:31:50Z</time>
      </trkpt>
      <trkpt lat="42.41446400000006" lon="1.6177119999999994">
        <ele>1869.158</ele>
        <time>2022-08-19T17:31:55Z</time>
      </trkpt>
      <trkpt lat="42.41449200000006" lon="1.6176539999999995">
        <ele>1869.768</ele>
        <time>2022-08-19T17:32:00Z</time>
      </trkpt>
      <trkpt lat="42.41453300000006" lon="1.6176179999999996">
        <ele>1870.375</ele>
        <time>2022-08-19T17:32:05Z</time>
      </trkpt>
      <trkpt lat="42.414566000000065" lon="1.6175659999999996">
        <ele>1870.921</ele>
        <time>2022-08-19T17:32:09Z</time>
      </trkpt>
      <trkpt lat="42.41459300000007" lon="1.6174949999999997">
        <ele>1871.531</ele>
        <time>2022-08-19T17:32:13Z</time>
      </trkpt>
      <trkpt lat="42.41479300000007" lon="1.6174289999999998">
        <ele>1871.742</ele>
        <time>2022-08-19T17:32:15Z</time>
      </trkpt>
      <trkpt lat="42.41483500000007" lon="1.6173949999999997">
        <ele>1872.637</ele>
        <time>2022-08-19T17:32:20Z</time>
      </trkpt>
      <trkpt lat="42.41487100000007" lon="1.6173569999999997">
        <ele>1872.936</ele>
        <time>2022-08-19T17:32:24Z</time>
      </trkpt>
      <trkpt lat="42.41490200000007" lon="1.6173059999999997">
        <ele>1873.117</ele>
        <time>2022-08-19T17:32:29Z</time>
      </trkpt>
      <trkpt lat="42.41492200000007" lon="1.6172489999999997">
        <ele>1873.318</ele>
        <time>2022-08-19T17:32:34Z</time>
      </trkpt>
      <trkpt lat="42.41493900000007" lon="1.6171889999999998">
        <ele>1873.609</ele>
        <time>2022-08-19T17:32:39Z</time>
      </trkpt>
      <trkpt lat="42.414991000000065" lon="1.6171339999999998">
        <ele>1873.854</ele>
        <time>2022-08-19T17:32:43Z</time>
      </trkpt>
      <trkpt lat="42.41501500000007" lon="1.6170699999999998">
        <ele>1874.384</ele>
        <time>2022-08-19T17:32:45Z</time>
      </trkpt>
      <trkpt lat="42.415019000000065" lon="1.6169929999999997">
        <ele>1874.874</ele>
        <time>2022-08-19T17:32:48Z</time>
      </trkpt>
      <trkpt lat="42.41500900000006" lon="1.6169309999999997">
        <ele>1875.444</ele>
        <time>2022-08-19T17:32:52Z</time>
      </trkpt>
      <trkpt lat="42.41496800000006" lon="1.6168959999999997">
        <ele>1876.341</ele>
        <time>2022-08-19T17:32:56Z</time>
      </trkpt>
      <trkpt lat="42.414913000000055" lon="1.6168769999999997">
        <ele>1877.267</ele>
        <time>2022-08-19T17:33:00Z</time>
      </trkpt>
      <trkpt lat="42.414947000000055" lon="1.6168289999999996">
        <ele>1877.857</ele>
        <time>2022-08-19T17:33:04Z</time>
      </trkpt>
      <trkpt lat="42.414986000000056" lon="1.6167899999999997">
        <ele>1878.798</ele>
        <time>2022-08-19T17:33:11Z</time>
      </trkpt>
      <trkpt lat="42.41502200000006" lon="1.6167359999999997">
        <ele>1879.763</ele>
        <time>2022-08-19T17:33:17Z</time>
      </trkpt>
      <trkpt lat="42.41505600000006" lon="1.6166959999999997">
        <ele>1880.925</ele>
        <time>2022-08-19T17:33:22Z</time>
      </trkpt>
      <trkpt lat="42.41507700000005" lon="1.6166369999999997">
        <ele>1881.426</ele>
        <time>2022-08-19T17:33:27Z</time>
      </trkpt>
      <trkpt lat="42.41509800000005" lon="1.6165779999999996">
        <ele>1882.008</ele>
        <time>2022-08-19T17:33:32Z</time>
      </trkpt>
      <trkpt lat="42.41514000000005" lon="1.6165339999999997">
        <ele>1883.309</ele>
        <time>2022-08-19T17:33:38Z</time>
      </trkpt>
      <trkpt lat="42.41516000000005" lon="1.6164779999999996">
        <ele>1884.483</ele>
        <time>2022-08-19T17:33:43Z</time>
      </trkpt>
      <trkpt lat="42.41518300000005" lon="1.6164249999999996">
        <ele>1885.533</ele>
        <time>2022-08-19T17:33:48Z</time>
      </trkpt>
      <trkpt lat="42.41520200000005" lon="1.6163629999999996">
        <ele>1886.533</ele>
        <time>2022-08-19T17:33:53Z</time>
      </trkpt>
      <trkpt lat="42.41521300000005" lon="1.6162939999999995">
        <ele>1887.813</ele>
        <time>2022-08-19T17:33:58Z</time>
      </trkpt>
      <trkpt lat="42.41522500000005" lon="1.6162279999999996">
        <ele>1888.720</ele>
        <time>2022-08-19T17:34:03Z</time>
      </trkpt>
      <trkpt lat="42.415229000000046" lon="1.6161559999999995">
        <ele>1889.586</ele>
        <time>2022-08-19T17:34:08Z</time>
      </trkpt>
      <trkpt lat="42.415238000000045" lon="1.6160919999999994">
        <ele>1890.226</ele>
        <time>2022-08-19T17:34:13Z</time>
      </trkpt>
      <trkpt lat="42.415210000000044" lon="1.6160429999999995">
        <ele>1892.477</ele>
        <time>2022-08-19T17:34:27Z</time>
      </trkpt>
      <trkpt lat="42.415201000000046" lon="1.6159679999999994">
        <ele>1893.132</ele>
        <time>2022-08-19T17:34:32Z</time>
      </trkpt>
      <trkpt lat="42.415184000000046" lon="1.6158969999999995">
        <ele>1893.323</ele>
        <time>2022-08-19T17:34:37Z</time>
      </trkpt>
      <trkpt lat="42.41516600000005" lon="1.6158369999999995">
        <ele>1893.683</ele>
        <time>2022-08-19T17:34:42Z</time>
      </trkpt>
      <trkpt lat="42.41516700000005" lon="1.6157549999999996">
        <ele>1894.011</ele>
        <time>2022-08-19T17:34:45Z</time>
      </trkpt>
      <trkpt lat="42.41520500000005" lon="1.6157149999999996">
        <ele>1895.609</ele>
        <time>2022-08-19T17:34:49Z</time>
      </trkpt>
      <trkpt lat="42.41514800000005" lon="1.6156989999999996">
        <ele>1896.673</ele>
        <time>2022-08-19T17:34:56Z</time>
      </trkpt>
      <trkpt lat="42.415113000000055" lon="1.6156589999999995">
        <ele>1897.533</ele>
        <time>2022-08-19T17:35:02Z</time>
      </trkpt>
      <trkpt lat="42.41511100000005" lon="1.6155899999999994">
        <ele>1899.923</ele>
        <time>2022-08-19T17:35:22Z</time>
      </trkpt>
      <trkpt lat="42.415105000000054" lon="1.6155259999999994">
        <ele>1900.333</ele>
        <time>2022-08-19T17:35:27Z</time>
      </trkpt>
      <trkpt lat="42.415152000000056" lon="1.6155199999999994">
        <ele>1900.820</ele>
        <time>2022-08-19T17:35:31Z</time>
      </trkpt>
      <trkpt lat="42.41519300000006" lon="1.6154919999999995">
        <ele>1901.136</ele>
        <time>2022-08-19T17:35:39Z</time>
      </trkpt>
      <trkpt lat="42.41516300000006" lon="1.6154449999999996">
        <ele>1901.956</ele>
        <time>2022-08-19T17:35:47Z</time>
      </trkpt>
      <trkpt lat="42.415186000000055" lon="1.6153839999999995">
        <ele>1903.527</ele>
        <time>2022-08-19T17:35:51Z</time>
      </trkpt>
      <trkpt lat="42.415231000000055" lon="1.6153819999999994">
        <ele>1904.622</ele>
        <time>2022-08-19T17:36:01Z</time>
      </trkpt>
      <trkpt lat="42.41528100000006" lon="1.6153789999999995">
        <ele>1905.816</ele>
        <time>2022-08-19T17:36:07Z</time>
      </trkpt>
      <trkpt lat="42.415332000000056" lon="1.6153939999999996">
        <ele>1907.076</ele>
        <time>2022-08-19T17:36:13Z</time>
      </trkpt>
      <trkpt lat="42.415386000000055" lon="1.6153929999999996">
        <ele>1908.213</ele>
        <time>2022-08-19T17:36:19Z</time>
      </trkpt>
      <trkpt lat="42.41543600000006" lon="1.6153919999999997">
        <ele>1909.209</ele>
        <time>2022-08-19T17:36:27Z</time>
      </trkpt>
      <trkpt lat="42.415482000000054" lon="1.6153769999999996">
        <ele>1910.262</ele>
        <time>2022-08-19T17:36:32Z</time>
      </trkpt>
      <trkpt lat="42.415510000000054" lon="1.6153029999999997">
        <ele>1910.712</ele>
        <time>2022-08-19T17:36:36Z</time>
      </trkpt>
      <trkpt lat="42.41551200000006" lon="1.6152399999999998">
        <ele>1911.552</ele>
        <time>2022-08-19T17:36:39Z</time>
      </trkpt>
      <trkpt lat="42.415513000000054" lon="1.6151769999999999">
        <ele>1911.872</ele>
        <time>2022-08-19T17:36:43Z</time>
      </trkpt>
      <trkpt lat="42.415546000000056" lon="1.6151259999999998">
        <ele>1912.729</ele>
        <time>2022-08-19T17:36:48Z</time>
      </trkpt>
      <trkpt lat="42.41559300000006" lon="1.615082">
        <ele>1914.595</ele>
        <time>2022-08-19T17:36:54Z</time>
      </trkpt>
      <trkpt lat="42.41562000000006" lon="1.615022">
        <ele>1915.385</ele>
        <time>2022-08-19T17:36:59Z</time>
      </trkpt>
      <trkpt lat="42.415630000000064" lon="1.614956">
        <ele>1916.326</ele>
        <time>2022-08-19T17:37:05Z</time>
      </trkpt>
      <trkpt lat="42.41561100000006" lon="1.614894">
        <ele>1919.031</ele>
        <time>2022-08-19T17:37:21Z</time>
      </trkpt>
      <trkpt lat="42.415610000000065" lon="1.6148230000000001">
        <ele>1920.056</ele>
        <time>2022-08-19T17:37:27Z</time>
      </trkpt>
      <trkpt lat="42.415627000000065" lon="1.6147630000000002">
        <ele>1921.459</ele>
        <time>2022-08-19T17:37:32Z</time>
      </trkpt>
      <trkpt lat="42.415638000000065" lon="1.6147040000000001">
        <ele>1922.014</ele>
        <time>2022-08-19T17:37:37Z</time>
      </trkpt>
      <trkpt lat="42.41567400000007" lon="1.6146500000000001">
        <ele>1922.709</ele>
        <time>2022-08-19T17:37:42Z</time>
      </trkpt>
      <trkpt lat="42.415708000000066" lon="1.614602">
        <ele>1923.946</ele>
        <time>2022-08-19T17:37:47Z</time>
      </trkpt>
      <trkpt lat="42.415751000000064" lon="1.6145550000000002">
        <ele>1925.136</ele>
        <time>2022-08-19T17:37:52Z</time>
      </trkpt>
      <trkpt lat="42.41578800000006" lon="1.6145120000000002">
        <ele>1925.726</ele>
        <time>2022-08-19T17:37:57Z</time>
      </trkpt>
      <trkpt lat="42.41579400000006" lon="1.6144410000000002">
        <ele>1926.436</ele>
        <time>2022-08-19T17:38:03Z</time>
      </trkpt>
      <trkpt lat="42.41583100000006" lon="1.6144030000000003">
        <ele>1927.183</ele>
        <time>2022-08-19T17:38:08Z</time>
      </trkpt>
      <trkpt lat="42.41585900000006" lon="1.6143450000000004">
        <ele>1928.139</ele>
        <time>2022-08-19T17:38:14Z</time>
      </trkpt>
      <trkpt lat="42.41589200000006" lon="1.6143000000000003">
        <ele>1929.079</ele>
        <time>2022-08-19T17:38:19Z</time>
      </trkpt>
      <trkpt lat="42.415936000000066" lon="1.6142640000000004">
        <ele>1929.850</ele>
        <time>2022-08-19T17:38:24Z</time>
      </trkpt>
      <trkpt lat="42.41597200000007" lon="1.6143270000000003">
        <ele>1932.245</ele>
        <time>2022-08-19T17:38:44Z</time>
      </trkpt>
      <trkpt lat="42.41592300000007" lon="1.6143200000000002">
        <ele>1932.777</ele>
        <time>2022-08-19T17:38:51Z</time>
      </trkpt>
      <trkpt lat="42.41596700000007" lon="1.6143040000000002">
        <ele>1932.861</ele>
        <time>2022-08-19T17:38:58Z</time>
      </trkpt>
      <trkpt lat="42.41598500000007" lon="1.6142440000000002">
        <ele>1934.227</ele>
        <time>2022-08-19T17:39:06Z</time>
      </trkpt>
      <trkpt lat="42.41600400000007" lon="1.6141830000000001">
        <ele>1934.509</ele>
        <time>2022-08-19T17:39:12Z</time>
      </trkpt>
      <trkpt lat="42.41601800000007" lon="1.614114">
        <ele>1935.188</ele>
        <time>2022-08-19T17:39:17Z</time>
      </trkpt>
      <trkpt lat="42.41599800000007" lon="1.614054">
        <ele>1936.448</ele>
        <time>2022-08-19T17:39:25Z</time>
      </trkpt>
      <trkpt lat="42.416031000000075" lon="1.614009">
        <ele>1938.058</ele>
        <time>2022-08-19T17:39:39Z</time>
      </trkpt>
      <trkpt lat="42.41606100000008" lon="1.613952">
        <ele>1938.958</ele>
        <time>2022-08-19T17:39:46Z</time>
      </trkpt>
      <trkpt lat="42.41610000000008" lon="1.613911">
        <ele>1939.865</ele>
        <time>2022-08-19T17:39:57Z</time>
      </trkpt>
      <trkpt lat="42.41612700000008" lon="1.613861">
        <ele>1941.231</ele>
        <time>2022-08-19T17:40:05Z</time>
      </trkpt>
      <trkpt lat="42.41614300000008" lon="1.613801">
        <ele>1942.751</ele>
        <time>2022-08-19T17:40:13Z</time>
      </trkpt>
      <trkpt lat="42.416123000000084" lon="1.613742">
        <ele>1944.522</ele>
        <time>2022-08-19T17:40:21Z</time>
      </trkpt>
      <trkpt lat="42.41610500000009" lon="1.613679">
        <ele>1945.617</ele>
        <time>2022-08-19T17:40:27Z</time>
      </trkpt>
      <trkpt lat="42.416103000000085" lon="1.61361">
        <ele>1946.828</ele>
        <time>2022-08-19T17:40:33Z</time>
      </trkpt>
      <trkpt lat="42.41615500000008" lon="1.613608">
        <ele>1947.989</ele>
        <time>2022-08-19T17:40:36Z</time>
      </trkpt>
      <trkpt lat="42.416202000000084" lon="1.613603">
        <ele>1949.317</ele>
        <time>2022-08-19T17:40:48Z</time>
      </trkpt>
      <trkpt lat="42.41624800000008" lon="1.6136089999999998">
        <ele>1952.509</ele>
        <time>2022-08-19T17:41:06Z</time>
      </trkpt>
      <trkpt lat="42.416261000000084" lon="1.6135499999999998">
        <ele>1953.483</ele>
        <time>2022-08-19T17:41:11Z</time>
      </trkpt>
      <trkpt lat="42.41629900000009" lon="1.6135159999999997">
        <ele>1954.563</ele>
        <time>2022-08-19T17:41:19Z</time>
      </trkpt>
      <trkpt lat="42.41626000000009" lon="1.6134709999999997">
        <ele>1956.243</ele>
        <time>2022-08-19T17:41:27Z</time>
      </trkpt>
      <trkpt lat="42.416218000000086" lon="1.6134289999999996">
        <ele>1957.343</ele>
        <time>2022-08-19T17:41:33Z</time>
      </trkpt>
      <trkpt lat="42.416241000000085" lon="1.6133659999999996">
        <ele>1958.780</ele>
        <time>2022-08-19T17:41:36Z</time>
      </trkpt>
      <trkpt lat="42.41627400000009" lon="1.6133179999999996">
        <ele>1959.766</ele>
        <time>2022-08-19T17:41:41Z</time>
      </trkpt>
      <trkpt lat="42.41628500000009" lon="1.6132559999999996">
        <ele>1961.086</ele>
        <time>2022-08-19T17:41:47Z</time>
      </trkpt>
      <trkpt lat="42.416322000000086" lon="1.6132139999999995">
        <ele>1962.427</ele>
        <time>2022-08-19T17:41:53Z</time>
      </trkpt>
      <trkpt lat="42.41636600000009" lon="1.6131879999999994">
        <ele>1964.922</ele>
        <time>2022-08-19T17:42:09Z</time>
      </trkpt>
      <trkpt lat="42.41640900000009" lon="1.6131659999999994">
        <ele>1965.762</ele>
        <time>2022-08-19T17:42:15Z</time>
      </trkpt>
      <trkpt lat="42.41638500000008" lon="1.6131129999999994">
        <ele>1966.883</ele>
        <time>2022-08-19T17:42:21Z</time>
      </trkpt>
      <trkpt lat="42.41634100000008" lon="1.6130809999999993">
        <ele>1968.011</ele>
        <time>2022-08-19T17:42:25Z</time>
      </trkpt>
      <trkpt lat="42.41635000000008" lon="1.6130139999999993">
        <ele>1970.309</ele>
        <time>2022-08-19T17:42:32Z</time>
      </trkpt>
      <trkpt lat="42.41638400000008" lon="1.6129709999999993">
        <ele>1970.537</ele>
        <time>2022-08-19T17:42:37Z</time>
      </trkpt>
      <trkpt lat="42.41641800000008" lon="1.6129219999999993">
        <ele>1971.357</ele>
        <time>2022-08-19T17:42:44Z</time>
      </trkpt>
      <trkpt lat="42.41645700000008" lon="1.6128869999999993">
        <ele>1972.367</ele>
        <time>2022-08-19T17:42:51Z</time>
      </trkpt>
      <trkpt lat="42.41641100000008" lon="1.6128889999999994">
        <ele>1973.987</ele>
        <time>2022-08-19T17:43:08Z</time>
      </trkpt>
      <trkpt lat="42.41637300000008" lon="1.6128529999999994">
        <ele>1975.814</ele>
        <time>2022-08-19T17:43:20Z</time>
      </trkpt>
      <trkpt lat="42.41657900000008" lon="1.6127599999999995">
        <ele>1976.130</ele>
        <time>2022-08-19T17:43:24Z</time>
      </trkpt>
      <trkpt lat="42.41661000000008" lon="1.6127009999999995">
        <ele>1978.610</ele>
        <time>2022-08-19T17:43:29Z</time>
      </trkpt>
      <trkpt lat="42.416653000000075" lon="1.6126699999999996">
        <ele>1979.161</ele>
        <time>2022-08-19T17:43:34Z</time>
      </trkpt>
      <trkpt lat="42.41664100000008" lon="1.6126029999999996">
        <ele>1979.246</ele>
        <time>2022-08-19T17:43:36Z</time>
      </trkpt>
      <trkpt lat="42.416628000000074" lon="1.6125399999999996">
        <ele>1979.428</ele>
        <time>2022-08-19T17:43:39Z</time>
      </trkpt>
      <trkpt lat="42.41665500000008" lon="1.6124889999999996">
        <ele>1979.989</ele>
        <time>2022-08-19T17:43:46Z</time>
      </trkpt>
      <trkpt lat="42.416706000000076" lon="1.6124969999999996">
        <ele>1980.917</ele>
        <time>2022-08-19T17:43:55Z</time>
      </trkpt>
      <trkpt lat="42.416749000000074" lon="1.6124679999999996">
        <ele>1982.209</ele>
        <time>2022-08-19T17:44:02Z</time>
      </trkpt>
      <trkpt lat="42.41675200000007" lon="1.6124049999999996">
        <ele>1982.993</ele>
        <time>2022-08-19T17:44:14Z</time>
      </trkpt>
      <trkpt lat="42.41673600000007" lon="1.6123479999999997">
        <ele>1983.373</ele>
        <time>2022-08-19T17:44:19Z</time>
      </trkpt>
      <trkpt lat="42.41672400000007" lon="1.6122779999999997">
        <ele>1985.273</ele>
        <time>2022-08-19T17:44:34Z</time>
      </trkpt>
      <trkpt lat="42.41677300000007" lon="1.6122859999999997">
        <ele>1987.153</ele>
        <time>2022-08-19T17:44:57Z</time>
      </trkpt>
      <trkpt lat="42.41682400000007" lon="1.6122569999999996">
        <ele>1987.570</ele>
        <time>2022-08-19T17:45:07Z</time>
      </trkpt>
      <trkpt lat="42.41707100000007" lon="1.6121839999999996">
        <ele>1987.666</ele>
        <time>2022-08-19T17:45:12Z</time>
      </trkpt>
      <trkpt lat="42.417008000000074" lon="1.6121599999999996">
        <ele>1989.636</ele>
        <time>2022-08-19T17:45:15Z</time>
      </trkpt>
      <trkpt lat="42.416982000000075" lon="1.6120949999999996">
        <ele>1990.267</ele>
        <time>2022-08-19T17:45:23Z</time>
      </trkpt>
      <trkpt lat="42.416962000000076" lon="1.6120309999999995">
        <ele>1991.182</ele>
        <time>2022-08-19T17:45:29Z</time>
      </trkpt>
      <trkpt lat="42.41691400000008" lon="1.6120149999999995">
        <ele>1991.375</ele>
        <time>2022-08-19T17:45:33Z</time>
      </trkpt>
      <trkpt lat="42.416884000000074" lon="1.6119679999999996">
        <ele>1991.628</ele>
        <time>2022-08-19T17:45:38Z</time>
      </trkpt>
      <trkpt lat="42.416909000000075" lon="1.6119129999999997">
        <ele>1991.920</ele>
        <time>2022-08-19T17:45:41Z</time>
      </trkpt>
      <trkpt lat="42.416923000000075" lon="1.6118519999999996">
        <ele>1992.609</ele>
        <time>2022-08-19T17:45:46Z</time>
      </trkpt>
      <trkpt lat="42.41692500000008" lon="1.6117859999999997">
        <ele>1993.328</ele>
        <time>2022-08-19T17:45:53Z</time>
      </trkpt>
      <trkpt lat="42.416946000000074" lon="1.6117309999999998">
        <ele>1994.578</ele>
        <time>2022-08-19T17:46:02Z</time>
      </trkpt>
      <trkpt lat="42.41698300000007" lon="1.6116819999999998">
        <ele>1995.848</ele>
        <time>2022-08-19T17:46:10Z</time>
      </trkpt>
      <trkpt lat="42.41696700000007" lon="1.6116199999999998">
        <ele>1996.678</ele>
        <time>2022-08-19T17:46:14Z</time>
      </trkpt>
      <trkpt lat="42.41695700000007" lon="1.6115599999999999">
        <ele>1997.345</ele>
        <time>2022-08-19T17:46:18Z</time>
      </trkpt>
      <trkpt lat="42.41697300000007" lon="1.6114959999999998">
        <ele>1997.621</ele>
        <time>2022-08-19T17:46:24Z</time>
      </trkpt>
      <trkpt lat="42.41699200000007" lon="1.6114319999999998">
        <ele>1998.171</ele>
        <time>2022-08-19T17:46:30Z</time>
      </trkpt>
      <trkpt lat="42.41701700000007" lon="1.6113729999999997">
        <ele>1998.852</ele>
        <time>2022-08-19T17:46:36Z</time>
      </trkpt>
      <trkpt lat="42.41699300000007" lon="1.6113199999999996">
        <ele>1999.057</ele>
        <time>2022-08-19T17:46:41Z</time>
      </trkpt>
      <trkpt lat="42.416969000000066" lon="1.6112549999999997">
        <ele>1999.553</ele>
        <time>2022-08-19T17:46:47Z</time>
      </trkpt>
      <trkpt lat="42.41694300000007" lon="1.6111959999999996">
        <ele>2000.104</ele>
        <time>2022-08-19T17:46:53Z</time>
      </trkpt>
      <trkpt lat="42.416921000000066" lon="1.6111359999999997">
        <ele>2000.514</ele>
        <time>2022-08-19T17:46:57Z</time>
      </trkpt>
      <trkpt lat="42.41695100000007" lon="1.6110749999999996">
        <ele>2001.009</ele>
        <time>2022-08-19T17:47:01Z</time>
      </trkpt>
      <trkpt lat="42.41692500000007" lon="1.6110209999999996">
        <ele>2001.626</ele>
        <time>2022-08-19T17:47:07Z</time>
      </trkpt>
      <trkpt lat="42.41689000000007" lon="1.6109669999999996">
        <ele>2002.556</ele>
        <time>2022-08-19T17:47:13Z</time>
      </trkpt>
      <trkpt lat="42.41692100000007" lon="1.6109079999999996">
        <ele>2002.926</ele>
        <time>2022-08-19T17:47:15Z</time>
      </trkpt>
      <trkpt lat="42.416954000000075" lon="1.6108529999999996">
        <ele>2003.626</ele>
        <time>2022-08-19T17:47:19Z</time>
      </trkpt>
      <trkpt lat="42.416937000000075" lon="1.6107929999999997">
        <ele>2004.363</ele>
        <time>2022-08-19T17:47:24Z</time>
      </trkpt>
      <trkpt lat="42.41693000000008" lon="1.6107239999999996">
        <ele>2005.229</ele>
        <time>2022-08-19T17:47:30Z</time>
      </trkpt>
      <trkpt lat="42.41694400000008" lon="1.6106569999999996">
        <ele>2005.979</ele>
        <time>2022-08-19T17:47:36Z</time>
      </trkpt>
      <trkpt lat="42.41698600000008" lon="1.6106319999999996">
        <ele>2006.010</ele>
        <time>2022-08-19T17:47:38Z</time>
      </trkpt>
      <trkpt lat="42.41702200000008" lon="1.6105939999999996">
        <ele>2006.185</ele>
        <time>2022-08-19T17:47:41Z</time>
      </trkpt>
      <trkpt lat="42.41707300000008" lon="1.6106079999999996">
        <ele>2007.547</ele>
        <time>2022-08-19T17:47:53Z</time>
      </trkpt>
      <trkpt lat="42.41710900000008" lon="1.6105579999999995">
        <ele>2008.429</ele>
        <time>2022-08-19T17:47:59Z</time>
      </trkpt>
      <trkpt lat="42.41713500000008" lon="1.6104999999999996">
        <ele>2009.021</ele>
        <time>2022-08-19T17:48:04Z</time>
      </trkpt>
      <trkpt lat="42.41717300000008" lon="1.6104509999999996">
        <ele>2009.709</ele>
        <time>2022-08-19T17:48:10Z</time>
      </trkpt>
      <trkpt lat="42.417206000000085" lon="1.6104069999999997">
        <ele>2010.485</ele>
        <time>2022-08-19T17:48:15Z</time>
      </trkpt>
      <trkpt lat="42.417243000000084" lon="1.6103559999999997">
        <ele>2011.425</ele>
        <time>2022-08-19T17:48:21Z</time>
      </trkpt>
      <trkpt lat="42.41726100000008" lon="1.6102959999999997">
        <ele>2012.285</ele>
        <time>2022-08-19T17:48:25Z</time>
      </trkpt>
      <trkpt lat="42.417254000000085" lon="1.6102349999999996">
        <ele>2012.785</ele>
        <time>2022-08-19T17:48:27Z</time>
      </trkpt>
      <trkpt lat="42.41722200000009" lon="1.6101889999999996">
        <ele>2013.482</ele>
        <time>2022-08-19T17:48:30Z</time>
      </trkpt>
      <trkpt lat="42.417200000000086" lon="1.6101259999999997">
        <ele>2014.988</ele>
        <time>2022-08-19T17:48:35Z</time>
      </trkpt>
      <trkpt lat="42.417184000000084" lon="1.6100579999999998">
        <ele>2015.668</ele>
        <time>2022-08-19T17:48:41Z</time>
      </trkpt>
      <trkpt lat="42.41715900000008" lon="1.6099989999999997">
        <ele>2016.329</ele>
        <time>2022-08-19T17:48:47Z</time>
      </trkpt>
      <trkpt lat="42.417127000000086" lon="1.6099449999999997">
        <ele>2016.954</ele>
        <time>2022-08-19T17:48:53Z</time>
      </trkpt>
      <trkpt lat="42.417142000000084" lon="1.6098809999999997">
        <ele>2017.048</ele>
        <time>2022-08-19T17:48:56Z</time>
      </trkpt>
      <trkpt lat="42.41711400000008" lon="1.6098289999999997">
        <ele>2017.261</ele>
        <time>2022-08-19T17:49:03Z</time>
      </trkpt>
      <trkpt lat="42.41707000000008" lon="1.6098159999999997">
        <ele>2017.417</ele>
        <time>2022-08-19T17:49:09Z</time>
      </trkpt>
      <trkpt lat="42.41710200000008" lon="1.6097689999999998">
        <ele>2017.609</ele>
        <time>2022-08-19T17:49:12Z</time>
      </trkpt>
      <trkpt lat="42.41712600000008" lon="1.6097089999999998">
        <ele>2018.345</ele>
        <time>2022-08-19T17:49:28Z</time>
      </trkpt>
      <trkpt lat="42.41713300000008" lon="1.6096399999999997">
        <ele>2019.035</ele>
        <time>2022-08-19T17:49:34Z</time>
      </trkpt>
      <trkpt lat="42.417145000000076" lon="1.6095739999999998">
        <ele>2019.785</ele>
        <time>2022-08-19T17:49:40Z</time>
      </trkpt>
      <trkpt lat="42.417193000000076" lon="1.6095879999999998">
        <ele>2020.975</ele>
        <time>2022-08-19T17:49:47Z</time>
      </trkpt>
      <trkpt lat="42.417235000000076" lon="1.6096259999999998">
        <ele>2021.762</ele>
        <time>2022-08-19T17:49:52Z</time>
      </trkpt>
      <trkpt lat="42.41728200000008" lon="1.6095919999999997">
        <ele>2022.648</ele>
        <time>2022-08-19T17:49:59Z</time>
      </trkpt>
      <trkpt lat="42.41732600000008" lon="1.6095539999999997">
        <ele>2024.668</ele>
        <time>2022-08-19T17:50:11Z</time>
      </trkpt>
      <trkpt lat="42.41729000000008" lon="1.6094979999999997">
        <ele>2026.519</ele>
        <time>2022-08-19T17:50:31Z</time>
      </trkpt>
      <trkpt lat="42.41732400000008" lon="1.6094539999999997">
        <ele>2027.174</ele>
        <time>2022-08-19T17:50:42Z</time>
      </trkpt>
      <trkpt lat="42.41737400000008" lon="1.6094349999999997">
        <ele>2027.334</ele>
        <time>2022-08-19T17:50:48Z</time>
      </trkpt>
      <trkpt lat="42.41743600000008" lon="1.6094299999999997">
        <ele>2027.555</ele>
        <time>2022-08-19T17:50:54Z</time>
      </trkpt>
      <trkpt lat="42.41747800000008" lon="1.6094539999999997">
        <ele>2028.310</ele>
        <time>2022-08-19T17:50:58Z</time>
      </trkpt>
      <trkpt lat="42.41747900000008" lon="1.6093929999999996">
        <ele>2029.409</ele>
        <time>2022-08-19T17:51:08Z</time>
      </trkpt>
      <trkpt lat="42.417483000000075" lon="1.6093309999999996">
        <ele>2030.274</ele>
        <time>2022-08-19T17:51:15Z</time>
      </trkpt>
      <trkpt lat="42.417509000000074" lon="1.6092749999999996">
        <ele>2031.534</ele>
        <time>2022-08-19T17:51:22Z</time>
      </trkpt>
      <trkpt lat="42.41755700000007" lon="1.6092589999999996">
        <ele>2032.544</ele>
        <time>2022-08-19T17:51:30Z</time>
      </trkpt>
      <trkpt lat="42.417573000000075" lon="1.6091939999999996">
        <ele>2033.764</ele>
        <time>2022-08-19T17:51:38Z</time>
      </trkpt>
      <trkpt lat="42.41757400000007" lon="1.6091289999999996">
        <ele>2036.941</ele>
        <time>2022-08-19T17:52:06Z</time>
      </trkpt>
      <trkpt lat="42.417604000000075" lon="1.6090759999999995">
        <ele>2038.127</ele>
        <time>2022-08-19T17:52:21Z</time>
      </trkpt>
      <trkpt lat="42.41765100000008" lon="1.6090449999999996">
        <ele>2039.457</ele>
        <time>2022-08-19T17:52:26Z</time>
      </trkpt>
      <trkpt lat="42.41769600000008" lon="1.6090629999999997">
        <ele>2041.778</ele>
        <time>2022-08-19T17:52:32Z</time>
      </trkpt>
      <trkpt lat="42.417719000000076" lon="1.6090089999999997">
        <ele>2044.153</ele>
        <time>2022-08-19T17:52:51Z</time>
      </trkpt>
      <trkpt lat="42.41775400000007" lon="1.6089579999999997">
        <ele>2045.735</ele>
        <time>2022-08-19T17:52:57Z</time>
      </trkpt>
      <trkpt lat="42.41780300000007" lon="1.6089479999999996">
        <ele>2046.086</ele>
        <time>2022-08-19T17:53:03Z</time>
      </trkpt>
      <trkpt lat="42.41784200000007" lon="1.6089149999999997">
        <ele>2046.214</ele>
        <time>2022-08-19T17:53:10Z</time>
      </trkpt>
      <trkpt lat="42.41787600000007" lon="1.6088649999999995">
        <ele>2047.109</ele>
        <time>2022-08-19T17:53:16Z</time>
      </trkpt>
      <trkpt lat="42.41792000000007" lon="1.6088359999999995">
        <ele>2049.424</ele>
        <time>2022-08-19T17:53:23Z</time>
      </trkpt>
      <trkpt lat="42.417939000000075" lon="1.6087789999999995">
        <ele>2050.524</ele>
        <time>2022-08-19T17:53:30Z</time>
      </trkpt>
      <trkpt lat="42.41793500000008" lon="1.6087129999999996">
        <ele>2051.744</ele>
        <time>2022-08-19T17:53:36Z</time>
      </trkpt>
      <trkpt lat="42.41793500000008" lon="1.6086449999999997">
        <ele>2053.474</ele>
        <time>2022-08-19T17:53:46Z</time>
      </trkpt>
      <trkpt lat="42.41797100000008" lon="1.6085969999999996">
        <ele>2055.451</ele>
        <time>2022-08-19T17:53:58Z</time>
      </trkpt>
      <trkpt lat="42.41800800000008" lon="1.6085409999999996">
        <ele>2056.487</ele>
        <time>2022-08-19T17:54:04Z</time>
      </trkpt>
      <trkpt lat="42.41799900000008" lon="1.6084769999999995">
        <ele>2057.497</ele>
        <time>2022-08-19T17:54:09Z</time>
      </trkpt>
      <trkpt lat="42.41795100000008" lon="1.6084659999999995">
        <ele>2058.768</ele>
        <time>2022-08-19T17:54:14Z</time>
      </trkpt>
      <trkpt lat="42.41792200000008" lon="1.6084029999999996">
        <ele>2059.753</ele>
        <time>2022-08-19T17:54:21Z</time>
      </trkpt>
      <trkpt lat="42.41795000000008" lon="1.6083469999999995">
        <ele>2060.727</ele>
        <time>2022-08-19T17:54:26Z</time>
      </trkpt>
      <trkpt lat="42.417991000000086" lon="1.6083149999999995">
        <ele>2061.768</ele>
        <time>2022-08-19T17:54:32Z</time>
      </trkpt>
      <trkpt lat="42.41802600000008" lon="1.6083539999999994">
        <ele>2062.514</ele>
        <time>2022-08-19T17:54:37Z</time>
      </trkpt>
      <trkpt lat="42.41806800000008" lon="1.6083099999999995">
        <ele>2063.209</ele>
        <time>2022-08-19T17:54:43Z</time>
      </trkpt>
      <trkpt lat="42.41809400000008" lon="1.6082499999999995">
        <ele>2064.253</ele>
        <time>2022-08-19T17:54:49Z</time>
      </trkpt>
      <trkpt lat="42.418121000000085" lon="1.6081979999999996">
        <ele>2065.073</ele>
        <time>2022-08-19T17:54:56Z</time>
      </trkpt>
      <trkpt lat="42.418140000000086" lon="1.6081369999999995">
        <ele>2065.983</ele>
        <time>2022-08-19T17:55:02Z</time>
      </trkpt>
      <trkpt lat="42.41815800000008" lon="1.6080739999999996">
        <ele>2066.923</ele>
        <time>2022-08-19T17:55:08Z</time>
      </trkpt>
      <trkpt lat="42.418177000000085" lon="1.6080119999999996">
        <ele>2068.070</ele>
        <time>2022-08-19T17:55:14Z</time>
      </trkpt>
      <trkpt lat="42.41822300000008" lon="1.6080089999999996">
        <ele>2068.836</ele>
        <time>2022-08-19T17:55:19Z</time>
      </trkpt>
      <trkpt lat="42.41826300000008" lon="1.6079719999999995">
        <ele>2070.446</ele>
        <time>2022-08-19T17:55:28Z</time>
      </trkpt>
      <trkpt lat="42.418301000000085" lon="1.6079329999999996">
        <ele>2071.677</ele>
        <time>2022-08-19T17:55:34Z</time>
      </trkpt>
      <trkpt lat="42.41832500000009" lon="1.6078759999999996">
        <ele>2073.012</ele>
        <time>2022-08-19T17:55:40Z</time>
      </trkpt>
      <trkpt lat="42.41836900000009" lon="1.6078579999999996">
        <ele>2074.075</ele>
        <time>2022-08-19T17:55:46Z</time>
      </trkpt>
      <trkpt lat="42.41840900000009" lon="1.6078099999999995">
        <ele>2077.428</ele>
        <time>2022-08-19T17:56:20Z</time>
      </trkpt>
      <trkpt lat="42.41845100000009" lon="1.6077769999999996">
        <ele>2077.620</ele>
        <time>2022-08-19T17:56:26Z</time>
      </trkpt>
      <trkpt lat="42.41849000000009" lon="1.6077379999999997">
        <ele>2077.609</ele>
        <time>2022-08-19T17:56:32Z</time>
      </trkpt>
      <trkpt lat="42.41852000000009" lon="1.6076879999999996">
        <ele>2077.738</ele>
        <time>2022-08-19T17:56:44Z</time>
      </trkpt>
      <trkpt lat="42.41856900000009" lon="1.6076659999999996">
        <ele>2078.638</ele>
        <time>2022-08-19T17:56:51Z</time>
      </trkpt>
      <trkpt lat="42.41861300000009" lon="1.6076459999999997">
        <ele>2082.488</ele>
        <time>2022-08-19T17:56:57Z</time>
      </trkpt>
      <trkpt lat="42.41865300000009" lon="1.6076089999999996">
        <ele>2083.558</ele>
        <time>2022-08-19T17:57:04Z</time>
      </trkpt>
      <trkpt lat="42.41865100000009" lon="1.6075399999999995">
        <ele>2085.145</ele>
        <time>2022-08-19T17:57:11Z</time>
      </trkpt>
      <trkpt lat="42.418655000000086" lon="1.6074789999999994">
        <ele>2086.031</ele>
        <time>2022-08-19T17:57:16Z</time>
      </trkpt>
      <trkpt lat="42.41869400000009" lon="1.6074409999999995">
        <ele>2087.281</ele>
        <time>2022-08-19T17:57:24Z</time>
      </trkpt>
      <trkpt lat="42.41871000000009" lon="1.6073829999999996">
        <ele>2088.272</ele>
        <time>2022-08-19T17:57:30Z</time>
      </trkpt>
      <trkpt lat="42.41875400000009" lon="1.6073599999999995">
        <ele>2089.287</ele>
        <time>2022-08-19T17:57:38Z</time>
      </trkpt>
      <trkpt lat="42.41879900000009" lon="1.6073329999999995">
        <ele>2090.452</ele>
        <time>2022-08-19T17:57:47Z</time>
      </trkpt>
      <trkpt lat="42.41882000000009" lon="1.6072749999999996">
        <ele>2092.653</ele>
        <time>2022-08-19T17:58:02Z</time>
      </trkpt>
      <trkpt lat="42.41880300000009" lon="1.6072119999999996">
        <ele>2093.508</ele>
        <time>2022-08-19T17:58:08Z</time>
      </trkpt>
      <trkpt lat="42.41885000000009" lon="1.6071849999999996">
        <ele>2094.809</ele>
        <time>2022-08-19T17:58:18Z</time>
      </trkpt>
      <trkpt lat="42.418888000000095" lon="1.6071509999999996">
        <ele>2095.876</ele>
        <time>2022-08-19T17:58:26Z</time>
      </trkpt>
      <trkpt lat="42.41893400000009" lon="1.6071219999999995">
        <ele>2097.316</ele>
        <time>2022-08-19T17:58:33Z</time>
      </trkpt>
      <trkpt lat="42.418981000000095" lon="1.6071369999999996">
        <ele>2098.656</ele>
        <time>2022-08-19T17:58:41Z</time>
      </trkpt>
      <trkpt lat="42.419018000000094" lon="1.6070959999999996">
        <ele>2099.426</ele>
        <time>2022-08-19T17:58:46Z</time>
      </trkpt>
      <trkpt lat="42.41905500000009" lon="1.6070569999999997">
        <ele>2100.393</ele>
        <time>2022-08-19T17:58:52Z</time>
      </trkpt>
      <trkpt lat="42.41910000000009" lon="1.6070309999999997">
        <ele>2102.289</ele>
        <time>2022-08-19T17:59:00Z</time>
      </trkpt>
      <trkpt lat="42.419144000000095" lon="1.6069999999999998">
        <ele>2103.589</ele>
        <time>2022-08-19T17:59:09Z</time>
      </trkpt>
      <trkpt lat="42.419181000000094" lon="1.6069549999999997">
        <ele>2104.950</ele>
        <time>2022-08-19T17:59:17Z</time>
      </trkpt>
      <trkpt lat="42.41922700000009" lon="1.6069469999999997">
        <ele>2106.135</ele>
        <time>2022-08-19T17:59:25Z</time>
      </trkpt>
      <trkpt lat="42.41918800000009" lon="1.6069019999999996">
        <ele>2108.625</ele>
        <time>2022-08-19T17:59:43Z</time>
      </trkpt>
      <trkpt lat="42.41916100000009" lon="1.6068489999999995">
        <ele>2109.926</ele>
        <time>2022-08-19T17:59:49Z</time>
      </trkpt>
      <trkpt lat="42.41922000000009" lon="1.6068289999999996">
        <ele>2110.008</ele>
        <time>2022-08-19T17:59:53Z</time>
      </trkpt>
      <trkpt lat="42.41926800000009" lon="1.6068329999999995">
        <ele>2110.209</ele>
        <time>2022-08-19T17:59:56Z</time>
      </trkpt>
      <trkpt lat="42.419314000000085" lon="1.6068009999999995">
        <ele>2111.793</ele>
        <time>2022-08-19T18:00:00Z</time>
      </trkpt>
      <trkpt lat="42.419356000000086" lon="1.6067779999999994">
        <ele>2113.283</ele>
        <time>2022-08-19T18:00:06Z</time>
      </trkpt>
      <trkpt lat="42.41938000000009" lon="1.6067199999999995">
        <ele>2117.433</ele>
        <time>2022-08-19T18:00:37Z</time>
      </trkpt>
      <trkpt lat="42.41942600000009" lon="1.6066829999999994">
        <ele>2117.563</ele>
        <time>2022-08-19T18:00:44Z</time>
      </trkpt>
      <trkpt lat="42.41946400000009" lon="1.6066349999999994">
        <ele>2117.540</ele>
        <time>2022-08-19T18:00:51Z</time>
      </trkpt>
      <trkpt lat="42.41947100000009" lon="1.6065699999999994">
        <ele>2118.656</ele>
        <time>2022-08-19T18:00:56Z</time>
      </trkpt>
      <trkpt lat="42.41952100000009" lon="1.6065749999999994">
        <ele>2120.016</ele>
        <time>2022-08-19T18:01:01Z</time>
      </trkpt>
      <trkpt lat="42.41956600000009" lon="1.6065539999999994">
        <ele>2120.577</ele>
        <time>2022-08-19T18:01:06Z</time>
      </trkpt>
      <trkpt lat="42.419615000000086" lon="1.6065419999999995">
        <ele>2121.542</ele>
        <time>2022-08-19T18:01:12Z</time>
      </trkpt>
      <trkpt lat="42.419663000000085" lon="1.6065379999999996">
        <ele>2122.458</ele>
        <time>2022-08-19T18:01:18Z</time>
      </trkpt>
      <trkpt lat="42.41971000000009" lon="1.6065279999999995">
        <ele>2123.252</ele>
        <time>2022-08-19T18:01:24Z</time>
      </trkpt>
      <trkpt lat="42.41975700000009" lon="1.6065199999999995">
        <ele>2123.917</ele>
        <time>2022-08-19T18:01:30Z</time>
      </trkpt>
      <trkpt lat="42.41980300000009" lon="1.6065099999999994">
        <ele>2124.709</ele>
        <time>2022-08-19T18:01:36Z</time>
      </trkpt>
      <trkpt lat="42.41981900000009" lon="1.6064499999999995">
        <ele>2125.376</ele>
        <time>2022-08-19T18:01:40Z</time>
      </trkpt>
      <trkpt lat="42.41982700000009" lon="1.6063849999999995">
        <ele>2126.286</ele>
        <time>2022-08-19T18:01:47Z</time>
      </trkpt>
      <trkpt lat="42.41986800000009" lon="1.6063519999999996">
        <ele>2127.326</ele>
        <time>2022-08-19T18:01:54Z</time>
      </trkpt>
      <trkpt lat="42.419921000000095" lon="1.6063569999999996">
        <ele>2128.846</ele>
        <time>2022-08-19T18:02:01Z</time>
      </trkpt>
      <trkpt lat="42.41997000000009" lon="1.6063509999999996">
        <ele>2129.933</ele>
        <time>2022-08-19T18:02:11Z</time>
      </trkpt>
      <trkpt lat="42.42002000000009" lon="1.6063329999999996">
        <ele>2131.139</ele>
        <time>2022-08-19T18:02:20Z</time>
      </trkpt>
      <trkpt lat="42.420067000000095" lon="1.6063209999999997">
        <ele>2132.079</ele>
        <time>2022-08-19T18:02:26Z</time>
      </trkpt>
      <trkpt lat="42.4201140000001" lon="1.6063119999999997">
        <ele>2132.680</ele>
        <time>2022-08-19T18:02:32Z</time>
      </trkpt>
      <trkpt lat="42.420160000000095" lon="1.6062949999999998">
        <ele>2133.325</ele>
        <time>2022-08-19T18:02:38Z</time>
      </trkpt>
      <trkpt lat="42.4202070000001" lon="1.6062849999999997">
        <ele>2134.149</ele>
        <time>2022-08-19T18:02:44Z</time>
      </trkpt>
      <trkpt lat="42.4202480000001" lon="1.6062409999999998">
        <ele>2135.602</ele>
        <time>2022-08-19T18:02:50Z</time>
      </trkpt>
      <trkpt lat="42.4202830000001" lon="1.6061809999999999">
        <ele>2136.422</ele>
        <time>2022-08-19T18:02:55Z</time>
      </trkpt>
      <trkpt lat="42.4203280000001" lon="1.60615">
        <ele>2137.509</ele>
        <time>2022-08-19T18:03:00Z</time>
      </trkpt>
      <trkpt lat="42.420371000000095" lon="1.606117">
        <ele>2138.255</ele>
        <time>2022-08-19T18:03:06Z</time>
      </trkpt>
      <trkpt lat="42.42041700000009" lon="1.606092">
        <ele>2139.555</ele>
        <time>2022-08-19T18:03:14Z</time>
      </trkpt>
      <trkpt lat="42.42046300000009" lon="1.606068">
        <ele>2141.255</ele>
        <time>2022-08-19T18:03:31Z</time>
      </trkpt>
      <trkpt lat="42.42049000000009" lon="1.606017">
        <ele>2142.595</ele>
        <time>2022-08-19T18:03:52Z</time>
      </trkpt>
      <trkpt lat="42.420537000000095" lon="1.606015">
        <ele>2143.362</ele>
        <time>2022-08-19T18:04:02Z</time>
      </trkpt>
      <trkpt lat="42.4205870000001" lon="1.605994">
        <ele>2143.558</ele>
        <time>2022-08-19T18:04:09Z</time>
      </trkpt>
      <trkpt lat="42.420622000000094" lon="1.60595">
        <ele>2143.668</ele>
        <time>2022-08-19T18:04:15Z</time>
      </trkpt>
      <trkpt lat="42.4206630000001" lon="1.605912">
        <ele>2143.739</ele>
        <time>2022-08-19T18:04:21Z</time>
      </trkpt>
      <trkpt lat="42.4207100000001" lon="1.605885">
        <ele>2146.424</ele>
        <time>2022-08-19T18:04:27Z</time>
      </trkpt>
      <trkpt lat="42.4207460000001" lon="1.605839">
        <ele>2147.683</ele>
        <time>2022-08-19T18:04:33Z</time>
      </trkpt>
      <trkpt lat="42.4207890000001" lon="1.605803">
        <ele>2148.925</ele>
        <time>2022-08-19T18:04:39Z</time>
      </trkpt>
      <trkpt lat="42.420841000000095" lon="1.6057940000000002">
        <ele>2150.117</ele>
        <time>2022-08-19T18:04:45Z</time>
      </trkpt>
      <trkpt lat="42.4208880000001" lon="1.6057850000000002">
        <ele>2151.009</ele>
        <time>2022-08-19T18:04:51Z</time>
      </trkpt>
      <trkpt lat="42.4209350000001" lon="1.6057770000000002">
        <ele>2151.889</ele>
        <time>2022-08-19T18:04:57Z</time>
      </trkpt>
      <trkpt lat="42.420911000000096" lon="1.6057010000000003">
        <ele>2155.779</ele>
        <time>2022-08-19T18:05:31Z</time>
      </trkpt>
      <trkpt lat="42.42091500000009" lon="1.6056370000000002">
        <ele>2155.839</ele>
        <time>2022-08-19T18:05:35Z</time>
      </trkpt>
      <trkpt lat="42.420923000000094" lon="1.6055660000000003">
        <ele>2155.989</ele>
        <time>2022-08-19T18:05:43Z</time>
      </trkpt>
      <trkpt lat="42.42094600000009" lon="1.6055110000000004">
        <ele>2155.936</ele>
        <time>2022-08-19T18:05:48Z</time>
      </trkpt>
      <trkpt lat="42.420990000000096" lon="1.6054970000000004">
        <ele>2157.832</ele>
        <time>2022-08-19T18:05:54Z</time>
      </trkpt>
      <trkpt lat="42.4210370000001" lon="1.6054590000000004">
        <ele>2158.532</ele>
        <time>2022-08-19T18:06:03Z</time>
      </trkpt>
      <trkpt lat="42.4210850000001" lon="1.6054520000000003">
        <ele>2158.653</ele>
        <time>2022-08-19T18:06:10Z</time>
      </trkpt>
      <trkpt lat="42.4211320000001" lon="1.6054210000000004">
        <ele>2158.988</ele>
        <time>2022-08-19T18:06:17Z</time>
      </trkpt>
      <trkpt lat="42.4211620000001" lon="1.6053690000000005">
        <ele>2160.051</ele>
        <time>2022-08-19T18:06:23Z</time>
      </trkpt>
      <trkpt lat="42.4212130000001" lon="1.6053370000000005">
        <ele>2160.801</ele>
        <time>2022-08-19T18:06:29Z</time>
      </trkpt>
      <trkpt lat="42.4212590000001" lon="1.6053150000000005">
        <ele>2161.611</ele>
        <time>2022-08-19T18:06:33Z</time>
      </trkpt>
      <trkpt lat="42.4213070000001" lon="1.6053070000000005">
        <ele>2162.209</ele>
        <time>2022-08-19T18:06:39Z</time>
      </trkpt>
      <trkpt lat="42.4213370000001" lon="1.6052580000000005">
        <ele>2162.766</ele>
        <time>2022-08-19T18:06:44Z</time>
      </trkpt>
      <trkpt lat="42.4213710000001" lon="1.6052150000000005">
        <ele>2163.826</ele>
        <time>2022-08-19T18:06:51Z</time>
      </trkpt>
      <trkpt lat="42.4214190000001" lon="1.6052080000000004">
        <ele>2164.876</ele>
        <time>2022-08-19T18:06:58Z</time>
      </trkpt>
      <trkpt lat="42.4214630000001" lon="1.6051750000000005">
        <ele>2165.896</ele>
        <time>2022-08-19T18:07:03Z</time>
      </trkpt>
      <trkpt lat="42.421507000000105" lon="1.6051480000000005">
        <ele>2166.233</ele>
        <time>2022-08-19T18:07:08Z</time>
      </trkpt>
      <trkpt lat="42.421552000000105" lon="1.6051240000000004">
        <ele>2166.519</ele>
        <time>2022-08-19T18:07:14Z</time>
      </trkpt>
      <trkpt lat="42.42159600000011" lon="1.6051010000000003">
        <ele>2167.089</ele>
        <time>2022-08-19T18:07:20Z</time>
      </trkpt>
      <trkpt lat="42.42164300000011" lon="1.6050920000000004">
        <ele>2167.720</ele>
        <time>2022-08-19T18:07:26Z</time>
      </trkpt>
      <trkpt lat="42.42168400000011" lon="1.6050500000000003">
        <ele>2168.615</ele>
        <time>2022-08-19T18:07:32Z</time>
      </trkpt>
      <trkpt lat="42.42171300000011" lon="1.6049980000000004">
        <ele>2169.587</ele>
        <time>2022-08-19T18:07:37Z</time>
      </trkpt>
      <trkpt lat="42.42176200000011" lon="1.6050110000000004">
        <ele>2170.642</ele>
        <time>2022-08-19T18:07:46Z</time>
      </trkpt>
      <trkpt lat="42.42181300000011" lon="1.6049970000000005">
        <ele>2171.426</ele>
        <time>2022-08-19T18:07:53Z</time>
      </trkpt>
      <trkpt lat="42.421859000000104" lon="1.6049960000000005">
        <ele>2172.609</ele>
        <time>2022-08-19T18:07:59Z</time>
      </trkpt>
      <trkpt lat="42.4219050000001" lon="1.6049860000000005">
        <ele>2173.759</ele>
        <time>2022-08-19T18:08:05Z</time>
      </trkpt>
      <trkpt lat="42.4219450000001" lon="1.6049520000000004">
        <ele>2174.169</ele>
        <time>2022-08-19T18:08:10Z</time>
      </trkpt>
      <trkpt lat="42.4219400000001" lon="1.6048810000000004">
        <ele>2175.089</ele>
        <time>2022-08-19T18:08:15Z</time>
      </trkpt>
      <trkpt lat="42.4219550000001" lon="1.6048160000000005">
        <ele>2175.939</ele>
        <time>2022-08-19T18:08:20Z</time>
      </trkpt>
      <trkpt lat="42.422003000000096" lon="1.6048220000000004">
        <ele>2177.046</ele>
        <time>2022-08-19T18:08:33Z</time>
      </trkpt>
      <trkpt lat="42.422043000000095" lon="1.6047820000000004">
        <ele>2178.082</ele>
        <time>2022-08-19T18:08:40Z</time>
      </trkpt>
      <trkpt lat="42.42208300000009" lon="1.6047460000000004">
        <ele>2179.672</ele>
        <time>2022-08-19T18:08:55Z</time>
      </trkpt>
      <trkpt lat="42.422130000000095" lon="1.6047240000000005">
        <ele>2180.463</ele>
        <time>2022-08-19T18:09:00Z</time>
      </trkpt>
      <trkpt lat="42.42217600000009" lon="1.6046970000000005">
        <ele>2180.718</ele>
        <time>2022-08-19T18:09:06Z</time>
      </trkpt>
      <trkpt lat="42.422217000000096" lon="1.6046680000000004">
        <ele>2180.833</ele>
        <time>2022-08-19T18:09:11Z</time>
      </trkpt>
      <trkpt lat="42.4222360000001" lon="1.6046110000000005">
        <ele>2180.823</ele>
        <time>2022-08-19T18:09:15Z</time>
      </trkpt>
      <trkpt lat="42.4222410000001" lon="1.6045500000000004">
        <ele>2181.115</ele>
        <time>2022-08-19T18:09:20Z</time>
      </trkpt>
      <trkpt lat="42.4222420000001" lon="1.6044820000000004">
        <ele>2182.409</ele>
        <time>2022-08-19T18:09:26Z</time>
      </trkpt>
      <trkpt lat="42.4222390000001" lon="1.6044160000000005">
        <ele>2183.074</ele>
        <time>2022-08-19T18:09:32Z</time>
      </trkpt>
      <trkpt lat="42.422257000000094" lon="1.6043570000000005">
        <ele>2183.784</ele>
        <time>2022-08-19T18:09:38Z</time>
      </trkpt>
      <trkpt lat="42.422288000000094" lon="1.6043110000000005">
        <ele>2184.224</ele>
        <time>2022-08-19T18:09:43Z</time>
      </trkpt>
      <trkpt lat="42.422319000000094" lon="1.6042650000000005">
        <ele>2184.264</ele>
        <time>2022-08-19T18:09:48Z</time>
      </trkpt>
      <trkpt lat="42.422350000000094" lon="1.6042190000000005">
        <ele>2184.241</ele>
        <time>2022-08-19T18:09:53Z</time>
      </trkpt>
      <trkpt lat="42.422383000000096" lon="1.6041550000000004">
        <ele>2184.517</ele>
        <time>2022-08-19T18:09:57Z</time>
      </trkpt>
      <trkpt lat="42.422426000000094" lon="1.6040900000000005">
        <ele>2184.627</ele>
        <time>2022-08-19T18:10:01Z</time>
      </trkpt>
      <trkpt lat="42.42246300000009" lon="1.6040470000000004">
        <ele>2184.878</ele>
        <time>2022-08-19T18:10:05Z</time>
      </trkpt>
      <trkpt lat="42.422496000000095" lon="1.6039840000000005">
        <ele>2184.983</ele>
        <time>2022-08-19T18:10:08Z</time>
      </trkpt>
      <trkpt lat="42.4224950000001" lon="1.6039120000000004">
        <ele>2184.981</ele>
        <time>2022-08-19T18:10:11Z</time>
      </trkpt>
      <trkpt lat="42.4224880000001" lon="1.6038510000000004">
        <ele>2185.261</ele>
        <time>2022-08-19T18:10:15Z</time>
      </trkpt>
      <trkpt lat="42.4224960000001" lon="1.6037830000000004">
        <ele>2185.417</ele>
        <time>2022-08-19T18:10:21Z</time>
      </trkpt>
      <trkpt lat="42.4225020000001" lon="1.6037190000000003">
        <ele>2185.609</ele>
        <time>2022-08-19T18:10:27Z</time>
      </trkpt>
      <trkpt lat="42.4225200000001" lon="1.6036580000000002">
        <ele>2185.829</ele>
        <time>2022-08-19T18:10:33Z</time>
      </trkpt>
      <trkpt lat="42.4225510000001" lon="1.6036110000000003">
        <ele>2185.919</ele>
        <time>2022-08-19T18:10:38Z</time>
      </trkpt>
      <trkpt lat="42.4226020000001" lon="1.6035350000000004">
        <ele>2186.589</ele>
        <time>2022-08-19T18:11:12Z</time>
      </trkpt>
      <trkpt lat="42.4226330000001" lon="1.6034760000000003">
        <ele>2186.569</ele>
        <time>2022-08-19T18:11:14Z</time>
      </trkpt>
      <trkpt lat="42.422682000000094" lon="1.6034600000000003">
        <ele>2186.516</ele>
        <time>2022-08-19T18:11:17Z</time>
      </trkpt>
      <trkpt lat="42.42273100000009" lon="1.6034270000000004">
        <ele>2186.552</ele>
        <time>2022-08-19T18:11:21Z</time>
      </trkpt>
      <trkpt lat="42.42277400000009" lon="1.6034010000000003">
        <ele>2186.642</ele>
        <time>2022-08-19T18:11:26Z</time>
      </trkpt>
      <trkpt lat="42.42280100000009" lon="1.6033420000000003">
        <ele>2187.283</ele>
        <time>2022-08-19T18:11:31Z</time>
      </trkpt>
      <trkpt lat="42.42279500000009" lon="1.6032730000000002">
        <ele>2187.228</ele>
        <time>2022-08-19T18:11:38Z</time>
      </trkpt>
      <trkpt lat="42.4228330000001" lon="1.6032290000000002">
        <ele>2187.547</ele>
        <time>2022-08-19T18:11:58Z</time>
      </trkpt>
      <trkpt lat="42.4228800000001" lon="1.6032030000000002">
        <ele>2187.529</ele>
        <time>2022-08-19T18:12:04Z</time>
      </trkpt>
      <trkpt lat="42.422881000000096" lon="1.6031400000000002">
        <ele>2187.521</ele>
        <time>2022-08-19T18:12:06Z</time>
      </trkpt>
      <trkpt lat="42.4229050000001" lon="1.6030860000000002">
        <ele>2186.809</ele>
        <time>2022-08-19T18:12:40Z</time>
      </trkpt>
      <trkpt lat="42.4229150000001" lon="1.6030170000000001">
        <ele>2186.815</ele>
        <time>2022-08-19T18:12:46Z</time>
      </trkpt>
      <trkpt lat="42.4229470000001" lon="1.6029710000000001">
        <ele>2186.865</ele>
        <time>2022-08-19T18:12:52Z</time>
      </trkpt>
      <trkpt lat="42.4229960000001" lon="1.6029350000000002">
        <ele>2186.845</ele>
        <time>2022-08-19T18:12:57Z</time>
      </trkpt>
      <trkpt lat="42.4230350000001" lon="1.6028950000000002">
        <ele>2186.835</ele>
        <time>2022-08-19T18:13:00Z</time>
      </trkpt>
      <trkpt lat="42.4230800000001" lon="1.602872">
        <ele>2187.332</ele>
        <time>2022-08-19T18:13:04Z</time>
      </trkpt>
      <trkpt lat="42.423126000000096" lon="1.6028660000000001">
        <ele>2188.498</ele>
        <time>2022-08-19T18:13:09Z</time>
      </trkpt>
      <trkpt lat="42.423081000000096" lon="1.6028410000000002">
        <ele>2189.228</ele>
        <time>2022-08-19T18:13:15Z</time>
      </trkpt>
      <trkpt lat="42.42304000000009" lon="1.6028100000000003">
        <ele>2190.479</ele>
        <time>2022-08-19T18:13:21Z</time>
      </trkpt>
      <trkpt lat="42.423062000000094" lon="1.6027550000000004">
        <ele>2190.934</ele>
        <time>2022-08-19T18:13:26Z</time>
      </trkpt>
      <trkpt lat="42.423090000000094" lon="1.6027010000000004">
        <ele>2191.265</ele>
        <time>2022-08-19T18:13:27Z</time>
      </trkpt>
      <trkpt lat="42.42313300000009" lon="1.6026380000000005">
        <ele>2191.868</ele>
        <time>2022-08-19T18:13:29Z</time>
      </trkpt>
      <trkpt lat="42.423180000000094" lon="1.6026240000000005">
        <ele>2192.314</ele>
        <time>2022-08-19T18:13:31Z</time>
      </trkpt>
      <trkpt lat="42.42322600000009" lon="1.6026230000000006">
        <ele>2193.109</ele>
        <time>2022-08-19T18:13:37Z</time>
      </trkpt>
      <trkpt lat="42.42327100000009" lon="1.6026170000000006">
        <ele>2193.827</ele>
        <time>2022-08-19T18:13:43Z</time>
      </trkpt>
      <trkpt lat="42.423309000000096" lon="1.6025770000000006">
        <ele>2194.257</ele>
        <time>2022-08-19T18:13:48Z</time>
      </trkpt>
      <trkpt lat="42.423352000000094" lon="1.6025450000000006">
        <ele>2194.777</ele>
        <time>2022-08-19T18:13:55Z</time>
      </trkpt>
      <trkpt lat="42.42340000000009" lon="1.6025360000000006">
        <ele>2195.137</ele>
        <time>2022-08-19T18:14:00Z</time>
      </trkpt>
      <trkpt lat="42.42344800000009" lon="1.6025350000000007">
        <ele>2195.474</ele>
        <time>2022-08-19T18:14:06Z</time>
      </trkpt>
      <trkpt lat="42.42344800000009" lon="1.6024710000000006">
        <ele>2196.250</ele>
        <time>2022-08-19T18:14:12Z</time>
      </trkpt>
      <trkpt lat="42.42344600000009" lon="1.6024000000000007">
        <ele>2196.590</ele>
        <time>2022-08-19T18:14:18Z</time>
      </trkpt>
      <trkpt lat="42.42344600000009" lon="1.6023360000000006">
        <ele>2197.061</ele>
        <time>2022-08-19T18:14:24Z</time>
      </trkpt>
      <trkpt lat="42.42347800000009" lon="1.6022780000000008">
        <ele>2197.686</ele>
        <time>2022-08-19T18:14:30Z</time>
      </trkpt>
      <trkpt lat="42.42354900000009" lon="1.6022960000000008">
        <ele>2197.967</ele>
        <time>2022-08-19T18:14:32Z</time>
      </trkpt>
      <trkpt lat="42.42359400000009" lon="1.6023000000000007">
        <ele>2198.981</ele>
        <time>2022-08-19T18:14:35Z</time>
      </trkpt>
      <trkpt lat="42.42361000000009" lon="1.6023630000000006">
        <ele>2200.619</ele>
        <time>2022-08-19T18:14:44Z</time>
      </trkpt>
      <trkpt lat="42.42360700000009" lon="1.6024320000000007">
        <ele>2202.209</ele>
        <time>2022-08-19T18:14:52Z</time>
      </trkpt>
      <trkpt lat="42.42364300000009" lon="1.6023920000000007">
        <ele>2203.447</ele>
        <time>2022-08-19T18:14:59Z</time>
      </trkpt>
      <trkpt lat="42.42366800000009" lon="1.6023270000000007">
        <ele>2204.197</ele>
        <time>2022-08-19T18:15:05Z</time>
      </trkpt>
      <trkpt lat="42.423681000000094" lon="1.6022650000000007">
        <ele>2204.967</ele>
        <time>2022-08-19T18:15:10Z</time>
      </trkpt>
      <trkpt lat="42.423681000000094" lon="1.6021830000000008">
        <ele>2205.627</ele>
        <time>2022-08-19T18:15:13Z</time>
      </trkpt>
      <trkpt lat="42.4236970000001" lon="1.6021240000000008">
        <ele>2206.164</ele>
        <time>2022-08-19T18:15:16Z</time>
      </trkpt>
      <trkpt lat="42.423726000000094" lon="1.6020760000000007">
        <ele>2206.760</ele>
        <time>2022-08-19T18:15:20Z</time>
      </trkpt>
      <trkpt lat="42.42375800000009" lon="1.6020210000000008">
        <ele>2207.750</ele>
        <time>2022-08-19T18:15:26Z</time>
      </trkpt>
      <trkpt lat="42.42379800000009" lon="1.6019880000000009">
        <ele>2208.131</ele>
        <time>2022-08-19T18:15:36Z</time>
      </trkpt>
      <trkpt lat="42.42384600000009" lon="1.6019770000000009">
        <ele>2208.066</ele>
        <time>2022-08-19T18:15:43Z</time>
      </trkpt>
      <trkpt lat="42.42387800000009" lon="1.6019290000000008">
        <ele>2208.471</ele>
        <time>2022-08-19T18:16:02Z</time>
      </trkpt>
      <trkpt lat="42.42391400000009" lon="1.6018920000000008">
        <ele>2208.541</ele>
        <time>2022-08-19T18:16:05Z</time>
      </trkpt>
      <trkpt lat="42.42396200000009" lon="1.6018840000000008">
        <ele>2208.715</ele>
        <time>2022-08-19T18:16:10Z</time>
      </trkpt>
      <trkpt lat="42.42397600000009" lon="1.6018100000000008">
        <ele>2208.809</ele>
        <time>2022-08-19T18:16:14Z</time>
      </trkpt>
      <trkpt lat="42.42400200000009" lon="1.6017540000000008">
        <ele>2209.338</ele>
        <time>2022-08-19T18:16:19Z</time>
      </trkpt>
      <trkpt lat="42.424039000000086" lon="1.6017030000000008">
        <ele>2211.238</ele>
        <time>2022-08-19T18:16:25Z</time>
      </trkpt>
      <trkpt lat="42.42406100000009" lon="1.6016470000000007">
        <ele>2212.038</ele>
        <time>2022-08-19T18:16:31Z</time>
      </trkpt>
      <trkpt lat="42.424087000000085" lon="1.6015890000000008">
        <ele>2213.528</ele>
        <time>2022-08-19T18:16:40Z</time>
      </trkpt>
      <trkpt lat="42.424104000000085" lon="1.601531000000001">
        <ele>2214.555</ele>
        <time>2022-08-19T18:16:46Z</time>
      </trkpt>
      <trkpt lat="42.42413300000008" lon="1.6014750000000009">
        <ele>2215.571</ele>
        <time>2022-08-19T18:16:52Z</time>
      </trkpt>
      <trkpt lat="42.42419500000008" lon="1.601472000000001">
        <ele>2216.631</ele>
        <time>2022-08-19T18:16:57Z</time>
      </trkpt>
      <trkpt lat="42.42424400000008" lon="1.6014700000000008">
        <ele>2217.452</ele>
        <time>2022-08-19T18:17:01Z</time>
      </trkpt>
      <trkpt lat="42.42429000000008" lon="1.601469000000001">
        <ele>2218.327</ele>
        <time>2022-08-19T18:17:05Z</time>
      </trkpt>
      <trkpt lat="42.42430600000008" lon="1.6014020000000009">
        <ele>2219.858</ele>
        <time>2022-08-19T18:17:12Z</time>
      </trkpt>
      <trkpt lat="42.42435100000008" lon="1.601377000000001">
        <ele>2220.852</ele>
        <time>2022-08-19T18:17:22Z</time>
      </trkpt>
      <trkpt lat="42.42438500000008" lon="1.601330000000001">
        <ele>2224.317</ele>
        <time>2022-08-19T18:18:01Z</time>
      </trkpt>
      <trkpt lat="42.42440200000008" lon="1.6012720000000011">
        <ele>2224.409</ele>
        <time>2022-08-19T18:18:09Z</time>
      </trkpt>
      <trkpt lat="42.42445600000008" lon="1.6012580000000012">
        <ele>2224.526</ele>
        <time>2022-08-19T18:18:16Z</time>
      </trkpt>
      <trkpt lat="42.42450300000008" lon="1.6012290000000011">
        <ele>2224.586</ele>
        <time>2022-08-19T18:18:21Z</time>
      </trkpt>
      <trkpt lat="42.42454000000008" lon="1.601186000000001">
        <ele>2226.996</ele>
        <time>2022-08-19T18:18:27Z</time>
      </trkpt>
      <trkpt lat="42.42457100000008" lon="1.601138000000001">
        <ele>2228.076</ele>
        <time>2022-08-19T18:18:33Z</time>
      </trkpt>
      <trkpt lat="42.42458000000008" lon="1.601065000000001">
        <ele>2229.023</ele>
        <time>2022-08-19T18:18:39Z</time>
      </trkpt>
      <trkpt lat="42.42456000000008" lon="1.601001000000001">
        <ele>2229.639</ele>
        <time>2022-08-19T18:18:43Z</time>
      </trkpt>
      <trkpt lat="42.42451400000008" lon="1.601037000000001">
        <ele>2231.519</ele>
        <time>2022-08-19T18:20:11Z</time>
      </trkpt>
      <trkpt lat="42.42453200000008" lon="1.6009760000000008">
        <ele>2231.510</ele>
        <time>2022-08-19T18:20:48Z</time>
      </trkpt>
      <trkpt lat="42.42449800000008" lon="1.6009230000000008">
        <ele>2231.555</ele>
        <time>2022-08-19T18:20:55Z</time>
      </trkpt>
      <trkpt lat="42.42446900000008" lon="1.6008660000000008">
        <ele>2231.532</ele>
        <time>2022-08-19T18:21:02Z</time>
      </trkpt>
      <trkpt lat="42.42444900000008" lon="1.6008090000000008">
        <ele>2231.392</ele>
        <time>2022-08-19T18:21:08Z</time>
      </trkpt>
      <trkpt lat="42.424445000000084" lon="1.6007390000000008">
        <ele>2230.211</ele>
        <time>2022-08-19T18:21:14Z</time>
      </trkpt>
      <trkpt lat="42.42451400000009" lon="1.6006890000000007">
        <ele>2228.809</ele>
        <time>2022-08-19T18:21:16Z</time>
      </trkpt>
      <trkpt lat="42.42456900000009" lon="1.6006300000000007">
        <ele>2227.544</ele>
        <time>2022-08-19T18:21:18Z</time>
      </trkpt>
      <trkpt lat="42.42460400000009" lon="1.6005810000000007">
        <ele>2226.754</ele>
        <time>2022-08-19T18:21:21Z</time>
      </trkpt>
      <trkpt lat="42.424658000000086" lon="1.6005610000000008">
        <ele>2225.574</ele>
        <time>2022-08-19T18:21:29Z</time>
      </trkpt>
      <trkpt lat="42.42462600000009" lon="1.6005040000000008">
        <ele>2223.774</ele>
        <time>2022-08-19T18:21:44Z</time>
      </trkpt>
      <trkpt lat="42.42458700000009" lon="1.6004620000000007">
        <ele>2223.251</ele>
        <time>2022-08-19T18:21:50Z</time>
      </trkpt>
      <trkpt lat="42.42453500000009" lon="1.6004540000000007">
        <ele>2222.767</ele>
        <time>2022-08-19T18:21:55Z</time>
      </trkpt>
      <trkpt lat="42.42456300000009" lon="1.6003660000000006">
        <ele>2218.987</ele>
        <time>2022-08-19T18:22:09Z</time>
      </trkpt>
      <trkpt lat="42.42451200000009" lon="1.6003470000000006">
        <ele>2217.778</ele>
        <time>2022-08-19T18:22:23Z</time>
      </trkpt>
      <trkpt lat="42.424463000000095" lon="1.6003230000000006">
        <ele>2217.263</ele>
        <time>2022-08-19T18:22:27Z</time>
      </trkpt>
      <trkpt lat="42.424404000000095" lon="1.6003340000000006">
        <ele>2216.783</ele>
        <time>2022-08-19T18:22:43Z</time>
      </trkpt>
      <trkpt lat="42.4243580000001" lon="1.6003180000000006">
        <ele>2216.025</ele>
        <time>2022-08-19T18:22:49Z</time>
      </trkpt>
      <trkpt lat="42.424308000000096" lon="1.6002860000000005">
        <ele>2214.817</ele>
        <time>2022-08-19T18:22:53Z</time>
      </trkpt>
      <trkpt lat="42.4242570000001" lon="1.6002680000000005">
        <ele>2214.109</ele>
        <time>2022-08-19T18:22:57Z</time>
      </trkpt>
      <trkpt lat="42.4242220000001" lon="1.6002280000000004">
        <ele>2212.789</ele>
        <time>2022-08-19T18:23:04Z</time>
      </trkpt>
      <trkpt lat="42.4241690000001" lon="1.6002300000000005">
        <ele>2209.359</ele>
        <time>2022-08-19T18:23:17Z</time>
      </trkpt>
      <trkpt lat="42.424128000000096" lon="1.6002000000000005">
        <ele>2206.819</ele>
        <time>2022-08-19T18:23:27Z</time>
      </trkpt>
      <trkpt lat="42.4240760000001" lon="1.6002000000000005">
        <ele>2205.449</ele>
        <time>2022-08-19T18:23:33Z</time>
      </trkpt>
      <trkpt lat="42.4240650000001" lon="1.6001370000000006">
        <ele>2203.256</ele>
        <time>2022-08-19T18:23:45Z</time>
      </trkpt>
      <trkpt lat="42.4240150000001" lon="1.6001010000000007">
        <ele>2200.672</ele>
        <time>2022-08-19T18:23:57Z</time>
      </trkpt>
      <trkpt lat="42.4239660000001" lon="1.6000810000000008">
        <ele>2199.632</ele>
        <time>2022-08-19T18:24:03Z</time>
      </trkpt>
      <trkpt lat="42.4239190000001" lon="1.6000890000000008">
        <ele>2198.783</ele>
        <time>2022-08-19T18:24:07Z</time>
      </trkpt>
      <trkpt lat="42.4239500000001" lon="1.6000300000000007">
        <ele>2196.478</ele>
        <time>2022-08-19T18:24:15Z</time>
      </trkpt>
      <trkpt lat="42.423931000000096" lon="1.5999650000000007">
        <ele>2195.265</ele>
        <time>2022-08-19T18:24:19Z</time>
      </trkpt>
      <trkpt lat="42.423881000000094" lon="1.5999750000000008">
        <ele>2192.968</ele>
        <time>2022-08-19T18:24:26Z</time>
      </trkpt>
      <trkpt lat="42.4238290000001" lon="1.5999840000000007">
        <ele>2192.214</ele>
        <time>2022-08-19T18:24:31Z</time>
      </trkpt>
      <trkpt lat="42.4237800000001" lon="1.5999700000000008">
        <ele>2191.309</ele>
        <time>2022-08-19T18:24:34Z</time>
      </trkpt>
      <trkpt lat="42.4237370000001" lon="1.5999370000000008">
        <ele>2190.777</ele>
        <time>2022-08-19T18:24:37Z</time>
      </trkpt>
      <trkpt lat="42.4236830000001" lon="1.5999400000000008">
        <ele>2190.027</ele>
        <time>2022-08-19T18:24:40Z</time>
      </trkpt>
      <trkpt lat="42.4236300000001" lon="1.599947000000001">
        <ele>2189.387</ele>
        <time>2022-08-19T18:24:44Z</time>
      </trkpt>
      <trkpt lat="42.423578000000106" lon="1.599949000000001">
        <ele>2188.837</ele>
        <time>2022-08-19T18:24:48Z</time>
      </trkpt>
      <trkpt lat="42.42352900000011" lon="1.599986000000001">
        <ele>2187.824</ele>
        <time>2022-08-19T18:24:51Z</time>
      </trkpt>
      <trkpt lat="42.42348600000011" lon="1.599957000000001">
        <ele>2186.470</ele>
        <time>2022-08-19T18:24:56Z</time>
      </trkpt>
      <trkpt lat="42.42345200000011" lon="1.599911000000001">
        <ele>2185.690</ele>
        <time>2022-08-19T18:24:59Z</time>
      </trkpt>
      <trkpt lat="42.42341600000011" lon="1.599857000000001">
        <ele>2184.111</ele>
        <time>2022-08-19T18:25:04Z</time>
      </trkpt>
      <trkpt lat="42.42337700000011" lon="1.599817000000001">
        <ele>2182.886</ele>
        <time>2022-08-19T18:25:09Z</time>
      </trkpt>
      <trkpt lat="42.42331800000011" lon="1.599832000000001">
        <ele>2182.245</ele>
        <time>2022-08-19T18:25:13Z</time>
      </trkpt>
      <trkpt lat="42.42328100000011" lon="1.599789000000001">
        <ele>2180.847</ele>
        <time>2022-08-19T18:25:20Z</time>
      </trkpt>
      <trkpt lat="42.42322900000011" lon="1.5997770000000011">
        <ele>2178.811</ele>
        <time>2022-08-19T18:25:26Z</time>
      </trkpt>
      <trkpt lat="42.423178000000114" lon="1.5997500000000011">
        <ele>2177.909</ele>
        <time>2022-08-19T18:25:32Z</time>
      </trkpt>
      <trkpt lat="42.42312900000012" lon="1.5997040000000011">
        <ele>2175.525</ele>
        <time>2022-08-19T18:25:44Z</time>
      </trkpt>
      <trkpt lat="42.42308000000012" lon="1.599718000000001">
        <ele>2173.965</ele>
        <time>2022-08-19T18:25:50Z</time>
      </trkpt>
      <trkpt lat="42.42304900000012" lon="1.599662000000001">
        <ele>2172.165</ele>
        <time>2022-08-19T18:25:56Z</time>
      </trkpt>
      <trkpt lat="42.42299800000012" lon="1.599635000000001">
        <ele>2170.575</ele>
        <time>2022-08-19T18:26:01Z</time>
      </trkpt>
      <trkpt lat="42.42295800000012" lon="1.599591000000001">
        <ele>2168.992</ele>
        <time>2022-08-19T18:26:05Z</time>
      </trkpt>
      <trkpt lat="42.42291600000012" lon="1.5995580000000011">
        <ele>2167.698</ele>
        <time>2022-08-19T18:26:12Z</time>
      </trkpt>
      <trkpt lat="42.422867000000124" lon="1.5995710000000012">
        <ele>2166.488</ele>
        <time>2022-08-19T18:26:17Z</time>
      </trkpt>
      <trkpt lat="42.422816000000125" lon="1.5995610000000011">
        <ele>2165.119</ele>
        <time>2022-08-19T18:26:22Z</time>
      </trkpt>
      <trkpt lat="42.422799000000126" lon="1.5994930000000012">
        <ele>2162.754</ele>
        <time>2022-08-19T18:26:27Z</time>
      </trkpt>
      <trkpt lat="42.42274400000012" lon="1.5994760000000012">
        <ele>2161.135</ele>
        <time>2022-08-19T18:26:34Z</time>
      </trkpt>
      <trkpt lat="42.42269900000012" lon="1.5994660000000012">
        <ele>2160.686</ele>
        <time>2022-08-19T18:26:37Z</time>
      </trkpt>
      <trkpt lat="42.42265100000012" lon="1.599443000000001">
        <ele>2159.514</ele>
        <time>2022-08-19T18:26:43Z</time>
      </trkpt>
      <trkpt lat="42.42259000000012" lon="1.599429000000001">
        <ele>2158.409</ele>
        <time>2022-08-19T18:26:47Z</time>
      </trkpt>
      <trkpt lat="42.42254800000012" lon="1.599370000000001">
        <ele>2157.324</ele>
        <time>2022-08-19T18:26:51Z</time>
      </trkpt>
      <trkpt lat="42.422510000000116" lon="1.599327000000001">
        <ele>2156.144</ele>
        <time>2022-08-19T18:26:55Z</time>
      </trkpt>
      <trkpt lat="42.422468000000116" lon="1.599300000000001">
        <ele>2155.184</ele>
        <time>2022-08-19T18:26:59Z</time>
      </trkpt>
      <trkpt lat="42.42242400000011" lon="1.599260000000001">
        <ele>2152.584</ele>
        <time>2022-08-19T18:27:08Z</time>
      </trkpt>
      <trkpt lat="42.422370000000114" lon="1.599281000000001">
        <ele>2151.421</ele>
        <time>2022-08-19T18:27:12Z</time>
      </trkpt>
      <trkpt lat="42.42233500000012" lon="1.599222000000001">
        <ele>2150.117</ele>
        <time>2022-08-19T18:27:17Z</time>
      </trkpt>
      <trkpt lat="42.42230400000012" lon="1.599172000000001">
        <ele>2148.977</ele>
        <time>2022-08-19T18:27:21Z</time>
      </trkpt>
      <trkpt lat="42.42225300000012" lon="1.599167000000001">
        <ele>2145.778</ele>
        <time>2022-08-19T18:27:28Z</time>
      </trkpt>
      <trkpt lat="42.42220500000012" lon="1.5991490000000008">
        <ele>2144.333</ele>
        <time>2022-08-19T18:27:32Z</time>
      </trkpt>
      <trkpt lat="42.42216500000012" lon="1.5991060000000008">
        <ele>2142.783</ele>
        <time>2022-08-19T18:27:38Z</time>
      </trkpt>
      <trkpt lat="42.42212000000012" lon="1.5990770000000007">
        <ele>2141.025</ele>
        <time>2022-08-19T18:27:44Z</time>
      </trkpt>
      <trkpt lat="42.42207300000012" lon="1.5990560000000007">
        <ele>2139.417</ele>
        <time>2022-08-19T18:27:50Z</time>
      </trkpt>
      <trkpt lat="42.42202300000012" lon="1.5990310000000008">
        <ele>2137.709</ele>
        <time>2022-08-19T18:27:55Z</time>
      </trkpt>
      <trkpt lat="42.42201600000012" lon="1.5989650000000009">
        <ele>2136.139</ele>
        <time>2022-08-19T18:28:02Z</time>
      </trkpt>
      <trkpt lat="42.42197000000012" lon="1.5989490000000008">
        <ele>2134.669</ele>
        <time>2022-08-19T18:28:07Z</time>
      </trkpt>
      <trkpt lat="42.42192000000012" lon="1.5989460000000009">
        <ele>2133.049</ele>
        <time>2022-08-19T18:28:13Z</time>
      </trkpt>
      <trkpt lat="42.42186000000012" lon="1.5989390000000008">
        <ele>2131.169</ele>
        <time>2022-08-19T18:28:19Z</time>
      </trkpt>
      <trkpt lat="42.42181600000012" lon="1.5989200000000008">
        <ele>2130.266</ele>
        <time>2022-08-19T18:28:22Z</time>
      </trkpt>
      <trkpt lat="42.42176200000012" lon="1.5989090000000008">
        <ele>2128.272</ele>
        <time>2022-08-19T18:28:28Z</time>
      </trkpt>
      <trkpt lat="42.421716000000124" lon="1.5988940000000007">
        <ele>2127.012</ele>
        <time>2022-08-19T18:28:34Z</time>
      </trkpt>
      <trkpt lat="42.42166700000013" lon="1.5988800000000007">
        <ele>2125.373</ele>
        <time>2022-08-19T18:28:40Z</time>
      </trkpt>
      <trkpt lat="42.42161900000013" lon="1.5988900000000008">
        <ele>2124.078</ele>
        <time>2022-08-19T18:28:43Z</time>
      </trkpt>
      <trkpt lat="42.42158200000013" lon="1.5988470000000008">
        <ele>2121.162</ele>
        <time>2022-08-19T18:28:55Z</time>
      </trkpt>
      <trkpt lat="42.42154300000013" lon="1.5988140000000008">
        <ele>2119.683</ele>
        <time>2022-08-19T18:29:01Z</time>
      </trkpt>
      <trkpt lat="42.42150400000013" lon="1.5987760000000009">
        <ele>2116.911</ele>
        <time>2022-08-19T18:29:11Z</time>
      </trkpt>
      <trkpt lat="42.42147200000013" lon="1.5987330000000008">
        <ele>2116.009</ele>
        <time>2022-08-19T18:29:15Z</time>
      </trkpt>
      <trkpt lat="42.42142000000013" lon="1.5987100000000007">
        <ele>2113.467</ele>
        <time>2022-08-19T18:29:22Z</time>
      </trkpt>
      <trkpt lat="42.42137300000013" lon="1.5987040000000008">
        <ele>2111.727</ele>
        <time>2022-08-19T18:29:25Z</time>
      </trkpt>
      <trkpt lat="42.42131800000013" lon="1.5987070000000008">
        <ele>2109.367</ele>
        <time>2022-08-19T18:29:30Z</time>
      </trkpt>
      <trkpt lat="42.421277000000124" lon="1.5986770000000008">
        <ele>2108.197</ele>
        <time>2022-08-19T18:29:36Z</time>
      </trkpt>
      <trkpt lat="42.42123100000013" lon="1.5986870000000009">
        <ele>2107.324</ele>
        <time>2022-08-19T18:29:39Z</time>
      </trkpt>
      <trkpt lat="42.421206000000126" lon="1.5987410000000009">
        <ele>2105.820</ele>
        <time>2022-08-19T18:29:43Z</time>
      </trkpt>
      <trkpt lat="42.42116000000013" lon="1.598737000000001">
        <ele>2104.450</ele>
        <time>2022-08-19T18:29:51Z</time>
      </trkpt>
      <trkpt lat="42.42111700000013" lon="1.598759000000001">
        <ele>2103.621</ele>
        <time>2022-08-19T18:29:55Z</time>
      </trkpt>
      <trkpt lat="42.42106700000013" lon="1.598750000000001">
        <ele>2099.846</ele>
        <time>2022-08-19T18:30:16Z</time>
      </trkpt>
      <trkpt lat="42.42106000000013" lon="1.598810000000001">
        <ele>2098.733</ele>
        <time>2022-08-19T18:30:27Z</time>
      </trkpt>
      <trkpt lat="42.42101300000013" lon="1.598810000000001">
        <ele>2098.123</ele>
        <time>2022-08-19T18:30:36Z</time>
      </trkpt>
      <trkpt lat="42.42096000000013" lon="1.5987650000000009">
        <ele>2096.215</ele>
        <time>2022-08-19T18:30:41Z</time>
      </trkpt>
      <trkpt lat="42.42092700000013" lon="1.5987220000000009">
        <ele>2094.509</ele>
        <time>2022-08-19T18:30:44Z</time>
      </trkpt>
      <trkpt lat="42.420894000000125" lon="1.5987660000000008">
        <ele>2093.564</ele>
        <time>2022-08-19T18:30:47Z</time>
      </trkpt>
      <trkpt lat="42.42083700000013" lon="1.5987920000000009">
        <ele>2092.214</ele>
        <time>2022-08-19T18:30:50Z</time>
      </trkpt>
      <trkpt lat="42.42078600000013" lon="1.5988030000000009">
        <ele>2090.164</ele>
        <time>2022-08-19T18:30:53Z</time>
      </trkpt>
      <trkpt lat="42.42073000000013" lon="1.598802000000001">
        <ele>2086.834</ele>
        <time>2022-08-19T18:31:08Z</time>
      </trkpt>
      <trkpt lat="42.42068500000013" lon="1.5987870000000008">
        <ele>2086.141</ele>
        <time>2022-08-19T18:31:11Z</time>
      </trkpt>
      <trkpt lat="42.420641000000124" lon="1.5987710000000008">
        <ele>2085.787</ele>
        <time>2022-08-19T18:31:14Z</time>
      </trkpt>
      <trkpt lat="42.42059700000012" lon="1.5987580000000008">
        <ele>2084.257</ele>
        <time>2022-08-19T18:31:23Z</time>
      </trkpt>
      <trkpt lat="42.42055600000012" lon="1.5987290000000007">
        <ele>2080.888</ele>
        <time>2022-08-19T18:31:29Z</time>
      </trkpt>
      <trkpt lat="42.420512000000116" lon="1.5987530000000008">
        <ele>2079.773</ele>
        <time>2022-08-19T18:31:38Z</time>
      </trkpt>
      <trkpt lat="42.42046800000011" lon="1.5987700000000007">
        <ele>2079.036</ele>
        <time>2022-08-19T18:31:43Z</time>
      </trkpt>
      <trkpt lat="42.42041600000012" lon="1.5987530000000008">
        <ele>2077.917</ele>
        <time>2022-08-19T18:31:48Z</time>
      </trkpt>
      <trkpt lat="42.42037000000012" lon="1.5987590000000007">
        <ele>2074.418</ele>
        <time>2022-08-19T18:32:00Z</time>
      </trkpt>
      <trkpt lat="42.42032600000012" lon="1.5988010000000008">
        <ele>2072.509</ele>
        <time>2022-08-19T18:32:06Z</time>
      </trkpt>
      <trkpt lat="42.420279000000114" lon="1.5987950000000009">
        <ele>2071.224</ele>
        <time>2022-08-19T18:32:11Z</time>
      </trkpt>
      <trkpt lat="42.420228000000115" lon="1.5988170000000008">
        <ele>2070.184</ele>
        <time>2022-08-19T18:32:17Z</time>
      </trkpt>
      <trkpt lat="42.42017400000012" lon="1.5988330000000008">
        <ele>2069.124</ele>
        <time>2022-08-19T18:32:24Z</time>
      </trkpt>
      <trkpt lat="42.42013600000011" lon="1.5988710000000008">
        <ele>2067.954</ele>
        <time>2022-08-19T18:32:30Z</time>
      </trkpt>
      <trkpt lat="42.420087000000116" lon="1.5988730000000009">
        <ele>2067.131</ele>
        <time>2022-08-19T18:32:36Z</time>
      </trkpt>
      <trkpt lat="42.420096000000115" lon="1.5989330000000008">
        <ele>2066.217</ele>
        <time>2022-08-19T18:32:46Z</time>
      </trkpt>
      <trkpt lat="42.42005000000012" lon="1.5989000000000009">
        <ele>2065.637</ele>
        <time>2022-08-19T18:33:02Z</time>
      </trkpt>
      <trkpt lat="42.419995000000114" lon="1.598897000000001">
        <ele>2065.468</ele>
        <time>2022-08-19T18:33:07Z</time>
      </trkpt>
      <trkpt lat="42.419949000000116" lon="1.5988790000000008">
        <ele>2065.223</ele>
        <time>2022-08-19T18:33:11Z</time>
      </trkpt>
      <trkpt lat="42.419896000000115" lon="1.5988830000000007">
        <ele>2064.847</ele>
        <time>2022-08-19T18:33:14Z</time>
      </trkpt>
      <trkpt lat="42.41984700000012" lon="1.5988890000000007">
        <ele>2061.129</ele>
        <time>2022-08-19T18:33:26Z</time>
      </trkpt>
      <trkpt lat="42.41980700000012" lon="1.5988510000000007">
        <ele>2060.121</ele>
        <time>2022-08-19T18:33:31Z</time>
      </trkpt>
      <trkpt lat="42.41976200000012" lon="1.5988260000000007">
        <ele>2057.209</ele>
        <time>2022-08-19T18:33:42Z</time>
      </trkpt>
      <trkpt lat="42.41976200000012" lon="1.5987620000000007">
        <ele>2053.265</ele>
        <time>2022-08-19T18:33:58Z</time>
      </trkpt>
      <trkpt lat="42.41971600000012" lon="1.5987250000000006">
        <ele>2051.865</ele>
        <time>2022-08-19T18:34:03Z</time>
      </trkpt>
      <trkpt lat="42.419659000000124" lon="1.5987130000000007">
        <ele>2049.525</ele>
        <time>2022-08-19T18:34:10Z</time>
      </trkpt>
      <trkpt lat="42.419613000000126" lon="1.5986860000000007">
        <ele>2047.835</ele>
        <time>2022-08-19T18:34:13Z</time>
      </trkpt>
      <trkpt lat="42.419563000000124" lon="1.5986680000000006">
        <ele>2044.662</ele>
        <time>2022-08-19T18:34:23Z</time>
      </trkpt>
      <trkpt lat="42.41955000000012" lon="1.5986010000000006">
        <ele>2043.138</ele>
        <time>2022-08-19T18:34:30Z</time>
      </trkpt>
      <trkpt lat="42.419574000000125" lon="1.5985400000000005">
        <ele>2042.438</ele>
        <time>2022-08-19T18:34:34Z</time>
      </trkpt>
      <trkpt lat="42.419526000000126" lon="1.5985650000000005">
        <ele>2040.739</ele>
        <time>2022-08-19T18:34:40Z</time>
      </trkpt>
      <trkpt lat="42.41949400000013" lon="1.5985190000000005">
        <ele>2039.224</ele>
        <time>2022-08-19T18:34:47Z</time>
      </trkpt>
      <trkpt lat="42.41951000000013" lon="1.5984610000000006">
        <ele>2036.728</ele>
        <time>2022-08-19T18:34:55Z</time>
      </trkpt>
      <trkpt lat="42.41948700000013" lon="1.5984030000000007">
        <ele>2033.889</ele>
        <time>2022-08-19T18:35:10Z</time>
      </trkpt>
      <trkpt lat="42.419452000000135" lon="1.5984460000000007">
        <ele>2031.817</ele>
        <time>2022-08-19T18:35:24Z</time>
      </trkpt>
      <trkpt lat="42.41939700000013" lon="1.5984630000000006">
        <ele>2025.709</ele>
        <time>2022-08-19T18:35:45Z</time>
      </trkpt>
      <trkpt lat="42.41932500000013" lon="1.5984640000000006">
        <ele>2024.883</ele>
        <time>2022-08-19T18:35:48Z</time>
      </trkpt>
      <trkpt lat="42.419267000000126" lon="1.5984380000000005">
        <ele>2024.273</ele>
        <time>2022-08-19T18:35:50Z</time>
      </trkpt>
      <trkpt lat="42.419208000000125" lon="1.5984360000000004">
        <ele>2022.573</ele>
        <time>2022-08-19T18:35:53Z</time>
      </trkpt>
      <trkpt lat="42.419189000000124" lon="1.5983710000000004">
        <ele>2021.263</ele>
        <time>2022-08-19T18:35:56Z</time>
      </trkpt>
      <trkpt lat="42.41914000000013" lon="1.5983780000000005">
        <ele>2019.720</ele>
        <time>2022-08-19T18:36:01Z</time>
      </trkpt>
      <trkpt lat="42.41910900000013" lon="1.5983200000000006">
        <ele>2018.636</ele>
        <time>2022-08-19T18:36:05Z</time>
      </trkpt>
      <trkpt lat="42.419079000000124" lon="1.5983760000000007">
        <ele>2017.336</ele>
        <time>2022-08-19T18:36:11Z</time>
      </trkpt>
      <trkpt lat="42.41902600000012" lon="1.5983710000000007">
        <ele>2016.827</ele>
        <time>2022-08-19T18:36:14Z</time>
      </trkpt>
      <trkpt lat="42.418994000000126" lon="1.5983160000000007">
        <ele>2016.122</ele>
        <time>2022-08-19T18:36:18Z</time>
      </trkpt>
      <trkpt lat="42.418955000000125" lon="1.5982710000000007">
        <ele>2014.558</ele>
        <time>2022-08-19T18:36:23Z</time>
      </trkpt>
      <trkpt lat="42.41890900000013" lon="1.5982670000000008">
        <ele>2013.752</ele>
        <time>2022-08-19T18:36:26Z</time>
      </trkpt>
      <trkpt lat="42.41885200000013" lon="1.5982380000000007">
        <ele>2009.117</ele>
        <time>2022-08-19T18:36:39Z</time>
      </trkpt>
      <trkpt lat="42.41880700000013" lon="1.5982260000000008">
        <ele>2008.409</ele>
        <time>2022-08-19T18:36:44Z</time>
      </trkpt>
      <trkpt lat="42.41876100000013" lon="1.5982580000000008">
        <ele>2006.286</ele>
        <time>2022-08-19T18:36:55Z</time>
      </trkpt>
      <trkpt lat="42.41872100000013" lon="1.5982910000000008">
        <ele>2005.126</ele>
        <time>2022-08-19T18:37:00Z</time>
      </trkpt>
      <trkpt lat="42.418709000000135" lon="1.5982310000000008">
        <ele>2001.556</ele>
        <time>2022-08-19T18:37:31Z</time>
      </trkpt>
      <trkpt lat="42.418732000000134" lon="1.598160000000001">
        <ele>2001.246</ele>
        <time>2022-08-19T18:37:36Z</time>
      </trkpt>
      <trkpt lat="42.41871300000013" lon="1.598094000000001">
        <ele>2001.143</ele>
        <time>2022-08-19T18:37:39Z</time>
      </trkpt>
      <trkpt lat="42.41875200000013" lon="1.598049000000001">
        <ele>2001.029</ele>
        <time>2022-08-19T18:37:45Z</time>
      </trkpt>
      <trkpt lat="42.41869300000013" lon="1.598028000000001">
        <ele>1997.529</ele>
        <time>2022-08-19T18:37:50Z</time>
      </trkpt>
      <trkpt lat="42.41864600000013" lon="1.5980480000000008">
        <ele>1996.980</ele>
        <time>2022-08-19T18:37:52Z</time>
      </trkpt>
      <trkpt lat="42.41859500000013" lon="1.5980340000000008">
        <ele>1995.115</ele>
        <time>2022-08-19T18:37:57Z</time>
      </trkpt>
      <trkpt lat="42.41855200000013" lon="1.5980100000000008">
        <ele>1993.555</ele>
        <time>2022-08-19T18:38:01Z</time>
      </trkpt>
      <trkpt lat="42.41854200000013" lon="1.597944000000001">
        <ele>1991.107</ele>
        <time>2022-08-19T18:38:11Z</time>
      </trkpt>
      <trkpt lat="42.41858300000013" lon="1.597919000000001">
        <ele>1989.617</ele>
        <time>2022-08-19T18:38:21Z</time>
      </trkpt>
      <trkpt lat="42.41852800000013" lon="1.597905000000001">
        <ele>1988.709</ele>
        <time>2022-08-19T18:38:28Z</time>
      </trkpt>
      <trkpt lat="42.41848000000013" lon="1.597889000000001">
        <ele>1988.256</ele>
        <time>2022-08-19T18:38:30Z</time>
      </trkpt>
      <trkpt lat="42.41843400000013" lon="1.597871000000001">
        <ele>1984.926</ele>
        <time>2022-08-19T18:38:40Z</time>
      </trkpt>
      <trkpt lat="42.41838700000013" lon="1.5978210000000008">
        <ele>1983.536</ele>
        <time>2022-08-19T18:38:46Z</time>
      </trkpt>
      <trkpt lat="42.41833700000013" lon="1.5978240000000008">
        <ele>1982.966</ele>
        <time>2022-08-19T18:38:50Z</time>
      </trkpt>
      <trkpt lat="42.41829400000013" lon="1.5978510000000008">
        <ele>1982.123</ele>
        <time>2022-08-19T18:38:54Z</time>
      </trkpt>
      <trkpt lat="42.41825200000013" lon="1.5978100000000008">
        <ele>1980.349</ele>
        <time>2022-08-19T18:38:58Z</time>
      </trkpt>
      <trkpt lat="42.41822000000013" lon="1.597752000000001">
        <ele>1979.439</ele>
        <time>2022-08-19T18:39:03Z</time>
      </trkpt>
      <trkpt lat="42.418155000000134" lon="1.5977340000000009">
        <ele>1978.560</ele>
        <time>2022-08-19T18:39:06Z</time>
      </trkpt>
      <trkpt lat="42.41809700000013" lon="1.597725000000001">
        <ele>1977.355</ele>
        <time>2022-08-19T18:39:08Z</time>
      </trkpt>
      <trkpt lat="42.41805400000013" lon="1.5976910000000009">
        <ele>1975.783</ele>
        <time>2022-08-19T18:39:13Z</time>
      </trkpt>
      <trkpt lat="42.41801800000013" lon="1.597644000000001">
        <ele>1974.925</ele>
        <time>2022-08-19T18:39:16Z</time>
      </trkpt>
      <trkpt lat="42.41796700000013" lon="1.597646000000001">
        <ele>1973.817</ele>
        <time>2022-08-19T18:39:20Z</time>
      </trkpt>
      <trkpt lat="42.41790600000013" lon="1.597664000000001">
        <ele>1973.109</ele>
        <time>2022-08-19T18:39:24Z</time>
      </trkpt>
      <trkpt lat="42.41787200000013" lon="1.597621000000001">
        <ele>1972.319</ele>
        <time>2022-08-19T18:39:28Z</time>
      </trkpt>
      <trkpt lat="42.41783400000013" lon="1.597557000000001">
        <ele>1971.559</ele>
        <time>2022-08-19T18:39:31Z</time>
      </trkpt>
      <trkpt lat="42.41781700000013" lon="1.597498000000001">
        <ele>1969.569</ele>
        <time>2022-08-19T18:39:38Z</time>
      </trkpt>
      <trkpt lat="42.417759000000125" lon="1.597496000000001">
        <ele>1968.019</ele>
        <time>2022-08-19T18:39:42Z</time>
      </trkpt>
      <trkpt lat="42.41771200000012" lon="1.5974750000000009">
        <ele>1967.896</ele>
        <time>2022-08-19T18:39:44Z</time>
      </trkpt>
      <trkpt lat="42.41767000000012" lon="1.597504000000001">
        <ele>1966.972</ele>
        <time>2022-08-19T18:39:50Z</time>
      </trkpt>
      <trkpt lat="42.41763700000012" lon="1.5974290000000009">
        <ele>1966.342</ele>
        <time>2022-08-19T18:39:53Z</time>
      </trkpt>
      <trkpt lat="42.417599000000116" lon="1.597391000000001">
        <ele>1965.363</ele>
        <time>2022-08-19T18:39:55Z</time>
      </trkpt>
      <trkpt lat="42.417554000000116" lon="1.597350000000001">
        <ele>1964.368</ele>
        <time>2022-08-19T18:39:58Z</time>
      </trkpt>
      <trkpt lat="42.41750300000012" lon="1.597341000000001">
        <ele>1963.678</ele>
        <time>2022-08-19T18:40:02Z</time>
      </trkpt>
      <trkpt lat="42.417464000000116" lon="1.597305000000001">
        <ele>1962.733</ele>
        <time>2022-08-19T18:40:08Z</time>
      </trkpt>
      <trkpt lat="42.41742600000011" lon="1.5972690000000012">
        <ele>1961.626</ele>
        <time>2022-08-19T18:40:13Z</time>
      </trkpt>
      <trkpt lat="42.41739200000011" lon="1.597213000000001">
        <ele>1960.909</ele>
        <time>2022-08-19T18:40:16Z</time>
      </trkpt>
      <trkpt lat="42.417349000000115" lon="1.5971960000000012">
        <ele>1960.038</ele>
        <time>2022-08-19T18:40:20Z</time>
      </trkpt>
      <trkpt lat="42.41729700000012" lon="1.5971850000000012">
        <ele>1959.148</ele>
        <time>2022-08-19T18:40:26Z</time>
      </trkpt>
      <trkpt lat="42.41725400000012" lon="1.5971490000000013">
        <ele>1957.578</ele>
        <time>2022-08-19T18:40:34Z</time>
      </trkpt>
      <trkpt lat="42.41719000000012" lon="1.5971450000000014">
        <ele>1956.568</ele>
        <time>2022-08-19T18:40:37Z</time>
      </trkpt>
      <trkpt lat="42.417135000000115" lon="1.5971480000000013">
        <ele>1955.385</ele>
        <time>2022-08-19T18:40:40Z</time>
      </trkpt>
      <trkpt lat="42.41709200000012" lon="1.5971100000000014">
        <ele>1954.551</ele>
        <time>2022-08-19T18:40:45Z</time>
      </trkpt>
      <trkpt lat="42.417056000000116" lon="1.5970560000000014">
        <ele>1953.761</ele>
        <time>2022-08-19T18:40:50Z</time>
      </trkpt>
      <trkpt lat="42.417003000000115" lon="1.5970780000000013">
        <ele>1953.052</ele>
        <time>2022-08-19T18:40:53Z</time>
      </trkpt>
      <trkpt lat="42.416955000000115" lon="1.5970430000000013">
        <ele>1952.167</ele>
        <time>2022-08-19T18:40:59Z</time>
      </trkpt>
      <trkpt lat="42.41691100000011" lon="1.5970230000000014">
        <ele>1951.341</ele>
        <time>2022-08-19T18:41:04Z</time>
      </trkpt>
      <trkpt lat="42.41687000000011" lon="1.5970620000000013">
        <ele>1950.481</ele>
        <time>2022-08-19T18:41:09Z</time>
      </trkpt>
      <trkpt lat="42.41682300000011" lon="1.5970470000000012">
        <ele>1949.509</ele>
        <time>2022-08-19T18:41:13Z</time>
      </trkpt>
      <trkpt lat="42.416779000000105" lon="1.5970280000000012">
        <ele>1949.009</ele>
        <time>2022-08-19T18:41:17Z</time>
      </trkpt>
      <trkpt lat="42.416726000000104" lon="1.5970250000000012">
        <ele>1948.185</ele>
        <time>2022-08-19T18:41:20Z</time>
      </trkpt>
      <trkpt lat="42.4166790000001" lon="1.5970140000000013">
        <ele>1947.065</ele>
        <time>2022-08-19T18:41:25Z</time>
      </trkpt>
      <trkpt lat="42.4166290000001" lon="1.5970170000000012">
        <ele>1945.975</ele>
        <time>2022-08-19T18:41:28Z</time>
      </trkpt>
      <trkpt lat="42.4165710000001" lon="1.5970390000000012">
        <ele>1945.045</ele>
        <time>2022-08-19T18:41:32Z</time>
      </trkpt>
      <trkpt lat="42.4165220000001" lon="1.5970180000000012">
        <ele>1944.262</ele>
        <time>2022-08-19T18:41:35Z</time>
      </trkpt>
      <trkpt lat="42.4164670000001" lon="1.5969910000000012">
        <ele>1943.298</ele>
        <time>2022-08-19T18:41:38Z</time>
      </trkpt>
      <trkpt lat="42.416423000000094" lon="1.5969800000000012">
        <ele>1941.848</ele>
        <time>2022-08-19T18:41:41Z</time>
      </trkpt>
      <trkpt lat="42.41637000000009" lon="1.5969480000000011">
        <ele>1941.439</ele>
        <time>2022-08-19T18:41:45Z</time>
      </trkpt>
      <trkpt lat="42.41631100000009" lon="1.596919000000001">
        <ele>1940.484</ele>
        <time>2022-08-19T18:41:51Z</time>
      </trkpt>
      <trkpt lat="42.416262000000096" lon="1.5969240000000011">
        <ele>1939.794</ele>
        <time>2022-08-19T18:41:53Z</time>
      </trkpt>
      <trkpt lat="42.4162160000001" lon="1.5969240000000011">
        <ele>1938.657</ele>
        <time>2022-08-19T18:41:57Z</time>
      </trkpt>
      <trkpt lat="42.4161630000001" lon="1.5969340000000012">
        <ele>1937.022</ele>
        <time>2022-08-19T18:42:03Z</time>
      </trkpt>
      <trkpt lat="42.416113000000095" lon="1.5969280000000012">
        <ele>1935.709</ele>
        <time>2022-08-19T18:42:07Z</time>
      </trkpt>
      <trkpt lat="42.4160530000001" lon="1.5969070000000012">
        <ele>1933.760</ele>
        <time>2022-08-19T18:42:12Z</time>
      </trkpt>
      <trkpt lat="42.4160040000001" lon="1.5968630000000013">
        <ele>1933.130</ele>
        <time>2022-08-19T18:42:15Z</time>
      </trkpt>
      <trkpt lat="42.4159640000001" lon="1.5968290000000012">
        <ele>1932.270</ele>
        <time>2022-08-19T18:42:20Z</time>
      </trkpt>
      <trkpt lat="42.4159250000001" lon="1.5967970000000011">
        <ele>1931.470</ele>
        <time>2022-08-19T18:42:24Z</time>
      </trkpt>
      <trkpt lat="42.4158750000001" lon="1.5967720000000012">
        <ele>1930.787</ele>
        <time>2022-08-19T18:42:28Z</time>
      </trkpt>
      <trkpt lat="42.4158230000001" lon="1.5967600000000013">
        <ele>1930.113</ele>
        <time>2022-08-19T18:42:32Z</time>
      </trkpt>
      <trkpt lat="42.415777000000105" lon="1.5967410000000013">
        <ele>1929.413</ele>
        <time>2022-08-19T18:42:38Z</time>
      </trkpt>
      <trkpt lat="42.415726000000106" lon="1.5967260000000012">
        <ele>1928.934</ele>
        <time>2022-08-19T18:42:42Z</time>
      </trkpt>
      <trkpt lat="42.415678000000106" lon="1.5967040000000012">
        <ele>1927.729</ele>
        <time>2022-08-19T18:42:48Z</time>
      </trkpt>
      <trkpt lat="42.41564400000011" lon="1.5966470000000013">
        <ele>1927.767</ele>
        <time>2022-08-19T18:42:54Z</time>
      </trkpt>
      <trkpt lat="42.415608000000105" lon="1.5966040000000012">
        <ele>1927.281</ele>
        <time>2022-08-19T18:42:58Z</time>
      </trkpt>
      <trkpt lat="42.41554800000011" lon="1.5965870000000013">
        <ele>1926.519</ele>
        <time>2022-08-19T18:43:02Z</time>
      </trkpt>
      <trkpt lat="42.41549900000011" lon="1.5965680000000013">
        <ele>1926.009</ele>
        <time>2022-08-19T18:43:07Z</time>
      </trkpt>
      <trkpt lat="42.41543800000011" lon="1.5965450000000012">
        <ele>1925.487</ele>
        <time>2022-08-19T18:43:10Z</time>
      </trkpt>
      <trkpt lat="42.41539200000011" lon="1.5965610000000012">
        <ele>1924.927</ele>
        <time>2022-08-19T18:43:12Z</time>
      </trkpt>
      <trkpt lat="42.41534400000011" lon="1.5965790000000013">
        <ele>1924.037</ele>
        <time>2022-08-19T18:43:16Z</time>
      </trkpt>
      <trkpt lat="42.415374000000114" lon="1.5965280000000013">
        <ele>1923.347</ele>
        <time>2022-08-19T18:43:22Z</time>
      </trkpt>
      <trkpt lat="42.41532100000011" lon="1.5965460000000014">
        <ele>1921.624</ele>
        <time>2022-08-19T18:43:30Z</time>
      </trkpt>
      <trkpt lat="42.41526800000011" lon="1.5965060000000013">
        <ele>1920.910</ele>
        <time>2022-08-19T18:43:35Z</time>
      </trkpt>
      <trkpt lat="42.41520800000011" lon="1.5964940000000014">
        <ele>1919.920</ele>
        <time>2022-08-19T18:43:38Z</time>
      </trkpt>
      <trkpt lat="42.415162000000116" lon="1.5964690000000015">
        <ele>1918.891</ele>
        <time>2022-08-19T18:43:41Z</time>
      </trkpt>
      <trkpt lat="42.415115000000114" lon="1.5964390000000015">
        <ele>1918.056</ele>
        <time>2022-08-19T18:43:44Z</time>
      </trkpt>
      <trkpt lat="42.415067000000114" lon="1.5964260000000015">
        <ele>1918.099</ele>
        <time>2022-08-19T18:43:46Z</time>
      </trkpt>
      <trkpt lat="42.41503400000011" lon="1.5963620000000014">
        <ele>1917.907</ele>
        <time>2022-08-19T18:43:52Z</time>
      </trkpt>
      <trkpt lat="42.41497900000011" lon="1.5963130000000014">
        <ele>1917.827</ele>
        <time>2022-08-19T18:43:55Z</time>
      </trkpt>
      <trkpt lat="42.41493400000011" lon="1.5962710000000013">
        <ele>1917.509</ele>
        <time>2022-08-19T18:43:59Z</time>
      </trkpt>
      <trkpt lat="42.41489100000011" lon="1.5962500000000013">
        <ele>1917.440</ele>
        <time>2022-08-19T18:44:03Z</time>
      </trkpt>
      <trkpt lat="42.41484700000011" lon="1.5962100000000012">
        <ele>1917.160</ele>
        <time>2022-08-19T18:44:06Z</time>
      </trkpt>
      <trkpt lat="42.41481100000011" lon="1.5961590000000012">
        <ele>1916.840</ele>
        <time>2022-08-19T18:44:09Z</time>
      </trkpt>
      <trkpt lat="42.41476600000011" lon="1.5961190000000012">
        <ele>1916.690</ele>
        <time>2022-08-19T18:44:12Z</time>
      </trkpt>
      <trkpt lat="42.41472100000011" lon="1.596104000000001">
        <ele>1916.477</ele>
        <time>2022-08-19T18:44:15Z</time>
      </trkpt>
      <trkpt lat="42.41467200000011" lon="1.596058000000001">
        <ele>1916.173</ele>
        <time>2022-08-19T18:44:18Z</time>
      </trkpt>
      <trkpt lat="42.41462300000011" lon="1.596043000000001">
        <ele>1915.923</ele>
        <time>2022-08-19T18:44:25Z</time>
      </trkpt>
      <trkpt lat="42.41457500000011" lon="1.596022000000001">
        <ele>1915.684</ele>
        <time>2022-08-19T18:44:29Z</time>
      </trkpt>
      <trkpt lat="42.41454500000011" lon="1.595973000000001">
        <ele>1915.489</ele>
        <time>2022-08-19T18:44:32Z</time>
      </trkpt>
      <trkpt lat="42.41449200000011" lon="1.5959500000000009">
        <ele>1915.243</ele>
        <time>2022-08-19T18:44:35Z</time>
      </trkpt>
      <trkpt lat="42.41444700000011" lon="1.5959400000000008">
        <ele>1915.064</ele>
        <time>2022-08-19T18:44:37Z</time>
      </trkpt>
      <trkpt lat="42.41438500000011" lon="1.595936000000001">
        <ele>1914.710</ele>
        <time>2022-08-19T18:44:40Z</time>
      </trkpt>
      <trkpt lat="42.41433200000011" lon="1.595916000000001">
        <ele>1914.209</ele>
        <time>2022-08-19T18:44:43Z</time>
      </trkpt>
      <trkpt lat="42.41428100000011" lon="1.595899000000001">
        <ele>1914.155</ele>
        <time>2022-08-19T18:44:46Z</time>
      </trkpt>
      <trkpt lat="42.41423800000011" lon="1.595870000000001">
        <ele>1913.825</ele>
        <time>2022-08-19T18:44:53Z</time>
      </trkpt>
      <trkpt lat="42.41418200000011" lon="1.595831000000001">
        <ele>1913.535</ele>
        <time>2022-08-19T18:44:56Z</time>
      </trkpt>
      <trkpt lat="42.41412800000011" lon="1.5957980000000012">
        <ele>1913.355</ele>
        <time>2022-08-19T18:44:59Z</time>
      </trkpt>
      <trkpt lat="42.41409200000011" lon="1.595734000000001">
        <ele>1912.972</ele>
        <time>2022-08-19T18:45:04Z</time>
      </trkpt>
      <trkpt lat="42.41404500000011" lon="1.595716000000001">
        <ele>1912.628</ele>
        <time>2022-08-19T18:45:07Z</time>
      </trkpt>
      <trkpt lat="42.414007000000105" lon="1.595679000000001">
        <ele>1912.188</ele>
        <time>2022-08-19T18:45:12Z</time>
      </trkpt>
      <trkpt lat="42.41396100000011" lon="1.5956640000000009">
        <ele>1911.839</ele>
        <time>2022-08-19T18:45:16Z</time>
      </trkpt>
      <trkpt lat="42.41394000000011" lon="1.5956080000000008">
        <ele>1911.664</ele>
        <time>2022-08-19T18:45:19Z</time>
      </trkpt>
      <trkpt lat="42.41389900000011" lon="1.5955760000000008">
        <ele>1911.576</ele>
        <time>2022-08-19T18:45:22Z</time>
      </trkpt>
      <trkpt lat="42.41383600000011" lon="1.5955460000000008">
        <ele>1911.390</ele>
        <time>2022-08-19T18:45:25Z</time>
      </trkpt>
      <trkpt lat="42.41380800000011" lon="1.5954970000000008">
        <ele>1911.119</ele>
        <time>2022-08-19T18:45:29Z</time>
      </trkpt>
      <trkpt lat="42.41376500000011" lon="1.5954540000000008">
        <ele>1910.709</ele>
        <time>2022-08-19T18:45:32Z</time>
      </trkpt>
      <trkpt lat="42.413730000000115" lon="1.5954160000000008">
        <ele>1910.278</ele>
        <time>2022-08-19T18:45:35Z</time>
      </trkpt>
      <trkpt lat="42.41368100000012" lon="1.5953980000000008">
        <ele>1910.068</ele>
        <time>2022-08-19T18:45:38Z</time>
      </trkpt>
      <trkpt lat="42.41364700000012" lon="1.5953520000000008">
        <ele>1909.638</ele>
        <time>2022-08-19T18:45:41Z</time>
      </trkpt>
      <trkpt lat="42.41359400000012" lon="1.5953460000000008">
        <ele>1909.328</ele>
        <time>2022-08-19T18:45:44Z</time>
      </trkpt>
      <trkpt lat="42.41354900000012" lon="1.5953210000000009">
        <ele>1908.955</ele>
        <time>2022-08-19T18:45:47Z</time>
      </trkpt>
      <trkpt lat="42.41350300000012" lon="1.595277000000001">
        <ele>1908.791</ele>
        <time>2022-08-19T18:45:50Z</time>
      </trkpt>
      <trkpt lat="42.41347000000012" lon="1.5952320000000009">
        <ele>1908.381</ele>
        <time>2022-08-19T18:45:53Z</time>
      </trkpt>
      <trkpt lat="42.41342400000012" lon="1.595196000000001">
        <ele>1908.132</ele>
        <time>2022-08-19T18:45:57Z</time>
      </trkpt>
      <trkpt lat="42.41337500000012" lon="1.5951510000000009">
        <ele>1907.757</ele>
        <time>2022-08-19T18:46:03Z</time>
      </trkpt>
      <trkpt lat="42.413329000000125" lon="1.5951110000000008">
        <ele>1907.212</ele>
        <time>2022-08-19T18:46:06Z</time>
      </trkpt>
      <trkpt lat="42.41328200000012" lon="1.5950780000000009">
        <ele>1906.732</ele>
        <time>2022-08-19T18:46:09Z</time>
      </trkpt>
      <trkpt lat="42.413256000000125" lon="1.5950190000000009">
        <ele>1906.305</ele>
        <time>2022-08-19T18:46:13Z</time>
      </trkpt>
      <trkpt lat="42.41322700000013" lon="1.5949630000000008">
        <ele>1906.309</ele>
        <time>2022-08-19T18:46:16Z</time>
      </trkpt>
      <trkpt lat="42.413180000000125" lon="1.5949390000000008">
        <ele>1906.082</ele>
        <time>2022-08-19T18:46:19Z</time>
      </trkpt>
      <trkpt lat="42.41314800000013" lon="1.5948890000000007">
        <ele>1905.892</ele>
        <time>2022-08-19T18:46:22Z</time>
      </trkpt>
      <trkpt lat="42.41312700000013" lon="1.5948250000000006">
        <ele>1905.532</ele>
        <time>2022-08-19T18:46:26Z</time>
      </trkpt>
      <trkpt lat="42.41308400000013" lon="1.5947960000000005">
        <ele>1905.492</ele>
        <time>2022-08-19T18:46:29Z</time>
      </trkpt>
      <trkpt lat="42.413035000000136" lon="1.5947690000000005">
        <ele>1905.169</ele>
        <time>2022-08-19T18:46:33Z</time>
      </trkpt>
      <trkpt lat="42.412987000000136" lon="1.5947420000000005">
        <ele>1904.755</ele>
        <time>2022-08-19T18:46:38Z</time>
      </trkpt>
      <trkpt lat="42.412923000000134" lon="1.5947450000000005">
        <ele>1904.335</ele>
        <time>2022-08-19T18:46:42Z</time>
      </trkpt>
      <trkpt lat="42.41287300000013" lon="1.5947380000000004">
        <ele>1904.166</ele>
        <time>2022-08-19T18:46:44Z</time>
      </trkpt>
      <trkpt lat="42.41281700000013" lon="1.5947270000000004">
        <ele>1903.551</ele>
        <time>2022-08-19T18:46:46Z</time>
      </trkpt>
      <trkpt lat="42.41278300000013" lon="1.5946870000000004">
        <ele>1903.179</ele>
        <time>2022-08-19T18:46:48Z</time>
      </trkpt>
      <trkpt lat="42.41273800000013" lon="1.5946590000000005">
        <ele>1902.905</ele>
        <time>2022-08-19T18:46:51Z</time>
      </trkpt>
      <trkpt lat="42.41269000000013" lon="1.5946490000000004">
        <ele>1902.725</ele>
        <time>2022-08-19T18:46:55Z</time>
      </trkpt>
      <trkpt lat="42.41265200000013" lon="1.5945970000000005">
        <ele>1902.509</ele>
        <time>2022-08-19T18:47:00Z</time>
      </trkpt>
      <trkpt lat="42.41260200000013" lon="1.5945910000000005">
        <ele>1902.348</ele>
        <time>2022-08-19T18:47:03Z</time>
      </trkpt>
      <trkpt lat="42.412564000000124" lon="1.5945420000000006">
        <ele>1901.878</ele>
        <time>2022-08-19T18:47:11Z</time>
      </trkpt>
      <trkpt lat="42.412516000000124" lon="1.5945170000000006">
        <ele>1901.678</ele>
        <time>2022-08-19T18:47:15Z</time>
      </trkpt>
      <trkpt lat="42.412468000000125" lon="1.5944960000000006">
        <ele>1901.238</ele>
        <time>2022-08-19T18:47:19Z</time>
      </trkpt>
      <trkpt lat="42.412423000000125" lon="1.5944570000000007">
        <ele>1900.975</ele>
        <time>2022-08-19T18:47:24Z</time>
      </trkpt>
      <trkpt lat="42.41237700000013" lon="1.5944210000000008">
        <ele>1900.781</ele>
        <time>2022-08-19T18:47:27Z</time>
      </trkpt>
      <trkpt lat="42.41234300000013" lon="1.5943650000000007">
        <ele>1900.481</ele>
        <time>2022-08-19T18:47:30Z</time>
      </trkpt>
      <trkpt lat="42.41230300000013" lon="1.5943070000000008">
        <ele>1900.142</ele>
        <time>2022-08-19T18:47:33Z</time>
      </trkpt>
      <trkpt lat="42.41225800000013" lon="1.5942660000000008">
        <ele>1899.887</ele>
        <time>2022-08-19T18:47:37Z</time>
      </trkpt>
      <trkpt lat="42.41220500000013" lon="1.5942310000000008">
        <ele>1899.618</ele>
        <time>2022-08-19T18:47:41Z</time>
      </trkpt>
      <trkpt lat="42.41220700000013" lon="1.5941640000000008">
        <ele>1898.798</ele>
        <time>2022-08-19T18:47:52Z</time>
      </trkpt>
      <trkpt lat="42.41217300000013" lon="1.5941090000000009">
        <ele>1898.617</ele>
        <time>2022-08-19T18:47:55Z</time>
      </trkpt>
      <trkpt lat="42.41216000000013" lon="1.594044000000001">
        <ele>1898.509</ele>
        <time>2022-08-19T18:47:59Z</time>
      </trkpt>
      <trkpt lat="42.41210100000013" lon="1.594079000000001">
        <ele>1898.052</ele>
        <time>2022-08-19T18:48:05Z</time>
      </trkpt>
      <trkpt lat="42.412054000000126" lon="1.594051000000001">
        <ele>1897.642</ele>
        <time>2022-08-19T18:48:07Z</time>
      </trkpt>
      <trkpt lat="42.41200500000013" lon="1.594043000000001">
        <ele>1896.862</ele>
        <time>2022-08-19T18:48:12Z</time>
      </trkpt>
      <trkpt lat="42.411944000000126" lon="1.594069000000001">
        <ele>1896.132</ele>
        <time>2022-08-19T18:48:16Z</time>
      </trkpt>
      <trkpt lat="42.411902000000126" lon="1.5940440000000011">
        <ele>1894.889</ele>
        <time>2022-08-19T18:48:19Z</time>
      </trkpt>
      <trkpt lat="42.41185500000012" lon="1.5940130000000012">
        <ele>1894.155</ele>
        <time>2022-08-19T18:48:22Z</time>
      </trkpt>
      <trkpt lat="42.41179600000012" lon="1.5940380000000012">
        <ele>1893.115</ele>
        <time>2022-08-19T18:48:29Z</time>
      </trkpt>
      <trkpt lat="42.41174400000013" lon="1.594058000000001">
        <ele>1891.516</ele>
        <time>2022-08-19T18:48:34Z</time>
      </trkpt>
      <trkpt lat="42.41169300000013" lon="1.594077000000001">
        <ele>1891.341</ele>
        <time>2022-08-19T18:50:02Z</time>
      </trkpt>
      <trkpt lat="42.41164700000013" lon="1.5940980000000011">
        <ele>1891.196</ele>
        <time>2022-08-19T18:50:31Z</time>
      </trkpt>
      <trkpt lat="42.41159800000013" lon="1.594074000000001">
        <ele>1891.031</ele>
        <time>2022-08-19T18:50:37Z</time>
      </trkpt>
      <trkpt lat="42.41155400000013" lon="1.594091000000001">
        <ele>1891.024</ele>
        <time>2022-08-19T18:50:42Z</time>
      </trkpt>
      <trkpt lat="42.41150800000013" lon="1.594095000000001">
        <ele>1889.509</ele>
        <time>2022-08-19T18:50:48Z</time>
      </trkpt>
      <trkpt lat="42.411456000000136" lon="1.594127000000001">
        <ele>1889.350</ele>
        <time>2022-08-19T18:50:55Z</time>
      </trkpt>
      <trkpt lat="42.41139600000014" lon="1.594115000000001">
        <ele>1885.150</ele>
        <time>2022-08-19T18:51:01Z</time>
      </trkpt>
      <trkpt lat="42.41134800000014" lon="1.594100000000001">
        <ele>1884.360</ele>
        <time>2022-08-19T18:51:04Z</time>
      </trkpt>
      <trkpt lat="42.41130000000014" lon="1.594123000000001">
        <ele>1883.290</ele>
        <time>2022-08-19T18:51:10Z</time>
      </trkpt>
      <trkpt lat="42.41124800000014" lon="1.594121000000001">
        <ele>1882.387</ele>
        <time>2022-08-19T18:51:16Z</time>
      </trkpt>
      <trkpt lat="42.41120700000014" lon="1.594149000000001">
        <ele>1881.573</ele>
        <time>2022-08-19T18:51:22Z</time>
      </trkpt>
      <trkpt lat="42.41116100000014" lon="1.5941390000000009">
        <ele>1881.173</ele>
        <time>2022-08-19T18:51:25Z</time>
      </trkpt>
      <trkpt lat="42.411101000000144" lon="1.594160000000001">
        <ele>1880.974</ele>
        <time>2022-08-19T18:51:28Z</time>
      </trkpt>
      <trkpt lat="42.41103200000014" lon="1.594149000000001">
        <ele>1880.429</ele>
        <time>2022-08-19T18:51:31Z</time>
      </trkpt>
      <trkpt lat="42.41098100000014" lon="1.594122000000001">
        <ele>1880.174</ele>
        <time>2022-08-19T18:51:34Z</time>
      </trkpt>
      <trkpt lat="42.41092800000014" lon="1.594132000000001">
        <ele>1880.056</ele>
        <time>2022-08-19T18:51:39Z</time>
      </trkpt>
      <trkpt lat="42.41088700000014" lon="1.594170000000001">
        <ele>1879.821</ele>
        <time>2022-08-19T18:51:43Z</time>
      </trkpt>
      <trkpt lat="42.410840000000135" lon="1.594168000000001">
        <ele>1879.609</ele>
        <time>2022-08-19T18:51:47Z</time>
      </trkpt>
      <trkpt lat="42.410801000000134" lon="1.5941260000000008">
        <ele>1879.428</ele>
        <time>2022-08-19T18:51:51Z</time>
      </trkpt>
      <trkpt lat="42.41074900000014" lon="1.5941130000000008">
        <ele>1878.838</ele>
        <time>2022-08-19T18:51:55Z</time>
      </trkpt>
      <trkpt lat="42.41069600000014" lon="1.5941050000000008">
        <ele>1878.668</ele>
        <time>2022-08-19T18:51:58Z</time>
      </trkpt>
      <trkpt lat="42.410646000000135" lon="1.5941110000000007">
        <ele>1878.638</ele>
        <time>2022-08-19T18:52:03Z</time>
      </trkpt>
      <trkpt lat="42.41058200000013" lon="1.5941140000000007">
        <ele>1878.565</ele>
        <time>2022-08-19T18:52:05Z</time>
      </trkpt>
      <trkpt lat="42.41053400000013" lon="1.5941190000000007">
        <ele>1878.351</ele>
        <time>2022-08-19T18:52:07Z</time>
      </trkpt>
      <trkpt lat="42.410491000000135" lon="1.5941410000000007">
        <ele>1877.921</ele>
        <time>2022-08-19T18:52:11Z</time>
      </trkpt>
      <trkpt lat="42.41043900000014" lon="1.5941390000000006">
        <ele>1877.722</ele>
        <time>2022-08-19T18:52:14Z</time>
      </trkpt>
      <trkpt lat="42.41038300000014" lon="1.5941530000000006">
        <ele>1877.697</ele>
        <time>2022-08-19T18:52:18Z</time>
      </trkpt>
      <trkpt lat="42.41033700000014" lon="1.5941590000000005">
        <ele>1877.419</ele>
        <time>2022-08-19T18:52:25Z</time>
      </trkpt>
      <trkpt lat="42.41029300000014" lon="1.5941230000000006">
        <ele>1877.309</ele>
        <time>2022-08-19T18:52:32Z</time>
      </trkpt>
      <trkpt lat="42.410229000000136" lon="1.5941260000000006">
        <ele>1877.019</ele>
        <time>2022-08-19T18:52:35Z</time>
      </trkpt>
      <trkpt lat="42.41018100000014" lon="1.5941450000000006">
        <ele>1876.909</ele>
        <time>2022-08-19T18:52:37Z</time>
      </trkpt>
      <trkpt lat="42.410122000000136" lon="1.5941550000000007">
        <ele>1876.722</ele>
        <time>2022-08-19T18:52:39Z</time>
      </trkpt>
      <trkpt lat="42.41006400000013" lon="1.5941610000000006">
        <ele>1876.162</ele>
        <time>2022-08-19T18:52:42Z</time>
      </trkpt>
      <trkpt lat="42.410013000000134" lon="1.5941800000000006">
        <ele>1875.532</ele>
        <time>2022-08-19T18:52:45Z</time>
      </trkpt>
      <trkpt lat="42.409957000000134" lon="1.5941910000000006">
        <ele>1875.132</ele>
        <time>2022-08-19T18:52:48Z</time>
      </trkpt>
      <trkpt lat="42.409900000000135" lon="1.5941830000000006">
        <ele>1874.419</ele>
        <time>2022-08-19T18:52:52Z</time>
      </trkpt>
      <trkpt lat="42.409847000000134" lon="1.5941970000000005">
        <ele>1873.885</ele>
        <time>2022-08-19T18:52:54Z</time>
      </trkpt>
      <trkpt lat="42.40979700000013" lon="1.5942070000000006">
        <ele>1873.625</ele>
        <time>2022-08-19T18:52:58Z</time>
      </trkpt>
      <trkpt lat="42.40975800000013" lon="1.5941670000000006">
        <ele>1873.346</ele>
        <time>2022-08-19T18:53:02Z</time>
      </trkpt>
      <trkpt lat="42.40971700000013" lon="1.5941260000000006">
        <ele>1872.761</ele>
        <time>2022-08-19T18:53:08Z</time>
      </trkpt>
      <trkpt lat="42.40970000000013" lon="1.5940650000000005">
        <ele>1872.145</ele>
        <time>2022-08-19T18:53:14Z</time>
      </trkpt>
      <trkpt lat="42.40965200000013" lon="1.5940430000000005">
        <ele>1871.547</ele>
        <time>2022-08-19T18:53:17Z</time>
      </trkpt>
      <trkpt lat="42.40960500000013" lon="1.5940460000000005">
        <ele>1870.911</ele>
        <time>2022-08-19T18:53:21Z</time>
      </trkpt>
      <trkpt lat="42.409566000000126" lon="1.5940120000000004">
        <ele>1869.709</ele>
        <time>2022-08-19T18:53:28Z</time>
      </trkpt>
      <trkpt lat="42.40953700000013" lon="1.5939460000000005">
        <ele>1869.185</ele>
        <time>2022-08-19T18:53:32Z</time>
      </trkpt>
      <trkpt lat="42.409524000000125" lon="1.5938860000000006">
        <ele>1868.375</ele>
        <time>2022-08-19T18:53:36Z</time>
      </trkpt>
      <trkpt lat="42.409471000000124" lon="1.5939020000000006">
        <ele>1867.655</ele>
        <time>2022-08-19T18:53:39Z</time>
      </trkpt>
      <trkpt lat="42.40942400000012" lon="1.5939140000000005">
        <ele>1867.155</ele>
        <time>2022-08-19T18:53:42Z</time>
      </trkpt>
      <trkpt lat="42.409375000000125" lon="1.5939260000000004">
        <ele>1866.282</ele>
        <time>2022-08-19T18:53:45Z</time>
      </trkpt>
      <trkpt lat="42.40931100000012" lon="1.5939170000000005">
        <ele>1864.928</ele>
        <time>2022-08-19T18:53:50Z</time>
      </trkpt>
      <trkpt lat="42.40926400000012" lon="1.5939200000000004">
        <ele>1864.338</ele>
        <time>2022-08-19T18:53:53Z</time>
      </trkpt>
      <trkpt lat="42.40921700000012" lon="1.5938920000000005">
        <ele>1863.269</ele>
        <time>2022-08-19T18:53:56Z</time>
      </trkpt>
      <trkpt lat="42.40916900000012" lon="1.5938720000000006">
        <ele>1862.824</ele>
        <time>2022-08-19T18:54:00Z</time>
      </trkpt>
      <trkpt lat="42.40911600000012" lon="1.5938410000000007">
        <ele>1862.228</ele>
        <time>2022-08-19T18:54:05Z</time>
      </trkpt>
      <trkpt lat="42.409078000000115" lon="1.5937860000000008">
        <ele>1861.389</ele>
        <time>2022-08-19T18:54:10Z</time>
      </trkpt>
      <trkpt lat="42.409038000000116" lon="1.5937330000000007">
        <ele>1860.317</ele>
        <time>2022-08-19T18:54:15Z</time>
      </trkpt>
      <trkpt lat="42.40898300000011" lon="1.5937110000000008">
        <ele>1859.909</ele>
        <time>2022-08-19T18:54:18Z</time>
      </trkpt>
      <trkpt lat="42.408923000000115" lon="1.5936800000000009">
        <ele>1859.563</ele>
        <time>2022-08-19T18:54:21Z</time>
      </trkpt>
      <trkpt lat="42.408867000000114" lon="1.593647000000001">
        <ele>1859.133</ele>
        <time>2022-08-19T18:54:24Z</time>
      </trkpt>
      <trkpt lat="42.408813000000116" lon="1.593635000000001">
        <ele>1858.883</ele>
        <time>2022-08-19T18:54:27Z</time>
      </trkpt>
      <trkpt lat="42.408754000000116" lon="1.593599000000001">
        <ele>1858.673</ele>
        <time>2022-08-19T18:54:32Z</time>
      </trkpt>
      <trkpt lat="42.408709000000115" lon="1.5935600000000012">
        <ele>1858.690</ele>
        <time>2022-08-19T18:54:35Z</time>
      </trkpt>
      <trkpt lat="42.40866200000011" lon="1.5935170000000012">
        <ele>1858.526</ele>
        <time>2022-08-19T18:54:38Z</time>
      </trkpt>
      <trkpt lat="42.40862000000011" lon="1.5934890000000013">
        <ele>1858.366</ele>
        <time>2022-08-19T18:54:40Z</time>
      </trkpt>
      <trkpt lat="42.40857200000011" lon="1.5934740000000012">
        <ele>1858.157</ele>
        <time>2022-08-19T18:54:43Z</time>
      </trkpt>
      <trkpt lat="42.408523000000116" lon="1.593440000000001">
        <ele>1857.472</ele>
        <time>2022-08-19T18:54:47Z</time>
      </trkpt>
      <trkpt lat="42.40848500000011" lon="1.593398000000001">
        <ele>1857.075</ele>
        <time>2022-08-19T18:54:50Z</time>
      </trkpt>
      <trkpt lat="42.408436000000115" lon="1.593389000000001">
        <ele>1855.928</ele>
        <time>2022-08-19T18:54:53Z</time>
      </trkpt>
      <trkpt lat="42.40839000000012" lon="1.593370000000001">
        <ele>1855.420</ele>
        <time>2022-08-19T18:54:56Z</time>
      </trkpt>
      <trkpt lat="42.408343000000116" lon="1.593387000000001">
        <ele>1855.009</ele>
        <time>2022-08-19T18:54:59Z</time>
      </trkpt>
      <trkpt lat="42.408295000000116" lon="1.593353000000001">
        <ele>1854.418</ele>
        <time>2022-08-19T18:55:02Z</time>
      </trkpt>
      <trkpt lat="42.408248000000114" lon="1.5933400000000009">
        <ele>1853.828</ele>
        <time>2022-08-19T18:55:04Z</time>
      </trkpt>
      <trkpt lat="42.408208000000116" lon="1.5932920000000008">
        <ele>1852.368</ele>
        <time>2022-08-19T18:55:15Z</time>
      </trkpt>
      <trkpt lat="42.408169000000115" lon="1.5932320000000009">
        <ele>1851.928</ele>
        <time>2022-08-19T18:55:21Z</time>
      </trkpt>
      <trkpt lat="42.40812000000012" lon="1.593193000000001">
        <ele>1850.845</ele>
        <time>2022-08-19T18:55:30Z</time>
      </trkpt>
      <trkpt lat="42.40808600000012" lon="1.593150000000001">
        <ele>1850.471</ele>
        <time>2022-08-19T18:55:32Z</time>
      </trkpt>
      <trkpt lat="42.40803500000012" lon="1.593099000000001">
        <ele>1848.421</ele>
        <time>2022-08-19T18:55:38Z</time>
      </trkpt>
      <trkpt lat="42.40798100000012" lon="1.5930840000000008">
        <ele>1847.582</ele>
        <time>2022-08-19T18:55:42Z</time>
      </trkpt>
      <trkpt lat="42.40792500000012" lon="1.5930730000000008">
        <ele>1846.517</ele>
        <time>2022-08-19T18:55:48Z</time>
      </trkpt>
      <trkpt lat="42.40788200000012" lon="1.5930540000000009">
        <ele>1845.636</ele>
        <time>2022-08-19T18:55:53Z</time>
      </trkpt>
      <trkpt lat="42.40784200000012" lon="1.5930250000000008">
        <ele>1845.117</ele>
        <time>2022-08-19T18:55:56Z</time>
      </trkpt>
      <trkpt lat="42.40781100000012" lon="1.5929620000000009">
        <ele>1843.418</ele>
        <time>2022-08-19T18:56:00Z</time>
      </trkpt>
      <trkpt lat="42.407757000000124" lon="1.5929710000000008">
        <ele>1841.609</ele>
        <time>2022-08-19T18:56:09Z</time>
      </trkpt>
      <trkpt lat="42.40770500000013" lon="1.5929410000000008">
        <ele>1840.484</ele>
        <time>2022-08-19T18:56:12Z</time>
      </trkpt>
      <trkpt lat="42.40765600000013" lon="1.5929200000000008">
        <ele>1837.974</ele>
        <time>2022-08-19T18:56:21Z</time>
      </trkpt>
      <trkpt lat="42.40760100000013" lon="1.5929200000000008">
        <ele>1837.154</ele>
        <time>2022-08-19T18:56:23Z</time>
      </trkpt>
      <trkpt lat="42.40753900000013" lon="1.5928950000000008">
        <ele>1835.434</ele>
        <time>2022-08-19T18:56:26Z</time>
      </trkpt>
      <trkpt lat="42.40749400000013" lon="1.5928760000000008">
        <ele>1834.691</ele>
        <time>2022-08-19T18:56:29Z</time>
      </trkpt>
      <trkpt lat="42.407461000000126" lon="1.5928260000000007">
        <ele>1833.867</ele>
        <time>2022-08-19T18:56:33Z</time>
      </trkpt>
      <trkpt lat="42.40741000000013" lon="1.5927970000000007">
        <ele>1832.547</ele>
        <time>2022-08-19T18:56:36Z</time>
      </trkpt>
      <trkpt lat="42.40736400000013" lon="1.5927650000000007">
        <ele>1831.958</ele>
        <time>2022-08-19T18:56:41Z</time>
      </trkpt>
      <trkpt lat="42.40731400000013" lon="1.5927710000000006">
        <ele>1831.563</ele>
        <time>2022-08-19T18:56:44Z</time>
      </trkpt>
      <trkpt lat="42.40726300000013" lon="1.5927400000000007">
        <ele>1830.765</ele>
        <time>2022-08-19T18:56:47Z</time>
      </trkpt>
      <trkpt lat="42.40721700000013" lon="1.5926980000000006">
        <ele>1829.768</ele>
        <time>2022-08-19T18:56:50Z</time>
      </trkpt>
      <trkpt lat="42.40717900000013" lon="1.5926610000000005">
        <ele>1829.114</ele>
        <time>2022-08-19T18:56:53Z</time>
      </trkpt>
      <trkpt lat="42.40713000000013" lon="1.5926760000000006">
        <ele>1828.109</ele>
        <time>2022-08-19T18:56:56Z</time>
      </trkpt>
      <trkpt lat="42.40708100000013" lon="1.5926670000000007">
        <ele>1827.377</ele>
        <time>2022-08-19T18:56:59Z</time>
      </trkpt>
      <trkpt lat="42.40703600000013" lon="1.5926410000000006">
        <ele>1827.167</ele>
        <time>2022-08-19T18:57:03Z</time>
      </trkpt>
      <trkpt lat="42.407010000000135" lon="1.5925910000000005">
        <ele>1826.527</ele>
        <time>2022-08-19T18:57:07Z</time>
      </trkpt>
      <trkpt lat="42.406945000000135" lon="1.5925830000000005">
        <ele>1825.877</ele>
        <time>2022-08-19T18:57:11Z</time>
      </trkpt>
      <trkpt lat="42.406900000000135" lon="1.5925580000000006">
        <ele>1824.984</ele>
        <time>2022-08-19T18:57:15Z</time>
      </trkpt>
      <trkpt lat="42.40683700000014" lon="1.5925460000000007">
        <ele>1824.220</ele>
        <time>2022-08-19T18:57:20Z</time>
      </trkpt>
      <trkpt lat="42.406796000000135" lon="1.5924910000000008">
        <ele>1823.480</ele>
        <time>2022-08-19T18:57:23Z</time>
      </trkpt>
      <trkpt lat="42.40677500000014" lon="1.5924360000000009">
        <ele>1822.551</ele>
        <time>2022-08-19T18:57:26Z</time>
      </trkpt>
      <trkpt lat="42.40678100000014" lon="1.5923750000000008">
        <ele>1821.586</ele>
        <time>2022-08-19T18:57:29Z</time>
      </trkpt>
      <trkpt lat="42.40673600000014" lon="1.5923450000000008">
        <ele>1820.393</ele>
        <time>2022-08-19T18:57:34Z</time>
      </trkpt>
      <trkpt lat="42.40668400000014" lon="1.5923170000000009">
        <ele>1820.065</ele>
        <time>2022-08-19T18:57:38Z</time>
      </trkpt>
      <trkpt lat="42.40665900000014" lon="1.5922610000000008">
        <ele>1820.021</ele>
        <time>2022-08-19T18:57:41Z</time>
      </trkpt>
      <trkpt lat="42.40660800000014" lon="1.5922430000000007">
        <ele>1819.609</ele>
        <time>2022-08-19T18:57:46Z</time>
      </trkpt>
      <trkpt lat="42.40656100000014" lon="1.5922400000000008">
        <ele>1818.820</ele>
        <time>2022-08-19T18:57:52Z</time>
      </trkpt>
      <trkpt lat="42.406514000000136" lon="1.5922360000000009">
        <ele>1818.080</ele>
        <time>2022-08-19T18:57:58Z</time>
      </trkpt>
      <trkpt lat="42.40645700000014" lon="1.592173000000001">
        <ele>1817.070</ele>
        <time>2022-08-19T18:58:04Z</time>
      </trkpt>
      <trkpt lat="42.40640600000014" lon="1.592165000000001">
        <ele>1816.120</ele>
        <time>2022-08-19T18:58:06Z</time>
      </trkpt>
      <trkpt lat="42.40639900000014" lon="1.592105000000001">
        <ele>1815.287</ele>
        <time>2022-08-19T18:58:10Z</time>
      </trkpt>
      <trkpt lat="42.406381000000145" lon="1.592042000000001">
        <ele>1814.033</ele>
        <time>2022-08-19T18:58:15Z</time>
      </trkpt>
      <trkpt lat="42.40632400000015" lon="1.592051000000001">
        <ele>1812.523</ele>
        <time>2022-08-19T18:58:21Z</time>
      </trkpt>
      <trkpt lat="42.40627900000015" lon="1.592088000000001">
        <ele>1811.854</ele>
        <time>2022-08-19T18:58:24Z</time>
      </trkpt>
      <trkpt lat="42.40624200000015" lon="1.592048000000001">
        <ele>1809.699</ele>
        <time>2022-08-19T18:58:34Z</time>
      </trkpt>
      <trkpt lat="42.40619000000015" lon="1.592014000000001">
        <ele>1808.555</ele>
        <time>2022-08-19T18:58:38Z</time>
      </trkpt>
      <trkpt lat="42.40614900000015" lon="1.5920500000000009">
        <ele>1806.307</ele>
        <time>2022-08-19T18:58:47Z</time>
      </trkpt>
      <trkpt lat="42.40610100000015" lon="1.592092000000001">
        <ele>1804.817</ele>
        <time>2022-08-19T18:58:55Z</time>
      </trkpt>
      <trkpt lat="42.40605400000015" lon="1.592146000000001">
        <ele>1803.409</ele>
        <time>2022-08-19T18:58:58Z</time>
      </trkpt>
      <trkpt lat="42.406001000000145" lon="1.592152000000001">
        <ele>1801.916</ele>
        <time>2022-08-19T18:59:02Z</time>
      </trkpt>
      <trkpt lat="42.40595700000014" lon="1.5921740000000009">
        <ele>1799.276</ele>
        <time>2022-08-19T18:59:08Z</time>
      </trkpt>
      <trkpt lat="42.40590400000014" lon="1.592160000000001">
        <ele>1798.316</ele>
        <time>2022-08-19T18:59:11Z</time>
      </trkpt>
      <trkpt lat="42.405855000000145" lon="1.592119000000001">
        <ele>1798.076</ele>
        <time>2022-08-19T18:59:14Z</time>
      </trkpt>
      <trkpt lat="42.40582300000015" lon="1.5920660000000009">
        <ele>1797.673</ele>
        <time>2022-08-19T18:59:20Z</time>
      </trkpt>
      <trkpt lat="42.40578100000015" lon="1.5920230000000009">
        <ele>1796.739</ele>
        <time>2022-08-19T18:59:27Z</time>
      </trkpt>
      <trkpt lat="42.40579500000015" lon="1.591952000000001">
        <ele>1796.559</ele>
        <time>2022-08-19T18:59:29Z</time>
      </trkpt>
      <trkpt lat="42.40582300000015" lon="1.591855000000001">
        <ele>1796.280</ele>
        <time>2022-08-19T18:59:31Z</time>
      </trkpt>
      <trkpt lat="42.40582800000015" lon="1.591792000000001">
        <ele>1796.145</ele>
        <time>2022-08-19T18:59:33Z</time>
      </trkpt>
      <trkpt lat="42.40579400000015" lon="1.591737000000001">
        <ele>1795.536</ele>
        <time>2022-08-19T18:59:36Z</time>
      </trkpt>
      <trkpt lat="42.40573600000015" lon="1.591700000000001">
        <ele>1794.717</ele>
        <time>2022-08-19T18:59:41Z</time>
      </trkpt>
      <trkpt lat="42.40569000000015" lon="1.591701000000001">
        <ele>1794.518</ele>
        <time>2022-08-19T18:59:44Z</time>
      </trkpt>
      <trkpt lat="42.40567200000015" lon="1.591644000000001">
        <ele>1794.209</ele>
        <time>2022-08-19T18:59:48Z</time>
      </trkpt>
      <trkpt lat="42.405623000000155" lon="1.5916020000000008">
        <ele>1793.964</ele>
        <time>2022-08-19T18:59:53Z</time>
      </trkpt>
      <trkpt lat="42.40558000000016" lon="1.5915790000000007">
        <ele>1793.754</ele>
        <time>2022-08-19T18:59:56Z</time>
      </trkpt>
      <trkpt lat="42.40555400000016" lon="1.5915230000000007">
        <ele>1793.034</ele>
        <time>2022-08-19T19:00:01Z</time>
      </trkpt>
      <trkpt lat="42.405507000000156" lon="1.5914880000000007">
        <ele>1791.714</ele>
        <time>2022-08-19T19:00:07Z</time>
      </trkpt>
      <trkpt lat="42.40545300000016" lon="1.5914610000000007">
        <ele>1790.521</ele>
        <time>2022-08-19T19:00:12Z</time>
      </trkpt>
      <trkpt lat="42.40543600000016" lon="1.5914030000000008">
        <ele>1790.127</ele>
        <time>2022-08-19T19:00:15Z</time>
      </trkpt>
      <trkpt lat="42.40537600000016" lon="1.5914190000000008">
        <ele>1788.787</ele>
        <time>2022-08-19T19:00:21Z</time>
      </trkpt>
      <trkpt lat="42.40533100000016" lon="1.5913940000000009">
        <ele>1787.668</ele>
        <time>2022-08-19T19:00:25Z</time>
      </trkpt>
      <trkpt lat="42.40528800000016" lon="1.591434000000001">
        <ele>1787.143</ele>
        <time>2022-08-19T19:00:28Z</time>
      </trkpt>
      <trkpt lat="42.40525100000016" lon="1.591469000000001">
        <ele>1786.431</ele>
        <time>2022-08-19T19:00:30Z</time>
      </trkpt>
      <trkpt lat="42.405200000000164" lon="1.5914590000000008">
        <ele>1785.261</ele>
        <time>2022-08-19T19:00:37Z</time>
      </trkpt>
      <trkpt lat="42.405158000000164" lon="1.5914160000000008">
        <ele>1784.807</ele>
        <time>2022-08-19T19:00:42Z</time>
      </trkpt>
      <trkpt lat="42.40517000000016" lon="1.5913560000000009">
        <ele>1784.809</ele>
        <time>2022-08-19T19:00:46Z</time>
      </trkpt>
      <trkpt lat="42.40516800000016" lon="1.591277000000001">
        <ele>1784.744</ele>
        <time>2022-08-19T19:00:48Z</time>
      </trkpt>
      <trkpt lat="42.40516500000016" lon="1.5912050000000009">
        <ele>1784.764</ele>
        <time>2022-08-19T19:00:51Z</time>
      </trkpt>
      <trkpt lat="42.40513700000016" lon="1.5911460000000008">
        <ele>1785.074</ele>
        <time>2022-08-19T19:00:57Z</time>
      </trkpt>
      <trkpt lat="42.40509800000016" lon="1.5911030000000008">
        <ele>1785.024</ele>
        <time>2022-08-19T19:01:01Z</time>
      </trkpt>
      <trkpt lat="42.40508100000016" lon="1.5910410000000008">
        <ele>1785.071</ele>
        <time>2022-08-19T19:01:04Z</time>
      </trkpt>
      <trkpt lat="42.40503100000016" lon="1.5909970000000009">
        <ele>1784.747</ele>
        <time>2022-08-19T19:01:07Z</time>
      </trkpt>
      <trkpt lat="42.404984000000155" lon="1.5909790000000008">
        <ele>1783.517</ele>
        <time>2022-08-19T19:01:11Z</time>
      </trkpt>
      <trkpt lat="42.40495200000016" lon="1.5909170000000008">
        <ele>1783.298</ele>
        <time>2022-08-19T19:01:17Z</time>
      </trkpt>
      <trkpt lat="42.40489200000016" lon="1.590932000000001">
        <ele>1782.813</ele>
        <time>2022-08-19T19:01:25Z</time>
      </trkpt>
      <trkpt lat="42.40484000000016" lon="1.5909620000000009">
        <ele>1781.743</ele>
        <time>2022-08-19T19:01:33Z</time>
      </trkpt>
      <trkpt lat="42.40478200000016" lon="1.590940000000001">
        <ele>1778.664</ele>
        <time>2022-08-19T19:01:41Z</time>
      </trkpt>
      <trkpt lat="42.40472800000016" lon="1.5909220000000008">
        <ele>1777.210</ele>
        <time>2022-08-19T19:01:46Z</time>
      </trkpt>
      <trkpt lat="42.404665000000165" lon="1.590910000000001">
        <ele>1776.609</ele>
        <time>2022-08-19T19:01:50Z</time>
      </trkpt>
      <trkpt lat="42.40462200000017" lon="1.590877000000001">
        <ele>1774.555</ele>
        <time>2022-08-19T19:01:54Z</time>
      </trkpt>
      <trkpt lat="42.40463800000017" lon="1.590811000000001">
        <ele>1773.425</ele>
        <time>2022-08-19T19:01:57Z</time>
      </trkpt>
      <trkpt lat="42.40464600000017" lon="1.590749000000001">
        <ele>1771.735</ele>
        <time>2022-08-19T19:02:02Z</time>
      </trkpt>
      <trkpt lat="42.40465000000017" lon="1.590680000000001">
        <ele>1770.285</ele>
        <time>2022-08-19T19:02:07Z</time>
      </trkpt>
      <trkpt lat="42.404603000000165" lon="1.590683000000001">
        <ele>1765.772</ele>
        <time>2022-08-19T19:02:23Z</time>
      </trkpt>
      <trkpt lat="42.40457100000017" lon="1.590727000000001">
        <ele>1763.328</ele>
        <time>2022-08-19T19:02:34Z</time>
      </trkpt>
      <trkpt lat="42.40457600000017" lon="1.5904660000000008">
        <ele>1760.258</ele>
        <time>2022-08-19T19:02:50Z</time>
      </trkpt>
      <trkpt lat="42.40452900000017" lon="1.5904330000000009">
        <ele>1758.079</ele>
        <time>2022-08-19T19:02:52Z</time>
      </trkpt>
      <trkpt lat="42.40453200000017" lon="1.590362000000001">
        <ele>1757.124</ele>
        <time>2022-08-19T19:02:57Z</time>
      </trkpt>
      <trkpt lat="42.40455100000017" lon="1.590297000000001">
        <ele>1756.158</ele>
        <time>2022-08-19T19:03:04Z</time>
      </trkpt>
      <trkpt lat="42.40454000000017" lon="1.590206000000001">
        <ele>1754.452</ele>
        <time>2022-08-19T19:03:14Z</time>
      </trkpt>
      <trkpt lat="42.404516000000164" lon="1.590260000000001">
        <ele>1753.017</ele>
        <time>2022-08-19T19:03:24Z</time>
      </trkpt>
      <trkpt lat="42.404496000000165" lon="1.5903150000000008">
        <ele>1752.809</ele>
        <time>2022-08-19T19:03:30Z</time>
      </trkpt>
      <trkpt lat="42.404474000000164" lon="1.590368000000001">
        <ele>1752.456</ele>
        <time>2022-08-19T19:03:37Z</time>
      </trkpt>
      <trkpt lat="42.40446400000016" lon="1.590019000000001">
        <ele>1752.136</ele>
        <time>2022-08-19T19:03:45Z</time>
      </trkpt>
      <trkpt lat="42.404412000000164" lon="1.589982000000001">
        <ele>1751.726</ele>
        <time>2022-08-19T19:03:48Z</time>
      </trkpt>
      <trkpt lat="42.40437100000016" lon="1.5899200000000009">
        <ele>1751.756</ele>
        <time>2022-08-19T19:03:55Z</time>
      </trkpt>
      <trkpt lat="42.404367000000164" lon="1.589846000000001">
        <ele>1751.723</ele>
        <time>2022-08-19T19:03:57Z</time>
      </trkpt>
      <trkpt lat="42.404330000000165" lon="1.589792000000001">
        <ele>1751.569</ele>
        <time>2022-08-19T19:04:00Z</time>
      </trkpt>
      <trkpt lat="42.40435100000016" lon="1.589532000000001">
        <ele>1751.189</ele>
        <time>2022-08-19T19:04:11Z</time>
      </trkpt>
      <trkpt lat="42.40438800000016" lon="1.589475000000001">
        <ele>1751.180</ele>
        <time>2022-08-19T19:04:13Z</time>
      </trkpt>
      <trkpt lat="42.40442000000016" lon="1.589395000000001">
        <ele>1751.385</ele>
        <time>2022-08-19T19:04:16Z</time>
      </trkpt>
      <trkpt lat="42.40444300000016" lon="1.589337000000001">
        <ele>1751.262</ele>
        <time>2022-08-19T19:04:19Z</time>
      </trkpt>
      <trkpt lat="42.40448200000016" lon="1.589295000000001">
        <ele>1751.183</ele>
        <time>2022-08-19T19:04:25Z</time>
      </trkpt>
      <trkpt lat="42.404435000000156" lon="1.589234000000001">
        <ele>1750.111</ele>
        <time>2022-08-19T19:04:37Z</time>
      </trkpt>
      <trkpt lat="42.40439700000015" lon="1.5890890000000009">
        <ele>1749.109</ele>
        <time>2022-08-19T19:04:39Z</time>
      </trkpt>
      <trkpt lat="42.40438300000015" lon="1.5890240000000009">
        <ele>1748.327</ele>
        <time>2022-08-19T19:04:40Z</time>
      </trkpt>
      <trkpt lat="42.40438300000015" lon="1.5889270000000009">
        <ele>1747.297</ele>
        <time>2022-08-19T19:04:42Z</time>
      </trkpt>
      <trkpt lat="42.40437800000015" lon="1.5888600000000008">
        <ele>1747.037</ele>
        <time>2022-08-19T19:04:44Z</time>
      </trkpt>
      <trkpt lat="42.40433200000015" lon="1.5888760000000008">
        <ele>1746.477</ele>
        <time>2022-08-19T19:04:54Z</time>
      </trkpt>
      <trkpt lat="42.40429600000015" lon="1.5889160000000009">
        <ele>1745.954</ele>
        <time>2022-08-19T19:05:01Z</time>
      </trkpt>
      <trkpt lat="42.40429800000015" lon="1.588842000000001">
        <ele>1745.870</ele>
        <time>2022-08-19T19:05:04Z</time>
      </trkpt>
      <trkpt lat="42.40433300000015" lon="1.588721000000001">
        <ele>1745.780</ele>
        <time>2022-08-19T19:05:06Z</time>
      </trkpt>
      <trkpt lat="42.40435200000015" lon="1.588663000000001">
        <ele>1745.561</ele>
        <time>2022-08-19T19:05:07Z</time>
      </trkpt>
      <trkpt lat="42.40438000000015" lon="1.588591000000001">
        <ele>1744.846</ele>
        <time>2022-08-19T19:05:09Z</time>
      </trkpt>
      <trkpt lat="42.404427000000155" lon="1.588559000000001">
        <ele>1744.627</ele>
        <time>2022-08-19T19:05:19Z</time>
      </trkpt>
      <trkpt lat="42.404469000000155" lon="1.588521000000001">
        <ele>1744.468</ele>
        <time>2022-08-19T19:05:22Z</time>
      </trkpt>
      <trkpt lat="42.404497000000156" lon="1.588461000000001">
        <ele>1743.814</ele>
        <time>2022-08-19T19:05:27Z</time>
      </trkpt>
      <trkpt lat="42.40450100000015" lon="1.588398000000001">
        <ele>1743.509</ele>
        <time>2022-08-19T19:05:33Z</time>
      </trkpt>
      <trkpt lat="42.40450700000015" lon="1.5883350000000012">
        <ele>1743.373</ele>
        <time>2022-08-19T19:05:39Z</time>
      </trkpt>
      <trkpt lat="42.404621000000155" lon="1.5880130000000012">
        <ele>1743.253</ele>
        <time>2022-08-19T19:05:44Z</time>
      </trkpt>
      <trkpt lat="42.40461100000015" lon="1.5879400000000012">
        <ele>1741.923</ele>
        <time>2022-08-19T19:05:47Z</time>
      </trkpt>
      <trkpt lat="42.40460500000015" lon="1.5878660000000013">
        <ele>1741.823</ele>
        <time>2022-08-19T19:05:51Z</time>
      </trkpt>
      <trkpt lat="42.40458600000015" lon="1.5877990000000013">
        <ele>1741.830</ele>
        <time>2022-08-19T19:05:56Z</time>
      </trkpt>
      <trkpt lat="42.40459100000015" lon="1.5877330000000014">
        <ele>1741.836</ele>
        <time>2022-08-19T19:06:02Z</time>
      </trkpt>
      <trkpt lat="42.40460000000015" lon="1.5876640000000013">
        <ele>1741.536</ele>
        <time>2022-08-19T19:06:09Z</time>
      </trkpt>
      <trkpt lat="42.40460100000015" lon="1.5876000000000012">
        <ele>1740.947</ele>
        <time>2022-08-19T19:06:16Z</time>
      </trkpt>
      <trkpt lat="42.40455500000015" lon="1.5876010000000012">
        <ele>1739.822</ele>
        <time>2022-08-19T19:06:24Z</time>
      </trkpt>
      <trkpt lat="42.404509000000154" lon="1.5875950000000012">
        <ele>1739.967</ele>
        <time>2022-08-19T19:07:09Z</time>
      </trkpt>
      <trkpt lat="42.404401000000156" lon="1.5870830000000011">
        <ele>1739.881</ele>
        <time>2022-08-19T19:07:19Z</time>
      </trkpt>
      <trkpt lat="42.40436600000016" lon="1.587130000000001">
        <ele>1739.519</ele>
        <time>2022-08-19T19:07:26Z</time>
      </trkpt>
      <trkpt lat="42.40435000000016" lon="1.587066000000001">
        <ele>1740.209</ele>
        <time>2022-08-19T19:07:34Z</time>
      </trkpt>
      <trkpt lat="42.404340000000154" lon="1.586999000000001">
        <ele>1740.667</ele>
        <time>2022-08-19T19:07:38Z</time>
      </trkpt>
      <trkpt lat="42.40435000000016" lon="1.586937000000001">
        <ele>1741.147</ele>
        <time>2022-08-19T19:07:42Z</time>
      </trkpt>
      <trkpt lat="42.40431000000016" lon="1.586904000000001">
        <ele>1741.457</ele>
        <time>2022-08-19T19:07:46Z</time>
      </trkpt>
      <trkpt lat="42.40426400000016" lon="1.586876000000001">
        <ele>1741.727</ele>
        <time>2022-08-19T19:07:49Z</time>
      </trkpt>
      <trkpt lat="42.40420600000016" lon="1.586863000000001">
        <ele>1742.884</ele>
        <time>2022-08-19T19:07:54Z</time>
      </trkpt>
      <trkpt lat="42.40415800000016" lon="1.586846000000001">
        <ele>1743.050</ele>
        <time>2022-08-19T19:08:00Z</time>
      </trkpt>
      <trkpt lat="42.40416300000016" lon="1.5867830000000012">
        <ele>1743.050</ele>
        <time>2022-08-19T19:08:08Z</time>
      </trkpt>
      <trkpt lat="42.40415100000016" lon="1.5867080000000011">
        <ele>1742.951</ele>
        <time>2022-08-19T19:08:12Z</time>
      </trkpt>
      <trkpt lat="42.40412300000016" lon="1.586660000000001">
        <ele>1742.716</ele>
        <time>2022-08-19T19:08:14Z</time>
      </trkpt>
      <trkpt lat="42.40409200000016" lon="1.586615000000001">
        <ele>1742.367</ele>
        <time>2022-08-19T19:08:16Z</time>
      </trkpt>
      <trkpt lat="42.40407800000016" lon="1.586553000000001">
        <ele>1741.681</ele>
        <time>2022-08-19T19:08:18Z</time>
      </trkpt>
      <trkpt lat="42.40405900000016" lon="1.586486000000001">
        <ele>1740.419</ele>
        <time>2022-08-19T19:08:21Z</time>
      </trkpt>
      <trkpt lat="42.40403900000016" lon="1.586408000000001">
        <ele>1739.709</ele>
        <time>2022-08-19T19:08:25Z</time>
      </trkpt>
      <trkpt lat="42.40403400000016" lon="1.586342000000001">
        <ele>1739.367</ele>
        <time>2022-08-19T19:08:28Z</time>
      </trkpt>
      <trkpt lat="42.40400000000016" lon="1.586282000000001">
        <ele>1738.527</ele>
        <time>2022-08-19T19:08:34Z</time>
      </trkpt>
      <trkpt lat="42.40397100000016" lon="1.586221000000001">
        <ele>1737.847</ele>
        <time>2022-08-19T19:08:38Z</time>
      </trkpt>
      <trkpt lat="42.40396900000016" lon="1.586148000000001">
        <ele>1736.727</ele>
        <time>2022-08-19T19:08:44Z</time>
      </trkpt>
      <trkpt lat="42.40394500000016" lon="1.586085000000001">
        <ele>1735.684</ele>
        <time>2022-08-19T19:08:48Z</time>
      </trkpt>
      <trkpt lat="42.40394500000016" lon="1.586018000000001">
        <ele>1734.330</ele>
        <time>2022-08-19T19:08:53Z</time>
      </trkpt>
      <trkpt lat="42.403917000000156" lon="1.585916000000001">
        <ele>1731.260</ele>
        <time>2022-08-19T19:09:02Z</time>
      </trkpt>
      <trkpt lat="42.40389300000015" lon="1.585860000000001">
        <ele>1730.051</ele>
        <time>2022-08-19T19:09:06Z</time>
      </trkpt>
      <trkpt lat="42.40384800000015" lon="1.585862000000001">
        <ele>1728.596</ele>
        <time>2022-08-19T19:09:12Z</time>
      </trkpt>
      <trkpt lat="42.403844000000156" lon="1.585797000000001">
        <ele>1727.898</ele>
        <time>2022-08-19T19:09:18Z</time>
      </trkpt>
      <trkpt lat="42.403872000000156" lon="1.585746000000001">
        <ele>1725.815</ele>
        <time>2022-08-19T19:09:25Z</time>
      </trkpt>
      <trkpt lat="42.403819000000155" lon="1.585740000000001">
        <ele>1722.526</ele>
        <time>2022-08-19T19:10:04Z</time>
      </trkpt>
      <trkpt lat="42.40386200000015" lon="1.585711000000001">
        <ele>1722.509</ele>
        <time>2022-08-19T19:10:09Z</time>
      </trkpt>
      <trkpt lat="42.403906000000156" lon="1.585671000000001">
        <ele>1722.420</ele>
        <time>2022-08-19T19:10:14Z</time>
      </trkpt>
      <trkpt lat="42.403926000000155" lon="1.585616000000001">
        <ele>1722.430</ele>
        <time>2022-08-19T19:10:19Z</time>
      </trkpt>
      <trkpt lat="42.403954000000155" lon="1.585564000000001">
        <ele>1722.470</ele>
        <time>2022-08-19T19:10:25Z</time>
      </trkpt>
      <trkpt lat="42.40396600000015" lon="1.585503000000001">
        <ele>1721.740</ele>
        <time>2022-08-19T19:10:31Z</time>
      </trkpt>
      <trkpt lat="42.403988000000155" lon="1.585448000000001">
        <ele>1720.987</ele>
        <time>2022-08-19T19:10:37Z</time>
      </trkpt>
      <trkpt lat="42.403974000000154" lon="1.585373000000001">
        <ele>1720.953</ele>
        <time>2022-08-19T19:10:40Z</time>
      </trkpt>
      <trkpt lat="42.403940000000155" lon="1.585417000000001">
        <ele>1720.533</ele>
        <time>2022-08-19T19:10:51Z</time>
      </trkpt>
      <trkpt lat="42.40391000000015" lon="1.585369000000001">
        <ele>1720.354</ele>
        <time>2022-08-19T19:10:57Z</time>
      </trkpt>
      <trkpt lat="42.40393300000015" lon="1.5853160000000008">
        <ele>1720.279</ele>
        <time>2022-08-19T19:11:00Z</time>
      </trkpt>
      <trkpt lat="42.40397200000015" lon="1.585277000000001">
        <ele>1720.286</ele>
        <time>2022-08-19T19:11:02Z</time>
      </trkpt>
      <trkpt lat="42.40401500000015" lon="1.585236000000001">
        <ele>1720.760</ele>
        <time>2022-08-19T19:11:06Z</time>
      </trkpt>
      <trkpt lat="42.40406400000015" lon="1.5852290000000009">
        <ele>1721.826</ele>
        <time>2022-08-19T19:11:12Z</time>
      </trkpt>
      <trkpt lat="42.404054000000144" lon="1.5851250000000008">
        <ele>1721.909</ele>
        <time>2022-08-19T19:11:20Z</time>
      </trkpt>
      <trkpt lat="42.40400500000015" lon="1.5848800000000007">
        <ele>1722.479</ele>
        <time>2022-08-19T19:11:22Z</time>
      </trkpt>
      <trkpt lat="42.403964000000144" lon="1.5849060000000008">
        <ele>1722.619</ele>
        <time>2022-08-19T19:11:25Z</time>
      </trkpt>
      <trkpt lat="42.403927000000145" lon="1.584870000000001">
        <ele>1722.739</ele>
        <time>2022-08-19T19:11:31Z</time>
      </trkpt>
      <trkpt lat="42.403955000000146" lon="1.584805000000001">
        <ele>1722.889</ele>
        <time>2022-08-19T19:11:34Z</time>
      </trkpt>
      <trkpt lat="42.403981000000144" lon="1.584729000000001">
        <ele>1722.966</ele>
        <time>2022-08-19T19:11:37Z</time>
      </trkpt>
      <trkpt lat="42.403978000000144" lon="1.584656000000001">
        <ele>1723.152</ele>
        <time>2022-08-19T19:11:40Z</time>
      </trkpt>
      <trkpt lat="42.403972000000145" lon="1.584588000000001">
        <ele>1723.432</ele>
        <time>2022-08-19T19:11:45Z</time>
      </trkpt>
      <trkpt lat="42.404017000000145" lon="1.584550000000001">
        <ele>1723.893</ele>
        <time>2022-08-19T19:11:50Z</time>
      </trkpt>
      <trkpt lat="42.40406600000014" lon="1.584504000000001">
        <ele>1723.688</ele>
        <time>2022-08-19T19:12:01Z</time>
      </trkpt>
      <trkpt lat="42.40405000000014" lon="1.584408000000001">
        <ele>1723.323</ele>
        <time>2022-08-19T19:12:04Z</time>
      </trkpt>
      <trkpt lat="42.40402500000014" lon="1.584340000000001">
        <ele>1722.083</ele>
        <time>2022-08-19T19:12:07Z</time>
      </trkpt>
      <trkpt lat="42.40398600000014" lon="1.584307000000001">
        <ele>1720.711</ele>
        <time>2022-08-19T19:12:11Z</time>
      </trkpt>
      <trkpt lat="42.40395200000014" lon="1.584252000000001">
        <ele>1719.209</ele>
        <time>2022-08-19T19:12:17Z</time>
      </trkpt>
      <trkpt lat="42.40392900000014" lon="1.584196000000001">
        <ele>1718.273</ele>
        <time>2022-08-19T19:12:23Z</time>
      </trkpt>
      <trkpt lat="42.40390300000014" lon="1.584142000000001">
        <ele>1717.743</ele>
        <time>2022-08-19T19:12:26Z</time>
      </trkpt>
      <trkpt lat="42.40391200000014" lon="1.584077000000001">
        <ele>1717.553</ele>
        <time>2022-08-19T19:12:28Z</time>
      </trkpt>
      <trkpt lat="42.40394500000014" lon="1.584028000000001">
        <ele>1716.933</ele>
        <time>2022-08-19T19:12:31Z</time>
      </trkpt>
      <trkpt lat="42.40398200000014" lon="1.583964000000001">
        <ele>1716.360</ele>
        <time>2022-08-19T19:12:34Z</time>
      </trkpt>
      <trkpt lat="42.40399600000014" lon="1.583903000000001">
        <ele>1715.066</ele>
        <time>2022-08-19T19:12:37Z</time>
      </trkpt>
      <trkpt lat="42.40403000000014" lon="1.5838420000000009">
        <ele>1714.196</ele>
        <time>2022-08-19T19:12:40Z</time>
      </trkpt>
      <trkpt lat="42.40407500000014" lon="1.583782000000001">
        <ele>1713.387</ele>
        <time>2022-08-19T19:12:44Z</time>
      </trkpt>
      <trkpt lat="42.40412000000014" lon="1.5837420000000009">
        <ele>1712.222</ele>
        <time>2022-08-19T19:12:48Z</time>
      </trkpt>
      <trkpt lat="42.40412500000014" lon="1.5836800000000009">
        <ele>1710.733</ele>
        <time>2022-08-19T19:12:54Z</time>
      </trkpt>
      <trkpt lat="42.40415300000014" lon="1.583606000000001">
        <ele>1709.823</ele>
        <time>2022-08-19T19:12:57Z</time>
      </trkpt>
      <trkpt lat="42.404146000000146" lon="1.583546000000001">
        <ele>1709.115</ele>
        <time>2022-08-19T19:12:59Z</time>
      </trkpt>
      <trkpt lat="42.40412000000015" lon="1.583493000000001">
        <ele>1707.909</ele>
        <time>2022-08-19T19:13:03Z</time>
      </trkpt>
      <trkpt lat="42.404104000000146" lon="1.583434000000001">
        <ele>1706.954</ele>
        <time>2022-08-19T19:13:08Z</time>
      </trkpt>
      <trkpt lat="42.404147000000144" lon="1.583379000000001">
        <ele>1705.324</ele>
        <time>2022-08-19T19:13:12Z</time>
      </trkpt>
      <trkpt lat="42.40417100000015" lon="1.583266000000001">
        <ele>1703.254</ele>
        <time>2022-08-19T19:13:23Z</time>
      </trkpt>
      <trkpt lat="42.40417300000015" lon="1.583196000000001">
        <ele>1701.984</ele>
        <time>2022-08-19T19:13:26Z</time>
      </trkpt>
      <trkpt lat="42.40416900000015" lon="1.583130000000001">
        <ele>1701.271</ele>
        <time>2022-08-19T19:13:29Z</time>
      </trkpt>
      <trkpt lat="42.40419800000015" lon="1.5830750000000011">
        <ele>1700.927</ele>
        <time>2022-08-19T19:13:37Z</time>
      </trkpt>
      <trkpt lat="42.40425300000015" lon="1.5830500000000012">
        <ele>1700.287</ele>
        <time>2022-08-19T19:13:41Z</time>
      </trkpt>
      <trkpt lat="42.40424800000015" lon="1.582978000000001">
        <ele>1698.828</ele>
        <time>2022-08-19T19:13:45Z</time>
      </trkpt>
      <trkpt lat="42.40423200000015" lon="1.5829180000000012">
        <ele>1698.253</ele>
        <time>2022-08-19T19:13:47Z</time>
      </trkpt>
      <trkpt lat="42.40420400000015" lon="1.5828560000000012">
        <ele>1696.464</ele>
        <time>2022-08-19T19:13:51Z</time>
      </trkpt>
      <trkpt lat="42.40422000000015" lon="1.5827980000000013">
        <ele>1695.806</ele>
        <time>2022-08-19T19:13:54Z</time>
      </trkpt>
      <trkpt lat="42.40422900000015" lon="1.5827160000000013">
        <ele>1694.816</ele>
        <time>2022-08-19T19:13:58Z</time>
      </trkpt>
      <trkpt lat="42.40420300000015" lon="1.5826510000000014">
        <ele>1693.909</ele>
        <time>2022-08-19T19:14:02Z</time>
      </trkpt>
      <trkpt lat="42.40422600000015" lon="1.5825920000000013">
        <ele>1693.227</ele>
        <time>2022-08-19T19:14:05Z</time>
      </trkpt>
      <trkpt lat="42.404250000000154" lon="1.5825190000000013">
        <ele>1692.427</ele>
        <time>2022-08-19T19:14:08Z</time>
      </trkpt>
      <trkpt lat="42.40424200000015" lon="1.5824450000000014">
        <ele>1691.837</ele>
        <time>2022-08-19T19:14:11Z</time>
      </trkpt>
      <trkpt lat="42.404241000000155" lon="1.5823840000000013">
        <ele>1691.147</ele>
        <time>2022-08-19T19:14:13Z</time>
      </trkpt>
      <trkpt lat="42.404244000000155" lon="1.5823150000000012">
        <ele>1689.924</ele>
        <time>2022-08-19T19:14:17Z</time>
      </trkpt>
      <trkpt lat="42.40420000000015" lon="1.5822790000000013">
        <ele>1688.080</ele>
        <time>2022-08-19T19:14:22Z</time>
      </trkpt>
      <trkpt lat="42.40418700000015" lon="1.5822110000000014">
        <ele>1686.630</ele>
        <time>2022-08-19T19:14:26Z</time>
      </trkpt>
      <trkpt lat="42.40419300000015" lon="1.5821430000000014">
        <ele>1686.261</ele>
        <time>2022-08-19T19:14:28Z</time>
      </trkpt>
      <trkpt lat="42.40417900000015" lon="1.5820390000000013">
        <ele>1685.886</ele>
        <time>2022-08-19T19:14:30Z</time>
      </trkpt>
      <trkpt lat="42.40415000000015" lon="1.5819800000000013">
        <ele>1684.833</ele>
        <time>2022-08-19T19:14:33Z</time>
      </trkpt>
      <trkpt lat="42.40415400000015" lon="1.5819120000000013">
        <ele>1683.923</ele>
        <time>2022-08-19T19:14:36Z</time>
      </trkpt>
      <trkpt lat="42.40413700000015" lon="1.5818410000000014">
        <ele>1683.215</ele>
        <time>2022-08-19T19:14:38Z</time>
      </trkpt>
      <trkpt lat="42.404101000000146" lon="1.5817860000000015">
        <ele>1682.609</ele>
        <time>2022-08-19T19:14:41Z</time>
      </trkpt>
      <trkpt lat="42.404056000000146" lon="1.5817460000000014">
        <ele>1681.954</ele>
        <time>2022-08-19T19:14:45Z</time>
      </trkpt>
      <trkpt lat="42.40401500000014" lon="1.5817060000000014">
        <ele>1681.244</ele>
        <time>2022-08-19T19:14:50Z</time>
      </trkpt>
      <trkpt lat="42.40399800000014" lon="1.5816230000000013">
        <ele>1680.174</ele>
        <time>2022-08-19T19:14:56Z</time>
      </trkpt>
      <trkpt lat="42.403972000000145" lon="1.5815470000000014">
        <ele>1678.794</ele>
        <time>2022-08-19T19:15:03Z</time>
      </trkpt>
      <trkpt lat="42.403949000000146" lon="1.5814860000000013">
        <ele>1677.781</ele>
        <time>2022-08-19T19:15:06Z</time>
      </trkpt>
      <trkpt lat="42.403913000000145" lon="1.5814460000000012">
        <ele>1676.787</ele>
        <time>2022-08-19T19:15:09Z</time>
      </trkpt>
      <trkpt lat="42.40388000000014" lon="1.5814000000000012">
        <ele>1675.647</ele>
        <time>2022-08-19T19:15:13Z</time>
      </trkpt>
      <trkpt lat="42.403846000000144" lon="1.5813350000000013">
        <ele>1674.718</ele>
        <time>2022-08-19T19:15:18Z</time>
      </trkpt>
      <trkpt lat="42.40383200000014" lon="1.5812460000000013">
        <ele>1674.173</ele>
        <time>2022-08-19T19:15:20Z</time>
      </trkpt>
      <trkpt lat="42.403834000000145" lon="1.5811590000000013">
        <ele>1673.522</ele>
        <time>2022-08-19T19:15:22Z</time>
      </trkpt>
      <trkpt lat="42.403820000000145" lon="1.5810990000000014">
        <ele>1672.662</ele>
        <time>2022-08-19T19:15:24Z</time>
      </trkpt>
      <trkpt lat="42.40381100000015" lon="1.5810320000000013">
        <ele>1671.908</ele>
        <time>2022-08-19T19:15:28Z</time>
      </trkpt>
      <trkpt lat="42.40379000000015" lon="1.5809610000000014">
        <ele>1671.309</ele>
        <time>2022-08-19T19:15:31Z</time>
      </trkpt>
      <trkpt lat="42.40375000000015" lon="1.5809130000000013">
        <ele>1671.013</ele>
        <time>2022-08-19T19:15:34Z</time>
      </trkpt>
      <trkpt lat="42.40369500000015" lon="1.5808820000000015">
        <ele>1670.783</ele>
        <time>2022-08-19T19:15:38Z</time>
      </trkpt>
      <trkpt lat="42.40365600000015" lon="1.5808360000000015">
        <ele>1670.353</ele>
        <time>2022-08-19T19:15:42Z</time>
      </trkpt>
      <trkpt lat="42.403626000000145" lon="1.5807830000000014">
        <ele>1669.773</ele>
        <time>2022-08-19T19:15:45Z</time>
      </trkpt>
      <trkpt lat="42.40361100000015" lon="1.5807140000000013">
        <ele>1669.220</ele>
        <time>2022-08-19T19:15:48Z</time>
      </trkpt>
      <trkpt lat="42.40359000000015" lon="1.5806560000000014">
        <ele>1668.646</ele>
        <time>2022-08-19T19:15:53Z</time>
      </trkpt>
      <trkpt lat="42.40355300000015" lon="1.5806000000000013">
        <ele>1667.926</ele>
        <time>2022-08-19T19:15:58Z</time>
      </trkpt>
      <trkpt lat="42.403538000000154" lon="1.5805320000000014">
        <ele>1667.317</ele>
        <time>2022-08-19T19:16:04Z</time>
      </trkpt>
      <trkpt lat="42.403515000000155" lon="1.5804640000000014">
        <ele>1666.852</ele>
        <time>2022-08-19T19:16:09Z</time>
      </trkpt>
      <trkpt lat="42.403464000000156" lon="1.5804710000000015">
        <ele>1666.789</ele>
        <time>2022-08-19T19:16:11Z</time>
      </trkpt>
      <trkpt lat="42.40343200000016" lon="1.5804200000000015">
        <ele>1666.206</ele>
        <time>2022-08-19T19:16:15Z</time>
      </trkpt>
      <trkpt lat="42.40338000000016" lon="1.5803750000000014">
        <ele>1665.726</ele>
        <time>2022-08-19T19:16:18Z</time>
      </trkpt>
      <trkpt lat="42.403334000000164" lon="1.5803470000000015">
        <ele>1664.909</ele>
        <time>2022-08-19T19:16:21Z</time>
      </trkpt>
      <trkpt lat="42.40332400000016" lon="1.5802750000000014">
        <ele>1663.249</ele>
        <time>2022-08-19T19:16:26Z</time>
      </trkpt>
      <trkpt lat="42.40332200000016" lon="1.5802130000000014">
        <ele>1662.739</ele>
        <time>2022-08-19T19:16:28Z</time>
      </trkpt>
      <trkpt lat="42.40330900000016" lon="1.5801500000000015">
        <ele>1661.979</ele>
        <time>2022-08-19T19:16:31Z</time>
      </trkpt>
      <trkpt lat="42.403298000000156" lon="1.5800730000000014">
        <ele>1661.589</ele>
        <time>2022-08-19T19:16:35Z</time>
      </trkpt>
      <trkpt lat="42.403253000000156" lon="1.5800150000000015">
        <ele>1661.256</ele>
        <time>2022-08-19T19:16:38Z</time>
      </trkpt>
      <trkpt lat="42.403219000000156" lon="1.5799730000000014">
        <ele>1660.832</ele>
        <time>2022-08-19T19:16:41Z</time>
      </trkpt>
      <trkpt lat="42.40317100000016" lon="1.5799280000000013">
        <ele>1660.182</ele>
        <time>2022-08-19T19:16:45Z</time>
      </trkpt>
      <trkpt lat="42.403127000000154" lon="1.5798960000000013">
        <ele>1659.633</ele>
        <time>2022-08-19T19:16:49Z</time>
      </trkpt>
      <trkpt lat="42.403093000000155" lon="1.5798500000000013">
        <ele>1659.358</ele>
        <time>2022-08-19T19:16:53Z</time>
      </trkpt>
      <trkpt lat="42.40306300000015" lon="1.5798010000000013">
        <ele>1658.664</ele>
        <time>2022-08-19T19:16:59Z</time>
      </trkpt>
      <trkpt lat="42.40302400000015" lon="1.5797510000000012">
        <ele>1658.206</ele>
        <time>2022-08-19T19:17:05Z</time>
      </trkpt>
      <trkpt lat="42.402989000000154" lon="1.5796990000000013">
        <ele>1657.516</ele>
        <time>2022-08-19T19:17:11Z</time>
      </trkpt>
      <trkpt lat="42.40295400000016" lon="1.5796570000000012">
        <ele>1656.909</ele>
        <time>2022-08-19T19:17:17Z</time>
      </trkpt>
      <trkpt lat="42.402893000000155" lon="1.5796290000000013">
        <ele>1656.317</ele>
        <time>2022-08-19T19:17:21Z</time>
      </trkpt>
      <trkpt lat="42.40284100000016" lon="1.5796290000000013">
        <ele>1655.817</ele>
        <time>2022-08-19T19:17:23Z</time>
      </trkpt>
      <trkpt lat="42.40279900000016" lon="1.5796050000000013">
        <ele>1654.987</ele>
        <time>2022-08-19T19:17:27Z</time>
      </trkpt>
      <trkpt lat="42.402769000000156" lon="1.5795260000000013">
        <ele>1653.787</ele>
        <time>2022-08-19T19:17:30Z</time>
      </trkpt>
      <trkpt lat="42.40272200000015" lon="1.5795140000000014">
        <ele>1652.954</ele>
        <time>2022-08-19T19:17:36Z</time>
      </trkpt>
      <trkpt lat="42.40267500000015" lon="1.5794980000000014">
        <ele>1651.520</ele>
        <time>2022-08-19T19:17:50Z</time>
      </trkpt>
      <trkpt lat="42.40261700000015" lon="1.5794930000000014">
        <ele>1651.370</ele>
        <time>2022-08-19T19:17:53Z</time>
      </trkpt>
      <trkpt lat="42.40256000000015" lon="1.5795160000000015">
        <ele>1651.051</ele>
        <time>2022-08-19T19:17:56Z</time>
      </trkpt>
      <trkpt lat="42.40251300000015" lon="1.5795080000000015">
        <ele>1650.826</ele>
        <time>2022-08-19T19:17:59Z</time>
      </trkpt>
      <trkpt lat="42.40245400000015" lon="1.5794640000000015">
        <ele>1649.933</ele>
        <time>2022-08-19T19:18:04Z</time>
      </trkpt>
      <trkpt lat="42.40241200000015" lon="1.5794170000000016">
        <ele>1649.723</ele>
        <time>2022-08-19T19:18:08Z</time>
      </trkpt>
      <trkpt lat="42.40236700000015" lon="1.5793750000000015">
        <ele>1649.715</ele>
        <time>2022-08-19T19:18:13Z</time>
      </trkpt>
      <trkpt lat="42.40231500000015" lon="1.5793480000000015">
        <ele>1649.509</ele>
        <time>2022-08-19T19:18:17Z</time>
      </trkpt>
      <trkpt lat="42.402311000000154" lon="1.5792750000000015">
        <ele>1649.054</ele>
        <time>2022-08-19T19:18:20Z</time>
      </trkpt>
      <trkpt lat="42.402282000000156" lon="1.5792240000000015">
        <ele>1648.324</ele>
        <time>2022-08-19T19:18:27Z</time>
      </trkpt>
      <trkpt lat="42.40223800000015" lon="1.5792050000000015">
        <ele>1647.334</ele>
        <time>2022-08-19T19:18:32Z</time>
      </trkpt>
      <trkpt lat="42.40219400000015" lon="1.5791800000000016">
        <ele>1646.464</ele>
        <time>2022-08-19T19:18:38Z</time>
      </trkpt>
      <trkpt lat="42.40218400000015" lon="1.5791190000000015">
        <ele>1645.961</ele>
        <time>2022-08-19T19:18:42Z</time>
      </trkpt>
      <trkpt lat="42.40212800000015" lon="1.5791260000000016">
        <ele>1641.267</ele>
        <time>2022-08-19T19:20:00Z</time>
      </trkpt>
      <trkpt lat="42.402087000000144" lon="1.5790710000000017">
        <ele>1641.237</ele>
        <time>2022-08-19T19:20:03Z</time>
      </trkpt>
      <trkpt lat="42.40204500000014" lon="1.5790210000000016">
        <ele>1641.268</ele>
        <time>2022-08-19T19:20:06Z</time>
      </trkpt>
      <trkpt lat="42.402008000000144" lon="1.5789780000000015">
        <ele>1641.143</ele>
        <time>2022-08-19T19:20:09Z</time>
      </trkpt>
      <trkpt lat="42.40195800000014" lon="1.5789650000000015">
        <ele>1639.169</ele>
        <time>2022-08-19T19:20:15Z</time>
      </trkpt>
      <trkpt lat="42.401923000000146" lon="1.5789230000000014">
        <ele>1638.404</ele>
        <time>2022-08-19T19:20:18Z</time>
      </trkpt>
      <trkpt lat="42.40188000000015" lon="1.5788970000000013">
        <ele>1637.524</ele>
        <time>2022-08-19T19:20:24Z</time>
      </trkpt>
      <trkpt lat="42.40185200000015" lon="1.5788370000000014">
        <ele>1636.709</ele>
        <time>2022-08-19T19:20:29Z</time>
      </trkpt>
      <trkpt lat="42.40180000000015" lon="1.5787850000000014">
        <ele>1635.927</ele>
        <time>2022-08-19T19:20:33Z</time>
      </trkpt>
      <trkpt lat="42.40174000000015" lon="1.5787960000000014">
        <ele>1634.027</ele>
        <time>2022-08-19T19:20:36Z</time>
      </trkpt>
      <trkpt lat="42.40168100000015" lon="1.5787710000000015">
        <ele>1633.377</ele>
        <time>2022-08-19T19:20:40Z</time>
      </trkpt>
      <trkpt lat="42.40165100000015" lon="1.5787210000000014">
        <ele>1632.167</ele>
        <time>2022-08-19T19:20:44Z</time>
      </trkpt>
      <trkpt lat="42.40160200000015" lon="1.5786930000000015">
        <ele>1630.954</ele>
        <time>2022-08-19T19:20:48Z</time>
      </trkpt>
      <trkpt lat="42.401551000000154" lon="1.5786700000000013">
        <ele>1629.170</ele>
        <time>2022-08-19T19:20:57Z</time>
      </trkpt>
      <trkpt lat="42.40153800000015" lon="1.5786100000000014">
        <ele>1628.530</ele>
        <time>2022-08-19T19:21:00Z</time>
      </trkpt>
      <trkpt lat="42.40150200000015" lon="1.5785480000000014">
        <ele>1627.621</ele>
        <time>2022-08-19T19:21:04Z</time>
      </trkpt>
      <trkpt lat="42.40145700000015" lon="1.5785260000000014">
        <ele>1626.796</ele>
        <time>2022-08-19T19:21:08Z</time>
      </trkpt>
      <trkpt lat="42.40140400000015" lon="1.5785220000000015">
        <ele>1624.235</ele>
        <time>2022-08-19T19:21:16Z</time>
      </trkpt>
      <trkpt lat="42.40134700000015" lon="1.5784930000000015">
        <ele>1623.186</ele>
        <time>2022-08-19T19:21:20Z</time>
      </trkpt>
      <trkpt lat="42.40129300000015" lon="1.5784750000000014">
        <ele>1622.214</ele>
        <time>2022-08-19T19:21:24Z</time>
      </trkpt>
      <trkpt lat="42.401264000000154" lon="1.5784270000000014">
        <ele>1621.309</ele>
        <time>2022-08-19T19:21:29Z</time>
      </trkpt>
      <trkpt lat="42.40122600000015" lon="1.5783790000000013">
        <ele>1619.524</ele>
        <time>2022-08-19T19:21:35Z</time>
      </trkpt>
      <trkpt lat="42.401174000000154" lon="1.5783700000000014">
        <ele>1619.044</ele>
        <time>2022-08-19T19:21:38Z</time>
      </trkpt>
      <trkpt lat="42.40113000000015" lon="1.5783800000000014">
        <ele>1618.444</ele>
        <time>2022-08-19T19:21:41Z</time>
      </trkpt>
      <trkpt lat="42.40110600000015" lon="1.5783080000000014">
        <ele>1617.634</ele>
        <time>2022-08-19T19:21:46Z</time>
      </trkpt>
      <trkpt lat="42.401079000000145" lon="1.5782540000000014">
        <ele>1616.881</ele>
        <time>2022-08-19T19:21:49Z</time>
      </trkpt>
      <trkpt lat="42.40105300000015" lon="1.5781990000000015">
        <ele>1615.377</ele>
        <time>2022-08-19T19:21:54Z</time>
      </trkpt>
      <trkpt lat="42.400994000000146" lon="1.5781990000000015">
        <ele>1613.957</ele>
        <time>2022-08-19T19:22:00Z</time>
      </trkpt>
      <trkpt lat="42.400935000000146" lon="1.5782230000000015">
        <ele>1612.958</ele>
        <time>2022-08-19T19:22:04Z</time>
      </trkpt>
      <trkpt lat="42.40088300000015" lon="1.5781760000000016">
        <ele>1611.983</ele>
        <time>2022-08-19T19:22:08Z</time>
      </trkpt>
      <trkpt lat="42.40084200000015" lon="1.5781500000000015">
        <ele>1610.835</ele>
        <time>2022-08-19T19:22:11Z</time>
      </trkpt>
      <trkpt lat="42.400797000000146" lon="1.5781090000000015">
        <ele>1609.486</ele>
        <time>2022-08-19T19:22:15Z</time>
      </trkpt>
      <trkpt lat="42.40074500000015" lon="1.5780870000000016">
        <ele>1608.714</ele>
        <time>2022-08-19T19:22:18Z</time>
      </trkpt>
      <trkpt lat="42.40070300000015" lon="1.5780370000000015">
        <ele>1607.809</ele>
        <time>2022-08-19T19:22:21Z</time>
      </trkpt>
      <trkpt lat="42.40066100000015" lon="1.5779930000000015">
        <ele>1606.684</ele>
        <time>2022-08-19T19:22:25Z</time>
      </trkpt>
      <trkpt lat="42.40065200000015" lon="1.5779210000000015">
        <ele>1605.524</ele>
        <time>2022-08-19T19:22:29Z</time>
      </trkpt>
      <trkpt lat="42.40067100000015" lon="1.5778590000000015">
        <ele>1604.824</ele>
        <time>2022-08-19T19:22:32Z</time>
      </trkpt>
      <trkpt lat="42.40065100000015" lon="1.5777920000000014">
        <ele>1603.674</ele>
        <time>2022-08-19T19:22:37Z</time>
      </trkpt>
      <trkpt lat="42.40060300000015" lon="1.5777620000000014">
        <ele>1601.791</ele>
        <time>2022-08-19T19:22:42Z</time>
      </trkpt>
      <trkpt lat="42.40055600000015" lon="1.5777420000000015">
        <ele>1601.227</ele>
        <time>2022-08-19T19:22:46Z</time>
      </trkpt>
      <trkpt lat="42.400507000000154" lon="1.5776990000000015">
        <ele>1600.687</ele>
        <time>2022-08-19T19:22:50Z</time>
      </trkpt>
      <trkpt lat="42.400470000000155" lon="1.5776560000000015">
        <ele>1600.278</ele>
        <time>2022-08-19T19:22:53Z</time>
      </trkpt>
      <trkpt lat="42.400430000000156" lon="1.5776140000000014">
        <ele>1599.273</ele>
        <time>2022-08-19T19:22:57Z</time>
      </trkpt>
      <trkpt lat="42.400431000000154" lon="1.5775310000000013">
        <ele>1598.118</ele>
        <time>2022-08-19T19:23:03Z</time>
      </trkpt>
      <trkpt lat="42.40042100000015" lon="1.5774630000000014">
        <ele>1597.198</ele>
        <time>2022-08-19T19:23:08Z</time>
      </trkpt>
      <trkpt lat="42.40039700000015" lon="1.5773970000000015">
        <ele>1596.017</ele>
        <time>2022-08-19T19:23:13Z</time>
      </trkpt>
      <trkpt lat="42.40035400000015" lon="1.5773580000000016">
        <ele>1595.109</ele>
        <time>2022-08-19T19:23:17Z</time>
      </trkpt>
      <trkpt lat="42.40038000000015" lon="1.5772910000000016">
        <ele>1593.882</ele>
        <time>2022-08-19T19:23:22Z</time>
      </trkpt>
      <trkpt lat="42.40034800000015" lon="1.5772410000000014">
        <ele>1592.632</ele>
        <time>2022-08-19T19:23:27Z</time>
      </trkpt>
      <trkpt lat="42.40035300000015" lon="1.5771660000000014">
        <ele>1590.992</ele>
        <time>2022-08-19T19:23:34Z</time>
      </trkpt>
      <trkpt lat="42.400332000000155" lon="1.5771020000000013">
        <ele>1589.822</ele>
        <time>2022-08-19T19:23:37Z</time>
      </trkpt>
      <trkpt lat="42.40028300000016" lon="1.5770950000000012">
        <ele>1587.029</ele>
        <time>2022-08-19T19:23:45Z</time>
      </trkpt>
      <trkpt lat="42.40022400000016" lon="1.5771020000000013">
        <ele>1586.755</ele>
        <time>2022-08-19T19:23:48Z</time>
      </trkpt>
      <trkpt lat="42.40017300000016" lon="1.5771320000000013">
        <ele>1586.435</ele>
        <time>2022-08-19T19:23:51Z</time>
      </trkpt>
      <trkpt lat="42.40012000000016" lon="1.5771040000000014">
        <ele>1586.396</ele>
        <time>2022-08-19T19:23:54Z</time>
      </trkpt>
      <trkpt lat="42.40008800000016" lon="1.5770450000000014">
        <ele>1586.191</ele>
        <time>2022-08-19T19:23:57Z</time>
      </trkpt>
      <trkpt lat="42.40012200000016" lon="1.5769980000000015">
        <ele>1585.566</ele>
        <time>2022-08-19T19:24:03Z</time>
      </trkpt>
      <trkpt lat="42.40016000000016" lon="1.5769520000000015">
        <ele>1585.029</ele>
        <time>2022-08-19T19:24:07Z</time>
      </trkpt>
      <trkpt lat="42.400154000000164" lon="1.5768830000000014">
        <ele>1583.921</ele>
        <time>2022-08-19T19:24:13Z</time>
      </trkpt>
      <trkpt lat="42.40010200000017" lon="1.5768520000000015">
        <ele>1582.909</ele>
        <time>2022-08-19T19:24:21Z</time>
      </trkpt>
      <trkpt lat="42.400086000000165" lon="1.5767850000000014">
        <ele>1581.727</ele>
        <time>2022-08-19T19:24:27Z</time>
      </trkpt>
      <trkpt lat="42.40005300000016" lon="1.5767320000000014">
        <ele>1580.767</ele>
        <time>2022-08-19T19:24:33Z</time>
      </trkpt>
      <trkpt lat="42.39999800000016" lon="1.5767340000000014">
        <ele>1579.747</ele>
        <time>2022-08-19T19:24:38Z</time>
      </trkpt>
      <trkpt lat="42.40000200000016" lon="1.5768040000000014">
        <ele>1577.587</ele>
        <time>2022-08-19T19:24:48Z</time>
      </trkpt>
      <trkpt lat="42.39996200000016" lon="1.5767560000000014">
        <ele>1577.224</ele>
        <time>2022-08-19T19:24:51Z</time>
      </trkpt>
      <trkpt lat="42.399890000000156" lon="1.5767200000000015">
        <ele>1576.360</ele>
        <time>2022-08-19T19:24:53Z</time>
      </trkpt>
      <trkpt lat="42.39984400000016" lon="1.5767180000000014">
        <ele>1575.540</ele>
        <time>2022-08-19T19:24:55Z</time>
      </trkpt>
      <trkpt lat="42.399806000000154" lon="1.5766850000000014">
        <ele>1574.451</ele>
        <time>2022-08-19T19:24:59Z</time>
      </trkpt>
      <trkpt lat="42.399747000000154" lon="1.5766420000000014">
        <ele>1573.186</ele>
        <time>2022-08-19T19:25:02Z</time>
      </trkpt>
      <trkpt lat="42.399687000000156" lon="1.5765910000000014">
        <ele>1572.341</ele>
        <time>2022-08-19T19:25:04Z</time>
      </trkpt>
      <trkpt lat="42.39964400000016" lon="1.5765570000000013">
        <ele>1571.981</ele>
        <time>2022-08-19T19:25:06Z</time>
      </trkpt>
      <trkpt lat="42.399603000000155" lon="1.5765210000000014">
        <ele>1571.109</ele>
        <time>2022-08-19T19:25:09Z</time>
      </trkpt>
      <trkpt lat="42.399564000000154" lon="1.5765570000000013">
        <ele>1570.009</ele>
        <time>2022-08-19T19:25:13Z</time>
      </trkpt>
      <trkpt lat="42.399541000000156" lon="1.5764980000000013">
        <ele>1568.835</ele>
        <time>2022-08-19T19:25:19Z</time>
      </trkpt>
      <trkpt lat="42.399485000000155" lon="1.5765030000000013">
        <ele>1566.915</ele>
        <time>2022-08-19T19:25:29Z</time>
      </trkpt>
      <trkpt lat="42.39944100000015" lon="1.5764900000000013">
        <ele>1566.485</ele>
        <time>2022-08-19T19:25:31Z</time>
      </trkpt>
      <trkpt lat="42.399398000000154" lon="1.5764710000000013">
        <ele>1565.325</ele>
        <time>2022-08-19T19:25:34Z</time>
      </trkpt>
      <trkpt lat="42.39937300000015" lon="1.5764130000000014">
        <ele>1564.432</ele>
        <time>2022-08-19T19:25:39Z</time>
      </trkpt>
      <trkpt lat="42.39931800000015" lon="1.5763940000000014">
        <ele>1563.558</ele>
        <time>2022-08-19T19:25:43Z</time>
      </trkpt>
      <trkpt lat="42.39926500000015" lon="1.5763800000000014">
        <ele>1563.458</ele>
        <time>2022-08-19T19:25:47Z</time>
      </trkpt>
      <trkpt lat="42.39922600000015" lon="1.5763480000000014">
        <ele>1563.389</ele>
        <time>2022-08-19T19:25:50Z</time>
      </trkpt>
      <trkpt lat="42.39919100000015" lon="1.5763040000000015">
        <ele>1563.054</ele>
        <time>2022-08-19T19:25:54Z</time>
      </trkpt>
      <trkpt lat="42.39914900000015" lon="1.5762660000000015">
        <ele>1562.175</ele>
        <time>2022-08-19T19:25:59Z</time>
      </trkpt>
      <trkpt lat="42.39911000000015" lon="1.5762240000000014">
        <ele>1561.028</ele>
        <time>2022-08-19T19:26:04Z</time>
      </trkpt>
      <trkpt lat="42.39907500000015" lon="1.5761670000000014">
        <ele>1559.720</ele>
        <time>2022-08-19T19:26:10Z</time>
      </trkpt>
      <trkpt lat="42.39903700000015" lon="1.5761140000000013">
        <ele>1558.709</ele>
        <time>2022-08-19T19:26:14Z</time>
      </trkpt>
      <trkpt lat="42.39899100000015" lon="1.5760930000000013">
        <ele>1557.328</ele>
        <time>2022-08-19T19:26:20Z</time>
      </trkpt>
      <trkpt lat="42.39893400000015" lon="1.5761230000000013">
        <ele>1555.438</ele>
        <time>2022-08-19T19:26:27Z</time>
      </trkpt>
      <trkpt lat="42.398891000000155" lon="1.5761680000000013">
        <ele>1554.268</ele>
        <time>2022-08-19T19:26:30Z</time>
      </trkpt>
      <trkpt lat="42.398841000000154" lon="1.5761560000000014">
        <ele>1552.948</ele>
        <time>2022-08-19T19:26:32Z</time>
      </trkpt>
      <trkpt lat="42.398793000000154" lon="1.5761540000000014">
        <ele>1551.845</ele>
        <time>2022-08-19T19:26:35Z</time>
      </trkpt>
      <trkpt lat="42.398742000000155" lon="1.5761120000000013">
        <ele>1550.441</ele>
        <time>2022-08-19T19:26:39Z</time>
      </trkpt>
      <trkpt lat="42.39869600000016" lon="1.5761020000000012">
        <ele>1548.691</ele>
        <time>2022-08-19T19:26:43Z</time>
      </trkpt>
      <trkpt lat="42.398649000000155" lon="1.5760910000000012">
        <ele>1548.072</ele>
        <time>2022-08-19T19:26:49Z</time>
      </trkpt>
      <trkpt lat="42.39859100000015" lon="1.5761190000000012">
        <ele>1547.477</ele>
        <time>2022-08-19T19:26:55Z</time>
      </trkpt>
      <trkpt lat="42.398562000000155" lon="1.5761700000000012">
        <ele>1546.737</ele>
        <time>2022-08-19T19:26:58Z</time>
      </trkpt>
      <trkpt lat="42.39851900000016" lon="1.5761330000000011">
        <ele>1546.049</ele>
        <time>2022-08-19T19:27:04Z</time>
      </trkpt>
      <trkpt lat="42.39846400000015" lon="1.576152000000001">
        <ele>1545.713</ele>
        <time>2022-08-19T19:27:06Z</time>
      </trkpt>
      <trkpt lat="42.39841900000015" lon="1.5761860000000012">
        <ele>1544.909</ele>
        <time>2022-08-19T19:27:09Z</time>
      </trkpt>
      <trkpt lat="42.39836100000015" lon="1.576179000000001">
        <ele>1544.184</ele>
        <time>2022-08-19T19:27:13Z</time>
      </trkpt>
      <trkpt lat="42.39831600000015" lon="1.5761700000000012">
        <ele>1543.834</ele>
        <time>2022-08-19T19:27:16Z</time>
      </trkpt>
      <trkpt lat="42.39827100000015" lon="1.5761570000000011">
        <ele>1543.534</ele>
        <time>2022-08-19T19:27:20Z</time>
      </trkpt>
      <trkpt lat="42.39823300000015" lon="1.5761990000000012">
        <ele>1543.554</ele>
        <time>2022-08-19T19:27:25Z</time>
      </trkpt>
      <trkpt lat="42.39818500000015" lon="1.5762290000000012">
        <ele>1543.531</ele>
        <time>2022-08-19T19:27:29Z</time>
      </trkpt>
      <trkpt lat="42.398138000000145" lon="1.5762380000000011">
        <ele>1543.677</ele>
        <time>2022-08-19T19:27:35Z</time>
      </trkpt>
      <trkpt lat="42.39809800000015" lon="1.576201000000001">
        <ele>1543.857</ele>
        <time>2022-08-19T19:27:39Z</time>
      </trkpt>
      <trkpt lat="42.39804100000015" lon="1.5761680000000011">
        <ele>1544.188</ele>
        <time>2022-08-19T19:27:42Z</time>
      </trkpt>
      <trkpt lat="42.397986000000145" lon="1.5761410000000011">
        <ele>1544.213</ele>
        <time>2022-08-19T19:27:46Z</time>
      </trkpt>
      <trkpt lat="42.39792300000015" lon="1.576115000000001">
        <ele>1544.253</ele>
        <time>2022-08-19T19:27:49Z</time>
      </trkpt>
      <trkpt lat="42.39786900000015" lon="1.576123000000001">
        <ele>1543.804</ele>
        <time>2022-08-19T19:27:53Z</time>
      </trkpt>
      <trkpt lat="42.39782000000015" lon="1.576117000000001">
        <ele>1543.014</ele>
        <time>2022-08-19T19:27:57Z</time>
      </trkpt>
      <trkpt lat="42.397780000000154" lon="1.5760680000000011">
        <ele>1542.309</ele>
        <time>2022-08-19T19:28:02Z</time>
      </trkpt>
      <trkpt lat="42.39773000000015" lon="1.576074000000001">
        <ele>1541.746</ele>
        <time>2022-08-19T19:28:06Z</time>
      </trkpt>
      <trkpt lat="42.39768900000015" lon="1.5760330000000011">
        <ele>1541.036</ele>
        <time>2022-08-19T19:28:10Z</time>
      </trkpt>
      <trkpt lat="42.39763500000015" lon="1.5760290000000012">
        <ele>1539.196</ele>
        <time>2022-08-19T19:28:22Z</time>
      </trkpt>
      <trkpt lat="42.39758700000015" lon="1.5760400000000012">
        <ele>1538.756</ele>
        <time>2022-08-19T19:28:36Z</time>
      </trkpt>
      <trkpt lat="42.39757400000015" lon="1.5759790000000011">
        <ele>1538.573</ele>
        <time>2022-08-19T19:28:42Z</time>
      </trkpt>
      <trkpt lat="42.397558000000146" lon="1.575915000000001">
        <ele>1537.979</ele>
        <time>2022-08-19T19:28:54Z</time>
      </trkpt>
      <trkpt lat="42.39750600000015" lon="1.575926000000001">
        <ele>1536.699</ele>
        <time>2022-08-19T19:28:57Z</time>
      </trkpt>
      <trkpt lat="42.39744100000015" lon="1.575899000000001">
        <ele>1535.990</ele>
        <time>2022-08-19T19:28:59Z</time>
      </trkpt>
      <trkpt lat="42.39738300000015" lon="1.575888000000001">
        <ele>1534.355</ele>
        <time>2022-08-19T19:29:02Z</time>
      </trkpt>
      <trkpt lat="42.397333000000145" lon="1.575888000000001">
        <ele>1532.798</ele>
        <time>2022-08-19T19:29:07Z</time>
      </trkpt>
      <trkpt lat="42.397282000000146" lon="1.575885000000001">
        <ele>1530.615</ele>
        <time>2022-08-19T19:29:14Z</time>
      </trkpt>
      <trkpt lat="42.39723300000015" lon="1.5758490000000012">
        <ele>1529.726</ele>
        <time>2022-08-19T19:29:20Z</time>
      </trkpt>
      <trkpt lat="42.39718700000015" lon="1.5758000000000012">
        <ele>1529.209</ele>
        <time>2022-08-19T19:29:22Z</time>
      </trkpt>
      <trkpt lat="42.39714300000015" lon="1.5757820000000011">
        <ele>1528.750</ele>
        <time>2022-08-19T19:29:24Z</time>
      </trkpt>
      <trkpt lat="42.39708700000015" lon="1.5757520000000012">
        <ele>1527.640</ele>
        <time>2022-08-19T19:29:27Z</time>
      </trkpt>
      <trkpt lat="42.397043000000146" lon="1.575718000000001">
        <ele>1525.420</ele>
        <time>2022-08-19T19:29:31Z</time>
      </trkpt>
      <trkpt lat="42.396993000000144" lon="1.575691000000001">
        <ele>1523.480</ele>
        <time>2022-08-19T19:29:37Z</time>
      </trkpt>
      <trkpt lat="42.39697200000015" lon="1.5756360000000011">
        <ele>1522.557</ele>
        <time>2022-08-19T19:29:41Z</time>
      </trkpt>
      <trkpt lat="42.39691300000015" lon="1.5756380000000012">
        <ele>1521.553</ele>
        <time>2022-08-19T19:29:46Z</time>
      </trkpt>
      <trkpt lat="42.39686800000015" lon="1.575650000000001">
        <ele>1519.453</ele>
        <time>2022-08-19T19:29:49Z</time>
      </trkpt>
      <trkpt lat="42.39682200000015" lon="1.575640000000001">
        <ele>1518.764</ele>
        <time>2022-08-19T19:29:54Z</time>
      </trkpt>
      <trkpt lat="42.39676500000015" lon="1.575651000000001">
        <ele>1516.259</ele>
        <time>2022-08-19T19:30:04Z</time>
      </trkpt>
      <trkpt lat="42.396716000000154" lon="1.575628000000001">
        <ele>1515.023</ele>
        <time>2022-08-19T19:30:08Z</time>
      </trkpt>
      <trkpt lat="42.39667000000016" lon="1.5756370000000008">
        <ele>1514.383</ele>
        <time>2022-08-19T19:30:12Z</time>
      </trkpt>
      <trkpt lat="42.396629000000154" lon="1.5756730000000008">
        <ele>1513.811</ele>
        <time>2022-08-19T19:30:17Z</time>
      </trkpt>
      <trkpt lat="42.396600000000156" lon="1.5757190000000008">
        <ele>1513.009</ele>
        <time>2022-08-19T19:30:23Z</time>
      </trkpt>
      <trkpt lat="42.39654200000015" lon="1.5757010000000007">
        <ele>1511.753</ele>
        <time>2022-08-19T19:30:29Z</time>
      </trkpt>
      <trkpt lat="42.396488000000154" lon="1.5757150000000006">
        <ele>1511.033</ele>
        <time>2022-08-19T19:30:32Z</time>
      </trkpt>
      <trkpt lat="42.396460000000154" lon="1.5757720000000006">
        <ele>1509.873</ele>
        <time>2022-08-19T19:30:40Z</time>
      </trkpt>
      <trkpt lat="42.39640500000015" lon="1.5757610000000006">
        <ele>1508.733</ele>
        <time>2022-08-19T19:30:47Z</time>
      </trkpt>
      <trkpt lat="42.39636100000015" lon="1.5757200000000007">
        <ele>1506.990</ele>
        <time>2022-08-19T19:30:49Z</time>
      </trkpt>
      <trkpt lat="42.39630500000015" lon="1.5756810000000008">
        <ele>1505.776</ele>
        <time>2022-08-19T19:30:52Z</time>
      </trkpt>
      <trkpt lat="42.39625600000015" lon="1.5756590000000008">
        <ele>1504.596</ele>
        <time>2022-08-19T19:30:58Z</time>
      </trkpt>
      <trkpt lat="42.39620900000015" lon="1.575628000000001">
        <ele>1502.397</ele>
        <time>2022-08-19T19:31:06Z</time>
      </trkpt>
      <trkpt lat="42.39616600000015" lon="1.5756560000000008">
        <ele>1501.222</ele>
        <time>2022-08-19T19:31:13Z</time>
      </trkpt>
      <trkpt lat="42.39612000000015" lon="1.5756890000000008">
        <ele>1499.949</ele>
        <time>2022-08-19T19:31:20Z</time>
      </trkpt>
      <trkpt lat="42.396043000000155" lon="1.5757050000000008">
        <ele>1499.002</ele>
        <time>2022-08-19T19:31:27Z</time>
      </trkpt>
      <trkpt lat="42.39599100000016" lon="1.5757310000000009">
        <ele>1497.622</ele>
        <time>2022-08-19T19:31:30Z</time>
      </trkpt>
      <trkpt lat="42.395922000000155" lon="1.575768000000001">
        <ele>1496.309</ele>
        <time>2022-08-19T19:31:33Z</time>
      </trkpt>
      <trkpt lat="42.395877000000155" lon="1.575776000000001">
        <ele>1494.655</ele>
        <time>2022-08-19T19:31:35Z</time>
      </trkpt>
      <trkpt lat="42.395823000000156" lon="1.575759000000001">
        <ele>1493.455</ele>
        <time>2022-08-19T19:31:38Z</time>
      </trkpt>
      <trkpt lat="42.395778000000156" lon="1.575796000000001">
        <ele>1492.595</ele>
        <time>2022-08-19T19:31:45Z</time>
      </trkpt>
      <trkpt lat="42.395728000000155" lon="1.5758250000000011">
        <ele>1490.825</ele>
        <time>2022-08-19T19:31:51Z</time>
      </trkpt>
      <trkpt lat="42.39568500000016" lon="1.5758550000000011">
        <ele>1490.152</ele>
        <time>2022-08-19T19:31:56Z</time>
      </trkpt>
      <trkpt lat="42.39565100000016" lon="1.575804000000001">
        <ele>1488.838</ele>
        <time>2022-08-19T19:32:04Z</time>
      </trkpt>
      <trkpt lat="42.39558800000016" lon="1.5757650000000012">
        <ele>1487.648</ele>
        <time>2022-08-19T19:32:10Z</time>
      </trkpt>
      <trkpt lat="42.39553300000016" lon="1.5757730000000012">
        <ele>1485.879</ele>
        <time>2022-08-19T19:32:13Z</time>
      </trkpt>
      <trkpt lat="42.39548800000016" lon="1.5757590000000012">
        <ele>1484.724</ele>
        <time>2022-08-19T19:32:16Z</time>
      </trkpt>
      <trkpt lat="42.39544800000016" lon="1.5757130000000013">
        <ele>1483.383</ele>
        <time>2022-08-19T19:32:20Z</time>
      </trkpt>
      <trkpt lat="42.39542500000016" lon="1.5757700000000012">
        <ele>1480.525</ele>
        <time>2022-08-19T19:32:28Z</time>
      </trkpt>
      <trkpt lat="42.39537300000016" lon="1.5757760000000012">
        <ele>1479.517</ele>
        <time>2022-08-19T19:32:33Z</time>
      </trkpt>
      <trkpt lat="42.395313000000165" lon="1.5758000000000012">
        <ele>1478.609</ele>
        <time>2022-08-19T19:32:36Z</time>
      </trkpt>
      <trkpt lat="42.39528600000016" lon="1.5757510000000012">
        <ele>1476.879</ele>
        <time>2022-08-19T19:32:43Z</time>
      </trkpt>
      <trkpt lat="42.39507200000016" lon="1.5758270000000012">
        <ele>1472.959</ele>
        <time>2022-08-19T19:32:59Z</time>
      </trkpt>
      <trkpt lat="42.39503300000016" lon="1.5757890000000012">
        <ele>1471.319</ele>
        <time>2022-08-19T19:33:05Z</time>
      </trkpt>
      <trkpt lat="42.395029000000164" lon="1.5757060000000012">
        <ele>1470.189</ele>
        <time>2022-08-19T19:33:10Z</time>
      </trkpt>
      <trkpt lat="42.395023000000165" lon="1.5756430000000012">
        <ele>1469.716</ele>
        <time>2022-08-19T19:33:13Z</time>
      </trkpt>
      <trkpt lat="42.394992000000165" lon="1.5755890000000012">
        <ele>1469.162</ele>
        <time>2022-08-19T19:33:17Z</time>
      </trkpt>
      <trkpt lat="42.394941000000166" lon="1.5755740000000011">
        <ele>1468.722</ele>
        <time>2022-08-19T19:33:20Z</time>
      </trkpt>
      <trkpt lat="42.39488600000016" lon="1.5755620000000012">
        <ele>1467.683</ele>
        <time>2022-08-19T19:33:23Z</time>
      </trkpt>
      <trkpt lat="42.394826000000165" lon="1.5755690000000013">
        <ele>1465.838</ele>
        <time>2022-08-19T19:33:29Z</time>
      </trkpt>
      <trkpt lat="42.39477400000017" lon="1.5755860000000013">
        <ele>1464.666</ele>
        <time>2022-08-19T19:33:33Z</time>
      </trkpt>
      <trkpt lat="42.39472100000017" lon="1.5755540000000012">
        <ele>1463.529</ele>
        <time>2022-08-19T19:33:36Z</time>
      </trkpt>
      <trkpt lat="42.39469800000017" lon="1.5754910000000013">
        <ele>1462.521</ele>
        <time>2022-08-19T19:33:39Z</time>
      </trkpt>
      <trkpt lat="42.39466700000017" lon="1.5754390000000014">
        <ele>1461.209</ele>
        <time>2022-08-19T19:33:44Z</time>
      </trkpt>
      <trkpt lat="42.39461300000017" lon="1.5754520000000014">
        <ele>1460.347</ele>
        <time>2022-08-19T19:33:47Z</time>
      </trkpt>
      <trkpt lat="42.39456900000017" lon="1.5754230000000014">
        <ele>1458.057</ele>
        <time>2022-08-19T19:33:51Z</time>
      </trkpt>
      <trkpt lat="42.39450700000017" lon="1.5754080000000013">
        <ele>1456.567</ele>
        <time>2022-08-19T19:34:06Z</time>
      </trkpt>
      <trkpt lat="42.394460000000166" lon="1.5754010000000012">
        <ele>1455.927</ele>
        <time>2022-08-19T19:34:09Z</time>
      </trkpt>
      <trkpt lat="42.39442200000016" lon="1.5754390000000011">
        <ele>1453.664</ele>
        <time>2022-08-19T19:34:20Z</time>
      </trkpt>
      <trkpt lat="42.39440300000016" lon="1.5755120000000011">
        <ele>1451.750</ele>
        <time>2022-08-19T19:34:27Z</time>
      </trkpt>
      <trkpt lat="42.39431500000016" lon="1.5755460000000012">
        <ele>1450.910</ele>
        <time>2022-08-19T19:34:29Z</time>
      </trkpt>
      <trkpt lat="42.39425300000016" lon="1.5755600000000012">
        <ele>1450.231</ele>
        <time>2022-08-19T19:34:31Z</time>
      </trkpt>
      <trkpt lat="42.394190000000165" lon="1.5755470000000011">
        <ele>1449.016</ele>
        <time>2022-08-19T19:34:33Z</time>
      </trkpt>
      <trkpt lat="42.39412900000016" lon="1.5755410000000012">
        <ele>1447.584</ele>
        <time>2022-08-19T19:34:38Z</time>
      </trkpt>
      <trkpt lat="42.39410400000016" lon="1.5754860000000013">
        <ele>1446.907</ele>
        <time>2022-08-19T19:34:44Z</time>
      </trkpt>
      <trkpt lat="42.39407600000016" lon="1.5754370000000013">
        <ele>1446.817</ele>
        <time>2022-08-19T19:34:49Z</time>
      </trkpt>
      <trkpt lat="42.39402600000016" lon="1.5754050000000013">
        <ele>1446.009</ele>
        <time>2022-08-19T19:35:02Z</time>
      </trkpt>
      <trkpt lat="42.39399200000016" lon="1.5753420000000014">
        <ele>1445.159</ele>
        <time>2022-08-19T19:35:05Z</time>
      </trkpt>
      <trkpt lat="42.39394500000016" lon="1.5753450000000013">
        <ele>1443.869</ele>
        <time>2022-08-19T19:35:09Z</time>
      </trkpt>
      <trkpt lat="42.39389900000016" lon="1.5753720000000013">
        <ele>1441.749</ele>
        <time>2022-08-19T19:35:13Z</time>
      </trkpt>
      <trkpt lat="42.39384200000016" lon="1.5753730000000012">
        <ele>1440.129</ele>
        <time>2022-08-19T19:35:16Z</time>
      </trkpt>
      <trkpt lat="42.39381200000016" lon="1.5753100000000013">
        <ele>1439.476</ele>
        <time>2022-08-19T19:35:20Z</time>
      </trkpt>
      <trkpt lat="42.39379900000016" lon="1.5752420000000014">
        <ele>1438.572</ele>
        <time>2022-08-19T19:35:24Z</time>
      </trkpt>
      <trkpt lat="42.39375700000016" lon="1.5752140000000014">
        <ele>1436.882</ele>
        <time>2022-08-19T19:35:30Z</time>
      </trkpt>
      <trkpt lat="42.393710000000155" lon="1.5752550000000014">
        <ele>1433.313</ele>
        <time>2022-08-19T19:35:44Z</time>
      </trkpt>
      <trkpt lat="42.39366900000015" lon="1.5752920000000015">
        <ele>1432.338</ele>
        <time>2022-08-19T19:35:47Z</time>
      </trkpt>
      <trkpt lat="42.393617000000155" lon="1.5752810000000015">
        <ele>1430.776</ele>
        <time>2022-08-19T19:35:52Z</time>
      </trkpt>
      <trkpt lat="42.39357000000015" lon="1.5752580000000014">
        <ele>1429.390</ele>
        <time>2022-08-19T19:35:56Z</time>
      </trkpt>
      <trkpt lat="42.39352900000015" lon="1.5752170000000014">
        <ele>1427.019</ele>
        <time>2022-08-19T19:36:07Z</time>
      </trkpt>
      <trkpt lat="42.39352400000015" lon="1.5752790000000014">
        <ele>1426.009</ele>
        <time>2022-08-19T19:36:11Z</time>
      </trkpt>
      <trkpt lat="42.39351900000015" lon="1.5753420000000014">
        <ele>1425.178</ele>
        <time>2022-08-19T19:36:15Z</time>
      </trkpt>
      <trkpt lat="42.39350200000015" lon="1.5754050000000013">
        <ele>1423.258</ele>
        <time>2022-08-19T19:36:19Z</time>
      </trkpt>
      <trkpt lat="42.39350100000015" lon="1.5754680000000012">
        <ele>1420.478</ele>
        <time>2022-08-19T19:36:33Z</time>
      </trkpt>
      <trkpt lat="42.39344900000015" lon="1.5755030000000012">
        <ele>1417.358</ele>
        <time>2022-08-19T19:36:42Z</time>
      </trkpt>
      <trkpt lat="42.39340500000015" lon="1.5755180000000013">
        <ele>1416.265</ele>
        <time>2022-08-19T19:36:45Z</time>
      </trkpt>
      <trkpt lat="42.39336500000015" lon="1.5755510000000013">
        <ele>1414.551</ele>
        <time>2022-08-19T19:36:52Z</time>
      </trkpt>
      <trkpt lat="42.39332000000015" lon="1.5755330000000012">
        <ele>1412.081</ele>
        <time>2022-08-19T19:36:59Z</time>
      </trkpt>
      <trkpt lat="42.39326700000015" lon="1.5755060000000012">
        <ele>1408.732</ele>
        <time>2022-08-19T19:37:08Z</time>
      </trkpt>
      <trkpt lat="42.39322700000015" lon="1.5754750000000013">
        <ele>1407.977</ele>
        <time>2022-08-19T19:37:11Z</time>
      </trkpt>
      <trkpt lat="42.39319100000015" lon="1.5754320000000013">
        <ele>1407.029</ele>
        <time>2022-08-19T19:37:14Z</time>
      </trkpt>
      <trkpt lat="42.393142000000154" lon="1.5754120000000014">
        <ele>1404.500</ele>
        <time>2022-08-19T19:37:18Z</time>
      </trkpt>
      <trkpt lat="42.393099000000156" lon="1.5753870000000014">
        <ele>1403.820</ele>
        <time>2022-08-19T19:37:24Z</time>
      </trkpt>
      <trkpt lat="42.393054000000156" lon="1.5753710000000014">
        <ele>1402.609</ele>
        <time>2022-08-19T19:37:30Z</time>
      </trkpt>
      <trkpt lat="42.39299300000015" lon="1.5753380000000015">
        <ele>1401.253</ele>
        <time>2022-08-19T19:37:36Z</time>
      </trkpt>
      <trkpt lat="42.39295100000015" lon="1.5753140000000014">
        <ele>1399.163</ele>
        <time>2022-08-19T19:37:42Z</time>
      </trkpt>
      <trkpt lat="42.39291200000015" lon="1.5752590000000015">
        <ele>1397.323</ele>
        <time>2022-08-19T19:37:47Z</time>
      </trkpt>
      <trkpt lat="42.39287800000015" lon="1.5751940000000015">
        <ele>1395.683</ele>
        <time>2022-08-19T19:37:51Z</time>
      </trkpt>
      <trkpt lat="42.392843000000155" lon="1.5751340000000016">
        <ele>1393.520</ele>
        <time>2022-08-19T19:37:56Z</time>
      </trkpt>
      <trkpt lat="42.39280200000015" lon="1.5751050000000015">
        <ele>1392.166</ele>
        <time>2022-08-19T19:38:01Z</time>
      </trkpt>
      <trkpt lat="42.39279400000015" lon="1.5750450000000016">
        <ele>1390.566</ele>
        <time>2022-08-19T19:38:07Z</time>
      </trkpt>
      <trkpt lat="42.39273300000015" lon="1.5750030000000015">
        <ele>1389.047</ele>
        <time>2022-08-19T19:38:12Z</time>
      </trkpt>
      <trkpt lat="42.39268600000015" lon="1.5749930000000014">
        <ele>1388.072</ele>
        <time>2022-08-19T19:38:16Z</time>
      </trkpt>
      <trkpt lat="42.392644000000146" lon="1.5749640000000014">
        <ele>1386.927</ele>
        <time>2022-08-19T19:38:19Z</time>
      </trkpt>
      <trkpt lat="42.392602000000146" lon="1.5749340000000014">
        <ele>1384.968</ele>
        <time>2022-08-19T19:38:22Z</time>
      </trkpt>
      <trkpt lat="42.392583000000144" lon="1.5748670000000013">
        <ele>1383.114</ele>
        <time>2022-08-19T19:38:26Z</time>
      </trkpt>
      <trkpt lat="42.39254500000014" lon="1.5748290000000014">
        <ele>1382.109</ele>
        <time>2022-08-19T19:38:30Z</time>
      </trkpt>
      <trkpt lat="42.39253600000014" lon="1.5747640000000014">
        <ele>1381.363</ele>
        <time>2022-08-19T19:38:35Z</time>
      </trkpt>
      <trkpt lat="42.39248000000014" lon="1.5747450000000014">
        <ele>1380.333</ele>
        <time>2022-08-19T19:38:38Z</time>
      </trkpt>
      <trkpt lat="42.39246800000014" lon="1.5746820000000015">
        <ele>1378.663</ele>
        <time>2022-08-19T19:38:46Z</time>
      </trkpt>
      <trkpt lat="42.39243200000014" lon="1.5746410000000015">
        <ele>1377.143</ele>
        <time>2022-08-19T19:38:52Z</time>
      </trkpt>
      <trkpt lat="42.39237800000014" lon="1.5746460000000015">
        <ele>1376.180</ele>
        <time>2022-08-19T19:38:56Z</time>
      </trkpt>
      <trkpt lat="42.39233000000014" lon="1.5746530000000016">
        <ele>1374.326</ele>
        <time>2022-08-19T19:39:01Z</time>
      </trkpt>
      <trkpt lat="42.39228900000014" lon="1.5746160000000016">
        <ele>1373.356</ele>
        <time>2022-08-19T19:39:06Z</time>
      </trkpt>
      <trkpt lat="42.39224400000014" lon="1.5746440000000015">
        <ele>1369.077</ele>
        <time>2022-08-19T19:39:18Z</time>
      </trkpt>
      <trkpt lat="42.39219700000014" lon="1.5746690000000014">
        <ele>1367.872</ele>
        <time>2022-08-19T19:39:22Z</time>
      </trkpt>
      <trkpt lat="42.39215200000014" lon="1.5746830000000014">
        <ele>1365.154</ele>
        <time>2022-08-19T19:39:27Z</time>
      </trkpt>
      <trkpt lat="42.392105000000136" lon="1.5746640000000014">
        <ele>1364.256</ele>
        <time>2022-08-19T19:39:34Z</time>
      </trkpt>
      <trkpt lat="42.392066000000135" lon="1.5746120000000015">
        <ele>1362.211</ele>
        <time>2022-08-19T19:39:42Z</time>
      </trkpt>
      <trkpt lat="42.39202800000013" lon="1.5745760000000015">
        <ele>1361.209</ele>
        <time>2022-08-19T19:39:44Z</time>
      </trkpt>
      <trkpt lat="42.39199100000013" lon="1.5745270000000016">
        <ele>1360.076</ele>
        <time>2022-08-19T19:39:46Z</time>
      </trkpt>
      <trkpt lat="42.391973000000135" lon="1.5744670000000016">
        <ele>1358.316</ele>
        <time>2022-08-19T19:39:50Z</time>
      </trkpt>
      <trkpt lat="42.391928000000135" lon="1.5744490000000015">
        <ele>1356.846</ele>
        <time>2022-08-19T19:39:54Z</time>
      </trkpt>
      <trkpt lat="42.39188100000013" lon="1.5744320000000016">
        <ele>1354.726</ele>
        <time>2022-08-19T19:39:58Z</time>
      </trkpt>
      <trkpt lat="42.391816000000134" lon="1.5744300000000016">
        <ele>1351.633</ele>
        <time>2022-08-19T19:40:10Z</time>
      </trkpt>
      <trkpt lat="42.39176100000013" lon="1.5744080000000016">
        <ele>1350.569</ele>
        <time>2022-08-19T19:40:13Z</time>
      </trkpt>
      <trkpt lat="42.39171700000013" lon="1.5743690000000017">
        <ele>1349.179</ele>
        <time>2022-08-19T19:40:16Z</time>
      </trkpt>
      <trkpt lat="42.391673000000125" lon="1.5744010000000017">
        <ele>1346.990</ele>
        <time>2022-08-19T19:40:52Z</time>
      </trkpt>
      <trkpt lat="42.39169200000013" lon="1.5743410000000018">
        <ele>1346.885</ele>
        <time>2022-08-19T19:41:04Z</time>
      </trkpt>
      <trkpt lat="42.39167500000013" lon="1.5742600000000018">
        <ele>1346.851</ele>
        <time>2022-08-19T19:41:09Z</time>
      </trkpt>
      <trkpt lat="42.39163000000013" lon="1.5742410000000018">
        <ele>1341.701</ele>
        <time>2022-08-19T19:41:21Z</time>
      </trkpt>
      <trkpt lat="42.39157000000013" lon="1.5742440000000018">
        <ele>1339.611</ele>
        <time>2022-08-19T19:41:24Z</time>
      </trkpt>
      <trkpt lat="42.39152400000013" lon="1.5742790000000018">
        <ele>1338.709</ele>
        <time>2022-08-19T19:41:30Z</time>
      </trkpt>
      <trkpt lat="42.39146900000013" lon="1.5742640000000017">
        <ele>1338.296</ele>
        <time>2022-08-19T19:41:33Z</time>
      </trkpt>
      <trkpt lat="42.39142200000013" lon="1.5742390000000017">
        <ele>1337.336</ele>
        <time>2022-08-19T19:41:35Z</time>
      </trkpt>
      <trkpt lat="42.39140500000013" lon="1.5743000000000018">
        <ele>1336.056</ele>
        <time>2022-08-19T19:41:42Z</time>
      </trkpt>
      <trkpt lat="42.39135300000013" lon="1.5743200000000017">
        <ele>1335.196</ele>
        <time>2022-08-19T19:41:46Z</time>
      </trkpt>
      <trkpt lat="42.39129600000013" lon="1.5743230000000017">
        <ele>1333.673</ele>
        <time>2022-08-19T19:41:50Z</time>
      </trkpt>
      <trkpt lat="42.391253000000134" lon="1.5743440000000017">
        <ele>1332.639</ele>
        <time>2022-08-19T19:41:53Z</time>
      </trkpt>
      <trkpt lat="42.391210000000136" lon="1.5743180000000017">
        <ele>1331.979</ele>
        <time>2022-08-19T19:41:56Z</time>
      </trkpt>
      <trkpt lat="42.391162000000136" lon="1.5743180000000017">
        <ele>1329.150</ele>
        <time>2022-08-19T19:42:07Z</time>
      </trkpt>
      <trkpt lat="42.39112500000014" lon="1.5744030000000016">
        <ele>1326.255</ele>
        <time>2022-08-19T19:42:19Z</time>
      </trkpt>
      <trkpt lat="42.39104800000014" lon="1.5744220000000015">
        <ele>1324.834</ele>
        <time>2022-08-19T19:42:21Z</time>
      </trkpt>
      <trkpt lat="42.39098400000014" lon="1.5744210000000016">
        <ele>1323.355</ele>
        <time>2022-08-19T19:42:23Z</time>
      </trkpt>
      <trkpt lat="42.39092200000014" lon="1.5743860000000016">
        <ele>1322.310</ele>
        <time>2022-08-19T19:42:25Z</time>
      </trkpt>
      <trkpt lat="42.39086800000014" lon="1.5743700000000016">
        <ele>1322.209</ele>
        <time>2022-08-19T19:42:27Z</time>
      </trkpt>
      <trkpt lat="42.39081700000014" lon="1.5743710000000015">
        <ele>1321.734</ele>
        <time>2022-08-19T19:42:31Z</time>
      </trkpt>
      <trkpt lat="42.39076400000014" lon="1.5743810000000016">
        <ele>1321.394</ele>
        <time>2022-08-19T19:42:34Z</time>
      </trkpt>
      <trkpt lat="42.390723000000136" lon="1.5743440000000015">
        <ele>1320.654</ele>
        <time>2022-08-19T19:42:43Z</time>
      </trkpt>
      <trkpt lat="42.390673000000135" lon="1.5743450000000014">
        <ele>1320.244</ele>
        <time>2022-08-19T19:42:47Z</time>
      </trkpt>
      <trkpt lat="42.390625000000135" lon="1.5743530000000014">
        <ele>1319.641</ele>
        <time>2022-08-19T19:42:52Z</time>
      </trkpt>
      <trkpt lat="42.39058500000014" lon="1.5743170000000015">
        <ele>1319.427</ele>
        <time>2022-08-19T19:42:55Z</time>
      </trkpt>
      <trkpt lat="42.390543000000136" lon="1.5742820000000015">
        <ele>1319.027</ele>
        <time>2022-08-19T19:43:03Z</time>
      </trkpt>
      <trkpt lat="42.390515000000136" lon="1.5742110000000016">
        <ele>1318.748</ele>
        <time>2022-08-19T19:43:08Z</time>
      </trkpt>
      <trkpt lat="42.39046900000014" lon="1.5741780000000016">
        <ele>1318.413</ele>
        <time>2022-08-19T19:43:14Z</time>
      </trkpt>
      <trkpt lat="42.390419000000136" lon="1.5741550000000015">
        <ele>1318.088</ele>
        <time>2022-08-19T19:43:20Z</time>
      </trkpt>
      <trkpt lat="42.39036200000014" lon="1.5741240000000016">
        <ele>1317.724</ele>
        <time>2022-08-19T19:43:24Z</time>
      </trkpt>
      <trkpt lat="42.39031700000014" lon="1.5741020000000017">
        <ele>1315.726</ele>
        <time>2022-08-19T19:43:28Z</time>
      </trkpt>
      <trkpt lat="42.390273000000136" lon="1.5740860000000017">
        <ele>1315.309</ele>
        <time>2022-08-19T19:43:33Z</time>
      </trkpt>
      <trkpt lat="42.39021300000014" lon="1.5741060000000016">
        <ele>1314.959</ele>
        <time>2022-08-19T19:43:38Z</time>
      </trkpt>
      <trkpt lat="42.390172000000135" lon="1.5741330000000016">
        <ele>1314.349</ele>
        <time>2022-08-19T19:43:41Z</time>
      </trkpt>
      <trkpt lat="42.39013100000013" lon="1.5740830000000015">
        <ele>1313.019</ele>
        <time>2022-08-19T19:43:51Z</time>
      </trkpt>
      <trkpt lat="42.39009000000013" lon="1.5740370000000015">
        <ele>1312.439</ele>
        <time>2022-08-19T19:43:54Z</time>
      </trkpt>
      <trkpt lat="42.39004200000013" lon="1.5739930000000015">
        <ele>1311.556</ele>
        <time>2022-08-19T19:43:58Z</time>
      </trkpt>
      <trkpt lat="42.39001100000013" lon="1.5739440000000016">
        <ele>1309.882</ele>
        <time>2022-08-19T19:44:06Z</time>
      </trkpt>
      <trkpt lat="42.38995500000013" lon="1.5739460000000016">
        <ele>1308.732</ele>
        <time>2022-08-19T19:44:13Z</time>
      </trkpt>
      <trkpt lat="42.38990900000013" lon="1.5739450000000017">
        <ele>1307.943</ele>
        <time>2022-08-19T19:44:19Z</time>
      </trkpt>
      <trkpt lat="42.38986100000013" lon="1.5739560000000017">
        <ele>1307.148</ele>
        <time>2022-08-19T19:44:23Z</time>
      </trkpt>
      <trkpt lat="42.38981700000013" lon="1.5739260000000017">
        <ele>1306.667</ele>
        <time>2022-08-19T19:44:26Z</time>
      </trkpt>
      <trkpt lat="42.38976600000013" lon="1.5739490000000018">
        <ele>1304.781</ele>
        <time>2022-08-19T19:44:32Z</time>
      </trkpt>
      <trkpt lat="42.38970700000013" lon="1.5739440000000018">
        <ele>1304.219</ele>
        <time>2022-08-19T19:44:35Z</time>
      </trkpt>
      <trkpt lat="42.38965500000013" lon="1.5739650000000018">
        <ele>1303.709</ele>
        <time>2022-08-19T19:44:38Z</time>
      </trkpt>
      <trkpt lat="42.389606000000136" lon="1.5739790000000018">
        <ele>1302.847</ele>
        <time>2022-08-19T19:44:44Z</time>
      </trkpt>
      <trkpt lat="42.389564000000135" lon="1.5740380000000018">
        <ele>1302.177</ele>
        <time>2022-08-19T19:44:48Z</time>
      </trkpt>
      <trkpt lat="42.38950600000013" lon="1.5740400000000019">
        <ele>1301.557</ele>
        <time>2022-08-19T19:44:51Z</time>
      </trkpt>
      <trkpt lat="42.38946200000013" lon="1.5740250000000018">
        <ele>1301.257</ele>
        <time>2022-08-19T19:44:53Z</time>
      </trkpt>
      <trkpt lat="42.38941200000013" lon="1.5740110000000018">
        <ele>1300.814</ele>
        <time>2022-08-19T19:44:57Z</time>
      </trkpt>
      <trkpt lat="42.38936000000013" lon="1.5740110000000018">
        <ele>1300.070</ele>
        <time>2022-08-19T19:45:06Z</time>
      </trkpt>
      <trkpt lat="42.38931600000013" lon="1.574026000000002">
        <ele>1299.940</ele>
        <time>2022-08-19T19:45:13Z</time>
      </trkpt>
      <trkpt lat="42.38926700000013" lon="1.574053000000002">
        <ele>1299.481</ele>
        <time>2022-08-19T19:45:20Z</time>
      </trkpt>
      <trkpt lat="42.38921100000013" lon="1.5740730000000018">
        <ele>1298.816</ele>
        <time>2022-08-19T19:45:23Z</time>
      </trkpt>
      <trkpt lat="42.389162000000134" lon="1.5740920000000018">
        <ele>1298.292</ele>
        <time>2022-08-19T19:45:26Z</time>
      </trkpt>
      <trkpt lat="42.38911300000014" lon="1.574083000000002">
        <ele>1297.273</ele>
        <time>2022-08-19T19:45:29Z</time>
      </trkpt>
      <trkpt lat="42.38905900000014" lon="1.5740940000000019">
        <ele>1296.220</ele>
        <time>2022-08-19T19:45:32Z</time>
      </trkpt>
      <trkpt lat="42.389057000000136" lon="1.5741560000000019">
        <ele>1294.709</ele>
        <time>2022-08-19T19:45:38Z</time>
      </trkpt>
      <trkpt lat="42.389015000000136" lon="1.574131000000002">
        <ele>1293.890</ele>
        <time>2022-08-19T19:45:46Z</time>
      </trkpt>
      <trkpt lat="42.388979000000134" lon="1.574083000000002">
        <ele>1293.720</ele>
        <time>2022-08-19T19:45:51Z</time>
      </trkpt>
      <trkpt lat="42.38896000000013" lon="1.574023000000002">
        <ele>1293.710</ele>
        <time>2022-08-19T19:45:56Z</time>
      </trkpt>
      <trkpt lat="42.38897200000013" lon="1.573961000000002">
        <ele>1293.750</ele>
        <time>2022-08-19T19:46:03Z</time>
      </trkpt>
      <trkpt lat="42.38892500000013" lon="1.573953000000002">
        <ele>1293.587</ele>
        <time>2022-08-19T19:46:13Z</time>
      </trkpt>
      <trkpt lat="42.38886500000013" lon="1.573952000000002">
        <ele>1293.563</ele>
        <time>2022-08-19T19:46:17Z</time>
      </trkpt>
      <trkpt lat="42.38882700000013" lon="1.573988000000002">
        <ele>1293.263</ele>
        <time>2022-08-19T19:46:22Z</time>
      </trkpt>
      <trkpt lat="42.38877600000013" lon="1.573987000000002">
        <ele>1291.244</ele>
        <time>2022-08-19T19:46:30Z</time>
      </trkpt>
      <trkpt lat="42.38872700000013" lon="1.5739940000000021">
        <ele>1290.029</ele>
        <time>2022-08-19T19:46:36Z</time>
      </trkpt>
      <trkpt lat="42.38868100000013" lon="1.573986000000002">
        <ele>1289.134</ele>
        <time>2022-08-19T19:46:40Z</time>
      </trkpt>
      <trkpt lat="42.388663000000136" lon="1.5740450000000021">
        <ele>1289.055</ele>
        <time>2022-08-19T19:46:44Z</time>
      </trkpt>
      <trkpt lat="42.38862300000014" lon="1.5740850000000022">
        <ele>1288.210</ele>
        <time>2022-08-19T19:46:50Z</time>
      </trkpt>
      <trkpt lat="42.388573000000136" lon="1.5740830000000021">
        <ele>1286.409</ele>
        <time>2022-08-19T19:46:57Z</time>
      </trkpt>
      <trkpt lat="42.388525000000136" lon="1.574095000000002">
        <ele>1285.174</ele>
        <time>2022-08-19T19:47:03Z</time>
      </trkpt>
      <trkpt lat="42.388478000000134" lon="1.574135000000002">
        <ele>1283.484</ele>
        <time>2022-08-19T19:47:19Z</time>
      </trkpt>
      <trkpt lat="42.38840800000013" lon="1.574178000000002">
        <ele>1283.074</ele>
        <time>2022-08-19T19:47:21Z</time>
      </trkpt>
      <trkpt lat="42.388357000000134" lon="1.574202000000002">
        <ele>1282.864</ele>
        <time>2022-08-19T19:47:23Z</time>
      </trkpt>
      <trkpt lat="42.38831100000014" lon="1.574227000000002">
        <ele>1282.781</ele>
        <time>2022-08-19T19:47:26Z</time>
      </trkpt>
      <trkpt lat="42.388264000000135" lon="1.574262000000002">
        <ele>1280.977</ele>
        <time>2022-08-19T19:47:31Z</time>
      </trkpt>
      <trkpt lat="42.38821700000013" lon="1.574252000000002">
        <ele>1279.787</ele>
        <time>2022-08-19T19:47:38Z</time>
      </trkpt>
      <trkpt lat="42.38817300000013" lon="1.574274000000002">
        <ele>1279.158</ele>
        <time>2022-08-19T19:47:43Z</time>
      </trkpt>
      <trkpt lat="42.38814100000013" lon="1.5743400000000018">
        <ele>1278.773</ele>
        <time>2022-08-19T19:47:46Z</time>
      </trkpt>
      <trkpt lat="42.38812100000013" lon="1.5743970000000018">
        <ele>1278.043</ele>
        <time>2022-08-19T19:47:49Z</time>
      </trkpt>
      <trkpt lat="42.38808200000013" lon="1.5744590000000018">
        <ele>1277.564</ele>
        <time>2022-08-19T19:47:52Z</time>
      </trkpt>
      <trkpt lat="42.388030000000136" lon="1.5744910000000019">
        <ele>1276.110</ele>
        <time>2022-08-19T19:47:55Z</time>
      </trkpt>
      <trkpt lat="42.387985000000135" lon="1.5744880000000019">
        <ele>1273.809</ele>
        <time>2022-08-19T19:48:02Z</time>
      </trkpt>
      <trkpt lat="42.38794100000013" lon="1.5744590000000018">
        <ele>1272.655</ele>
        <time>2022-08-19T19:48:09Z</time>
      </trkpt>
      <trkpt lat="42.387895000000135" lon="1.5744630000000017">
        <ele>1271.075</ele>
        <time>2022-08-19T19:48:16Z</time>
      </trkpt>
      <trkpt lat="42.387844000000136" lon="1.5744570000000018">
        <ele>1269.555</ele>
        <time>2022-08-19T19:48:24Z</time>
      </trkpt>
      <trkpt lat="42.38780400000014" lon="1.5745110000000018">
        <ele>1268.555</ele>
        <time>2022-08-19T19:48:28Z</time>
      </trkpt>
      <trkpt lat="42.387768000000136" lon="1.5746060000000017">
        <ele>1267.742</ele>
        <time>2022-08-19T19:48:31Z</time>
      </trkpt>
      <trkpt lat="42.38776700000014" lon="1.5746930000000017">
        <ele>1264.728</ele>
        <time>2022-08-19T19:48:33Z</time>
      </trkpt>
      <trkpt lat="42.38777600000014" lon="1.5747630000000017">
        <ele>1262.068</ele>
        <time>2022-08-19T19:48:36Z</time>
      </trkpt>
      <trkpt lat="42.38779300000014" lon="1.5748210000000016">
        <ele>1261.259</ele>
        <time>2022-08-19T19:48:41Z</time>
      </trkpt>
      <trkpt lat="42.38782100000014" lon="1.5748900000000017">
        <ele>1259.364</ele>
        <time>2022-08-19T19:48:47Z</time>
      </trkpt>
      <trkpt lat="42.387780000000134" lon="1.5749460000000017">
        <ele>1258.262</ele>
        <time>2022-08-19T19:48:52Z</time>
      </trkpt>
      <trkpt lat="42.38774100000013" lon="1.5749890000000017">
        <ele>1257.083</ele>
        <time>2022-08-19T19:48:56Z</time>
      </trkpt>
      <trkpt lat="42.38777800000013" lon="1.5750510000000018">
        <ele>1256.011</ele>
        <time>2022-08-19T19:48:59Z</time>
      </trkpt>
      <trkpt lat="42.38780300000013" lon="1.5751130000000018">
        <ele>1248.909</ele>
        <time>2022-08-19T19:49:33Z</time>
      </trkpt>
      <trkpt lat="42.38781200000013" lon="1.5751900000000019">
        <ele>1248.327</ele>
        <time>2022-08-19T19:50:10Z</time>
      </trkpt>
      <trkpt lat="42.387763000000135" lon="1.575186000000002">
        <ele>1248.287</ele>
        <time>2022-08-19T19:50:32Z</time>
      </trkpt>
      <trkpt lat="42.38772800000014" lon="1.575145000000002">
        <ele>1248.027</ele>
        <time>2022-08-19T19:50:44Z</time>
      </trkpt>
      <trkpt lat="42.38768200000014" lon="1.575128000000002">
        <ele>1247.697</ele>
        <time>2022-08-19T19:50:52Z</time>
      </trkpt>
      <trkpt lat="42.38772500000014" lon="1.575574000000002">
        <ele>1246.844</ele>
        <time>2022-08-19T19:50:57Z</time>
      </trkpt>
      <trkpt lat="42.38776500000014" lon="1.575542000000002">
        <ele>1239.560</ele>
        <time>2022-08-19T19:51:02Z</time>
      </trkpt>
      <trkpt lat="42.38775900000014" lon="1.575480000000002">
        <ele>1238.230</ele>
        <time>2022-08-19T19:51:14Z</time>
      </trkpt>
      <trkpt lat="42.38794100000014" lon="1.575591000000002">
        <ele>1238.051</ele>
        <time>2022-08-19T19:51:16Z</time>
      </trkpt>
      <trkpt lat="42.38798900000014" lon="1.575616000000002">
        <ele>1235.926</ele>
        <time>2022-08-19T19:51:19Z</time>
      </trkpt>
      <trkpt lat="42.38803500000014" lon="1.575615000000002">
        <ele>1234.584</ele>
        <time>2022-08-19T19:51:23Z</time>
      </trkpt>
      <trkpt lat="42.38808200000014" lon="1.575671000000002">
        <ele>1234.007</ele>
        <time>2022-08-19T19:51:27Z</time>
      </trkpt>
      <trkpt lat="42.388134000000136" lon="1.5757130000000021">
        <ele>1233.517</ele>
        <time>2022-08-19T19:51:31Z</time>
      </trkpt>
      <trkpt lat="42.38816600000013" lon="1.575668000000002">
        <ele>1232.109</ele>
        <time>2022-08-19T19:51:37Z</time>
      </trkpt>
      <trkpt lat="42.388230000000135" lon="1.575755000000002">
        <ele>1226.929</ele>
        <time>2022-08-19T19:52:08Z</time>
      </trkpt>
      <trkpt lat="42.38822600000014" lon="1.575826000000002">
        <ele>1226.739</ele>
        <time>2022-08-19T19:52:11Z</time>
      </trkpt>
      <trkpt lat="42.38827300000014" lon="1.5758460000000019">
        <ele>1226.759</ele>
        <time>2022-08-19T19:52:16Z</time>
      </trkpt>
      <trkpt lat="42.38826000000014" lon="1.5759080000000019">
        <ele>1226.769</ele>
        <time>2022-08-19T19:52:23Z</time>
      </trkpt>
      <trkpt lat="42.38820800000014" lon="1.5759390000000018">
        <ele>1226.556</ele>
        <time>2022-08-19T19:52:32Z</time>
      </trkpt>
      <trkpt lat="42.38817200000014" lon="1.5759880000000017">
        <ele>1224.132</ele>
        <time>2022-08-19T19:52:37Z</time>
      </trkpt>
      <trkpt lat="42.38812700000014" lon="1.5760070000000017">
        <ele>1220.922</ele>
        <time>2022-08-19T19:53:02Z</time>
      </trkpt>
      <trkpt lat="42.38809400000014" lon="1.5760520000000018">
        <ele>1220.683</ele>
        <time>2022-08-19T19:53:07Z</time>
      </trkpt>
      <trkpt lat="42.38804300000014" lon="1.5760550000000018">
        <ele>1220.678</ele>
        <time>2022-08-19T19:53:13Z</time>
      </trkpt>
      <trkpt lat="42.38799400000014" lon="1.5760820000000018">
        <ele>1220.542</ele>
        <time>2022-08-19T19:53:19Z</time>
      </trkpt>
      <trkpt lat="42.38794400000014" lon="1.5760790000000018">
        <ele>1220.522</ele>
        <time>2022-08-19T19:53:24Z</time>
      </trkpt>
      <trkpt lat="42.38789500000014" lon="1.5760840000000018">
        <ele>1218.314</ele>
        <time>2022-08-19T19:53:29Z</time>
      </trkpt>
      <trkpt lat="42.387846000000145" lon="1.5760700000000019">
        <ele>1217.109</ele>
        <time>2022-08-19T19:53:37Z</time>
      </trkpt>
      <trkpt lat="42.38779700000015" lon="1.576058000000002">
        <ele>1217.095</ele>
        <time>2022-08-19T19:53:42Z</time>
      </trkpt>
      <trkpt lat="42.38774800000015" lon="1.576076000000002">
        <ele>1216.875</ele>
        <time>2022-08-19T19:53:47Z</time>
      </trkpt>
      <trkpt lat="42.38769400000015" lon="1.5760830000000021">
        <ele>1216.775</ele>
        <time>2022-08-19T19:53:51Z</time>
      </trkpt>
      <trkpt lat="42.38764400000015" lon="1.576094000000002">
        <ele>1216.455</ele>
        <time>2022-08-19T19:53:57Z</time>
      </trkpt>
      <trkpt lat="42.38759700000015" lon="1.576119000000002">
        <ele>1214.672</ele>
        <time>2022-08-19T19:54:05Z</time>
      </trkpt>
      <trkpt lat="42.387559000000145" lon="1.576158000000002">
        <ele>1212.968</ele>
        <time>2022-08-19T19:54:11Z</time>
      </trkpt>
      <trkpt lat="42.38754300000014" lon="1.576217000000002">
        <ele>1211.268</ele>
        <time>2022-08-19T19:54:19Z</time>
      </trkpt>
      <trkpt lat="42.38750100000014" lon="1.576251000000002">
        <ele>1209.789</ele>
        <time>2022-08-19T19:54:26Z</time>
      </trkpt>
      <trkpt lat="42.38751600000014" lon="1.576311000000002">
        <ele>1207.854</ele>
        <time>2022-08-19T19:54:31Z</time>
      </trkpt>
      <trkpt lat="42.38748500000014" lon="1.576369000000002">
        <ele>1205.821</ele>
        <time>2022-08-19T19:54:34Z</time>
      </trkpt>
      <trkpt lat="42.38746200000014" lon="1.5764260000000019">
        <ele>1203.941</ele>
        <time>2022-08-19T19:54:38Z</time>
      </trkpt>
      <trkpt lat="42.387455000000145" lon="1.5764990000000019">
        <ele>1199.405</ele>
        <time>2022-08-19T19:54:44Z</time>
      </trkpt>
      <trkpt lat="42.387486000000145" lon="1.5765700000000018">
        <ele>1198.009</ele>
        <time>2022-08-19T19:54:49Z</time>
      </trkpt>
      <trkpt lat="42.387531000000145" lon="1.5766080000000018">
        <ele>1197.233</ele>
        <time>2022-08-19T19:54:52Z</time>
      </trkpt>
      <trkpt lat="42.38758600000015" lon="1.5766410000000017">
        <ele>1196.323</ele>
        <time>2022-08-19T19:54:55Z</time>
      </trkpt>
      <trkpt lat="42.38761300000015" lon="1.5767090000000017">
        <ele>1195.543</ele>
        <time>2022-08-19T19:54:59Z</time>
      </trkpt>
      <trkpt lat="42.38765900000015" lon="1.5767310000000017">
        <ele>1194.663</ele>
        <time>2022-08-19T19:55:03Z</time>
      </trkpt>
      <trkpt lat="42.38770200000015" lon="1.5767560000000016">
        <ele>1194.480</ele>
        <time>2022-08-19T19:55:09Z</time>
      </trkpt>
      <trkpt lat="42.38774100000015" lon="1.5767920000000015">
        <ele>1194.356</ele>
        <time>2022-08-19T19:55:16Z</time>
      </trkpt>
      <trkpt lat="42.387781000000146" lon="1.5768310000000014">
        <ele>1194.256</ele>
        <time>2022-08-19T19:55:22Z</time>
      </trkpt>
      <trkpt lat="42.38782200000015" lon="1.5768850000000014">
        <ele>1194.147</ele>
        <time>2022-08-19T19:55:32Z</time>
      </trkpt>
      <trkpt lat="42.38789200000015" lon="1.5768590000000013">
        <ele>1193.962</ele>
        <time>2022-08-19T19:55:34Z</time>
      </trkpt>
      <trkpt lat="42.38794200000015" lon="1.5768530000000014">
        <ele>1192.988</ele>
        <time>2022-08-19T19:55:38Z</time>
      </trkpt>
      <trkpt lat="42.38792800000015" lon="1.5769120000000014">
        <ele>1189.424</ele>
        <time>2022-08-19T19:55:46Z</time>
      </trkpt>
      <trkpt lat="42.38789500000015" lon="1.5769650000000015">
        <ele>1187.126</ele>
        <time>2022-08-19T19:55:52Z</time>
      </trkpt>
      <trkpt lat="42.38789200000015" lon="1.5770290000000016">
        <ele>1186.109</ele>
        <time>2022-08-19T19:55:57Z</time>
      </trkpt>
      <trkpt lat="42.38790500000015" lon="1.5770930000000016">
        <ele>1184.829</ele>
        <time>2022-08-19T19:56:03Z</time>
      </trkpt>
      <trkpt lat="42.38793400000015" lon="1.5771460000000017">
        <ele>1183.679</ele>
        <time>2022-08-19T19:56:08Z</time>
      </trkpt>
      <trkpt lat="42.387972000000154" lon="1.5771940000000018">
        <ele>1182.849</ele>
        <time>2022-08-19T19:56:12Z</time>
      </trkpt>
      <trkpt lat="42.38802900000015" lon="1.5772020000000018">
        <ele>1182.289</ele>
        <time>2022-08-19T19:56:14Z</time>
      </trkpt>
      <trkpt lat="42.38811200000015" lon="1.5772190000000017">
        <ele>1181.886</ele>
        <time>2022-08-19T19:56:16Z</time>
      </trkpt>
      <trkpt lat="42.38816000000015" lon="1.5772670000000018">
        <ele>1181.652</ele>
        <time>2022-08-19T19:56:18Z</time>
      </trkpt>
      <trkpt lat="42.38820000000015" lon="1.5773040000000018">
        <ele>1181.812</ele>
        <time>2022-08-19T19:56:21Z</time>
      </trkpt>
      <trkpt lat="42.38824800000015" lon="1.5773150000000018">
        <ele>1181.923</ele>
        <time>2022-08-19T19:56:27Z</time>
      </trkpt>
      <trkpt lat="42.38829500000015" lon="1.577322000000002">
        <ele>1181.938</ele>
        <time>2022-08-19T19:56:34Z</time>
      </trkpt>
      <trkpt lat="42.388341000000146" lon="1.577340000000002">
        <ele>1181.862</ele>
        <time>2022-08-19T19:56:41Z</time>
      </trkpt>
      <trkpt lat="42.38837600000014" lon="1.577381000000002">
        <ele>1180.883</ele>
        <time>2022-08-19T19:56:47Z</time>
      </trkpt>
      <trkpt lat="42.38840200000014" lon="1.577435000000002">
        <ele>1179.711</ele>
        <time>2022-08-19T19:56:54Z</time>
      </trkpt>
      <trkpt lat="42.38844100000014" lon="1.577480000000002">
        <ele>1179.209</ele>
        <time>2022-08-19T19:56:59Z</time>
      </trkpt>
      <trkpt lat="42.388485000000145" lon="1.577504000000002">
        <ele>1178.527</ele>
        <time>2022-08-19T19:57:04Z</time>
      </trkpt>
      <trkpt lat="42.388507000000146" lon="1.577560000000002">
        <ele>1177.147</ele>
        <time>2022-08-19T19:57:13Z</time>
      </trkpt>
      <trkpt lat="42.388527000000146" lon="1.5776160000000021">
        <ele>1174.857</ele>
        <time>2022-08-19T19:57:23Z</time>
      </trkpt>
      <trkpt lat="42.38857100000015" lon="1.5776390000000022">
        <ele>1173.097</ele>
        <time>2022-08-19T19:57:29Z</time>
      </trkpt>
      <trkpt lat="42.38861800000015" lon="1.5776560000000022">
        <ele>1171.874</ele>
        <time>2022-08-19T19:57:32Z</time>
      </trkpt>
      <trkpt lat="42.38865000000015" lon="1.5777120000000022">
        <ele>1170.010</ele>
        <time>2022-08-19T19:57:38Z</time>
      </trkpt>
      <trkpt lat="42.38868900000015" lon="1.5777450000000022">
        <ele>1168.120</ele>
        <time>2022-08-19T19:57:47Z</time>
      </trkpt>
      <trkpt lat="42.38871400000015" lon="1.5778140000000023">
        <ele>1163.951</ele>
        <time>2022-08-19T19:57:57Z</time>
      </trkpt>
      <trkpt lat="42.38872300000015" lon="1.5778780000000023">
        <ele>1163.456</ele>
        <time>2022-08-19T19:57:59Z</time>
      </trkpt>
      <trkpt lat="42.388727000000145" lon="1.5779410000000023">
        <ele>1163.077</ele>
        <time>2022-08-19T19:58:01Z</time>
      </trkpt>
      <trkpt lat="42.388727000000145" lon="1.5780160000000023">
        <ele>1162.561</ele>
        <time>2022-08-19T19:58:04Z</time>
      </trkpt>
      <trkpt lat="42.388735000000146" lon="1.5780850000000024">
        <ele>1160.927</ele>
        <time>2022-08-19T19:58:07Z</time>
      </trkpt>
      <trkpt lat="42.388702000000144" lon="1.5781380000000025">
        <ele>1159.209</ele>
        <time>2022-08-19T19:58:21Z</time>
      </trkpt>
      <trkpt lat="42.38865500000014" lon="1.5781510000000025">
        <ele>1158.868</ele>
        <time>2022-08-19T19:58:27Z</time>
      </trkpt>
      <trkpt lat="42.388609000000145" lon="1.5781360000000024">
        <ele>1158.588</ele>
        <time>2022-08-19T19:58:33Z</time>
      </trkpt>
      <trkpt lat="42.388558000000145" lon="1.5781370000000023">
        <ele>1158.188</ele>
        <time>2022-08-19T19:58:38Z</time>
      </trkpt>
      <trkpt lat="42.38828700000015" lon="1.5780130000000023">
        <ele>1157.568</ele>
        <time>2022-08-19T19:58:42Z</time>
      </trkpt>
      <trkpt lat="42.38828700000015" lon="1.5780870000000022">
        <ele>1153.225</ele>
        <time>2022-08-19T19:58:44Z</time>
      </trkpt>
      <trkpt lat="42.38831500000015" lon="1.5781380000000023">
        <ele>1153.191</ele>
        <time>2022-08-19T19:58:56Z</time>
      </trkpt>
      <trkpt lat="42.38831400000015" lon="1.5782060000000022">
        <ele>1152.611</ele>
        <time>2022-08-19T19:59:04Z</time>
      </trkpt>
      <trkpt lat="42.38833100000015" lon="1.5782690000000021">
        <ele>1151.822</ele>
        <time>2022-08-19T19:59:11Z</time>
      </trkpt>
      <trkpt lat="42.38835400000015" lon="1.5783230000000021">
        <ele>1150.977</ele>
        <time>2022-08-19T19:59:17Z</time>
      </trkpt>
      <trkpt lat="42.38840400000015" lon="1.578335000000002">
        <ele>1149.376</ele>
        <time>2022-08-19T19:59:26Z</time>
      </trkpt>
      <trkpt lat="42.38845300000015" lon="1.578327000000002">
        <ele>1147.590</ele>
        <time>2022-08-19T19:59:32Z</time>
      </trkpt>
      <trkpt lat="42.38849100000015" lon="1.578289000000002">
        <ele>1145.619</ele>
        <time>2022-08-19T19:59:40Z</time>
      </trkpt>
      <trkpt lat="42.38852400000015" lon="1.578337000000002">
        <ele>1144.009</ele>
        <time>2022-08-19T19:59:45Z</time>
      </trkpt>
      <trkpt lat="42.38857200000015" lon="1.5783360000000022">
        <ele>1142.088</ele>
        <time>2022-08-19T19:59:52Z</time>
      </trkpt>
      <trkpt lat="42.388596000000156" lon="1.578399000000002">
        <ele>1139.048</ele>
        <time>2022-08-19T19:59:59Z</time>
      </trkpt>
      <trkpt lat="42.38860100000016" lon="1.578467000000002">
        <ele>1137.728</ele>
        <time>2022-08-19T20:00:04Z</time>
      </trkpt>
      <trkpt lat="42.38860300000016" lon="1.578530000000002">
        <ele>1135.818</ele>
        <time>2022-08-19T20:00:07Z</time>
      </trkpt>
      <trkpt lat="42.38861500000016" lon="1.578595000000002">
        <ele>1134.145</ele>
        <time>2022-08-19T20:00:12Z</time>
      </trkpt>
      <trkpt lat="42.38866200000016" lon="1.578602000000002">
        <ele>1131.441</ele>
        <time>2022-08-19T20:00:19Z</time>
      </trkpt>
      <trkpt lat="42.38869600000016" lon="1.578653000000002">
        <ele>1129.411</ele>
        <time>2022-08-19T20:00:24Z</time>
      </trkpt>
      <trkpt lat="42.38871500000016" lon="1.5787120000000021">
        <ele>1128.292</ele>
        <time>2022-08-19T20:00:28Z</time>
      </trkpt>
      <trkpt lat="42.38873300000016" lon="1.5787680000000022">
        <ele>1127.567</ele>
        <time>2022-08-19T20:00:33Z</time>
      </trkpt>
      <trkpt lat="42.38874400000016" lon="1.5788370000000023">
        <ele>1127.012</ele>
        <time>2022-08-19T20:00:38Z</time>
      </trkpt>
      <trkpt lat="42.38873700000016" lon="1.5788990000000023">
        <ele>1126.732</ele>
        <time>2022-08-19T20:00:41Z</time>
      </trkpt>
      <trkpt lat="42.38872300000016" lon="1.5789710000000023">
        <ele>1126.605</ele>
        <time>2022-08-19T20:00:45Z</time>
      </trkpt>
      <trkpt lat="42.388702000000166" lon="1.5790270000000024">
        <ele>1126.009</ele>
        <time>2022-08-19T20:00:49Z</time>
      </trkpt>
      <trkpt lat="42.38867800000016" lon="1.5790820000000023">
        <ele>1125.772</ele>
        <time>2022-08-19T20:00:54Z</time>
      </trkpt>
      <trkpt lat="42.38866100000016" lon="1.5791400000000022">
        <ele>1125.642</ele>
        <time>2022-08-19T20:00:58Z</time>
      </trkpt>
      <trkpt lat="42.38861400000016" lon="1.5791930000000023">
        <ele>1125.432</ele>
        <time>2022-08-19T20:01:01Z</time>
      </trkpt>
      <trkpt lat="42.38856800000016" lon="1.5792360000000023">
        <ele>1125.122</ele>
        <time>2022-08-19T20:01:05Z</time>
      </trkpt>
      <trkpt lat="42.38853000000016" lon="1.5792730000000024">
        <ele>1124.899</ele>
        <time>2022-08-19T20:01:09Z</time>
      </trkpt>
      <trkpt lat="42.38849400000016" lon="1.5793210000000024">
        <ele>1124.475</ele>
        <time>2022-08-19T20:01:15Z</time>
      </trkpt>
      <trkpt lat="42.38843400000016" lon="1.5793440000000025">
        <ele>1124.335</ele>
        <time>2022-08-19T20:01:17Z</time>
      </trkpt>
      <trkpt lat="42.38839000000016" lon="1.5793760000000026">
        <ele>1124.166</ele>
        <time>2022-08-19T20:01:18Z</time>
      </trkpt>
      <trkpt lat="42.38836200000016" lon="1.5795060000000025">
        <ele>1123.851</ele>
        <time>2022-08-19T20:01:20Z</time>
      </trkpt>
      <trkpt lat="42.388337000000156" lon="1.5795890000000026">
        <ele>1123.419</ele>
        <time>2022-08-19T20:01:22Z</time>
      </trkpt>
      <trkpt lat="42.38831700000016" lon="1.5796600000000025">
        <ele>1123.109</ele>
        <time>2022-08-19T20:01:25Z</time>
      </trkpt>
      <trkpt lat="42.38829700000016" lon="1.5797220000000025">
        <ele>1123.019</ele>
        <time>2022-08-19T20:01:30Z</time>
      </trkpt>
      <trkpt lat="42.38827100000016" lon="1.5797830000000026">
        <ele>1122.609</ele>
        <time>2022-08-19T20:01:37Z</time>
      </trkpt>
      <trkpt lat="42.38825400000016" lon="1.5798410000000025">
        <ele>1122.382</ele>
        <time>2022-08-19T20:01:43Z</time>
      </trkpt>
      <trkpt lat="42.38825700000016" lon="1.5799090000000025">
        <ele>1121.932</ele>
        <time>2022-08-19T20:01:49Z</time>
      </trkpt>
      <trkpt lat="42.38826300000016" lon="1.5799760000000025">
        <ele>1121.582</ele>
        <time>2022-08-19T20:01:55Z</time>
      </trkpt>
      <trkpt lat="42.38827100000016" lon="1.5800420000000024">
        <ele>1120.972</ele>
        <time>2022-08-19T20:02:00Z</time>
      </trkpt>
      <trkpt lat="42.38840100000016" lon="1.5804760000000024">
        <ele>1120.619</ele>
        <time>2022-08-19T20:02:03Z</time>
      </trkpt>
      <trkpt lat="42.38841000000016" lon="1.5805390000000024">
        <ele>1119.845</ele>
        <time>2022-08-19T20:02:04Z</time>
      </trkpt>
      <trkpt lat="42.38841800000016" lon="1.5806100000000023">
        <ele>1119.685</ele>
        <time>2022-08-19T20:02:06Z</time>
      </trkpt>
      <trkpt lat="42.38844100000016" lon="1.5806740000000024">
        <ele>1119.476</ele>
        <time>2022-08-19T20:02:09Z</time>
      </trkpt>
      <trkpt lat="42.38847700000016" lon="1.5807110000000024">
        <ele>1119.141</ele>
        <time>2022-08-19T20:02:13Z</time>
      </trkpt>
      <trkpt lat="42.38850700000016" lon="1.5807570000000024">
        <ele>1118.633</ele>
        <time>2022-08-19T20:02:19Z</time>
      </trkpt>
      <trkpt lat="42.38851500000016" lon="1.5808320000000025">
        <ele>1116.823</ele>
        <time>2022-08-19T20:03:04Z</time>
      </trkpt>
      <trkpt lat="42.38826500000016" lon="1.5816130000000024">
        <ele>1116.815</ele>
        <time>2022-08-19T20:03:29Z</time>
      </trkpt>
      <trkpt lat="42.38825300000016" lon="1.5815510000000024">
        <ele>1112.009</ele>
        <time>2022-08-19T20:03:38Z</time>
      </trkpt>
      <trkpt lat="42.38822300000016" lon="1.5815030000000023">
        <ele>1111.954</ele>
        <time>2022-08-19T20:03:45Z</time>
      </trkpt>
      <trkpt lat="42.38817800000016" lon="1.5815150000000022">
        <ele>1112.924</ele>
        <time>2022-08-19T20:12:00Z</time>
      </trkpt>
      <trkpt lat="42.38812700000016" lon="1.5815360000000023">
        <ele>1112.674</ele>
        <time>2022-08-19T20:12:08Z</time>
      </trkpt>
      <trkpt lat="42.388078000000164" lon="1.5815400000000022">
        <ele>1111.114</ele>
        <time>2022-08-19T20:12:14Z</time>
      </trkpt>
      <trkpt lat="42.38803100000016" lon="1.5815470000000023">
        <ele>1110.781</ele>
        <time>2022-08-19T20:12:18Z</time>
      </trkpt>
      <trkpt lat="42.38798300000016" lon="1.5815720000000022">
        <ele>1110.217</ele>
        <time>2022-08-19T20:12:20Z</time>
      </trkpt>
      <trkpt lat="42.38795000000016" lon="1.5816270000000021">
        <ele>1109.347</ele>
        <time>2022-08-19T20:12:23Z</time>
      </trkpt>
      <trkpt lat="42.38790200000016" lon="1.581671000000002">
        <ele>1108.228</ele>
        <time>2022-08-19T20:12:28Z</time>
      </trkpt>
      <trkpt lat="42.38790000000016" lon="1.5817350000000021">
        <ele>1107.183</ele>
        <time>2022-08-19T20:12:34Z</time>
      </trkpt>
      <trkpt lat="42.387814000000155" lon="1.581733000000002">
        <ele>1106.926</ele>
        <time>2022-08-19T20:12:40Z</time>
      </trkpt>
      <trkpt lat="42.38775300000015" lon="1.581746000000002">
        <ele>1106.947</ele>
        <time>2022-08-19T20:12:42Z</time>
      </trkpt>
      <trkpt lat="42.387704000000156" lon="1.581766000000002">
        <ele>1106.011</ele>
        <time>2022-08-19T20:12:46Z</time>
      </trkpt>
      <trkpt lat="42.38747000000016" lon="1.5816810000000021">
        <ele>1105.309</ele>
        <time>2022-08-19T20:12:52Z</time>
      </trkpt>
      <trkpt lat="42.387443000000154" lon="1.581752000000002">
        <ele>1103.283</ele>
        <time>2022-08-19T20:12:56Z</time>
      </trkpt>
      <trkpt lat="42.38742700000015" lon="1.5818210000000021">
        <ele>1102.863</ele>
        <time>2022-08-19T20:12:59Z</time>
      </trkpt>
      <trkpt lat="42.38740000000015" lon="1.5818800000000022">
        <ele>1102.233</ele>
        <time>2022-08-19T20:13:04Z</time>
      </trkpt>
      <trkpt lat="42.38734100000015" lon="1.5819040000000022">
        <ele>1101.833</ele>
        <time>2022-08-19T20:13:07Z</time>
      </trkpt>
      <trkpt lat="42.38729900000015" lon="1.581951000000002">
        <ele>1101.380</ele>
        <time>2022-08-19T20:13:10Z</time>
      </trkpt>
      <trkpt lat="42.38726200000015" lon="1.5819940000000021">
        <ele>1101.086</ele>
        <time>2022-08-19T20:13:13Z</time>
      </trkpt>
      <trkpt lat="42.38724400000015" lon="1.582059000000002">
        <ele>1100.976</ele>
        <time>2022-08-19T20:13:19Z</time>
      </trkpt>
      <trkpt lat="42.38724100000015" lon="1.582124000000002">
        <ele>1100.977</ele>
        <time>2022-08-19T20:13:25Z</time>
      </trkpt>
      <trkpt lat="42.387232000000154" lon="1.582184000000002">
        <ele>1100.922</ele>
        <time>2022-08-19T20:13:28Z</time>
      </trkpt>
      <trkpt lat="42.38719600000015" lon="1.5822340000000021">
        <ele>1100.928</ele>
        <time>2022-08-19T20:13:34Z</time>
      </trkpt>
      <trkpt lat="42.38714600000015" lon="1.5822170000000022">
        <ele>1100.789</ele>
        <time>2022-08-19T20:13:41Z</time>
      </trkpt>
      <trkpt lat="42.38714700000015" lon="1.5822960000000021">
        <ele>1099.517</ele>
        <time>2022-08-19T20:13:44Z</time>
      </trkpt>
      <trkpt lat="42.387182000000145" lon="1.5823470000000022">
        <ele>1098.009</ele>
        <time>2022-08-19T20:13:46Z</time>
      </trkpt>
      <trkpt lat="42.38722600000015" lon="1.582378000000002">
        <ele>1096.353</ele>
        <time>2022-08-19T20:13:50Z</time>
      </trkpt>
      <trkpt lat="42.38725600000015" lon="1.582429000000002">
        <ele>1094.523</ele>
        <time>2022-08-19T20:13:59Z</time>
      </trkpt>
      <trkpt lat="42.38725500000015" lon="1.582529000000002">
        <ele>1094.713</ele>
        <time>2022-08-19T20:15:57Z</time>
      </trkpt>
      <trkpt lat="42.387299000000155" lon="1.582565000000002">
        <ele>1093.753</ele>
        <time>2022-08-19T20:21:30Z</time>
      </trkpt>
      <trkpt lat="42.38733900000015" lon="1.582599000000002">
        <ele>1093.610</ele>
        <time>2022-08-19T20:21:33Z</time>
      </trkpt>
      <trkpt lat="42.38738700000015" lon="1.582632000000002">
        <ele>1093.636</ele>
        <time>2022-08-19T20:21:36Z</time>
      </trkpt>
      <trkpt lat="42.387442000000156" lon="1.582650000000002">
        <ele>1093.586</ele>
        <time>2022-08-19T20:21:39Z</time>
      </trkpt>
      <trkpt lat="42.38750100000016" lon="1.5826550000000021">
        <ele>1092.787</ele>
        <time>2022-08-19T20:21:42Z</time>
      </trkpt>
      <trkpt lat="42.387552000000156" lon="1.582653000000002">
        <ele>1091.772</ele>
        <time>2022-08-19T20:21:45Z</time>
      </trkpt>
      <trkpt lat="42.387603000000155" lon="1.582643000000002">
        <ele>1091.323</ele>
        <time>2022-08-19T20:21:48Z</time>
      </trkpt>
      <trkpt lat="42.38765300000016" lon="1.582618000000002">
        <ele>1090.883</ele>
        <time>2022-08-19T20:21:51Z</time>
      </trkpt>
      <trkpt lat="42.387699000000154" lon="1.582602000000002">
        <ele>1090.311</ele>
        <time>2022-08-19T20:21:54Z</time>
      </trkpt>
      <trkpt lat="42.387752000000155" lon="1.582594000000002">
        <ele>1089.909</ele>
        <time>2022-08-19T20:21:57Z</time>
      </trkpt>
      <trkpt lat="42.38781600000016" lon="1.582600000000002">
        <ele>1089.943</ele>
        <time>2022-08-19T20:22:02Z</time>
      </trkpt>
      <trkpt lat="42.38785800000016" lon="1.582572000000002">
        <ele>1089.763</ele>
        <time>2022-08-19T20:22:11Z</time>
      </trkpt>
      <trkpt lat="42.38789600000016" lon="1.582527000000002">
        <ele>1089.363</ele>
        <time>2022-08-19T20:22:20Z</time>
      </trkpt>
      <trkpt lat="42.38794700000016" lon="1.582530000000002">
        <ele>1087.863</ele>
        <time>2022-08-19T20:22:27Z</time>
      </trkpt>
      <trkpt lat="42.388002000000164" lon="1.582537000000002">
        <ele>1086.720</ele>
        <time>2022-08-19T20:22:36Z</time>
      </trkpt>
      <trkpt lat="42.38805100000016" lon="1.582543000000002">
        <ele>1086.026</ele>
        <time>2022-08-19T20:22:40Z</time>
      </trkpt>
      <trkpt lat="42.38809600000016" lon="1.582538000000002">
        <ele>1084.926</ele>
        <time>2022-08-19T20:22:44Z</time>
      </trkpt>
      <trkpt lat="42.38814700000016" lon="1.582553000000002">
        <ele>1084.377</ele>
        <time>2022-08-19T20:22:48Z</time>
      </trkpt>
      <trkpt lat="42.38820000000016" lon="1.582548000000002">
        <ele>1083.912</ele>
        <time>2022-08-19T20:22:52Z</time>
      </trkpt>
      <trkpt lat="42.38824800000016" lon="1.582565000000002">
        <ele>1082.693</ele>
        <time>2022-08-19T20:22:57Z</time>
      </trkpt>
      <trkpt lat="42.38829500000016" lon="1.582600000000002">
        <ele>1081.565</ele>
        <time>2022-08-19T20:23:02Z</time>
      </trkpt>
      <trkpt lat="42.38834100000016" lon="1.582624000000002">
        <ele>1080.421</ele>
        <time>2022-08-19T20:23:07Z</time>
      </trkpt>
      <trkpt lat="42.38838900000016" lon="1.582657000000002">
        <ele>1078.909</ele>
        <time>2022-08-19T20:23:12Z</time>
      </trkpt>
      <trkpt lat="42.38843300000016" lon="1.582687000000002">
        <ele>1077.760</ele>
        <time>2022-08-19T20:23:17Z</time>
      </trkpt>
      <trkpt lat="42.38847500000016" lon="1.582728000000002">
        <ele>1075.710</ele>
        <time>2022-08-19T20:23:22Z</time>
      </trkpt>
      <trkpt lat="42.38851800000016" lon="1.582755000000002">
        <ele>1074.750</ele>
        <time>2022-08-19T20:23:26Z</time>
      </trkpt>
      <trkpt lat="42.38856300000016" lon="1.5827960000000019">
        <ele>1073.980</ele>
        <time>2022-08-19T20:23:31Z</time>
      </trkpt>
      <trkpt lat="42.38860500000016" lon="1.5828180000000018">
        <ele>1073.087</ele>
        <time>2022-08-19T20:23:35Z</time>
      </trkpt>
      <trkpt lat="42.388649000000164" lon="1.582836000000002">
        <ele>1071.743</ele>
        <time>2022-08-19T20:23:39Z</time>
      </trkpt>
      <trkpt lat="42.38868900000016" lon="1.582878000000002">
        <ele>1070.583</ele>
        <time>2022-08-19T20:23:43Z</time>
      </trkpt>
      <trkpt lat="42.38872900000016" lon="1.582922000000002">
        <ele>1069.214</ele>
        <time>2022-08-19T20:23:48Z</time>
      </trkpt>
      <trkpt lat="42.38876500000016" lon="1.582976000000002">
        <ele>1067.789</ele>
        <time>2022-08-19T20:23:53Z</time>
      </trkpt>
      <trkpt lat="42.388784000000165" lon="1.583037000000002">
        <ele>1066.527</ele>
        <time>2022-08-19T20:23:58Z</time>
      </trkpt>
      <trkpt lat="42.388818000000164" lon="1.5830790000000021">
        <ele>1065.368</ele>
        <time>2022-08-19T20:24:04Z</time>
      </trkpt>
      <trkpt lat="42.388826000000165" lon="1.5831460000000022">
        <ele>1063.314</ele>
        <time>2022-08-19T20:24:12Z</time>
      </trkpt>
      <trkpt lat="42.388854000000165" lon="1.5831960000000023">
        <ele>1061.809</ele>
        <time>2022-08-19T20:24:17Z</time>
      </trkpt>
      <trkpt lat="42.38887200000016" lon="1.5832540000000022">
        <ele>1060.383</ele>
        <time>2022-08-19T20:24:22Z</time>
      </trkpt>
      <trkpt lat="42.38885000000016" lon="1.5833150000000022">
        <ele>1060.143</ele>
        <time>2022-08-19T20:24:29Z</time>
      </trkpt>
      <trkpt lat="42.38881300000016" lon="1.5833490000000023">
        <ele>1060.163</ele>
        <time>2022-08-19T20:24:35Z</time>
      </trkpt>
      <trkpt lat="42.388778000000165" lon="1.5833890000000024">
        <ele>1062.983</ele>
        <time>2022-08-19T20:24:57Z</time>
      </trkpt>
      <trkpt lat="42.388730000000166" lon="1.5833750000000024">
        <ele>1064.960</ele>
        <time>2022-08-19T20:25:04Z</time>
      </trkpt>
      <trkpt lat="42.388683000000164" lon="1.5833620000000024">
        <ele>1066.636</ele>
        <time>2022-08-19T20:25:11Z</time>
      </trkpt>
      <trkpt lat="42.38862700000016" lon="1.5833880000000025">
        <ele>1068.466</ele>
        <time>2022-08-19T20:25:16Z</time>
      </trkpt>
      <trkpt lat="42.38858200000016" lon="1.5834170000000025">
        <ele>1069.947</ele>
        <time>2022-08-19T20:25:20Z</time>
      </trkpt>
      <trkpt lat="42.38854300000016" lon="1.5834550000000025">
        <ele>1071.612</ele>
        <time>2022-08-19T20:25:25Z</time>
      </trkpt>
      <trkpt lat="42.38849600000016" lon="1.5834750000000024">
        <ele>1072.434</ele>
        <time>2022-08-19T20:25:32Z</time>
      </trkpt>
      <trkpt lat="42.38845100000016" lon="1.5835080000000024">
        <ele>1073.455</ele>
        <time>2022-08-19T20:25:37Z</time>
      </trkpt>
      <trkpt lat="42.38839800000016" lon="1.5835220000000023">
        <ele>1074.010</ele>
        <time>2022-08-19T20:25:42Z</time>
      </trkpt>
      <trkpt lat="42.388357000000155" lon="1.5835700000000024">
        <ele>1074.509</ele>
        <time>2022-08-19T20:25:47Z</time>
      </trkpt>
      <trkpt lat="42.38831300000015" lon="1.5835910000000024">
        <ele>1075.254</ele>
        <time>2022-08-19T20:25:52Z</time>
      </trkpt>
      <trkpt lat="42.388281000000156" lon="1.5836420000000024">
        <ele>1076.174</ele>
        <time>2022-08-19T20:25:56Z</time>
      </trkpt>
      <trkpt lat="42.38825400000015" lon="1.5836950000000025">
        <ele>1076.694</ele>
        <time>2022-08-19T20:26:00Z</time>
      </trkpt>
      <trkpt lat="42.38824300000015" lon="1.5837560000000026">
        <ele>1077.264</ele>
        <time>2022-08-19T20:26:04Z</time>
      </trkpt>
      <trkpt lat="42.38823300000015" lon="1.5838180000000026">
        <ele>1077.831</ele>
        <time>2022-08-19T20:26:09Z</time>
      </trkpt>
      <trkpt lat="42.388209000000145" lon="1.5838790000000027">
        <ele>1078.537</ele>
        <time>2022-08-19T20:26:14Z</time>
      </trkpt>
      <trkpt lat="42.388192000000146" lon="1.5839440000000027">
        <ele>1078.977</ele>
        <time>2022-08-19T20:26:18Z</time>
      </trkpt>
      <trkpt lat="42.38817400000015" lon="1.5840090000000027">
        <ele>1079.518</ele>
        <time>2022-08-19T20:26:23Z</time>
      </trkpt>
      <trkpt lat="42.38814200000015" lon="1.5840690000000026">
        <ele>1080.873</ele>
        <time>2022-08-19T20:26:28Z</time>
      </trkpt>
      <trkpt lat="42.38811700000015" lon="1.5841250000000027">
        <ele>1081.037</ele>
        <time>2022-08-19T20:26:33Z</time>
      </trkpt>
      <trkpt lat="42.38810300000015" lon="1.5841890000000027">
        <ele>1081.349</ele>
        <time>2022-08-19T20:26:37Z</time>
      </trkpt>
      <trkpt lat="42.38810700000015" lon="1.5842540000000027">
        <ele>1081.513</ele>
        <time>2022-08-19T20:26:40Z</time>
      </trkpt>
      <trkpt lat="42.38811500000015" lon="1.5843180000000028">
        <ele>1081.809</ele>
        <time>2022-08-19T20:26:44Z</time>
      </trkpt>
      <trkpt lat="42.38811400000015" lon="1.5843790000000029">
        <ele>1082.064</ele>
        <time>2022-08-19T20:26:48Z</time>
      </trkpt>
      <trkpt lat="42.38811400000015" lon="1.584440000000003">
        <ele>1082.354</ele>
        <time>2022-08-19T20:26:52Z</time>
      </trkpt>
      <trkpt lat="42.388110000000154" lon="1.584509000000003">
        <ele>1082.874</ele>
        <time>2022-08-19T20:26:57Z</time>
      </trkpt>
      <trkpt lat="42.38810500000015" lon="1.584580000000003">
        <ele>1083.244</ele>
        <time>2022-08-19T20:27:02Z</time>
      </trkpt>
      <trkpt lat="42.38809500000015" lon="1.584643000000003">
        <ele>1083.721</ele>
        <time>2022-08-19T20:27:06Z</time>
      </trkpt>
      <trkpt lat="42.38808900000015" lon="1.584716000000003">
        <ele>1084.397</ele>
        <time>2022-08-19T20:27:11Z</time>
      </trkpt>
      <trkpt lat="42.38807800000015" lon="1.5847760000000028">
        <ele>1084.937</ele>
        <time>2022-08-19T20:27:15Z</time>
      </trkpt>
      <trkpt lat="42.38807200000015" lon="1.5848380000000029">
        <ele>1085.628</ele>
        <time>2022-08-19T20:27:20Z</time>
      </trkpt>
      <trkpt lat="42.38806100000015" lon="1.5848980000000028">
        <ele>1087.193</ele>
        <time>2022-08-19T20:27:26Z</time>
      </trkpt>
      <trkpt lat="42.38807600000015" lon="1.5849690000000027">
        <ele>1088.455</ele>
        <time>2022-08-19T20:27:32Z</time>
      </trkpt>
      <trkpt lat="42.388074000000145" lon="1.5850440000000028">
        <ele>1089.007</ele>
        <time>2022-08-19T20:27:36Z</time>
      </trkpt>
      <trkpt lat="42.388091000000145" lon="1.5851130000000029">
        <ele>1089.717</ele>
        <time>2022-08-19T20:27:40Z</time>
      </trkpt>
      <trkpt lat="42.388083000000144" lon="1.5851810000000028">
        <ele>1090.509</ele>
        <time>2022-08-19T20:27:44Z</time>
      </trkpt>
      <trkpt lat="42.38812000000014" lon="1.5852470000000027">
        <ele>1091.886</ele>
        <time>2022-08-19T20:27:50Z</time>
      </trkpt>
      <trkpt lat="42.38813100000014" lon="1.5853160000000028">
        <ele>1092.756</ele>
        <time>2022-08-19T20:27:54Z</time>
      </trkpt>
      <trkpt lat="42.388122000000145" lon="1.5853820000000027">
        <ele>1093.596</ele>
        <time>2022-08-19T20:27:59Z</time>
      </trkpt>
      <trkpt lat="42.388102000000146" lon="1.5854520000000027">
        <ele>1094.216</ele>
        <time>2022-08-19T20:28:04Z</time>
      </trkpt>
      <trkpt lat="42.38807800000014" lon="1.5855170000000027">
        <ele>1095.723</ele>
        <time>2022-08-19T20:28:10Z</time>
      </trkpt>
      <trkpt lat="42.38806800000014" lon="1.5855810000000028">
        <ele>1096.679</ele>
        <time>2022-08-19T20:28:15Z</time>
      </trkpt>
      <trkpt lat="42.38807300000014" lon="1.5856440000000027">
        <ele>1097.319</ele>
        <time>2022-08-19T20:28:20Z</time>
      </trkpt>
      <trkpt lat="42.38804400000014" lon="1.5857090000000027">
        <ele>1098.480</ele>
        <time>2022-08-19T20:28:27Z</time>
      </trkpt>
      <trkpt lat="42.38803300000014" lon="1.5857680000000027">
        <ele>1099.595</ele>
        <time>2022-08-19T20:28:31Z</time>
      </trkpt>
      <trkpt lat="42.38798600000014" lon="1.5857970000000028">
        <ele>1099.738</ele>
        <time>2022-08-19T20:28:38Z</time>
      </trkpt>
      <trkpt lat="42.38794600000014" lon="1.5857480000000028">
        <ele>1100.070</ele>
        <time>2022-08-19T20:28:40Z</time>
      </trkpt>
      <trkpt lat="42.38790400000014" lon="1.5857270000000028">
        <ele>1100.517</ele>
        <time>2022-08-19T20:28:44Z</time>
      </trkpt>
      <trkpt lat="42.38786700000014" lon="1.5856760000000027">
        <ele>1101.709</ele>
        <time>2022-08-19T20:28:52Z</time>
      </trkpt>
      <trkpt lat="42.387824000000144" lon="1.5856590000000028">
        <ele>1102.554</ele>
        <time>2022-08-19T20:28:56Z</time>
      </trkpt>
      <trkpt lat="42.387776000000144" lon="1.5856560000000028">
        <ele>1103.734</ele>
        <time>2022-08-19T20:29:02Z</time>
      </trkpt>
      <trkpt lat="42.38773700000014" lon="1.5856050000000028">
        <ele>1104.524</ele>
        <time>2022-08-19T20:29:08Z</time>
      </trkpt>
      <trkpt lat="42.38768700000014" lon="1.5855890000000028">
        <ele>1105.144</ele>
        <time>2022-08-19T20:29:13Z</time>
      </trkpt>
      <trkpt lat="42.38763600000014" lon="1.5855940000000028">
        <ele>1106.431</ele>
        <time>2022-08-19T20:29:20Z</time>
      </trkpt>
      <trkpt lat="42.387584000000146" lon="1.5855600000000027">
        <ele>1107.517</ele>
        <time>2022-08-19T20:29:28Z</time>
      </trkpt>
      <trkpt lat="42.38753200000015" lon="1.5855870000000027">
        <ele>1109.067</ele>
        <time>2022-08-19T20:29:32Z</time>
      </trkpt>
      <trkpt lat="42.38749300000015" lon="1.5856240000000028">
        <ele>1109.198</ele>
        <time>2022-08-19T20:29:36Z</time>
      </trkpt>
      <trkpt lat="42.387446000000146" lon="1.5856190000000028">
        <ele>1109.663</ele>
        <time>2022-08-19T20:29:42Z</time>
      </trkpt>
      <trkpt lat="42.387396000000145" lon="1.5856200000000027">
        <ele>1110.438</ele>
        <time>2022-08-19T20:29:47Z</time>
      </trkpt>
      <trkpt lat="42.387345000000145" lon="1.5856230000000027">
        <ele>1111.570</ele>
        <time>2022-08-19T20:29:54Z</time>
      </trkpt>
      <trkpt lat="42.38730100000014" lon="1.5856410000000027">
        <ele>1112.417</ele>
        <time>2022-08-19T20:30:00Z</time>
      </trkpt>
      <trkpt lat="42.38726000000014" lon="1.5856710000000027">
        <ele>1113.209</ele>
        <time>2022-08-19T20:30:04Z</time>
      </trkpt>
      <trkpt lat="42.38722500000014" lon="1.5857170000000027">
        <ele>1114.154</ele>
        <time>2022-08-19T20:30:09Z</time>
      </trkpt>
      <trkpt lat="42.38722200000014" lon="1.5857810000000028">
        <ele>1114.884</ele>
        <time>2022-08-19T20:30:18Z</time>
      </trkpt>
      <trkpt lat="42.38722300000014" lon="1.5858480000000028">
        <ele>1119.734</ele>
        <time>2022-08-19T20:30:57Z</time>
      </trkpt>
      <trkpt lat="42.38726500000014" lon="1.5858840000000027">
        <ele>1120.564</ele>
        <time>2022-08-19T20:31:03Z</time>
      </trkpt>
      <trkpt lat="42.38727300000014" lon="1.5859500000000026">
        <ele>1120.931</ele>
        <time>2022-08-19T20:31:09Z</time>
      </trkpt>
      <trkpt lat="42.38730100000014" lon="1.5858980000000027">
        <ele>1121.117</ele>
        <time>2022-08-19T20:31:17Z</time>
      </trkpt>
      <trkpt lat="42.38733500000014" lon="1.5859420000000026">
        <ele>1124.227</ele>
        <time>2022-08-19T20:31:24Z</time>
      </trkpt>
      <trkpt lat="42.38732200000014" lon="1.5860010000000027">
        <ele>1125.448</ele>
        <time>2022-08-19T20:31:27Z</time>
      </trkpt>
      <trkpt lat="42.387329000000136" lon="1.5860630000000027">
        <ele>1127.853</ele>
        <time>2022-08-19T20:31:35Z</time>
      </trkpt>
      <trkpt lat="42.38737100000014" lon="1.5860930000000026">
        <ele>1128.516</ele>
        <time>2022-08-19T20:31:41Z</time>
      </trkpt>
      <trkpt lat="42.38741800000014" lon="1.5861020000000026">
        <ele>1129.376</ele>
        <time>2022-08-19T20:31:45Z</time>
      </trkpt>
      <trkpt lat="42.387453000000136" lon="1.5861430000000025">
        <ele>1130.313</ele>
        <time>2022-08-19T20:31:53Z</time>
      </trkpt>
      <trkpt lat="42.38747700000014" lon="1.5862000000000025">
        <ele>1130.709</ele>
        <time>2022-08-19T20:32:00Z</time>
      </trkpt>
      <trkpt lat="42.38752200000014" lon="1.5862130000000025">
        <ele>1132.552</ele>
        <time>2022-08-19T20:32:11Z</time>
      </trkpt>
      <trkpt lat="42.38756800000014" lon="1.5861810000000025">
        <ele>1134.032</ele>
        <time>2022-08-19T20:32:18Z</time>
      </trkpt>
      <trkpt lat="42.38758700000014" lon="1.5862440000000024">
        <ele>1135.272</ele>
        <time>2022-08-19T20:32:22Z</time>
      </trkpt>
      <trkpt lat="42.387591000000135" lon="1.5863070000000024">
        <ele>1136.442</ele>
        <time>2022-08-19T20:32:25Z</time>
      </trkpt>
      <trkpt lat="42.38758400000014" lon="1.5863700000000023">
        <ele>1138.839</ele>
        <time>2022-08-19T20:32:32Z</time>
      </trkpt>
      <trkpt lat="42.38761100000014" lon="1.5864350000000023">
        <ele>1139.855</ele>
        <time>2022-08-19T20:32:39Z</time>
      </trkpt>
      <trkpt lat="42.387613000000144" lon="1.5865050000000023">
        <ele>1141.045</ele>
        <time>2022-08-19T20:32:45Z</time>
      </trkpt>
      <trkpt lat="42.387579000000144" lon="1.5865460000000022">
        <ele>1142.156</ele>
        <time>2022-08-19T20:32:53Z</time>
      </trkpt>
      <trkpt lat="42.387604000000145" lon="1.5866080000000022">
        <ele>1143.261</ele>
        <time>2022-08-19T20:33:00Z</time>
      </trkpt>
      <trkpt lat="42.387607000000145" lon="1.5866770000000023">
        <ele>1144.997</ele>
        <time>2022-08-19T20:33:11Z</time>
      </trkpt>
      <trkpt lat="42.387615000000146" lon="1.5867370000000023">
        <ele>1146.323</ele>
        <time>2022-08-19T20:33:18Z</time>
      </trkpt>
      <trkpt lat="42.387666000000145" lon="1.5867480000000023">
        <ele>1147.025</ele>
        <time>2022-08-19T20:33:22Z</time>
      </trkpt>
      <trkpt lat="42.38771000000015" lon="1.5867240000000022">
        <ele>1147.909</ele>
        <time>2022-08-19T20:33:26Z</time>
      </trkpt>
      <trkpt lat="42.38776100000015" lon="1.5867300000000022">
        <ele>1149.160</ele>
        <time>2022-08-19T20:33:32Z</time>
      </trkpt>
      <trkpt lat="42.38779900000015" lon="1.5867760000000022">
        <ele>1150.850</ele>
        <time>2022-08-19T20:33:38Z</time>
      </trkpt>
      <trkpt lat="42.38781600000015" lon="1.5868430000000022">
        <ele>1151.740</ele>
        <time>2022-08-19T20:33:43Z</time>
      </trkpt>
      <trkpt lat="42.38783700000015" lon="1.5868990000000023">
        <ele>1152.970</ele>
        <time>2022-08-19T20:33:49Z</time>
      </trkpt>
      <trkpt lat="42.387832000000145" lon="1.5869730000000022">
        <ele>1153.387</ele>
        <time>2022-08-19T20:33:52Z</time>
      </trkpt>
      <trkpt lat="42.38780800000014" lon="1.5870460000000022">
        <ele>1154.023</ele>
        <time>2022-08-19T20:33:54Z</time>
      </trkpt>
      <trkpt lat="42.387793000000144" lon="1.5871070000000023">
        <ele>1154.823</ele>
        <time>2022-08-19T20:34:01Z</time>
      </trkpt>
      <trkpt lat="42.387827000000144" lon="1.5871470000000023">
        <ele>1155.434</ele>
        <time>2022-08-19T20:34:07Z</time>
      </trkpt>
      <trkpt lat="42.387872000000144" lon="1.5871390000000023">
        <ele>1156.049</ele>
        <time>2022-08-19T20:34:10Z</time>
      </trkpt>
      <trkpt lat="42.38791800000014" lon="1.5871370000000022">
        <ele>1156.935</ele>
        <time>2022-08-19T20:34:22Z</time>
      </trkpt>
      <trkpt lat="42.38796500000014" lon="1.5871460000000022">
        <ele>1157.786</ele>
        <time>2022-08-19T20:34:28Z</time>
      </trkpt>
      <trkpt lat="42.38797700000014" lon="1.5872130000000022">
        <ele>1158.514</ele>
        <time>2022-08-19T20:34:32Z</time>
      </trkpt>
      <trkpt lat="42.38801100000014" lon="1.5872550000000023">
        <ele>1160.209</ele>
        <time>2022-08-19T20:34:36Z</time>
      </trkpt>
      <trkpt lat="42.38801500000014" lon="1.5873170000000023">
        <ele>1161.184</ele>
        <time>2022-08-19T20:34:43Z</time>
      </trkpt>
      <trkpt lat="42.38804000000014" lon="1.5873860000000024">
        <ele>1162.784</ele>
        <time>2022-08-19T20:34:50Z</time>
      </trkpt>
      <trkpt lat="42.38805900000014" lon="1.5874440000000023">
        <ele>1164.114</ele>
        <time>2022-08-19T20:34:55Z</time>
      </trkpt>
      <trkpt lat="42.38805500000014" lon="1.5875130000000024">
        <ele>1165.614</ele>
        <time>2022-08-19T20:35:02Z</time>
      </trkpt>
      <trkpt lat="42.38808700000014" lon="1.5875690000000025">
        <ele>1166.351</ele>
        <time>2022-08-19T20:35:08Z</time>
      </trkpt>
      <trkpt lat="42.38812100000014" lon="1.5876220000000025">
        <ele>1167.357</ele>
        <time>2022-08-19T20:35:15Z</time>
      </trkpt>
      <trkpt lat="42.38816400000014" lon="1.5876590000000026">
        <ele>1169.087</ele>
        <time>2022-08-19T20:35:22Z</time>
      </trkpt>
      <trkpt lat="42.38819500000014" lon="1.5877140000000025">
        <ele>1171.038</ele>
        <time>2022-08-19T20:35:31Z</time>
      </trkpt>
      <trkpt lat="42.38818900000014" lon="1.5877760000000025">
        <ele>1172.163</ele>
        <time>2022-08-19T20:35:38Z</time>
      </trkpt>
      <trkpt lat="42.38823500000014" lon="1.5877560000000026">
        <ele>1173.915</ele>
        <time>2022-08-19T20:35:47Z</time>
      </trkpt>
      <trkpt lat="42.388272000000136" lon="1.5877950000000025">
        <ele>1175.265</ele>
        <time>2022-08-19T20:35:53Z</time>
      </trkpt>
      <trkpt lat="42.38830700000013" lon="1.5878390000000024">
        <ele>1177.011</ele>
        <time>2022-08-19T20:36:00Z</time>
      </trkpt>
      <trkpt lat="42.38833800000013" lon="1.5879370000000024">
        <ele>1178.909</ele>
        <time>2022-08-19T20:36:07Z</time>
      </trkpt>
      <trkpt lat="42.388351000000135" lon="1.5879990000000024">
        <ele>1180.352</ele>
        <time>2022-08-19T20:36:10Z</time>
      </trkpt>
      <trkpt lat="42.388368000000135" lon="1.5880630000000024">
        <ele>1182.042</ele>
        <time>2022-08-19T20:36:20Z</time>
      </trkpt>
      <trkpt lat="42.388379000000135" lon="1.5881280000000024">
        <ele>1183.532</ele>
        <time>2022-08-19T20:36:27Z</time>
      </trkpt>
      <trkpt lat="42.38842300000014" lon="1.5881490000000025">
        <ele>1184.132</ele>
        <time>2022-08-19T20:36:33Z</time>
      </trkpt>
      <trkpt lat="42.38847600000014" lon="1.5881650000000025">
        <ele>1185.249</ele>
        <time>2022-08-19T20:36:39Z</time>
      </trkpt>
      <trkpt lat="42.38852900000014" lon="1.5881400000000025">
        <ele>1186.045</ele>
        <time>2022-08-19T20:36:44Z</time>
      </trkpt>
      <trkpt lat="42.38858100000014" lon="1.5881190000000025">
        <ele>1186.945</ele>
        <time>2022-08-19T20:36:47Z</time>
      </trkpt>
      <trkpt lat="42.38859800000014" lon="1.5881780000000025">
        <ele>1188.666</ele>
        <time>2022-08-19T20:36:54Z</time>
      </trkpt>
      <trkpt lat="42.388621000000136" lon="1.5882380000000025">
        <ele>1189.951</ele>
        <time>2022-08-19T20:37:01Z</time>
      </trkpt>
      <trkpt lat="42.388641000000135" lon="1.5883000000000025">
        <ele>1190.998</ele>
        <time>2022-08-19T20:37:08Z</time>
      </trkpt>
      <trkpt lat="42.38862500000013" lon="1.5883590000000025">
        <ele>1191.415</ele>
        <time>2022-08-19T20:37:11Z</time>
      </trkpt>
      <trkpt lat="42.38865400000013" lon="1.5884120000000026">
        <ele>1192.626</ele>
        <time>2022-08-19T20:37:18Z</time>
      </trkpt>
      <trkpt lat="42.38870100000013" lon="1.5884060000000026">
        <ele>1193.909</ele>
        <time>2022-08-19T20:37:24Z</time>
      </trkpt>
      <trkpt lat="42.388751000000134" lon="1.5884050000000027">
        <ele>1195.690</ele>
        <time>2022-08-19T20:37:31Z</time>
      </trkpt>
      <trkpt lat="42.388787000000136" lon="1.5884440000000026">
        <ele>1196.770</ele>
        <time>2022-08-19T20:37:36Z</time>
      </trkpt>
      <trkpt lat="42.38879700000014" lon="1.5885130000000027">
        <ele>1198.040</ele>
        <time>2022-08-19T20:37:38Z</time>
      </trkpt>
      <trkpt lat="42.38883500000014" lon="1.5885520000000026">
        <ele>1199.120</ele>
        <time>2022-08-19T20:37:46Z</time>
      </trkpt>
      <trkpt lat="42.38887500000014" lon="1.5885190000000027">
        <ele>1200.587</ele>
        <time>2022-08-19T20:37:53Z</time>
      </trkpt>
      <trkpt lat="42.38892000000014" lon="1.5885120000000026">
        <ele>1202.823</ele>
        <time>2022-08-19T20:38:07Z</time>
      </trkpt>
      <trkpt lat="42.38892500000014" lon="1.5884450000000025">
        <ele>1203.783</ele>
        <time>2022-08-19T20:38:14Z</time>
      </trkpt>
      <trkpt lat="42.38895000000014" lon="1.5883920000000025">
        <ele>1204.454</ele>
        <time>2022-08-19T20:38:18Z</time>
      </trkpt>
      <trkpt lat="42.38896700000014" lon="1.5883280000000024">
        <ele>1206.549</ele>
        <time>2022-08-19T20:38:27Z</time>
      </trkpt>
      <trkpt lat="42.389009000000144" lon="1.5883050000000023">
        <ele>1208.162</ele>
        <time>2022-08-19T20:38:34Z</time>
      </trkpt>
      <trkpt lat="42.38903500000014" lon="1.5882550000000022">
        <ele>1209.383</ele>
        <time>2022-08-19T20:38:39Z</time>
      </trkpt>
      <trkpt lat="42.38908000000014" lon="1.5882390000000022">
        <ele>1211.111</ele>
        <time>2022-08-19T20:38:45Z</time>
      </trkpt>
      <trkpt lat="42.38912000000014" lon="1.5882030000000023">
        <ele>1213.109</ele>
        <time>2022-08-19T20:38:58Z</time>
      </trkpt>
      <trkpt lat="42.38917200000014" lon="1.5882080000000023">
        <ele>1214.577</ele>
        <time>2022-08-19T20:39:06Z</time>
      </trkpt>
      <trkpt lat="42.38921600000014" lon="1.5881800000000024">
        <ele>1216.177</ele>
        <time>2022-08-19T20:39:14Z</time>
      </trkpt>
      <trkpt lat="42.38921900000014" lon="1.5881110000000023">
        <ele>1217.877</ele>
        <time>2022-08-19T20:39:22Z</time>
      </trkpt>
      <trkpt lat="42.38926500000014" lon="1.5881340000000024">
        <ele>1219.257</ele>
        <time>2022-08-19T20:39:28Z</time>
      </trkpt>
      <trkpt lat="42.38930900000014" lon="1.5881480000000023">
        <ele>1219.944</ele>
        <time>2022-08-19T20:39:32Z</time>
      </trkpt>
      <trkpt lat="42.38934200000014" lon="1.5880940000000023">
        <ele>1220.680</ele>
        <time>2022-08-19T20:39:36Z</time>
      </trkpt>
      <trkpt lat="42.38938500000014" lon="1.5880610000000024">
        <ele>1223.090</ele>
        <time>2022-08-19T20:39:42Z</time>
      </trkpt>
      <trkpt lat="42.38938100000014" lon="1.5880000000000023">
        <ele>1223.761</ele>
        <time>2022-08-19T20:39:47Z</time>
      </trkpt>
      <trkpt lat="42.389428000000144" lon="1.5879920000000023">
        <ele>1224.746</ele>
        <time>2022-08-19T20:39:51Z</time>
      </trkpt>
      <trkpt lat="42.38947500000015" lon="1.5880200000000022">
        <ele>1225.579</ele>
        <time>2022-08-19T20:39:53Z</time>
      </trkpt>
      <trkpt lat="42.389515000000145" lon="1.588051000000002">
        <ele>1226.205</ele>
        <time>2022-08-19T20:39:58Z</time>
      </trkpt>
      <trkpt lat="42.389554000000146" lon="1.588105000000002">
        <ele>1227.025</ele>
        <time>2022-08-19T20:40:03Z</time>
      </trkpt>
      <trkpt lat="42.38958100000015" lon="1.588168000000002">
        <ele>1228.009</ele>
        <time>2022-08-19T20:40:07Z</time>
      </trkpt>
      <trkpt lat="42.38961700000015" lon="1.588208000000002">
        <ele>1230.148</ele>
        <time>2022-08-19T20:40:19Z</time>
      </trkpt>
      <trkpt lat="42.38966400000015" lon="1.5881990000000021">
        <ele>1231.368</ele>
        <time>2022-08-19T20:40:26Z</time>
      </trkpt>
      <trkpt lat="42.38971500000015" lon="1.5881880000000022">
        <ele>1233.278</ele>
        <time>2022-08-19T20:40:37Z</time>
      </trkpt>
      <trkpt lat="42.38976800000015" lon="1.588194000000002">
        <ele>1234.628</ele>
        <time>2022-08-19T20:40:43Z</time>
      </trkpt>
      <trkpt lat="42.389806000000156" lon="1.588235000000002">
        <ele>1236.935</ele>
        <time>2022-08-19T20:40:53Z</time>
      </trkpt>
      <trkpt lat="42.38985500000015" lon="1.588240000000002">
        <ele>1238.141</ele>
        <time>2022-08-19T20:41:02Z</time>
      </trkpt>
      <trkpt lat="42.389902000000156" lon="1.588262000000002">
        <ele>1239.551</ele>
        <time>2022-08-19T20:41:10Z</time>
      </trkpt>
      <trkpt lat="42.38995100000015" lon="1.588282000000002">
        <ele>1241.272</ele>
        <time>2022-08-19T20:41:18Z</time>
      </trkpt>
      <trkpt lat="42.38997200000015" lon="1.588341000000002">
        <ele>1242.287</ele>
        <time>2022-08-19T20:41:24Z</time>
      </trkpt>
      <trkpt lat="42.39001700000015" lon="1.588375000000002">
        <ele>1243.588</ele>
        <time>2022-08-19T20:41:31Z</time>
      </trkpt>
      <trkpt lat="42.39006500000015" lon="1.588402000000002">
        <ele>1244.524</ele>
        <time>2022-08-19T20:41:38Z</time>
      </trkpt>
      <trkpt lat="42.39011000000015" lon="1.5884150000000021">
        <ele>1245.326</ele>
        <time>2022-08-19T20:41:44Z</time>
      </trkpt>
      <trkpt lat="42.39015300000015" lon="1.588391000000002">
        <ele>1247.109</ele>
        <time>2022-08-19T20:41:53Z</time>
      </trkpt>
      <trkpt lat="42.39016300000015" lon="1.588330000000002">
        <ele>1248.129</ele>
        <time>2022-08-19T20:42:00Z</time>
      </trkpt>
      <trkpt lat="42.39020700000015" lon="1.588362000000002">
        <ele>1249.969</ele>
        <time>2022-08-19T20:42:09Z</time>
      </trkpt>
      <trkpt lat="42.39024900000015" lon="1.588389000000002">
        <ele>1250.979</ele>
        <time>2022-08-19T20:42:14Z</time>
      </trkpt>
      <trkpt lat="42.390293000000156" lon="1.588419000000002">
        <ele>1252.139</ele>
        <time>2022-08-19T20:42:21Z</time>
      </trkpt>
      <trkpt lat="42.390336000000154" lon="1.588445000000002">
        <ele>1253.366</ele>
        <time>2022-08-19T20:42:28Z</time>
      </trkpt>
      <trkpt lat="42.390375000000155" lon="1.5884900000000022">
        <ele>1254.322</ele>
        <time>2022-08-19T20:42:35Z</time>
      </trkpt>
      <trkpt lat="42.39040700000015" lon="1.5885430000000023">
        <ele>1255.152</ele>
        <time>2022-08-19T20:42:42Z</time>
      </trkpt>
      <trkpt lat="42.39045500000015" lon="1.5885370000000023">
        <ele>1256.093</ele>
        <time>2022-08-19T20:42:46Z</time>
      </trkpt>
      <trkpt lat="42.39049200000015" lon="1.5885740000000024">
        <ele>1256.958</ele>
        <time>2022-08-19T20:42:52Z</time>
      </trkpt>
      <trkpt lat="42.39052200000015" lon="1.5886250000000024">
        <ele>1258.233</ele>
        <time>2022-08-19T20:42:59Z</time>
      </trkpt>
      <trkpt lat="42.390541000000155" lon="1.5886840000000024">
        <ele>1259.223</ele>
        <time>2022-08-19T20:43:03Z</time>
      </trkpt>
      <trkpt lat="42.390583000000156" lon="1.5887200000000024">
        <ele>1260.415</ele>
        <time>2022-08-19T20:43:09Z</time>
      </trkpt>
      <trkpt lat="42.39061300000016" lon="1.5887740000000024">
        <ele>1261.409</ele>
        <time>2022-08-19T20:43:16Z</time>
      </trkpt>
      <trkpt lat="42.39064400000016" lon="1.5888250000000024">
        <ele>1262.144</ele>
        <time>2022-08-19T20:43:23Z</time>
      </trkpt>
      <trkpt lat="42.39068000000016" lon="1.5888720000000023">
        <ele>1263.234</ele>
        <time>2022-08-19T20:43:30Z</time>
      </trkpt>
      <trkpt lat="42.39073800000016" lon="1.5888460000000022">
        <ele>1263.764</ele>
        <time>2022-08-19T20:43:34Z</time>
      </trkpt>
      <trkpt lat="42.390785000000164" lon="1.5888650000000022">
        <ele>1264.244</ele>
        <time>2022-08-19T20:43:39Z</time>
      </trkpt>
      <trkpt lat="42.390821000000166" lon="1.5889050000000022">
        <ele>1265.371</ele>
        <time>2022-08-19T20:43:46Z</time>
      </trkpt>
      <trkpt lat="42.39087000000016" lon="1.5889240000000022">
        <ele>1266.757</ele>
        <time>2022-08-19T20:43:53Z</time>
      </trkpt>
      <trkpt lat="42.390928000000166" lon="1.5889460000000022">
        <ele>1267.577</ele>
        <time>2022-08-19T20:43:58Z</time>
      </trkpt>
      <trkpt lat="42.390976000000165" lon="1.5889510000000022">
        <ele>1267.988</ele>
        <time>2022-08-19T20:44:03Z</time>
      </trkpt>
      <trkpt lat="42.391016000000164" lon="1.5889880000000023">
        <ele>1269.223</ele>
        <time>2022-08-19T20:44:11Z</time>
      </trkpt>
      <trkpt lat="42.39105400000017" lon="1.5890230000000023">
        <ele>1270.776</ele>
        <time>2022-08-19T20:44:18Z</time>
      </trkpt>
      <trkpt lat="42.391103000000165" lon="1.5890360000000023">
        <ele>1271.990</ele>
        <time>2022-08-19T20:44:26Z</time>
      </trkpt>
      <trkpt lat="42.39115000000017" lon="1.5890550000000023">
        <ele>1272.819</ele>
        <time>2022-08-19T20:44:33Z</time>
      </trkpt>
      <trkpt lat="42.39116100000017" lon="1.5891230000000023">
        <ele>1273.309</ele>
        <time>2022-08-19T20:44:36Z</time>
      </trkpt>
      <trkpt lat="42.39118800000017" lon="1.5891780000000022">
        <ele>1274.358</ele>
        <time>2022-08-19T20:44:41Z</time>
      </trkpt>
      <trkpt lat="42.39121800000017" lon="1.5892320000000022">
        <ele>1274.788</ele>
        <time>2022-08-19T20:44:48Z</time>
      </trkpt>
      <trkpt lat="42.39122400000017" lon="1.5892950000000021">
        <ele>1275.638</ele>
        <time>2022-08-19T20:44:55Z</time>
      </trkpt>
      <trkpt lat="42.391234000000175" lon="1.589358000000002">
        <ele>1276.148</ele>
        <time>2022-08-19T20:45:02Z</time>
      </trkpt>
      <trkpt lat="42.39128100000018" lon="1.589399000000002">
        <ele>1277.525</ele>
        <time>2022-08-19T20:45:17Z</time>
      </trkpt>
      <trkpt lat="42.391330000000174" lon="1.589425000000002">
        <ele>1277.871</ele>
        <time>2022-08-19T20:45:20Z</time>
      </trkpt>
      <trkpt lat="42.39138400000017" lon="1.589439000000002">
        <ele>1278.151</ele>
        <time>2022-08-19T20:45:23Z</time>
      </trkpt>
      <trkpt lat="42.39142900000017" lon="1.5894730000000021">
        <ele>1278.562</ele>
        <time>2022-08-19T20:45:27Z</time>
      </trkpt>
      <trkpt lat="42.391479000000174" lon="1.589476000000002">
        <ele>1279.067</ele>
        <time>2022-08-19T20:45:36Z</time>
      </trkpt>
      <trkpt lat="42.39149400000017" lon="1.589534000000002">
        <ele>1279.913</ele>
        <time>2022-08-19T20:45:41Z</time>
      </trkpt>
      <trkpt lat="42.391490000000175" lon="1.589607000000002">
        <ele>1281.043</ele>
        <time>2022-08-19T20:45:48Z</time>
      </trkpt>
      <trkpt lat="42.39150200000017" lon="1.589676000000002">
        <ele>1281.607</ele>
        <time>2022-08-19T20:45:54Z</time>
      </trkpt>
      <trkpt lat="42.39148100000018" lon="1.5897400000000022">
        <ele>1282.409</ele>
        <time>2022-08-19T20:45:59Z</time>
      </trkpt>
      <trkpt lat="42.391482000000174" lon="1.5898130000000021">
        <ele>1283.352</ele>
        <time>2022-08-19T20:46:04Z</time>
      </trkpt>
      <trkpt lat="42.39151400000017" lon="1.5898670000000021">
        <ele>1284.022</ele>
        <time>2022-08-19T20:46:10Z</time>
      </trkpt>
      <trkpt lat="42.39151700000017" lon="1.589941000000002">
        <ele>1285.352</ele>
        <time>2022-08-19T20:46:15Z</time>
      </trkpt>
      <trkpt lat="42.39152600000017" lon="1.5900050000000021">
        <ele>1286.122</ele>
        <time>2022-08-19T20:46:20Z</time>
      </trkpt>
      <trkpt lat="42.39153100000017" lon="1.590068000000002">
        <ele>1286.729</ele>
        <time>2022-08-19T20:46:24Z</time>
      </trkpt>
      <trkpt lat="42.39152300000017" lon="1.590134000000002">
        <ele>1288.065</ele>
        <time>2022-08-19T20:46:30Z</time>
      </trkpt>
      <trkpt lat="42.39148900000017" lon="1.5900920000000018">
        <ele>1289.335</ele>
        <time>2022-08-19T20:46:36Z</time>
      </trkpt>
      <trkpt lat="42.39152800000017" lon="1.5901300000000018">
        <ele>1290.276</ele>
        <time>2022-08-19T20:46:42Z</time>
      </trkpt>
      <trkpt lat="42.391530000000174" lon="1.5901940000000019">
        <ele>1290.621</ele>
        <time>2022-08-19T20:46:46Z</time>
      </trkpt>
      <trkpt lat="42.39155900000017" lon="1.5902540000000018">
        <ele>1291.627</ele>
        <time>2022-08-19T20:46:54Z</time>
      </trkpt>
      <trkpt lat="42.391597000000175" lon="1.5902930000000017">
        <ele>1292.368</ele>
        <time>2022-08-19T20:46:59Z</time>
      </trkpt>
      <trkpt lat="42.39164400000018" lon="1.5903550000000017">
        <ele>1293.314</ele>
        <time>2022-08-19T20:47:04Z</time>
      </trkpt>
      <trkpt lat="42.391659000000175" lon="1.5904150000000017">
        <ele>1294.309</ele>
        <time>2022-08-19T20:47:07Z</time>
      </trkpt>
      <trkpt lat="42.391676000000174" lon="1.5904780000000016">
        <ele>1295.283</ele>
        <time>2022-08-19T20:47:12Z</time>
      </trkpt>
      <trkpt lat="42.391642000000175" lon="1.5905260000000017">
        <ele>1296.263</ele>
        <time>2022-08-19T20:47:18Z</time>
      </trkpt>
      <trkpt lat="42.39163500000018" lon="1.5905970000000016">
        <ele>1297.353</ele>
        <time>2022-08-19T20:47:24Z</time>
      </trkpt>
      <trkpt lat="42.391684000000176" lon="1.5906040000000017">
        <ele>1298.333</ele>
        <time>2022-08-19T20:47:31Z</time>
      </trkpt>
      <trkpt lat="42.39173400000018" lon="1.5905870000000017">
        <ele>1299.510</ele>
        <time>2022-08-19T20:47:38Z</time>
      </trkpt>
      <trkpt lat="42.39176800000018" lon="1.5906320000000018">
        <ele>1300.826</ele>
        <time>2022-08-19T20:47:44Z</time>
      </trkpt>
      <trkpt lat="42.39181300000018" lon="1.5906680000000017">
        <ele>1301.846</ele>
        <time>2022-08-19T20:47:50Z</time>
      </trkpt>
      <trkpt lat="42.391864000000176" lon="1.5906770000000017">
        <ele>1302.817</ele>
        <time>2022-08-19T20:47:57Z</time>
      </trkpt>
      <trkpt lat="42.39186800000017" lon="1.5907400000000016">
        <ele>1303.542</ele>
        <time>2022-08-19T20:48:00Z</time>
      </trkpt>
      <trkpt lat="42.39188800000017" lon="1.5908020000000016">
        <ele>1304.997</ele>
        <time>2022-08-19T20:48:06Z</time>
      </trkpt>
      <trkpt lat="42.39191900000017" lon="1.5908550000000017">
        <ele>1305.823</ele>
        <time>2022-08-19T20:48:11Z</time>
      </trkpt>
      <trkpt lat="42.391963000000175" lon="1.5908890000000018">
        <ele>1306.925</ele>
        <time>2022-08-19T20:48:17Z</time>
      </trkpt>
      <trkpt lat="42.392016000000176" lon="1.5909110000000017">
        <ele>1308.609</ele>
        <time>2022-08-19T20:48:23Z</time>
      </trkpt>
      <trkpt lat="42.39205500000018" lon="1.5909480000000018">
        <ele>1309.480</ele>
        <time>2022-08-19T20:48:30Z</time>
      </trkpt>
      <trkpt lat="42.39211000000018" lon="1.590928000000002">
        <ele>1310.170</ele>
        <time>2022-08-19T20:48:35Z</time>
      </trkpt>
      <trkpt lat="42.39215200000018" lon="1.5909050000000018">
        <ele>1311.140</ele>
        <time>2022-08-19T20:48:39Z</time>
      </trkpt>
      <trkpt lat="42.39219400000018" lon="1.5909330000000017">
        <ele>1312.130</ele>
        <time>2022-08-19T20:48:44Z</time>
      </trkpt>
      <trkpt lat="42.39222800000018" lon="1.5909870000000017">
        <ele>1313.727</ele>
        <time>2022-08-19T20:48:50Z</time>
      </trkpt>
      <trkpt lat="42.39227500000018" lon="1.5909860000000018">
        <ele>1314.363</ele>
        <time>2022-08-19T20:48:56Z</time>
      </trkpt>
      <trkpt lat="42.39232400000018" lon="1.5909980000000017">
        <ele>1315.293</ele>
        <time>2022-08-19T20:49:02Z</time>
      </trkpt>
      <trkpt lat="42.39234100000018" lon="1.5910570000000017">
        <ele>1315.884</ele>
        <time>2022-08-19T20:49:04Z</time>
      </trkpt>
      <trkpt lat="42.39238200000018" lon="1.5911160000000018">
        <ele>1317.789</ele>
        <time>2022-08-19T20:49:16Z</time>
      </trkpt>
      <trkpt lat="42.392418000000184" lon="1.5911650000000017">
        <ele>1318.456</ele>
        <time>2022-08-19T20:49:19Z</time>
      </trkpt>
      <trkpt lat="42.392440000000185" lon="1.5912210000000018">
        <ele>1319.159</ele>
        <time>2022-08-19T20:49:25Z</time>
      </trkpt>
      <trkpt lat="42.39248300000018" lon="1.5912550000000019">
        <ele>1320.014</ele>
        <time>2022-08-19T20:49:33Z</time>
      </trkpt>
      <trkpt lat="42.392513000000186" lon="1.591303000000002">
        <ele>1320.909</ele>
        <time>2022-08-19T20:49:40Z</time>
      </trkpt>
      <trkpt lat="42.39254600000019" lon="1.591356000000002">
        <ele>1322.016</ele>
        <time>2022-08-19T20:49:45Z</time>
      </trkpt>
      <trkpt lat="42.39259100000019" lon="1.5913600000000019">
        <ele>1322.336</ele>
        <time>2022-08-19T20:49:51Z</time>
      </trkpt>
      <trkpt lat="42.392620000000186" lon="1.591411000000002">
        <ele>1323.336</ele>
        <time>2022-08-19T20:49:58Z</time>
      </trkpt>
      <trkpt lat="42.392648000000186" lon="1.591464000000002">
        <ele>1324.126</ele>
        <time>2022-08-19T20:50:05Z</time>
      </trkpt>
      <trkpt lat="42.39261600000019" lon="1.5915220000000019">
        <ele>1325.253</ele>
        <time>2022-08-19T20:50:09Z</time>
      </trkpt>
      <trkpt lat="42.39265200000019" lon="1.591565000000002">
        <ele>1326.329</ele>
        <time>2022-08-19T20:50:16Z</time>
      </trkpt>
      <trkpt lat="42.392690000000194" lon="1.591600000000002">
        <ele>1326.999</ele>
        <time>2022-08-19T20:50:26Z</time>
      </trkpt>
      <trkpt lat="42.39273600000019" lon="1.591607000000002">
        <ele>1328.450</ele>
        <time>2022-08-19T20:50:35Z</time>
      </trkpt>
      <trkpt lat="42.39278400000019" lon="1.591656000000002">
        <ele>1329.845</ele>
        <time>2022-08-19T20:50:42Z</time>
      </trkpt>
      <trkpt lat="42.39281700000019" lon="1.591699000000002">
        <ele>1330.225</ele>
        <time>2022-08-19T20:50:49Z</time>
      </trkpt>
      <trkpt lat="42.39285700000019" lon="1.591740000000002">
        <ele>1330.326</ele>
        <time>2022-08-19T20:50:53Z</time>
      </trkpt>
      <trkpt lat="42.39290000000019" lon="1.591759000000002">
        <ele>1331.608</ele>
        <time>2022-08-19T20:50:58Z</time>
      </trkpt>
      <trkpt lat="42.39294600000019" lon="1.591802000000002">
        <ele>1332.309</ele>
        <time>2022-08-19T20:51:04Z</time>
      </trkpt>
      <trkpt lat="42.39296800000019" lon="1.591859000000002">
        <ele>1332.973</ele>
        <time>2022-08-19T20:51:08Z</time>
      </trkpt>
      <trkpt lat="42.39297900000019" lon="1.591926000000002">
        <ele>1333.593</ele>
        <time>2022-08-19T20:51:12Z</time>
      </trkpt>
      <trkpt lat="42.39299000000019" lon="1.591985000000002">
        <ele>1334.453</ele>
        <time>2022-08-19T20:51:18Z</time>
      </trkpt>
      <trkpt lat="42.39302700000019" lon="1.592035000000002">
        <ele>1335.263</ele>
        <time>2022-08-19T20:51:24Z</time>
      </trkpt>
      <trkpt lat="42.39307800000019" lon="1.5920590000000021">
        <ele>1335.970</ele>
        <time>2022-08-19T20:51:28Z</time>
      </trkpt>
      <trkpt lat="42.393124000000185" lon="1.592071000000002">
        <ele>1336.326</ele>
        <time>2022-08-19T20:51:33Z</time>
      </trkpt>
      <trkpt lat="42.393169000000185" lon="1.592062000000002">
        <ele>1336.566</ele>
        <time>2022-08-19T20:51:38Z</time>
      </trkpt>
      <trkpt lat="42.39321500000018" lon="1.592086000000002">
        <ele>1337.347</ele>
        <time>2022-08-19T20:51:45Z</time>
      </trkpt>
      <trkpt lat="42.39325700000018" lon="1.592119000000002">
        <ele>1338.552</ele>
        <time>2022-08-19T20:51:52Z</time>
      </trkpt>
      <trkpt lat="42.39326400000018" lon="1.592216000000002">
        <ele>1339.632</ele>
        <time>2022-08-19T20:51:56Z</time>
      </trkpt>
      <trkpt lat="42.39329700000018" lon="1.5922640000000021">
        <ele>1340.192</ele>
        <time>2022-08-19T20:51:59Z</time>
      </trkpt>
      <trkpt lat="42.39335000000018" lon="1.5922790000000022">
        <ele>1340.711</ele>
        <time>2022-08-19T20:52:04Z</time>
      </trkpt>
      <trkpt lat="42.39338400000018" lon="1.5923190000000023">
        <ele>1341.909</ele>
        <time>2022-08-19T20:52:10Z</time>
      </trkpt>
      <trkpt lat="42.39338100000018" lon="1.5923880000000024">
        <ele>1343.144</ele>
        <time>2022-08-19T20:52:16Z</time>
      </trkpt>
      <trkpt lat="42.393397000000185" lon="1.5924520000000024">
        <ele>1343.714</ele>
        <time>2022-08-19T20:52:22Z</time>
      </trkpt>
      <trkpt lat="42.39337000000018" lon="1.5925040000000024">
        <ele>1344.374</ele>
        <time>2022-08-19T20:52:30Z</time>
      </trkpt>
      <trkpt lat="42.39340400000018" lon="1.5925600000000024">
        <ele>1345.374</ele>
        <time>2022-08-19T20:52:37Z</time>
      </trkpt>
      <trkpt lat="42.39342300000018" lon="1.5926200000000024">
        <ele>1345.721</ele>
        <time>2022-08-19T20:52:42Z</time>
      </trkpt>
      <trkpt lat="42.39344400000018" lon="1.5926830000000023">
        <ele>1346.557</ele>
        <time>2022-08-19T20:52:49Z</time>
      </trkpt>
      <trkpt lat="42.39344700000018" lon="1.5927520000000024">
        <ele>1348.157</ele>
        <time>2022-08-19T20:52:56Z</time>
      </trkpt>
      <trkpt lat="42.39345200000018" lon="1.5928210000000025">
        <ele>1348.648</ele>
        <time>2022-08-19T20:53:04Z</time>
      </trkpt>
      <trkpt lat="42.39343300000018" lon="1.5928770000000025">
        <ele>1349.353</ele>
        <time>2022-08-19T20:53:10Z</time>
      </trkpt>
      <trkpt lat="42.39341600000018" lon="1.5929420000000025">
        <ele>1350.356</ele>
        <time>2022-08-19T20:53:17Z</time>
      </trkpt>
      <trkpt lat="42.39332500000018" lon="1.5929900000000026">
        <ele>1350.959</ele>
        <time>2022-08-19T20:53:19Z</time>
      </trkpt>
      <trkpt lat="42.393341000000184" lon="1.5930630000000026">
        <ele>1352.814</ele>
        <time>2022-08-19T20:53:25Z</time>
      </trkpt>
      <trkpt lat="42.39338200000019" lon="1.5930930000000025">
        <ele>1353.209</ele>
        <time>2022-08-19T20:53:31Z</time>
      </trkpt>
      <trkpt lat="42.39338500000019" lon="1.5931570000000026">
        <ele>1354.086</ele>
        <time>2022-08-19T20:53:37Z</time>
      </trkpt>
      <trkpt lat="42.393397000000185" lon="1.5932210000000027">
        <ele>1355.726</ele>
        <time>2022-08-19T20:53:49Z</time>
      </trkpt>
      <trkpt lat="42.393425000000185" lon="1.5932860000000026">
        <ele>1356.966</ele>
        <time>2022-08-19T20:53:55Z</time>
      </trkpt>
      <trkpt lat="42.39341800000019" lon="1.5933600000000026">
        <ele>1357.686</ele>
        <time>2022-08-19T20:53:59Z</time>
      </trkpt>
      <trkpt lat="42.39342800000019" lon="1.5934290000000026">
        <ele>1358.133</ele>
        <time>2022-08-19T20:54:04Z</time>
      </trkpt>
      <trkpt lat="42.393475000000194" lon="1.5934300000000026">
        <ele>1359.629</ele>
        <time>2022-08-19T20:54:14Z</time>
      </trkpt>
      <trkpt lat="42.393491000000196" lon="1.5934930000000025">
        <ele>1361.059</ele>
        <time>2022-08-19T20:54:19Z</time>
      </trkpt>
      <trkpt lat="42.393522000000196" lon="1.5935540000000026">
        <ele>1362.230</ele>
        <time>2022-08-19T20:54:26Z</time>
      </trkpt>
      <trkpt lat="42.3935130000002" lon="1.5936140000000025">
        <ele>1362.755</ele>
        <time>2022-08-19T20:54:30Z</time>
      </trkpt>
      <trkpt lat="42.393511000000196" lon="1.5936840000000025">
        <ele>1363.477</ele>
        <time>2022-08-19T20:54:35Z</time>
      </trkpt>
      <trkpt lat="42.393494000000196" lon="1.5937410000000025">
        <ele>1364.961</ele>
        <time>2022-08-19T20:54:41Z</time>
      </trkpt>
      <trkpt lat="42.39345600000019" lon="1.5937770000000024">
        <ele>1365.727</ele>
        <time>2022-08-19T20:54:45Z</time>
      </trkpt>
      <trkpt lat="42.393444000000194" lon="1.5938370000000024">
        <ele>1366.409</ele>
        <time>2022-08-19T20:54:50Z</time>
      </trkpt>
      <trkpt lat="42.3934090000002" lon="1.5938790000000025">
        <ele>1366.918</ele>
        <time>2022-08-19T20:54:55Z</time>
      </trkpt>
      <trkpt lat="42.393368000000194" lon="1.5939080000000025">
        <ele>1367.648</ele>
        <time>2022-08-19T20:55:02Z</time>
      </trkpt>
      <trkpt lat="42.393345000000195" lon="1.5939680000000025">
        <ele>1368.918</ele>
        <time>2022-08-19T20:55:09Z</time>
      </trkpt>
      <trkpt lat="42.393348000000195" lon="1.5940310000000024">
        <ele>1369.938</ele>
        <time>2022-08-19T20:55:13Z</time>
      </trkpt>
      <trkpt lat="42.39337700000019" lon="1.5940840000000025">
        <ele>1370.715</ele>
        <time>2022-08-19T20:55:18Z</time>
      </trkpt>
      <trkpt lat="42.39339400000019" lon="1.5941440000000024">
        <ele>1371.521</ele>
        <time>2022-08-19T20:55:24Z</time>
      </trkpt>
      <trkpt lat="42.39334400000019" lon="1.5941630000000024">
        <ele>1372.241</ele>
        <time>2022-08-19T20:55:28Z</time>
      </trkpt>
      <trkpt lat="42.393309000000194" lon="1.5942120000000024">
        <ele>1373.332</ele>
        <time>2022-08-19T20:55:32Z</time>
      </trkpt>
      <trkpt lat="42.3933360000002" lon="1.5942750000000023">
        <ele>1374.167</ele>
        <time>2022-08-19T20:55:37Z</time>
      </trkpt>
      <trkpt lat="42.3933750000002" lon="1.5943270000000023">
        <ele>1375.054</ele>
        <time>2022-08-19T20:55:44Z</time>
      </trkpt>
      <trkpt lat="42.393356000000196" lon="1.5943870000000022">
        <ele>1376.056</ele>
        <time>2022-08-19T20:55:49Z</time>
      </trkpt>
      <trkpt lat="42.39331800000019" lon="1.5944280000000022">
        <ele>1376.811</ele>
        <time>2022-08-19T20:55:54Z</time>
      </trkpt>
      <trkpt lat="42.39333800000019" lon="1.5944880000000021">
        <ele>1378.209</ele>
        <time>2022-08-19T20:56:02Z</time>
      </trkpt>
      <trkpt lat="42.39335600000019" lon="1.594551000000002">
        <ele>1378.886</ele>
        <time>2022-08-19T20:56:07Z</time>
      </trkpt>
      <trkpt lat="42.39335100000019" lon="1.594613000000002">
        <ele>1379.856</ele>
        <time>2022-08-19T20:56:12Z</time>
      </trkpt>
      <trkpt lat="42.393307000000185" lon="1.594652000000002">
        <ele>1380.736</ele>
        <time>2022-08-19T20:56:17Z</time>
      </trkpt>
      <trkpt lat="42.39329400000018" lon="1.5947260000000019">
        <ele>1381.966</ele>
        <time>2022-08-19T20:56:23Z</time>
      </trkpt>
      <trkpt lat="42.39332300000018" lon="1.5947810000000018">
        <ele>1382.973</ele>
        <time>2022-08-19T20:56:28Z</time>
      </trkpt>
      <trkpt lat="42.39334100000018" lon="1.5948430000000018">
        <ele>1383.579</ele>
        <time>2022-08-19T20:56:34Z</time>
      </trkpt>
      <trkpt lat="42.39334000000018" lon="1.5949080000000018">
        <ele>1384.669</ele>
        <time>2022-08-19T20:56:40Z</time>
      </trkpt>
      <trkpt lat="42.39332400000018" lon="1.5949690000000019">
        <ele>1385.550</ele>
        <time>2022-08-19T20:56:46Z</time>
      </trkpt>
      <trkpt lat="42.39334600000018" lon="1.5950240000000018">
        <ele>1386.055</ele>
        <time>2022-08-19T20:56:51Z</time>
      </trkpt>
      <trkpt lat="42.39333400000018" lon="1.5950880000000018">
        <ele>1386.793</ele>
        <time>2022-08-19T20:56:58Z</time>
      </trkpt>
      <trkpt lat="42.39336700000018" lon="1.595130000000002">
        <ele>1388.165</ele>
        <time>2022-08-19T20:57:03Z</time>
      </trkpt>
      <trkpt lat="42.39334200000018" lon="1.595199000000002">
        <ele>1388.621</ele>
        <time>2022-08-19T20:57:07Z</time>
      </trkpt>
      <trkpt lat="42.39332600000018" lon="1.595259000000002">
        <ele>1389.309</ele>
        <time>2022-08-19T20:57:14Z</time>
      </trkpt>
      <trkpt lat="42.39330700000018" lon="1.595315000000002">
        <ele>1390.030</ele>
        <time>2022-08-19T20:57:20Z</time>
      </trkpt>
      <trkpt lat="42.39334100000018" lon="1.595366000000002">
        <ele>1390.980</ele>
        <time>2022-08-19T20:57:25Z</time>
      </trkpt>
      <trkpt lat="42.393361000000176" lon="1.595423000000002">
        <ele>1391.560</ele>
        <time>2022-08-19T20:57:31Z</time>
      </trkpt>
      <trkpt lat="42.39336300000018" lon="1.5955000000000021">
        <ele>1392.150</ele>
        <time>2022-08-19T20:57:36Z</time>
      </trkpt>
      <trkpt lat="42.39333200000018" lon="1.5955540000000021">
        <ele>1393.117</ele>
        <time>2022-08-19T20:57:40Z</time>
      </trkpt>
      <trkpt lat="42.39329000000018" lon="1.5955840000000021">
        <ele>1393.783</ele>
        <time>2022-08-19T20:57:44Z</time>
      </trkpt>
      <trkpt lat="42.393257000000176" lon="1.595638000000002">
        <ele>1394.323</ele>
        <time>2022-08-19T20:57:49Z</time>
      </trkpt>
      <trkpt lat="42.393207000000174" lon="1.595639000000002">
        <ele>1395.644</ele>
        <time>2022-08-19T20:57:56Z</time>
      </trkpt>
      <trkpt lat="42.39316900000017" lon="1.595678000000002">
        <ele>1396.659</ele>
        <time>2022-08-19T20:58:01Z</time>
      </trkpt>
      <trkpt lat="42.39314100000017" lon="1.5957330000000018">
        <ele>1397.224</ele>
        <time>2022-08-19T20:58:07Z</time>
      </trkpt>
      <trkpt lat="42.39313100000017" lon="1.5957950000000019">
        <ele>1397.904</ele>
        <time>2022-08-19T20:58:11Z</time>
      </trkpt>
      <trkpt lat="42.39315900000017" lon="1.5958490000000018">
        <ele>1398.914</ele>
        <time>2022-08-19T20:58:16Z</time>
      </trkpt>
      <trkpt lat="42.39319300000017" lon="1.595902000000002">
        <ele>1400.209</ele>
        <time>2022-08-19T20:58:22Z</time>
      </trkpt>
      <trkpt lat="42.39318900000017" lon="1.595978000000002">
        <ele>1401.373</ele>
        <time>2022-08-19T20:58:28Z</time>
      </trkpt>
      <trkpt lat="42.39320800000017" lon="1.5960380000000018">
        <ele>1402.353</ele>
        <time>2022-08-19T20:58:32Z</time>
      </trkpt>
      <trkpt lat="42.39324500000017" lon="1.596075000000002">
        <ele>1403.233</ele>
        <time>2022-08-19T20:58:37Z</time>
      </trkpt>
      <trkpt lat="42.39323200000017" lon="1.596150000000002">
        <ele>1403.933</ele>
        <time>2022-08-19T20:58:41Z</time>
      </trkpt>
      <trkpt lat="42.393244000000166" lon="1.596214000000002">
        <ele>1405.060</ele>
        <time>2022-08-19T20:58:47Z</time>
      </trkpt>
      <trkpt lat="42.39320400000017" lon="1.596253000000002">
        <ele>1405.976</ele>
        <time>2022-08-19T20:58:51Z</time>
      </trkpt>
      <trkpt lat="42.393180000000164" lon="1.596307000000002">
        <ele>1407.426</ele>
        <time>2022-08-19T20:58:58Z</time>
      </trkpt>
      <trkpt lat="42.39318200000017" lon="1.5963700000000018">
        <ele>1408.297</ele>
        <time>2022-08-19T20:59:03Z</time>
      </trkpt>
      <trkpt lat="42.39321500000017" lon="1.5964240000000018">
        <ele>1408.932</ele>
        <time>2022-08-19T20:59:09Z</time>
      </trkpt>
      <trkpt lat="42.39323700000017" lon="1.596477000000002">
        <ele>1409.774</ele>
        <time>2022-08-19T20:59:16Z</time>
      </trkpt>
      <trkpt lat="42.39323700000017" lon="1.596549000000002">
        <ele>1410.456</ele>
        <time>2022-08-19T20:59:21Z</time>
      </trkpt>
      <trkpt lat="42.39323800000017" lon="1.596614000000002">
        <ele>1411.121</ele>
        <time>2022-08-19T20:59:28Z</time>
      </trkpt>
      <trkpt lat="42.393211000000164" lon="1.596668000000002">
        <ele>1412.309</ele>
        <time>2022-08-19T20:59:33Z</time>
      </trkpt>
      <trkpt lat="42.393174000000165" lon="1.596722000000002">
        <ele>1413.638</ele>
        <time>2022-08-19T20:59:38Z</time>
      </trkpt>
      <trkpt lat="42.39317800000016" lon="1.596789000000002">
        <ele>1414.488</ele>
        <time>2022-08-19T20:59:45Z</time>
      </trkpt>
      <trkpt lat="42.393200000000164" lon="1.596857000000002">
        <ele>1415.188</ele>
        <time>2022-08-19T20:59:50Z</time>
      </trkpt>
      <trkpt lat="42.39322100000016" lon="1.596914000000002">
        <ele>1416.318</ele>
        <time>2022-08-19T20:59:56Z</time>
      </trkpt>
      <trkpt lat="42.39326900000016" lon="1.596919000000002">
        <ele>1417.655</ele>
        <time>2022-08-19T21:00:02Z</time>
      </trkpt>
      <trkpt lat="42.39325700000016" lon="1.597000000000002">
        <ele>1418.051</ele>
        <time>2022-08-19T21:00:08Z</time>
      </trkpt>
      <trkpt lat="42.39322700000016" lon="1.597088000000002">
        <ele>1418.671</ele>
        <time>2022-08-19T21:00:10Z</time>
      </trkpt>
      <trkpt lat="42.39321300000016" lon="1.597153000000002">
        <ele>1419.842</ele>
        <time>2022-08-19T21:00:14Z</time>
      </trkpt>
      <trkpt lat="42.39321400000016" lon="1.597217000000002">
        <ele>1421.387</ele>
        <time>2022-08-19T21:00:21Z</time>
      </trkpt>
      <trkpt lat="42.39319400000016" lon="1.597282000000002">
        <ele>1423.118</ele>
        <time>2022-08-19T21:00:35Z</time>
      </trkpt>
      <trkpt lat="42.39322500000016" lon="1.5973380000000021">
        <ele>1423.798</ele>
        <time>2022-08-19T21:00:39Z</time>
      </trkpt>
      <trkpt lat="42.39327500000016" lon="1.597344000000002">
        <ele>1424.317</ele>
        <time>2022-08-19T21:00:45Z</time>
      </trkpt>
      <trkpt lat="42.39328700000016" lon="1.5974080000000022">
        <ele>1425.009</ele>
        <time>2022-08-19T21:00:49Z</time>
      </trkpt>
      <trkpt lat="42.39329700000016" lon="1.597474000000002">
        <ele>1426.662</ele>
        <time>2022-08-19T21:00:57Z</time>
      </trkpt>
      <trkpt lat="42.39328400000016" lon="1.5975380000000021">
        <ele>1428.632</ele>
        <time>2022-08-19T21:01:08Z</time>
      </trkpt>
      <trkpt lat="42.39331200000016" lon="1.597595000000002">
        <ele>1429.182</ele>
        <time>2022-08-19T21:01:13Z</time>
      </trkpt>
      <trkpt lat="42.39335100000016" lon="1.5976270000000021">
        <ele>1429.942</ele>
        <time>2022-08-19T21:01:18Z</time>
      </trkpt>
      <trkpt lat="42.39338900000016" lon="1.5976640000000022">
        <ele>1430.559</ele>
        <time>2022-08-19T21:01:24Z</time>
      </trkpt>
      <trkpt lat="42.39340700000016" lon="1.5977250000000023">
        <ele>1431.555</ele>
        <time>2022-08-19T21:01:30Z</time>
      </trkpt>
      <trkpt lat="42.39342100000016" lon="1.5977900000000023">
        <ele>1433.385</ele>
        <time>2022-08-19T21:01:43Z</time>
      </trkpt>
      <trkpt lat="42.39339600000016" lon="1.5978540000000023">
        <ele>1434.276</ele>
        <time>2022-08-19T21:01:48Z</time>
      </trkpt>
      <trkpt lat="42.39335700000016" lon="1.5978900000000023">
        <ele>1435.481</ele>
        <time>2022-08-19T21:01:57Z</time>
      </trkpt>
      <trkpt lat="42.39335300000016" lon="1.5979520000000023">
        <ele>1435.671</ele>
        <time>2022-08-19T21:02:01Z</time>
      </trkpt>
      <trkpt lat="42.39334500000016" lon="1.5980150000000022">
        <ele>1436.541</ele>
        <time>2022-08-19T21:02:07Z</time>
      </trkpt>
      <trkpt lat="42.39334300000016" lon="1.5980800000000022">
        <ele>1438.415</ele>
        <time>2022-08-19T21:02:17Z</time>
      </trkpt>
      <trkpt lat="42.393299000000155" lon="1.5981150000000022">
        <ele>1439.909</ele>
        <time>2022-08-19T21:02:25Z</time>
      </trkpt>
      <trkpt lat="42.393268000000155" lon="1.5981600000000022">
        <ele>1441.278</ele>
        <time>2022-08-19T21:02:31Z</time>
      </trkpt>
      <trkpt lat="42.39324100000015" lon="1.5982120000000022">
        <ele>1442.658</ele>
        <time>2022-08-19T21:02:39Z</time>
      </trkpt>
      <trkpt lat="42.393223000000155" lon="1.5982690000000022">
        <ele>1443.848</ele>
        <time>2022-08-19T21:02:46Z</time>
      </trkpt>
      <trkpt lat="42.39319000000015" lon="1.598324000000002">
        <ele>1445.038</ele>
        <time>2022-08-19T21:02:53Z</time>
      </trkpt>
      <trkpt lat="42.393186000000156" lon="1.5983850000000022">
        <ele>1446.245</ele>
        <time>2022-08-19T21:02:59Z</time>
      </trkpt>
      <trkpt lat="42.39317400000016" lon="1.5984440000000022">
        <ele>1447.471</ele>
        <time>2022-08-19T21:03:07Z</time>
      </trkpt>
      <trkpt lat="42.39313400000016" lon="1.5984780000000023">
        <ele>1448.441</ele>
        <time>2022-08-19T21:03:13Z</time>
      </trkpt>
      <trkpt lat="42.39312500000016" lon="1.5985450000000023">
        <ele>1448.752</ele>
        <time>2022-08-19T21:03:18Z</time>
      </trkpt>
      <trkpt lat="42.39313400000016" lon="1.5986140000000024">
        <ele>1449.757</ele>
        <time>2022-08-19T21:03:24Z</time>
      </trkpt>
      <trkpt lat="42.39311100000016" lon="1.5986770000000023">
        <ele>1450.611</ele>
        <time>2022-08-19T21:03:31Z</time>
      </trkpt>
      <trkpt lat="42.393090000000164" lon="1.5987340000000023">
        <ele>1451.221</ele>
        <time>2022-08-19T21:03:37Z</time>
      </trkpt>
      <trkpt lat="42.39305400000016" lon="1.5987750000000023">
        <ele>1451.703</ele>
        <time>2022-08-19T21:03:41Z</time>
      </trkpt>
      <trkpt lat="42.393022000000165" lon="1.5988280000000024">
        <ele>1452.409</ele>
        <time>2022-08-19T21:03:47Z</time>
      </trkpt>
      <trkpt lat="42.39298900000016" lon="1.5988730000000024">
        <ele>1452.972</ele>
        <time>2022-08-19T21:03:53Z</time>
      </trkpt>
      <trkpt lat="42.39294200000016" lon="1.5989030000000024">
        <ele>1454.442</ele>
        <time>2022-08-19T21:04:00Z</time>
      </trkpt>
      <trkpt lat="42.392896000000164" lon="1.5989210000000025">
        <ele>1455.532</ele>
        <time>2022-08-19T21:04:07Z</time>
      </trkpt>
      <trkpt lat="42.39284600000016" lon="1.5989530000000025">
        <ele>1456.432</ele>
        <time>2022-08-19T21:04:22Z</time>
      </trkpt>
      <trkpt lat="42.392797000000165" lon="1.5990240000000024">
        <ele>1457.359</ele>
        <time>2022-08-19T21:06:07Z</time>
      </trkpt>
      <trkpt lat="42.39275400000017" lon="1.5990070000000025">
        <ele>1457.385</ele>
        <time>2022-08-19T21:06:14Z</time>
      </trkpt>
      <trkpt lat="42.39270800000017" lon="1.5990050000000025">
        <ele>1457.385</ele>
        <time>2022-08-19T21:06:21Z</time>
      </trkpt>
      <trkpt lat="42.39267100000017" lon="1.5989470000000026">
        <ele>1457.396</ele>
        <time>2022-08-19T21:06:28Z</time>
      </trkpt>
      <trkpt lat="42.39264100000017" lon="1.5989930000000026">
        <ele>1457.491</ele>
        <time>2022-08-19T21:06:34Z</time>
      </trkpt>
      <trkpt lat="42.39260700000017" lon="1.5989450000000025">
        <ele>1457.942</ele>
        <time>2022-08-19T21:06:44Z</time>
      </trkpt>
      <trkpt lat="42.39171200000017" lon="1.5982780000000025">
        <ele>1461.022</ele>
        <time>2022-08-19T21:08:46Z</time>
      </trkpt>
      <trkpt lat="42.39170700000017" lon="1.5983390000000026">
        <ele>1453.714</ele>
        <time>2022-08-19T21:08:49Z</time>
      </trkpt>
      <trkpt lat="42.39165600000017" lon="1.5983580000000026">
        <ele>1453.609</ele>
        <time>2022-08-19T21:08:53Z</time>
      </trkpt>
      <trkpt lat="42.391609000000166" lon="1.5983880000000026">
        <ele>1453.565</ele>
        <time>2022-08-19T21:08:57Z</time>
      </trkpt>
      <trkpt lat="42.39147500000016" lon="1.5985780000000025">
        <ele>1453.325</ele>
        <time>2022-08-19T21:09:22Z</time>
      </trkpt>
      <trkpt lat="42.391421000000165" lon="1.5986330000000024">
        <ele>1452.735</ele>
        <time>2022-08-19T21:09:23Z</time>
      </trkpt>
      <trkpt lat="42.390970000000166" lon="1.6152280000000023">
        <ele>1450.425</ele>
        <time>2022-08-19T21:34:49Z</time>
      </trkpt>
      <trkpt lat="42.390926000000164" lon="1.6152780000000024">
        <ele>1431.252</ele>
        <time>2022-08-19T21:34:51Z</time>
      </trkpt>
      <trkpt lat="42.39088800000016" lon="1.6153400000000024">
        <ele>1411.328</ele>
        <time>2022-08-19T21:34:53Z</time>
      </trkpt>
      <trkpt lat="42.39085900000016" lon="1.6153940000000024">
        <ele>1394.888</ele>
        <time>2022-08-19T21:34:55Z</time>
      </trkpt>
      <trkpt lat="42.39082300000016" lon="1.6154460000000024">
        <ele>1377.129</ele>
        <time>2022-08-19T21:34:57Z</time>
      </trkpt>
      <trkpt lat="42.39077700000016" lon="1.6155030000000024">
        <ele>1356.344</ele>
        <time>2022-08-19T21:34:59Z</time>
      </trkpt>
      <trkpt lat="42.39073200000016" lon="1.6155540000000024">
        <ele>1336.786</ele>
        <time>2022-08-19T21:35:02Z</time>
      </trkpt>
      <trkpt lat="42.390686000000166" lon="1.6156080000000024">
        <ele>1316.460</ele>
        <time>2022-08-19T21:35:05Z</time>
      </trkpt>
      <trkpt lat="42.39063400000017" lon="1.6156200000000023">
        <ele>1298.826</ele>
        <time>2022-08-19T21:35:08Z</time>
      </trkpt>
      <trkpt lat="42.39058500000017" lon="1.6156400000000022">
        <ele>1281.609</ele>
        <time>2022-08-19T21:35:10Z</time>
      </trkpt>
      <trkpt lat="42.39052600000017" lon="1.6156670000000022">
        <ele>1260.789</ele>
        <time>2022-08-19T21:35:12Z</time>
      </trkpt>
      <trkpt lat="42.39047800000017" lon="1.6156880000000022">
        <ele>1244.069</ele>
        <time>2022-08-19T21:35:14Z</time>
      </trkpt>
      <trkpt lat="42.39042500000017" lon="1.6157080000000021">
        <ele>1225.779</ele>
        <time>2022-08-19T21:35:16Z</time>
      </trkpt>
      <trkpt lat="42.39037400000017" lon="1.615730000000002">
        <ele>1207.969</ele>
        <time>2022-08-19T21:35:18Z</time>
      </trkpt>
      <trkpt lat="42.39032600000017" lon="1.6157730000000021">
        <ele>1188.726</ele>
        <time>2022-08-19T21:35:20Z</time>
      </trkpt>
      <trkpt lat="42.390283000000174" lon="1.6158240000000021">
        <ele>1169.752</ele>
        <time>2022-08-19T21:35:22Z</time>
      </trkpt>
      <trkpt lat="42.39024200000017" lon="1.6158620000000021">
        <ele>1153.242</ele>
        <time>2022-08-19T21:35:24Z</time>
      </trkpt>
      <trkpt lat="42.39020100000017" lon="1.6158910000000022">
        <ele>1137.773</ele>
        <time>2022-08-19T21:35:26Z</time>
      </trkpt>
      <trkpt lat="42.390137000000166" lon="1.615919000000002">
        <ele>1115.388</ele>
        <time>2022-08-19T21:35:29Z</time>
      </trkpt>
      <trkpt lat="42.390073000000164" lon="1.6159400000000022">
        <ele>1095.226</ele>
        <time>2022-08-19T21:35:32Z</time>
      </trkpt>
      <trkpt lat="42.38999900000017" lon="1.6159500000000022">
        <ele>1094.247</ele>
        <time>2022-08-19T21:35:35Z</time>
      </trkpt>
      <trkpt lat="42.38993000000016" lon="1.6159530000000022">
        <ele>1093.411</ele>
        <time>2022-08-19T21:35:38Z</time>
      </trkpt>
      <trkpt lat="42.38987100000016" lon="1.6159630000000023">
        <ele>1092.709</ele>
        <time>2022-08-19T21:35:40Z</time>
      </trkpt>
      <trkpt lat="42.38980400000016" lon="1.6159560000000022">
        <ele>1091.913</ele>
        <time>2022-08-19T21:35:43Z</time>
      </trkpt>
      <trkpt lat="42.38975700000016" lon="1.615954000000002">
        <ele>1091.293</ele>
        <time>2022-08-19T21:35:45Z</time>
      </trkpt>
      <trkpt lat="42.38971200000016" lon="1.6159480000000022">
        <ele>1090.833</ele>
        <time>2022-08-19T21:35:47Z</time>
      </trkpt>
      <trkpt lat="42.38965400000016" lon="1.6159640000000022">
        <ele>1089.913</ele>
        <time>2022-08-19T21:35:50Z</time>
      </trkpt>
      <trkpt lat="42.38959400000016" lon="1.6159770000000022">
        <ele>1089.170</ele>
        <time>2022-08-19T21:35:53Z</time>
      </trkpt>
      <trkpt lat="42.38953200000016" lon="1.615981000000002">
        <ele>1088.286</ele>
        <time>2022-08-19T21:35:56Z</time>
      </trkpt>
      <trkpt lat="42.38955200000016" lon="1.6159080000000021">
        <ele>1086.866</ele>
        <time>2022-08-19T21:36:01Z</time>
      </trkpt>
      <trkpt lat="42.389587000000155" lon="1.6158590000000022">
        <ele>1086.177</ele>
        <time>2022-08-19T21:36:03Z</time>
      </trkpt>
      <trkpt lat="42.389576000000154" lon="1.6157780000000022">
        <ele>1085.352</ele>
        <time>2022-08-19T21:36:05Z</time>
      </trkpt>
      <trkpt lat="42.389539000000156" lon="1.6157370000000022">
        <ele>1084.829</ele>
        <time>2022-08-19T21:36:06Z</time>
      </trkpt>
      <trkpt lat="42.38949000000016" lon="1.615714000000002">
        <ele>1084.300</ele>
        <time>2022-08-19T21:36:07Z</time>
      </trkpt>
      <trkpt lat="42.38937700000016" lon="1.615714000000002">
        <ele>1082.920</ele>
        <time>2022-08-19T21:36:09Z</time>
      </trkpt>
      <trkpt lat="42.38931700000016" lon="1.6157380000000021">
        <ele>1082.409</ele>
        <time>2022-08-19T21:36:10Z</time>
      </trkpt>
      <trkpt lat="42.38922800000016" lon="1.6157730000000021">
        <ele>1081.543</ele>
        <time>2022-08-19T21:36:12Z</time>
      </trkpt>
      <trkpt lat="42.38916100000016" lon="1.6157880000000022">
        <ele>1080.943</ele>
        <time>2022-08-19T21:36:14Z</time>
      </trkpt>
      <trkpt lat="42.389111000000156" lon="1.6158230000000022">
        <ele>1080.373</ele>
        <time>2022-08-19T21:36:16Z</time>
      </trkpt>
      <trkpt lat="42.38906500000016" lon="1.6158340000000022">
        <ele>1079.793</ele>
        <time>2022-08-19T21:36:18Z</time>
      </trkpt>
      <trkpt lat="42.38901500000016" lon="1.6158540000000021">
        <ele>1079.160</ele>
        <time>2022-08-19T21:36:20Z</time>
      </trkpt>
      <trkpt lat="42.388948000000156" lon="1.615882000000002">
        <ele>1078.546</ele>
        <time>2022-08-19T21:36:22Z</time>
      </trkpt>
      <trkpt lat="42.38889000000015" lon="1.615898000000002">
        <ele>1077.756</ele>
        <time>2022-08-19T21:36:24Z</time>
      </trkpt>
      <trkpt lat="42.388838000000156" lon="1.6159240000000021">
        <ele>1077.037</ele>
        <time>2022-08-19T21:36:26Z</time>
      </trkpt>
      <trkpt lat="42.388788000000154" lon="1.615971000000002">
        <ele>1076.162</ele>
        <time>2022-08-19T21:36:28Z</time>
      </trkpt>
      <trkpt lat="42.38873500000015" lon="1.6159890000000021">
        <ele>1075.424</ele>
        <time>2022-08-19T21:36:30Z</time>
      </trkpt>
      <trkpt lat="42.388678000000155" lon="1.6160120000000022">
        <ele>1074.904</ele>
        <time>2022-08-19T21:36:32Z</time>
      </trkpt>
      <trkpt lat="42.38863100000015" lon="1.6160460000000023">
        <ele>1074.214</ele>
        <time>2022-08-19T21:36:34Z</time>
      </trkpt>
      <trkpt lat="42.38858600000015" lon="1.6160690000000024">
        <ele>1073.509</ele>
        <time>2022-08-19T21:36:36Z</time>
      </trkpt>
      <trkpt lat="42.388534000000156" lon="1.6160910000000024">
        <ele>1072.833</ele>
        <time>2022-08-19T21:36:38Z</time>
      </trkpt>
      <trkpt lat="42.38848600000016" lon="1.6160780000000023">
        <ele>1072.263</ele>
        <time>2022-08-19T21:36:40Z</time>
      </trkpt>
      <trkpt lat="42.38841700000015" lon="1.6161100000000024">
        <ele>1071.143</ele>
        <time>2022-08-19T21:36:43Z</time>
      </trkpt>
      <trkpt lat="42.38837500000015" lon="1.6161390000000024">
        <ele>1070.173</ele>
        <time>2022-08-19T21:36:46Z</time>
      </trkpt>
      <trkpt lat="42.388323000000156" lon="1.6161930000000024">
        <ele>1068.860</ele>
        <time>2022-08-19T21:36:51Z</time>
      </trkpt>
      <trkpt lat="42.388292000000156" lon="1.6162640000000024">
        <ele>1067.966</ele>
        <time>2022-08-19T21:36:53Z</time>
      </trkpt>
      <trkpt lat="42.388295000000156" lon="1.6163400000000023">
        <ele>1067.296</ele>
        <time>2022-08-19T21:36:55Z</time>
      </trkpt>
      <trkpt lat="42.38831400000016" lon="1.6164140000000022">
        <ele>1066.647</ele>
        <time>2022-08-19T21:36:57Z</time>
      </trkpt>
      <trkpt lat="42.388335000000154" lon="1.6164730000000023">
        <ele>1065.672</ele>
        <time>2022-08-19T21:36:59Z</time>
      </trkpt>
      <trkpt lat="42.38834500000016" lon="1.6165610000000024">
        <ele>1064.866</ele>
        <time>2022-08-19T21:37:02Z</time>
      </trkpt>
      <trkpt lat="42.38836200000016" lon="1.6166330000000024">
        <ele>1064.329</ele>
        <time>2022-08-19T21:37:04Z</time>
      </trkpt>
      <trkpt lat="42.388385000000156" lon="1.6167060000000024">
        <ele>1063.821</ele>
        <time>2022-08-19T21:37:06Z</time>
      </trkpt>
      <trkpt lat="42.38840700000016" lon="1.6167750000000025">
        <ele>1063.409</ele>
        <time>2022-08-19T21:37:08Z</time>
      </trkpt>
      <trkpt lat="42.38842100000016" lon="1.6168420000000026">
        <ele>1063.137</ele>
        <time>2022-08-19T21:37:10Z</time>
      </trkpt>
      <trkpt lat="42.38844300000016" lon="1.6169410000000026">
        <ele>1062.747</ele>
        <time>2022-08-19T21:37:12Z</time>
      </trkpt>
      <trkpt lat="42.38844200000016" lon="1.6170070000000025">
        <ele>1062.237</ele>
        <time>2022-08-19T21:37:14Z</time>
      </trkpt>
      <trkpt lat="42.38842800000016" lon="1.6170800000000025">
        <ele>1061.867</ele>
        <time>2022-08-19T21:37:16Z</time>
      </trkpt>
      <trkpt lat="42.38841400000016" lon="1.6171690000000025">
        <ele>1061.484</ele>
        <time>2022-08-19T21:37:18Z</time>
      </trkpt>
      <trkpt lat="42.388407000000164" lon="1.6172400000000025">
        <ele>1060.820</ele>
        <time>2022-08-19T21:37:21Z</time>
      </trkpt>
      <trkpt lat="42.38836000000016" lon="1.6173800000000025">
        <ele>1060.680</ele>
        <time>2022-08-19T21:37:24Z</time>
      </trkpt>
      <trkpt lat="42.38835500000016" lon="1.6174590000000024">
        <ele>1060.231</ele>
        <time>2022-08-19T21:37:26Z</time>
      </trkpt>
      <trkpt lat="42.38830700000016" lon="1.6175100000000024">
        <ele>1059.976</ele>
        <time>2022-08-19T21:37:28Z</time>
      </trkpt>
      <trkpt lat="42.38827000000016" lon="1.6175610000000025">
        <ele>1059.747</ele>
        <time>2022-08-19T21:37:29Z</time>
      </trkpt>
      <trkpt lat="42.38823000000016" lon="1.6175990000000025">
        <ele>1059.129</ele>
        <time>2022-08-19T21:37:31Z</time>
      </trkpt>
      <trkpt lat="42.388193000000165" lon="1.6176510000000024">
        <ele>1059.021</ele>
        <time>2022-08-19T21:37:33Z</time>
      </trkpt>
      <trkpt lat="42.38816300000016" lon="1.6177070000000024">
        <ele>1058.809</ele>
        <time>2022-08-19T21:37:35Z</time>
      </trkpt>
      <trkpt lat="42.38811500000016" lon="1.6177710000000025">
        <ele>1058.415</ele>
        <time>2022-08-19T21:37:38Z</time>
      </trkpt>
      <trkpt lat="42.388080000000166" lon="1.6178160000000026">
        <ele>1058.115</ele>
        <time>2022-08-19T21:37:40Z</time>
      </trkpt>
      <trkpt lat="42.388038000000165" lon="1.6178530000000027">
        <ele>1057.655</ele>
        <time>2022-08-19T21:37:42Z</time>
      </trkpt>
      <trkpt lat="42.38799100000016" lon="1.6178940000000026">
        <ele>1056.955</ele>
        <time>2022-08-19T21:37:45Z</time>
      </trkpt>
      <trkpt lat="42.38794100000016" lon="1.6179430000000026">
        <ele>1056.362</ele>
        <time>2022-08-19T21:37:48Z</time>
      </trkpt>
      <trkpt lat="42.38789400000016" lon="1.6179890000000026">
        <ele>1055.828</ele>
        <time>2022-08-19T21:37:50Z</time>
      </trkpt>
      <trkpt lat="42.38785200000016" lon="1.6180170000000025">
        <ele>1055.288</ele>
        <time>2022-08-19T21:37:52Z</time>
      </trkpt>
      <trkpt lat="42.38779800000016" lon="1.6180500000000024">
        <ele>1054.669</ele>
        <time>2022-08-19T21:37:55Z</time>
      </trkpt>
      <trkpt lat="42.38775700000016" lon="1.6180820000000025">
        <ele>1054.184</ele>
        <time>2022-08-19T21:37:57Z</time>
      </trkpt>
      <trkpt lat="42.38763300000016" lon="1.6181740000000024">
        <ele>1053.458</ele>
        <time>2022-08-19T21:37:59Z</time>
      </trkpt>
      <trkpt lat="42.38759800000016" lon="1.6182320000000023">
        <ele>1052.252</ele>
        <time>2022-08-19T21:38:01Z</time>
      </trkpt>
      <trkpt lat="42.38756800000016" lon="1.6182900000000022">
        <ele>1051.617</ele>
        <time>2022-08-19T21:38:03Z</time>
      </trkpt>
      <trkpt lat="42.38753300000016" lon="1.6183330000000022">
        <ele>1051.209</ele>
        <time>2022-08-19T21:38:05Z</time>
      </trkpt>
      <trkpt lat="42.38748600000016" lon="1.6183840000000023">
        <ele>1050.926</ele>
        <time>2022-08-19T21:38:07Z</time>
      </trkpt>
      <trkpt lat="42.38743200000016" lon="1.6184380000000023">
        <ele>1050.766</ele>
        <time>2022-08-19T21:38:09Z</time>
      </trkpt>
      <trkpt lat="42.38739200000016" lon="1.6184820000000022">
        <ele>1050.426</ele>
        <time>2022-08-19T21:38:11Z</time>
      </trkpt>
      <trkpt lat="42.387312000000165" lon="1.6185250000000022">
        <ele>1050.176</ele>
        <time>2022-08-19T21:38:14Z</time>
      </trkpt>
      <trkpt lat="42.38725100000016" lon="1.6185440000000022">
        <ele>1049.933</ele>
        <time>2022-08-19T21:38:16Z</time>
      </trkpt>
      <trkpt lat="42.387174000000165" lon="1.6185770000000022">
        <ele>1049.749</ele>
        <time>2022-08-19T21:38:18Z</time>
      </trkpt>
      <trkpt lat="42.387118000000164" lon="1.618605000000002">
        <ele>1049.649</ele>
        <time>2022-08-19T21:38:20Z</time>
      </trkpt>
      <trkpt lat="42.38705400000016" lon="1.618614000000002">
        <ele>1049.570</ele>
        <time>2022-08-19T21:38:22Z</time>
      </trkpt>
      <trkpt lat="42.38701600000016" lon="1.618648000000002">
        <ele>1049.525</ele>
        <time>2022-08-19T21:38:24Z</time>
      </trkpt>
      <trkpt lat="42.38694800000016" lon="1.618687000000002">
        <ele>1049.469</ele>
        <time>2022-08-19T21:38:26Z</time>
      </trkpt>
      <trkpt lat="42.38687400000016" lon="1.618713000000002">
        <ele>1049.304</ele>
        <time>2022-08-19T21:38:28Z</time>
      </trkpt>
      <trkpt lat="42.38679900000016" lon="1.618732000000002">
        <ele>1049.224</ele>
        <time>2022-08-19T21:38:30Z</time>
      </trkpt>
      <trkpt lat="42.38672000000016" lon="1.6187390000000021">
        <ele>1049.109</ele>
        <time>2022-08-19T21:38:32Z</time>
      </trkpt>
      <trkpt lat="42.38663900000016" lon="1.618748000000002">
        <ele>1048.977</ele>
        <time>2022-08-19T21:38:34Z</time>
      </trkpt>
      <trkpt lat="42.38656300000016" lon="1.618752000000002">
        <ele>1048.727</ele>
        <time>2022-08-19T21:38:36Z</time>
      </trkpt>
      <trkpt lat="42.38649500000016" lon="1.6187560000000019">
        <ele>1048.557</ele>
        <time>2022-08-19T21:38:38Z</time>
      </trkpt>
      <trkpt lat="42.38643800000016" lon="1.6187560000000019">
        <ele>1048.367</ele>
        <time>2022-08-19T21:38:40Z</time>
      </trkpt>
      <trkpt lat="42.38637300000016" lon="1.6187560000000019">
        <ele>1048.054</ele>
        <time>2022-08-19T21:38:42Z</time>
      </trkpt>
      <trkpt lat="42.38631400000016" lon="1.6187560000000019">
        <ele>1047.780</ele>
        <time>2022-08-19T21:38:45Z</time>
      </trkpt>
      <trkpt lat="42.38623900000016" lon="1.6187540000000018">
        <ele>1047.440</ele>
        <time>2022-08-19T21:38:47Z</time>
      </trkpt>
      <trkpt lat="42.38619300000016" lon="1.6187570000000018">
        <ele>1047.281</ele>
        <time>2022-08-19T21:38:48Z</time>
      </trkpt>
      <trkpt lat="42.38610300000016" lon="1.6187530000000019">
        <ele>1046.626</ele>
        <time>2022-08-19T21:38:50Z</time>
      </trkpt>
      <trkpt lat="42.38599100000016" lon="1.6187240000000018">
        <ele>1045.587</ele>
        <time>2022-08-19T21:38:52Z</time>
      </trkpt>
      <trkpt lat="42.38591900000016" lon="1.6187280000000017">
        <ele>1044.842</ele>
        <time>2022-08-19T21:38:54Z</time>
      </trkpt>
      <trkpt lat="42.38587300000016" lon="1.6187320000000016">
        <ele>1044.526</ele>
        <time>2022-08-19T21:38:55Z</time>
      </trkpt>
      <trkpt lat="42.38580300000016" lon="1.6187330000000015">
        <ele>1044.009</ele>
        <time>2022-08-19T21:38:57Z</time>
      </trkpt>
      <trkpt lat="42.38573000000016" lon="1.6187540000000016">
        <ele>1043.249</ele>
        <time>2022-08-19T21:38:59Z</time>
      </trkpt>
      <trkpt lat="42.38566500000016" lon="1.6187510000000016">
        <ele>1042.659</ele>
        <time>2022-08-19T21:39:01Z</time>
      </trkpt>
      <trkpt lat="42.38559700000016" lon="1.6187370000000016">
        <ele>1041.439</ele>
        <time>2022-08-19T21:39:04Z</time>
      </trkpt>
      <trkpt lat="42.38550400000016" lon="1.6187270000000016">
        <ele>1040.519</ele>
        <time>2022-08-19T21:39:06Z</time>
      </trkpt>
      <trkpt lat="42.38542200000016" lon="1.6187610000000017">
        <ele>1039.566</ele>
        <time>2022-08-19T21:39:08Z</time>
      </trkpt>
      <trkpt lat="42.38531000000016" lon="1.6188000000000016">
        <ele>1038.482</ele>
        <time>2022-08-19T21:39:10Z</time>
      </trkpt>
      <trkpt lat="42.385213000000164" lon="1.6188400000000016">
        <ele>1037.782</ele>
        <time>2022-08-19T21:39:12Z</time>
      </trkpt>
      <trkpt lat="42.38514300000016" lon="1.6189260000000016">
        <ele>1037.153</ele>
        <time>2022-08-19T21:39:14Z</time>
      </trkpt>
      <trkpt lat="42.385075000000164" lon="1.6189960000000017">
        <ele>1036.698</ele>
        <time>2022-08-19T21:39:16Z</time>
      </trkpt>
      <trkpt lat="42.385029000000166" lon="1.6190500000000017">
        <ele>1036.483</ele>
        <time>2022-08-19T21:39:17Z</time>
      </trkpt>
      <trkpt lat="42.384973000000166" lon="1.6191050000000016">
        <ele>1036.225</ele>
        <time>2022-08-19T21:39:18Z</time>
      </trkpt>
      <trkpt lat="42.384925000000166" lon="1.6191480000000016">
        <ele>1035.717</ele>
        <time>2022-08-19T21:39:20Z</time>
      </trkpt>
      <trkpt lat="42.38483700000017" lon="1.6191840000000015">
        <ele>1035.209</ele>
        <time>2022-08-19T21:39:22Z</time>
      </trkpt>
      <trkpt lat="42.384787000000166" lon="1.6192390000000014">
        <ele>1035.149</ele>
        <time>2022-08-19T21:39:24Z</time>
      </trkpt>
      <trkpt lat="42.384706000000165" lon="1.6193020000000014">
        <ele>1035.129</ele>
        <time>2022-08-19T21:39:26Z</time>
      </trkpt>
      <trkpt lat="42.38467000000016" lon="1.6193410000000013">
        <ele>1035.159</ele>
        <time>2022-08-19T21:39:27Z</time>
      </trkpt>
      <trkpt lat="42.38461800000017" lon="1.6193750000000013">
        <ele>1035.169</ele>
        <time>2022-08-19T21:39:28Z</time>
      </trkpt>
      <trkpt lat="42.384531000000166" lon="1.6194440000000014">
        <ele>1035.066</ele>
        <time>2022-08-19T21:39:30Z</time>
      </trkpt>
      <trkpt lat="42.384483000000166" lon="1.6194810000000015">
        <ele>1035.062</ele>
        <time>2022-08-19T21:39:31Z</time>
      </trkpt>
      <trkpt lat="42.38443200000017" lon="1.6195090000000014">
        <ele>1035.092</ele>
        <time>2022-08-19T21:39:32Z</time>
      </trkpt>
      <trkpt lat="42.38436900000017" lon="1.6195860000000015">
        <ele>1034.933</ele>
        <time>2022-08-19T21:39:34Z</time>
      </trkpt>
      <trkpt lat="42.38431800000017" lon="1.6196340000000016">
        <ele>1034.748</ele>
        <time>2022-08-19T21:39:36Z</time>
      </trkpt>
      <trkpt lat="42.38422900000017" lon="1.6196880000000016">
        <ele>1034.573</ele>
        <time>2022-08-19T21:39:38Z</time>
      </trkpt>
      <trkpt lat="42.384196000000166" lon="1.6197310000000016">
        <ele>1034.485</ele>
        <time>2022-08-19T21:39:39Z</time>
      </trkpt>
      <trkpt lat="42.38414800000017" lon="1.6197680000000017">
        <ele>1034.313</ele>
        <time>2022-08-19T21:39:40Z</time>
      </trkpt>
      <trkpt lat="42.38410800000017" lon="1.6198140000000016">
        <ele>1034.209</ele>
        <time>2022-08-19T21:39:41Z</time>
      </trkpt>
      <trkpt lat="42.38406900000017" lon="1.6198650000000017">
        <ele>1034.168</ele>
        <time>2022-08-19T21:39:42Z</time>
      </trkpt>
      <trkpt lat="42.38399300000017" lon="1.6199470000000016">
        <ele>1034.038</ele>
        <time>2022-08-19T21:39:44Z</time>
      </trkpt>
      <trkpt lat="42.383921000000164" lon="1.6200120000000016">
        <ele>1033.928</ele>
        <time>2022-08-19T21:39:46Z</time>
      </trkpt>
      <trkpt lat="42.383859000000164" lon="1.6200350000000017">
        <ele>1033.878</ele>
        <time>2022-08-19T21:39:47Z</time>
      </trkpt>
      <trkpt lat="42.383814000000164" lon="1.6200930000000016">
        <ele>1033.625</ele>
        <time>2022-08-19T21:39:49Z</time>
      </trkpt>
      <trkpt lat="42.383749000000165" lon="1.6201490000000016">
        <ele>1033.451</ele>
        <time>2022-08-19T21:39:51Z</time>
      </trkpt>
      <trkpt lat="42.38369900000016" lon="1.6201930000000015">
        <ele>1033.251</ele>
        <time>2022-08-19T21:39:53Z</time>
      </trkpt>
      <trkpt lat="42.383659000000165" lon="1.6202210000000015">
        <ele>1033.122</ele>
        <time>2022-08-19T21:39:54Z</time>
      </trkpt>
      <trkpt lat="42.383577000000166" lon="1.6202630000000016">
        <ele>1032.917</ele>
        <time>2022-08-19T21:39:56Z</time>
      </trkpt>
      <trkpt lat="42.383501000000166" lon="1.6202930000000015">
        <ele>1032.738</ele>
        <time>2022-08-19T21:39:57Z</time>
      </trkpt>
      <trkpt lat="42.38345200000017" lon="1.6203130000000014">
        <ele>1032.570</ele>
        <time>2022-08-19T21:39:58Z</time>
      </trkpt>
      <trkpt lat="42.38336200000017" lon="1.6203820000000015">
        <ele>1032.117</ele>
        <time>2022-08-19T21:40:00Z</time>
      </trkpt>
      <trkpt lat="42.38324700000017" lon="1.6204890000000016">
        <ele>1031.709</ele>
        <time>2022-08-19T21:40:02Z</time>
      </trkpt>
      <trkpt lat="42.38320200000017" lon="1.6205360000000015">
        <ele>1031.574</ele>
        <time>2022-08-19T21:40:03Z</time>
      </trkpt>
      <trkpt lat="42.383133000000164" lon="1.6206290000000014">
        <ele>1031.034</ele>
        <time>2022-08-19T21:40:05Z</time>
      </trkpt>
      <trkpt lat="42.38310000000016" lon="1.6206780000000014">
        <ele>1030.844</ele>
        <time>2022-08-19T21:40:06Z</time>
      </trkpt>
      <trkpt lat="42.38302800000016" lon="1.6207670000000014">
        <ele>1030.584</ele>
        <time>2022-08-19T21:40:08Z</time>
      </trkpt>
      <trkpt lat="42.38299900000016" lon="1.6208190000000013">
        <ele>1030.321</ele>
        <time>2022-08-19T21:40:09Z</time>
      </trkpt>
      <trkpt lat="42.38296200000016" lon="1.6208780000000014">
        <ele>1030.137</ele>
        <time>2022-08-19T21:40:10Z</time>
      </trkpt>
      <trkpt lat="42.38292800000016" lon="1.6209360000000013">
        <ele>1029.987</ele>
        <time>2022-08-19T21:40:11Z</time>
      </trkpt>
      <trkpt lat="42.38286400000016" lon="1.6210140000000013">
        <ele>1029.518</ele>
        <time>2022-08-19T21:40:13Z</time>
      </trkpt>
      <trkpt lat="42.382801000000164" lon="1.6211040000000012">
        <ele>1029.093</ele>
        <time>2022-08-19T21:40:15Z</time>
      </trkpt>
      <trkpt lat="42.38273100000016" lon="1.6211960000000012">
        <ele>1028.664</ele>
        <time>2022-08-19T21:40:17Z</time>
      </trkpt>
      <trkpt lat="42.38268600000016" lon="1.6212590000000011">
        <ele>1028.406</ele>
        <time>2022-08-19T21:40:18Z</time>
      </trkpt>
      <trkpt lat="42.38258800000016" lon="1.6213660000000012">
        <ele>1028.016</ele>
        <time>2022-08-19T21:40:20Z</time>
      </trkpt>
      <trkpt lat="42.38251900000016" lon="1.6214810000000013">
        <ele>1027.709</ele>
        <time>2022-08-19T21:40:22Z</time>
      </trkpt>
      <trkpt lat="42.38246600000016" lon="1.6215450000000013">
        <ele>1027.677</ele>
        <time>2022-08-19T21:40:23Z</time>
      </trkpt>
      <trkpt lat="42.38240900000016" lon="1.6215770000000014">
        <ele>1027.537</ele>
        <time>2022-08-19T21:40:24Z</time>
      </trkpt>
      <trkpt lat="42.38233900000016" lon="1.6217470000000014">
        <ele>1027.377</ele>
        <time>2022-08-19T21:40:26Z</time>
      </trkpt>
      <trkpt lat="42.38232100000016" lon="1.6218150000000013">
        <ele>1027.287</ele>
        <time>2022-08-19T21:40:27Z</time>
      </trkpt>
      <trkpt lat="42.38225400000016" lon="1.6219170000000014">
        <ele>1027.114</ele>
        <time>2022-08-19T21:40:29Z</time>
      </trkpt>
      <trkpt lat="42.38218800000016" lon="1.6220620000000014">
        <ele>1026.990</ele>
        <time>2022-08-19T21:40:31Z</time>
      </trkpt>
      <trkpt lat="42.38214400000016" lon="1.6220970000000015">
        <ele>1026.810</ele>
        <time>2022-08-19T21:40:32Z</time>
      </trkpt>
      <trkpt lat="42.38210000000016" lon="1.6221590000000015">
        <ele>1026.741</ele>
        <time>2022-08-19T21:40:33Z</time>
      </trkpt>
      <trkpt lat="42.382033000000156" lon="1.6222750000000015">
        <ele>1026.546</ele>
        <time>2022-08-19T21:40:35Z</time>
      </trkpt>
      <trkpt lat="42.381963000000155" lon="1.6223690000000015">
        <ele>1026.378</ele>
        <time>2022-08-19T21:40:37Z</time>
      </trkpt>
      <trkpt lat="42.38191100000016" lon="1.6224240000000014">
        <ele>1026.133</ele>
        <time>2022-08-19T21:40:38Z</time>
      </trkpt>
      <trkpt lat="42.381842000000155" lon="1.6224760000000014">
        <ele>1026.026</ele>
        <time>2022-08-19T21:40:39Z</time>
      </trkpt>
      <trkpt lat="42.38171900000015" lon="1.6225630000000013">
        <ele>1025.709</ele>
        <time>2022-08-19T21:40:41Z</time>
      </trkpt>
      <trkpt lat="42.381679000000155" lon="1.6225950000000013">
        <ele>1025.588</ele>
        <time>2022-08-19T21:40:42Z</time>
      </trkpt>
      <trkpt lat="42.38159300000015" lon="1.6226660000000013">
        <ele>1025.398</ele>
        <time>2022-08-19T21:40:44Z</time>
      </trkpt>
      <trkpt lat="42.38149300000015" lon="1.6227440000000013">
        <ele>1025.148</ele>
        <time>2022-08-19T21:40:46Z</time>
      </trkpt>
      <trkpt lat="42.38145300000015" lon="1.6227760000000013">
        <ele>1025.148</ele>
        <time>2022-08-19T21:40:47Z</time>
      </trkpt>
      <trkpt lat="42.38140900000015" lon="1.6228210000000014">
        <ele>1025.175</ele>
        <time>2022-08-19T21:40:48Z</time>
      </trkpt>
      <trkpt lat="42.38131800000015" lon="1.6228970000000014">
        <ele>1025.131</ele>
        <time>2022-08-19T21:40:50Z</time>
      </trkpt>
      <trkpt lat="42.38126900000015" lon="1.6229180000000014">
        <ele>1025.131</ele>
        <time>2022-08-19T21:40:51Z</time>
      </trkpt>
      <trkpt lat="42.381178000000155" lon="1.6229570000000013">
        <ele>1025.252</ele>
        <time>2022-08-19T21:40:53Z</time>
      </trkpt>
      <trkpt lat="42.38108100000016" lon="1.6229920000000013">
        <ele>1025.487</ele>
        <time>2022-08-19T21:40:55Z</time>
      </trkpt>
      <trkpt lat="42.38098200000016" lon="1.6230170000000013">
        <ele>1025.574</ele>
        <time>2022-08-19T21:40:57Z</time>
      </trkpt>
      <trkpt lat="42.38093600000016" lon="1.6230290000000012">
        <ele>1025.556</ele>
        <time>2022-08-19T21:40:58Z</time>
      </trkpt>
      <trkpt lat="42.38083700000016" lon="1.623068000000001">
        <ele>1025.421</ele>
        <time>2022-08-19T21:41:00Z</time>
      </trkpt>
      <trkpt lat="42.380757000000166" lon="1.6230940000000011">
        <ele>1025.109</ele>
        <time>2022-08-19T21:41:02Z</time>
      </trkpt>
      <trkpt lat="42.38067100000016" lon="1.6230970000000011">
        <ele>1024.768</ele>
        <time>2022-08-19T21:41:04Z</time>
      </trkpt>
      <trkpt lat="42.380561000000164" lon="1.6231050000000011">
        <ele>1024.128</ele>
        <time>2022-08-19T21:41:06Z</time>
      </trkpt>
      <trkpt lat="42.380454000000164" lon="1.6231340000000012">
        <ele>1023.328</ele>
        <time>2022-08-19T21:41:08Z</time>
      </trkpt>
      <trkpt lat="42.38036200000016" lon="1.6231490000000013">
        <ele>1022.378</ele>
        <time>2022-08-19T21:41:10Z</time>
      </trkpt>
      <trkpt lat="42.380316000000164" lon="1.6231520000000013">
        <ele>1021.885</ele>
        <time>2022-08-19T21:41:11Z</time>
      </trkpt>
      <trkpt lat="42.380251000000165" lon="1.6231360000000012">
        <ele>1020.781</ele>
        <time>2022-08-19T21:41:13Z</time>
      </trkpt>
      <trkpt lat="42.380212000000164" lon="1.6230970000000013">
        <ele>1019.941</ele>
        <time>2022-08-19T21:41:15Z</time>
      </trkpt>
      <trkpt lat="42.380150000000164" lon="1.6230910000000014">
        <ele>1017.862</ele>
        <time>2022-08-19T21:41:24Z</time>
      </trkpt>
      <trkpt lat="42.380104000000166" lon="1.6230950000000013">
        <ele>1017.277</ele>
        <time>2022-08-19T21:41:29Z</time>
      </trkpt>
      <trkpt lat="42.38005300000017" lon="1.6230940000000014">
        <ele>1017.174</ele>
        <time>2022-08-19T21:41:33Z</time>
      </trkpt>
      <trkpt lat="42.37999300000017" lon="1.6231070000000014">
        <ele>1017.256</ele>
        <time>2022-08-19T21:41:38Z</time>
      </trkpt>
      <trkpt lat="42.37993900000017" lon="1.6231440000000015">
        <ele>1017.221</ele>
        <time>2022-08-19T21:41:41Z</time>
      </trkpt>
      <trkpt lat="42.37990700000017" lon="1.6231930000000014">
        <ele>1017.309</ele>
        <time>2022-08-19T21:41:45Z</time>
      </trkpt>
      <trkpt lat="42.379858000000176" lon="1.6232090000000015">
        <ele>1017.338</ele>
        <time>2022-08-19T21:41:48Z</time>
      </trkpt>
      <trkpt lat="42.379811000000174" lon="1.6232260000000014">
        <ele>1017.578</ele>
        <time>2022-08-19T21:41:51Z</time>
      </trkpt>
      <trkpt lat="42.379780000000174" lon="1.6232730000000013">
        <ele>1017.658</ele>
        <time>2022-08-19T21:41:55Z</time>
      </trkpt>
      <trkpt lat="42.37979200000017" lon="1.6233360000000012">
        <ele>1017.518</ele>
        <time>2022-08-19T21:42:01Z</time>
      </trkpt>
      <trkpt lat="42.37979000000017" lon="1.6233970000000013">
        <ele>1016.885</ele>
        <time>2022-08-19T21:42:06Z</time>
      </trkpt>
      <trkpt lat="42.37975700000017" lon="1.6234580000000014">
        <ele>1016.081</ele>
        <time>2022-08-19T21:42:11Z</time>
      </trkpt>
      <trkpt lat="42.37974300000017" lon="1.6235230000000014">
        <ele>1014.011</ele>
        <time>2022-08-19T21:42:18Z</time>
      </trkpt>
      <trkpt lat="42.37972800000017" lon="1.6235870000000014">
        <ele>1012.832</ele>
        <time>2022-08-19T21:42:21Z</time>
      </trkpt>
      <trkpt lat="42.379693000000174" lon="1.6236510000000015">
        <ele>1011.647</ele>
        <time>2022-08-19T21:42:25Z</time>
      </trkpt>
      <trkpt lat="42.37963700000017" lon="1.6236760000000015">
        <ele>1010.249</ele>
        <time>2022-08-19T21:42:28Z</time>
      </trkpt>
      <trkpt lat="42.379597000000174" lon="1.6237180000000015">
        <ele>1008.802</ele>
        <time>2022-08-19T21:42:31Z</time>
      </trkpt>
      <trkpt lat="42.37955800000017" lon="1.6237510000000015">
        <ele>1007.322</ele>
        <time>2022-08-19T21:42:34Z</time>
      </trkpt>
      <trkpt lat="42.37952000000017" lon="1.6237880000000016">
        <ele>1005.809</ele>
        <time>2022-08-19T21:42:37Z</time>
      </trkpt>
      <trkpt lat="42.37945600000017" lon="1.6238030000000017">
        <ele>1003.755</ele>
        <time>2022-08-19T21:42:41Z</time>
      </trkpt>
      <trkpt lat="42.37940300000017" lon="1.6238270000000017">
        <ele>1003.245</ele>
        <time>2022-08-19T21:42:44Z</time>
      </trkpt>
      <trkpt lat="42.379359000000164" lon="1.6238520000000016">
        <ele>1002.775</ele>
        <time>2022-08-19T21:42:47Z</time>
      </trkpt>
      <trkpt lat="42.379300000000164" lon="1.6238760000000017">
        <ele>1001.735</ele>
        <time>2022-08-19T21:42:51Z</time>
      </trkpt>
      <trkpt lat="42.37925600000016" lon="1.6238610000000016">
        <ele>1001.042</ele>
        <time>2022-08-19T21:42:53Z</time>
      </trkpt>
      <trkpt lat="42.37920300000016" lon="1.6238590000000015">
        <ele>1000.168</ele>
        <time>2022-08-19T21:42:56Z</time>
      </trkpt>
      <trkpt lat="42.37915800000016" lon="1.6238700000000015">
        <ele>999.638</ele>
        <time>2022-08-19T21:42:59Z</time>
      </trkpt>
      <trkpt lat="42.37910800000016" lon="1.6238990000000015">
        <ele>999.019</ele>
        <time>2022-08-19T21:43:03Z</time>
      </trkpt>
      <trkpt lat="42.379061000000156" lon="1.6238840000000014">
        <ele>998.564</ele>
        <time>2022-08-19T21:43:06Z</time>
      </trkpt>
    </trkseg>
  </trk>
</gpx>
